<?xml version='1.0' encoding='UTF-8'?><gpx version="1.1" creator="JPX - https://github.com/jenetics/jpx" xmlns="http://www.topografix.com/GPX/1/1"><trk><trkseg><trkpt lat="43.4440716" lon="13.6048459"><ele>16.0</ele><time>2026-04-18T07:06:32.605Z</time></trkpt><trkpt lat="43.4446431" lon="13.604861"><ele>16.0</ele><time>2026-04-18T07:06:52.865Z</time></trkpt><trkpt lat="43.44454" lon="13.6045683"><ele>16.0</ele><time>2026-04-18T07:06:59.493Z</time></trkpt><trkpt lat="43.4444583" lon="13.6042867"><ele>15.999999999999998</ele><time>2026-04-18T07:07:03.077Z</time></trkpt><trkpt lat="43.4443867" lon="13.6043517"><ele>16.0</ele><time>2026-04-18T07:07:07.077Z</time></trkpt><trkpt lat="43.44432" lon="13.6043967"><ele>16.0</ele><time>2026-04-18T07:07:13.077Z</time></trkpt><trkpt lat="43.44436" lon="13.6044867"><ele>16.0</ele><time>2026-04-18T07:08:05.077Z</time></trkpt><trkpt lat="43.4444217" lon="13.60457"><ele>15.999999999999998</ele><time>2026-04-18T07:08:07.078Z</time></trkpt><trkpt lat="43.44448" lon="13.6046217"><ele>16.0</ele><time>2026-04-18T07:08:09.077Z</time></trkpt><trkpt lat="43.4445533" lon="13.6046183"><ele>16.0</ele><time>2026-04-18T07:08:11.077Z</time></trkpt><trkpt lat="43.4446667" lon="13.6045583"><ele>16.0</ele><time>2026-04-18T07:08:13.078Z</time></trkpt><trkpt lat="43.4447417" lon="13.60452"><ele>16.0</ele><time>2026-04-18T07:08:14.077Z</time></trkpt><trkpt lat="43.4448383" lon="13.6044667"><ele>16.0</ele><time>2026-04-18T07:08:15.077Z</time></trkpt><trkpt lat="43.4449517" lon="13.6044017"><ele>16.0</ele><time>2026-04-18T07:08:16.077Z</time></trkpt><trkpt lat="43.4450783" lon="13.6043317"><ele>15.600000000000001</ele><time>2026-04-18T07:08:17.077Z</time></trkpt><trkpt lat="43.4452083" lon="13.6042617"><ele>15.200000000000001</ele><time>2026-04-18T07:08:18.077Z</time></trkpt><trkpt lat="43.4453183" lon="13.604205"><ele>14.799999999999999</ele><time>2026-04-18T07:08:19.077Z</time></trkpt><trkpt lat="43.4454033" lon="13.604165"><ele>14.399999999999999</ele><time>2026-04-18T07:08:20.077Z</time></trkpt><trkpt lat="43.4454717" lon="13.6041367"><ele>14.0</ele><time>2026-04-18T07:08:21.078Z</time></trkpt><trkpt lat="43.4455683" lon="13.6040717"><ele>14.0</ele><time>2026-04-18T07:08:23.077Z</time></trkpt><trkpt lat="43.44561" lon="13.6039717"><ele>13.999999999999998</ele><time>2026-04-18T07:09:13.077Z</time></trkpt><trkpt lat="43.44557" lon="13.6037983"><ele>13.999999999999998</ele><time>2026-04-18T07:09:15.077Z</time></trkpt><trkpt lat="43.4455183" lon="13.6036817"><ele>14.0</ele><time>2026-04-18T07:09:16.077Z</time></trkpt><trkpt lat="43.44546" lon="13.6035617"><ele>14.0</ele><time>2026-04-18T07:09:17.077Z</time></trkpt><trkpt lat="43.4454" lon="13.6034317"><ele>14.0</ele><time>2026-04-18T07:09:18.077Z</time></trkpt><trkpt lat="43.44533" lon="13.6032867"><ele>14.0</ele><time>2026-04-18T07:09:19.077Z</time></trkpt><trkpt lat="43.4452533" lon="13.60313"><ele>14.0</ele><time>2026-04-18T07:09:20.077Z</time></trkpt><trkpt lat="43.44518" lon="13.602965"><ele>14.0</ele><time>2026-04-18T07:09:21.078Z</time></trkpt><trkpt lat="43.4451033" lon="13.6027833"><ele>13.666666666666668</ele><time>2026-04-18T07:09:22.078Z</time></trkpt><trkpt lat="43.4450183" lon="13.6025867"><ele>13.333333333333332</ele><time>2026-04-18T07:09:23.077Z</time></trkpt><trkpt lat="43.4449283" lon="13.6023967"><ele>13.0</ele><time>2026-04-18T07:09:24.077Z</time></trkpt><trkpt lat="43.444845" lon="13.6022117"><ele>13.0</ele><time>2026-04-18T07:09:25.077Z</time></trkpt><trkpt lat="43.444755" lon="13.60203"><ele>13.0</ele><time>2026-04-18T07:09:26.077Z</time></trkpt><trkpt lat="43.4446767" lon="13.6018683"><ele>13.0</ele><time>2026-04-18T07:09:27.077Z</time></trkpt><trkpt lat="43.4445967" lon="13.601725"><ele>13.0</ele><time>2026-04-18T07:09:28.077Z</time></trkpt><trkpt lat="43.4445267" lon="13.6015933"><ele>13.166666666666666</ele><time>2026-04-18T07:09:29.077Z</time></trkpt><trkpt lat="43.4444683" lon="13.6014867"><ele>13.333333333333332</ele><time>2026-04-18T07:09:30.078Z</time></trkpt><trkpt lat="43.444425" lon="13.6013883"><ele>13.5</ele><time>2026-04-18T07:09:31.077Z</time></trkpt><trkpt lat="43.4443817" lon="13.6013117"><ele>13.666666666666668</ele><time>2026-04-18T07:09:32.077Z</time></trkpt><trkpt lat="43.4443133" lon="13.601165"><ele>13.833333333333334</ele><time>2026-04-18T07:09:34.077Z</time></trkpt><trkpt lat="43.44427" lon="13.6011017"><ele>14.0</ele><time>2026-04-18T07:09:35.077Z</time></trkpt><trkpt lat="43.4442183" lon="13.601045"><ele>14.166666666666668</ele><time>2026-04-18T07:09:36.077Z</time></trkpt><trkpt lat="43.444165" lon="13.600985"><ele>14.333333333333334</ele><time>2026-04-18T07:09:37.077Z</time></trkpt><trkpt lat="43.4441017" lon="13.600925"><ele>14.5</ele><time>2026-04-18T07:09:38.077Z</time></trkpt><trkpt lat="43.4440433" lon="13.6008833"><ele>14.666666666666668</ele><time>2026-04-18T07:09:39.077Z</time></trkpt><trkpt lat="43.4439717" lon="13.6007483"><ele>14.833333333333334</ele><time>2026-04-18T07:09:41.077Z</time></trkpt><trkpt lat="43.443965" lon="13.6006617"><ele>15.0</ele><time>2026-04-18T07:09:42.077Z</time></trkpt><trkpt lat="43.4439767" lon="13.6005617"><ele>15.0</ele><time>2026-04-18T07:09:43.077Z</time></trkpt><trkpt lat="43.443995" lon="13.60045"><ele>15.0</ele><time>2026-04-18T07:09:44.077Z</time></trkpt><trkpt lat="43.4440233" lon="13.60032"><ele>15.0</ele><time>2026-04-18T07:09:45.077Z</time></trkpt><trkpt lat="43.444045" lon="13.600175"><ele>15.0</ele><time>2026-04-18T07:09:46.077Z</time></trkpt><trkpt lat="43.4440717" lon="13.6000317"><ele>15.0</ele><time>2026-04-18T07:09:47.077Z</time></trkpt><trkpt lat="43.44409" lon="13.5998917"><ele>15.166666666666666</ele><time>2026-04-18T07:09:48.078Z</time></trkpt><trkpt lat="43.4441117" lon="13.5997667"><ele>15.333333333333332</ele><time>2026-04-18T07:09:49.077Z</time></trkpt><trkpt lat="43.4441367" lon="13.5996483"><ele>15.5</ele><time>2026-04-18T07:09:50.077Z</time></trkpt><trkpt lat="43.444165" lon="13.5995367"><ele>15.666666666666666</ele><time>2026-04-18T07:09:51.077Z</time></trkpt><trkpt lat="43.4441933" lon="13.5994383"><ele>15.833333333333332</ele><time>2026-04-18T07:09:52.078Z</time></trkpt><trkpt lat="43.4442083" lon="13.5993533"><ele>16.0</ele><time>2026-04-18T07:09:53.077Z</time></trkpt><trkpt lat="43.4442117" lon="13.5992067"><ele>16.0</ele><time>2026-04-18T07:09:55.077Z</time></trkpt><trkpt lat="43.4441367" lon="13.599115"><ele>16.0</ele><time>2026-04-18T07:09:57.077Z</time></trkpt><trkpt lat="43.4440317" lon="13.5991033"><ele>16.0</ele><time>2026-04-18T07:09:59.078Z</time></trkpt><trkpt lat="43.4439633" lon="13.599095"><ele>16.0</ele><time>2026-04-18T07:10:00.077Z</time></trkpt><trkpt lat="43.4438767" lon="13.5990767"><ele>16.0</ele><time>2026-04-18T07:10:01.077Z</time></trkpt><trkpt lat="43.44379" lon="13.5990483"><ele>15.999999999999998</ele><time>2026-04-18T07:10:02.077Z</time></trkpt><trkpt lat="43.4437167" lon="13.5990283"><ele>16.0</ele><time>2026-04-18T07:10:03.077Z</time></trkpt><trkpt lat="43.4436483" lon="13.5990183"><ele>16.0</ele><time>2026-04-18T07:10:04.078Z</time></trkpt><trkpt lat="43.4435517" lon="13.5990183"><ele>16.0</ele><time>2026-04-18T07:10:06.077Z</time></trkpt><trkpt lat="43.443475" lon="13.5989967"><ele>15.999999999999998</ele><time>2026-04-18T07:10:08.077Z</time></trkpt><trkpt lat="43.4434017" lon="13.59897"><ele>16.0</ele><time>2026-04-18T07:10:10.077Z</time></trkpt><trkpt lat="43.4433467" lon="13.5989183"><ele>16.0</ele><time>2026-04-18T07:10:12.077Z</time></trkpt><trkpt lat="43.443325" lon="13.5987983"><ele>16.0</ele><time>2026-04-18T07:10:14.077Z</time></trkpt><trkpt lat="43.4433233" lon="13.5986217"><ele>16.0</ele><time>2026-04-18T07:10:16.077Z</time></trkpt><trkpt lat="43.4432433" lon="13.5984733"><ele>16.0</ele><time>2026-04-18T07:10:18.077Z</time></trkpt><trkpt lat="43.4431783" lon="13.5984"><ele>16.0</ele><time>2026-04-18T07:10:19.077Z</time></trkpt><trkpt lat="43.4431267" lon="13.59833"><ele>15.999999999999998</ele><time>2026-04-18T07:10:20.077Z</time></trkpt><trkpt lat="43.4430733" lon="13.5982567"><ele>16.0</ele><time>2026-04-18T07:10:21.077Z</time></trkpt><trkpt lat="43.4430167" lon="13.5981867"><ele>16.0</ele><time>2026-04-18T07:10:22.077Z</time></trkpt><trkpt lat="43.4429683" lon="13.5981267"><ele>16.0</ele><time>2026-04-18T07:10:23.077Z</time></trkpt><trkpt lat="43.442895" lon="13.5980383"><ele>15.999999999999998</ele><time>2026-04-18T07:10:25.077Z</time></trkpt><trkpt lat="43.4428383" lon="13.5979667"><ele>16.0</ele><time>2026-04-18T07:10:28.077Z</time></trkpt><trkpt lat="43.4427833" lon="13.597915"><ele>15.999999999999998</ele><time>2026-04-18T07:10:31.077Z</time></trkpt><trkpt lat="43.442705" lon="13.5978233"><ele>16.0</ele><time>2026-04-18T07:10:35.077Z</time></trkpt><trkpt lat="43.4426567" lon="13.5977483"><ele>16.0</ele><time>2026-04-18T07:10:36.077Z</time></trkpt><trkpt lat="43.4426017" lon="13.5976683"><ele>16.0</ele><time>2026-04-18T07:10:37.077Z</time></trkpt><trkpt lat="43.44254" lon="13.59761"><ele>15.999999999999998</ele><time>2026-04-18T07:10:38.078Z</time></trkpt><trkpt lat="43.4424683" lon="13.5975483"><ele>16.0</ele><time>2026-04-18T07:10:39.078Z</time></trkpt><trkpt lat="43.4424033" lon="13.5974683"><ele>16.0</ele><time>2026-04-18T07:10:40.077Z</time></trkpt><trkpt lat="43.4423267" lon="13.5973917"><ele>16.0</ele><time>2026-04-18T07:10:41.077Z</time></trkpt><trkpt lat="43.4422433" lon="13.5973083"><ele>16.0</ele><time>2026-04-18T07:10:42.077Z</time></trkpt><trkpt lat="43.44217" lon="13.5972333"><ele>16.0</ele><time>2026-04-18T07:10:43.078Z</time></trkpt><trkpt lat="43.442095" lon="13.5971617"><ele>16.0</ele><time>2026-04-18T07:10:44.078Z</time></trkpt><trkpt lat="43.4420433" lon="13.5970883"><ele>15.999999999999998</ele><time>2026-04-18T07:10:45.077Z</time></trkpt><trkpt lat="43.4419733" lon="13.597055"><ele>16.0</ele><time>2026-04-18T07:10:46.077Z</time></trkpt><trkpt lat="43.4418983" lon="13.59704"><ele>16.0</ele><time>2026-04-18T07:10:47.077Z</time></trkpt><trkpt lat="43.44182" lon="13.59706"><ele>16.0</ele><time>2026-04-18T07:10:48.078Z</time></trkpt><trkpt lat="43.4417467" lon="13.5971017"><ele>15.999999999999998</ele><time>2026-04-18T07:10:49.077Z</time></trkpt><trkpt lat="43.4416817" lon="13.5971717"><ele>16.0</ele><time>2026-04-18T07:10:50.078Z</time></trkpt><trkpt lat="43.4416233" lon="13.59726"><ele>15.999999999999998</ele><time>2026-04-18T07:10:51.077Z</time></trkpt><trkpt lat="43.4415617" lon="13.5973633"><ele>16.0</ele><time>2026-04-18T07:10:52.077Z</time></trkpt><trkpt lat="43.4415033" lon="13.59746"><ele>16.0</ele><time>2026-04-18T07:10:53.078Z</time></trkpt><trkpt lat="43.4414467" lon="13.59755"><ele>16.0</ele><time>2026-04-18T07:10:54.077Z</time></trkpt><trkpt lat="43.4413867" lon="13.5976283"><ele>15.999999999999998</ele><time>2026-04-18T07:10:55.078Z</time></trkpt><trkpt lat="43.44133" lon="13.597685"><ele>16.0</ele><time>2026-04-18T07:10:56.078Z</time></trkpt><trkpt lat="43.4412633" lon="13.59771"><ele>16.166666666666664</ele><time>2026-04-18T07:10:57.077Z</time></trkpt><trkpt lat="43.44119" lon="13.5977"><ele>16.333333333333332</ele><time>2026-04-18T07:10:58.077Z</time></trkpt><trkpt lat="43.4411217" lon="13.5976617"><ele>16.5</ele><time>2026-04-18T07:10:59.077Z</time></trkpt><trkpt lat="43.4410517" lon="13.5975917"><ele>16.666666666666668</ele><time>2026-04-18T07:11:00.077Z</time></trkpt><trkpt lat="43.4409767" lon="13.5975067"><ele>16.833333333333336</ele><time>2026-04-18T07:11:01.077Z</time></trkpt><trkpt lat="43.4408967" lon="13.597405"><ele>17.0</ele><time>2026-04-18T07:11:02.077Z</time></trkpt><trkpt lat="43.4408117" lon="13.5973067"><ele>17.0</ele><time>2026-04-18T07:11:03.077Z</time></trkpt><trkpt lat="43.4407117" lon="13.5972067"><ele>17.0</ele><time>2026-04-18T07:11:04.077Z</time></trkpt><trkpt lat="43.440615" lon="13.597105"><ele>17.0</ele><time>2026-04-18T07:11:05.077Z</time></trkpt><trkpt lat="43.4405283" lon="13.597005"><ele>17.0</ele><time>2026-04-18T07:11:06.078Z</time></trkpt><trkpt lat="43.4404467" lon="13.5969217"><ele>17.2</ele><time>2026-04-18T07:11:07.077Z</time></trkpt><trkpt lat="43.4403767" lon="13.59684"><ele>17.4</ele><time>2026-04-18T07:11:08.078Z</time></trkpt><trkpt lat="43.4403067" lon="13.5967517"><ele>17.6</ele><time>2026-04-18T07:11:09.077Z</time></trkpt><trkpt lat="43.4402317" lon="13.596665"><ele>17.8</ele><time>2026-04-18T07:11:10.077Z</time></trkpt><trkpt lat="43.44015" lon="13.59657"><ele>18.0</ele><time>2026-04-18T07:11:11.077Z</time></trkpt><trkpt lat="43.44006" lon="13.5964667"><ele>18.0</ele><time>2026-04-18T07:11:12.077Z</time></trkpt><trkpt lat="43.4399667" lon="13.59636"><ele>18.0</ele><time>2026-04-18T07:11:13.078Z</time></trkpt><trkpt lat="43.4398617" lon="13.5962417"><ele>18.0</ele><time>2026-04-18T07:11:14.077Z</time></trkpt><trkpt lat="43.4397583" lon="13.5961267"><ele>18.0</ele><time>2026-04-18T07:11:15.077Z</time></trkpt><trkpt lat="43.439655" lon="13.59601"><ele>18.25</ele><time>2026-04-18T07:11:16.077Z</time></trkpt><trkpt lat="43.43955" lon="13.5958983"><ele>18.5</ele><time>2026-04-18T07:11:17.078Z</time></trkpt><trkpt lat="43.4394433" lon="13.5957717"><ele>18.75</ele><time>2026-04-18T07:11:18.077Z</time></trkpt><trkpt lat="43.4393317" lon="13.595645"><ele>19.0</ele><time>2026-04-18T07:11:19.077Z</time></trkpt><trkpt lat="43.439215" lon="13.5955267"><ele>19.0</ele><time>2026-04-18T07:11:20.077Z</time></trkpt><trkpt lat="43.4390983" lon="13.5953933"><ele>19.0</ele><time>2026-04-18T07:11:21.077Z</time></trkpt><trkpt lat="43.438985" lon="13.59526"><ele>19.0</ele><time>2026-04-18T07:11:22.077Z</time></trkpt><trkpt lat="43.438865" lon="13.59513"><ele>18.75</ele><time>2026-04-18T07:11:23.077Z</time></trkpt><trkpt lat="43.4387567" lon="13.5949983"><ele>18.5</ele><time>2026-04-18T07:11:24.077Z</time></trkpt><trkpt lat="43.4386467" lon="13.5948583"><ele>18.25</ele><time>2026-04-18T07:11:25.077Z</time></trkpt><trkpt lat="43.438535" lon="13.594735"><ele>18.0</ele><time>2026-04-18T07:11:26.078Z</time></trkpt><trkpt lat="43.4384417" lon="13.59461"><ele>17.75</ele><time>2026-04-18T07:11:27.077Z</time></trkpt><trkpt lat="43.43833" lon="13.5945"><ele>17.5</ele><time>2026-04-18T07:11:28.078Z</time></trkpt><trkpt lat="43.4382183" lon="13.59438"><ele>17.25</ele><time>2026-04-18T07:11:29.077Z</time></trkpt><trkpt lat="43.43811" lon="13.59426"><ele>17.0</ele><time>2026-04-18T07:11:30.077Z</time></trkpt><trkpt lat="43.4380033" lon="13.5941433"><ele>17.5</ele><time>2026-04-18T07:11:31.078Z</time></trkpt><trkpt lat="43.4378967" lon="13.5940317"><ele>18.0</ele><time>2026-04-18T07:11:32.077Z</time></trkpt><trkpt lat="43.4378" lon="13.5939217"><ele>18.5</ele><time>2026-04-18T07:11:33.077Z</time></trkpt><trkpt lat="43.437695" lon="13.5938283"><ele>19.0</ele><time>2026-04-18T07:11:34.077Z</time></trkpt><trkpt lat="43.4375783" lon="13.5937583"><ele>19.0</ele><time>2026-04-18T07:11:35.078Z</time></trkpt><trkpt lat="43.4374633" lon="13.5937067"><ele>19.0</ele><time>2026-04-18T07:11:36.077Z</time></trkpt><trkpt lat="43.4373467" lon="13.5936917"><ele>19.0</ele><time>2026-04-18T07:11:37.077Z</time></trkpt><trkpt lat="43.4372067" lon="13.5936867"><ele>19.0</ele><time>2026-04-18T07:11:38.077Z</time></trkpt><trkpt lat="43.437065" lon="13.5937083"><ele>19.5</ele><time>2026-04-18T07:11:39.077Z</time></trkpt><trkpt lat="43.43692" lon="13.5937367"><ele>20.0</ele><time>2026-04-18T07:11:40.077Z</time></trkpt><trkpt lat="43.4367867" lon="13.5937717"><ele>20.5</ele><time>2026-04-18T07:11:41.078Z</time></trkpt><trkpt lat="43.4366567" lon="13.5938117"><ele>21.0</ele><time>2026-04-18T07:11:42.077Z</time></trkpt><trkpt lat="43.4365317" lon="13.5938467"><ele>21.0</ele><time>2026-04-18T07:11:43.077Z</time></trkpt><trkpt lat="43.436415" lon="13.5938733"><ele>21.0</ele><time>2026-04-18T07:11:44.078Z</time></trkpt><trkpt lat="43.436295" lon="13.5938817"><ele>21.0</ele><time>2026-04-18T07:11:45.077Z</time></trkpt><trkpt lat="43.43617" lon="13.5938533"><ele>21.0</ele><time>2026-04-18T07:11:46.077Z</time></trkpt><trkpt lat="43.4360467" lon="13.5937833"><ele>21.25</ele><time>2026-04-18T07:11:47.077Z</time></trkpt><trkpt lat="43.4359267" lon="13.5936883"><ele>21.5</ele><time>2026-04-18T07:11:48.077Z</time></trkpt><trkpt lat="43.4358017" lon="13.5935717"><ele>21.75</ele><time>2026-04-18T07:11:49.077Z</time></trkpt><trkpt lat="43.4356783" lon="13.5934517"><ele>22.0</ele><time>2026-04-18T07:11:50.078Z</time></trkpt><trkpt lat="43.4355567" lon="13.593335"><ele>22.5</ele><time>2026-04-18T07:11:51.077Z</time></trkpt><trkpt lat="43.435435" lon="13.593215"><ele>23.0</ele><time>2026-04-18T07:11:52.077Z</time></trkpt><trkpt lat="43.4353133" lon="13.593105"><ele>23.5</ele><time>2026-04-18T07:11:53.077Z</time></trkpt><trkpt lat="43.4351917" lon="13.5929933"><ele>24.0</ele><time>2026-04-18T07:11:54.077Z</time></trkpt><trkpt lat="43.4350717" lon="13.5928767"><ele>23.75</ele><time>2026-04-18T07:11:55.077Z</time></trkpt><trkpt lat="43.4349517" lon="13.5927733"><ele>23.5</ele><time>2026-04-18T07:11:56.078Z</time></trkpt><trkpt lat="43.4348333" lon="13.5926717"><ele>23.25</ele><time>2026-04-18T07:11:57.077Z</time></trkpt><trkpt lat="43.4347233" lon="13.5925567"><ele>23.0</ele><time>2026-04-18T07:11:58.077Z</time></trkpt><trkpt lat="43.4346183" lon="13.5924533"><ele>23.0</ele><time>2026-04-18T07:11:59.077Z</time></trkpt><trkpt lat="43.4345217" lon="13.592355"><ele>23.0</ele><time>2026-04-18T07:12:00.077Z</time></trkpt><trkpt lat="43.4344333" lon="13.5922617"><ele>23.0</ele><time>2026-04-18T07:12:01.077Z</time></trkpt><trkpt lat="43.43433" lon="13.592175"><ele>23.0</ele><time>2026-04-18T07:12:02.077Z</time></trkpt><trkpt lat="43.4342283" lon="13.5920917"><ele>23.5</ele><time>2026-04-18T07:12:03.077Z</time></trkpt><trkpt lat="43.4341183" lon="13.59199"><ele>24.0</ele><time>2026-04-18T07:12:04.077Z</time></trkpt><trkpt lat="43.4339917" lon="13.591875"><ele>24.5</ele><time>2026-04-18T07:12:05.078Z</time></trkpt><trkpt lat="43.4338633" lon="13.591755"><ele>25.0</ele><time>2026-04-18T07:12:06.077Z</time></trkpt><trkpt lat="43.4337283" lon="13.59162"><ele>25.0</ele><time>2026-04-18T07:12:07.077Z</time></trkpt><trkpt lat="43.4336033" lon="13.5914967"><ele>25.0</ele><time>2026-04-18T07:12:08.078Z</time></trkpt><trkpt lat="43.4334717" lon="13.5913683"><ele>25.0</ele><time>2026-04-18T07:12:09.077Z</time></trkpt><trkpt lat="43.433335" lon="13.5912417"><ele>25.333333333333336</ele><time>2026-04-18T07:12:10.077Z</time></trkpt><trkpt lat="43.4332033" lon="13.5911183"><ele>25.666666666666664</ele><time>2026-04-18T07:12:11.077Z</time></trkpt><trkpt lat="43.433075" lon="13.590985"><ele>26.0</ele><time>2026-04-18T07:12:12.077Z</time></trkpt><trkpt lat="43.4329517" lon="13.5908483"><ele>26.0</ele><time>2026-04-18T07:12:13.078Z</time></trkpt><trkpt lat="43.4328383" lon="13.5906967"><ele>26.0</ele><time>2026-04-18T07:12:14.077Z</time></trkpt><trkpt lat="43.4327333" lon="13.5905317"><ele>26.0</ele><time>2026-04-18T07:12:15.077Z</time></trkpt><trkpt lat="43.432635" lon="13.5903567"><ele>24.333333333333332</ele><time>2026-04-18T07:12:16.077Z</time></trkpt><trkpt lat="43.43253" lon="13.5901783"><ele>22.666666666666664</ele><time>2026-04-18T07:12:17.077Z</time></trkpt><trkpt lat="43.4324283" lon="13.59"><ele>21.0</ele><time>2026-04-18T07:12:18.077Z</time></trkpt><trkpt lat="43.4323183" lon="13.58982"><ele>21.0</ele><time>2026-04-18T07:12:19.077Z</time></trkpt><trkpt lat="43.4322133" lon="13.5896283"><ele>21.0</ele><time>2026-04-18T07:12:20.077Z</time></trkpt><trkpt lat="43.4321133" lon="13.5894417"><ele>21.0</ele><time>2026-04-18T07:12:21.078Z</time></trkpt><trkpt lat="43.4320067" lon="13.5892683"><ele>21.333333333333332</ele><time>2026-04-18T07:12:22.077Z</time></trkpt><trkpt lat="43.431905" lon="13.5890683"><ele>21.666666666666664</ele><time>2026-04-18T07:12:23.077Z</time></trkpt><trkpt lat="43.4318017" lon="13.5888717"><ele>22.0</ele><time>2026-04-18T07:12:24.078Z</time></trkpt><trkpt lat="43.431695" lon="13.588675"><ele>22.0</ele><time>2026-04-18T07:12:25.077Z</time></trkpt><trkpt lat="43.4315833" lon="13.58849"><ele>22.0</ele><time>2026-04-18T07:12:26.077Z</time></trkpt><trkpt lat="43.4314783" lon="13.5883"><ele>22.0</ele><time>2026-04-18T07:12:27.077Z</time></trkpt><trkpt lat="43.4313767" lon="13.5881183"><ele>22.333333333333332</ele><time>2026-04-18T07:12:28.077Z</time></trkpt><trkpt lat="43.4312683" lon="13.5879217"><ele>22.666666666666668</ele><time>2026-04-18T07:12:29.077Z</time></trkpt><trkpt lat="43.43116" lon="13.5877333"><ele>23.0</ele><time>2026-04-18T07:12:30.078Z</time></trkpt><trkpt lat="43.4310617" lon="13.5875333"><ele>23.0</ele><time>2026-04-18T07:12:31.078Z</time></trkpt><trkpt lat="43.43096" lon="13.5873467"><ele>23.0</ele><time>2026-04-18T07:12:32.077Z</time></trkpt><trkpt lat="43.4308533" lon="13.5871633"><ele>23.0</ele><time>2026-04-18T07:12:33.077Z</time></trkpt><trkpt lat="43.4307383" lon="13.5869817"><ele>23.0</ele><time>2026-04-18T07:12:34.078Z</time></trkpt><trkpt lat="43.43061" lon="13.5868183"><ele>23.0</ele><time>2026-04-18T07:12:35.077Z</time></trkpt><trkpt lat="43.43048" lon="13.5866583"><ele>23.0</ele><time>2026-04-18T07:12:36.078Z</time></trkpt><trkpt lat="43.4303433" lon="13.5865067"><ele>24.0</ele><time>2026-04-18T07:12:37.077Z</time></trkpt><trkpt lat="43.4302167" lon="13.5863617"><ele>25.0</ele><time>2026-04-18T07:12:38.077Z</time></trkpt><trkpt lat="43.4301017" lon="13.5862283"><ele>26.0</ele><time>2026-04-18T07:12:39.078Z</time></trkpt><trkpt lat="43.4299917" lon="13.58611"><ele>26.0</ele><time>2026-04-18T07:12:40.077Z</time></trkpt><trkpt lat="43.4298833" lon="13.5859967"><ele>26.0</ele><time>2026-04-18T07:12:41.077Z</time></trkpt><trkpt lat="43.4297917" lon="13.58589"><ele>26.0</ele><time>2026-04-18T07:12:42.077Z</time></trkpt><trkpt lat="43.429705" lon="13.5857817"><ele>26.0</ele><time>2026-04-18T07:12:43.077Z</time></trkpt><trkpt lat="43.4296317" lon="13.58568"><ele>26.6</ele><time>2026-04-18T07:12:44.077Z</time></trkpt><trkpt lat="43.42956" lon="13.5855733"><ele>27.200000000000003</ele><time>2026-04-18T07:12:45.077Z</time></trkpt><trkpt lat="43.429495" lon="13.58547"><ele>27.799999999999997</ele><time>2026-04-18T07:12:46.077Z</time></trkpt><trkpt lat="43.4294167" lon="13.58537"><ele>28.4</ele><time>2026-04-18T07:12:47.077Z</time></trkpt><trkpt lat="43.4293467" lon="13.5852617"><ele>29.0</ele><time>2026-04-18T07:12:48.077Z</time></trkpt><trkpt lat="43.42928" lon="13.5851567"><ele>28.999999999999996</ele><time>2026-04-18T07:12:49.077Z</time></trkpt><trkpt lat="43.4292167" lon="13.585065"><ele>29.0</ele><time>2026-04-18T07:12:50.077Z</time></trkpt><trkpt lat="43.4291567" lon="13.5849767"><ele>29.0</ele><time>2026-04-18T07:12:51.077Z</time></trkpt><trkpt lat="43.429105" lon="13.584895"><ele>29.0</ele><time>2026-04-18T07:12:52.077Z</time></trkpt><trkpt lat="43.429055" lon="13.584815"><ele>28.999999999999996</ele><time>2026-04-18T07:12:53.077Z</time></trkpt><trkpt lat="43.4290117" lon="13.58474"><ele>29.0</ele><time>2026-04-18T07:12:54.077Z</time></trkpt><trkpt lat="43.4289667" lon="13.5846633"><ele>28.999999999999996</ele><time>2026-04-18T07:12:55.077Z</time></trkpt><trkpt lat="43.4289183" lon="13.5845933"><ele>29.0</ele><time>2026-04-18T07:12:56.077Z</time></trkpt><trkpt lat="43.4288683" lon="13.5845233"><ele>29.0</ele><time>2026-04-18T07:12:57.077Z</time></trkpt><trkpt lat="43.42881" lon="13.5844417"><ele>29.0</ele><time>2026-04-18T07:12:58.078Z</time></trkpt><trkpt lat="43.4287467" lon="13.5843433"><ele>28.999999999999996</ele><time>2026-04-18T07:12:59.077Z</time></trkpt><trkpt lat="43.42867" lon="13.58424"><ele>29.0</ele><time>2026-04-18T07:13:00.077Z</time></trkpt><trkpt lat="43.428585" lon="13.5841267"><ele>29.25</ele><time>2026-04-18T07:13:01.077Z</time></trkpt><trkpt lat="43.4284983" lon="13.5839983"><ele>29.5</ele><time>2026-04-18T07:13:02.077Z</time></trkpt><trkpt lat="43.4284067" lon="13.5838683"><ele>29.75</ele><time>2026-04-18T07:13:03.077Z</time></trkpt><trkpt lat="43.4283233" lon="13.5837483"><ele>30.0</ele><time>2026-04-18T07:13:04.077Z</time></trkpt><trkpt lat="43.4282467" lon="13.5836433"><ele>30.0</ele><time>2026-04-18T07:13:05.077Z</time></trkpt><trkpt lat="43.4281833" lon="13.58355"><ele>30.0</ele><time>2026-04-18T07:13:06.077Z</time></trkpt><trkpt lat="43.42813" lon="13.5834483"><ele>30.0</ele><time>2026-04-18T07:13:07.077Z</time></trkpt><trkpt lat="43.42809" lon="13.5833283"><ele>30.0</ele><time>2026-04-18T07:13:08.078Z</time></trkpt><trkpt lat="43.42807" lon="13.5831867"><ele>30.0</ele><time>2026-04-18T07:13:09.077Z</time></trkpt><trkpt lat="43.42805" lon="13.5830417"><ele>30.0</ele><time>2026-04-18T07:13:10.078Z</time></trkpt><trkpt lat="43.4280233" lon="13.58288"><ele>30.0</ele><time>2026-04-18T07:13:11.077Z</time></trkpt><trkpt lat="43.4279733" lon="13.5827233"><ele>30.0</ele><time>2026-04-18T07:13:12.077Z</time></trkpt><trkpt lat="43.4279083" lon="13.5825633"><ele>30.0</ele><time>2026-04-18T07:13:13.078Z</time></trkpt><trkpt lat="43.4278433" lon="13.58241"><ele>30.0</ele><time>2026-04-18T07:13:14.077Z</time></trkpt><trkpt lat="43.42778" lon="13.582265"><ele>30.0</ele><time>2026-04-18T07:13:15.077Z</time></trkpt><trkpt lat="43.4277183" lon="13.58212"><ele>30.0</ele><time>2026-04-18T07:13:16.077Z</time></trkpt><trkpt lat="43.42766" lon="13.5819783"><ele>30.0</ele><time>2026-04-18T07:13:17.077Z</time></trkpt><trkpt lat="43.4275967" lon="13.5818267"><ele>30.0</ele><time>2026-04-18T07:13:18.077Z</time></trkpt><trkpt lat="43.4275383" lon="13.5816683"><ele>30.0</ele><time>2026-04-18T07:13:19.077Z</time></trkpt><trkpt lat="43.42748" lon="13.5814933"><ele>30.0</ele><time>2026-04-18T07:13:20.077Z</time></trkpt><trkpt lat="43.42742" lon="13.5813167"><ele>30.0</ele><time>2026-04-18T07:13:21.077Z</time></trkpt><trkpt lat="43.42736" lon="13.5811333"><ele>30.0</ele><time>2026-04-18T07:13:22.077Z</time></trkpt><trkpt lat="43.4273033" lon="13.580935"><ele>30.0</ele><time>2026-04-18T07:13:23.077Z</time></trkpt><trkpt lat="43.4272433" lon="13.5807567"><ele>30.0</ele><time>2026-04-18T07:13:24.078Z</time></trkpt><trkpt lat="43.4271767" lon="13.5805767"><ele>30.0</ele><time>2026-04-18T07:13:25.077Z</time></trkpt><trkpt lat="43.42711" lon="13.5804083"><ele>31.0</ele><time>2026-04-18T07:13:26.077Z</time></trkpt><trkpt lat="43.42704" lon="13.5802617"><ele>32.0</ele><time>2026-04-18T07:13:27.078Z</time></trkpt><trkpt lat="43.4269733" lon="13.58014"><ele>33.0</ele><time>2026-04-18T07:13:28.078Z</time></trkpt><trkpt lat="43.42692" lon="13.5800317"><ele>34.0</ele><time>2026-04-18T07:13:29.077Z</time></trkpt><trkpt lat="43.426875" lon="13.5799267"><ele>35.0</ele><time>2026-04-18T07:13:30.077Z</time></trkpt><trkpt lat="43.426845" lon="13.5798233"><ele>35.0</ele><time>2026-04-18T07:13:31.077Z</time></trkpt><trkpt lat="43.42685" lon="13.5797267"><ele>35.0</ele><time>2026-04-18T07:13:32.078Z</time></trkpt><trkpt lat="43.4268867" lon="13.57964"><ele>35.0</ele><time>2026-04-18T07:13:33.077Z</time></trkpt><trkpt lat="43.4269467" lon="13.57958"><ele>35.0</ele><time>2026-04-18T07:13:34.077Z</time></trkpt><trkpt lat="43.4270133" lon="13.5795433"><ele>35.0</ele><time>2026-04-18T07:13:35.078Z</time></trkpt><trkpt lat="43.4270883" lon="13.579525"><ele>35.0</ele><time>2026-04-18T07:13:36.077Z</time></trkpt><trkpt lat="43.4271617" lon="13.57951"><ele>35.0</ele><time>2026-04-18T07:13:37.077Z</time></trkpt><trkpt lat="43.427225" lon="13.579485"><ele>33.666666666666664</ele><time>2026-04-18T07:13:38.077Z</time></trkpt><trkpt lat="43.4272717" lon="13.579425"><ele>32.33333333333333</ele><time>2026-04-18T07:13:39.077Z</time></trkpt><trkpt lat="43.4273033" lon="13.5793483"><ele>31.0</ele><time>2026-04-18T07:13:40.077Z</time></trkpt><trkpt lat="43.4273183" lon="13.5792517"><ele>29.666666666666664</ele><time>2026-04-18T07:13:41.077Z</time></trkpt><trkpt lat="43.42732" lon="13.5791333"><ele>28.333333333333332</ele><time>2026-04-18T07:13:42.077Z</time></trkpt><trkpt lat="43.4273117" lon="13.5789883"><ele>27.0</ele><time>2026-04-18T07:13:43.078Z</time></trkpt><trkpt lat="43.427305" lon="13.5788317"><ele>27.25</ele><time>2026-04-18T07:13:44.077Z</time></trkpt><trkpt lat="43.4273083" lon="13.5786733"><ele>27.5</ele><time>2026-04-18T07:13:45.077Z</time></trkpt><trkpt lat="43.4273167" lon="13.578505"><ele>27.75</ele><time>2026-04-18T07:13:46.077Z</time></trkpt><trkpt lat="43.4273233" lon="13.57833"><ele>28.0</ele><time>2026-04-18T07:13:47.077Z</time></trkpt><trkpt lat="43.42734" lon="13.5781567"><ele>28.0</ele><time>2026-04-18T07:13:48.078Z</time></trkpt><trkpt lat="43.42736" lon="13.5779783"><ele>28.0</ele><time>2026-04-18T07:13:49.077Z</time></trkpt><trkpt lat="43.4273817" lon="13.5778067"><ele>28.0</ele><time>2026-04-18T07:13:50.078Z</time></trkpt><trkpt lat="43.4274033" lon="13.57764"><ele>28.0</ele><time>2026-04-18T07:13:51.077Z</time></trkpt><trkpt lat="43.427425" lon="13.5774667"><ele>28.5</ele><time>2026-04-18T07:13:52.077Z</time></trkpt><trkpt lat="43.4274567" lon="13.5773067"><ele>29.0</ele><time>2026-04-18T07:13:53.077Z</time></trkpt><trkpt lat="43.427495" lon="13.5771217"><ele>29.5</ele><time>2026-04-18T07:13:54.077Z</time></trkpt><trkpt lat="43.42753" lon="13.57695"><ele>30.0</ele><time>2026-04-18T07:13:55.076Z</time></trkpt><trkpt lat="43.4275717" lon="13.5767533"><ele>30.0</ele><time>2026-04-18T07:13:56.076Z</time></trkpt><trkpt lat="43.4276067" lon="13.5765667"><ele>30.0</ele><time>2026-04-18T07:13:57.076Z</time></trkpt><trkpt lat="43.42765" lon="13.57638"><ele>30.0</ele><time>2026-04-18T07:13:58.076Z</time></trkpt><trkpt lat="43.427685" lon="13.5761983"><ele>30.0</ele><time>2026-04-18T07:13:59.076Z</time></trkpt><trkpt lat="43.427725" lon="13.57601"><ele>29.75</ele><time>2026-04-18T07:14:00.076Z</time></trkpt><trkpt lat="43.4277667" lon="13.575815"><ele>29.5</ele><time>2026-04-18T07:14:01.076Z</time></trkpt><trkpt lat="43.4278117" lon="13.5756267"><ele>29.25</ele><time>2026-04-18T07:14:02.077Z</time></trkpt><trkpt lat="43.42786" lon="13.57544"><ele>29.0</ele><time>2026-04-18T07:14:03.076Z</time></trkpt><trkpt lat="43.4278983" lon="13.57526"><ele>29.5</ele><time>2026-04-18T07:14:04.076Z</time></trkpt><trkpt lat="43.4279367" lon="13.57508"><ele>30.0</ele><time>2026-04-18T07:14:05.076Z</time></trkpt><trkpt lat="43.4279683" lon="13.5748917"><ele>30.5</ele><time>2026-04-18T07:14:06.076Z</time></trkpt><trkpt lat="43.4279883" lon="13.5747033"><ele>31.0</ele><time>2026-04-18T07:14:07.076Z</time></trkpt><trkpt lat="43.428005" lon="13.5745067"><ele>29.25</ele><time>2026-04-18T07:14:08.076Z</time></trkpt><trkpt lat="43.4280183" lon="13.574315"><ele>27.5</ele><time>2026-04-18T07:14:09.076Z</time></trkpt><trkpt lat="43.4280283" lon="13.5741233"><ele>25.75</ele><time>2026-04-18T07:14:10.076Z</time></trkpt><trkpt lat="43.42804" lon="13.5739317"><ele>24.0</ele><time>2026-04-18T07:14:11.077Z</time></trkpt><trkpt lat="43.4280533" lon="13.57373"><ele>24.25</ele><time>2026-04-18T07:14:12.077Z</time></trkpt><trkpt lat="43.428065" lon="13.5735383"><ele>24.5</ele><time>2026-04-18T07:14:13.076Z</time></trkpt><trkpt lat="43.428075" lon="13.5733483"><ele>24.75</ele><time>2026-04-18T07:14:14.076Z</time></trkpt><trkpt lat="43.4280917" lon="13.5731583"><ele>25.0</ele><time>2026-04-18T07:14:15.076Z</time></trkpt><trkpt lat="43.4281183" lon="13.5729683"><ele>25.25</ele><time>2026-04-18T07:14:16.076Z</time></trkpt><trkpt lat="43.428135" lon="13.5727883"><ele>25.5</ele><time>2026-04-18T07:14:17.076Z</time></trkpt><trkpt lat="43.428155" lon="13.572605"><ele>25.75</ele><time>2026-04-18T07:14:18.076Z</time></trkpt><trkpt lat="43.4281833" lon="13.5724233"><ele>26.0</ele><time>2026-04-18T07:14:19.076Z</time></trkpt><trkpt lat="43.4282117" lon="13.572245"><ele>26.0</ele><time>2026-04-18T07:14:20.076Z</time></trkpt><trkpt lat="43.428245" lon="13.5720633"><ele>26.0</ele><time>2026-04-18T07:14:21.077Z</time></trkpt><trkpt lat="43.4282783" lon="13.5718767"><ele>26.0</ele><time>2026-04-18T07:14:22.076Z</time></trkpt><trkpt lat="43.4282917" lon="13.5716783"><ele>26.0</ele><time>2026-04-18T07:14:23.076Z</time></trkpt><trkpt lat="43.4282833" lon="13.5714883"><ele>26.0</ele><time>2026-04-18T07:14:24.077Z</time></trkpt><trkpt lat="43.4282717" lon="13.5712883"><ele>26.0</ele><time>2026-04-18T07:14:25.076Z</time></trkpt><trkpt lat="43.4282517" lon="13.57109"><ele>26.0</ele><time>2026-04-18T07:14:26.076Z</time></trkpt><trkpt lat="43.428225" lon="13.570895"><ele>26.0</ele><time>2026-04-18T07:14:27.076Z</time></trkpt><trkpt lat="43.4282083" lon="13.57069"><ele>26.0</ele><time>2026-04-18T07:14:28.076Z</time></trkpt><trkpt lat="43.4282" lon="13.5704783"><ele>26.0</ele><time>2026-04-18T07:14:29.077Z</time></trkpt><trkpt lat="43.428175" lon="13.5702867"><ele>26.0</ele><time>2026-04-18T07:14:30.076Z</time></trkpt><trkpt lat="43.4281467" lon="13.5701033"><ele>26.0</ele><time>2026-04-18T07:14:31.077Z</time></trkpt><trkpt lat="43.4281133" lon="13.5699183"><ele>25.5</ele><time>2026-04-18T07:14:32.076Z</time></trkpt><trkpt lat="43.428075" lon="13.5697417"><ele>25.0</ele><time>2026-04-18T07:14:33.076Z</time></trkpt><trkpt lat="43.4280367" lon="13.569555"><ele>24.5</ele><time>2026-04-18T07:14:34.076Z</time></trkpt><trkpt lat="43.428005" lon="13.56937"><ele>24.0</ele><time>2026-04-18T07:14:35.076Z</time></trkpt><trkpt lat="43.4279767" lon="13.569185"><ele>25.0</ele><time>2026-04-18T07:14:36.077Z</time></trkpt><trkpt lat="43.4279567" lon="13.5689867"><ele>26.0</ele><time>2026-04-18T07:14:37.076Z</time></trkpt><trkpt lat="43.42794" lon="13.5687933"><ele>27.0</ele><time>2026-04-18T07:14:38.076Z</time></trkpt><trkpt lat="43.42793" lon="13.5686"><ele>28.0</ele><time>2026-04-18T07:14:39.076Z</time></trkpt><trkpt lat="43.4279167" lon="13.568425"><ele>28.0</ele><time>2026-04-18T07:14:40.076Z</time></trkpt><trkpt lat="43.4278983" lon="13.5682467"><ele>28.0</ele><time>2026-04-18T07:14:41.077Z</time></trkpt><trkpt lat="43.4278633" lon="13.5680783"><ele>28.0</ele><time>2026-04-18T07:14:42.077Z</time></trkpt><trkpt lat="43.4278167" lon="13.567905"><ele>28.0</ele><time>2026-04-18T07:14:43.076Z</time></trkpt><trkpt lat="43.4277617" lon="13.56773"><ele>27.25</ele><time>2026-04-18T07:14:44.076Z</time></trkpt><trkpt lat="43.42771" lon="13.5675517"><ele>26.5</ele><time>2026-04-18T07:14:45.077Z</time></trkpt><trkpt lat="43.427665" lon="13.567365"><ele>25.75</ele><time>2026-04-18T07:14:46.077Z</time></trkpt><trkpt lat="43.4276217" lon="13.5671817"><ele>25.0</ele><time>2026-04-18T07:14:47.076Z</time></trkpt><trkpt lat="43.4275767" lon="13.566995"><ele>24.25</ele><time>2026-04-18T07:14:48.077Z</time></trkpt><trkpt lat="43.4275267" lon="13.5668067"><ele>23.5</ele><time>2026-04-18T07:14:49.076Z</time></trkpt><trkpt lat="43.4274717" lon="13.5666233"><ele>22.75</ele><time>2026-04-18T07:14:50.076Z</time></trkpt><trkpt lat="43.42742" lon="13.5664517"><ele>22.0</ele><time>2026-04-18T07:14:51.076Z</time></trkpt><trkpt lat="43.4273733" lon="13.56629"><ele>22.200000000000003</ele><time>2026-04-18T07:14:52.076Z</time></trkpt><trkpt lat="43.42733" lon="13.5661367"><ele>22.4</ele><time>2026-04-18T07:14:53.076Z</time></trkpt><trkpt lat="43.42729" lon="13.5659917"><ele>22.6</ele><time>2026-04-18T07:14:54.076Z</time></trkpt><trkpt lat="43.4272533" lon="13.5658533"><ele>22.799999999999997</ele><time>2026-04-18T07:14:55.077Z</time></trkpt><trkpt lat="43.4272167" lon="13.56573"><ele>23.0</ele><time>2026-04-18T07:14:56.076Z</time></trkpt><trkpt lat="43.4271833" lon="13.565605"><ele>23.0</ele><time>2026-04-18T07:14:57.076Z</time></trkpt><trkpt lat="43.42715" lon="13.5654783"><ele>23.0</ele><time>2026-04-18T07:14:58.076Z</time></trkpt><trkpt lat="43.4271067" lon="13.5653433"><ele>23.0</ele><time>2026-04-18T07:14:59.076Z</time></trkpt><trkpt lat="43.42706" lon="13.565205"><ele>23.0</ele><time>2026-04-18T07:15:00.077Z</time></trkpt><trkpt lat="43.4270117" lon="13.5650633"><ele>23.0</ele><time>2026-04-18T07:15:01.076Z</time></trkpt><trkpt lat="43.4269633" lon="13.5649217"><ele>23.4</ele><time>2026-04-18T07:15:02.076Z</time></trkpt><trkpt lat="43.42691" lon="13.5647883"><ele>23.799999999999997</ele><time>2026-04-18T07:15:03.077Z</time></trkpt><trkpt lat="43.426855" lon="13.5646583"><ele>24.2</ele><time>2026-04-18T07:15:04.077Z</time></trkpt><trkpt lat="43.4267983" lon="13.564525"><ele>24.6</ele><time>2026-04-18T07:15:05.076Z</time></trkpt><trkpt lat="43.4267383" lon="13.5643983"><ele>25.0</ele><time>2026-04-18T07:15:06.077Z</time></trkpt><trkpt lat="43.4266817" lon="13.564255"><ele>25.0</ele><time>2026-04-18T07:15:07.077Z</time></trkpt><trkpt lat="43.42662" lon="13.5641067"><ele>25.0</ele><time>2026-04-18T07:15:08.076Z</time></trkpt><trkpt lat="43.4265567" lon="13.563965"><ele>25.0</ele><time>2026-04-18T07:15:09.076Z</time></trkpt><trkpt lat="43.4264983" lon="13.5638183"><ele>25.0</ele><time>2026-04-18T07:15:10.076Z</time></trkpt><trkpt lat="43.4264367" lon="13.5636683"><ele>25.0</ele><time>2026-04-18T07:15:11.076Z</time></trkpt><trkpt lat="43.4263817" lon="13.5635117"><ele>25.0</ele><time>2026-04-18T07:15:12.077Z</time></trkpt><trkpt lat="43.4263367" lon="13.563345"><ele>25.0</ele><time>2026-04-18T07:15:13.076Z</time></trkpt><trkpt lat="43.4263" lon="13.563175"><ele>25.0</ele><time>2026-04-18T07:15:14.076Z</time></trkpt><trkpt lat="43.4262617" lon="13.5630017"><ele>26.0</ele><time>2026-04-18T07:15:15.076Z</time></trkpt><trkpt lat="43.426225" lon="13.5628233"><ele>27.0</ele><time>2026-04-18T07:15:16.076Z</time></trkpt><trkpt lat="43.4261933" lon="13.56264"><ele>28.0</ele><time>2026-04-18T07:15:17.076Z</time></trkpt><trkpt lat="43.426175" lon="13.562455"><ele>29.0</ele><time>2026-04-18T07:15:18.076Z</time></trkpt><trkpt lat="43.4261583" lon="13.5622617"><ele>29.0</ele><time>2026-04-18T07:15:19.076Z</time></trkpt><trkpt lat="43.4261483" lon="13.5620667"><ele>29.0</ele><time>2026-04-18T07:15:20.076Z</time></trkpt><trkpt lat="43.42614" lon="13.5618667"><ele>29.0</ele><time>2026-04-18T07:15:21.076Z</time></trkpt><trkpt lat="43.42613" lon="13.561675"><ele>29.0</ele><time>2026-04-18T07:15:22.076Z</time></trkpt><trkpt lat="43.4261217" lon="13.5614867"><ele>28.5</ele><time>2026-04-18T07:15:23.076Z</time></trkpt><trkpt lat="43.426115" lon="13.5613067"><ele>28.0</ele><time>2026-04-18T07:15:24.076Z</time></trkpt><trkpt lat="43.4261033" lon="13.56113"><ele>27.5</ele><time>2026-04-18T07:15:25.077Z</time></trkpt><trkpt lat="43.42609" lon="13.5609567"><ele>27.0</ele><time>2026-04-18T07:15:26.076Z</time></trkpt><trkpt lat="43.4260833" lon="13.5607867"><ele>27.0</ele><time>2026-04-18T07:15:27.076Z</time></trkpt><trkpt lat="43.4260617" lon="13.5606117"><ele>27.0</ele><time>2026-04-18T07:15:28.077Z</time></trkpt><trkpt lat="43.4260367" lon="13.5604433"><ele>27.0</ele><time>2026-04-18T07:15:29.077Z</time></trkpt><trkpt lat="43.42601" lon="13.5602717"><ele>27.0</ele><time>2026-04-18T07:15:30.076Z</time></trkpt><trkpt lat="43.4259783" lon="13.5601033"><ele>27.25</ele><time>2026-04-18T07:15:31.077Z</time></trkpt><trkpt lat="43.42595" lon="13.5599433"><ele>27.5</ele><time>2026-04-18T07:15:32.076Z</time></trkpt><trkpt lat="43.4259233" lon="13.5597783"><ele>27.75</ele><time>2026-04-18T07:15:33.076Z</time></trkpt><trkpt lat="43.4258983" lon="13.559615"><ele>28.0</ele><time>2026-04-18T07:15:34.076Z</time></trkpt><trkpt lat="43.4258767" lon="13.5594617"><ele>27.599999999999998</ele><time>2026-04-18T07:15:35.076Z</time></trkpt><trkpt lat="43.425865" lon="13.5593167"><ele>27.199999999999996</ele><time>2026-04-18T07:15:36.076Z</time></trkpt><trkpt lat="43.42586" lon="13.5591783"><ele>26.8</ele><time>2026-04-18T07:15:37.076Z</time></trkpt><trkpt lat="43.425875" lon="13.5590567"><ele>26.4</ele><time>2026-04-18T07:15:38.076Z</time></trkpt><trkpt lat="43.4258967" lon="13.5589467"><ele>26.0</ele><time>2026-04-18T07:15:39.077Z</time></trkpt><trkpt lat="43.425925" lon="13.558825"><ele>26.0</ele><time>2026-04-18T07:15:40.076Z</time></trkpt><trkpt lat="43.4259517" lon="13.5587133"><ele>26.0</ele><time>2026-04-18T07:15:41.076Z</time></trkpt><trkpt lat="43.425965" lon="13.5585683"><ele>26.0</ele><time>2026-04-18T07:15:43.077Z</time></trkpt><trkpt lat="43.425895" lon="13.5584733"><ele>26.0</ele><time>2026-04-18T07:15:45.076Z</time></trkpt><trkpt lat="43.4258283" lon="13.5584467"><ele>26.0</ele><time>2026-04-18T07:15:47.077Z</time></trkpt><trkpt lat="43.4257283" lon="13.558445"><ele>25.8</ele><time>2026-04-18T07:16:16.076Z</time></trkpt><trkpt lat="43.4255983" lon="13.55844"><ele>25.6</ele><time>2026-04-18T07:16:18.076Z</time></trkpt><trkpt lat="43.4255267" lon="13.5584333"><ele>25.4</ele><time>2026-04-18T07:16:19.076Z</time></trkpt><trkpt lat="43.4254383" lon="13.55842"><ele>25.2</ele><time>2026-04-18T07:16:20.076Z</time></trkpt><trkpt lat="43.4253283" lon="13.558415"><ele>25.0</ele><time>2026-04-18T07:16:21.076Z</time></trkpt><trkpt lat="43.4252117" lon="13.5584083"><ele>25.8</ele><time>2026-04-18T07:16:22.076Z</time></trkpt><trkpt lat="43.4250917" lon="13.5584067"><ele>26.6</ele><time>2026-04-18T07:16:23.076Z</time></trkpt><trkpt lat="43.4249867" lon="13.5584017"><ele>27.4</ele><time>2026-04-18T07:16:24.076Z</time></trkpt><trkpt lat="43.4248833" lon="13.5584"><ele>28.2</ele><time>2026-04-18T07:16:25.076Z</time></trkpt><trkpt lat="43.4247833" lon="13.5583917"><ele>29.0</ele><time>2026-04-18T07:16:26.077Z</time></trkpt><trkpt lat="43.42469" lon="13.558375"><ele>31.4</ele><time>2026-04-18T07:16:27.076Z</time></trkpt><trkpt lat="43.4246033" lon="13.558345"><ele>33.8</ele><time>2026-04-18T07:16:28.077Z</time></trkpt><trkpt lat="43.4245183" lon="13.5583067"><ele>36.199999999999996</ele><time>2026-04-18T07:16:29.076Z</time></trkpt><trkpt lat="43.4244367" lon="13.55825"><ele>38.599999999999994</ele><time>2026-04-18T07:16:30.076Z</time></trkpt><trkpt lat="43.4243567" lon="13.558175"><ele>41.0</ele><time>2026-04-18T07:16:31.076Z</time></trkpt><trkpt lat="43.4242717" lon="13.5580983"><ele>41.0</ele><time>2026-04-18T07:16:32.076Z</time></trkpt><trkpt lat="43.42419" lon="13.5580167"><ele>41.0</ele><time>2026-04-18T07:16:33.076Z</time></trkpt><trkpt lat="43.4241067" lon="13.5579233"><ele>41.0</ele><time>2026-04-18T07:16:34.076Z</time></trkpt><trkpt lat="43.424025" lon="13.5578333"><ele>41.0</ele><time>2026-04-18T07:16:35.076Z</time></trkpt><trkpt lat="43.423945" lon="13.5577367"><ele>41.0</ele><time>2026-04-18T07:16:36.077Z</time></trkpt><trkpt lat="43.4238633" lon="13.5576483"><ele>44.0</ele><time>2026-04-18T07:16:37.076Z</time></trkpt><trkpt lat="43.423785" lon="13.5575667"><ele>47.0</ele><time>2026-04-18T07:16:38.076Z</time></trkpt><trkpt lat="43.4237" lon="13.5574783"><ele>49.99999999999999</ele><time>2026-04-18T07:16:39.077Z</time></trkpt><trkpt lat="43.4236167" lon="13.55739"><ele>53.0</ele><time>2026-04-18T07:16:40.076Z</time></trkpt><trkpt lat="43.4235317" lon="13.5572983"><ele>56.0</ele><time>2026-04-18T07:16:41.076Z</time></trkpt><trkpt lat="43.423445" lon="13.5572117"><ele>56.0</ele><time>2026-04-18T07:16:42.076Z</time></trkpt><trkpt lat="43.4233583" lon="13.5571133"><ele>55.99999999999999</ele><time>2026-04-18T07:16:43.076Z</time></trkpt><trkpt lat="43.4232617" lon="13.557025"><ele>55.99999999999999</ele><time>2026-04-18T07:16:44.077Z</time></trkpt><trkpt lat="43.4231817" lon="13.5569317"><ele>56.0</ele><time>2026-04-18T07:16:45.077Z</time></trkpt><trkpt lat="43.4231117" lon="13.55685"><ele>56.0</ele><time>2026-04-18T07:16:46.076Z</time></trkpt><trkpt lat="43.4230417" lon="13.5567817"><ele>58.50000000000001</ele><time>2026-04-18T07:16:47.076Z</time></trkpt><trkpt lat="43.422965" lon="13.556715"><ele>61.0</ele><time>2026-04-18T07:16:48.076Z</time></trkpt><trkpt lat="43.4228917" lon="13.5566517"><ele>63.5</ele><time>2026-04-18T07:16:49.076Z</time></trkpt><trkpt lat="43.4228167" lon="13.556595"><ele>66.0</ele><time>2026-04-18T07:16:50.076Z</time></trkpt><trkpt lat="43.4227433" lon="13.5565333"><ele>68.5</ele><time>2026-04-18T07:16:51.076Z</time></trkpt><trkpt lat="43.422675" lon="13.556465"><ele>71.0</ele><time>2026-04-18T07:16:52.076Z</time></trkpt><trkpt lat="43.4226" lon="13.556395"><ele>71.0</ele><time>2026-04-18T07:16:53.076Z</time></trkpt><trkpt lat="43.4225167" lon="13.5563267"><ele>71.0</ele><time>2026-04-18T07:16:54.076Z</time></trkpt><trkpt lat="43.4224267" lon="13.5562517"><ele>71.0</ele><time>2026-04-18T07:16:55.077Z</time></trkpt><trkpt lat="43.42233" lon="13.5561883"><ele>71.0</ele><time>2026-04-18T07:16:56.076Z</time></trkpt><trkpt lat="43.4222267" lon="13.5561367"><ele>71.0</ele><time>2026-04-18T07:16:57.076Z</time></trkpt><trkpt lat="43.4221217" lon="13.5560933"><ele>73.33333333333334</ele><time>2026-04-18T07:16:58.076Z</time></trkpt><trkpt lat="43.42203" lon="13.5560533"><ele>75.66666666666667</ele><time>2026-04-18T07:16:59.076Z</time></trkpt><trkpt lat="43.4219433" lon="13.5560183"><ele>78.0</ele><time>2026-04-18T07:17:00.076Z</time></trkpt><trkpt lat="43.4218667" lon="13.5559783"><ele>80.33333333333333</ele><time>2026-04-18T07:17:01.076Z</time></trkpt><trkpt lat="43.421805" lon="13.5559383"><ele>82.66666666666666</ele><time>2026-04-18T07:17:02.076Z</time></trkpt><trkpt lat="43.421735" lon="13.5559017"><ele>85.0</ele><time>2026-04-18T07:17:03.076Z</time></trkpt><trkpt lat="43.4216633" lon="13.5558683"><ele>85.0</ele><time>2026-04-18T07:17:04.077Z</time></trkpt><trkpt lat="43.42159" lon="13.5558433"><ele>85.0</ele><time>2026-04-18T07:17:05.076Z</time></trkpt><trkpt lat="43.4214783" lon="13.5557817"><ele>85.0</ele><time>2026-04-18T07:17:07.076Z</time></trkpt><trkpt lat="43.4213533" lon="13.5557383"><ele>85.0</ele><time>2026-04-18T07:17:09.076Z</time></trkpt><trkpt lat="43.4212817" lon="13.55572"><ele>85.0</ele><time>2026-04-18T07:17:10.077Z</time></trkpt><trkpt lat="43.42121" lon="13.5557133"><ele>84.16666666666666</ele><time>2026-04-18T07:17:11.076Z</time></trkpt><trkpt lat="43.421135" lon="13.555715"><ele>83.33333333333333</ele><time>2026-04-18T07:17:12.076Z</time></trkpt><trkpt lat="43.42106" lon="13.5557217"><ele>82.5</ele><time>2026-04-18T07:17:13.076Z</time></trkpt><trkpt lat="43.420985" lon="13.5557433"><ele>81.66666666666667</ele><time>2026-04-18T07:17:14.076Z</time></trkpt><trkpt lat="43.4208733" lon="13.5558033"><ele>80.83333333333334</ele><time>2026-04-18T07:17:16.076Z</time></trkpt><trkpt lat="43.4207867" lon="13.5558483"><ele>80.0</ele><time>2026-04-18T07:17:18.076Z</time></trkpt><trkpt lat="43.4206867" lon="13.5558317"><ele>80.0</ele><time>2026-04-18T07:17:20.076Z</time></trkpt><trkpt lat="43.4206083" lon="13.5557267"><ele>80.0</ele><time>2026-04-18T07:17:22.076Z</time></trkpt><trkpt lat="43.4205933" lon="13.5555617"><ele>80.0</ele><time>2026-04-18T07:17:24.076Z</time></trkpt><trkpt lat="43.4205883" lon="13.5554717"><ele>80.0</ele><time>2026-04-18T07:17:25.076Z</time></trkpt><trkpt lat="43.420585" lon="13.5553733"><ele>80.0</ele><time>2026-04-18T07:17:26.076Z</time></trkpt><trkpt lat="43.420575" lon="13.55528"><ele>80.0</ele><time>2026-04-18T07:17:27.076Z</time></trkpt><trkpt lat="43.4205717" lon="13.5551917"><ele>79.5</ele><time>2026-04-18T07:17:28.076Z</time></trkpt><trkpt lat="43.4205383" lon="13.5550467"><ele>79.0</ele><time>2026-04-18T07:17:30.076Z</time></trkpt><trkpt lat="43.4204533" lon="13.55494"><ele>78.5</ele><time>2026-04-18T07:17:32.076Z</time></trkpt><trkpt lat="43.4203933" lon="13.5549067"><ele>78.0</ele><time>2026-04-18T07:17:33.076Z</time></trkpt><trkpt lat="43.4203283" lon="13.554905"><ele>77.5</ele><time>2026-04-18T07:17:34.076Z</time></trkpt><trkpt lat="43.420265" lon="13.55492"><ele>77.0</ele><time>2026-04-18T07:17:35.076Z</time></trkpt><trkpt lat="43.4201917" lon="13.5549533"><ele>77.0</ele><time>2026-04-18T07:17:36.077Z</time></trkpt><trkpt lat="43.4201033" lon="13.55499"><ele>77.0</ele><time>2026-04-18T07:17:37.077Z</time></trkpt><trkpt lat="43.4200067" lon="13.5550233"><ele>77.0</ele><time>2026-04-18T07:17:38.076Z</time></trkpt><trkpt lat="43.4199167" lon="13.5550733"><ele>77.0</ele><time>2026-04-18T07:17:39.076Z</time></trkpt><trkpt lat="43.4198483" lon="13.55511"><ele>77.0</ele><time>2026-04-18T07:17:40.076Z</time></trkpt><trkpt lat="43.41978" lon="13.5550983"><ele>77.0</ele><time>2026-04-18T07:17:42.076Z</time></trkpt><trkpt lat="43.41979" lon="13.5549567"><ele>77.0</ele><time>2026-04-18T07:17:45.076Z</time></trkpt><trkpt lat="43.41981" lon="13.5548317"><ele>77.0</ele><time>2026-04-18T07:17:46.077Z</time></trkpt><trkpt lat="43.4198333" lon="13.5546667"><ele>77.0</ele><time>2026-04-18T07:17:47.076Z</time></trkpt><trkpt lat="43.4198517" lon="13.5544767"><ele>77.0</ele><time>2026-04-18T07:17:48.076Z</time></trkpt><trkpt lat="43.419865" lon="13.5542833"><ele>75.75</ele><time>2026-04-18T07:17:49.077Z</time></trkpt><trkpt lat="43.4198833" lon="13.5540717"><ele>74.5</ele><time>2026-04-18T07:17:50.076Z</time></trkpt><trkpt lat="43.4198933" lon="13.5538817"><ele>73.25</ele><time>2026-04-18T07:17:51.076Z</time></trkpt><trkpt lat="43.419905" lon="13.55367"><ele>72.0</ele><time>2026-04-18T07:17:52.076Z</time></trkpt><trkpt lat="43.4199183" lon="13.553455"><ele>71.0</ele><time>2026-04-18T07:17:53.076Z</time></trkpt><trkpt lat="43.4199283" lon="13.5532567"><ele>70.0</ele><time>2026-04-18T07:17:54.076Z</time></trkpt><trkpt lat="43.419935" lon="13.55306"><ele>69.0</ele><time>2026-04-18T07:17:55.076Z</time></trkpt><trkpt lat="43.4199433" lon="13.55286"><ele>68.0</ele><time>2026-04-18T07:17:56.076Z</time></trkpt><trkpt lat="43.4199617" lon="13.55266"><ele>67.25</ele><time>2026-04-18T07:17:57.076Z</time></trkpt><trkpt lat="43.419975" lon="13.5524617"><ele>66.5</ele><time>2026-04-18T07:17:58.076Z</time></trkpt><trkpt lat="43.4199833" lon="13.5522717"><ele>65.75</ele><time>2026-04-18T07:17:59.076Z</time></trkpt><trkpt lat="43.4199983" lon="13.5520567"><ele>65.0</ele><time>2026-04-18T07:18:00.076Z</time></trkpt><trkpt lat="43.4200083" lon="13.5518417"><ele>63.333333333333336</ele><time>2026-04-18T07:18:01.076Z</time></trkpt><trkpt lat="43.420015" lon="13.5516233"><ele>61.66666666666667</ele><time>2026-04-18T07:18:02.077Z</time></trkpt><trkpt lat="43.4200167" lon="13.5514"><ele>60.0</ele><time>2026-04-18T07:18:03.076Z</time></trkpt><trkpt lat="43.4200017" lon="13.5511767"><ele>59.0</ele><time>2026-04-18T07:18:04.077Z</time></trkpt><trkpt lat="43.419975" lon="13.550955"><ele>58.0</ele><time>2026-04-18T07:18:05.077Z</time></trkpt><trkpt lat="43.4199383" lon="13.5507283"><ele>57.0</ele><time>2026-04-18T07:18:06.076Z</time></trkpt><trkpt lat="43.4198983" lon="13.5505083"><ele>56.0</ele><time>2026-04-18T07:18:07.076Z</time></trkpt><trkpt lat="43.4198617" lon="13.550305"><ele>55.0</ele><time>2026-04-18T07:18:08.076Z</time></trkpt><trkpt lat="43.41982" lon="13.5500933"><ele>54.0</ele><time>2026-04-18T07:18:09.076Z</time></trkpt><trkpt lat="43.4197883" lon="13.5498783"><ele>54.0</ele><time>2026-04-18T07:18:10.076Z</time></trkpt><trkpt lat="43.4197583" lon="13.5496583"><ele>54.0</ele><time>2026-04-18T07:18:11.076Z</time></trkpt><trkpt lat="43.4197367" lon="13.5494467"><ele>54.0</ele><time>2026-04-18T07:18:12.076Z</time></trkpt><trkpt lat="43.4197433" lon="13.5492317"><ele>53.33333333333333</ele><time>2026-04-18T07:18:13.077Z</time></trkpt><trkpt lat="43.4197483" lon="13.5490083"><ele>52.666666666666664</ele><time>2026-04-18T07:18:14.077Z</time></trkpt><trkpt lat="43.4197667" lon="13.5487883"><ele>52.0</ele><time>2026-04-18T07:18:15.076Z</time></trkpt><trkpt lat="43.41978" lon="13.5485667"><ele>51.0</ele><time>2026-04-18T07:18:16.076Z</time></trkpt><trkpt lat="43.4197983" lon="13.5483483"><ele>50.0</ele><time>2026-04-18T07:18:17.076Z</time></trkpt><trkpt lat="43.41981" lon="13.5481217"><ele>49.0</ele><time>2026-04-18T07:18:18.076Z</time></trkpt><trkpt lat="43.4198217" lon="13.5478967"><ele>49.0</ele><time>2026-04-18T07:18:19.077Z</time></trkpt><trkpt lat="43.4198417" lon="13.547685"><ele>49.0</ele><time>2026-04-18T07:18:20.076Z</time></trkpt><trkpt lat="43.4198533" lon="13.547465"><ele>49.0</ele><time>2026-04-18T07:18:21.076Z</time></trkpt><trkpt lat="43.4198733" lon="13.5472467"><ele>48.0</ele><time>2026-04-18T07:18:22.076Z</time></trkpt><trkpt lat="43.4198867" lon="13.5470383"><ele>47.0</ele><time>2026-04-18T07:18:23.076Z</time></trkpt><trkpt lat="43.4198933" lon="13.5468317"><ele>46.0</ele><time>2026-04-18T07:18:24.076Z</time></trkpt><trkpt lat="43.4199033" lon="13.5466217"><ele>46.0</ele><time>2026-04-18T07:18:25.076Z</time></trkpt><trkpt lat="43.4199233" lon="13.5464067"><ele>46.0</ele><time>2026-04-18T07:18:26.076Z</time></trkpt><trkpt lat="43.4199433" lon="13.5462"><ele>46.0</ele><time>2026-04-18T07:18:27.076Z</time></trkpt><trkpt lat="43.419965" lon="13.5459983"><ele>45.5</ele><time>2026-04-18T07:18:28.076Z</time></trkpt><trkpt lat="43.4199917" lon="13.5457967"><ele>45.0</ele><time>2026-04-18T07:18:29.077Z</time></trkpt><trkpt lat="43.4200267" lon="13.5456067"><ele>44.5</ele><time>2026-04-18T07:18:30.076Z</time></trkpt><trkpt lat="43.4200767" lon="13.5454133"><ele>44.0</ele><time>2026-04-18T07:18:31.077Z</time></trkpt><trkpt lat="43.4201383" lon="13.5452267"><ele>43.33333333333333</ele><time>2026-04-18T07:18:32.077Z</time></trkpt><trkpt lat="43.4202317" lon="13.5450433"><ele>42.666666666666664</ele><time>2026-04-18T07:18:33.076Z</time></trkpt><trkpt lat="43.42035" lon="13.5448733"><ele>42.0</ele><time>2026-04-18T07:18:34.076Z</time></trkpt><trkpt lat="43.4204833" lon="13.5447367"><ele>42.0</ele><time>2026-04-18T07:18:35.076Z</time></trkpt><trkpt lat="43.4206233" lon="13.5446"><ele>42.0</ele><time>2026-04-18T07:18:36.076Z</time></trkpt><trkpt lat="43.420765" lon="13.5444667"><ele>42.0</ele><time>2026-04-18T07:18:37.076Z</time></trkpt><trkpt lat="43.420915" lon="13.544345"><ele>41.666666666666664</ele><time>2026-04-18T07:18:38.076Z</time></trkpt><trkpt lat="43.4210567" lon="13.5442233"><ele>41.33333333333333</ele><time>2026-04-18T07:18:39.076Z</time></trkpt><trkpt lat="43.4211933" lon="13.5441217"><ele>41.0</ele><time>2026-04-18T07:18:40.076Z</time></trkpt><trkpt lat="43.4213367" lon="13.5439967"><ele>41.0</ele><time>2026-04-18T07:18:41.076Z</time></trkpt><trkpt lat="43.42147" lon="13.5438483"><ele>41.0</ele><time>2026-04-18T07:18:42.076Z</time></trkpt><trkpt lat="43.421595" lon="13.5436933"><ele>41.0</ele><time>2026-04-18T07:18:43.076Z</time></trkpt><trkpt lat="43.42172" lon="13.5435367"><ele>40.0</ele><time>2026-04-18T07:18:44.076Z</time></trkpt><trkpt lat="43.421845" lon="13.543375"><ele>39.0</ele><time>2026-04-18T07:18:45.076Z</time></trkpt><trkpt lat="43.4219733" lon="13.5432083"><ele>38.0</ele><time>2026-04-18T07:18:46.076Z</time></trkpt><trkpt lat="43.4221017" lon="13.5430467"><ele>38.666666666666664</ele><time>2026-04-18T07:18:47.076Z</time></trkpt><trkpt lat="43.422235" lon="13.54289"><ele>39.333333333333336</ele><time>2026-04-18T07:18:48.076Z</time></trkpt><trkpt lat="43.42237" lon="13.54274"><ele>40.0</ele><time>2026-04-18T07:18:49.076Z</time></trkpt><trkpt lat="43.4225117" lon="13.542605"><ele>38.66666666666667</ele><time>2026-04-18T07:18:50.077Z</time></trkpt><trkpt lat="43.4226583" lon="13.5424867"><ele>37.333333333333336</ele><time>2026-04-18T07:18:51.076Z</time></trkpt><trkpt lat="43.422805" lon="13.54236"><ele>36.0</ele><time>2026-04-18T07:18:52.077Z</time></trkpt><trkpt lat="43.42295" lon="13.5422367"><ele>35.666666666666664</ele><time>2026-04-18T07:18:53.076Z</time></trkpt><trkpt lat="43.4231" lon="13.5421183"><ele>35.33333333333333</ele><time>2026-04-18T07:18:54.077Z</time></trkpt><trkpt lat="43.4232467" lon="13.5419983"><ele>35.0</ele><time>2026-04-18T07:18:55.077Z</time></trkpt><trkpt lat="43.4233933" lon="13.54187"><ele>35.0</ele><time>2026-04-18T07:18:56.077Z</time></trkpt><trkpt lat="43.423535" lon="13.5417417"><ele>35.0</ele><time>2026-04-18T07:18:57.076Z</time></trkpt><trkpt lat="43.4236833" lon="13.5416217"><ele>35.0</ele><time>2026-04-18T07:18:58.076Z</time></trkpt><trkpt lat="43.4238317" lon="13.5414933"><ele>35.0</ele><time>2026-04-18T07:18:59.076Z</time></trkpt><trkpt lat="43.4239733" lon="13.5413667"><ele>35.0</ele><time>2026-04-18T07:19:00.076Z</time></trkpt><trkpt lat="43.424115" lon="13.5412333"><ele>35.0</ele><time>2026-04-18T07:19:01.076Z</time></trkpt><trkpt lat="43.4242567" lon="13.5410917"><ele>35.0</ele><time>2026-04-18T07:19:02.077Z</time></trkpt><trkpt lat="43.424395" lon="13.5409517"><ele>35.0</ele><time>2026-04-18T07:19:03.076Z</time></trkpt><trkpt lat="43.4245233" lon="13.5408017"><ele>35.0</ele><time>2026-04-18T07:19:04.076Z</time></trkpt><trkpt lat="43.42465" lon="13.54064"><ele>33.666666666666664</ele><time>2026-04-18T07:19:05.077Z</time></trkpt><trkpt lat="43.4247867" lon="13.5404867"><ele>32.333333333333336</ele><time>2026-04-18T07:19:06.076Z</time></trkpt><trkpt lat="43.4249133" lon="13.540335"><ele>31.0</ele><time>2026-04-18T07:19:07.076Z</time></trkpt><trkpt lat="43.425045" lon="13.5401917"><ele>31.0</ele><time>2026-04-18T07:19:08.076Z</time></trkpt><trkpt lat="43.4251733" lon="13.5400533"><ele>31.0</ele><time>2026-04-18T07:19:09.076Z</time></trkpt><trkpt lat="43.425305" lon="13.5399"><ele>31.0</ele><time>2026-04-18T07:19:10.076Z</time></trkpt><trkpt lat="43.4254333" lon="13.539755"><ele>31.0</ele><time>2026-04-18T07:19:11.076Z</time></trkpt><trkpt lat="43.4255567" lon="13.539605"><ele>31.0</ele><time>2026-04-18T07:19:12.076Z</time></trkpt><trkpt lat="43.4256883" lon="13.539465"><ele>31.0</ele><time>2026-04-18T07:19:13.076Z</time></trkpt><trkpt lat="43.4258183" lon="13.5393333"><ele>31.0</ele><time>2026-04-18T07:19:14.077Z</time></trkpt><trkpt lat="43.4259483" lon="13.5391683"><ele>31.0</ele><time>2026-04-18T07:19:15.076Z</time></trkpt><trkpt lat="43.4260817" lon="13.539015"><ele>31.0</ele><time>2026-04-18T07:19:16.077Z</time></trkpt><trkpt lat="43.426205" lon="13.538875"><ele>31.333333333333336</ele><time>2026-04-18T07:19:17.076Z</time></trkpt><trkpt lat="43.4263217" lon="13.5387433"><ele>31.666666666666664</ele><time>2026-04-18T07:19:18.076Z</time></trkpt><trkpt lat="43.426445" lon="13.538595"><ele>32.0</ele><time>2026-04-18T07:19:19.076Z</time></trkpt><trkpt lat="43.4265783" lon="13.538455"><ele>33.33333333333333</ele><time>2026-04-18T07:19:20.076Z</time></trkpt><trkpt lat="43.4267167" lon="13.5383183"><ele>34.666666666666664</ele><time>2026-04-18T07:19:21.076Z</time></trkpt><trkpt lat="43.4268617" lon="13.5382017"><ele>36.0</ele><time>2026-04-18T07:19:22.077Z</time></trkpt><trkpt lat="43.427015" lon="13.5380917"><ele>35.666666666666664</ele><time>2026-04-18T07:19:23.076Z</time></trkpt><trkpt lat="43.427175" lon="13.5379717"><ele>35.33333333333333</ele><time>2026-04-18T07:19:24.076Z</time></trkpt><trkpt lat="43.4273317" lon="13.5378483"><ele>35.0</ele><time>2026-04-18T07:19:25.076Z</time></trkpt><trkpt lat="43.4274883" lon="13.5377283"><ele>36.666666666666664</ele><time>2026-04-18T07:19:26.076Z</time></trkpt><trkpt lat="43.42765" lon="13.5376033"><ele>38.333333333333336</ele><time>2026-04-18T07:19:27.076Z</time></trkpt><trkpt lat="43.4278067" lon="13.537475"><ele>40.0</ele><time>2026-04-18T07:19:28.076Z</time></trkpt><trkpt lat="43.42797" lon="13.5373467"><ele>40.0</ele><time>2026-04-18T07:19:29.076Z</time></trkpt><trkpt lat="43.4281333" lon="13.5372283"><ele>40.0</ele><time>2026-04-18T07:19:30.076Z</time></trkpt><trkpt lat="43.428285" lon="13.5371083"><ele>40.0</ele><time>2026-04-18T07:19:31.077Z</time></trkpt><trkpt lat="43.4284367" lon="13.5369883"><ele>40.0</ele><time>2026-04-18T07:19:32.076Z</time></trkpt><trkpt lat="43.42859" lon="13.536865"><ele>40.0</ele><time>2026-04-18T07:19:33.076Z</time></trkpt><trkpt lat="43.4287433" lon="13.5367367"><ele>40.0</ele><time>2026-04-18T07:19:34.076Z</time></trkpt><trkpt lat="43.4289017" lon="13.5366167"><ele>39.0</ele><time>2026-04-18T07:19:35.076Z</time></trkpt><trkpt lat="43.4290417" lon="13.536505"><ele>38.0</ele><time>2026-04-18T07:19:36.076Z</time></trkpt><trkpt lat="43.4291833" lon="13.536405"><ele>37.0</ele><time>2026-04-18T07:19:37.077Z</time></trkpt><trkpt lat="43.4293267" lon="13.536335"><ele>37.0</ele><time>2026-04-18T07:19:38.076Z</time></trkpt><trkpt lat="43.42948" lon="13.5363017"><ele>37.0</ele><time>2026-04-18T07:19:39.077Z</time></trkpt><trkpt lat="43.4296367" lon="13.5363083"><ele>37.0</ele><time>2026-04-18T07:19:40.076Z</time></trkpt><trkpt lat="43.4297967" lon="13.5363383"><ele>37.75</ele><time>2026-04-18T07:19:41.076Z</time></trkpt><trkpt lat="43.4299417" lon="13.5363667"><ele>38.5</ele><time>2026-04-18T07:19:42.076Z</time></trkpt><trkpt lat="43.4300817" lon="13.5363783"><ele>39.25</ele><time>2026-04-18T07:19:43.077Z</time></trkpt><trkpt lat="43.4302017" lon="13.5363933"><ele>40.0</ele><time>2026-04-18T07:19:44.077Z</time></trkpt><trkpt lat="43.4302983" lon="13.5364067"><ele>40.0</ele><time>2026-04-18T07:19:45.076Z</time></trkpt><trkpt lat="43.43037" lon="13.536425"><ele>40.0</ele><time>2026-04-18T07:19:46.077Z</time></trkpt><trkpt lat="43.4304533" lon="13.536435"><ele>40.0</ele><time>2026-04-18T07:19:48.076Z</time></trkpt><trkpt lat="43.4305583" lon="13.5364367"><ele>40.0</ele><time>2026-04-18T07:19:54.076Z</time></trkpt><trkpt lat="43.4306817" lon="13.53645"><ele>40.0</ele><time>2026-04-18T07:19:56.076Z</time></trkpt><trkpt lat="43.4307683" lon="13.5364483"><ele>40.75</ele><time>2026-04-18T07:19:57.076Z</time></trkpt><trkpt lat="43.4308667" lon="13.536445"><ele>41.5</ele><time>2026-04-18T07:19:58.076Z</time></trkpt><trkpt lat="43.4309833" lon="13.53644"><ele>42.25</ele><time>2026-04-18T07:19:59.076Z</time></trkpt><trkpt lat="43.4311083" lon="13.5364417"><ele>43.0</ele><time>2026-04-18T07:20:00.076Z</time></trkpt><trkpt lat="43.431235" lon="13.5364433"><ele>40.5</ele><time>2026-04-18T07:20:01.076Z</time></trkpt><trkpt lat="43.4313633" lon="13.5364383"><ele>38.0</ele><time>2026-04-18T07:20:02.076Z</time></trkpt><trkpt lat="43.4314917" lon="13.5364333"><ele>35.5</ele><time>2026-04-18T07:20:03.077Z</time></trkpt><trkpt lat="43.4316217" lon="13.536435"><ele>33.0</ele><time>2026-04-18T07:20:04.076Z</time></trkpt><trkpt lat="43.43174" lon="13.5364383"><ele>33.0</ele><time>2026-04-18T07:20:05.076Z</time></trkpt><trkpt lat="43.43184" lon="13.5364367"><ele>33.0</ele><time>2026-04-18T07:20:06.076Z</time></trkpt><trkpt lat="43.4319183" lon="13.5364333"><ele>33.0</ele><time>2026-04-18T07:20:07.076Z</time></trkpt><trkpt lat="43.4320267" lon="13.536425"><ele>33.0</ele><time>2026-04-18T07:20:09.076Z</time></trkpt><trkpt lat="43.4321" lon="13.5363767"><ele>33.0</ele><time>2026-04-18T07:20:11.076Z</time></trkpt><trkpt lat="43.4321367" lon="13.5362333"><ele>32.199999999999996</ele><time>2026-04-18T07:20:13.076Z</time></trkpt><trkpt lat="43.4321517" lon="13.536125"><ele>31.4</ele><time>2026-04-18T07:20:14.076Z</time></trkpt><trkpt lat="43.4321717" lon="13.5359967"><ele>30.599999999999998</ele><time>2026-04-18T07:20:15.076Z</time></trkpt><trkpt lat="43.432195" lon="13.5358683"><ele>29.799999999999997</ele><time>2026-04-18T07:20:16.076Z</time></trkpt><trkpt lat="43.4322217" lon="13.5357283"><ele>29.0</ele><time>2026-04-18T07:20:17.077Z</time></trkpt><trkpt lat="43.4322567" lon="13.5355733"><ele>29.0</ele><time>2026-04-18T07:20:18.076Z</time></trkpt><trkpt lat="43.432295" lon="13.5354067"><ele>29.0</ele><time>2026-04-18T07:20:19.077Z</time></trkpt><trkpt lat="43.4323383" lon="13.53525"><ele>29.0</ele><time>2026-04-18T07:20:20.077Z</time></trkpt><trkpt lat="43.4323833" lon="13.5351067"><ele>29.0</ele><time>2026-04-18T07:20:21.076Z</time></trkpt><trkpt lat="43.4324333" lon="13.5349583"><ele>29.0</ele><time>2026-04-18T07:20:22.076Z</time></trkpt><trkpt lat="43.4324967" lon="13.5348117"><ele>29.0</ele><time>2026-04-18T07:20:23.075Z</time></trkpt><trkpt lat="43.4325667" lon="13.5346667"><ele>29.0</ele><time>2026-04-18T07:20:24.075Z</time></trkpt><trkpt lat="43.432635" lon="13.5345383"><ele>29.0</ele><time>2026-04-18T07:20:25.075Z</time></trkpt><trkpt lat="43.4327167" lon="13.5344083"><ele>29.25</ele><time>2026-04-18T07:20:26.075Z</time></trkpt><trkpt lat="43.4328033" lon="13.5342817"><ele>29.5</ele><time>2026-04-18T07:20:27.076Z</time></trkpt><trkpt lat="43.432895" lon="13.5341433"><ele>29.75</ele><time>2026-04-18T07:20:28.075Z</time></trkpt><trkpt lat="43.4329833" lon="13.5339983"><ele>30.0</ele><time>2026-04-18T07:20:29.075Z</time></trkpt><trkpt lat="43.4330733" lon="13.5338467"><ele>30.0</ele><time>2026-04-18T07:20:30.075Z</time></trkpt><trkpt lat="43.43317" lon="13.5336917"><ele>30.0</ele><time>2026-04-18T07:20:31.076Z</time></trkpt><trkpt lat="43.4332633" lon="13.5335367"><ele>30.0</ele><time>2026-04-18T07:20:32.076Z</time></trkpt><trkpt lat="43.4333583" lon="13.5333817"><ele>30.0</ele><time>2026-04-18T07:20:33.075Z</time></trkpt><trkpt lat="43.4334533" lon="13.5332283"><ele>30.0</ele><time>2026-04-18T07:20:34.075Z</time></trkpt><trkpt lat="43.433545" lon="13.5330667"><ele>30.0</ele><time>2026-04-18T07:20:35.075Z</time></trkpt><trkpt lat="43.4336267" lon="13.532905"><ele>30.0</ele><time>2026-04-18T07:20:36.075Z</time></trkpt><trkpt lat="43.4337" lon="13.532735"><ele>30.0</ele><time>2026-04-18T07:20:37.075Z</time></trkpt><trkpt lat="43.4337633" lon="13.53256"><ele>30.25</ele><time>2026-04-18T07:20:38.075Z</time></trkpt><trkpt lat="43.4338117" lon="13.5323738"><ele>30.5</ele><time>2026-04-18T07:20:39.075Z</time></trkpt><trkpt lat="43.4338687" lon="13.5321903"><ele>30.75</ele><time>2026-04-18T07:20:40.075Z</time></trkpt><trkpt lat="43.4339371" lon="13.5320099"><ele>31.0</ele><time>2026-04-18T07:20:41.075Z</time></trkpt><trkpt lat="43.4340125" lon="13.5318314"><ele>31.0</ele><time>2026-04-18T07:20:42.075Z</time></trkpt><trkpt lat="43.4340889" lon="13.5316467"><ele>31.0</ele><time>2026-04-18T07:20:43.075Z</time></trkpt><trkpt lat="43.4341629" lon="13.5314654"><ele>31.0</ele><time>2026-04-18T07:20:44.076Z</time></trkpt><trkpt lat="43.4342304" lon="13.5312877"><ele>31.5</ele><time>2026-04-18T07:20:45.075Z</time></trkpt><trkpt lat="43.4342828" lon="13.5310959"><ele>32.0</ele><time>2026-04-18T07:20:46.075Z</time></trkpt><trkpt lat="43.4343237" lon="13.5309026"><ele>32.5</ele><time>2026-04-18T07:20:47.075Z</time></trkpt><trkpt lat="43.4343516" lon="13.5307166"><ele>33.0</ele><time>2026-04-18T07:20:48.075Z</time></trkpt><trkpt lat="43.4343712" lon="13.5305343"><ele>33.5</ele><time>2026-04-18T07:20:49.075Z</time></trkpt><trkpt lat="43.43439" lon="13.53037"><ele>34.0</ele><time>2026-04-18T07:20:50.076Z</time></trkpt><trkpt lat="43.4344117" lon="13.530195"><ele>34.5</ele><time>2026-04-18T07:20:51.075Z</time></trkpt><trkpt lat="43.4344367" lon="13.5300133"><ele>35.0</ele><time>2026-04-18T07:20:52.075Z</time></trkpt><trkpt lat="43.4344683" lon="13.529845"><ele>35.0</ele><time>2026-04-18T07:20:53.075Z</time></trkpt><trkpt lat="43.4345167" lon="13.5296733"><ele>35.0</ele><time>2026-04-18T07:20:54.075Z</time></trkpt><trkpt lat="43.4345683" lon="13.5295017"><ele>35.0</ele><time>2026-04-18T07:20:55.075Z</time></trkpt><trkpt lat="43.4346233" lon="13.5293367"><ele>35.0</ele><time>2026-04-18T07:20:56.075Z</time></trkpt><trkpt lat="43.4346733" lon="13.52919"><ele>34.25</ele><time>2026-04-18T07:20:57.076Z</time></trkpt><trkpt lat="43.4347083" lon="13.52903"><ele>33.5</ele><time>2026-04-18T07:20:58.076Z</time></trkpt><trkpt lat="43.4347283" lon="13.528865"><ele>32.75</ele><time>2026-04-18T07:20:59.075Z</time></trkpt><trkpt lat="43.43473" lon="13.52869"><ele>32.0</ele><time>2026-04-18T07:21:00.075Z</time></trkpt><trkpt lat="43.43471" lon="13.5285117"><ele>32.0</ele><time>2026-04-18T07:21:01.075Z</time></trkpt><trkpt lat="43.43467" lon="13.5283417"><ele>32.0</ele><time>2026-04-18T07:21:02.075Z</time></trkpt><trkpt lat="43.4346233" lon="13.5281617"><ele>32.0</ele><time>2026-04-18T07:21:03.075Z</time></trkpt><trkpt lat="43.4345817" lon="13.52798"><ele>32.0</ele><time>2026-04-18T07:21:04.075Z</time></trkpt><trkpt lat="43.43455" lon="13.5277933"><ele>32.5</ele><time>2026-04-18T07:21:05.075Z</time></trkpt><trkpt lat="43.4345283" lon="13.5275917"><ele>33.0</ele><time>2026-04-18T07:21:06.075Z</time></trkpt><trkpt lat="43.4345167" lon="13.5274033"><ele>33.5</ele><time>2026-04-18T07:21:07.075Z</time></trkpt><trkpt lat="43.4345117" lon="13.5272083"><ele>34.0</ele><time>2026-04-18T07:21:08.075Z</time></trkpt><trkpt lat="43.4345117" lon="13.52701"><ele>34.5</ele><time>2026-04-18T07:21:09.075Z</time></trkpt><trkpt lat="43.4345267" lon="13.52682"><ele>35.0</ele><time>2026-04-18T07:21:10.075Z</time></trkpt><trkpt lat="43.434545" lon="13.5266533"><ele>35.5</ele><time>2026-04-18T07:21:11.075Z</time></trkpt><trkpt lat="43.4345633" lon="13.5264917"><ele>36.0</ele><time>2026-04-18T07:21:12.075Z</time></trkpt><trkpt lat="43.4345783" lon="13.5263517"><ele>36.0</ele><time>2026-04-18T07:21:13.076Z</time></trkpt><trkpt lat="43.4345983" lon="13.5262367"><ele>36.0</ele><time>2026-04-18T07:21:14.075Z</time></trkpt><trkpt lat="43.4346233" lon="13.526145"><ele>36.0</ele><time>2026-04-18T07:21:15.075Z</time></trkpt><trkpt lat="43.434665" lon="13.5260767"><ele>36.0</ele><time>2026-04-18T07:21:16.075Z</time></trkpt><trkpt lat="43.4347217" lon="13.5260183"><ele>36.0</ele><time>2026-04-18T07:21:17.075Z</time></trkpt><trkpt lat="43.4347933" lon="13.52598"><ele>36.0</ele><time>2026-04-18T07:21:18.075Z</time></trkpt><trkpt lat="43.4348817" lon="13.525965"><ele>35.0</ele><time>2026-04-18T07:21:19.076Z</time></trkpt><trkpt lat="43.43497" lon="13.5259467"><ele>34.0</ele><time>2026-04-18T07:21:20.075Z</time></trkpt><trkpt lat="43.4350983" lon="13.52596"><ele>33.0</ele><time>2026-04-18T07:21:21.075Z</time></trkpt><trkpt lat="43.4352433" lon="13.5259683"><ele>32.0</ele><time>2026-04-18T07:21:22.075Z</time></trkpt><trkpt lat="43.4353967" lon="13.5259733"><ele>31.75</ele><time>2026-04-18T07:21:23.076Z</time></trkpt><trkpt lat="43.4355383" lon="13.5259733"><ele>31.5</ele><time>2026-04-18T07:21:24.075Z</time></trkpt><trkpt lat="43.4356667" lon="13.5259683"><ele>31.25</ele><time>2026-04-18T07:21:25.075Z</time></trkpt><trkpt lat="43.4357883" lon="13.5259633"><ele>31.0</ele><time>2026-04-18T07:21:26.076Z</time></trkpt><trkpt lat="43.4359083" lon="13.5259567"><ele>31.0</ele><time>2026-04-18T07:21:27.075Z</time></trkpt><trkpt lat="43.43602" lon="13.525935"><ele>31.0</ele><time>2026-04-18T07:21:28.075Z</time></trkpt><trkpt lat="43.4361467" lon="13.5259"><ele>31.0</ele><time>2026-04-18T07:21:29.076Z</time></trkpt><trkpt lat="43.43627" lon="13.5258467"><ele>31.0</ele><time>2026-04-18T07:21:30.075Z</time></trkpt><trkpt lat="43.4363967" lon="13.5257817"><ele>31.0</ele><time>2026-04-18T07:21:31.075Z</time></trkpt><trkpt lat="43.43653" lon="13.5257133"><ele>31.0</ele><time>2026-04-18T07:21:32.075Z</time></trkpt><trkpt lat="43.4366567" lon="13.5256517"><ele>31.0</ele><time>2026-04-18T07:21:33.075Z</time></trkpt><trkpt lat="43.4367833" lon="13.5255867"><ele>31.0</ele><time>2026-04-18T07:21:34.076Z</time></trkpt><trkpt lat="43.4369067" lon="13.525515"><ele>31.0</ele><time>2026-04-18T07:21:35.076Z</time></trkpt><trkpt lat="43.4370367" lon="13.52545"><ele>31.0</ele><time>2026-04-18T07:21:36.075Z</time></trkpt><trkpt lat="43.4371617" lon="13.525385"><ele>31.0</ele><time>2026-04-18T07:21:37.075Z</time></trkpt><trkpt lat="43.4372883" lon="13.52532"><ele>31.0</ele><time>2026-04-18T07:21:38.075Z</time></trkpt><trkpt lat="43.43741" lon="13.5252567"><ele>31.0</ele><time>2026-04-18T07:21:39.075Z</time></trkpt><trkpt lat="43.4375233" lon="13.5252"><ele>31.0</ele><time>2026-04-18T07:21:40.075Z</time></trkpt><trkpt lat="43.4376283" lon="13.5251517"><ele>31.0</ele><time>2026-04-18T07:21:41.075Z</time></trkpt><trkpt lat="43.4377067" lon="13.5251117"><ele>31.0</ele><time>2026-04-18T07:21:42.075Z</time></trkpt><trkpt lat="43.43778" lon="13.5250717"><ele>31.0</ele><time>2026-04-18T07:21:43.075Z</time></trkpt><trkpt lat="43.4378333" lon="13.5250183"><ele>31.0</ele><time>2026-04-18T07:21:44.075Z</time></trkpt><trkpt lat="43.4378867" lon="13.52488"><ele>31.0</ele><time>2026-04-18T07:21:46.075Z</time></trkpt><trkpt lat="43.43788" lon="13.5247883"><ele>31.0</ele><time>2026-04-18T07:21:47.075Z</time></trkpt><trkpt lat="43.4378533" lon="13.524685"><ele>31.0</ele><time>2026-04-18T07:21:48.075Z</time></trkpt><trkpt lat="43.4378133" lon="13.5245667"><ele>31.0</ele><time>2026-04-18T07:21:49.075Z</time></trkpt><trkpt lat="43.4377683" lon="13.52444"><ele>31.25</ele><time>2026-04-18T07:21:50.075Z</time></trkpt><trkpt lat="43.4377167" lon="13.5242917"><ele>31.5</ele><time>2026-04-18T07:21:51.075Z</time></trkpt><trkpt lat="43.4376633" lon="13.5241267"><ele>31.75</ele><time>2026-04-18T07:21:52.076Z</time></trkpt><trkpt lat="43.43761" lon="13.5239683"><ele>32.0</ele><time>2026-04-18T07:21:53.075Z</time></trkpt><trkpt lat="43.437565" lon="13.5238183"><ele>32.0</ele><time>2026-04-18T07:21:54.076Z</time></trkpt><trkpt lat="43.4375183" lon="13.5236783"><ele>32.0</ele><time>2026-04-18T07:21:55.075Z</time></trkpt><trkpt lat="43.4374733" lon="13.52353"><ele>32.0</ele><time>2026-04-18T07:21:56.075Z</time></trkpt><trkpt lat="43.43742" lon="13.5233683"><ele>32.0</ele><time>2026-04-18T07:21:57.075Z</time></trkpt><trkpt lat="43.4373717" lon="13.5231983"><ele>32.0</ele><time>2026-04-18T07:21:58.076Z</time></trkpt><trkpt lat="43.4373183" lon="13.52303"><ele>32.0</ele><time>2026-04-18T07:21:59.075Z</time></trkpt><trkpt lat="43.43726" lon="13.5228583"><ele>32.0</ele><time>2026-04-18T07:22:00.076Z</time></trkpt><trkpt lat="43.4372" lon="13.522685"><ele>32.0</ele><time>2026-04-18T07:22:01.075Z</time></trkpt><trkpt lat="43.43714" lon="13.522515"><ele>32.25</ele><time>2026-04-18T07:22:02.075Z</time></trkpt><trkpt lat="43.4370817" lon="13.5223417"><ele>32.5</ele><time>2026-04-18T07:22:03.075Z</time></trkpt><trkpt lat="43.4370233" lon="13.5221733"><ele>32.75</ele><time>2026-04-18T07:22:04.075Z</time></trkpt><trkpt lat="43.4369583" lon="13.522005"><ele>33.0</ele><time>2026-04-18T07:22:05.075Z</time></trkpt><trkpt lat="43.4368917" lon="13.5218417"><ele>33.0</ele><time>2026-04-18T07:22:06.075Z</time></trkpt><trkpt lat="43.4368267" lon="13.5216783"><ele>33.0</ele><time>2026-04-18T07:22:07.076Z</time></trkpt><trkpt lat="43.4367633" lon="13.521525"><ele>33.0</ele><time>2026-04-18T07:22:08.075Z</time></trkpt><trkpt lat="43.436715" lon="13.5213767"><ele>33.0</ele><time>2026-04-18T07:22:09.075Z</time></trkpt><trkpt lat="43.436675" lon="13.5212267"><ele>33.25</ele><time>2026-04-18T07:22:10.075Z</time></trkpt><trkpt lat="43.4366517" lon="13.5210717"><ele>33.5</ele><time>2026-04-18T07:22:11.075Z</time></trkpt><trkpt lat="43.4366417" lon="13.5209133"><ele>33.75</ele><time>2026-04-18T07:22:12.075Z</time></trkpt><trkpt lat="43.4366533" lon="13.520755"><ele>34.0</ele><time>2026-04-18T07:22:13.075Z</time></trkpt><trkpt lat="43.4366783" lon="13.5206033"><ele>34.0</ele><time>2026-04-18T07:22:14.076Z</time></trkpt><trkpt lat="43.4367267" lon="13.520465"><ele>34.0</ele><time>2026-04-18T07:22:15.075Z</time></trkpt><trkpt lat="43.4367917" lon="13.5203283"><ele>34.0</ele><time>2026-04-18T07:22:16.076Z</time></trkpt><trkpt lat="43.436855" lon="13.5201883"><ele>34.0</ele><time>2026-04-18T07:22:17.075Z</time></trkpt><trkpt lat="43.4369067" lon="13.520035"><ele>34.0</ele><time>2026-04-18T07:22:18.076Z</time></trkpt><trkpt lat="43.4369483" lon="13.519865"><ele>34.0</ele><time>2026-04-18T07:22:19.075Z</time></trkpt><trkpt lat="43.4369883" lon="13.5196917"><ele>34.0</ele><time>2026-04-18T07:22:20.075Z</time></trkpt><trkpt lat="43.4370233" lon="13.5195133"><ele>34.0</ele><time>2026-04-18T07:22:21.075Z</time></trkpt><trkpt lat="43.4370567" lon="13.5193517"><ele>34.0</ele><time>2026-04-18T07:22:22.076Z</time></trkpt><trkpt lat="43.437085" lon="13.5192"><ele>34.0</ele><time>2026-04-18T07:22:23.075Z</time></trkpt><trkpt lat="43.4371067" lon="13.5190517"><ele>34.0</ele><time>2026-04-18T07:22:24.075Z</time></trkpt><trkpt lat="43.4371317" lon="13.5189083"><ele>34.0</ele><time>2026-04-18T07:22:25.075Z</time></trkpt><trkpt lat="43.437145" lon="13.5187567"><ele>34.0</ele><time>2026-04-18T07:22:26.075Z</time></trkpt><trkpt lat="43.437145" lon="13.5186"><ele>33.8</ele><time>2026-04-18T07:22:27.076Z</time></trkpt><trkpt lat="43.4371317" lon="13.518445"><ele>33.599999999999994</ele><time>2026-04-18T07:22:28.075Z</time></trkpt><trkpt lat="43.4371017" lon="13.5182983"><ele>33.4</ele><time>2026-04-18T07:22:29.076Z</time></trkpt><trkpt lat="43.4370583" lon="13.518155"><ele>33.199999999999996</ele><time>2026-04-18T07:22:30.075Z</time></trkpt><trkpt lat="43.437015" lon="13.518015"><ele>33.0</ele><time>2026-04-18T07:22:31.076Z</time></trkpt><trkpt lat="43.436975" lon="13.517875"><ele>33.0</ele><time>2026-04-18T07:22:32.075Z</time></trkpt><trkpt lat="43.43693" lon="13.517735"><ele>33.0</ele><time>2026-04-18T07:22:33.075Z</time></trkpt><trkpt lat="43.4368833" lon="13.51759"><ele>33.0</ele><time>2026-04-18T07:22:34.076Z</time></trkpt><trkpt lat="43.4368383" lon="13.5174467"><ele>33.0</ele><time>2026-04-18T07:22:35.075Z</time></trkpt><trkpt lat="43.4367967" lon="13.5173"><ele>33.0</ele><time>2026-04-18T07:22:36.076Z</time></trkpt><trkpt lat="43.4367533" lon="13.5171717"><ele>33.0</ele><time>2026-04-18T07:22:37.075Z</time></trkpt><trkpt lat="43.4367167" lon="13.5170517"><ele>33.0</ele><time>2026-04-18T07:22:38.075Z</time></trkpt><trkpt lat="43.4366817" lon="13.5169517"><ele>33.0</ele><time>2026-04-18T07:22:39.076Z</time></trkpt><trkpt lat="43.4366633" lon="13.5168533"><ele>33.0</ele><time>2026-04-18T07:22:40.075Z</time></trkpt><trkpt lat="43.4366567" lon="13.5167667"><ele>33.0</ele><time>2026-04-18T07:22:41.076Z</time></trkpt><trkpt lat="43.4367" lon="13.5166117"><ele>33.333333333333336</ele><time>2026-04-18T07:22:43.076Z</time></trkpt><trkpt lat="43.4367467" lon="13.516545"><ele>33.666666666666664</ele><time>2026-04-18T07:22:44.076Z</time></trkpt><trkpt lat="43.4368133" lon="13.5164967"><ele>34.0</ele><time>2026-04-18T07:22:45.076Z</time></trkpt><trkpt lat="43.4368917" lon="13.5164617"><ele>34.33333333333333</ele><time>2026-04-18T07:22:46.075Z</time></trkpt><trkpt lat="43.436975" lon="13.516415"><ele>34.666666666666664</ele><time>2026-04-18T07:22:47.075Z</time></trkpt><trkpt lat="43.4370517" lon="13.51637"><ele>35.0</ele><time>2026-04-18T07:22:48.075Z</time></trkpt><trkpt lat="43.4371383" lon="13.516315"><ele>35.2</ele><time>2026-04-18T07:22:49.075Z</time></trkpt><trkpt lat="43.437235" lon="13.516255"><ele>35.4</ele><time>2026-04-18T07:22:50.075Z</time></trkpt><trkpt lat="43.43733" lon="13.5162"><ele>35.6</ele><time>2026-04-18T07:22:51.075Z</time></trkpt><trkpt lat="43.43743" lon="13.51614"><ele>35.8</ele><time>2026-04-18T07:22:52.076Z</time></trkpt><trkpt lat="43.4375283" lon="13.5160817"><ele>36.0</ele><time>2026-04-18T07:22:53.076Z</time></trkpt><trkpt lat="43.43762" lon="13.5160317"><ele>36.666666666666664</ele><time>2026-04-18T07:22:54.075Z</time></trkpt><trkpt lat="43.4376967" lon="13.515995"><ele>37.333333333333336</ele><time>2026-04-18T07:22:55.076Z</time></trkpt><trkpt lat="43.437765" lon="13.51597"><ele>38.0</ele><time>2026-04-18T07:22:56.075Z</time></trkpt><trkpt lat="43.437865" lon="13.5159017"><ele>38.66666666666667</ele><time>2026-04-18T07:22:58.075Z</time></trkpt><trkpt lat="43.4379117" lon="13.5157667"><ele>39.333333333333336</ele><time>2026-04-18T07:23:00.075Z</time></trkpt><trkpt lat="43.437915" lon="13.5156617"><ele>40.0</ele><time>2026-04-18T07:23:01.075Z</time></trkpt><trkpt lat="43.4379317" lon="13.5155417"><ele>40.0</ele><time>2026-04-18T07:23:02.075Z</time></trkpt><trkpt lat="43.4379583" lon="13.5154167"><ele>40.0</ele><time>2026-04-18T07:23:03.075Z</time></trkpt><trkpt lat="43.4379867" lon="13.5152883"><ele>40.0</ele><time>2026-04-18T07:23:04.075Z</time></trkpt><trkpt lat="43.438015" lon="13.5151583"><ele>40.0</ele><time>2026-04-18T07:23:05.075Z</time></trkpt><trkpt lat="43.4380417" lon="13.5150233"><ele>40.0</ele><time>2026-04-18T07:23:06.075Z</time></trkpt><trkpt lat="43.4380683" lon="13.5148833"><ele>41.6</ele><time>2026-04-18T07:23:07.075Z</time></trkpt><trkpt lat="43.438095" lon="13.51474"><ele>43.2</ele><time>2026-04-18T07:23:08.076Z</time></trkpt><trkpt lat="43.4381217" lon="13.5145967"><ele>44.8</ele><time>2026-04-18T07:23:09.075Z</time></trkpt><trkpt lat="43.43815" lon="13.5144583"><ele>46.4</ele><time>2026-04-18T07:23:10.076Z</time></trkpt><trkpt lat="43.438175" lon="13.5143167"><ele>48.0</ele><time>2026-04-18T07:23:11.075Z</time></trkpt><trkpt lat="43.4382017" lon="13.5141767"><ele>49.8</ele><time>2026-04-18T07:23:12.076Z</time></trkpt><trkpt lat="43.4382317" lon="13.514035"><ele>51.599999999999994</ele><time>2026-04-18T07:23:13.075Z</time></trkpt><trkpt lat="43.438265" lon="13.51389"><ele>53.400000000000006</ele><time>2026-04-18T07:23:14.075Z</time></trkpt><trkpt lat="43.4383033" lon="13.5137433"><ele>55.2</ele><time>2026-04-18T07:23:15.076Z</time></trkpt><trkpt lat="43.438355" lon="13.5136033"><ele>57.0</ele><time>2026-04-18T07:23:16.075Z</time></trkpt><trkpt lat="43.438405" lon="13.51347"><ele>58.0</ele><time>2026-04-18T07:23:17.075Z</time></trkpt><trkpt lat="43.4384483" lon="13.5133367"><ele>59.0</ele><time>2026-04-18T07:23:18.075Z</time></trkpt><trkpt lat="43.4384983" lon="13.5132"><ele>60.0</ele><time>2026-04-18T07:23:19.075Z</time></trkpt><trkpt lat="43.4385483" lon="13.513065"><ele>61.0</ele><time>2026-04-18T07:23:20.076Z</time></trkpt><trkpt lat="43.4386" lon="13.5129283"><ele>62.0</ele><time>2026-04-18T07:23:21.075Z</time></trkpt><trkpt lat="43.43865" lon="13.5127883"><ele>62.0</ele><time>2026-04-18T07:23:22.076Z</time></trkpt><trkpt lat="43.4386967" lon="13.5126367"><ele>62.0</ele><time>2026-04-18T07:23:23.075Z</time></trkpt><trkpt lat="43.4387433" lon="13.51249"><ele>62.0</ele><time>2026-04-18T07:23:24.075Z</time></trkpt><trkpt lat="43.4387833" lon="13.512335"><ele>62.0</ele><time>2026-04-18T07:23:25.075Z</time></trkpt><trkpt lat="43.4388117" lon="13.51217"><ele>61.25</ele><time>2026-04-18T07:23:26.076Z</time></trkpt><trkpt lat="43.438835" lon="13.5119917"><ele>60.5</ele><time>2026-04-18T07:23:27.075Z</time></trkpt><trkpt lat="43.4388633" lon="13.5118133"><ele>59.75</ele><time>2026-04-18T07:23:28.075Z</time></trkpt><trkpt lat="43.43889" lon="13.5116283"><ele>59.0</ele><time>2026-04-18T07:23:29.075Z</time></trkpt><trkpt lat="43.4389217" lon="13.5114417"><ele>59.0</ele><time>2026-04-18T07:23:30.075Z</time></trkpt><trkpt lat="43.4389467" lon="13.5112533"><ele>59.0</ele><time>2026-04-18T07:23:31.075Z</time></trkpt><trkpt lat="43.4389817" lon="13.51107"><ele>59.0</ele><time>2026-04-18T07:23:32.075Z</time></trkpt><trkpt lat="43.4390117" lon="13.5108833"><ele>59.0</ele><time>2026-04-18T07:23:33.075Z</time></trkpt><trkpt lat="43.4390517" lon="13.5106967"><ele>58.75</ele><time>2026-04-18T07:23:34.075Z</time></trkpt><trkpt lat="43.439085" lon="13.5105083"><ele>58.5</ele><time>2026-04-18T07:23:35.075Z</time></trkpt><trkpt lat="43.4391217" lon="13.51031"><ele>58.25</ele><time>2026-04-18T07:23:36.075Z</time></trkpt><trkpt lat="43.4391567" lon="13.5101217"><ele>58.0</ele><time>2026-04-18T07:23:37.075Z</time></trkpt><trkpt lat="43.439195" lon="13.50993"><ele>58.5</ele><time>2026-04-18T07:23:38.075Z</time></trkpt><trkpt lat="43.4392283" lon="13.509735"><ele>59.0</ele><time>2026-04-18T07:23:39.076Z</time></trkpt><trkpt lat="43.439255" lon="13.50955"><ele>59.5</ele><time>2026-04-18T07:23:40.075Z</time></trkpt><trkpt lat="43.4392883" lon="13.5093667"><ele>60.0</ele><time>2026-04-18T07:23:41.075Z</time></trkpt><trkpt lat="43.4393183" lon="13.5091917"><ele>61.0</ele><time>2026-04-18T07:23:42.075Z</time></trkpt><trkpt lat="43.43935" lon="13.5090217"><ele>62.0</ele><time>2026-04-18T07:23:43.075Z</time></trkpt><trkpt lat="43.4393817" lon="13.5088517"><ele>63.0</ele><time>2026-04-18T07:23:44.076Z</time></trkpt><trkpt lat="43.439415" lon="13.5086883"><ele>64.0</ele><time>2026-04-18T07:23:45.075Z</time></trkpt><trkpt lat="43.43944" lon="13.5085267"><ele>64.0</ele><time>2026-04-18T07:23:46.075Z</time></trkpt><trkpt lat="43.43946" lon="13.50837"><ele>64.0</ele><time>2026-04-18T07:23:47.075Z</time></trkpt><trkpt lat="43.4394767" lon="13.5082"><ele>64.0</ele><time>2026-04-18T07:23:48.075Z</time></trkpt><trkpt lat="43.43948" lon="13.5080367"><ele>64.0</ele><time>2026-04-18T07:23:49.075Z</time></trkpt><trkpt lat="43.4394883" lon="13.5078833"><ele>64.0</ele><time>2026-04-18T07:23:50.075Z</time></trkpt><trkpt lat="43.4394967" lon="13.5077333"><ele>64.0</ele><time>2026-04-18T07:23:51.076Z</time></trkpt><trkpt lat="43.4395217" lon="13.5075883"><ele>64.0</ele><time>2026-04-18T07:23:52.075Z</time></trkpt><trkpt lat="43.43955" lon="13.5074267"><ele>64.0</ele><time>2026-04-18T07:23:53.075Z</time></trkpt><trkpt lat="43.4395817" lon="13.5072617"><ele>64.0</ele><time>2026-04-18T07:23:54.075Z</time></trkpt><trkpt lat="43.4396167" lon="13.5070917"><ele>64.0</ele><time>2026-04-18T07:23:55.075Z</time></trkpt><trkpt lat="43.43964" lon="13.5069117"><ele>64.0</ele><time>2026-04-18T07:23:56.076Z</time></trkpt><trkpt lat="43.4396667" lon="13.5067283"><ele>64.0</ele><time>2026-04-18T07:23:57.076Z</time></trkpt><trkpt lat="43.439695" lon="13.5065567"><ele>63.0</ele><time>2026-04-18T07:23:58.075Z</time></trkpt><trkpt lat="43.439715" lon="13.5063783"><ele>62.0</ele><time>2026-04-18T07:23:59.075Z</time></trkpt><trkpt lat="43.43973" lon="13.5061817"><ele>61.0</ele><time>2026-04-18T07:24:00.075Z</time></trkpt><trkpt lat="43.4397317" lon="13.5059967"><ele>60.0</ele><time>2026-04-18T07:24:01.075Z</time></trkpt><trkpt lat="43.4397183" lon="13.5058283"><ele>62.0</ele><time>2026-04-18T07:24:02.075Z</time></trkpt><trkpt lat="43.4397017" lon="13.5056567"><ele>64.0</ele><time>2026-04-18T07:24:03.075Z</time></trkpt><trkpt lat="43.4396817" lon="13.5054767"><ele>66.0</ele><time>2026-04-18T07:24:04.075Z</time></trkpt><trkpt lat="43.43967" lon="13.5052867"><ele>68.0</ele><time>2026-04-18T07:24:05.075Z</time></trkpt><trkpt lat="43.4396567" lon="13.5051017"><ele>69.75</ele><time>2026-04-18T07:24:06.075Z</time></trkpt><trkpt lat="43.4396517" lon="13.50492"><ele>71.5</ele><time>2026-04-18T07:24:07.075Z</time></trkpt><trkpt lat="43.4396583" lon="13.5047483"><ele>73.25</ele><time>2026-04-18T07:24:08.075Z</time></trkpt><trkpt lat="43.4396717" lon="13.50459"><ele>75.0</ele><time>2026-04-18T07:24:09.076Z</time></trkpt><trkpt lat="43.4396883" lon="13.504445"><ele>76.0</ele><time>2026-04-18T07:24:10.076Z</time></trkpt><trkpt lat="43.439715" lon="13.504305"><ele>77.0</ele><time>2026-04-18T07:24:11.075Z</time></trkpt><trkpt lat="43.4397533" lon="13.5041533"><ele>78.0</ele><time>2026-04-18T07:24:12.075Z</time></trkpt><trkpt lat="43.4397967" lon="13.503995"><ele>79.0</ele><time>2026-04-18T07:24:13.075Z</time></trkpt><trkpt lat="43.4398467" lon="13.503835"><ele>80.5</ele><time>2026-04-18T07:24:14.075Z</time></trkpt><trkpt lat="43.4398883" lon="13.5036683"><ele>82.0</ele><time>2026-04-18T07:24:15.075Z</time></trkpt><trkpt lat="43.4399167" lon="13.503505"><ele>83.5</ele><time>2026-04-18T07:24:16.075Z</time></trkpt><trkpt lat="43.4399483" lon="13.503335"><ele>85.0</ele><time>2026-04-18T07:24:17.076Z</time></trkpt><trkpt lat="43.4399867" lon="13.503165"><ele>85.0</ele><time>2026-04-18T07:24:18.075Z</time></trkpt><trkpt lat="43.4400183" lon="13.503005"><ele>85.0</ele><time>2026-04-18T07:24:19.076Z</time></trkpt><trkpt lat="43.4400483" lon="13.5028383"><ele>85.0</ele><time>2026-04-18T07:24:20.075Z</time></trkpt><trkpt lat="43.4400767" lon="13.5026833"><ele>85.0</ele><time>2026-04-18T07:24:21.076Z</time></trkpt><trkpt lat="43.440115" lon="13.502525"><ele>86.25</ele><time>2026-04-18T07:24:22.075Z</time></trkpt><trkpt lat="43.4401467" lon="13.5023683"><ele>87.5</ele><time>2026-04-18T07:24:23.076Z</time></trkpt><trkpt lat="43.4401667" lon="13.5022017"><ele>88.75</ele><time>2026-04-18T07:24:24.075Z</time></trkpt><trkpt lat="43.4401817" lon="13.5020267"><ele>90.0</ele><time>2026-04-18T07:24:25.075Z</time></trkpt><trkpt lat="43.4401983" lon="13.5018633"><ele>90.25</ele><time>2026-04-18T07:24:26.075Z</time></trkpt><trkpt lat="43.440215" lon="13.5016817"><ele>90.5</ele><time>2026-04-18T07:24:27.075Z</time></trkpt><trkpt lat="43.4402267" lon="13.5015083"><ele>90.75</ele><time>2026-04-18T07:24:28.075Z</time></trkpt><trkpt lat="43.4402367" lon="13.50132"><ele>91.0</ele><time>2026-04-18T07:24:29.076Z</time></trkpt><trkpt lat="43.4402633" lon="13.5011367"><ele>91.25</ele><time>2026-04-18T07:24:30.075Z</time></trkpt><trkpt lat="43.4402917" lon="13.5009667"><ele>91.5</ele><time>2026-04-18T07:24:31.075Z</time></trkpt><trkpt lat="43.4403217" lon="13.5007917"><ele>91.75</ele><time>2026-04-18T07:24:32.076Z</time></trkpt><trkpt lat="43.4403483" lon="13.50062"><ele>92.0</ele><time>2026-04-18T07:24:33.075Z</time></trkpt><trkpt lat="43.4403667" lon="13.5004583"><ele>92.5</ele><time>2026-04-18T07:24:34.076Z</time></trkpt><trkpt lat="43.4403917" lon="13.50029"><ele>93.0</ele><time>2026-04-18T07:24:35.075Z</time></trkpt><trkpt lat="43.440415" lon="13.5001217"><ele>93.5</ele><time>2026-04-18T07:24:36.075Z</time></trkpt><trkpt lat="43.4404317" lon="13.499955"><ele>94.0</ele><time>2026-04-18T07:24:37.075Z</time></trkpt><trkpt lat="43.44045" lon="13.499785"><ele>94.0</ele><time>2026-04-18T07:24:38.075Z</time></trkpt><trkpt lat="43.4404617" lon="13.4996133"><ele>94.0</ele><time>2026-04-18T07:24:39.075Z</time></trkpt><trkpt lat="43.440475" lon="13.49943"><ele>94.0</ele><time>2026-04-18T07:24:40.076Z</time></trkpt><trkpt lat="43.4404867" lon="13.4992567"><ele>94.0</ele><time>2026-04-18T07:24:41.075Z</time></trkpt><trkpt lat="43.440485" lon="13.4990883"><ele>94.75</ele><time>2026-04-18T07:24:42.075Z</time></trkpt><trkpt lat="43.4404717" lon="13.49891"><ele>95.5</ele><time>2026-04-18T07:24:43.075Z</time></trkpt><trkpt lat="43.4404583" lon="13.4987233"><ele>96.25</ele><time>2026-04-18T07:24:44.075Z</time></trkpt><trkpt lat="43.440445" lon="13.4985383"><ele>97.0</ele><time>2026-04-18T07:24:45.076Z</time></trkpt><trkpt lat="43.4404217" lon="13.498355"><ele>99.0</ele><time>2026-04-18T07:24:46.075Z</time></trkpt><trkpt lat="43.4404067" lon="13.4981633"><ele>101.0</ele><time>2026-04-18T07:24:47.075Z</time></trkpt><trkpt lat="43.4403917" lon="13.4979767"><ele>103.0</ele><time>2026-04-18T07:24:48.076Z</time></trkpt><trkpt lat="43.4403717" lon="13.4978033"><ele>105.0</ele><time>2026-04-18T07:24:49.075Z</time></trkpt><trkpt lat="43.440345" lon="13.497635"><ele>106.5</ele><time>2026-04-18T07:24:50.075Z</time></trkpt><trkpt lat="43.4403117" lon="13.497475"><ele>108.0</ele><time>2026-04-18T07:24:51.076Z</time></trkpt><trkpt lat="43.4402717" lon="13.49732"><ele>109.5</ele><time>2026-04-18T07:24:52.075Z</time></trkpt><trkpt lat="43.440245" lon="13.4971617"><ele>111.0</ele><time>2026-04-18T07:24:53.075Z</time></trkpt><trkpt lat="43.4402" lon="13.4970183"><ele>111.5</ele><time>2026-04-18T07:24:54.076Z</time></trkpt><trkpt lat="43.4401517" lon="13.4968633"><ele>112.0</ele><time>2026-04-18T07:24:55.075Z</time></trkpt><trkpt lat="43.4400867" lon="13.4967133"><ele>112.5</ele><time>2026-04-18T07:24:56.075Z</time></trkpt><trkpt lat="43.4400167" lon="13.496575"><ele>113.0</ele><time>2026-04-18T07:24:57.075Z</time></trkpt><trkpt lat="43.4399383" lon="13.4964383"><ele>113.0</ele><time>2026-04-18T07:24:58.075Z</time></trkpt><trkpt lat="43.4398467" lon="13.4962967"><ele>113.0</ele><time>2026-04-18T07:24:59.075Z</time></trkpt><trkpt lat="43.4397467" lon="13.4961533"><ele>113.0</ele><time>2026-04-18T07:25:00.075Z</time></trkpt><trkpt lat="43.4396467" lon="13.49601"><ele>113.0</ele><time>2026-04-18T07:25:01.075Z</time></trkpt><trkpt lat="43.4395483" lon="13.49587"><ele>113.25</ele><time>2026-04-18T07:25:02.075Z</time></trkpt><trkpt lat="43.4394517" lon="13.495735"><ele>113.5</ele><time>2026-04-18T07:25:03.075Z</time></trkpt><trkpt lat="43.4393567" lon="13.4955933"><ele>113.75</ele><time>2026-04-18T07:25:04.075Z</time></trkpt><trkpt lat="43.439265" lon="13.4954467"><ele>114.0</ele><time>2026-04-18T07:25:05.075Z</time></trkpt><trkpt lat="43.4391767" lon="13.4953017"><ele>114.75</ele><time>2026-04-18T07:25:06.075Z</time></trkpt><trkpt lat="43.4390867" lon="13.4951533"><ele>115.5</ele><time>2026-04-18T07:25:07.075Z</time></trkpt><trkpt lat="43.4390033" lon="13.4950033"><ele>116.25</ele><time>2026-04-18T07:25:08.075Z</time></trkpt><trkpt lat="43.438925" lon="13.4948517"><ele>117.0</ele><time>2026-04-18T07:25:09.075Z</time></trkpt><trkpt lat="43.4388417" lon="13.4946917"><ele>118.0</ele><time>2026-04-18T07:25:10.075Z</time></trkpt><trkpt lat="43.4387533" lon="13.49453"><ele>119.0</ele><time>2026-04-18T07:25:11.075Z</time></trkpt><trkpt lat="43.4386667" lon="13.4943633"><ele>120.0</ele><time>2026-04-18T07:25:12.076Z</time></trkpt><trkpt lat="43.4385817" lon="13.4942033"><ele>121.0</ele><time>2026-04-18T07:25:13.075Z</time></trkpt><trkpt lat="43.4385017" lon="13.4940383"><ele>121.0</ele><time>2026-04-18T07:25:14.075Z</time></trkpt><trkpt lat="43.4384233" lon="13.49389"><ele>121.0</ele><time>2026-04-18T07:25:15.075Z</time></trkpt><trkpt lat="43.4383467" lon="13.493735"><ele>121.0</ele><time>2026-04-18T07:25:16.075Z</time></trkpt><trkpt lat="43.438275" lon="13.4935867"><ele>121.0</ele><time>2026-04-18T07:25:17.075Z</time></trkpt><trkpt lat="43.43821" lon="13.4934517"><ele>121.0</ele><time>2026-04-18T07:25:18.075Z</time></trkpt><trkpt lat="43.4381617" lon="13.4933283"><ele>121.0</ele><time>2026-04-18T07:25:19.076Z</time></trkpt><trkpt lat="43.4381133" lon="13.4932067"><ele>121.0</ele><time>2026-04-18T07:25:20.075Z</time></trkpt><trkpt lat="43.4380617" lon="13.4930717"><ele>121.0</ele><time>2026-04-18T07:25:21.076Z</time></trkpt><trkpt lat="43.438005" lon="13.49293"><ele>121.0</ele><time>2026-04-18T07:25:22.075Z</time></trkpt><trkpt lat="43.4379467" lon="13.4927717"><ele>121.0</ele><time>2026-04-18T07:25:23.075Z</time></trkpt><trkpt lat="43.4378867" lon="13.4926083"><ele>121.0</ele><time>2026-04-18T07:25:24.075Z</time></trkpt><trkpt lat="43.437815" lon="13.492445"><ele>121.0</ele><time>2026-04-18T07:25:25.075Z</time></trkpt><trkpt lat="43.4377517" lon="13.4922667"><ele>121.0</ele><time>2026-04-18T07:25:26.076Z</time></trkpt><trkpt lat="43.4377" lon="13.4920933"><ele>120.5</ele><time>2026-04-18T07:25:27.075Z</time></trkpt><trkpt lat="43.4376583" lon="13.4919317"><ele>120.0</ele><time>2026-04-18T07:25:28.076Z</time></trkpt><trkpt lat="43.4376167" lon="13.4917617"><ele>119.5</ele><time>2026-04-18T07:25:29.076Z</time></trkpt><trkpt lat="43.4375883" lon="13.4915983"><ele>119.0</ele><time>2026-04-18T07:25:30.075Z</time></trkpt><trkpt lat="43.4375633" lon="13.49143"><ele>119.0</ele><time>2026-04-18T07:25:31.075Z</time></trkpt><trkpt lat="43.4375383" lon="13.49125"><ele>119.0</ele><time>2026-04-18T07:25:32.075Z</time></trkpt><trkpt lat="43.43753" lon="13.491085"><ele>119.0</ele><time>2026-04-18T07:25:33.075Z</time></trkpt><trkpt lat="43.43752" lon="13.49094"><ele>119.0</ele><time>2026-04-18T07:25:34.076Z</time></trkpt><trkpt lat="43.4375133" lon="13.4907917"><ele>119.0</ele><time>2026-04-18T07:25:35.075Z</time></trkpt><trkpt lat="43.4375067" lon="13.4906517"><ele>119.0</ele><time>2026-04-18T07:25:36.076Z</time></trkpt><trkpt lat="43.4374967" lon="13.490515"><ele>119.0</ele><time>2026-04-18T07:25:37.076Z</time></trkpt><trkpt lat="43.4374933" lon="13.4903783"><ele>119.0</ele><time>2026-04-18T07:25:38.076Z</time></trkpt><trkpt lat="43.4374883" lon="13.4902383"><ele>119.0</ele><time>2026-04-18T07:25:39.075Z</time></trkpt><trkpt lat="43.4374833" lon="13.4900983"><ele>119.0</ele><time>2026-04-18T07:25:40.076Z</time></trkpt><trkpt lat="43.4374733" lon="13.4899517"><ele>119.0</ele><time>2026-04-18T07:25:41.075Z</time></trkpt><trkpt lat="43.43746" lon="13.4897867"><ele>119.0</ele><time>2026-04-18T07:25:42.075Z</time></trkpt><trkpt lat="43.4374383" lon="13.4896133"><ele>119.0</ele><time>2026-04-18T07:25:43.075Z</time></trkpt><trkpt lat="43.4374167" lon="13.4894467"><ele>118.5</ele><time>2026-04-18T07:25:44.075Z</time></trkpt><trkpt lat="43.43738" lon="13.4892783"><ele>118.0</ele><time>2026-04-18T07:25:45.075Z</time></trkpt><trkpt lat="43.4373333" lon="13.48911"><ele>117.5</ele><time>2026-04-18T07:25:46.076Z</time></trkpt><trkpt lat="43.437275" lon="13.4889583"><ele>117.0</ele><time>2026-04-18T07:25:47.075Z</time></trkpt><trkpt lat="43.437215" lon="13.488805"><ele>116.0</ele><time>2026-04-18T07:25:48.075Z</time></trkpt><trkpt lat="43.4371583" lon="13.4886583"><ele>115.0</ele><time>2026-04-18T07:25:49.075Z</time></trkpt><trkpt lat="43.4370983" lon="13.4885083"><ele>114.0</ele><time>2026-04-18T07:25:50.076Z</time></trkpt><trkpt lat="43.4370433" lon="13.488375"><ele>113.0</ele><time>2026-04-18T07:25:51.075Z</time></trkpt><trkpt lat="43.43699" lon="13.4882417"><ele>115.25</ele><time>2026-04-18T07:25:52.075Z</time></trkpt><trkpt lat="43.4369383" lon="13.4881083"><ele>117.5</ele><time>2026-04-18T07:25:53.075Z</time></trkpt><trkpt lat="43.4368883" lon="13.48797"><ele>119.75</ele><time>2026-04-18T07:25:54.076Z</time></trkpt><trkpt lat="43.43684" lon="13.4878267"><ele>122.0</ele><time>2026-04-18T07:25:55.076Z</time></trkpt><trkpt lat="43.4368017" lon="13.48768"><ele>122.0</ele><time>2026-04-18T07:25:56.075Z</time></trkpt><trkpt lat="43.43677" lon="13.4875367"><ele>121.99999999999999</ele><time>2026-04-18T07:25:57.075Z</time></trkpt><trkpt lat="43.4367367" lon="13.487395"><ele>121.99999999999999</ele><time>2026-04-18T07:25:58.075Z</time></trkpt><trkpt lat="43.4367033" lon="13.4872517"><ele>122.0</ele><time>2026-04-18T07:25:59.075Z</time></trkpt><trkpt lat="43.436665" lon="13.4870933"><ele>122.0</ele><time>2026-04-18T07:26:00.076Z</time></trkpt><trkpt lat="43.4366417" lon="13.4869367"><ele>122.0</ele><time>2026-04-18T07:26:01.075Z</time></trkpt><trkpt lat="43.4366317" lon="13.4867767"><ele>122.0</ele><time>2026-04-18T07:26:02.074Z</time></trkpt><trkpt lat="43.4366267" lon="13.4866217"><ele>122.0</ele><time>2026-04-18T07:26:03.074Z</time></trkpt><trkpt lat="43.4366283" lon="13.4864633"><ele>122.0</ele><time>2026-04-18T07:26:04.074Z</time></trkpt><trkpt lat="43.436635" lon="13.48631"><ele>121.39999999999999</ele><time>2026-04-18T07:26:05.074Z</time></trkpt><trkpt lat="43.4366383" lon="13.48616"><ele>120.79999999999998</ele><time>2026-04-18T07:26:06.074Z</time></trkpt><trkpt lat="43.436655" lon="13.48602"><ele>120.2</ele><time>2026-04-18T07:26:07.074Z</time></trkpt><trkpt lat="43.4366567" lon="13.48587"><ele>119.6</ele><time>2026-04-18T07:26:08.074Z</time></trkpt><trkpt lat="43.4366567" lon="13.4857183"><ele>119.0</ele><time>2026-04-18T07:26:09.074Z</time></trkpt><trkpt lat="43.4366633" lon="13.48556"><ele>117.75</ele><time>2026-04-18T07:26:10.074Z</time></trkpt><trkpt lat="43.4366617" lon="13.4854"><ele>116.5</ele><time>2026-04-18T07:26:11.074Z</time></trkpt><trkpt lat="43.4366683" lon="13.48525"><ele>115.25</ele><time>2026-04-18T07:26:12.074Z</time></trkpt><trkpt lat="43.4366767" lon="13.4850967"><ele>114.0</ele><time>2026-04-18T07:26:13.074Z</time></trkpt><trkpt lat="43.4366983" lon="13.4849333"><ele>114.0</ele><time>2026-04-18T07:26:14.074Z</time></trkpt><trkpt lat="43.4367217" lon="13.4847667"><ele>114.0</ele><time>2026-04-18T07:26:15.074Z</time></trkpt><trkpt lat="43.4367467" lon="13.4845967"><ele>114.0</ele><time>2026-04-18T07:26:16.074Z</time></trkpt><trkpt lat="43.43677" lon="13.4844267"><ele>114.0</ele><time>2026-04-18T07:26:17.074Z</time></trkpt><trkpt lat="43.4367983" lon="13.48427"><ele>113.6</ele><time>2026-04-18T07:26:18.074Z</time></trkpt><trkpt lat="43.4368283" lon="13.484115"><ele>113.2</ele><time>2026-04-18T07:26:19.074Z</time></trkpt><trkpt lat="43.4368617" lon="13.483975"><ele>112.79999999999998</ele><time>2026-04-18T07:26:20.074Z</time></trkpt><trkpt lat="43.4368917" lon="13.4838467"><ele>112.39999999999999</ele><time>2026-04-18T07:26:21.074Z</time></trkpt><trkpt lat="43.436925" lon="13.4837283"><ele>112.0</ele><time>2026-04-18T07:26:22.074Z</time></trkpt><trkpt lat="43.4369533" lon="13.483605"><ele>112.00000000000001</ele><time>2026-04-18T07:26:23.074Z</time></trkpt><trkpt lat="43.436985" lon="13.4834867"><ele>112.0</ele><time>2026-04-18T07:26:24.074Z</time></trkpt><trkpt lat="43.4370217" lon="13.4833733"><ele>112.0</ele><time>2026-04-18T07:26:25.074Z</time></trkpt><trkpt lat="43.4370483" lon="13.483265"><ele>112.0</ele><time>2026-04-18T07:26:26.074Z</time></trkpt><trkpt lat="43.4370767" lon="13.48317"><ele>112.00000000000001</ele><time>2026-04-18T07:26:27.075Z</time></trkpt><trkpt lat="43.4370917" lon="13.4830817"><ele>112.0</ele><time>2026-04-18T07:26:28.075Z</time></trkpt><trkpt lat="43.437085" lon="13.4829833"><ele>111.83333333333334</ele><time>2026-04-18T07:26:29.075Z</time></trkpt><trkpt lat="43.437065" lon="13.4828883"><ele>111.66666666666667</ele><time>2026-04-18T07:26:30.074Z</time></trkpt><trkpt lat="43.4370367" lon="13.482785"><ele>111.5</ele><time>2026-04-18T07:26:31.074Z</time></trkpt><trkpt lat="43.4369967" lon="13.4826783"><ele>111.33333333333334</ele><time>2026-04-18T07:26:32.075Z</time></trkpt><trkpt lat="43.4369483" lon="13.4825633"><ele>111.16666666666667</ele><time>2026-04-18T07:26:33.074Z</time></trkpt><trkpt lat="43.4368883" lon="13.4824317"><ele>111.0</ele><time>2026-04-18T07:26:34.074Z</time></trkpt><trkpt lat="43.436825" lon="13.4823017"><ele>111.0</ele><time>2026-04-18T07:26:35.075Z</time></trkpt><trkpt lat="43.43677" lon="13.48219"><ele>111.0</ele><time>2026-04-18T07:26:36.074Z</time></trkpt><trkpt lat="43.4367233" lon="13.482075"><ele>111.0</ele><time>2026-04-18T07:26:37.074Z</time></trkpt><trkpt lat="43.4366683" lon="13.4819683"><ele>111.0</ele><time>2026-04-18T07:26:38.074Z</time></trkpt><trkpt lat="43.4366083" lon="13.48186"><ele>111.0</ele><time>2026-04-18T07:26:39.074Z</time></trkpt><trkpt lat="43.4365417" lon="13.4817483"><ele>110.8</ele><time>2026-04-18T07:26:40.074Z</time></trkpt><trkpt lat="43.4364817" lon="13.4816433"><ele>110.6</ele><time>2026-04-18T07:26:41.075Z</time></trkpt><trkpt lat="43.4364217" lon="13.4815267"><ele>110.4</ele><time>2026-04-18T07:26:42.074Z</time></trkpt><trkpt lat="43.436355" lon="13.481405"><ele>110.2</ele><time>2026-04-18T07:26:43.074Z</time></trkpt><trkpt lat="43.4362967" lon="13.481305"><ele>110.0</ele><time>2026-04-18T07:26:44.075Z</time></trkpt><trkpt lat="43.4362367" lon="13.481205"><ele>108.33333333333333</ele><time>2026-04-18T07:26:45.074Z</time></trkpt><trkpt lat="43.4361767" lon="13.48111"><ele>106.66666666666666</ele><time>2026-04-18T07:26:46.074Z</time></trkpt><trkpt lat="43.4361283" lon="13.4810267"><ele>105.0</ele><time>2026-04-18T07:26:47.074Z</time></trkpt><trkpt lat="43.4360817" lon="13.4809333"><ele>103.33333333333334</ele><time>2026-04-18T07:26:48.074Z</time></trkpt><trkpt lat="43.4360317" lon="13.48083"><ele>101.66666666666667</ele><time>2026-04-18T07:26:49.074Z</time></trkpt><trkpt lat="43.4359983" lon="13.48072"><ele>100.0</ele><time>2026-04-18T07:26:50.075Z</time></trkpt><trkpt lat="43.4359717" lon="13.480595"><ele>100.0</ele><time>2026-04-18T07:26:51.074Z</time></trkpt><trkpt lat="43.4359467" lon="13.480455"><ele>100.0</ele><time>2026-04-18T07:26:52.074Z</time></trkpt><trkpt lat="43.4359283" lon="13.48031"><ele>100.0</ele><time>2026-04-18T07:26:53.074Z</time></trkpt><trkpt lat="43.4359167" lon="13.4801783"><ele>100.0</ele><time>2026-04-18T07:26:54.074Z</time></trkpt><trkpt lat="43.435895" lon="13.4800283"><ele>100.0</ele><time>2026-04-18T07:26:55.074Z</time></trkpt><trkpt lat="43.4358767" lon="13.4798883"><ele>100.4</ele><time>2026-04-18T07:26:56.074Z</time></trkpt><trkpt lat="43.4358517" lon="13.4797483"><ele>100.8</ele><time>2026-04-18T07:26:57.075Z</time></trkpt><trkpt lat="43.4358267" lon="13.4796117"><ele>101.19999999999999</ele><time>2026-04-18T07:26:58.074Z</time></trkpt><trkpt lat="43.435795" lon="13.479475"><ele>101.6</ele><time>2026-04-18T07:26:59.075Z</time></trkpt><trkpt lat="43.4357567" lon="13.4793333"><ele>102.0</ele><time>2026-04-18T07:27:00.074Z</time></trkpt><trkpt lat="43.43571" lon="13.4791933"><ele>103.0</ele><time>2026-04-18T07:27:01.074Z</time></trkpt><trkpt lat="43.4356667" lon="13.47905"><ele>104.0</ele><time>2026-04-18T07:27:02.074Z</time></trkpt><trkpt lat="43.4356267" lon="13.4789033"><ele>104.99999999999999</ele><time>2026-04-18T07:27:03.074Z</time></trkpt><trkpt lat="43.4355817" lon="13.47876"><ele>106.0</ele><time>2026-04-18T07:27:04.074Z</time></trkpt><trkpt lat="43.4355367" lon="13.4786283"><ele>107.0</ele><time>2026-04-18T07:27:05.074Z</time></trkpt><trkpt lat="43.4355" lon="13.4784933"><ele>107.6</ele><time>2026-04-18T07:27:06.075Z</time></trkpt><trkpt lat="43.4354683" lon="13.4783617"><ele>108.19999999999999</ele><time>2026-04-18T07:27:07.074Z</time></trkpt><trkpt lat="43.435435" lon="13.4782283"><ele>108.8</ele><time>2026-04-18T07:27:08.074Z</time></trkpt><trkpt lat="43.4354117" lon="13.4780933"><ele>109.4</ele><time>2026-04-18T07:27:09.074Z</time></trkpt><trkpt lat="43.4354017" lon="13.4779617"><ele>110.0</ele><time>2026-04-18T07:27:10.075Z</time></trkpt><trkpt lat="43.435395" lon="13.477825"><ele>110.6</ele><time>2026-04-18T07:27:11.075Z</time></trkpt><trkpt lat="43.4353917" lon="13.47769"><ele>111.2</ele><time>2026-04-18T07:27:12.074Z</time></trkpt><trkpt lat="43.4353883" lon="13.4775483"><ele>111.80000000000001</ele><time>2026-04-18T07:27:13.074Z</time></trkpt><trkpt lat="43.4353917" lon="13.47741"><ele>112.4</ele><time>2026-04-18T07:27:14.074Z</time></trkpt><trkpt lat="43.4354017" lon="13.4772683"><ele>113.0</ele><time>2026-04-18T07:27:15.074Z</time></trkpt><trkpt lat="43.43541" lon="13.47712"><ele>112.25</ele><time>2026-04-18T07:27:16.074Z</time></trkpt><trkpt lat="43.4354167" lon="13.4769717"><ele>111.5</ele><time>2026-04-18T07:27:17.074Z</time></trkpt><trkpt lat="43.4354283" lon="13.47682"><ele>110.75</ele><time>2026-04-18T07:27:18.074Z</time></trkpt><trkpt lat="43.435435" lon="13.4766567"><ele>110.0</ele><time>2026-04-18T07:27:19.074Z</time></trkpt><trkpt lat="43.435455" lon="13.4764917"><ele>113.25</ele><time>2026-04-18T07:27:20.074Z</time></trkpt><trkpt lat="43.4354733" lon="13.476325"><ele>116.5</ele><time>2026-04-18T07:27:21.074Z</time></trkpt><trkpt lat="43.4354917" lon="13.4761583"><ele>119.75</ele><time>2026-04-18T07:27:22.074Z</time></trkpt><trkpt lat="43.4355067" lon="13.4759983"><ele>123.0</ele><time>2026-04-18T07:27:23.074Z</time></trkpt><trkpt lat="43.4355233" lon="13.4758417"><ele>123.5</ele><time>2026-04-18T07:27:24.074Z</time></trkpt><trkpt lat="43.4355417" lon="13.4756817"><ele>124.0</ele><time>2026-04-18T07:27:25.074Z</time></trkpt><trkpt lat="43.435565" lon="13.4755317"><ele>124.5</ele><time>2026-04-18T07:27:26.074Z</time></trkpt><trkpt lat="43.4355867" lon="13.475385"><ele>125.0</ele><time>2026-04-18T07:27:27.074Z</time></trkpt><trkpt lat="43.4356017" lon="13.4752317"><ele>125.2</ele><time>2026-04-18T07:27:28.074Z</time></trkpt><trkpt lat="43.4356117" lon="13.4750783"><ele>125.4</ele><time>2026-04-18T07:27:29.075Z</time></trkpt><trkpt lat="43.4356283" lon="13.4749367"><ele>125.6</ele><time>2026-04-18T07:27:30.074Z</time></trkpt><trkpt lat="43.43563" lon="13.4748"><ele>125.8</ele><time>2026-04-18T07:27:31.074Z</time></trkpt><trkpt lat="43.435625" lon="13.4746667"><ele>126.0</ele><time>2026-04-18T07:27:32.074Z</time></trkpt><trkpt lat="43.4356" lon="13.47452"><ele>125.25</ele><time>2026-04-18T07:27:33.074Z</time></trkpt><trkpt lat="43.435555" lon="13.4743917"><ele>124.5</ele><time>2026-04-18T07:27:34.074Z</time></trkpt><trkpt lat="43.4355033" lon="13.4742617"><ele>123.75</ele><time>2026-04-18T07:27:35.075Z</time></trkpt><trkpt lat="43.4354483" lon="13.4741167"><ele>123.0</ele><time>2026-04-18T07:27:36.074Z</time></trkpt><trkpt lat="43.4353833" lon="13.47397"><ele>123.0</ele><time>2026-04-18T07:27:37.074Z</time></trkpt><trkpt lat="43.4353167" lon="13.4738217"><ele>123.0</ele><time>2026-04-18T07:27:38.074Z</time></trkpt><trkpt lat="43.43526" lon="13.4736667"><ele>123.0</ele><time>2026-04-18T07:27:39.074Z</time></trkpt><trkpt lat="43.4351983" lon="13.4735083"><ele>123.0</ele><time>2026-04-18T07:27:40.074Z</time></trkpt><trkpt lat="43.4351333" lon="13.4733433"><ele>122.5</ele><time>2026-04-18T07:27:41.074Z</time></trkpt><trkpt lat="43.4350667" lon="13.47318"><ele>122.0</ele><time>2026-04-18T07:27:42.074Z</time></trkpt><trkpt lat="43.435" lon="13.47302"><ele>121.5</ele><time>2026-04-18T07:27:43.074Z</time></trkpt><trkpt lat="43.434935" lon="13.472855"><ele>121.0</ele><time>2026-04-18T07:27:44.074Z</time></trkpt><trkpt lat="43.43487" lon="13.4726967"><ele>120.5</ele><time>2026-04-18T07:27:45.074Z</time></trkpt><trkpt lat="43.4348067" lon="13.47254"><ele>120.0</ele><time>2026-04-18T07:27:46.075Z</time></trkpt><trkpt lat="43.4347467" lon="13.4723867"><ele>119.5</ele><time>2026-04-18T07:27:47.074Z</time></trkpt><trkpt lat="43.4346783" lon="13.4722383"><ele>119.0</ele><time>2026-04-18T07:27:48.074Z</time></trkpt><trkpt lat="43.4346183" lon="13.4720883"><ele>118.5</ele><time>2026-04-18T07:27:49.074Z</time></trkpt><trkpt lat="43.4345567" lon="13.4719367"><ele>118.0</ele><time>2026-04-18T07:27:50.074Z</time></trkpt><trkpt lat="43.4345033" lon="13.4717817"><ele>117.5</ele><time>2026-04-18T07:27:51.074Z</time></trkpt><trkpt lat="43.4344633" lon="13.47162"><ele>117.0</ele><time>2026-04-18T07:27:52.074Z</time></trkpt><trkpt lat="43.43443" lon="13.4714517"><ele>117.0</ele><time>2026-04-18T07:27:53.074Z</time></trkpt><trkpt lat="43.4343983" lon="13.471285"><ele>117.0</ele><time>2026-04-18T07:27:54.074Z</time></trkpt><trkpt lat="43.4343617" lon="13.471125"><ele>117.0</ele><time>2026-04-18T07:27:55.074Z</time></trkpt><trkpt lat="43.4343283" lon="13.4709667"><ele>117.0</ele><time>2026-04-18T07:27:56.074Z</time></trkpt><trkpt lat="43.434295" lon="13.4708"><ele>118.25</ele><time>2026-04-18T07:27:57.074Z</time></trkpt><trkpt lat="43.4342617" lon="13.4706383"><ele>119.5</ele><time>2026-04-18T07:27:58.074Z</time></trkpt><trkpt lat="43.4342167" lon="13.4704833"><ele>120.75</ele><time>2026-04-18T07:27:59.074Z</time></trkpt><trkpt lat="43.43417" lon="13.4703217"><ele>122.0</ele><time>2026-04-18T07:28:00.074Z</time></trkpt><trkpt lat="43.4341083" lon="13.470175"><ele>124.0</ele><time>2026-04-18T07:28:01.074Z</time></trkpt><trkpt lat="43.434045" lon="13.4700267"><ele>126.0</ele><time>2026-04-18T07:28:02.074Z</time></trkpt><trkpt lat="43.4339783" lon="13.469875"><ele>128.0</ele><time>2026-04-18T07:28:03.074Z</time></trkpt><trkpt lat="43.4339033" lon="13.4697333"><ele>130.0</ele><time>2026-04-18T07:28:04.074Z</time></trkpt><trkpt lat="43.4338233" lon="13.4696017"><ele>131.75</ele><time>2026-04-18T07:28:05.075Z</time></trkpt><trkpt lat="43.4337417" lon="13.469475"><ele>133.5</ele><time>2026-04-18T07:28:06.075Z</time></trkpt><trkpt lat="43.4336533" lon="13.4693483"><ele>135.25</ele><time>2026-04-18T07:28:07.074Z</time></trkpt><trkpt lat="43.4335617" lon="13.4692233"><ele>137.0</ele><time>2026-04-18T07:28:08.074Z</time></trkpt><trkpt lat="43.433475" lon="13.4691133"><ele>137.0</ele><time>2026-04-18T07:28:09.074Z</time></trkpt><trkpt lat="43.4334067" lon="13.4690183"><ele>137.0</ele><time>2026-04-18T07:28:10.074Z</time></trkpt><trkpt lat="43.43335" lon="13.4689217"><ele>137.0</ele><time>2026-04-18T07:28:11.074Z</time></trkpt><trkpt lat="43.433295" lon="13.4688417"><ele>137.0</ele><time>2026-04-18T07:28:12.075Z</time></trkpt><trkpt lat="43.4332317" lon="13.468745"><ele>137.0</ele><time>2026-04-18T07:28:13.075Z</time></trkpt><trkpt lat="43.43317" lon="13.4686383"><ele>137.5</ele><time>2026-04-18T07:28:14.074Z</time></trkpt><trkpt lat="43.4331083" lon="13.4685217"><ele>138.0</ele><time>2026-04-18T07:28:15.074Z</time></trkpt><trkpt lat="43.4330417" lon="13.4684017"><ele>138.5</ele><time>2026-04-18T07:28:16.075Z</time></trkpt><trkpt lat="43.4329733" lon="13.468275"><ele>139.0</ele><time>2026-04-18T07:28:17.074Z</time></trkpt><trkpt lat="43.4328983" lon="13.4681367"><ele>137.0</ele><time>2026-04-18T07:28:18.075Z</time></trkpt><trkpt lat="43.4328217" lon="13.467995"><ele>135.0</ele><time>2026-04-18T07:28:19.074Z</time></trkpt><trkpt lat="43.43275" lon="13.4678517"><ele>133.0</ele><time>2026-04-18T07:28:20.074Z</time></trkpt><trkpt lat="43.43267" lon="13.4677067"><ele>131.0</ele><time>2026-04-18T07:28:21.074Z</time></trkpt><trkpt lat="43.4325983" lon="13.4675717"><ele>131.0</ele><time>2026-04-18T07:28:22.074Z</time></trkpt><trkpt lat="43.4325367" lon="13.467425"><ele>131.0</ele><time>2026-04-18T07:28:23.074Z</time></trkpt><trkpt lat="43.4324683" lon="13.4672717"><ele>131.0</ele><time>2026-04-18T07:28:24.075Z</time></trkpt><trkpt lat="43.4323917" lon="13.4671283"><ele>131.0</ele><time>2026-04-18T07:28:25.074Z</time></trkpt><trkpt lat="43.4323133" lon="13.4669917"><ele>132.0</ele><time>2026-04-18T07:28:26.074Z</time></trkpt><trkpt lat="43.4322383" lon="13.4668517"><ele>133.0</ele><time>2026-04-18T07:28:27.074Z</time></trkpt><trkpt lat="43.4321567" lon="13.466725"><ele>134.0</ele><time>2026-04-18T07:28:28.074Z</time></trkpt><trkpt lat="43.43207" lon="13.46659"><ele>135.0</ele><time>2026-04-18T07:28:29.074Z</time></trkpt><trkpt lat="43.4319767" lon="13.466475"><ele>135.0</ele><time>2026-04-18T07:28:30.075Z</time></trkpt><trkpt lat="43.431885" lon="13.4663533"><ele>135.0</ele><time>2026-04-18T07:28:31.074Z</time></trkpt><trkpt lat="43.4317817" lon="13.4662367"><ele>135.0</ele><time>2026-04-18T07:28:32.074Z</time></trkpt><trkpt lat="43.43168" lon="13.46612"><ele>135.0</ele><time>2026-04-18T07:28:33.074Z</time></trkpt><trkpt lat="43.431585" lon="13.4660033"><ele>137.0</ele><time>2026-04-18T07:28:34.074Z</time></trkpt><trkpt lat="43.4314917" lon="13.46588"><ele>139.0</ele><time>2026-04-18T07:28:35.074Z</time></trkpt><trkpt lat="43.4314017" lon="13.4657417"><ele>141.0</ele><time>2026-04-18T07:28:36.074Z</time></trkpt><trkpt lat="43.4313083" lon="13.465585"><ele>143.0</ele><time>2026-04-18T07:28:37.074Z</time></trkpt><trkpt lat="43.4312067" lon="13.4654317"><ele>144.25</ele><time>2026-04-18T07:28:38.074Z</time></trkpt><trkpt lat="43.4311183" lon="13.4652817"><ele>145.5</ele><time>2026-04-18T07:28:39.074Z</time></trkpt><trkpt lat="43.4310383" lon="13.465145"><ele>146.75</ele><time>2026-04-18T07:28:40.074Z</time></trkpt><trkpt lat="43.4309517" lon="13.465015"><ele>148.0</ele><time>2026-04-18T07:28:41.074Z</time></trkpt><trkpt lat="43.430855" lon="13.464885"><ele>148.0</ele><time>2026-04-18T07:28:42.074Z</time></trkpt><trkpt lat="43.430755" lon="13.4647533"><ele>148.0</ele><time>2026-04-18T07:28:43.074Z</time></trkpt><trkpt lat="43.4306467" lon="13.4646067"><ele>148.0</ele><time>2026-04-18T07:28:44.074Z</time></trkpt><trkpt lat="43.4305367" lon="13.46446"><ele>148.0</ele><time>2026-04-18T07:28:45.075Z</time></trkpt><trkpt lat="43.43044" lon="13.4643183"><ele>148.5</ele><time>2026-04-18T07:28:46.074Z</time></trkpt><trkpt lat="43.4303383" lon="13.4641867"><ele>149.0</ele><time>2026-04-18T07:28:47.074Z</time></trkpt><trkpt lat="43.4302267" lon="13.46405"><ele>149.5</ele><time>2026-04-18T07:28:48.074Z</time></trkpt><trkpt lat="43.4301117" lon="13.4639117"><ele>150.0</ele><time>2026-04-18T07:28:49.074Z</time></trkpt><trkpt lat="43.4300017" lon="13.4637667"><ele>150.0</ele><time>2026-04-18T07:28:50.075Z</time></trkpt><trkpt lat="43.42989" lon="13.4636283"><ele>150.0</ele><time>2026-04-18T07:28:51.075Z</time></trkpt><trkpt lat="43.42978" lon="13.4634917"><ele>150.0</ele><time>2026-04-18T07:28:52.075Z</time></trkpt><trkpt lat="43.4296683" lon="13.4633533"><ele>150.0</ele><time>2026-04-18T07:28:53.074Z</time></trkpt><trkpt lat="43.4295633" lon="13.4631967"><ele>150.25</ele><time>2026-04-18T07:28:54.074Z</time></trkpt><trkpt lat="43.4294683" lon="13.4630433"><ele>150.5</ele><time>2026-04-18T07:28:55.074Z</time></trkpt><trkpt lat="43.4293817" lon="13.4628783"><ele>150.75</ele><time>2026-04-18T07:28:56.074Z</time></trkpt><trkpt lat="43.429305" lon="13.4627183"><ele>151.0</ele><time>2026-04-18T07:28:57.074Z</time></trkpt><trkpt lat="43.4292283" lon="13.4625617"><ele>151.0</ele><time>2026-04-18T07:28:58.074Z</time></trkpt><trkpt lat="43.4291517" lon="13.4623983"><ele>151.0</ele><time>2026-04-18T07:28:59.074Z</time></trkpt><trkpt lat="43.4290667" lon="13.4622417"><ele>151.0</ele><time>2026-04-18T07:29:00.074Z</time></trkpt><trkpt lat="43.4289683" lon="13.4620933"><ele>151.0</ele><time>2026-04-18T07:29:01.074Z</time></trkpt><trkpt lat="43.428875" lon="13.4619417"><ele>150.25</ele><time>2026-04-18T07:29:02.074Z</time></trkpt><trkpt lat="43.4287783" lon="13.461785"><ele>149.5</ele><time>2026-04-18T07:29:03.074Z</time></trkpt><trkpt lat="43.4286883" lon="13.46162"><ele>148.75</ele><time>2026-04-18T07:29:04.074Z</time></trkpt><trkpt lat="43.4285983" lon="13.4614683"><ele>148.0</ele><time>2026-04-18T07:29:05.074Z</time></trkpt><trkpt lat="43.4285183" lon="13.4613217"><ele>149.5</ele><time>2026-04-18T07:29:06.075Z</time></trkpt><trkpt lat="43.4284583" lon="13.46118"><ele>151.0</ele><time>2026-04-18T07:29:07.075Z</time></trkpt><trkpt lat="43.4284083" lon="13.4610417"><ele>152.5</ele><time>2026-04-18T07:29:08.074Z</time></trkpt><trkpt lat="43.42836" lon="13.4608967"><ele>154.0</ele><time>2026-04-18T07:29:09.074Z</time></trkpt><trkpt lat="43.4283217" lon="13.4607333"><ele>154.0</ele><time>2026-04-18T07:29:10.075Z</time></trkpt><trkpt lat="43.4282833" lon="13.4605633"><ele>154.0</ele><time>2026-04-18T07:29:11.074Z</time></trkpt><trkpt lat="43.4282467" lon="13.4603917"><ele>154.0</ele><time>2026-04-18T07:29:12.075Z</time></trkpt><trkpt lat="43.4282067" lon="13.4602233"><ele>154.0</ele><time>2026-04-18T07:29:13.074Z</time></trkpt><trkpt lat="43.42817" lon="13.4600617"><ele>154.5</ele><time>2026-04-18T07:29:14.074Z</time></trkpt><trkpt lat="43.4281367" lon="13.4598983"><ele>155.0</ele><time>2026-04-18T07:29:15.075Z</time></trkpt><trkpt lat="43.4281033" lon="13.4597383"><ele>155.5</ele><time>2026-04-18T07:29:16.074Z</time></trkpt><trkpt lat="43.42807" lon="13.4595833"><ele>156.0</ele><time>2026-04-18T07:29:17.074Z</time></trkpt><trkpt lat="43.4280383" lon="13.459435"><ele>156.5</ele><time>2026-04-18T07:29:18.074Z</time></trkpt><trkpt lat="43.42801" lon="13.4593"><ele>157.0</ele><time>2026-04-18T07:29:19.074Z</time></trkpt><trkpt lat="43.4279817" lon="13.45918"><ele>157.5</ele><time>2026-04-18T07:29:20.074Z</time></trkpt><trkpt lat="43.4279567" lon="13.4590683"><ele>158.0</ele><time>2026-04-18T07:29:21.074Z</time></trkpt><trkpt lat="43.427935" lon="13.458975"><ele>158.5</ele><time>2026-04-18T07:29:22.074Z</time></trkpt><trkpt lat="43.4279167" lon="13.458885"><ele>159.0</ele><time>2026-04-18T07:29:23.074Z</time></trkpt><trkpt lat="43.42788" lon="13.4587317"><ele>159.0</ele><time>2026-04-18T07:29:25.074Z</time></trkpt><trkpt lat="43.4278683" lon="13.4586"><ele>159.0</ele><time>2026-04-18T07:29:27.074Z</time></trkpt><trkpt lat="43.42786" lon="13.4585133"><ele>159.0</ele><time>2026-04-18T07:29:29.074Z</time></trkpt><trkpt lat="43.427835" lon="13.458365"><ele>159.0</ele><time>2026-04-18T07:29:32.075Z</time></trkpt><trkpt lat="43.4277867" lon="13.4582867"><ele>159.0</ele><time>2026-04-18T07:29:33.074Z</time></trkpt><trkpt lat="43.4277133" lon="13.4581883"><ele>159.0</ele><time>2026-04-18T07:29:34.075Z</time></trkpt><trkpt lat="43.427635" lon="13.45808"><ele>159.0</ele><time>2026-04-18T07:29:35.074Z</time></trkpt><trkpt lat="43.4275667" lon="13.4579633"><ele>159.0</ele><time>2026-04-18T07:29:36.074Z</time></trkpt><trkpt lat="43.4275" lon="13.4578367"><ele>159.0</ele><time>2026-04-18T07:29:37.075Z</time></trkpt><trkpt lat="43.4274333" lon="13.457705"><ele>159.0</ele><time>2026-04-18T07:29:38.074Z</time></trkpt><trkpt lat="43.427365" lon="13.45756"><ele>159.5</ele><time>2026-04-18T07:29:39.074Z</time></trkpt><trkpt lat="43.4272983" lon="13.4574083"><ele>160.0</ele><time>2026-04-18T07:29:40.074Z</time></trkpt><trkpt lat="43.4272383" lon="13.4572633"><ele>160.5</ele><time>2026-04-18T07:29:41.074Z</time></trkpt><trkpt lat="43.427185" lon="13.45711"><ele>161.0</ele><time>2026-04-18T07:29:42.074Z</time></trkpt><trkpt lat="43.427135" lon="13.4569433"><ele>161.0</ele><time>2026-04-18T07:29:43.074Z</time></trkpt><trkpt lat="43.4270833" lon="13.4567683"><ele>161.0</ele><time>2026-04-18T07:29:44.075Z</time></trkpt><trkpt lat="43.4270267" lon="13.4565917"><ele>161.0</ele><time>2026-04-18T07:29:45.074Z</time></trkpt><trkpt lat="43.42697" lon="13.4564067"><ele>161.0</ele><time>2026-04-18T07:29:46.074Z</time></trkpt><trkpt lat="43.426915" lon="13.4562133"><ele>163.0</ele><time>2026-04-18T07:29:47.074Z</time></trkpt><trkpt lat="43.42685" lon="13.456005"><ele>165.0</ele><time>2026-04-18T07:29:48.074Z</time></trkpt><trkpt lat="43.4267867" lon="13.45579"><ele>167.0</ele><time>2026-04-18T07:29:49.074Z</time></trkpt><trkpt lat="43.4267183" lon="13.4555767"><ele>166.66666666666666</ele><time>2026-04-18T07:29:50.074Z</time></trkpt><trkpt lat="43.4266383" lon="13.455375"><ele>166.33333333333334</ele><time>2026-04-18T07:29:51.075Z</time></trkpt><trkpt lat="43.426555" lon="13.455175"><ele>166.0</ele><time>2026-04-18T07:29:52.074Z</time></trkpt><trkpt lat="43.4264483" lon="13.4549817"><ele>166.0</ele><time>2026-04-18T07:29:53.075Z</time></trkpt><trkpt lat="43.4263333" lon="13.4548083"><ele>166.0</ele><time>2026-04-18T07:29:54.074Z</time></trkpt><trkpt lat="43.4262067" lon="13.454645"><ele>166.0</ele><time>2026-04-18T07:29:55.074Z</time></trkpt><trkpt lat="43.426085" lon="13.454475"><ele>166.33333333333334</ele><time>2026-04-18T07:29:56.075Z</time></trkpt><trkpt lat="43.4259583" lon="13.4543083"><ele>166.66666666666666</ele><time>2026-04-18T07:29:57.074Z</time></trkpt><trkpt lat="43.4258233" lon="13.4541367"><ele>167.0</ele><time>2026-04-18T07:29:58.074Z</time></trkpt><trkpt lat="43.4257017" lon="13.4539583"><ele>168.0</ele><time>2026-04-18T07:29:59.074Z</time></trkpt><trkpt lat="43.4255783" lon="13.4537767"><ele>169.0</ele><time>2026-04-18T07:30:00.074Z</time></trkpt><trkpt lat="43.4254517" lon="13.4536033"><ele>170.0</ele><time>2026-04-18T07:30:01.075Z</time></trkpt><trkpt lat="43.425325" lon="13.4534317"><ele>170.66666666666666</ele><time>2026-04-18T07:30:02.074Z</time></trkpt><trkpt lat="43.4252033" lon="13.4532633"><ele>171.33333333333334</ele><time>2026-04-18T07:30:03.074Z</time></trkpt><trkpt lat="43.4250883" lon="13.4530883"><ele>172.0</ele><time>2026-04-18T07:30:04.075Z</time></trkpt><trkpt lat="43.4249583" lon="13.4529217"><ele>172.0</ele><time>2026-04-18T07:30:05.074Z</time></trkpt><trkpt lat="43.424835" lon="13.4527683"><ele>172.0</ele><time>2026-04-18T07:30:06.075Z</time></trkpt><trkpt lat="43.4247167" lon="13.4526183"><ele>172.0</ele><time>2026-04-18T07:30:07.074Z</time></trkpt><trkpt lat="43.4246033" lon="13.4524767"><ele>169.0</ele><time>2026-04-18T07:30:08.074Z</time></trkpt><trkpt lat="43.4244817" lon="13.45235"><ele>166.0</ele><time>2026-04-18T07:30:09.074Z</time></trkpt><trkpt lat="43.4243533" lon="13.4522467"><ele>163.0</ele><time>2026-04-18T07:30:10.075Z</time></trkpt><trkpt lat="43.4242183" lon="13.4521883"><ele>160.0</ele><time>2026-04-18T07:30:11.075Z</time></trkpt><trkpt lat="43.4240783" lon="13.4521567"><ele>160.0</ele><time>2026-04-18T07:30:12.074Z</time></trkpt><trkpt lat="43.4239333" lon="13.4521667"><ele>160.0</ele><time>2026-04-18T07:30:13.074Z</time></trkpt><trkpt lat="43.423785" lon="13.452205"><ele>160.0</ele><time>2026-04-18T07:30:14.074Z</time></trkpt><trkpt lat="43.4236383" lon="13.4522533"><ele>160.0</ele><time>2026-04-18T07:30:15.074Z</time></trkpt><trkpt lat="43.423495" lon="13.45234"><ele>160.66666666666669</ele><time>2026-04-18T07:30:16.074Z</time></trkpt><trkpt lat="43.4233583" lon="13.4524233"><ele>161.33333333333334</ele><time>2026-04-18T07:30:17.074Z</time></trkpt><trkpt lat="43.4232133" lon="13.45248"><ele>162.0</ele><time>2026-04-18T07:30:18.074Z</time></trkpt><trkpt lat="43.4230633" lon="13.452505"><ele>162.0</ele><time>2026-04-18T07:30:19.075Z</time></trkpt><trkpt lat="43.4229133" lon="13.4524967"><ele>162.0</ele><time>2026-04-18T07:30:20.074Z</time></trkpt><trkpt lat="43.422765" lon="13.4524783"><ele>162.0</ele><time>2026-04-18T07:30:21.074Z</time></trkpt><trkpt lat="43.4226167" lon="13.4524533"><ele>162.0</ele><time>2026-04-18T07:30:22.074Z</time></trkpt><trkpt lat="43.4224617" lon="13.452425"><ele>162.0</ele><time>2026-04-18T07:30:23.074Z</time></trkpt><trkpt lat="43.42231" lon="13.4523883"><ele>162.0</ele><time>2026-04-18T07:30:24.075Z</time></trkpt><trkpt lat="43.4221617" lon="13.45235"><ele>162.0</ele><time>2026-04-18T07:30:25.074Z</time></trkpt><trkpt lat="43.4220083" lon="13.452305"><ele>160.66666666666666</ele><time>2026-04-18T07:30:26.074Z</time></trkpt><trkpt lat="43.42186" lon="13.4522567"><ele>159.33333333333331</ele><time>2026-04-18T07:30:27.074Z</time></trkpt><trkpt lat="43.4217117" lon="13.4522083"><ele>158.0</ele><time>2026-04-18T07:30:28.075Z</time></trkpt><trkpt lat="43.42157" lon="13.4521483"><ele>158.33333333333331</ele><time>2026-04-18T07:30:29.074Z</time></trkpt><trkpt lat="43.4214233" lon="13.4520883"><ele>158.66666666666666</ele><time>2026-04-18T07:30:30.074Z</time></trkpt><trkpt lat="43.4212783" lon="13.4520117"><ele>159.0</ele><time>2026-04-18T07:30:31.074Z</time></trkpt><trkpt lat="43.4211417" lon="13.4519167"><ele>159.0</ele><time>2026-04-18T07:30:32.074Z</time></trkpt><trkpt lat="43.4210033" lon="13.45182"><ele>159.0</ele><time>2026-04-18T07:30:33.074Z</time></trkpt><trkpt lat="43.4208633" lon="13.4517117"><ele>159.0</ele><time>2026-04-18T07:30:34.074Z</time></trkpt><trkpt lat="43.4207167" lon="13.4516133"><ele>159.0</ele><time>2026-04-18T07:30:35.074Z</time></trkpt><trkpt lat="43.420575" lon="13.45151"><ele>159.0</ele><time>2026-04-18T07:30:36.075Z</time></trkpt><trkpt lat="43.420425" lon="13.4514117"><ele>159.0</ele><time>2026-04-18T07:30:37.074Z</time></trkpt><trkpt lat="43.4202767" lon="13.45132"><ele>160.33333333333334</ele><time>2026-04-18T07:30:38.074Z</time></trkpt><trkpt lat="43.42012" lon="13.4512483"><ele>161.66666666666669</ele><time>2026-04-18T07:30:39.075Z</time></trkpt><trkpt lat="43.4199583" lon="13.451185"><ele>163.0</ele><time>2026-04-18T07:30:40.074Z</time></trkpt><trkpt lat="43.4198" lon="13.4511383"><ele>164.0</ele><time>2026-04-18T07:30:41.074Z</time></trkpt><trkpt lat="43.4196417" lon="13.45108"><ele>165.0</ele><time>2026-04-18T07:30:42.074Z</time></trkpt><trkpt lat="43.41948" lon="13.4510233"><ele>166.0</ele><time>2026-04-18T07:30:43.074Z</time></trkpt><trkpt lat="43.4193267" lon="13.450975"><ele>166.0</ele><time>2026-04-18T07:30:44.074Z</time></trkpt><trkpt lat="43.4191683" lon="13.4509233"><ele>166.0</ele><time>2026-04-18T07:30:45.074Z</time></trkpt><trkpt lat="43.41901" lon="13.4508667"><ele>166.0</ele><time>2026-04-18T07:30:46.074Z</time></trkpt><trkpt lat="43.4188567" lon="13.4508067"><ele>165.66666666666669</ele><time>2026-04-18T07:30:47.074Z</time></trkpt><trkpt lat="43.41871" lon="13.4507317"><ele>165.33333333333334</ele><time>2026-04-18T07:30:48.074Z</time></trkpt><trkpt lat="43.4185683" lon="13.45065"><ele>165.0</ele><time>2026-04-18T07:30:49.074Z</time></trkpt><trkpt lat="43.4184267" lon="13.450555"><ele>167.33333333333334</ele><time>2026-04-18T07:30:50.074Z</time></trkpt><trkpt lat="43.4182933" lon="13.4504483"><ele>169.66666666666669</ele><time>2026-04-18T07:30:51.074Z</time></trkpt><trkpt lat="43.4181633" lon="13.4503283"><ele>172.0</ele><time>2026-04-18T07:30:52.074Z</time></trkpt><trkpt lat="43.418035" lon="13.45021"><ele>171.0</ele><time>2026-04-18T07:30:53.074Z</time></trkpt><trkpt lat="43.4179017" lon="13.4500883"><ele>170.0</ele><time>2026-04-18T07:30:54.074Z</time></trkpt><trkpt lat="43.4177767" lon="13.4499517"><ele>169.0</ele><time>2026-04-18T07:30:55.074Z</time></trkpt><trkpt lat="43.4176433" lon="13.44983"><ele>169.0</ele><time>2026-04-18T07:30:56.074Z</time></trkpt><trkpt lat="43.4175083" lon="13.4496983"><ele>169.0</ele><time>2026-04-18T07:30:57.075Z</time></trkpt><trkpt lat="43.4173683" lon="13.4495783"><ele>169.0</ele><time>2026-04-18T07:30:58.074Z</time></trkpt><trkpt lat="43.41723" lon="13.4494633"><ele>172.0</ele><time>2026-04-18T07:30:59.074Z</time></trkpt><trkpt lat="43.41709" lon="13.4493383"><ele>175.0</ele><time>2026-04-18T07:31:00.074Z</time></trkpt><trkpt lat="43.4169533" lon="13.4492283"><ele>178.0</ele><time>2026-04-18T07:31:01.075Z</time></trkpt><trkpt lat="43.4168183" lon="13.4491467"><ele>178.0</ele><time>2026-04-18T07:31:02.074Z</time></trkpt><trkpt lat="43.4166867" lon="13.4490967"><ele>178.0</ele><time>2026-04-18T07:31:03.074Z</time></trkpt><trkpt lat="43.416545" lon="13.4490783"><ele>178.0</ele><time>2026-04-18T07:31:04.074Z</time></trkpt><trkpt lat="43.4163967" lon="13.4491067"><ele>178.0</ele><time>2026-04-18T07:31:05.074Z</time></trkpt><trkpt lat="43.4162417" lon="13.4491583"><ele>181.66666666666669</ele><time>2026-04-18T07:31:06.074Z</time></trkpt><trkpt lat="43.41609" lon="13.449235"><ele>185.33333333333334</ele><time>2026-04-18T07:31:07.075Z</time></trkpt><trkpt lat="43.41594" lon="13.44934"><ele>189.0</ele><time>2026-04-18T07:31:08.074Z</time></trkpt><trkpt lat="43.415795" lon="13.4494633"><ele>189.0</ele><time>2026-04-18T07:31:09.074Z</time></trkpt><trkpt lat="43.415665" lon="13.4495933"><ele>189.0</ele><time>2026-04-18T07:31:10.074Z</time></trkpt><trkpt lat="43.4155333" lon="13.4497233"><ele>189.0</ele><time>2026-04-18T07:31:11.074Z</time></trkpt><trkpt lat="43.41541" lon="13.4498783"><ele>190.33333333333331</ele><time>2026-04-18T07:31:12.074Z</time></trkpt><trkpt lat="43.4152883" lon="13.4500367"><ele>191.66666666666666</ele><time>2026-04-18T07:31:13.074Z</time></trkpt><trkpt lat="43.4151717" lon="13.4502017"><ele>193.0</ele><time>2026-04-18T07:31:14.074Z</time></trkpt><trkpt lat="43.4150733" lon="13.4503883"><ele>192.0</ele><time>2026-04-18T07:31:15.074Z</time></trkpt><trkpt lat="43.4149867" lon="13.4505867"><ele>191.0</ele><time>2026-04-18T07:31:16.074Z</time></trkpt><trkpt lat="43.4149017" lon="13.45079"><ele>190.0</ele><time>2026-04-18T07:31:17.075Z</time></trkpt><trkpt lat="43.414825" lon="13.4509917"><ele>190.0</ele><time>2026-04-18T07:31:18.074Z</time></trkpt><trkpt lat="43.4147667" lon="13.4511917"><ele>190.0</ele><time>2026-04-18T07:31:19.074Z</time></trkpt><trkpt lat="43.4147183" lon="13.4513717"><ele>190.0</ele><time>2026-04-18T07:31:20.074Z</time></trkpt><trkpt lat="43.414675" lon="13.451545"><ele>190.0</ele><time>2026-04-18T07:31:21.075Z</time></trkpt><trkpt lat="43.4146383" lon="13.4517067"><ele>191.6</ele><time>2026-04-18T07:31:22.074Z</time></trkpt><trkpt lat="43.41461" lon="13.451845"><ele>193.2</ele><time>2026-04-18T07:31:23.075Z</time></trkpt><trkpt lat="43.4145833" lon="13.451985"><ele>194.8</ele><time>2026-04-18T07:31:24.074Z</time></trkpt><trkpt lat="43.41456" lon="13.4521183"><ele>196.4</ele><time>2026-04-18T07:31:25.074Z</time></trkpt><trkpt lat="43.414535" lon="13.4522333"><ele>198.0</ele><time>2026-04-18T07:31:26.075Z</time></trkpt><trkpt lat="43.4145067" lon="13.4523433"><ele>198.0</ele><time>2026-04-18T07:31:27.074Z</time></trkpt><trkpt lat="43.4144667" lon="13.4524283"><ele>198.0</ele><time>2026-04-18T07:31:28.074Z</time></trkpt><trkpt lat="43.4144133" lon="13.4524817"><ele>198.0</ele><time>2026-04-18T07:31:29.074Z</time></trkpt><trkpt lat="43.41435" lon="13.4524967"><ele>198.0</ele><time>2026-04-18T07:31:30.074Z</time></trkpt><trkpt lat="43.4142867" lon="13.4524633"><ele>198.0</ele><time>2026-04-18T07:31:31.074Z</time></trkpt><trkpt lat="43.414245" lon="13.4523833"><ele>198.0</ele><time>2026-04-18T07:31:32.074Z</time></trkpt><trkpt lat="43.4142217" lon="13.45228"><ele>198.0</ele><time>2026-04-18T07:31:33.074Z</time></trkpt><trkpt lat="43.4142183" lon="13.4521733"><ele>199.2</ele><time>2026-04-18T07:31:34.074Z</time></trkpt><trkpt lat="43.4142183" lon="13.4520333"><ele>200.4</ele><time>2026-04-18T07:31:35.074Z</time></trkpt><trkpt lat="43.4142183" lon="13.4518917"><ele>201.6</ele><time>2026-04-18T07:31:36.075Z</time></trkpt><trkpt lat="43.4142117" lon="13.4517517"><ele>202.79999999999998</ele><time>2026-04-18T07:31:37.074Z</time></trkpt><trkpt lat="43.414205" lon="13.451595"><ele>204.0</ele><time>2026-04-18T07:31:38.074Z</time></trkpt><trkpt lat="43.4141967" lon="13.4514267"><ele>204.5</ele><time>2026-04-18T07:31:39.074Z</time></trkpt><trkpt lat="43.4141833" lon="13.45125"><ele>205.0</ele><time>2026-04-18T07:31:40.074Z</time></trkpt><trkpt lat="43.4141733" lon="13.4510683"><ele>205.5</ele><time>2026-04-18T07:31:41.074Z</time></trkpt><trkpt lat="43.414165" lon="13.4508867"><ele>206.0</ele><time>2026-04-18T07:31:42.074Z</time></trkpt><trkpt lat="43.4141517" lon="13.450715"><ele>206.0</ele><time>2026-04-18T07:31:43.074Z</time></trkpt><trkpt lat="43.4141417" lon="13.450535"><ele>206.0</ele><time>2026-04-18T07:31:44.074Z</time></trkpt><trkpt lat="43.4141367" lon="13.450365"><ele>206.0</ele><time>2026-04-18T07:31:45.075Z</time></trkpt><trkpt lat="43.41413" lon="13.4501833"><ele>206.0</ele><time>2026-04-18T07:31:46.074Z</time></trkpt><trkpt lat="43.41412" lon="13.4499933"><ele>206.25</ele><time>2026-04-18T07:31:47.074Z</time></trkpt><trkpt lat="43.4141083" lon="13.4497867"><ele>206.5</ele><time>2026-04-18T07:31:48.074Z</time></trkpt><trkpt lat="43.4140983" lon="13.44959"><ele>206.75</ele><time>2026-04-18T07:31:49.074Z</time></trkpt><trkpt lat="43.4140933" lon="13.4493817"><ele>207.0</ele><time>2026-04-18T07:31:50.074Z</time></trkpt><trkpt lat="43.4140783" lon="13.4491767"><ele>208.0</ele><time>2026-04-18T07:31:51.073Z</time></trkpt><trkpt lat="43.4140733" lon="13.4489733"><ele>209.0</ele><time>2026-04-18T07:31:52.073Z</time></trkpt><trkpt lat="43.4140617" lon="13.4487617"><ele>210.0</ele><time>2026-04-18T07:31:53.073Z</time></trkpt><trkpt lat="43.4140533" lon="13.44855"><ele>211.33333333333331</ele><time>2026-04-18T07:31:54.073Z</time></trkpt><trkpt lat="43.414035" lon="13.4483333"><ele>212.66666666666666</ele><time>2026-04-18T07:31:55.073Z</time></trkpt><trkpt lat="43.4140217" lon="13.4481233"><ele>214.0</ele><time>2026-04-18T07:31:56.073Z</time></trkpt><trkpt lat="43.4140133" lon="13.447925"><ele>215.0</ele><time>2026-04-18T07:31:57.073Z</time></trkpt><trkpt lat="43.4140067" lon="13.4477367"><ele>216.0</ele><time>2026-04-18T07:31:58.073Z</time></trkpt><trkpt lat="43.414" lon="13.4475583"><ele>217.0</ele><time>2026-04-18T07:31:59.074Z</time></trkpt><trkpt lat="43.4139983" lon="13.4473717"><ele>218.0</ele><time>2026-04-18T07:32:00.073Z</time></trkpt><trkpt lat="43.413985" lon="13.4471983"><ele>218.5</ele><time>2026-04-18T07:32:01.073Z</time></trkpt><trkpt lat="43.4139733" lon="13.447025"><ele>219.0</ele><time>2026-04-18T07:32:02.074Z</time></trkpt><trkpt lat="43.4139533" lon="13.44686"><ele>219.5</ele><time>2026-04-18T07:32:03.073Z</time></trkpt><trkpt lat="43.4139517" lon="13.4466883"><ele>220.0</ele><time>2026-04-18T07:32:04.073Z</time></trkpt><trkpt lat="43.4139417" lon="13.4465283"><ele>220.0</ele><time>2026-04-18T07:32:05.073Z</time></trkpt><trkpt lat="43.4139283" lon="13.4463683"><ele>220.0</ele><time>2026-04-18T07:32:06.073Z</time></trkpt><trkpt lat="43.4139117" lon="13.4462133"><ele>220.0</ele><time>2026-04-18T07:32:07.073Z</time></trkpt><trkpt lat="43.4139033" lon="13.446055"><ele>220.0</ele><time>2026-04-18T07:32:08.073Z</time></trkpt><trkpt lat="43.413895" lon="13.445895"><ele>220.6</ele><time>2026-04-18T07:32:09.073Z</time></trkpt><trkpt lat="43.4138917" lon="13.4457433"><ele>221.2</ele><time>2026-04-18T07:32:10.073Z</time></trkpt><trkpt lat="43.413885" lon="13.4455817"><ele>221.8</ele><time>2026-04-18T07:32:11.074Z</time></trkpt><trkpt lat="43.4138767" lon="13.445435"><ele>222.4</ele><time>2026-04-18T07:32:12.073Z</time></trkpt><trkpt lat="43.4138667" lon="13.445295"><ele>223.0</ele><time>2026-04-18T07:32:13.073Z</time></trkpt><trkpt lat="43.4138567" lon="13.4451583"><ele>223.2</ele><time>2026-04-18T07:32:14.073Z</time></trkpt><trkpt lat="43.4138483" lon="13.4450217"><ele>223.4</ele><time>2026-04-18T07:32:15.073Z</time></trkpt><trkpt lat="43.4138467" lon="13.4448883"><ele>223.59999999999997</ele><time>2026-04-18T07:32:16.073Z</time></trkpt><trkpt lat="43.4138383" lon="13.4447483"><ele>223.79999999999998</ele><time>2026-04-18T07:32:17.074Z</time></trkpt><trkpt lat="43.4138317" lon="13.444615"><ele>224.0</ele><time>2026-04-18T07:32:18.073Z</time></trkpt><trkpt lat="43.413825" lon="13.4444867"><ele>223.6</ele><time>2026-04-18T07:32:19.073Z</time></trkpt><trkpt lat="43.4138183" lon="13.4443517"><ele>223.2</ele><time>2026-04-18T07:32:20.073Z</time></trkpt><trkpt lat="43.4138083" lon="13.4442183"><ele>222.79999999999998</ele><time>2026-04-18T07:32:21.073Z</time></trkpt><trkpt lat="43.4137933" lon="13.4440983"><ele>222.39999999999998</ele><time>2026-04-18T07:32:22.073Z</time></trkpt><trkpt lat="43.4137817" lon="13.4439733"><ele>222.0</ele><time>2026-04-18T07:32:23.073Z</time></trkpt><trkpt lat="43.4137533" lon="13.44385"><ele>221.8</ele><time>2026-04-18T07:32:24.073Z</time></trkpt><trkpt lat="43.4137233" lon="13.4437183"><ele>221.6</ele><time>2026-04-18T07:32:25.073Z</time></trkpt><trkpt lat="43.41369" lon="13.44358"><ele>221.40000000000003</ele><time>2026-04-18T07:32:26.073Z</time></trkpt><trkpt lat="43.413655" lon="13.443455"><ele>221.20000000000002</ele><time>2026-04-18T07:32:27.073Z</time></trkpt><trkpt lat="43.4136117" lon="13.4433367"><ele>221.0</ele><time>2026-04-18T07:32:28.073Z</time></trkpt><trkpt lat="43.41357" lon="13.4432117"><ele>221.0</ele><time>2026-04-18T07:32:29.074Z</time></trkpt><trkpt lat="43.4135117" lon="13.4430933"><ele>221.00000000000003</ele><time>2026-04-18T07:32:30.073Z</time></trkpt><trkpt lat="43.41345" lon="13.442975"><ele>221.00000000000003</ele><time>2026-04-18T07:32:31.073Z</time></trkpt><trkpt lat="43.4133967" lon="13.44285"><ele>221.0</ele><time>2026-04-18T07:32:32.073Z</time></trkpt><trkpt lat="43.4133417" lon="13.4427317"><ele>221.0</ele><time>2026-04-18T07:32:33.073Z</time></trkpt><trkpt lat="43.413285" lon="13.4426233"><ele>221.20000000000002</ele><time>2026-04-18T07:32:34.073Z</time></trkpt><trkpt lat="43.4132283" lon="13.4424967"><ele>221.40000000000003</ele><time>2026-04-18T07:32:35.073Z</time></trkpt><trkpt lat="43.4131817" lon="13.442365"><ele>221.6</ele><time>2026-04-18T07:32:36.073Z</time></trkpt><trkpt lat="43.4131267" lon="13.4422333"><ele>221.8</ele><time>2026-04-18T07:32:37.073Z</time></trkpt><trkpt lat="43.413065" lon="13.4420883"><ele>222.0</ele><time>2026-04-18T07:32:38.073Z</time></trkpt><trkpt lat="43.412995" lon="13.4419417"><ele>222.5</ele><time>2026-04-18T07:32:39.073Z</time></trkpt><trkpt lat="43.4129233" lon="13.4417967"><ele>223.0</ele><time>2026-04-18T07:32:40.074Z</time></trkpt><trkpt lat="43.4128533" lon="13.44165"><ele>223.5</ele><time>2026-04-18T07:32:41.074Z</time></trkpt><trkpt lat="43.4127883" lon="13.4415033"><ele>224.0</ele><time>2026-04-18T07:32:42.073Z</time></trkpt><trkpt lat="43.41274" lon="13.44136"><ele>226.0</ele><time>2026-04-18T07:32:43.073Z</time></trkpt><trkpt lat="43.4126717" lon="13.4412333"><ele>228.0</ele><time>2026-04-18T07:32:44.073Z</time></trkpt><trkpt lat="43.4125717" lon="13.4411317"><ele>230.0</ele><time>2026-04-18T07:32:45.073Z</time></trkpt><trkpt lat="43.412475" lon="13.44104"><ele>232.0</ele><time>2026-04-18T07:32:46.073Z</time></trkpt><trkpt lat="43.41238" lon="13.44098"><ele>232.0</ele><time>2026-04-18T07:32:47.073Z</time></trkpt><trkpt lat="43.4122817" lon="13.4409033"><ele>232.0</ele><time>2026-04-18T07:32:48.073Z</time></trkpt><trkpt lat="43.4121733" lon="13.4408517"><ele>232.0</ele><time>2026-04-18T07:32:49.073Z</time></trkpt><trkpt lat="43.4120667" lon="13.440815"><ele>232.0</ele><time>2026-04-18T07:32:50.073Z</time></trkpt><trkpt lat="43.4119667" lon="13.4407833"><ele>232.0</ele><time>2026-04-18T07:32:51.074Z</time></trkpt><trkpt lat="43.4118667" lon="13.44075"><ele>231.39999999999998</ele><time>2026-04-18T07:32:52.073Z</time></trkpt><trkpt lat="43.4117733" lon="13.4406933"><ele>230.79999999999998</ele><time>2026-04-18T07:32:53.073Z</time></trkpt><trkpt lat="43.4116833" lon="13.4406367"><ele>230.2</ele><time>2026-04-18T07:32:54.073Z</time></trkpt><trkpt lat="43.4115967" lon="13.4405667"><ele>229.6</ele><time>2026-04-18T07:32:55.073Z</time></trkpt><trkpt lat="43.41152" lon="13.44047"><ele>229.0</ele><time>2026-04-18T07:32:56.074Z</time></trkpt><trkpt lat="43.4114533" lon="13.4403633"><ele>228.6</ele><time>2026-04-18T07:32:57.073Z</time></trkpt><trkpt lat="43.4114" lon="13.4402433"><ele>228.2</ele><time>2026-04-18T07:32:58.074Z</time></trkpt><trkpt lat="43.4113717" lon="13.440095"><ele>227.79999999999998</ele><time>2026-04-18T07:32:59.073Z</time></trkpt><trkpt lat="43.4113417" lon="13.43994"><ele>227.39999999999998</ele><time>2026-04-18T07:33:00.073Z</time></trkpt><trkpt lat="43.41132" lon="13.4397817"><ele>227.0</ele><time>2026-04-18T07:33:01.073Z</time></trkpt><trkpt lat="43.4113117" lon="13.4396267"><ele>226.75</ele><time>2026-04-18T07:33:02.073Z</time></trkpt><trkpt lat="43.4112917" lon="13.43946"><ele>226.5</ele><time>2026-04-18T07:33:03.073Z</time></trkpt><trkpt lat="43.4112783" lon="13.43931"><ele>226.25</ele><time>2026-04-18T07:33:04.073Z</time></trkpt><trkpt lat="43.41127" lon="13.4391533"><ele>226.0</ele><time>2026-04-18T07:33:05.073Z</time></trkpt><trkpt lat="43.411265" lon="13.4389983"><ele>226.0</ele><time>2026-04-18T07:33:06.073Z</time></trkpt><trkpt lat="43.4112517" lon="13.4388483"><ele>226.0</ele><time>2026-04-18T07:33:07.073Z</time></trkpt><trkpt lat="43.41123" lon="13.4386917"><ele>226.0</ele><time>2026-04-18T07:33:08.074Z</time></trkpt><trkpt lat="43.4112117" lon="13.43853"><ele>226.0</ele><time>2026-04-18T07:33:09.073Z</time></trkpt><trkpt lat="43.4111967" lon="13.4383767"><ele>226.4</ele><time>2026-04-18T07:33:10.073Z</time></trkpt><trkpt lat="43.4111817" lon="13.43823"><ele>226.8</ele><time>2026-04-18T07:33:11.073Z</time></trkpt><trkpt lat="43.4111633" lon="13.4380867"><ele>227.20000000000002</ele><time>2026-04-18T07:33:12.073Z</time></trkpt><trkpt lat="43.41114" lon="13.4379383"><ele>227.60000000000002</ele><time>2026-04-18T07:33:13.074Z</time></trkpt><trkpt lat="43.41112" lon="13.4377833"><ele>228.0</ele><time>2026-04-18T07:33:14.073Z</time></trkpt><trkpt lat="43.411095" lon="13.4376267"><ele>228.0</ele><time>2026-04-18T07:33:15.073Z</time></trkpt><trkpt lat="43.4110567" lon="13.43748"><ele>228.0</ele><time>2026-04-18T07:33:16.073Z</time></trkpt><trkpt lat="43.4110083" lon="13.4373317"><ele>228.0</ele><time>2026-04-18T07:33:17.074Z</time></trkpt><trkpt lat="43.4109567" lon="13.4371783"><ele>228.0</ele><time>2026-04-18T07:33:18.073Z</time></trkpt><trkpt lat="43.410915" lon="13.4370333"><ele>229.0</ele><time>2026-04-18T07:33:19.073Z</time></trkpt><trkpt lat="43.4108617" lon="13.4368917"><ele>230.0</ele><time>2026-04-18T07:33:20.073Z</time></trkpt><trkpt lat="43.4108117" lon="13.4367467"><ele>231.0</ele><time>2026-04-18T07:33:21.073Z</time></trkpt><trkpt lat="43.41076" lon="13.4365933"><ele>232.0</ele><time>2026-04-18T07:33:22.073Z</time></trkpt><trkpt lat="43.4107033" lon="13.4364433"><ele>232.5</ele><time>2026-04-18T07:33:23.074Z</time></trkpt><trkpt lat="43.4106417" lon="13.4362983"><ele>233.0</ele><time>2026-04-18T07:33:24.073Z</time></trkpt><trkpt lat="43.4105783" lon="13.4361567"><ele>233.5</ele><time>2026-04-18T07:33:25.073Z</time></trkpt><trkpt lat="43.4105217" lon="13.4360217"><ele>234.0</ele><time>2026-04-18T07:33:26.073Z</time></trkpt><trkpt lat="43.410455" lon="13.4358833"><ele>232.0</ele><time>2026-04-18T07:33:27.074Z</time></trkpt><trkpt lat="43.41039" lon="13.4357383"><ele>230.0</ele><time>2026-04-18T07:33:28.073Z</time></trkpt><trkpt lat="43.4103267" lon="13.435595"><ele>228.0</ele><time>2026-04-18T07:33:29.073Z</time></trkpt><trkpt lat="43.410255" lon="13.435455"><ele>226.0</ele><time>2026-04-18T07:33:30.074Z</time></trkpt><trkpt lat="43.41019" lon="13.4353183"><ele>226.0</ele><time>2026-04-18T07:33:31.074Z</time></trkpt><trkpt lat="43.4101233" lon="13.435175"><ele>226.0</ele><time>2026-04-18T07:33:32.074Z</time></trkpt><trkpt lat="43.4100617" lon="13.43503"><ele>226.0</ele><time>2026-04-18T07:33:33.073Z</time></trkpt><trkpt lat="43.4099933" lon="13.4348883"><ele>226.0</ele><time>2026-04-18T07:33:34.073Z</time></trkpt><trkpt lat="43.4099233" lon="13.4347517"><ele>226.0</ele><time>2026-04-18T07:33:35.073Z</time></trkpt><trkpt lat="43.409855" lon="13.43461"><ele>226.0</ele><time>2026-04-18T07:33:36.073Z</time></trkpt><trkpt lat="43.4097817" lon="13.43447"><ele>226.0</ele><time>2026-04-18T07:33:37.073Z</time></trkpt><trkpt lat="43.4097217" lon="13.4343183"><ele>226.0</ele><time>2026-04-18T07:33:38.073Z</time></trkpt><trkpt lat="43.4096767" lon="13.4341533"><ele>224.0</ele><time>2026-04-18T07:33:39.074Z</time></trkpt><trkpt lat="43.4096433" lon="13.4339867"><ele>222.0</ele><time>2026-04-18T07:33:40.073Z</time></trkpt><trkpt lat="43.4096117" lon="13.4338117"><ele>220.0</ele><time>2026-04-18T07:33:41.073Z</time></trkpt><trkpt lat="43.40958" lon="13.4336433"><ele>218.0</ele><time>2026-04-18T07:33:42.073Z</time></trkpt><trkpt lat="43.409545" lon="13.4334683"><ele>218.0</ele><time>2026-04-18T07:33:43.074Z</time></trkpt><trkpt lat="43.4095117" lon="13.4332833"><ele>218.0</ele><time>2026-04-18T07:33:44.073Z</time></trkpt><trkpt lat="43.4094867" lon="13.4331017"><ele>218.0</ele><time>2026-04-18T07:33:45.073Z</time></trkpt><trkpt lat="43.409455" lon="13.43292"><ele>218.0</ele><time>2026-04-18T07:33:46.073Z</time></trkpt><trkpt lat="43.409425" lon="13.43274"><ele>217.5</ele><time>2026-04-18T07:33:47.073Z</time></trkpt><trkpt lat="43.40939" lon="13.4325633"><ele>217.0</ele><time>2026-04-18T07:33:48.074Z</time></trkpt><trkpt lat="43.4093617" lon="13.4323717"><ele>216.5</ele><time>2026-04-18T07:33:49.074Z</time></trkpt><trkpt lat="43.4093317" lon="13.4321917"><ele>216.0</ele><time>2026-04-18T07:33:50.073Z</time></trkpt><trkpt lat="43.4093033" lon="13.4320133"><ele>215.75</ele><time>2026-04-18T07:33:51.073Z</time></trkpt><trkpt lat="43.4092683" lon="13.43183"><ele>215.5</ele><time>2026-04-18T07:33:52.073Z</time></trkpt><trkpt lat="43.4092133" lon="13.431645"><ele>215.25</ele><time>2026-04-18T07:33:53.073Z</time></trkpt><trkpt lat="43.4091483" lon="13.4314633"><ele>215.0</ele><time>2026-04-18T07:33:54.073Z</time></trkpt><trkpt lat="43.409075" lon="13.4312867"><ele>214.75</ele><time>2026-04-18T07:33:55.073Z</time></trkpt><trkpt lat="43.4090133" lon="13.4311217"><ele>214.5</ele><time>2026-04-18T07:33:56.073Z</time></trkpt><trkpt lat="43.4089533" lon="13.4309483"><ele>214.25</ele><time>2026-04-18T07:33:57.073Z</time></trkpt><trkpt lat="43.40889" lon="13.43077"><ele>214.0</ele><time>2026-04-18T07:33:58.073Z</time></trkpt><trkpt lat="43.4088167" lon="13.4305867"><ele>214.0</ele><time>2026-04-18T07:33:59.073Z</time></trkpt><trkpt lat="43.4087417" lon="13.4303933"><ele>214.0</ele><time>2026-04-18T07:34:00.073Z</time></trkpt><trkpt lat="43.4086717" lon="13.4302017"><ele>214.0</ele><time>2026-04-18T07:34:01.074Z</time></trkpt><trkpt lat="43.4086033" lon="13.4300333"><ele>214.0</ele><time>2026-04-18T07:34:02.073Z</time></trkpt><trkpt lat="43.4085383" lon="13.4298783"><ele>214.0</ele><time>2026-04-18T07:34:03.073Z</time></trkpt><trkpt lat="43.4084883" lon="13.4297317"><ele>214.0</ele><time>2026-04-18T07:34:04.073Z</time></trkpt><trkpt lat="43.408465" lon="13.4295667"><ele>214.0</ele><time>2026-04-18T07:34:05.073Z</time></trkpt><trkpt lat="43.4084683" lon="13.4293917"><ele>216.66666666666666</ele><time>2026-04-18T07:34:06.073Z</time></trkpt><trkpt lat="43.4085" lon="13.42919"><ele>219.33333333333331</ele><time>2026-04-18T07:34:07.073Z</time></trkpt><trkpt lat="43.4085433" lon="13.4289633"><ele>222.0</ele><time>2026-04-18T07:34:08.074Z</time></trkpt><trkpt lat="43.4085783" lon="13.4287383"><ele>222.66666666666669</ele><time>2026-04-18T07:34:09.073Z</time></trkpt><trkpt lat="43.4085983" lon="13.42851"><ele>223.33333333333334</ele><time>2026-04-18T07:34:10.073Z</time></trkpt><trkpt lat="43.4085983" lon="13.4282817"><ele>224.0</ele><time>2026-04-18T07:34:11.074Z</time></trkpt><trkpt lat="43.4085783" lon="13.4280617"><ele>223.66666666666669</ele><time>2026-04-18T07:34:12.073Z</time></trkpt><trkpt lat="43.4085533" lon="13.42784"><ele>223.33333333333331</ele><time>2026-04-18T07:34:13.074Z</time></trkpt><trkpt lat="43.40851" lon="13.4276267"><ele>223.0</ele><time>2026-04-18T07:34:14.074Z</time></trkpt><trkpt lat="43.408455" lon="13.4274183"><ele>223.0</ele><time>2026-04-18T07:34:15.073Z</time></trkpt><trkpt lat="43.40839" lon="13.427215"><ele>223.0</ele><time>2026-04-18T07:34:16.073Z</time></trkpt><trkpt lat="43.4083183" lon="13.4270217"><ele>223.0</ele><time>2026-04-18T07:34:17.073Z</time></trkpt><trkpt lat="43.40825" lon="13.4268317"><ele>221.33333333333331</ele><time>2026-04-18T07:34:18.073Z</time></trkpt><trkpt lat="43.4081667" lon="13.42664"><ele>219.66666666666669</ele><time>2026-04-18T07:34:19.073Z</time></trkpt><trkpt lat="43.4080817" lon="13.4264633"><ele>218.0</ele><time>2026-04-18T07:34:20.073Z</time></trkpt><trkpt lat="43.4080083" lon="13.4262733"><ele>218.0</ele><time>2026-04-18T07:34:21.073Z</time></trkpt><trkpt lat="43.4079233" lon="13.42609"><ele>218.0</ele><time>2026-04-18T07:34:22.073Z</time></trkpt><trkpt lat="43.40786" lon="13.4258867"><ele>218.0</ele><time>2026-04-18T07:34:23.073Z</time></trkpt><trkpt lat="43.4078267" lon="13.4256783"><ele>217.66666666666669</ele><time>2026-04-18T07:34:24.073Z</time></trkpt><trkpt lat="43.4078117" lon="13.4254667"><ele>217.33333333333331</ele><time>2026-04-18T07:34:25.073Z</time></trkpt><trkpt lat="43.4078133" lon="13.4252467"><ele>217.0</ele><time>2026-04-18T07:34:26.074Z</time></trkpt><trkpt lat="43.4078233" lon="13.4250283"><ele>217.0</ele><time>2026-04-18T07:34:27.073Z</time></trkpt><trkpt lat="43.4078433" lon="13.4248167"><ele>217.0</ele><time>2026-04-18T07:34:28.074Z</time></trkpt><trkpt lat="43.4078517" lon="13.4246033"><ele>217.0</ele><time>2026-04-18T07:34:29.073Z</time></trkpt><trkpt lat="43.40787" lon="13.4243883"><ele>217.33333333333331</ele><time>2026-04-18T07:34:30.073Z</time></trkpt><trkpt lat="43.40788" lon="13.4241733"><ele>217.66666666666669</ele><time>2026-04-18T07:34:31.074Z</time></trkpt><trkpt lat="43.4078883" lon="13.4239567"><ele>218.0</ele><time>2026-04-18T07:34:32.074Z</time></trkpt><trkpt lat="43.4078917" lon="13.4237317"><ele>218.33333333333334</ele><time>2026-04-18T07:34:33.073Z</time></trkpt><trkpt lat="43.4078883" lon="13.4235167"><ele>218.66666666666669</ele><time>2026-04-18T07:34:34.073Z</time></trkpt><trkpt lat="43.4078783" lon="13.423295"><ele>219.0</ele><time>2026-04-18T07:34:35.073Z</time></trkpt><trkpt lat="43.4078567" lon="13.4230783"><ele>219.66666666666669</ele><time>2026-04-18T07:34:36.073Z</time></trkpt><trkpt lat="43.4078267" lon="13.4228717"><ele>220.33333333333334</ele><time>2026-04-18T07:34:37.073Z</time></trkpt><trkpt lat="43.407785" lon="13.4226633"><ele>221.0</ele><time>2026-04-18T07:34:38.073Z</time></trkpt><trkpt lat="43.407725" lon="13.4224733"><ele>221.0</ele><time>2026-04-18T07:34:39.073Z</time></trkpt><trkpt lat="43.40765" lon="13.4222933"><ele>221.0</ele><time>2026-04-18T07:34:40.073Z</time></trkpt><trkpt lat="43.40756" lon="13.4221217"><ele>221.0</ele><time>2026-04-18T07:34:41.073Z</time></trkpt><trkpt lat="43.4074667" lon="13.421955"><ele>220.66666666666669</ele><time>2026-04-18T07:34:42.074Z</time></trkpt><trkpt lat="43.407365" lon="13.4217867"><ele>220.33333333333331</ele><time>2026-04-18T07:34:43.073Z</time></trkpt><trkpt lat="43.4072633" lon="13.4216217"><ele>220.0</ele><time>2026-04-18T07:34:44.073Z</time></trkpt><trkpt lat="43.4071617" lon="13.421455"><ele>219.66666666666666</ele><time>2026-04-18T07:34:45.073Z</time></trkpt><trkpt lat="43.4070583" lon="13.4212817"><ele>219.33333333333331</ele><time>2026-04-18T07:34:46.074Z</time></trkpt><trkpt lat="43.4069667" lon="13.421095"><ele>219.0</ele><time>2026-04-18T07:34:47.074Z</time></trkpt><trkpt lat="43.4068783" lon="13.4209"><ele>219.0</ele><time>2026-04-18T07:34:48.074Z</time></trkpt><trkpt lat="43.4067983" lon="13.4206967"><ele>219.0</ele><time>2026-04-18T07:34:49.073Z</time></trkpt><trkpt lat="43.4067333" lon="13.42049"><ele>219.0</ele><time>2026-04-18T07:34:50.073Z</time></trkpt><trkpt lat="43.406675" lon="13.42028"><ele>219.33333333333331</ele><time>2026-04-18T07:34:51.073Z</time></trkpt><trkpt lat="43.4066233" lon="13.4200567"><ele>219.66666666666666</ele><time>2026-04-18T07:34:52.073Z</time></trkpt><trkpt lat="43.4065717" lon="13.4198433"><ele>220.0</ele><time>2026-04-18T07:34:53.073Z</time></trkpt><trkpt lat="43.4065217" lon="13.419635"><ele>219.66666666666666</ele><time>2026-04-18T07:34:54.073Z</time></trkpt><trkpt lat="43.4064583" lon="13.4194267"><ele>219.33333333333331</ele><time>2026-04-18T07:34:55.073Z</time></trkpt><trkpt lat="43.4063883" lon="13.41923"><ele>219.0</ele><time>2026-04-18T07:34:56.073Z</time></trkpt><trkpt lat="43.40632" lon="13.41903"><ele>219.0</ele><time>2026-04-18T07:34:57.073Z</time></trkpt><trkpt lat="43.4062533" lon="13.4188267"><ele>219.0</ele><time>2026-04-18T07:34:58.073Z</time></trkpt><trkpt lat="43.4061867" lon="13.4186283"><ele>219.0</ele><time>2026-04-18T07:34:59.073Z</time></trkpt><trkpt lat="43.4061133" lon="13.4184383"><ele>220.66666666666669</ele><time>2026-04-18T07:35:00.074Z</time></trkpt><trkpt lat="43.4060383" lon="13.4182483"><ele>222.33333333333334</ele><time>2026-04-18T07:35:01.073Z</time></trkpt><trkpt lat="43.40597" lon="13.41805"><ele>224.0</ele><time>2026-04-18T07:35:02.073Z</time></trkpt><trkpt lat="43.4059017" lon="13.417855"><ele>224.66666666666669</ele><time>2026-04-18T07:35:03.074Z</time></trkpt><trkpt lat="43.4058283" lon="13.4176617"><ele>225.33333333333331</ele><time>2026-04-18T07:35:04.073Z</time></trkpt><trkpt lat="43.4057683" lon="13.4174617"><ele>226.0</ele><time>2026-04-18T07:35:05.074Z</time></trkpt><trkpt lat="43.4057133" lon="13.41726"><ele>225.66666666666666</ele><time>2026-04-18T07:35:06.073Z</time></trkpt><trkpt lat="43.4056633" lon="13.4170533"><ele>225.33333333333331</ele><time>2026-04-18T07:35:07.073Z</time></trkpt><trkpt lat="43.40562" lon="13.416845"><ele>225.0</ele><time>2026-04-18T07:35:08.073Z</time></trkpt><trkpt lat="43.4055867" lon="13.41665"><ele>225.0</ele><time>2026-04-18T07:35:09.073Z</time></trkpt><trkpt lat="43.40556" lon="13.416475"><ele>225.0</ele><time>2026-04-18T07:35:10.073Z</time></trkpt><trkpt lat="43.4055583" lon="13.4163117"><ele>225.0</ele><time>2026-04-18T07:35:11.073Z</time></trkpt><trkpt lat="43.405575" lon="13.4161583"><ele>225.0</ele><time>2026-04-18T07:35:12.074Z</time></trkpt><trkpt lat="43.405615" lon="13.4160183"><ele>225.5</ele><time>2026-04-18T07:35:13.073Z</time></trkpt><trkpt lat="43.4056633" lon="13.415875"><ele>226.0</ele><time>2026-04-18T07:35:14.073Z</time></trkpt><trkpt lat="43.4057183" lon="13.4157183"><ele>226.5</ele><time>2026-04-18T07:35:15.073Z</time></trkpt><trkpt lat="43.40578" lon="13.4155217"><ele>227.0</ele><time>2026-04-18T07:35:16.073Z</time></trkpt><trkpt lat="43.4058317" lon="13.4153017"><ele>228.33333333333334</ele><time>2026-04-18T07:35:17.073Z</time></trkpt><trkpt lat="43.4058733" lon="13.4150667"><ele>229.66666666666669</ele><time>2026-04-18T07:35:18.073Z</time></trkpt><trkpt lat="43.4059067" lon="13.4148217"><ele>231.0</ele><time>2026-04-18T07:35:19.073Z</time></trkpt><trkpt lat="43.4059233" lon="13.4145917"><ele>231.66666666666669</ele><time>2026-04-18T07:35:20.073Z</time></trkpt><trkpt lat="43.405935" lon="13.4143633"><ele>232.33333333333334</ele><time>2026-04-18T07:35:21.073Z</time></trkpt><trkpt lat="43.40595" lon="13.4141367"><ele>233.0</ele><time>2026-04-18T07:35:22.074Z</time></trkpt><trkpt lat="43.40596" lon="13.4139"><ele>232.66666666666669</ele><time>2026-04-18T07:35:23.073Z</time></trkpt><trkpt lat="43.405965" lon="13.41367"><ele>232.33333333333331</ele><time>2026-04-18T07:35:24.073Z</time></trkpt><trkpt lat="43.4059683" lon="13.413455"><ele>232.0</ele><time>2026-04-18T07:35:25.074Z</time></trkpt><trkpt lat="43.4059633" lon="13.413245"><ele>232.0</ele><time>2026-04-18T07:35:26.073Z</time></trkpt><trkpt lat="43.4059383" lon="13.4130333"><ele>232.0</ele><time>2026-04-18T07:35:27.074Z</time></trkpt><trkpt lat="43.4059133" lon="13.4128217"><ele>232.0</ele><time>2026-04-18T07:35:28.073Z</time></trkpt><trkpt lat="43.4058983" lon="13.4126033"><ele>231.0</ele><time>2026-04-18T07:35:29.073Z</time></trkpt><trkpt lat="43.4058833" lon="13.41239"><ele>230.0</ele><time>2026-04-18T07:35:30.073Z</time></trkpt><trkpt lat="43.4058583" lon="13.412175"><ele>229.0</ele><time>2026-04-18T07:35:31.073Z</time></trkpt><trkpt lat="43.4058317" lon="13.41196"><ele>227.0</ele><time>2026-04-18T07:35:32.074Z</time></trkpt><trkpt lat="43.4057983" lon="13.4117333"><ele>225.0</ele><time>2026-04-18T07:35:33.073Z</time></trkpt><trkpt lat="43.4057717" lon="13.411505"><ele>223.0</ele><time>2026-04-18T07:35:34.073Z</time></trkpt><trkpt lat="43.4057417" lon="13.4112883"><ele>222.25</ele><time>2026-04-18T07:35:35.073Z</time></trkpt><trkpt lat="43.4057117" lon="13.4110733"><ele>221.5</ele><time>2026-04-18T07:35:36.073Z</time></trkpt><trkpt lat="43.4056883" lon="13.4108683"><ele>220.75</ele><time>2026-04-18T07:35:37.073Z</time></trkpt><trkpt lat="43.40567" lon="13.4106833"><ele>220.0</ele><time>2026-04-18T07:35:38.073Z</time></trkpt><trkpt lat="43.405645" lon="13.4105017"><ele>219.0</ele><time>2026-04-18T07:35:39.073Z</time></trkpt><trkpt lat="43.4056217" lon="13.4103183"><ele>218.0</ele><time>2026-04-18T07:35:40.073Z</time></trkpt><trkpt lat="43.4055917" lon="13.4101617"><ele>217.0</ele><time>2026-04-18T07:35:41.073Z</time></trkpt><trkpt lat="43.4055517" lon="13.41003"><ele>216.0</ele><time>2026-04-18T07:35:42.073Z</time></trkpt><trkpt lat="43.405505" lon="13.409905"><ele>217.60000000000002</ele><time>2026-04-18T07:35:43.073Z</time></trkpt><trkpt lat="43.40545" lon="13.4097917"><ele>219.20000000000002</ele><time>2026-04-18T07:35:44.074Z</time></trkpt><trkpt lat="43.4053967" lon="13.4096883"><ele>220.79999999999998</ele><time>2026-04-18T07:35:45.073Z</time></trkpt><trkpt lat="43.405345" lon="13.4095867"><ele>222.39999999999998</ele><time>2026-04-18T07:35:46.073Z</time></trkpt><trkpt lat="43.4052933" lon="13.4094817"><ele>224.0</ele><time>2026-04-18T07:35:47.073Z</time></trkpt><trkpt lat="43.4052433" lon="13.40938"><ele>224.0</ele><time>2026-04-18T07:35:48.074Z</time></trkpt><trkpt lat="43.4051983" lon="13.4092767"><ele>223.99999999999997</ele><time>2026-04-18T07:35:49.074Z</time></trkpt><trkpt lat="43.4051517" lon="13.4091717"><ele>223.99999999999997</ele><time>2026-04-18T07:35:50.073Z</time></trkpt><trkpt lat="43.4051017" lon="13.4090633"><ele>224.0</ele><time>2026-04-18T07:35:51.074Z</time></trkpt><trkpt lat="43.4050433" lon="13.4089467"><ele>224.0</ele><time>2026-04-18T07:35:52.074Z</time></trkpt><trkpt lat="43.40498" lon="13.4088317"><ele>224.39999999999998</ele><time>2026-04-18T07:35:53.073Z</time></trkpt><trkpt lat="43.4049167" lon="13.4087167"><ele>224.79999999999998</ele><time>2026-04-18T07:35:54.073Z</time></trkpt><trkpt lat="43.40485" lon="13.4086083"><ele>225.20000000000002</ele><time>2026-04-18T07:35:55.073Z</time></trkpt><trkpt lat="43.4047717" lon="13.4084967"><ele>225.60000000000002</ele><time>2026-04-18T07:35:56.073Z</time></trkpt><trkpt lat="43.40469" lon="13.4083817"><ele>226.0</ele><time>2026-04-18T07:35:57.074Z</time></trkpt><trkpt lat="43.4046" lon="13.4082717"><ele>226.0</ele><time>2026-04-18T07:35:58.073Z</time></trkpt><trkpt lat="43.4044867" lon="13.408155"><ele>226.0</ele><time>2026-04-18T07:35:59.073Z</time></trkpt><trkpt lat="43.404355" lon="13.40804"><ele>226.0</ele><time>2026-04-18T07:36:00.073Z</time></trkpt><trkpt lat="43.4042067" lon="13.4079033"><ele>226.0</ele><time>2026-04-18T07:36:01.074Z</time></trkpt><trkpt lat="43.4040417" lon="13.4077517"><ele>226.0</ele><time>2026-04-18T07:36:02.073Z</time></trkpt><trkpt lat="43.4038767" lon="13.407595"><ele>226.0</ele><time>2026-04-18T07:36:03.073Z</time></trkpt><trkpt lat="43.4036883" lon="13.4074283"><ele>224.33333333333331</ele><time>2026-04-18T07:36:04.073Z</time></trkpt><trkpt lat="43.4035017" lon="13.4072567"><ele>222.66666666666669</ele><time>2026-04-18T07:36:05.073Z</time></trkpt><trkpt lat="43.4033117" lon="13.4070967"><ele>221.0</ele><time>2026-04-18T07:36:06.073Z</time></trkpt><trkpt lat="43.40311" lon="13.40692"><ele>212.5</ele><time>2026-04-18T07:36:07.074Z</time></trkpt><trkpt lat="43.4029117" lon="13.4067283"><ele>204.0</ele><time>2026-04-18T07:36:08.073Z</time></trkpt><trkpt lat="43.402715" lon="13.40655"><ele>204.0</ele><time>2026-04-18T07:36:09.073Z</time></trkpt><trkpt lat="43.4025383" lon="13.4063667"><ele>204.0</ele><time>2026-04-18T07:36:10.074Z</time></trkpt><trkpt lat="43.40237" lon="13.4061933"><ele>204.0</ele><time>2026-04-18T07:36:11.073Z</time></trkpt><trkpt lat="43.4022067" lon="13.4060267"><ele>202.33333333333331</ele><time>2026-04-18T07:36:12.074Z</time></trkpt><trkpt lat="43.4020467" lon="13.4058767"><ele>200.66666666666666</ele><time>2026-04-18T07:36:13.073Z</time></trkpt><trkpt lat="43.401895" lon="13.4057217"><ele>199.0</ele><time>2026-04-18T07:36:14.073Z</time></trkpt><trkpt lat="43.4017633" lon="13.40558"><ele>198.25</ele><time>2026-04-18T07:36:15.073Z</time></trkpt><trkpt lat="43.40164" lon="13.4054567"><ele>197.5</ele><time>2026-04-18T07:36:16.073Z</time></trkpt><trkpt lat="43.4015217" lon="13.405335"><ele>196.75</ele><time>2026-04-18T07:36:17.073Z</time></trkpt><trkpt lat="43.4014083" lon="13.4052067"><ele>196.0</ele><time>2026-04-18T07:36:18.073Z</time></trkpt><trkpt lat="43.4013133" lon="13.4050683"><ele>196.0</ele><time>2026-04-18T07:36:19.073Z</time></trkpt><trkpt lat="43.4012233" lon="13.4049133"><ele>196.0</ele><time>2026-04-18T07:36:20.073Z</time></trkpt><trkpt lat="43.4011333" lon="13.4047317"><ele>196.0</ele><time>2026-04-18T07:36:21.073Z</time></trkpt><trkpt lat="43.401035" lon="13.4045367"><ele>198.33333333333331</ele><time>2026-04-18T07:36:22.073Z</time></trkpt><trkpt lat="43.4009333" lon="13.4043317"><ele>200.66666666666669</ele><time>2026-04-18T07:36:23.073Z</time></trkpt><trkpt lat="43.4008283" lon="13.4041433"><ele>203.0</ele><time>2026-04-18T07:36:24.074Z</time></trkpt><trkpt lat="43.4007133" lon="13.4039683"><ele>204.0</ele><time>2026-04-18T07:36:25.073Z</time></trkpt><trkpt lat="43.4005967" lon="13.4037917"><ele>205.0</ele><time>2026-04-18T07:36:26.074Z</time></trkpt><trkpt lat="43.4004717" lon="13.4036183"><ele>206.0</ele><time>2026-04-18T07:36:27.074Z</time></trkpt><trkpt lat="43.4003433" lon="13.40345"><ele>201.66666666666669</ele><time>2026-04-18T07:36:28.074Z</time></trkpt><trkpt lat="43.4002067" lon="13.40329"><ele>197.33333333333331</ele><time>2026-04-18T07:36:29.074Z</time></trkpt><trkpt lat="43.40007" lon="13.40314"><ele>193.0</ele><time>2026-04-18T07:36:30.073Z</time></trkpt><trkpt lat="43.3999283" lon="13.4029833"><ele>192.66666666666666</ele><time>2026-04-18T07:36:31.073Z</time></trkpt><trkpt lat="43.3997817" lon="13.402835"><ele>192.33333333333331</ele><time>2026-04-18T07:36:32.073Z</time></trkpt><trkpt lat="43.3996233" lon="13.4026917"><ele>192.0</ele><time>2026-04-18T07:36:33.074Z</time></trkpt><trkpt lat="43.3994683" lon="13.402555"><ele>192.0</ele><time>2026-04-18T07:36:34.073Z</time></trkpt><trkpt lat="43.3993167" lon="13.4024367"><ele>192.0</ele><time>2026-04-18T07:36:35.073Z</time></trkpt><trkpt lat="43.3991583" lon="13.4023217"><ele>192.0</ele><time>2026-04-18T07:36:36.074Z</time></trkpt><trkpt lat="43.399" lon="13.4021967"><ele>192.33333333333331</ele><time>2026-04-18T07:36:37.074Z</time></trkpt><trkpt lat="43.3988433" lon="13.402085"><ele>192.66666666666666</ele><time>2026-04-18T07:36:38.073Z</time></trkpt><trkpt lat="43.3986933" lon="13.4019733"><ele>193.0</ele><time>2026-04-18T07:36:39.073Z</time></trkpt><trkpt lat="43.3985433" lon="13.4018633"><ele>193.0</ele><time>2026-04-18T07:36:40.073Z</time></trkpt><trkpt lat="43.3983983" lon="13.4017533"><ele>193.0</ele><time>2026-04-18T07:36:41.073Z</time></trkpt><trkpt lat="43.3982533" lon="13.4016467"><ele>193.0</ele><time>2026-04-18T07:36:42.073Z</time></trkpt><trkpt lat="43.3981167" lon="13.4015267"><ele>192.33333333333331</ele><time>2026-04-18T07:36:43.074Z</time></trkpt><trkpt lat="43.397975" lon="13.4014117"><ele>191.66666666666666</ele><time>2026-04-18T07:36:44.074Z</time></trkpt><trkpt lat="43.3978367" lon="13.4012883"><ele>191.0</ele><time>2026-04-18T07:36:45.074Z</time></trkpt><trkpt lat="43.3976967" lon="13.4011733"><ele>191.0</ele><time>2026-04-18T07:36:46.073Z</time></trkpt><trkpt lat="43.3975617" lon="13.401045"><ele>191.0</ele><time>2026-04-18T07:36:47.073Z</time></trkpt><trkpt lat="43.3974167" lon="13.400925"><ele>191.0</ele><time>2026-04-18T07:36:48.073Z</time></trkpt><trkpt lat="43.3972767" lon="13.400805"><ele>190.0</ele><time>2026-04-18T07:36:49.072Z</time></trkpt><trkpt lat="43.3971383" lon="13.40069"><ele>189.0</ele><time>2026-04-18T07:36:50.073Z</time></trkpt><trkpt lat="43.3969967" lon="13.4005717"><ele>188.0</ele><time>2026-04-18T07:36:51.072Z</time></trkpt><trkpt lat="43.396865" lon="13.4004567"><ele>188.0</ele><time>2026-04-18T07:36:52.072Z</time></trkpt><trkpt lat="43.3967333" lon="13.4003517"><ele>188.0</ele><time>2026-04-18T07:36:53.072Z</time></trkpt><trkpt lat="43.3966017" lon="13.4002433"><ele>188.0</ele><time>2026-04-18T07:36:54.072Z</time></trkpt><trkpt lat="43.3964733" lon="13.4001233"><ele>188.66666666666666</ele><time>2026-04-18T07:36:55.072Z</time></trkpt><trkpt lat="43.3963333" lon="13.4"><ele>189.33333333333334</ele><time>2026-04-18T07:36:56.072Z</time></trkpt><trkpt lat="43.39619" lon="13.3998683"><ele>190.0</ele><time>2026-04-18T07:36:57.072Z</time></trkpt><trkpt lat="43.3960433" lon="13.3997317"><ele>192.33333333333334</ele><time>2026-04-18T07:36:58.072Z</time></trkpt><trkpt lat="43.39589" lon="13.3995933"><ele>194.66666666666669</ele><time>2026-04-18T07:36:59.072Z</time></trkpt><trkpt lat="43.39574" lon="13.3994567"><ele>197.0</ele><time>2026-04-18T07:37:00.072Z</time></trkpt><trkpt lat="43.3955967" lon="13.3993267"><ele>196.66666666666669</ele><time>2026-04-18T07:37:01.073Z</time></trkpt><trkpt lat="43.39546" lon="13.399195"><ele>196.33333333333331</ele><time>2026-04-18T07:37:02.072Z</time></trkpt><trkpt lat="43.3953317" lon="13.39906"><ele>196.0</ele><time>2026-04-18T07:37:03.072Z</time></trkpt><trkpt lat="43.3952" lon="13.39893"><ele>199.0</ele><time>2026-04-18T07:37:04.072Z</time></trkpt><trkpt lat="43.3950583" lon="13.3988317"><ele>202.0</ele><time>2026-04-18T07:37:05.072Z</time></trkpt><trkpt lat="43.394915" lon="13.3987567"><ele>205.0</ele><time>2026-04-18T07:37:06.073Z</time></trkpt><trkpt lat="43.3947733" lon="13.3987067"><ele>204.5</ele><time>2026-04-18T07:37:07.072Z</time></trkpt><trkpt lat="43.3946467" lon="13.3986683"><ele>204.0</ele><time>2026-04-18T07:37:08.072Z</time></trkpt><trkpt lat="43.3945167" lon="13.3986367"><ele>203.5</ele><time>2026-04-18T07:37:09.072Z</time></trkpt><trkpt lat="43.3943867" lon="13.3985917"><ele>203.0</ele><time>2026-04-18T07:37:10.072Z</time></trkpt><trkpt lat="43.3942683" lon="13.39855"><ele>203.0</ele><time>2026-04-18T07:37:11.072Z</time></trkpt><trkpt lat="43.3941633" lon="13.3984983"><ele>203.0</ele><time>2026-04-18T07:37:12.072Z</time></trkpt><trkpt lat="43.3940667" lon="13.3984367"><ele>203.0</ele><time>2026-04-18T07:37:13.073Z</time></trkpt><trkpt lat="43.39398" lon="13.39834"><ele>203.0</ele><time>2026-04-18T07:37:14.072Z</time></trkpt><trkpt lat="43.3939133" lon="13.3982233"><ele>203.0</ele><time>2026-04-18T07:37:15.072Z</time></trkpt><trkpt lat="43.39387" lon="13.3980883"><ele>201.75</ele><time>2026-04-18T07:37:16.073Z</time></trkpt><trkpt lat="43.3938483" lon="13.3979267"><ele>200.5</ele><time>2026-04-18T07:37:17.072Z</time></trkpt><trkpt lat="43.3938417" lon="13.3977383"><ele>199.25</ele><time>2026-04-18T07:37:18.072Z</time></trkpt><trkpt lat="43.3938367" lon="13.3975267"><ele>198.0</ele><time>2026-04-18T07:37:19.073Z</time></trkpt><trkpt lat="43.39383" lon="13.3972933"><ele>198.33333333333331</ele><time>2026-04-18T07:37:20.073Z</time></trkpt><trkpt lat="43.3938183" lon="13.397055"><ele>198.66666666666666</ele><time>2026-04-18T07:37:21.072Z</time></trkpt><trkpt lat="43.3938033" lon="13.3968283"><ele>199.0</ele><time>2026-04-18T07:37:22.073Z</time></trkpt><trkpt lat="43.3937967" lon="13.3966133"><ele>199.0</ele><time>2026-04-18T07:37:23.073Z</time></trkpt><trkpt lat="43.3937983" lon="13.396415"><ele>199.0</ele><time>2026-04-18T07:37:24.072Z</time></trkpt><trkpt lat="43.3938167" lon="13.3962117"><ele>199.0</ele><time>2026-04-18T07:37:25.072Z</time></trkpt><trkpt lat="43.3938517" lon="13.39601"><ele>199.0</ele><time>2026-04-18T07:37:26.072Z</time></trkpt><trkpt lat="43.3939017" lon="13.3957967"><ele>203.66666666666666</ele><time>2026-04-18T07:37:27.072Z</time></trkpt><trkpt lat="43.39396" lon="13.395585"><ele>208.33333333333331</ele><time>2026-04-18T07:37:28.072Z</time></trkpt><trkpt lat="43.394015" lon="13.3953817"><ele>213.0</ele><time>2026-04-18T07:37:29.072Z</time></trkpt><trkpt lat="43.3940717" lon="13.39517"><ele>213.0</ele><time>2026-04-18T07:37:30.073Z</time></trkpt><trkpt lat="43.3941183" lon="13.3949583"><ele>213.0</ele><time>2026-04-18T07:37:31.072Z</time></trkpt><trkpt lat="43.394165" lon="13.3947467"><ele>213.0</ele><time>2026-04-18T07:37:32.072Z</time></trkpt><trkpt lat="43.394215" lon="13.394535"><ele>211.66666666666669</ele><time>2026-04-18T07:37:33.072Z</time></trkpt><trkpt lat="43.3942683" lon="13.39432"><ele>210.33333333333334</ele><time>2026-04-18T07:37:34.072Z</time></trkpt><trkpt lat="43.3943183" lon="13.3941133"><ele>209.0</ele><time>2026-04-18T07:37:35.072Z</time></trkpt><trkpt lat="43.394365" lon="13.3939083"><ele>208.25</ele><time>2026-04-18T07:37:36.073Z</time></trkpt><trkpt lat="43.394405" lon="13.393715"><ele>207.5</ele><time>2026-04-18T07:37:37.073Z</time></trkpt><trkpt lat="43.3944333" lon="13.3935217"><ele>206.75</ele><time>2026-04-18T07:37:38.072Z</time></trkpt><trkpt lat="43.3944367" lon="13.3933267"><ele>206.0</ele><time>2026-04-18T07:37:39.072Z</time></trkpt><trkpt lat="43.3944133" lon="13.3931367"><ele>206.66666666666669</ele><time>2026-04-18T07:37:40.072Z</time></trkpt><trkpt lat="43.3943617" lon="13.392955"><ele>207.33333333333331</ele><time>2026-04-18T07:37:41.072Z</time></trkpt><trkpt lat="43.3942967" lon="13.3927617"><ele>208.0</ele><time>2026-04-18T07:37:42.072Z</time></trkpt><trkpt lat="43.39422" lon="13.39257"><ele>208.0</ele><time>2026-04-18T07:37:43.072Z</time></trkpt><trkpt lat="43.3941383" lon="13.3923733"><ele>208.0</ele><time>2026-04-18T07:37:44.072Z</time></trkpt><trkpt lat="43.3940483" lon="13.39218"><ele>208.0</ele><time>2026-04-18T07:37:45.073Z</time></trkpt><trkpt lat="43.3939633" lon="13.3919833"><ele>208.0</ele><time>2026-04-18T07:37:46.072Z</time></trkpt><trkpt lat="43.393885" lon="13.3917817"><ele>208.0</ele><time>2026-04-18T07:37:47.073Z</time></trkpt><trkpt lat="43.3938083" lon="13.3915817"><ele>208.0</ele><time>2026-04-18T07:37:48.072Z</time></trkpt><trkpt lat="43.3937267" lon="13.39138"><ele>210.0</ele><time>2026-04-18T07:37:49.072Z</time></trkpt><trkpt lat="43.3936383" lon="13.3911783"><ele>212.0</ele><time>2026-04-18T07:37:50.072Z</time></trkpt><trkpt lat="43.39355" lon="13.3909767"><ele>214.0</ele><time>2026-04-18T07:37:51.072Z</time></trkpt><trkpt lat="43.39347" lon="13.3907733"><ele>214.0</ele><time>2026-04-18T07:37:52.072Z</time></trkpt><trkpt lat="43.3933817" lon="13.3905717"><ele>214.0</ele><time>2026-04-18T07:37:53.072Z</time></trkpt><trkpt lat="43.3932983" lon="13.3903517"><ele>214.0</ele><time>2026-04-18T07:37:54.072Z</time></trkpt><trkpt lat="43.393215" lon="13.3901367"><ele>215.66666666666666</ele><time>2026-04-18T07:37:55.072Z</time></trkpt><trkpt lat="43.3931367" lon="13.3899083"><ele>217.33333333333331</ele><time>2026-04-18T07:37:56.072Z</time></trkpt><trkpt lat="43.393055" lon="13.38969"><ele>219.0</ele><time>2026-04-18T07:37:57.072Z</time></trkpt><trkpt lat="43.3929833" lon="13.3894733"><ele>219.0</ele><time>2026-04-18T07:37:58.073Z</time></trkpt><trkpt lat="43.3928983" lon="13.38928"><ele>219.0</ele><time>2026-04-18T07:37:59.072Z</time></trkpt><trkpt lat="43.392825" lon="13.3890817"><ele>219.0</ele><time>2026-04-18T07:38:00.073Z</time></trkpt><trkpt lat="43.3927567" lon="13.3889067"><ele>219.25</ele><time>2026-04-18T07:38:01.073Z</time></trkpt><trkpt lat="43.3926917" lon="13.388735"><ele>219.5</ele><time>2026-04-18T07:38:02.073Z</time></trkpt><trkpt lat="43.3926167" lon="13.3885733"><ele>219.75</ele><time>2026-04-18T07:38:03.072Z</time></trkpt><trkpt lat="43.3925267" lon="13.3884217"><ele>220.0</ele><time>2026-04-18T07:38:04.072Z</time></trkpt><trkpt lat="43.3924283" lon="13.38829"><ele>220.0</ele><time>2026-04-18T07:38:05.072Z</time></trkpt><trkpt lat="43.392335" lon="13.388165"><ele>220.0</ele><time>2026-04-18T07:38:06.072Z</time></trkpt><trkpt lat="43.39225" lon="13.388055"><ele>220.0</ele><time>2026-04-18T07:38:07.072Z</time></trkpt><trkpt lat="43.3921767" lon="13.3879617"><ele>220.0</ele><time>2026-04-18T07:38:08.072Z</time></trkpt><trkpt lat="43.3921133" lon="13.3878683"><ele>220.0</ele><time>2026-04-18T07:38:09.072Z</time></trkpt><trkpt lat="43.3920567" lon="13.3877933"><ele>220.28571428571428</ele><time>2026-04-18T07:38:10.072Z</time></trkpt><trkpt lat="43.3920083" lon="13.3877333"><ele>220.57142857142856</ele><time>2026-04-18T07:38:11.072Z</time></trkpt><trkpt lat="43.3919483" lon="13.38761"><ele>220.85714285714283</ele><time>2026-04-18T07:38:13.073Z</time></trkpt><trkpt lat="43.39197" lon="13.387525"><ele>221.14285714285714</ele><time>2026-04-18T07:38:14.072Z</time></trkpt><trkpt lat="43.392" lon="13.3874467"><ele>221.42857142857144</ele><time>2026-04-18T07:38:15.072Z</time></trkpt><trkpt lat="43.3920167" lon="13.3873617"><ele>221.7142857142857</ele><time>2026-04-18T07:38:16.072Z</time></trkpt><trkpt lat="43.392005" lon="13.3872733"><ele>222.0</ele><time>2026-04-18T07:38:17.073Z</time></trkpt><trkpt lat="43.391935" lon="13.3871567"><ele>222.39999999999998</ele><time>2026-04-18T07:38:19.072Z</time></trkpt><trkpt lat="43.3918117" lon="13.38713"><ele>222.79999999999998</ele><time>2026-04-18T07:38:21.072Z</time></trkpt><trkpt lat="43.3917483" lon="13.3870933"><ele>223.2</ele><time>2026-04-18T07:38:22.072Z</time></trkpt><trkpt lat="43.3916867" lon="13.3870133"><ele>223.6</ele><time>2026-04-18T07:38:23.072Z</time></trkpt><trkpt lat="43.3916333" lon="13.3868917"><ele>224.0</ele><time>2026-04-18T07:38:24.072Z</time></trkpt><trkpt lat="43.3915733" lon="13.3867633"><ele>224.0</ele><time>2026-04-18T07:38:25.072Z</time></trkpt><trkpt lat="43.39151" lon="13.3866117"><ele>224.0</ele><time>2026-04-18T07:38:26.072Z</time></trkpt><trkpt lat="43.39144" lon="13.386445"><ele>224.0</ele><time>2026-04-18T07:38:27.072Z</time></trkpt><trkpt lat="43.3913633" lon="13.38628"><ele>224.0</ele><time>2026-04-18T07:38:28.072Z</time></trkpt><trkpt lat="43.3912783" lon="13.3861367"><ele>224.66666666666669</ele><time>2026-04-18T07:38:29.072Z</time></trkpt><trkpt lat="43.391185" lon="13.385995"><ele>225.33333333333331</ele><time>2026-04-18T07:38:30.072Z</time></trkpt><trkpt lat="43.3910783" lon="13.3858417"><ele>226.0</ele><time>2026-04-18T07:38:31.072Z</time></trkpt><trkpt lat="43.3909583" lon="13.3856767"><ele>226.0</ele><time>2026-04-18T07:38:32.072Z</time></trkpt><trkpt lat="43.3908283" lon="13.3855167"><ele>226.0</ele><time>2026-04-18T07:38:33.072Z</time></trkpt><trkpt lat="43.39069" lon="13.385385"><ele>226.0</ele><time>2026-04-18T07:38:34.072Z</time></trkpt><trkpt lat="43.3905583" lon="13.3852667"><ele>226.66666666666666</ele><time>2026-04-18T07:38:35.072Z</time></trkpt><trkpt lat="43.3904233" lon="13.3851517"><ele>227.33333333333331</ele><time>2026-04-18T07:38:36.072Z</time></trkpt><trkpt lat="43.3902833" lon="13.385035"><ele>228.0</ele><time>2026-04-18T07:38:37.072Z</time></trkpt><trkpt lat="43.3901483" lon="13.3849183"><ele>228.0</ele><time>2026-04-18T07:38:38.073Z</time></trkpt><trkpt lat="43.39002" lon="13.3847883"><ele>228.0</ele><time>2026-04-18T07:38:39.073Z</time></trkpt><trkpt lat="43.38989" lon="13.3846467"><ele>228.0</ele><time>2026-04-18T07:38:40.072Z</time></trkpt><trkpt lat="43.3897717" lon="13.38449"><ele>229.66666666666669</ele><time>2026-04-18T07:38:41.072Z</time></trkpt><trkpt lat="43.3896483" lon="13.3843167"><ele>231.33333333333334</ele><time>2026-04-18T07:38:42.072Z</time></trkpt><trkpt lat="43.38954" lon="13.38413"><ele>233.0</ele><time>2026-04-18T07:38:43.072Z</time></trkpt><trkpt lat="43.3894483" lon="13.3839383"><ele>232.66666666666669</ele><time>2026-04-18T07:38:44.072Z</time></trkpt><trkpt lat="43.389365" lon="13.3837317"><ele>232.33333333333331</ele><time>2026-04-18T07:38:45.072Z</time></trkpt><trkpt lat="43.3892883" lon="13.383525"><ele>232.0</ele><time>2026-04-18T07:38:46.072Z</time></trkpt><trkpt lat="43.3892267" lon="13.3833083"><ele>232.0</ele><time>2026-04-18T07:38:47.072Z</time></trkpt><trkpt lat="43.3891783" lon="13.3830817"><ele>232.0</ele><time>2026-04-18T07:38:48.072Z</time></trkpt><trkpt lat="43.3891233" lon="13.3828767"><ele>232.0</ele><time>2026-04-18T07:38:49.072Z</time></trkpt><trkpt lat="43.38906" lon="13.3826833"><ele>232.5</ele><time>2026-04-18T07:38:50.072Z</time></trkpt><trkpt lat="43.3889983" lon="13.3824933"><ele>233.0</ele><time>2026-04-18T07:38:51.072Z</time></trkpt><trkpt lat="43.3889167" lon="13.3823367"><ele>233.5</ele><time>2026-04-18T07:38:52.073Z</time></trkpt><trkpt lat="43.388815" lon="13.3821817"><ele>234.0</ele><time>2026-04-18T07:38:53.072Z</time></trkpt><trkpt lat="43.388705" lon="13.382025"><ele>234.0</ele><time>2026-04-18T07:38:54.072Z</time></trkpt><trkpt lat="43.3885983" lon="13.381875"><ele>234.0</ele><time>2026-04-18T07:38:55.072Z</time></trkpt><trkpt lat="43.3884933" lon="13.38174"><ele>234.0</ele><time>2026-04-18T07:38:56.073Z</time></trkpt><trkpt lat="43.3883883" lon="13.3816233"><ele>234.0</ele><time>2026-04-18T07:38:57.072Z</time></trkpt><trkpt lat="43.3882733" lon="13.381535"><ele>234.0</ele><time>2026-04-18T07:38:58.072Z</time></trkpt><trkpt lat="43.3881417" lon="13.3814733"><ele>234.0</ele><time>2026-04-18T07:38:59.072Z</time></trkpt><trkpt lat="43.3880033" lon="13.3814283"><ele>234.0</ele><time>2026-04-18T07:39:00.073Z</time></trkpt><trkpt lat="43.3878733" lon="13.3813717"><ele>234.0</ele><time>2026-04-18T07:39:01.072Z</time></trkpt><trkpt lat="43.3877583" lon="13.38128"><ele>233.0</ele><time>2026-04-18T07:39:02.073Z</time></trkpt><trkpt lat="43.3876467" lon="13.3811733"><ele>232.0</ele><time>2026-04-18T07:39:03.072Z</time></trkpt><trkpt lat="43.3875417" lon="13.3810433"><ele>231.0</ele><time>2026-04-18T07:39:04.073Z</time></trkpt><trkpt lat="43.3874517" lon="13.380895"><ele>230.0</ele><time>2026-04-18T07:39:05.072Z</time></trkpt><trkpt lat="43.3873733" lon="13.3807183"><ele>230.0</ele><time>2026-04-18T07:39:06.072Z</time></trkpt><trkpt lat="43.3873067" lon="13.3805333"><ele>230.0</ele><time>2026-04-18T07:39:07.072Z</time></trkpt><trkpt lat="43.3872433" lon="13.3803367"><ele>230.0</ele><time>2026-04-18T07:39:08.072Z</time></trkpt><trkpt lat="43.3871733" lon="13.380145"><ele>229.66666666666669</ele><time>2026-04-18T07:39:09.072Z</time></trkpt><trkpt lat="43.3870833" lon="13.3799633"><ele>229.33333333333331</ele><time>2026-04-18T07:39:10.072Z</time></trkpt><trkpt lat="43.3869767" lon="13.379785"><ele>229.0</ele><time>2026-04-18T07:39:11.073Z</time></trkpt><trkpt lat="43.3868717" lon="13.3795983"><ele>231.66666666666666</ele><time>2026-04-18T07:39:12.072Z</time></trkpt><trkpt lat="43.386755" lon="13.379425"><ele>234.33333333333331</ele><time>2026-04-18T07:39:13.072Z</time></trkpt><trkpt lat="43.3866483" lon="13.37924"><ele>237.0</ele><time>2026-04-18T07:39:14.072Z</time></trkpt><trkpt lat="43.3865533" lon="13.37904"><ele>237.33333333333331</ele><time>2026-04-18T07:39:15.072Z</time></trkpt><trkpt lat="43.3864733" lon="13.3788333"><ele>237.66666666666666</ele><time>2026-04-18T07:39:16.072Z</time></trkpt><trkpt lat="43.38641" lon="13.3786133"><ele>238.0</ele><time>2026-04-18T07:39:17.072Z</time></trkpt><trkpt lat="43.38635" lon="13.3783917"><ele>238.0</ele><time>2026-04-18T07:39:18.072Z</time></trkpt><trkpt lat="43.3862883" lon="13.3781767"><ele>238.0</ele><time>2026-04-18T07:39:19.072Z</time></trkpt><trkpt lat="43.3862183" lon="13.3779633"><ele>238.0</ele><time>2026-04-18T07:39:20.072Z</time></trkpt><trkpt lat="43.3861383" lon="13.3777483"><ele>238.66666666666666</ele><time>2026-04-18T07:39:21.073Z</time></trkpt><trkpt lat="43.3860517" lon="13.3775383"><ele>239.33333333333331</ele><time>2026-04-18T07:39:22.073Z</time></trkpt><trkpt lat="43.3859633" lon="13.3773267"><ele>240.0</ele><time>2026-04-18T07:39:23.072Z</time></trkpt><trkpt lat="43.3858683" lon="13.3771233"><ele>240.0</ele><time>2026-04-18T07:39:24.072Z</time></trkpt><trkpt lat="43.3857683" lon="13.3769267"><ele>240.0</ele><time>2026-04-18T07:39:25.072Z</time></trkpt><trkpt lat="43.3856583" lon="13.37672"><ele>240.0</ele><time>2026-04-18T07:39:26.072Z</time></trkpt><trkpt lat="43.3855617" lon="13.3765233"><ele>241.33333333333331</ele><time>2026-04-18T07:39:27.072Z</time></trkpt><trkpt lat="43.3854717" lon="13.3763233"><ele>242.66666666666666</ele><time>2026-04-18T07:39:28.072Z</time></trkpt><trkpt lat="43.3853767" lon="13.376125"><ele>244.0</ele><time>2026-04-18T07:39:29.072Z</time></trkpt><trkpt lat="43.3852817" lon="13.3759333"><ele>244.0</ele><time>2026-04-18T07:39:30.073Z</time></trkpt><trkpt lat="43.385195" lon="13.3757283"><ele>244.0</ele><time>2026-04-18T07:39:31.072Z</time></trkpt><trkpt lat="43.38514" lon="13.3755067"><ele>244.0</ele><time>2026-04-18T07:39:32.072Z</time></trkpt><trkpt lat="43.385115" lon="13.3752783"><ele>244.0</ele><time>2026-04-18T07:39:33.072Z</time></trkpt><trkpt lat="43.3851117" lon="13.3750583"><ele>244.0</ele><time>2026-04-18T07:39:34.072Z</time></trkpt><trkpt lat="43.3851" lon="13.3748267"><ele>244.0</ele><time>2026-04-18T07:39:35.072Z</time></trkpt><trkpt lat="43.38509" lon="13.3746017"><ele>244.0</ele><time>2026-04-18T07:39:36.072Z</time></trkpt><trkpt lat="43.385085" lon="13.3743733"><ele>244.0</ele><time>2026-04-18T07:39:37.072Z</time></trkpt><trkpt lat="43.3850767" lon="13.374145"><ele>244.0</ele><time>2026-04-18T07:39:38.073Z</time></trkpt><trkpt lat="43.3850667" lon="13.3739167"><ele>244.33333333333331</ele><time>2026-04-18T07:39:39.072Z</time></trkpt><trkpt lat="43.3850583" lon="13.3736983"><ele>244.66666666666669</ele><time>2026-04-18T07:39:40.072Z</time></trkpt><trkpt lat="43.3850433" lon="13.3734767"><ele>245.0</ele><time>2026-04-18T07:39:41.072Z</time></trkpt><trkpt lat="43.3850183" lon="13.37326"><ele>245.0</ele><time>2026-04-18T07:39:42.072Z</time></trkpt><trkpt lat="43.3849833" lon="13.3730483"><ele>245.0</ele><time>2026-04-18T07:39:43.072Z</time></trkpt><trkpt lat="43.3849467" lon="13.372845"><ele>245.0</ele><time>2026-04-18T07:39:44.072Z</time></trkpt><trkpt lat="43.3849067" lon="13.372635"><ele>246.0</ele><time>2026-04-18T07:39:45.073Z</time></trkpt><trkpt lat="43.3848617" lon="13.3724183"><ele>247.0</ele><time>2026-04-18T07:39:46.072Z</time></trkpt><trkpt lat="43.3848083" lon="13.3722133"><ele>248.0</ele><time>2026-04-18T07:39:47.072Z</time></trkpt><trkpt lat="43.3847467" lon="13.3719983"><ele>248.0</ele><time>2026-04-18T07:39:48.072Z</time></trkpt><trkpt lat="43.3846883" lon="13.3717833"><ele>248.0</ele><time>2026-04-18T07:39:49.072Z</time></trkpt><trkpt lat="43.3846317" lon="13.371585"><ele>248.0</ele><time>2026-04-18T07:39:50.072Z</time></trkpt><trkpt lat="43.384585" lon="13.3713917"><ele>249.0</ele><time>2026-04-18T07:39:51.073Z</time></trkpt><trkpt lat="43.3845417" lon="13.3712083"><ele>250.0</ele><time>2026-04-18T07:39:52.072Z</time></trkpt><trkpt lat="43.3845017" lon="13.3710267"><ele>251.0</ele><time>2026-04-18T07:39:53.072Z</time></trkpt><trkpt lat="43.38446" lon="13.3708467"><ele>252.0</ele><time>2026-04-18T07:39:54.072Z</time></trkpt><trkpt lat="43.3844083" lon="13.3706567"><ele>249.33333333333331</ele><time>2026-04-18T07:39:55.072Z</time></trkpt><trkpt lat="43.3843383" lon="13.3704683"><ele>246.66666666666666</ele><time>2026-04-18T07:39:56.072Z</time></trkpt><trkpt lat="43.3842583" lon="13.37027"><ele>244.0</ele><time>2026-04-18T07:39:57.072Z</time></trkpt><trkpt lat="43.38417" lon="13.3700783"><ele>244.0</ele><time>2026-04-18T07:39:58.073Z</time></trkpt><trkpt lat="43.3840833" lon="13.3698867"><ele>244.0</ele><time>2026-04-18T07:39:59.072Z</time></trkpt><trkpt lat="43.3839967" lon="13.36969"><ele>244.0</ele><time>2026-04-18T07:40:00.072Z</time></trkpt><trkpt lat="43.3839" lon="13.3695033"><ele>243.33333333333331</ele><time>2026-04-18T07:40:01.073Z</time></trkpt><trkpt lat="43.3838017" lon="13.3693183"><ele>242.66666666666669</ele><time>2026-04-18T07:40:02.072Z</time></trkpt><trkpt lat="43.38369" lon="13.36915"><ele>242.0</ele><time>2026-04-18T07:40:03.072Z</time></trkpt><trkpt lat="43.3835783" lon="13.3689817"><ele>242.0</ele><time>2026-04-18T07:40:04.072Z</time></trkpt><trkpt lat="43.3834683" lon="13.3688117"><ele>242.0</ele><time>2026-04-18T07:40:05.072Z</time></trkpt><trkpt lat="43.3833583" lon="13.36865"><ele>242.0</ele><time>2026-04-18T07:40:06.072Z</time></trkpt><trkpt lat="43.3832567" lon="13.3684883"><ele>242.0</ele><time>2026-04-18T07:40:07.072Z</time></trkpt><trkpt lat="43.3831567" lon="13.3683233"><ele>242.0</ele><time>2026-04-18T07:40:08.072Z</time></trkpt><trkpt lat="43.3830667" lon="13.3681333"><ele>242.0</ele><time>2026-04-18T07:40:09.072Z</time></trkpt><trkpt lat="43.38299" lon="13.3679467"><ele>242.75</ele><time>2026-04-18T07:40:10.073Z</time></trkpt><trkpt lat="43.382915" lon="13.3677683"><ele>243.5</ele><time>2026-04-18T07:40:11.072Z</time></trkpt><trkpt lat="43.382845" lon="13.3675883"><ele>244.25</ele><time>2026-04-18T07:40:12.072Z</time></trkpt><trkpt lat="43.38278" lon="13.3674217"><ele>245.0</ele><time>2026-04-18T07:40:13.073Z</time></trkpt><trkpt lat="43.382715" lon="13.3672633"><ele>244.25</ele><time>2026-04-18T07:40:14.072Z</time></trkpt><trkpt lat="43.3826467" lon="13.367115"><ele>243.5</ele><time>2026-04-18T07:40:15.072Z</time></trkpt><trkpt lat="43.3825617" lon="13.36697"><ele>242.75</ele><time>2026-04-18T07:40:16.072Z</time></trkpt><trkpt lat="43.38245" lon="13.366835"><ele>242.0</ele><time>2026-04-18T07:40:17.073Z</time></trkpt><trkpt lat="43.382335" lon="13.3666917"><ele>242.0</ele><time>2026-04-18T07:40:18.072Z</time></trkpt><trkpt lat="43.3822" lon="13.3665383"><ele>242.0</ele><time>2026-04-18T07:40:19.072Z</time></trkpt><trkpt lat="43.3820667" lon="13.3663917"><ele>242.0</ele><time>2026-04-18T07:40:20.073Z</time></trkpt><trkpt lat="43.3819517" lon="13.3662333"><ele>243.33333333333334</ele><time>2026-04-18T07:40:21.072Z</time></trkpt><trkpt lat="43.38185" lon="13.3660617"><ele>244.66666666666669</ele><time>2026-04-18T07:40:22.072Z</time></trkpt><trkpt lat="43.3817583" lon="13.3658867"><ele>246.0</ele><time>2026-04-18T07:40:23.072Z</time></trkpt><trkpt lat="43.3816817" lon="13.3656967"><ele>245.66666666666669</ele><time>2026-04-18T07:40:24.072Z</time></trkpt><trkpt lat="43.381605" lon="13.3655067"><ele>245.33333333333334</ele><time>2026-04-18T07:40:25.073Z</time></trkpt><trkpt lat="43.3815333" lon="13.3653133"><ele>245.0</ele><time>2026-04-18T07:40:26.072Z</time></trkpt><trkpt lat="43.3814717" lon="13.3651267"><ele>245.0</ele><time>2026-04-18T07:40:27.073Z</time></trkpt><trkpt lat="43.3814217" lon="13.3649417"><ele>245.0</ele><time>2026-04-18T07:40:28.073Z</time></trkpt><trkpt lat="43.3813783" lon="13.3647633"><ele>245.0</ele><time>2026-04-18T07:40:29.072Z</time></trkpt><trkpt lat="43.3813583" lon="13.364585"><ele>245.0</ele><time>2026-04-18T07:40:30.072Z</time></trkpt><trkpt lat="43.381355" lon="13.3643967"><ele>244.0</ele><time>2026-04-18T07:40:31.072Z</time></trkpt><trkpt lat="43.3813617" lon="13.36419"><ele>243.0</ele><time>2026-04-18T07:40:32.072Z</time></trkpt><trkpt lat="43.38137" lon="13.3639583"><ele>242.0</ele><time>2026-04-18T07:40:33.072Z</time></trkpt><trkpt lat="43.3813667" lon="13.3637183"><ele>241.66666666666669</ele><time>2026-04-18T07:40:34.072Z</time></trkpt><trkpt lat="43.3813683" lon="13.3634817"><ele>241.33333333333331</ele><time>2026-04-18T07:40:35.072Z</time></trkpt><trkpt lat="43.38138" lon="13.3632533"><ele>241.0</ele><time>2026-04-18T07:40:36.072Z</time></trkpt><trkpt lat="43.3813833" lon="13.3630017"><ele>240.33333333333331</ele><time>2026-04-18T07:40:37.072Z</time></trkpt><trkpt lat="43.3813933" lon="13.36273"><ele>239.66666666666669</ele><time>2026-04-18T07:40:38.072Z</time></trkpt><trkpt lat="43.381395" lon="13.3624717"><ele>239.0</ele><time>2026-04-18T07:40:39.072Z</time></trkpt><trkpt lat="43.3813983" lon="13.3622317"><ele>237.66666666666669</ele><time>2026-04-18T07:40:40.072Z</time></trkpt><trkpt lat="43.3814067" lon="13.3620017"><ele>236.33333333333331</ele><time>2026-04-18T07:40:41.072Z</time></trkpt><trkpt lat="43.3814117" lon="13.36178"><ele>235.0</ele><time>2026-04-18T07:40:42.073Z</time></trkpt><trkpt lat="43.3814167" lon="13.36156"><ele>235.25</ele><time>2026-04-18T07:40:43.073Z</time></trkpt><trkpt lat="43.381425" lon="13.3613483"><ele>235.5</ele><time>2026-04-18T07:40:44.072Z</time></trkpt><trkpt lat="43.3814267" lon="13.3611467"><ele>235.75</ele><time>2026-04-18T07:40:45.072Z</time></trkpt><trkpt lat="43.38143" lon="13.3609567"><ele>236.0</ele><time>2026-04-18T07:40:46.072Z</time></trkpt><trkpt lat="43.381415" lon="13.3607783"><ele>236.0</ele><time>2026-04-18T07:40:47.073Z</time></trkpt><trkpt lat="43.3813817" lon="13.3606167"><ele>236.0</ele><time>2026-04-18T07:40:48.073Z</time></trkpt><trkpt lat="43.3813233" lon="13.3604617"><ele>236.0</ele><time>2026-04-18T07:40:49.073Z</time></trkpt><trkpt lat="43.3812417" lon="13.3603217"><ele>236.0</ele><time>2026-04-18T07:40:50.072Z</time></trkpt><trkpt lat="43.38115" lon="13.360185"><ele>235.75</ele><time>2026-04-18T07:40:51.073Z</time></trkpt><trkpt lat="43.3810567" lon="13.360045"><ele>235.5</ele><time>2026-04-18T07:40:52.072Z</time></trkpt><trkpt lat="43.38096" lon="13.35991"><ele>235.25</ele><time>2026-04-18T07:40:53.073Z</time></trkpt><trkpt lat="43.38087" lon="13.3597783"><ele>235.0</ele><time>2026-04-18T07:40:54.073Z</time></trkpt><trkpt lat="43.3807867" lon="13.35964"><ele>235.6</ele><time>2026-04-18T07:40:55.072Z</time></trkpt><trkpt lat="43.3807033" lon="13.3595133"><ele>236.2</ele><time>2026-04-18T07:40:56.072Z</time></trkpt><trkpt lat="43.38062" lon="13.3594033"><ele>236.8</ele><time>2026-04-18T07:40:57.072Z</time></trkpt><trkpt lat="43.380545" lon="13.3593017"><ele>237.4</ele><time>2026-04-18T07:40:58.072Z</time></trkpt><trkpt lat="43.3804767" lon="13.35921"><ele>238.0</ele><time>2026-04-18T07:40:59.072Z</time></trkpt><trkpt lat="43.380415" lon="13.3591083"><ele>237.0</ele><time>2026-04-18T07:41:00.072Z</time></trkpt><trkpt lat="43.38038" lon="13.3589867"><ele>236.0</ele><time>2026-04-18T07:41:01.072Z</time></trkpt><trkpt lat="43.38036" lon="13.3588583"><ele>235.0</ele><time>2026-04-18T07:41:02.072Z</time></trkpt><trkpt lat="43.3803633" lon="13.3587133"><ele>234.0</ele><time>2026-04-18T07:41:03.072Z</time></trkpt><trkpt lat="43.3803867" lon="13.3585767"><ele>233.0</ele><time>2026-04-18T07:41:04.072Z</time></trkpt><trkpt lat="43.38043" lon="13.358465"><ele>233.00000000000003</ele><time>2026-04-18T07:41:05.072Z</time></trkpt><trkpt lat="43.3804917" lon="13.3583617"><ele>233.0</ele><time>2026-04-18T07:41:06.072Z</time></trkpt><trkpt lat="43.38057" lon="13.3582833"><ele>233.0</ele><time>2026-04-18T07:41:07.072Z</time></trkpt><trkpt lat="43.380655" lon="13.3582267"><ele>233.0</ele><time>2026-04-18T07:41:08.073Z</time></trkpt><trkpt lat="43.380725" lon="13.3581783"><ele>233.00000000000003</ele><time>2026-04-18T07:41:09.072Z</time></trkpt><trkpt lat="43.3807767" lon="13.3581233"><ele>233.0</ele><time>2026-04-18T07:41:10.072Z</time></trkpt><trkpt lat="43.3808167" lon="13.35798"><ele>235.4</ele><time>2026-04-18T07:41:12.072Z</time></trkpt><trkpt lat="43.3808133" lon="13.3578717"><ele>237.8</ele><time>2026-04-18T07:41:13.072Z</time></trkpt><trkpt lat="43.380785" lon="13.3577383"><ele>240.2</ele><time>2026-04-18T07:41:14.072Z</time></trkpt><trkpt lat="43.3807383" lon="13.3575817"><ele>242.6</ele><time>2026-04-18T07:41:15.073Z</time></trkpt><trkpt lat="43.3806933" lon="13.3574133"><ele>245.0</ele><time>2026-04-18T07:41:16.073Z</time></trkpt><trkpt lat="43.3806517" lon="13.35721"><ele>244.66666666666669</ele><time>2026-04-18T07:41:17.073Z</time></trkpt><trkpt lat="43.3806133" lon="13.35699"><ele>244.33333333333331</ele><time>2026-04-18T07:41:18.072Z</time></trkpt><trkpt lat="43.3805617" lon="13.3567833"><ele>244.0</ele><time>2026-04-18T07:41:19.072Z</time></trkpt><trkpt lat="43.380515" lon="13.356605"><ele>244.0</ele><time>2026-04-18T07:41:20.072Z</time></trkpt><trkpt lat="43.3804933" lon="13.35643"><ele>244.0</ele><time>2026-04-18T07:41:21.072Z</time></trkpt><trkpt lat="43.3805017" lon="13.3562617"><ele>244.0</ele><time>2026-04-18T07:41:22.073Z</time></trkpt><trkpt lat="43.3805383" lon="13.3560833"><ele>244.0</ele><time>2026-04-18T07:41:23.072Z</time></trkpt><trkpt lat="43.3806117" lon="13.3558933"><ele>246.66666666666666</ele><time>2026-04-18T07:41:24.072Z</time></trkpt><trkpt lat="43.3807083" lon="13.3556883"><ele>249.33333333333331</ele><time>2026-04-18T07:41:25.072Z</time></trkpt><trkpt lat="43.3808033" lon="13.3554867"><ele>252.0</ele><time>2026-04-18T07:41:26.072Z</time></trkpt><trkpt lat="43.3809017" lon="13.355295"><ele>252.5</ele><time>2026-04-18T07:41:27.072Z</time></trkpt><trkpt lat="43.3809833" lon="13.3551183"><ele>253.0</ele><time>2026-04-18T07:41:28.072Z</time></trkpt><trkpt lat="43.3810517" lon="13.354935"><ele>253.5</ele><time>2026-04-18T07:41:29.072Z</time></trkpt><trkpt lat="43.381095" lon="13.3547417"><ele>254.0</ele><time>2026-04-18T07:41:30.072Z</time></trkpt><trkpt lat="43.3811233" lon="13.354535"><ele>252.0</ele><time>2026-04-18T07:41:31.072Z</time></trkpt><trkpt lat="43.3811517" lon="13.354315"><ele>250.0</ele><time>2026-04-18T07:41:32.072Z</time></trkpt><trkpt lat="43.381175" lon="13.3540967"><ele>248.0</ele><time>2026-04-18T07:41:33.073Z</time></trkpt><trkpt lat="43.3811967" lon="13.35388"><ele>246.66666666666669</ele><time>2026-04-18T07:41:34.072Z</time></trkpt><trkpt lat="43.38122" lon="13.3536617"><ele>245.33333333333331</ele><time>2026-04-18T07:41:35.072Z</time></trkpt><trkpt lat="43.3812267" lon="13.3534483"><ele>244.0</ele><time>2026-04-18T07:41:36.073Z</time></trkpt><trkpt lat="43.3812283" lon="13.3532383"><ele>242.66666666666666</ele><time>2026-04-18T07:41:37.072Z</time></trkpt><trkpt lat="43.38123" lon="13.3530233"><ele>241.33333333333331</ele><time>2026-04-18T07:41:38.073Z</time></trkpt><trkpt lat="43.3812367" lon="13.3528117"><ele>240.0</ele><time>2026-04-18T07:41:39.073Z</time></trkpt><trkpt lat="43.3812417" lon="13.3525933"><ele>240.0</ele><time>2026-04-18T07:41:40.072Z</time></trkpt><trkpt lat="43.3812617" lon="13.3523717"><ele>240.0</ele><time>2026-04-18T07:41:41.072Z</time></trkpt><trkpt lat="43.3813" lon="13.3521617"><ele>240.0</ele><time>2026-04-18T07:41:42.072Z</time></trkpt><trkpt lat="43.3813467" lon="13.3519633"><ele>237.66666666666669</ele><time>2026-04-18T07:41:43.072Z</time></trkpt><trkpt lat="43.38139" lon="13.3517683"><ele>235.33333333333334</ele><time>2026-04-18T07:41:44.072Z</time></trkpt><trkpt lat="43.381425" lon="13.351565"><ele>233.0</ele><time>2026-04-18T07:41:45.072Z</time></trkpt><trkpt lat="43.38144" lon="13.351355"><ele>233.0</ele><time>2026-04-18T07:41:46.072Z</time></trkpt><trkpt lat="43.3814483" lon="13.3511317"><ele>233.0</ele><time>2026-04-18T07:41:47.072Z</time></trkpt><trkpt lat="43.381445" lon="13.3509067"><ele>233.0</ele><time>2026-04-18T07:41:48.073Z</time></trkpt><trkpt lat="43.38144" lon="13.3506767"><ele>233.66666666666669</ele><time>2026-04-18T07:41:49.072Z</time></trkpt><trkpt lat="43.38144" lon="13.350445"><ele>234.33333333333331</ele><time>2026-04-18T07:41:50.072Z</time></trkpt><trkpt lat="43.3814433" lon="13.3502133"><ele>235.0</ele><time>2026-04-18T07:41:51.073Z</time></trkpt><trkpt lat="43.3814467" lon="13.34998"><ele>235.0</ele><time>2026-04-18T07:41:52.072Z</time></trkpt><trkpt lat="43.3814467" lon="13.3497433"><ele>235.0</ele><time>2026-04-18T07:41:53.072Z</time></trkpt><trkpt lat="43.3814483" lon="13.3495117"><ele>235.0</ele><time>2026-04-18T07:41:54.071Z</time></trkpt><trkpt lat="43.3814433" lon="13.3492833"><ele>235.33333333333331</ele><time>2026-04-18T07:41:55.071Z</time></trkpt><trkpt lat="43.3814233" lon="13.3490633"><ele>235.66666666666669</ele><time>2026-04-18T07:41:56.071Z</time></trkpt><trkpt lat="43.38138" lon="13.3488567"><ele>236.0</ele><time>2026-04-18T07:41:57.072Z</time></trkpt><trkpt lat="43.381325" lon="13.3486567"><ele>239.0</ele><time>2026-04-18T07:41:58.071Z</time></trkpt><trkpt lat="43.3812617" lon="13.3484567"><ele>242.0</ele><time>2026-04-18T07:41:59.072Z</time></trkpt><trkpt lat="43.381195" lon="13.3482633"><ele>245.0</ele><time>2026-04-18T07:42:00.071Z</time></trkpt><trkpt lat="43.3811333" lon="13.3480683"><ele>244.0</ele><time>2026-04-18T07:42:01.071Z</time></trkpt><trkpt lat="43.3810583" lon="13.3478783"><ele>243.0</ele><time>2026-04-18T07:42:02.072Z</time></trkpt><trkpt lat="43.3809783" lon="13.3476967"><ele>242.0</ele><time>2026-04-18T07:42:03.071Z</time></trkpt><trkpt lat="43.3808917" lon="13.3475217"><ele>242.0</ele><time>2026-04-18T07:42:04.071Z</time></trkpt><trkpt lat="43.3808067" lon="13.3473467"><ele>242.0</ele><time>2026-04-18T07:42:05.071Z</time></trkpt><trkpt lat="43.38072" lon="13.3471617"><ele>242.0</ele><time>2026-04-18T07:42:06.071Z</time></trkpt><trkpt lat="43.3806317" lon="13.34697"><ele>240.0</ele><time>2026-04-18T07:42:07.071Z</time></trkpt><trkpt lat="43.3805367" lon="13.3467733"><ele>238.0</ele><time>2026-04-18T07:42:08.072Z</time></trkpt><trkpt lat="43.38045" lon="13.3465733"><ele>236.0</ele><time>2026-04-18T07:42:09.072Z</time></trkpt><trkpt lat="43.3803633" lon="13.346375"><ele>235.33333333333334</ele><time>2026-04-18T07:42:10.072Z</time></trkpt><trkpt lat="43.3802767" lon="13.3461733"><ele>234.66666666666669</ele><time>2026-04-18T07:42:11.071Z</time></trkpt><trkpt lat="43.3801883" lon="13.345985"><ele>234.0</ele><time>2026-04-18T07:42:12.072Z</time></trkpt><trkpt lat="43.3801" lon="13.3457817"><ele>234.0</ele><time>2026-04-18T07:42:13.071Z</time></trkpt><trkpt lat="43.3800183" lon="13.3455883"><ele>234.0</ele><time>2026-04-18T07:42:14.071Z</time></trkpt><trkpt lat="43.3799317" lon="13.3453867"><ele>234.0</ele><time>2026-04-18T07:42:15.072Z</time></trkpt><trkpt lat="43.379845" lon="13.3451917"><ele>231.66666666666669</ele><time>2026-04-18T07:42:16.071Z</time></trkpt><trkpt lat="43.3797633" lon="13.344995"><ele>229.33333333333334</ele><time>2026-04-18T07:42:17.071Z</time></trkpt><trkpt lat="43.379675" lon="13.3447867"><ele>227.0</ele><time>2026-04-18T07:42:18.071Z</time></trkpt><trkpt lat="43.3795917" lon="13.34458"><ele>226.33333333333334</ele><time>2026-04-18T07:42:19.071Z</time></trkpt><trkpt lat="43.3795017" lon="13.3443783"><ele>225.66666666666669</ele><time>2026-04-18T07:42:20.071Z</time></trkpt><trkpt lat="43.37941" lon="13.3441667"><ele>225.0</ele><time>2026-04-18T07:42:21.071Z</time></trkpt><trkpt lat="43.3793283" lon="13.343955"><ele>225.0</ele><time>2026-04-18T07:42:22.071Z</time></trkpt><trkpt lat="43.3792417" lon="13.343745"><ele>225.0</ele><time>2026-04-18T07:42:23.072Z</time></trkpt><trkpt lat="43.3791567" lon="13.3435317"><ele>225.0</ele><time>2026-04-18T07:42:24.071Z</time></trkpt><trkpt lat="43.3790717" lon="13.3433167"><ele>225.0</ele><time>2026-04-18T07:42:25.071Z</time></trkpt><trkpt lat="43.378995" lon="13.3431017"><ele>225.0</ele><time>2026-04-18T07:42:26.071Z</time></trkpt><trkpt lat="43.3789167" lon="13.3428883"><ele>225.0</ele><time>2026-04-18T07:42:27.072Z</time></trkpt><trkpt lat="43.37884" lon="13.34268"><ele>225.33333333333331</ele><time>2026-04-18T07:42:28.071Z</time></trkpt><trkpt lat="43.378765" lon="13.3424633"><ele>225.66666666666666</ele><time>2026-04-18T07:42:29.072Z</time></trkpt><trkpt lat="43.3786883" lon="13.34225"><ele>226.0</ele><time>2026-04-18T07:42:30.071Z</time></trkpt><trkpt lat="43.3786233" lon="13.3420367"><ele>227.0</ele><time>2026-04-18T07:42:31.071Z</time></trkpt><trkpt lat="43.3785817" lon="13.34181"><ele>228.0</ele><time>2026-04-18T07:42:32.071Z</time></trkpt><trkpt lat="43.37855" lon="13.34158"><ele>229.0</ele><time>2026-04-18T07:42:33.071Z</time></trkpt><trkpt lat="43.378525" lon="13.341345"><ele>230.0</ele><time>2026-04-18T07:42:34.071Z</time></trkpt><trkpt lat="43.3785" lon="13.341105"><ele>231.0</ele><time>2026-04-18T07:42:35.071Z</time></trkpt><trkpt lat="43.37847" lon="13.3408683"><ele>232.0</ele><time>2026-04-18T07:42:36.071Z</time></trkpt><trkpt lat="43.378425" lon="13.34064"><ele>232.0</ele><time>2026-04-18T07:42:37.071Z</time></trkpt><trkpt lat="43.3783733" lon="13.3404117"><ele>232.0</ele><time>2026-04-18T07:42:38.071Z</time></trkpt><trkpt lat="43.3783167" lon="13.3401833"><ele>232.0</ele><time>2026-04-18T07:42:39.071Z</time></trkpt><trkpt lat="43.3782567" lon="13.3399617"><ele>232.0</ele><time>2026-04-18T07:42:40.072Z</time></trkpt><trkpt lat="43.37819" lon="13.339745"><ele>232.0</ele><time>2026-04-18T07:42:41.071Z</time></trkpt><trkpt lat="43.37812" lon="13.339525"><ele>232.0</ele><time>2026-04-18T07:42:42.071Z</time></trkpt><trkpt lat="43.3780417" lon="13.3393033"><ele>234.0</ele><time>2026-04-18T07:42:43.071Z</time></trkpt><trkpt lat="43.37796" lon="13.3390917"><ele>236.0</ele><time>2026-04-18T07:42:44.072Z</time></trkpt><trkpt lat="43.3778767" lon="13.33889"><ele>238.0</ele><time>2026-04-18T07:42:45.071Z</time></trkpt><trkpt lat="43.3777933" lon="13.3386883"><ele>238.66666666666666</ele><time>2026-04-18T07:42:46.071Z</time></trkpt><trkpt lat="43.377705" lon="13.33849"><ele>239.33333333333331</ele><time>2026-04-18T07:42:47.072Z</time></trkpt><trkpt lat="43.3776067" lon="13.3383"><ele>240.0</ele><time>2026-04-18T07:42:48.071Z</time></trkpt><trkpt lat="43.3775117" lon="13.3381117"><ele>239.66666666666669</ele><time>2026-04-18T07:42:49.071Z</time></trkpt><trkpt lat="43.3774167" lon="13.3379233"><ele>239.33333333333334</ele><time>2026-04-18T07:42:50.071Z</time></trkpt><trkpt lat="43.3773267" lon="13.3377283"><ele>239.0</ele><time>2026-04-18T07:42:51.071Z</time></trkpt><trkpt lat="43.3772367" lon="13.3375317"><ele>241.66666666666669</ele><time>2026-04-18T07:42:52.071Z</time></trkpt><trkpt lat="43.3771583" lon="13.33734"><ele>244.33333333333331</ele><time>2026-04-18T07:42:53.071Z</time></trkpt><trkpt lat="43.3770933" lon="13.3371467"><ele>247.0</ele><time>2026-04-18T07:42:54.071Z</time></trkpt><trkpt lat="43.377045" lon="13.33696"><ele>247.0</ele><time>2026-04-18T07:42:55.071Z</time></trkpt><trkpt lat="43.376995" lon="13.3367617"><ele>247.0</ele><time>2026-04-18T07:42:56.071Z</time></trkpt><trkpt lat="43.37695" lon="13.3365483"><ele>247.0</ele><time>2026-04-18T07:42:57.071Z</time></trkpt><trkpt lat="43.3769033" lon="13.3363317"><ele>245.66666666666666</ele><time>2026-04-18T07:42:58.071Z</time></trkpt><trkpt lat="43.3768383" lon="13.3361033"><ele>244.33333333333331</ele><time>2026-04-18T07:42:59.071Z</time></trkpt><trkpt lat="43.37676" lon="13.3358817"><ele>243.0</ele><time>2026-04-18T07:43:00.071Z</time></trkpt><trkpt lat="43.376685" lon="13.3356783"><ele>242.66666666666669</ele><time>2026-04-18T07:43:01.071Z</time></trkpt><trkpt lat="43.3766" lon="13.3354817"><ele>242.33333333333334</ele><time>2026-04-18T07:43:02.071Z</time></trkpt><trkpt lat="43.3764883" lon="13.3353067"><ele>242.0</ele><time>2026-04-18T07:43:03.071Z</time></trkpt><trkpt lat="43.376365" lon="13.33514"><ele>243.0</ele><time>2026-04-18T07:43:04.072Z</time></trkpt><trkpt lat="43.3762417" lon="13.3349733"><ele>244.0</ele><time>2026-04-18T07:43:05.071Z</time></trkpt><trkpt lat="43.3761217" lon="13.334815"><ele>245.0</ele><time>2026-04-18T07:43:06.071Z</time></trkpt><trkpt lat="43.3760317" lon="13.33464"><ele>246.0</ele><time>2026-04-18T07:43:07.071Z</time></trkpt><trkpt lat="43.3759467" lon="13.3344417"><ele>247.0</ele><time>2026-04-18T07:43:08.071Z</time></trkpt><trkpt lat="43.3758733" lon="13.3342217"><ele>248.0</ele><time>2026-04-18T07:43:09.071Z</time></trkpt><trkpt lat="43.375815" lon="13.33401"><ele>247.33333333333334</ele><time>2026-04-18T07:43:10.071Z</time></trkpt><trkpt lat="43.3757517" lon="13.333805"><ele>246.66666666666669</ele><time>2026-04-18T07:43:11.071Z</time></trkpt><trkpt lat="43.3756883" lon="13.3335867"><ele>246.0</ele><time>2026-04-18T07:43:12.071Z</time></trkpt><trkpt lat="43.37561" lon="13.33337"><ele>246.0</ele><time>2026-04-18T07:43:13.071Z</time></trkpt><trkpt lat="43.3755283" lon="13.333155"><ele>246.0</ele><time>2026-04-18T07:43:14.071Z</time></trkpt><trkpt lat="43.3754383" lon="13.3329517"><ele>246.0</ele><time>2026-04-18T07:43:15.072Z</time></trkpt><trkpt lat="43.3753583" lon="13.3327433"><ele>245.33333333333331</ele><time>2026-04-18T07:43:16.071Z</time></trkpt><trkpt lat="43.3752717" lon="13.3325333"><ele>244.66666666666666</ele><time>2026-04-18T07:43:17.071Z</time></trkpt><trkpt lat="43.3751783" lon="13.3323283"><ele>244.0</ele><time>2026-04-18T07:43:18.071Z</time></trkpt><trkpt lat="43.3750783" lon="13.3321283"><ele>244.0</ele><time>2026-04-18T07:43:19.071Z</time></trkpt><trkpt lat="43.3749783" lon="13.3319317"><ele>244.0</ele><time>2026-04-18T07:43:20.071Z</time></trkpt><trkpt lat="43.37488" lon="13.3317333"><ele>244.0</ele><time>2026-04-18T07:43:21.071Z</time></trkpt><trkpt lat="43.3747633" lon="13.33156"><ele>244.0</ele><time>2026-04-18T07:43:22.071Z</time></trkpt><trkpt lat="43.3746333" lon="13.3313917"><ele>244.0</ele><time>2026-04-18T07:43:23.071Z</time></trkpt><trkpt lat="43.3744917" lon="13.3312383"><ele>244.0</ele><time>2026-04-18T07:43:24.071Z</time></trkpt><trkpt lat="43.37436" lon="13.3310917"><ele>244.0</ele><time>2026-04-18T07:43:25.071Z</time></trkpt><trkpt lat="43.3742317" lon="13.3309417"><ele>244.0</ele><time>2026-04-18T07:43:26.072Z</time></trkpt><trkpt lat="43.3740983" lon="13.330795"><ele>244.0</ele><time>2026-04-18T07:43:27.071Z</time></trkpt><trkpt lat="43.3739617" lon="13.3306517"><ele>246.0</ele><time>2026-04-18T07:43:28.071Z</time></trkpt><trkpt lat="43.3738233" lon="13.3305117"><ele>248.0</ele><time>2026-04-18T07:43:29.071Z</time></trkpt><trkpt lat="43.3736717" lon="13.3303817"><ele>250.0</ele><time>2026-04-18T07:43:30.071Z</time></trkpt><trkpt lat="43.37352" lon="13.3302617"><ele>250.0</ele><time>2026-04-18T07:43:31.072Z</time></trkpt><trkpt lat="43.3733683" lon="13.3301433"><ele>250.0</ele><time>2026-04-18T07:43:32.071Z</time></trkpt><trkpt lat="43.3732183" lon="13.3300117"><ele>250.0</ele><time>2026-04-18T07:43:33.071Z</time></trkpt><trkpt lat="43.373085" lon="13.3298617"><ele>252.66666666666666</ele><time>2026-04-18T07:43:34.071Z</time></trkpt><trkpt lat="43.37296" lon="13.329685"><ele>255.33333333333331</ele><time>2026-04-18T07:43:35.071Z</time></trkpt><trkpt lat="43.3728467" lon="13.329495"><ele>258.0</ele><time>2026-04-18T07:43:36.071Z</time></trkpt><trkpt lat="43.3727583" lon="13.3292817"><ele>258.0</ele><time>2026-04-18T07:43:37.072Z</time></trkpt><trkpt lat="43.3726667" lon="13.32907"><ele>258.0</ele><time>2026-04-18T07:43:38.072Z</time></trkpt><trkpt lat="43.3725767" lon="13.3288617"><ele>258.0</ele><time>2026-04-18T07:43:39.071Z</time></trkpt><trkpt lat="43.3725" lon="13.3286583"><ele>258.25</ele><time>2026-04-18T07:43:40.071Z</time></trkpt><trkpt lat="43.3724333" lon="13.3284783"><ele>258.5</ele><time>2026-04-18T07:43:41.071Z</time></trkpt><trkpt lat="43.37237" lon="13.3283233"><ele>258.75</ele><time>2026-04-18T07:43:42.071Z</time></trkpt><trkpt lat="43.3723167" lon="13.32817"><ele>259.0</ele><time>2026-04-18T07:43:43.071Z</time></trkpt><trkpt lat="43.372265" lon="13.3280033"><ele>259.25</ele><time>2026-04-18T07:43:44.071Z</time></trkpt><trkpt lat="43.3722217" lon="13.3278333"><ele>259.5</ele><time>2026-04-18T07:43:45.071Z</time></trkpt><trkpt lat="43.37218" lon="13.3276467"><ele>259.75</ele><time>2026-04-18T07:43:46.071Z</time></trkpt><trkpt lat="43.3721283" lon="13.32745"><ele>260.0</ele><time>2026-04-18T07:43:47.071Z</time></trkpt><trkpt lat="43.3720717" lon="13.3272417"><ele>258.0</ele><time>2026-04-18T07:43:48.071Z</time></trkpt><trkpt lat="43.3720217" lon="13.3270033"><ele>256.0</ele><time>2026-04-18T07:43:49.072Z</time></trkpt><trkpt lat="43.3719617" lon="13.3267567"><ele>254.0</ele><time>2026-04-18T07:43:50.071Z</time></trkpt><trkpt lat="43.3718983" lon="13.32651"><ele>253.0</ele><time>2026-04-18T07:43:51.071Z</time></trkpt><trkpt lat="43.37183" lon="13.3262817"><ele>252.0</ele><time>2026-04-18T07:43:52.071Z</time></trkpt><trkpt lat="43.3717817" lon="13.3260667"><ele>251.0</ele><time>2026-04-18T07:43:53.071Z</time></trkpt><trkpt lat="43.3717417" lon="13.3258433"><ele>251.0</ele><time>2026-04-18T07:43:54.071Z</time></trkpt><trkpt lat="43.3717083" lon="13.3256167"><ele>251.0</ele><time>2026-04-18T07:43:55.071Z</time></trkpt><trkpt lat="43.371675" lon="13.325385"><ele>251.0</ele><time>2026-04-18T07:43:56.071Z</time></trkpt><trkpt lat="43.3716483" lon="13.3251567"><ele>251.33333333333334</ele><time>2026-04-18T07:43:57.071Z</time></trkpt><trkpt lat="43.37162" lon="13.3249267"><ele>251.66666666666669</ele><time>2026-04-18T07:43:58.071Z</time></trkpt><trkpt lat="43.37159" lon="13.32471"><ele>252.0</ele><time>2026-04-18T07:43:59.072Z</time></trkpt><trkpt lat="43.3715567" lon="13.324495"><ele>252.5</ele><time>2026-04-18T07:44:00.071Z</time></trkpt><trkpt lat="43.37151" lon="13.3242933"><ele>253.0</ele><time>2026-04-18T07:44:01.072Z</time></trkpt><trkpt lat="43.3714533" lon="13.3241017"><ele>253.5</ele><time>2026-04-18T07:44:02.072Z</time></trkpt><trkpt lat="43.3713883" lon="13.323925"><ele>254.0</ele><time>2026-04-18T07:44:03.072Z</time></trkpt><trkpt lat="43.371315" lon="13.3237567"><ele>255.33333333333334</ele><time>2026-04-18T07:44:04.072Z</time></trkpt><trkpt lat="43.371225" lon="13.32358"><ele>256.6666666666667</ele><time>2026-04-18T07:44:05.071Z</time></trkpt><trkpt lat="43.3711283" lon="13.3234117"><ele>258.0</ele><time>2026-04-18T07:44:06.071Z</time></trkpt><trkpt lat="43.3710183" lon="13.323235"><ele>258.0</ele><time>2026-04-18T07:44:07.071Z</time></trkpt><trkpt lat="43.3709083" lon="13.3230717"><ele>258.0</ele><time>2026-04-18T07:44:08.071Z</time></trkpt><trkpt lat="43.3708" lon="13.3229083"><ele>258.0</ele><time>2026-04-18T07:44:09.072Z</time></trkpt><trkpt lat="43.3706967" lon="13.3227517"><ele>258.3333333333333</ele><time>2026-04-18T07:44:10.072Z</time></trkpt><trkpt lat="43.3705933" lon="13.32259"><ele>258.66666666666663</ele><time>2026-04-18T07:44:11.071Z</time></trkpt><trkpt lat="43.3704983" lon="13.32242"><ele>259.0</ele><time>2026-04-18T07:44:12.071Z</time></trkpt><trkpt lat="43.3704017" lon="13.3222467"><ele>259.75</ele><time>2026-04-18T07:44:13.072Z</time></trkpt><trkpt lat="43.3703217" lon="13.3220833"><ele>260.5</ele><time>2026-04-18T07:44:14.071Z</time></trkpt><trkpt lat="43.3702467" lon="13.3219167"><ele>261.25</ele><time>2026-04-18T07:44:15.072Z</time></trkpt><trkpt lat="43.3701783" lon="13.3217533"><ele>262.0</ele><time>2026-04-18T07:44:16.071Z</time></trkpt><trkpt lat="43.3701217" lon="13.3215767"><ele>261.25</ele><time>2026-04-18T07:44:17.072Z</time></trkpt><trkpt lat="43.3700667" lon="13.3213967"><ele>260.5</ele><time>2026-04-18T07:44:18.072Z</time></trkpt><trkpt lat="43.3700033" lon="13.32121"><ele>259.75</ele><time>2026-04-18T07:44:19.071Z</time></trkpt><trkpt lat="43.36994" lon="13.3210267"><ele>259.0</ele><time>2026-04-18T07:44:20.071Z</time></trkpt><trkpt lat="43.36988" lon="13.3208517"><ele>259.0</ele><time>2026-04-18T07:44:21.072Z</time></trkpt><trkpt lat="43.3698317" lon="13.320675"><ele>259.0</ele><time>2026-04-18T07:44:22.071Z</time></trkpt><trkpt lat="43.3698" lon="13.3205017"><ele>259.0</ele><time>2026-04-18T07:44:23.071Z</time></trkpt><trkpt lat="43.36978" lon="13.3203083"><ele>259.0</ele><time>2026-04-18T07:44:24.071Z</time></trkpt><trkpt lat="43.3697783" lon="13.3201067"><ele>258.3333333333333</ele><time>2026-04-18T07:44:25.071Z</time></trkpt><trkpt lat="43.3697867" lon="13.3198917"><ele>257.6666666666667</ele><time>2026-04-18T07:44:26.071Z</time></trkpt><trkpt lat="43.3697917" lon="13.3196717"><ele>257.0</ele><time>2026-04-18T07:44:27.071Z</time></trkpt><trkpt lat="43.3697817" lon="13.319445"><ele>257.0</ele><time>2026-04-18T07:44:28.071Z</time></trkpt><trkpt lat="43.36977" lon="13.3192233"><ele>257.0</ele><time>2026-04-18T07:44:29.071Z</time></trkpt><trkpt lat="43.36975" lon="13.3190017"><ele>257.0</ele><time>2026-04-18T07:44:30.071Z</time></trkpt><trkpt lat="43.3697167" lon="13.31879"><ele>256.33333333333337</ele><time>2026-04-18T07:44:31.072Z</time></trkpt><trkpt lat="43.3696817" lon="13.31858"><ele>255.66666666666669</ele><time>2026-04-18T07:44:32.071Z</time></trkpt><trkpt lat="43.3696433" lon="13.3183733"><ele>255.0</ele><time>2026-04-18T07:44:33.072Z</time></trkpt><trkpt lat="43.369605" lon="13.3181683"><ele>255.0</ele><time>2026-04-18T07:44:34.072Z</time></trkpt><trkpt lat="43.3695717" lon="13.3179617"><ele>255.0</ele><time>2026-04-18T07:44:35.071Z</time></trkpt><trkpt lat="43.3695367" lon="13.3177533"><ele>255.0</ele><time>2026-04-18T07:44:36.071Z</time></trkpt><trkpt lat="43.3695017" lon="13.3175567"><ele>255.0</ele><time>2026-04-18T07:44:37.071Z</time></trkpt><trkpt lat="43.3694717" lon="13.317355"><ele>255.0</ele><time>2026-04-18T07:44:38.071Z</time></trkpt><trkpt lat="43.3694367" lon="13.3171633"><ele>255.0</ele><time>2026-04-18T07:44:39.071Z</time></trkpt><trkpt lat="43.3693917" lon="13.3169717"><ele>255.0</ele><time>2026-04-18T07:44:40.071Z</time></trkpt><trkpt lat="43.3693417" lon="13.3167783"><ele>254.75</ele><time>2026-04-18T07:44:41.072Z</time></trkpt><trkpt lat="43.3692833" lon="13.3165967"><ele>254.5</ele><time>2026-04-18T07:44:42.072Z</time></trkpt><trkpt lat="43.3692117" lon="13.3164133"><ele>254.25</ele><time>2026-04-18T07:44:43.071Z</time></trkpt><trkpt lat="43.3691317" lon="13.3162333"><ele>254.0</ele><time>2026-04-18T07:44:44.071Z</time></trkpt><trkpt lat="43.3690433" lon="13.31606"><ele>252.0</ele><time>2026-04-18T07:44:45.072Z</time></trkpt><trkpt lat="43.3689617" lon="13.3158833"><ele>250.0</ele><time>2026-04-18T07:44:46.071Z</time></trkpt><trkpt lat="43.3688833" lon="13.3157083"><ele>248.0</ele><time>2026-04-18T07:44:47.071Z</time></trkpt><trkpt lat="43.368795" lon="13.3155217"><ele>247.66666666666669</ele><time>2026-04-18T07:44:48.071Z</time></trkpt><trkpt lat="43.36871" lon="13.3153467"><ele>247.33333333333331</ele><time>2026-04-18T07:44:49.071Z</time></trkpt><trkpt lat="43.3686283" lon="13.3151583"><ele>247.0</ele><time>2026-04-18T07:44:50.071Z</time></trkpt><trkpt lat="43.368545" lon="13.3149617"><ele>247.0</ele><time>2026-04-18T07:44:51.071Z</time></trkpt><trkpt lat="43.3684717" lon="13.314775"><ele>247.0</ele><time>2026-04-18T07:44:52.072Z</time></trkpt><trkpt lat="43.3684117" lon="13.31459"><ele>247.0</ele><time>2026-04-18T07:44:53.071Z</time></trkpt><trkpt lat="43.3683583" lon="13.3143983"><ele>245.75</ele><time>2026-04-18T07:44:54.071Z</time></trkpt><trkpt lat="43.3683083" lon="13.3142183"><ele>244.5</ele><time>2026-04-18T07:44:55.072Z</time></trkpt><trkpt lat="43.36825" lon="13.3140317"><ele>243.25</ele><time>2026-04-18T07:44:56.071Z</time></trkpt><trkpt lat="43.3682" lon="13.313845"><ele>242.0</ele><time>2026-04-18T07:44:57.071Z</time></trkpt><trkpt lat="43.368145" lon="13.3136617"><ele>242.5</ele><time>2026-04-18T07:44:58.071Z</time></trkpt><trkpt lat="43.3680917" lon="13.3134817"><ele>243.0</ele><time>2026-04-18T07:44:59.071Z</time></trkpt><trkpt lat="43.3680433" lon="13.3132983"><ele>243.5</ele><time>2026-04-18T07:45:00.071Z</time></trkpt><trkpt lat="43.3680083" lon="13.313105"><ele>244.0</ele><time>2026-04-18T07:45:01.071Z</time></trkpt><trkpt lat="43.3679867" lon="13.31291"><ele>244.0</ele><time>2026-04-18T07:45:02.072Z</time></trkpt><trkpt lat="43.3679633" lon="13.31271"><ele>244.0</ele><time>2026-04-18T07:45:03.072Z</time></trkpt><trkpt lat="43.3679433" lon="13.312525"><ele>244.0</ele><time>2026-04-18T07:45:04.071Z</time></trkpt><trkpt lat="43.367905" lon="13.31234"><ele>244.0</ele><time>2026-04-18T07:45:05.071Z</time></trkpt><trkpt lat="43.3678667" lon="13.3121583"><ele>243.25</ele><time>2026-04-18T07:45:06.071Z</time></trkpt><trkpt lat="43.3678217" lon="13.31198"><ele>242.5</ele><time>2026-04-18T07:45:07.071Z</time></trkpt><trkpt lat="43.3677733" lon="13.3117917"><ele>241.75</ele><time>2026-04-18T07:45:08.071Z</time></trkpt><trkpt lat="43.3677283" lon="13.3116067"><ele>241.0</ele><time>2026-04-18T07:45:09.071Z</time></trkpt><trkpt lat="43.3676733" lon="13.311425"><ele>239.75</ele><time>2026-04-18T07:45:10.071Z</time></trkpt><trkpt lat="43.3676217" lon="13.31125"><ele>238.5</ele><time>2026-04-18T07:45:11.071Z</time></trkpt><trkpt lat="43.36757" lon="13.31107"><ele>237.25</ele><time>2026-04-18T07:45:12.071Z</time></trkpt><trkpt lat="43.367515" lon="13.3108933"><ele>236.0</ele><time>2026-04-18T07:45:13.071Z</time></trkpt><trkpt lat="43.36745" lon="13.3107333"><ele>236.0</ele><time>2026-04-18T07:45:14.072Z</time></trkpt><trkpt lat="43.3673717" lon="13.310605"><ele>236.0</ele><time>2026-04-18T07:45:15.072Z</time></trkpt><trkpt lat="43.3672817" lon="13.3104833"><ele>236.0</ele><time>2026-04-18T07:45:16.071Z</time></trkpt><trkpt lat="43.3671917" lon="13.310365"><ele>236.0</ele><time>2026-04-18T07:45:17.071Z</time></trkpt><trkpt lat="43.3670933" lon="13.3102567"><ele>236.5</ele><time>2026-04-18T07:45:18.071Z</time></trkpt><trkpt lat="43.3669867" lon="13.3101567"><ele>237.0</ele><time>2026-04-18T07:45:19.071Z</time></trkpt><trkpt lat="43.36688" lon="13.3100533"><ele>237.5</ele><time>2026-04-18T07:45:20.071Z</time></trkpt><trkpt lat="43.3667767" lon="13.30995"><ele>238.0</ele><time>2026-04-18T07:45:21.071Z</time></trkpt><trkpt lat="43.3666683" lon="13.3098417"><ele>238.0</ele><time>2026-04-18T07:45:22.072Z</time></trkpt><trkpt lat="43.36656" lon="13.309745"><ele>238.0</ele><time>2026-04-18T07:45:23.071Z</time></trkpt><trkpt lat="43.3664483" lon="13.309635"><ele>238.0</ele><time>2026-04-18T07:45:24.071Z</time></trkpt><trkpt lat="43.3663367" lon="13.3095167"><ele>238.0</ele><time>2026-04-18T07:45:25.071Z</time></trkpt><trkpt lat="43.3662233" lon="13.3094033"><ele>236.0</ele><time>2026-04-18T07:45:26.071Z</time></trkpt><trkpt lat="43.3661017" lon="13.309295"><ele>234.0</ele><time>2026-04-18T07:45:27.071Z</time></trkpt><trkpt lat="43.3659867" lon="13.309175"><ele>232.0</ele><time>2026-04-18T07:45:28.071Z</time></trkpt><trkpt lat="43.3658717" lon="13.309055"><ele>230.0</ele><time>2026-04-18T07:45:29.071Z</time></trkpt><trkpt lat="43.3657533" lon="13.30894"><ele>229.75</ele><time>2026-04-18T07:45:30.071Z</time></trkpt><trkpt lat="43.3656333" lon="13.3088317"><ele>229.5</ele><time>2026-04-18T07:45:31.071Z</time></trkpt><trkpt lat="43.3655117" lon="13.3087267"><ele>229.25</ele><time>2026-04-18T07:45:32.071Z</time></trkpt><trkpt lat="43.365385" lon="13.3086283"><ele>229.0</ele><time>2026-04-18T07:45:33.071Z</time></trkpt><trkpt lat="43.3652583" lon="13.3085417"><ele>228.5</ele><time>2026-04-18T07:45:34.071Z</time></trkpt><trkpt lat="43.3651317" lon="13.3084767"><ele>228.0</ele><time>2026-04-18T07:45:35.071Z</time></trkpt><trkpt lat="43.3650083" lon="13.308405"><ele>227.5</ele><time>2026-04-18T07:45:36.071Z</time></trkpt><trkpt lat="43.3648933" lon="13.3083133"><ele>227.0</ele><time>2026-04-18T07:45:37.071Z</time></trkpt><trkpt lat="43.364795" lon="13.30819"><ele>227.0</ele><time>2026-04-18T07:45:38.071Z</time></trkpt><trkpt lat="43.36471" lon="13.30805"><ele>227.0</ele><time>2026-04-18T07:45:39.071Z</time></trkpt><trkpt lat="43.3646433" lon="13.30789"><ele>227.0</ele><time>2026-04-18T07:45:40.071Z</time></trkpt><trkpt lat="43.3645717" lon="13.3077317"><ele>227.0</ele><time>2026-04-18T07:45:41.072Z</time></trkpt><trkpt lat="43.3645" lon="13.3075767"><ele>227.5</ele><time>2026-04-18T07:45:42.072Z</time></trkpt><trkpt lat="43.3644283" lon="13.3074133"><ele>228.0</ele><time>2026-04-18T07:45:43.071Z</time></trkpt><trkpt lat="43.3643567" lon="13.3072517"><ele>228.5</ele><time>2026-04-18T07:45:44.072Z</time></trkpt><trkpt lat="43.364285" lon="13.307075"><ele>229.0</ele><time>2026-04-18T07:45:45.071Z</time></trkpt><trkpt lat="43.364215" lon="13.3069067"><ele>229.0</ele><time>2026-04-18T07:45:46.072Z</time></trkpt><trkpt lat="43.36414" lon="13.306745"><ele>229.0</ele><time>2026-04-18T07:45:47.071Z</time></trkpt><trkpt lat="43.3640617" lon="13.3065833"><ele>229.0</ele><time>2026-04-18T07:45:48.071Z</time></trkpt><trkpt lat="43.363975" lon="13.3064333"><ele>229.0</ele><time>2026-04-18T07:45:49.072Z</time></trkpt><trkpt lat="43.36389" lon="13.3063033"><ele>230.2</ele><time>2026-04-18T07:45:50.071Z</time></trkpt><trkpt lat="43.3638117" lon="13.3061883"><ele>231.39999999999998</ele><time>2026-04-18T07:45:51.071Z</time></trkpt><trkpt lat="43.36376" lon="13.30607"><ele>232.6</ele><time>2026-04-18T07:45:52.071Z</time></trkpt><trkpt lat="43.3637333" lon="13.3059567"><ele>233.8</ele><time>2026-04-18T07:45:53.072Z</time></trkpt><trkpt lat="43.36373" lon="13.3058367"><ele>235.0</ele><time>2026-04-18T07:45:54.071Z</time></trkpt><trkpt lat="43.363765" lon="13.3057267"><ele>235.0</ele><time>2026-04-18T07:45:55.071Z</time></trkpt><trkpt lat="43.3638267" lon="13.30562"><ele>235.0</ele><time>2026-04-18T07:45:56.071Z</time></trkpt><trkpt lat="43.36391" lon="13.3055067"><ele>235.0</ele><time>2026-04-18T07:45:57.071Z</time></trkpt><trkpt lat="43.3640067" lon="13.3053767"><ele>235.0</ele><time>2026-04-18T07:45:58.071Z</time></trkpt><trkpt lat="43.3640983" lon="13.3052317"><ele>235.8</ele><time>2026-04-18T07:45:59.071Z</time></trkpt><trkpt lat="43.3641767" lon="13.305105"><ele>236.6</ele><time>2026-04-18T07:46:00.071Z</time></trkpt><trkpt lat="43.36424" lon="13.305005"><ele>237.39999999999998</ele><time>2026-04-18T07:46:01.072Z</time></trkpt><trkpt lat="43.3642967" lon="13.3049033"><ele>238.2</ele><time>2026-04-18T07:46:02.071Z</time></trkpt><trkpt lat="43.3643317" lon="13.3047933"><ele>239.0</ele><time>2026-04-18T07:46:03.071Z</time></trkpt><trkpt lat="43.3643383" lon="13.304685"><ele>240.39999999999998</ele><time>2026-04-18T07:46:04.071Z</time></trkpt><trkpt lat="43.3643267" lon="13.3045833"><ele>241.79999999999998</ele><time>2026-04-18T07:46:05.071Z</time></trkpt><trkpt lat="43.3643033" lon="13.3044817"><ele>243.20000000000002</ele><time>2026-04-18T07:46:06.072Z</time></trkpt><trkpt lat="43.3642683" lon="13.3043667"><ele>244.60000000000002</ele><time>2026-04-18T07:46:07.071Z</time></trkpt><trkpt lat="43.364225" lon="13.3042317"><ele>246.0</ele><time>2026-04-18T07:46:08.071Z</time></trkpt><trkpt lat="43.36417" lon="13.3041033"><ele>246.0</ele><time>2026-04-18T07:46:09.071Z</time></trkpt><trkpt lat="43.3641217" lon="13.30397"><ele>246.00000000000003</ele><time>2026-04-18T07:46:10.071Z</time></trkpt><trkpt lat="43.364065" lon="13.3038333"><ele>246.00000000000003</ele><time>2026-04-18T07:46:11.072Z</time></trkpt><trkpt lat="43.3640067" lon="13.3037017"><ele>246.0</ele><time>2026-04-18T07:46:12.072Z</time></trkpt><trkpt lat="43.3639517" lon="13.3035667"><ele>246.0</ele><time>2026-04-18T07:46:13.072Z</time></trkpt><trkpt lat="43.3638967" lon="13.3034283"><ele>245.75</ele><time>2026-04-18T07:46:14.071Z</time></trkpt><trkpt lat="43.363835" lon="13.3032817"><ele>245.5</ele><time>2026-04-18T07:46:15.071Z</time></trkpt><trkpt lat="43.3637717" lon="13.30313"><ele>245.25</ele><time>2026-04-18T07:46:16.071Z</time></trkpt><trkpt lat="43.3637117" lon="13.3029717"><ele>245.0</ele><time>2026-04-18T07:46:17.072Z</time></trkpt><trkpt lat="43.36365" lon="13.3028183"><ele>245.0</ele><time>2026-04-18T07:46:18.071Z</time></trkpt><trkpt lat="43.36359" lon="13.3026683"><ele>245.0</ele><time>2026-04-18T07:46:19.071Z</time></trkpt><trkpt lat="43.3635167" lon="13.3025233"><ele>245.0</ele><time>2026-04-18T07:46:20.071Z</time></trkpt><trkpt lat="43.363455" lon="13.302355"><ele>245.0</ele><time>2026-04-18T07:46:21.071Z</time></trkpt><trkpt lat="43.3633917" lon="13.3021783"><ele>244.66666666666669</ele><time>2026-04-18T07:46:22.071Z</time></trkpt><trkpt lat="43.363315" lon="13.3019917"><ele>244.33333333333331</ele><time>2026-04-18T07:46:23.071Z</time></trkpt><trkpt lat="43.3632283" lon="13.301775"><ele>244.0</ele><time>2026-04-18T07:46:24.071Z</time></trkpt><trkpt lat="43.36314" lon="13.3015567"><ele>244.0</ele><time>2026-04-18T07:46:25.071Z</time></trkpt><trkpt lat="43.36306" lon="13.3013467"><ele>244.0</ele><time>2026-04-18T07:46:26.071Z</time></trkpt><trkpt lat="43.36299" lon="13.3011433"><ele>244.0</ele><time>2026-04-18T07:46:27.071Z</time></trkpt><trkpt lat="43.3629167" lon="13.3009367"><ele>244.0</ele><time>2026-04-18T07:46:28.071Z</time></trkpt><trkpt lat="43.3628433" lon="13.30073"><ele>244.0</ele><time>2026-04-18T07:46:29.071Z</time></trkpt><trkpt lat="43.3627683" lon="13.30053"><ele>244.0</ele><time>2026-04-18T07:46:30.071Z</time></trkpt><trkpt lat="43.3626933" lon="13.3003317"><ele>244.66666666666666</ele><time>2026-04-18T07:46:31.071Z</time></trkpt><trkpt lat="43.3626183" lon="13.30014"><ele>245.33333333333331</ele><time>2026-04-18T07:46:32.071Z</time></trkpt><trkpt lat="43.3625467" lon="13.2999483"><ele>246.0</ele><time>2026-04-18T07:46:33.071Z</time></trkpt><trkpt lat="43.3624733" lon="13.2997633"><ele>245.5</ele><time>2026-04-18T07:46:34.071Z</time></trkpt><trkpt lat="43.3624017" lon="13.299585"><ele>245.0</ele><time>2026-04-18T07:46:35.071Z</time></trkpt><trkpt lat="43.3623333" lon="13.299405"><ele>244.5</ele><time>2026-04-18T07:46:36.072Z</time></trkpt><trkpt lat="43.3622683" lon="13.299235"><ele>244.0</ele><time>2026-04-18T07:46:37.072Z</time></trkpt><trkpt lat="43.3622" lon="13.2990683"><ele>246.0</ele><time>2026-04-18T07:46:38.071Z</time></trkpt><trkpt lat="43.362135" lon="13.298915"><ele>248.0</ele><time>2026-04-18T07:46:39.071Z</time></trkpt><trkpt lat="43.3620783" lon="13.298775"><ele>250.0</ele><time>2026-04-18T07:46:40.071Z</time></trkpt><trkpt lat="43.36202" lon="13.2986467"><ele>252.0</ele><time>2026-04-18T07:46:41.071Z</time></trkpt><trkpt lat="43.3619633" lon="13.2985233"><ele>252.0</ele><time>2026-04-18T07:46:42.071Z</time></trkpt><trkpt lat="43.3619033" lon="13.2984033"><ele>252.0</ele><time>2026-04-18T07:46:43.072Z</time></trkpt><trkpt lat="43.36185" lon="13.298275"><ele>252.0</ele><time>2026-04-18T07:46:44.071Z</time></trkpt><trkpt lat="43.3617983" lon="13.2981367"><ele>252.0</ele><time>2026-04-18T07:46:45.071Z</time></trkpt><trkpt lat="43.3617433" lon="13.2979983"><ele>252.0</ele><time>2026-04-18T07:46:46.072Z</time></trkpt><trkpt lat="43.3616933" lon="13.2978583"><ele>251.75</ele><time>2026-04-18T07:46:47.071Z</time></trkpt><trkpt lat="43.3616433" lon="13.29772"><ele>251.5</ele><time>2026-04-18T07:46:48.071Z</time></trkpt><trkpt lat="43.3615817" lon="13.2975783"><ele>251.25</ele><time>2026-04-18T07:46:49.072Z</time></trkpt><trkpt lat="43.36153" lon="13.2974383"><ele>251.0</ele><time>2026-04-18T07:46:50.071Z</time></trkpt><trkpt lat="43.3614783" lon="13.2972867"><ele>251.0</ele><time>2026-04-18T07:46:51.071Z</time></trkpt><trkpt lat="43.3614217" lon="13.29713"><ele>251.0</ele><time>2026-04-18T07:46:52.071Z</time></trkpt><trkpt lat="43.36136" lon="13.29698"><ele>251.0</ele><time>2026-04-18T07:46:53.071Z</time></trkpt><trkpt lat="43.3613033" lon="13.2968267"><ele>251.0</ele><time>2026-04-18T07:46:54.071Z</time></trkpt><trkpt lat="43.3612433" lon="13.2966533"><ele>251.75</ele><time>2026-04-18T07:46:55.071Z</time></trkpt><trkpt lat="43.3611883" lon="13.29648"><ele>252.5</ele><time>2026-04-18T07:46:56.071Z</time></trkpt><trkpt lat="43.3611433" lon="13.296305"><ele>253.25</ele><time>2026-04-18T07:46:57.071Z</time></trkpt><trkpt lat="43.3611" lon="13.296135"><ele>254.0</ele><time>2026-04-18T07:46:58.071Z</time></trkpt><trkpt lat="43.3610717" lon="13.2959533"><ele>254.0</ele><time>2026-04-18T07:46:59.071Z</time></trkpt><trkpt lat="43.3610583" lon="13.2957667"><ele>254.0</ele><time>2026-04-18T07:47:00.071Z</time></trkpt><trkpt lat="43.3610433" lon="13.2955667"><ele>254.0</ele><time>2026-04-18T07:47:01.072Z</time></trkpt><trkpt lat="43.361025" lon="13.295365"><ele>254.0</ele><time>2026-04-18T07:47:02.071Z</time></trkpt><trkpt lat="43.361" lon="13.2951533"><ele>254.0</ele><time>2026-04-18T07:47:03.071Z</time></trkpt><trkpt lat="43.360975" lon="13.29494"><ele>254.0</ele><time>2026-04-18T07:47:04.071Z</time></trkpt><trkpt lat="43.3609567" lon="13.2947283"><ele>254.0</ele><time>2026-04-18T07:47:05.072Z</time></trkpt><trkpt lat="43.36093" lon="13.2945167"><ele>254.33333333333334</ele><time>2026-04-18T07:47:06.071Z</time></trkpt><trkpt lat="43.3608867" lon="13.294315"><ele>254.66666666666669</ele><time>2026-04-18T07:47:07.071Z</time></trkpt><trkpt lat="43.3608383" lon="13.294105"><ele>255.0</ele><time>2026-04-18T07:47:08.071Z</time></trkpt><trkpt lat="43.3607883" lon="13.2938967"><ele>256.0</ele><time>2026-04-18T07:47:09.071Z</time></trkpt><trkpt lat="43.3607383" lon="13.2936833"><ele>257.0</ele><time>2026-04-18T07:47:10.07Z</time></trkpt><trkpt lat="43.3606817" lon="13.2934767"><ele>258.0</ele><time>2026-04-18T07:47:11.07Z</time></trkpt><trkpt lat="43.360635" lon="13.2932867"><ele>258.0</ele><time>2026-04-18T07:47:12.07Z</time></trkpt><trkpt lat="43.3605967" lon="13.2931083"><ele>258.0</ele><time>2026-04-18T07:47:13.071Z</time></trkpt><trkpt lat="43.3605467" lon="13.2929283"><ele>258.0</ele><time>2026-04-18T07:47:14.07Z</time></trkpt><trkpt lat="43.360495" lon="13.2927383"><ele>258.0</ele><time>2026-04-18T07:47:15.07Z</time></trkpt><trkpt lat="43.3604417" lon="13.2925617"><ele>259.25</ele><time>2026-04-18T07:47:16.07Z</time></trkpt><trkpt lat="43.36039" lon="13.292375"><ele>260.5</ele><time>2026-04-18T07:47:17.07Z</time></trkpt><trkpt lat="43.3603383" lon="13.2921917"><ele>261.75</ele><time>2026-04-18T07:47:18.07Z</time></trkpt><trkpt lat="43.36029" lon="13.292005"><ele>263.0</ele><time>2026-04-18T07:47:19.07Z</time></trkpt><trkpt lat="43.36022" lon="13.2918383"><ele>263.0</ele><time>2026-04-18T07:47:20.07Z</time></trkpt><trkpt lat="43.36014" lon="13.2916667"><ele>263.0</ele><time>2026-04-18T07:47:21.07Z</time></trkpt><trkpt lat="43.360045" lon="13.291505"><ele>263.0</ele><time>2026-04-18T07:47:22.07Z</time></trkpt><trkpt lat="43.3599333" lon="13.2913583"><ele>262.5</ele><time>2026-04-18T07:47:23.07Z</time></trkpt><trkpt lat="43.3598217" lon="13.2912233"><ele>262.0</ele><time>2026-04-18T07:47:24.071Z</time></trkpt><trkpt lat="43.359705" lon="13.2910967"><ele>261.5</ele><time>2026-04-18T07:47:25.07Z</time></trkpt><trkpt lat="43.359595" lon="13.2909683"><ele>261.0</ele><time>2026-04-18T07:47:26.07Z</time></trkpt><trkpt lat="43.3595017" lon="13.2908333"><ele>262.3333333333333</ele><time>2026-04-18T07:47:27.07Z</time></trkpt><trkpt lat="43.3593967" lon="13.290695"><ele>263.66666666666663</ele><time>2026-04-18T07:47:28.07Z</time></trkpt><trkpt lat="43.359285" lon="13.29055"><ele>265.0</ele><time>2026-04-18T07:47:29.07Z</time></trkpt><trkpt lat="43.3591767" lon="13.2904"><ele>265.0</ele><time>2026-04-18T07:47:30.07Z</time></trkpt><trkpt lat="43.35908" lon="13.29023"><ele>265.0</ele><time>2026-04-18T07:47:31.07Z</time></trkpt><trkpt lat="43.3589767" lon="13.2900717"><ele>265.0</ele><time>2026-04-18T07:47:32.07Z</time></trkpt><trkpt lat="43.3588783" lon="13.2899067"><ele>266.0</ele><time>2026-04-18T07:47:33.07Z</time></trkpt><trkpt lat="43.3587883" lon="13.2897567"><ele>267.0</ele><time>2026-04-18T07:47:34.07Z</time></trkpt><trkpt lat="43.3586983" lon="13.289595"><ele>268.0</ele><time>2026-04-18T07:47:35.07Z</time></trkpt><trkpt lat="43.3586033" lon="13.2894383"><ele>269.0</ele><time>2026-04-18T07:47:36.071Z</time></trkpt><trkpt lat="43.3584983" lon="13.2892867"><ele>269.0</ele><time>2026-04-18T07:47:37.07Z</time></trkpt><trkpt lat="43.3583917" lon="13.2891333"><ele>269.0</ele><time>2026-04-18T07:47:38.071Z</time></trkpt><trkpt lat="43.3582783" lon="13.2889883"><ele>269.0</ele><time>2026-04-18T07:47:39.07Z</time></trkpt><trkpt lat="43.35817" lon="13.2888417"><ele>269.0</ele><time>2026-04-18T07:47:40.07Z</time></trkpt><trkpt lat="43.3580567" lon="13.2886983"><ele>269.0</ele><time>2026-04-18T07:47:41.07Z</time></trkpt><trkpt lat="43.3579233" lon="13.2885733"><ele>269.0</ele><time>2026-04-18T07:47:42.07Z</time></trkpt><trkpt lat="43.3577883" lon="13.28846"><ele>269.0</ele><time>2026-04-18T07:47:43.07Z</time></trkpt><trkpt lat="43.3576533" lon="13.288365"><ele>269.0</ele><time>2026-04-18T07:47:44.07Z</time></trkpt><trkpt lat="43.3575117" lon="13.2882633"><ele>269.0</ele><time>2026-04-18T07:47:45.07Z</time></trkpt><trkpt lat="43.3573783" lon="13.2881467"><ele>269.33333333333337</ele><time>2026-04-18T07:47:46.07Z</time></trkpt><trkpt lat="43.357265" lon="13.2880083"><ele>269.6666666666667</ele><time>2026-04-18T07:47:47.07Z</time></trkpt><trkpt lat="43.3571533" lon="13.2878567"><ele>270.0</ele><time>2026-04-18T07:47:48.07Z</time></trkpt><trkpt lat="43.3570467" lon="13.2876983"><ele>270.6666666666667</ele><time>2026-04-18T07:47:49.07Z</time></trkpt><trkpt lat="43.35695" lon="13.28753"><ele>271.33333333333337</ele><time>2026-04-18T07:47:50.07Z</time></trkpt><trkpt lat="43.356865" lon="13.2873633"><ele>272.0</ele><time>2026-04-18T07:47:51.07Z</time></trkpt><trkpt lat="43.3567833" lon="13.2871867"><ele>272.0</ele><time>2026-04-18T07:47:52.071Z</time></trkpt><trkpt lat="43.3567" lon="13.2870183"><ele>272.0</ele><time>2026-04-18T07:47:53.07Z</time></trkpt><trkpt lat="43.3566167" lon="13.28685"><ele>272.0</ele><time>2026-04-18T07:47:54.07Z</time></trkpt><trkpt lat="43.3565333" lon="13.2866717"><ele>272.0</ele><time>2026-04-18T07:47:55.07Z</time></trkpt><trkpt lat="43.3564617" lon="13.28648"><ele>272.0</ele><time>2026-04-18T07:47:56.07Z</time></trkpt><trkpt lat="43.35639" lon="13.286285"><ele>272.0</ele><time>2026-04-18T07:47:57.07Z</time></trkpt><trkpt lat="43.35632" lon="13.28609"><ele>273.6666666666667</ele><time>2026-04-18T07:47:58.07Z</time></trkpt><trkpt lat="43.3562483" lon="13.2858883"><ele>275.3333333333333</ele><time>2026-04-18T07:47:59.07Z</time></trkpt><trkpt lat="43.356175" lon="13.2857"><ele>277.0</ele><time>2026-04-18T07:48:00.07Z</time></trkpt><trkpt lat="43.356105" lon="13.2855167"><ele>277.0</ele><time>2026-04-18T07:48:01.07Z</time></trkpt><trkpt lat="43.3560317" lon="13.2853283"><ele>277.0</ele><time>2026-04-18T07:48:02.07Z</time></trkpt><trkpt lat="43.3559633" lon="13.2851383"><ele>277.0</ele><time>2026-04-18T07:48:03.07Z</time></trkpt><trkpt lat="43.35589" lon="13.2849517"><ele>277.0</ele><time>2026-04-18T07:48:04.07Z</time></trkpt><trkpt lat="43.3558183" lon="13.28476"><ele>277.0</ele><time>2026-04-18T07:48:05.07Z</time></trkpt><trkpt lat="43.35574" lon="13.28458"><ele>277.0</ele><time>2026-04-18T07:48:06.071Z</time></trkpt><trkpt lat="43.3556717" lon="13.2843967"><ele>277.0</ele><time>2026-04-18T07:48:07.07Z</time></trkpt><trkpt lat="43.3556133" lon="13.2842183"><ele>277.0</ele><time>2026-04-18T07:48:08.07Z</time></trkpt><trkpt lat="43.35556" lon="13.2840383"><ele>277.0</ele><time>2026-04-18T07:48:09.07Z</time></trkpt><trkpt lat="43.3555067" lon="13.28386"><ele>277.0</ele><time>2026-04-18T07:48:10.07Z</time></trkpt><trkpt lat="43.3554417" lon="13.2836767"><ele>278.0</ele><time>2026-04-18T07:48:11.07Z</time></trkpt><trkpt lat="43.355375" lon="13.2834933"><ele>279.0</ele><time>2026-04-18T07:48:12.071Z</time></trkpt><trkpt lat="43.3553133" lon="13.2833017"><ele>280.0</ele><time>2026-04-18T07:48:13.07Z</time></trkpt><trkpt lat="43.35525" lon="13.2831117"><ele>280.66666666666663</ele><time>2026-04-18T07:48:14.07Z</time></trkpt><trkpt lat="43.3551717" lon="13.282935"><ele>281.3333333333333</ele><time>2026-04-18T07:48:15.07Z</time></trkpt><trkpt lat="43.3550967" lon="13.282755"><ele>282.0</ele><time>2026-04-18T07:48:16.071Z</time></trkpt><trkpt lat="43.355015" lon="13.2825817"><ele>282.0</ele><time>2026-04-18T07:48:17.07Z</time></trkpt><trkpt lat="43.3549383" lon="13.2824033"><ele>282.0</ele><time>2026-04-18T07:48:18.071Z</time></trkpt><trkpt lat="43.3548567" lon="13.282225"><ele>282.0</ele><time>2026-04-18T07:48:19.071Z</time></trkpt><trkpt lat="43.354775" lon="13.2820467"><ele>282.5</ele><time>2026-04-18T07:48:20.07Z</time></trkpt><trkpt lat="43.3547017" lon="13.2818733"><ele>283.0</ele><time>2026-04-18T07:48:21.07Z</time></trkpt><trkpt lat="43.3546383" lon="13.2817083"><ele>283.5</ele><time>2026-04-18T07:48:22.071Z</time></trkpt><trkpt lat="43.35458" lon="13.2815533"><ele>284.0</ele><time>2026-04-18T07:48:23.07Z</time></trkpt><trkpt lat="43.3545233" lon="13.2814017"><ele>284.59999999999997</ele><time>2026-04-18T07:48:24.07Z</time></trkpt><trkpt lat="43.3544783" lon="13.2812667"><ele>285.2</ele><time>2026-04-18T07:48:25.07Z</time></trkpt><trkpt lat="43.3544333" lon="13.28114"><ele>285.79999999999995</ele><time>2026-04-18T07:48:26.07Z</time></trkpt><trkpt lat="43.3543833" lon="13.28102"><ele>286.4</ele><time>2026-04-18T07:48:27.07Z</time></trkpt><trkpt lat="43.35433" lon="13.2809167"><ele>287.0</ele><time>2026-04-18T07:48:28.071Z</time></trkpt><trkpt lat="43.354265" lon="13.2808417"><ele>287.0</ele><time>2026-04-18T07:48:29.07Z</time></trkpt><trkpt lat="43.3541967" lon="13.2807833"><ele>287.0</ele><time>2026-04-18T07:48:30.07Z</time></trkpt><trkpt lat="43.354125" lon="13.2807633"><ele>287.0</ele><time>2026-04-18T07:48:31.07Z</time></trkpt><trkpt lat="43.3540533" lon="13.2807783"><ele>287.0</ele><time>2026-04-18T07:48:32.07Z</time></trkpt><trkpt lat="43.3539733" lon="13.2808383"><ele>287.0</ele><time>2026-04-18T07:48:33.07Z</time></trkpt><trkpt lat="43.3538733" lon="13.280935"><ele>287.0</ele><time>2026-04-18T07:48:34.07Z</time></trkpt><trkpt lat="43.3537467" lon="13.2810583"><ele>287.0</ele><time>2026-04-18T07:48:35.07Z</time></trkpt><trkpt lat="43.353605" lon="13.281185"><ele>287.0</ele><time>2026-04-18T07:48:36.07Z</time></trkpt><trkpt lat="43.35344" lon="13.2813267"><ele>287.0</ele><time>2026-04-18T07:48:37.07Z</time></trkpt><trkpt lat="43.3532783" lon="13.28147"><ele>286.6666666666667</ele><time>2026-04-18T07:48:38.07Z</time></trkpt><trkpt lat="43.353125" lon="13.2816067"><ele>286.3333333333333</ele><time>2026-04-18T07:48:39.071Z</time></trkpt><trkpt lat="43.3529817" lon="13.2817267"><ele>286.0</ele><time>2026-04-18T07:48:40.07Z</time></trkpt><trkpt lat="43.352855" lon="13.2818333"><ele>286.0</ele><time>2026-04-18T07:48:41.071Z</time></trkpt><trkpt lat="43.3527367" lon="13.2819317"><ele>286.0</ele><time>2026-04-18T07:48:42.07Z</time></trkpt><trkpt lat="43.3526417" lon="13.2820167"><ele>286.0</ele><time>2026-04-18T07:48:43.07Z</time></trkpt><trkpt lat="43.3525467" lon="13.2820933"><ele>286.0</ele><time>2026-04-18T07:48:44.07Z</time></trkpt><trkpt lat="43.35246" lon="13.2821433"><ele>286.0</ele><time>2026-04-18T07:48:45.07Z</time></trkpt><trkpt lat="43.352385" lon="13.2821717"><ele>286.0</ele><time>2026-04-18T07:48:46.07Z</time></trkpt><trkpt lat="43.35231" lon="13.2821633"><ele>286.0</ele><time>2026-04-18T07:48:47.071Z</time></trkpt><trkpt lat="43.35225" lon="13.282105"><ele>286.0</ele><time>2026-04-18T07:48:48.07Z</time></trkpt><trkpt lat="43.3522033" lon="13.2820083"><ele>286.0</ele><time>2026-04-18T07:48:49.07Z</time></trkpt><trkpt lat="43.3521533" lon="13.2818967"><ele>286.0</ele><time>2026-04-18T07:48:50.07Z</time></trkpt><trkpt lat="43.3520967" lon="13.2817583"><ele>286.0</ele><time>2026-04-18T07:48:51.07Z</time></trkpt><trkpt lat="43.3520317" lon="13.2816117"><ele>286.0</ele><time>2026-04-18T07:48:52.07Z</time></trkpt><trkpt lat="43.351965" lon="13.28145"><ele>286.0</ele><time>2026-04-18T07:48:53.07Z</time></trkpt><trkpt lat="43.3518917" lon="13.2812933"><ele>286.0</ele><time>2026-04-18T07:48:54.07Z</time></trkpt><trkpt lat="43.3518133" lon="13.2811267"><ele>286.3333333333333</ele><time>2026-04-18T07:48:55.07Z</time></trkpt><trkpt lat="43.3517317" lon="13.2809483"><ele>286.6666666666667</ele><time>2026-04-18T07:48:56.071Z</time></trkpt><trkpt lat="43.3516433" lon="13.280765"><ele>287.0</ele><time>2026-04-18T07:48:57.07Z</time></trkpt><trkpt lat="43.3515433" lon="13.2805783"><ele>288.0</ele><time>2026-04-18T07:48:58.071Z</time></trkpt><trkpt lat="43.3514517" lon="13.2803983"><ele>289.0</ele><time>2026-04-18T07:48:59.07Z</time></trkpt><trkpt lat="43.3513617" lon="13.2802133"><ele>290.0</ele><time>2026-04-18T07:49:00.07Z</time></trkpt><trkpt lat="43.3512733" lon="13.280025"><ele>290.0</ele><time>2026-04-18T07:49:01.071Z</time></trkpt><trkpt lat="43.3511833" lon="13.279835"><ele>290.0</ele><time>2026-04-18T07:49:02.07Z</time></trkpt><trkpt lat="43.3510933" lon="13.2796433"><ele>290.0</ele><time>2026-04-18T07:49:03.071Z</time></trkpt><trkpt lat="43.3510017" lon="13.27946"><ele>290.6666666666667</ele><time>2026-04-18T07:49:04.071Z</time></trkpt><trkpt lat="43.3509133" lon="13.2792633"><ele>291.3333333333333</ele><time>2026-04-18T07:49:05.07Z</time></trkpt><trkpt lat="43.3508267" lon="13.2790633"><ele>292.0</ele><time>2026-04-18T07:49:06.07Z</time></trkpt><trkpt lat="43.3507417" lon="13.2788717"><ele>292.66666666666663</ele><time>2026-04-18T07:49:07.07Z</time></trkpt><trkpt lat="43.3506633" lon="13.2786717"><ele>293.3333333333333</ele><time>2026-04-18T07:49:08.07Z</time></trkpt><trkpt lat="43.3505933" lon="13.27847"><ele>294.0</ele><time>2026-04-18T07:49:09.07Z</time></trkpt><trkpt lat="43.35052" lon="13.2782667"><ele>294.6666666666667</ele><time>2026-04-18T07:49:10.07Z</time></trkpt><trkpt lat="43.3504533" lon="13.2780633"><ele>295.33333333333337</ele><time>2026-04-18T07:49:11.07Z</time></trkpt><trkpt lat="43.3503867" lon="13.2778467"><ele>296.0</ele><time>2026-04-18T07:49:12.07Z</time></trkpt><trkpt lat="43.350325" lon="13.2776417"><ele>296.0</ele><time>2026-04-18T07:49:13.07Z</time></trkpt><trkpt lat="43.3502633" lon="13.2774267"><ele>296.0</ele><time>2026-04-18T07:49:14.07Z</time></trkpt><trkpt lat="43.350205" lon="13.27721"><ele>296.0</ele><time>2026-04-18T07:49:15.07Z</time></trkpt><trkpt lat="43.3501533" lon="13.2769933"><ele>296.0</ele><time>2026-04-18T07:49:16.071Z</time></trkpt><trkpt lat="43.350095" lon="13.2767883"><ele>296.0</ele><time>2026-04-18T07:49:17.07Z</time></trkpt><trkpt lat="43.3500367" lon="13.2765817"><ele>296.0</ele><time>2026-04-18T07:49:18.07Z</time></trkpt><trkpt lat="43.3499783" lon="13.276365"><ele>296.0</ele><time>2026-04-18T07:49:19.07Z</time></trkpt><trkpt lat="43.3499217" lon="13.2761367"><ele>296.0</ele><time>2026-04-18T07:49:20.071Z</time></trkpt><trkpt lat="43.34986" lon="13.2759083"><ele>296.0</ele><time>2026-04-18T07:49:21.07Z</time></trkpt><trkpt lat="43.3497967" lon="13.2756783"><ele>296.6666666666667</ele><time>2026-04-18T07:49:22.07Z</time></trkpt><trkpt lat="43.34974" lon="13.27544"><ele>297.3333333333333</ele><time>2026-04-18T07:49:23.07Z</time></trkpt><trkpt lat="43.349675" lon="13.2752017"><ele>298.0</ele><time>2026-04-18T07:49:24.07Z</time></trkpt><trkpt lat="43.34961" lon="13.2749583"><ele>298.66666666666663</ele><time>2026-04-18T07:49:25.07Z</time></trkpt><trkpt lat="43.3495417" lon="13.2747083"><ele>299.3333333333333</ele><time>2026-04-18T07:49:26.071Z</time></trkpt><trkpt lat="43.349475" lon="13.2744633"><ele>300.0</ele><time>2026-04-18T07:49:27.07Z</time></trkpt><trkpt lat="43.3494067" lon="13.2742217"><ele>300.0</ele><time>2026-04-18T07:49:28.07Z</time></trkpt><trkpt lat="43.3493417" lon="13.2739833"><ele>300.0</ele><time>2026-04-18T07:49:29.07Z</time></trkpt><trkpt lat="43.349275" lon="13.2737467"><ele>300.0</ele><time>2026-04-18T07:49:30.07Z</time></trkpt><trkpt lat="43.3492133" lon="13.2735067"><ele>301.6666666666667</ele><time>2026-04-18T07:49:31.071Z</time></trkpt><trkpt lat="43.3491517" lon="13.273275"><ele>303.33333333333337</ele><time>2026-04-18T07:49:32.071Z</time></trkpt><trkpt lat="43.349085" lon="13.2730417"><ele>305.0</ele><time>2026-04-18T07:49:33.07Z</time></trkpt><trkpt lat="43.349015" lon="13.272815"><ele>305.33333333333337</ele><time>2026-04-18T07:49:34.07Z</time></trkpt><trkpt lat="43.34894" lon="13.27259"><ele>305.6666666666667</ele><time>2026-04-18T07:49:35.07Z</time></trkpt><trkpt lat="43.3488667" lon="13.272355"><ele>306.0</ele><time>2026-04-18T07:49:36.07Z</time></trkpt><trkpt lat="43.3487967" lon="13.2721217"><ele>307.6666666666667</ele><time>2026-04-18T07:49:37.07Z</time></trkpt><trkpt lat="43.348735" lon="13.2719133"><ele>309.33333333333337</ele><time>2026-04-18T07:49:38.07Z</time></trkpt><trkpt lat="43.3486767" lon="13.271715"><ele>311.0</ele><time>2026-04-18T07:49:39.071Z</time></trkpt><trkpt lat="43.34862" lon="13.2715317"><ele>311.25</ele><time>2026-04-18T07:49:40.07Z</time></trkpt><trkpt lat="43.348565" lon="13.27135"><ele>311.5</ele><time>2026-04-18T07:49:41.071Z</time></trkpt><trkpt lat="43.3485083" lon="13.2711917"><ele>311.75</ele><time>2026-04-18T07:49:42.07Z</time></trkpt><trkpt lat="43.34846" lon="13.27103"><ele>312.0</ele><time>2026-04-18T07:49:43.07Z</time></trkpt><trkpt lat="43.3484133" lon="13.270875"><ele>312.0</ele><time>2026-04-18T07:49:44.071Z</time></trkpt><trkpt lat="43.3483617" lon="13.2707383"><ele>312.0</ele><time>2026-04-18T07:49:45.07Z</time></trkpt><trkpt lat="43.348325" lon="13.2706"><ele>312.0</ele><time>2026-04-18T07:49:46.07Z</time></trkpt><trkpt lat="43.3482833" lon="13.270465"><ele>312.0</ele><time>2026-04-18T07:49:47.07Z</time></trkpt><trkpt lat="43.34825" lon="13.2703533"><ele>312.0</ele><time>2026-04-18T07:49:48.07Z</time></trkpt><trkpt lat="43.3482283" lon="13.270265"><ele>312.1666666666667</ele><time>2026-04-18T07:49:49.07Z</time></trkpt><trkpt lat="43.3481867" lon="13.270155"><ele>312.3333333333333</ele><time>2026-04-18T07:49:51.07Z</time></trkpt><trkpt lat="43.3481433" lon="13.27009"><ele>312.5</ele><time>2026-04-18T07:49:53.07Z</time></trkpt><trkpt lat="43.3480467" lon="13.2700883"><ele>312.66666666666663</ele><time>2026-04-18T07:49:56.07Z</time></trkpt><trkpt lat="43.3479633" lon="13.2701733"><ele>312.8333333333333</ele><time>2026-04-18T07:49:58.07Z</time></trkpt><trkpt lat="43.3479217" lon="13.270245"><ele>313.0</ele><time>2026-04-18T07:49:59.07Z</time></trkpt><trkpt lat="43.3478817" lon="13.2703233"><ele>313.3333333333333</ele><time>2026-04-18T07:50:00.07Z</time></trkpt><trkpt lat="43.3478467" lon="13.2703983"><ele>313.66666666666663</ele><time>2026-04-18T07:50:01.07Z</time></trkpt><trkpt lat="43.3478" lon="13.27047"><ele>314.0</ele><time>2026-04-18T07:50:02.07Z</time></trkpt><trkpt lat="43.34775" lon="13.270525"><ele>314.3333333333333</ele><time>2026-04-18T07:50:03.07Z</time></trkpt><trkpt lat="43.347665" lon="13.27063"><ele>314.6666666666667</ele><time>2026-04-18T07:50:05.07Z</time></trkpt><trkpt lat="43.34761" lon="13.2707033"><ele>315.0</ele><time>2026-04-18T07:50:07.07Z</time></trkpt><trkpt lat="43.3475367" lon="13.270785"><ele>315.0</ele><time>2026-04-18T07:50:10.07Z</time></trkpt><trkpt lat="43.3474683" lon="13.270785"><ele>315.0</ele><time>2026-04-18T07:50:12.07Z</time></trkpt><trkpt lat="43.3473983" lon="13.2707233"><ele>315.0</ele><time>2026-04-18T07:50:14.07Z</time></trkpt><trkpt lat="43.3473617" lon="13.2705817"><ele>315.0</ele><time>2026-04-18T07:50:16.07Z</time></trkpt><trkpt lat="43.34733" lon="13.2704233"><ele>315.0</ele><time>2026-04-18T07:50:18.07Z</time></trkpt><trkpt lat="43.34731" lon="13.2703133"><ele>315.0</ele><time>2026-04-18T07:50:20.07Z</time></trkpt><trkpt lat="43.3472817" lon="13.27019"><ele>315.0</ele><time>2026-04-18T07:50:22.07Z</time></trkpt><trkpt lat="43.3472667" lon="13.2701033"><ele>315.0</ele><time>2026-04-18T07:50:23.07Z</time></trkpt><trkpt lat="43.34725" lon="13.2700183"><ele>315.0</ele><time>2026-04-18T07:50:24.07Z</time></trkpt><trkpt lat="43.3472317" lon="13.269935"><ele>315.0</ele><time>2026-04-18T07:50:25.07Z</time></trkpt><trkpt lat="43.3472167" lon="13.2698367"><ele>315.0</ele><time>2026-04-18T07:50:26.07Z</time></trkpt><trkpt lat="43.3471983" lon="13.2697517"><ele>315.0</ele><time>2026-04-18T07:50:27.07Z</time></trkpt><trkpt lat="43.3471783" lon="13.269665"><ele>315.14285714285717</ele><time>2026-04-18T07:50:28.071Z</time></trkpt><trkpt lat="43.34716" lon="13.2695683"><ele>315.2857142857143</ele><time>2026-04-18T07:50:29.07Z</time></trkpt><trkpt lat="43.34714" lon="13.2694683"><ele>315.42857142857144</ele><time>2026-04-18T07:50:30.07Z</time></trkpt><trkpt lat="43.3471133" lon="13.2693717"><ele>315.57142857142856</ele><time>2026-04-18T07:50:31.07Z</time></trkpt><trkpt lat="43.3470867" lon="13.26928"><ele>315.7142857142857</ele><time>2026-04-18T07:50:32.07Z</time></trkpt><trkpt lat="43.3470633" lon="13.269195"><ele>315.8571428571429</ele><time>2026-04-18T07:50:33.07Z</time></trkpt><trkpt lat="43.3470417" lon="13.2691017"><ele>316.0</ele><time>2026-04-18T07:50:34.071Z</time></trkpt><trkpt lat="43.3470217" lon="13.2690133"><ele>316.28571428571433</ele><time>2026-04-18T07:50:35.07Z</time></trkpt><trkpt lat="43.3470033" lon="13.2689183"><ele>316.57142857142856</ele><time>2026-04-18T07:50:36.07Z</time></trkpt><trkpt lat="43.346985" lon="13.268825"><ele>316.8571428571429</ele><time>2026-04-18T07:50:37.07Z</time></trkpt><trkpt lat="43.3469683" lon="13.2687367"><ele>317.14285714285717</ele><time>2026-04-18T07:50:38.07Z</time></trkpt><trkpt lat="43.346955" lon="13.2686433"><ele>317.42857142857144</ele><time>2026-04-18T07:50:39.07Z</time></trkpt><trkpt lat="43.3469333" lon="13.2685533"><ele>317.7142857142857</ele><time>2026-04-18T07:50:40.07Z</time></trkpt><trkpt lat="43.3469117" lon="13.2684617"><ele>318.0</ele><time>2026-04-18T07:50:41.07Z</time></trkpt><trkpt lat="43.34688" lon="13.26838"><ele>318.0</ele><time>2026-04-18T07:50:42.07Z</time></trkpt><trkpt lat="43.34686" lon="13.2682917"><ele>318.0</ele><time>2026-04-18T07:50:43.07Z</time></trkpt><trkpt lat="43.346835" lon="13.2682033"><ele>318.0</ele><time>2026-04-18T07:50:44.071Z</time></trkpt><trkpt lat="43.34682" lon="13.268115"><ele>318.0</ele><time>2026-04-18T07:50:45.07Z</time></trkpt><trkpt lat="43.3467783" lon="13.26796"><ele>318.0</ele><time>2026-04-18T07:50:47.07Z</time></trkpt><trkpt lat="43.3467467" lon="13.267795"><ele>318.0</ele><time>2026-04-18T07:50:49.071Z</time></trkpt><trkpt lat="43.34671" lon="13.2676467"><ele>318.4</ele><time>2026-04-18T07:50:51.071Z</time></trkpt><trkpt lat="43.346685" lon="13.26752"><ele>318.8</ele><time>2026-04-18T07:50:53.07Z</time></trkpt><trkpt lat="43.3466567" lon="13.2673733"><ele>319.2</ele><time>2026-04-18T07:50:55.07Z</time></trkpt><trkpt lat="43.3466533" lon="13.2672183"><ele>319.6</ele><time>2026-04-18T07:50:57.071Z</time></trkpt><trkpt lat="43.3466733" lon="13.2671283"><ele>320.0</ele><time>2026-04-18T07:50:58.07Z</time></trkpt><trkpt lat="43.34672" lon="13.267015"><ele>320.25</ele><time>2026-04-18T07:50:59.07Z</time></trkpt><trkpt lat="43.3467833" lon="13.26687"><ele>320.5</ele><time>2026-04-18T07:51:00.07Z</time></trkpt><trkpt lat="43.3468517" lon="13.266735"><ele>320.75</ele><time>2026-04-18T07:51:01.07Z</time></trkpt><trkpt lat="43.34692" lon="13.26659"><ele>321.0</ele><time>2026-04-18T07:51:02.07Z</time></trkpt><trkpt lat="43.3470033" lon="13.26642"><ele>321.5</ele><time>2026-04-18T07:51:03.07Z</time></trkpt><trkpt lat="43.347085" lon="13.2662383"><ele>322.0</ele><time>2026-04-18T07:51:04.07Z</time></trkpt><trkpt lat="43.3471583" lon="13.266065"><ele>322.5</ele><time>2026-04-18T07:51:05.07Z</time></trkpt><trkpt lat="43.3472267" lon="13.265905"><ele>323.0</ele><time>2026-04-18T07:51:06.07Z</time></trkpt><trkpt lat="43.3472867" lon="13.26576"><ele>323.5</ele><time>2026-04-18T07:51:07.07Z</time></trkpt><trkpt lat="43.34735" lon="13.2656167"><ele>324.0</ele><time>2026-04-18T07:51:08.07Z</time></trkpt><trkpt lat="43.3474167" lon="13.2654783"><ele>324.5</ele><time>2026-04-18T07:51:09.07Z</time></trkpt><trkpt lat="43.3474767" lon="13.2653317"><ele>325.0</ele><time>2026-04-18T07:51:10.07Z</time></trkpt><trkpt lat="43.34754" lon="13.26518"><ele>325.5</ele><time>2026-04-18T07:51:11.07Z</time></trkpt><trkpt lat="43.3476033" lon="13.2650233"><ele>326.0</ele><time>2026-04-18T07:51:12.07Z</time></trkpt><trkpt lat="43.3476717" lon="13.2648633"><ele>326.5</ele><time>2026-04-18T07:51:13.07Z</time></trkpt><trkpt lat="43.3477467" lon="13.2646917"><ele>327.0</ele><time>2026-04-18T07:51:14.07Z</time></trkpt><trkpt lat="43.3478267" lon="13.2645067"><ele>327.75</ele><time>2026-04-18T07:51:15.07Z</time></trkpt><trkpt lat="43.3479017" lon="13.264355"><ele>328.5</ele><time>2026-04-18T07:51:16.07Z</time></trkpt><trkpt lat="43.3479717" lon="13.2642183"><ele>329.25</ele><time>2026-04-18T07:51:17.07Z</time></trkpt><trkpt lat="43.3480267" lon="13.26409"><ele>330.0</ele><time>2026-04-18T07:51:18.071Z</time></trkpt><trkpt lat="43.34807" lon="13.26398"><ele>330.1666666666667</ele><time>2026-04-18T07:51:19.07Z</time></trkpt><trkpt lat="43.34809" lon="13.2638717"><ele>330.3333333333333</ele><time>2026-04-18T07:51:20.07Z</time></trkpt><trkpt lat="43.3480883" lon="13.263765"><ele>330.5</ele><time>2026-04-18T07:51:21.07Z</time></trkpt><trkpt lat="43.3480583" lon="13.2636867"><ele>330.66666666666663</ele><time>2026-04-18T07:51:22.07Z</time></trkpt><trkpt lat="43.3479983" lon="13.26362"><ele>330.8333333333333</ele><time>2026-04-18T07:51:23.07Z</time></trkpt><trkpt lat="43.3479133" lon="13.2635833"><ele>331.0</ele><time>2026-04-18T07:51:24.07Z</time></trkpt><trkpt lat="43.3478017" lon="13.263555"><ele>331.0</ele><time>2026-04-18T07:51:25.07Z</time></trkpt><trkpt lat="43.3476683" lon="13.26353"><ele>331.0</ele><time>2026-04-18T07:51:26.07Z</time></trkpt><trkpt lat="43.3475267" lon="13.2634867"><ele>331.0</ele><time>2026-04-18T07:51:27.07Z</time></trkpt><trkpt lat="43.3474" lon="13.2634533"><ele>331.0</ele><time>2026-04-18T07:51:28.07Z</time></trkpt><trkpt lat="43.347265" lon="13.263415"><ele>331.3333333333333</ele><time>2026-04-18T07:51:29.07Z</time></trkpt><trkpt lat="43.3471217" lon="13.263375"><ele>331.6666666666667</ele><time>2026-04-18T07:51:30.07Z</time></trkpt><trkpt lat="43.34697" lon="13.26334"><ele>332.0</ele><time>2026-04-18T07:51:31.07Z</time></trkpt><trkpt lat="43.34682" lon="13.2632917"><ele>332.0</ele><time>2026-04-18T07:51:32.07Z</time></trkpt><trkpt lat="43.3466767" lon="13.26325"><ele>332.0</ele><time>2026-04-18T07:51:33.07Z</time></trkpt><trkpt lat="43.3465417" lon="13.2632133"><ele>332.0</ele><time>2026-04-18T07:51:34.07Z</time></trkpt><trkpt lat="43.3464117" lon="13.2631867"><ele>332.0</ele><time>2026-04-18T07:51:35.071Z</time></trkpt><trkpt lat="43.34627" lon="13.2631667"><ele>332.0</ele><time>2026-04-18T07:51:36.071Z</time></trkpt><trkpt lat="43.3461433" lon="13.263135"><ele>332.0</ele><time>2026-04-18T07:51:37.07Z</time></trkpt><trkpt lat="43.346015" lon="13.2630967"><ele>332.0</ele><time>2026-04-18T07:51:38.071Z</time></trkpt><trkpt lat="43.345885" lon="13.263055"><ele>332.0</ele><time>2026-04-18T07:51:39.07Z</time></trkpt><trkpt lat="43.3457617" lon="13.2630033"><ele>332.0</ele><time>2026-04-18T07:51:40.07Z</time></trkpt><trkpt lat="43.3456567" lon="13.26293"><ele>332.0</ele><time>2026-04-18T07:51:41.07Z</time></trkpt><trkpt lat="43.345565" lon="13.26283"><ele>332.0</ele><time>2026-04-18T07:51:42.07Z</time></trkpt><trkpt lat="43.3454833" lon="13.2627117"><ele>332.0</ele><time>2026-04-18T07:51:43.07Z</time></trkpt><trkpt lat="43.3454317" lon="13.2625483"><ele>331.75</ele><time>2026-04-18T07:51:44.07Z</time></trkpt><trkpt lat="43.34539" lon="13.2623633"><ele>331.5</ele><time>2026-04-18T07:51:45.07Z</time></trkpt><trkpt lat="43.3453567" lon="13.2621717"><ele>331.25</ele><time>2026-04-18T07:51:46.07Z</time></trkpt><trkpt lat="43.345325" lon="13.2619683"><ele>331.0</ele><time>2026-04-18T07:51:47.071Z</time></trkpt><trkpt lat="43.34528" lon="13.26176"><ele>332.0</ele><time>2026-04-18T07:51:48.07Z</time></trkpt><trkpt lat="43.34523" lon="13.261545"><ele>333.0</ele><time>2026-04-18T07:51:49.07Z</time></trkpt><trkpt lat="43.3451833" lon="13.2613267"><ele>334.0</ele><time>2026-04-18T07:51:50.07Z</time></trkpt><trkpt lat="43.3451367" lon="13.2611083"><ele>335.0</ele><time>2026-04-18T07:51:51.07Z</time></trkpt><trkpt lat="43.3450883" lon="13.26089"><ele>336.0</ele><time>2026-04-18T07:51:52.071Z</time></trkpt><trkpt lat="43.3450467" lon="13.260675"><ele>337.0</ele><time>2026-04-18T07:51:53.07Z</time></trkpt><trkpt lat="43.3450033" lon="13.2604733"><ele>337.66666666666663</ele><time>2026-04-18T07:51:54.07Z</time></trkpt><trkpt lat="43.3449533" lon="13.2602683"><ele>338.3333333333333</ele><time>2026-04-18T07:51:55.07Z</time></trkpt><trkpt lat="43.344905" lon="13.2600583"><ele>339.0</ele><time>2026-04-18T07:51:56.07Z</time></trkpt><trkpt lat="43.3448283" lon="13.2598683"><ele>339.75</ele><time>2026-04-18T07:51:57.07Z</time></trkpt><trkpt lat="43.3447617" lon="13.2596867"><ele>340.5</ele><time>2026-04-18T07:51:58.07Z</time></trkpt><trkpt lat="43.3446883" lon="13.259515"><ele>341.25</ele><time>2026-04-18T07:51:59.07Z</time></trkpt><trkpt lat="43.3446083" lon="13.2593567"><ele>342.0</ele><time>2026-04-18T07:52:00.07Z</time></trkpt><trkpt lat="43.344515" lon="13.259215"><ele>340.25</ele><time>2026-04-18T07:52:01.07Z</time></trkpt><trkpt lat="43.3444067" lon="13.2590867"><ele>338.5</ele><time>2026-04-18T07:52:02.071Z</time></trkpt><trkpt lat="43.34428" lon="13.2589833"><ele>336.75</ele><time>2026-04-18T07:52:03.071Z</time></trkpt><trkpt lat="43.34416" lon="13.258875"><ele>335.0</ele><time>2026-04-18T07:52:04.069Z</time></trkpt><trkpt lat="43.3440383" lon="13.2587433"><ele>335.0</ele><time>2026-04-18T07:52:05.069Z</time></trkpt><trkpt lat="43.3439233" lon="13.25859"><ele>335.0</ele><time>2026-04-18T07:52:06.069Z</time></trkpt><trkpt lat="43.3438183" lon="13.2584417"><ele>335.0</ele><time>2026-04-18T07:52:07.07Z</time></trkpt><trkpt lat="43.34373" lon="13.25828"><ele>334.75</ele><time>2026-04-18T07:52:08.069Z</time></trkpt><trkpt lat="43.3436583" lon="13.2581067"><ele>334.5</ele><time>2026-04-18T07:52:09.069Z</time></trkpt><trkpt lat="43.34361" lon="13.2579367"><ele>334.25</ele><time>2026-04-18T07:52:10.069Z</time></trkpt><trkpt lat="43.3435633" lon="13.2577483"><ele>334.0</ele><time>2026-04-18T07:52:11.069Z</time></trkpt><trkpt lat="43.3435283" lon="13.2575567"><ele>334.0</ele><time>2026-04-18T07:52:12.069Z</time></trkpt><trkpt lat="43.3434917" lon="13.257375"><ele>334.0</ele><time>2026-04-18T07:52:13.069Z</time></trkpt><trkpt lat="43.3434633" lon="13.2571967"><ele>334.0</ele><time>2026-04-18T07:52:14.069Z</time></trkpt><trkpt lat="43.343435" lon="13.2570083"><ele>334.0</ele><time>2026-04-18T07:52:15.069Z</time></trkpt><trkpt lat="43.3434333" lon="13.2568183"><ele>335.25</ele><time>2026-04-18T07:52:16.069Z</time></trkpt><trkpt lat="43.3434217" lon="13.2566267"><ele>336.5</ele><time>2026-04-18T07:52:17.069Z</time></trkpt><trkpt lat="43.3434167" lon="13.256425"><ele>337.75</ele><time>2026-04-18T07:52:18.07Z</time></trkpt><trkpt lat="43.3434033" lon="13.2562283"><ele>339.0</ele><time>2026-04-18T07:52:19.07Z</time></trkpt><trkpt lat="43.343395" lon="13.2560433"><ele>340.0</ele><time>2026-04-18T07:52:20.069Z</time></trkpt><trkpt lat="43.3433683" lon="13.2558483"><ele>341.0</ele><time>2026-04-18T07:52:21.069Z</time></trkpt><trkpt lat="43.3433183" lon="13.2556583"><ele>342.0</ele><time>2026-04-18T07:52:22.07Z</time></trkpt><trkpt lat="43.3432533" lon="13.2554617"><ele>343.0</ele><time>2026-04-18T07:52:23.069Z</time></trkpt><trkpt lat="43.3431867" lon="13.25526"><ele>342.3333333333333</ele><time>2026-04-18T07:52:24.069Z</time></trkpt><trkpt lat="43.343115" lon="13.2550717"><ele>341.6666666666667</ele><time>2026-04-18T07:52:25.07Z</time></trkpt><trkpt lat="43.3430483" lon="13.2548767"><ele>341.0</ele><time>2026-04-18T07:52:26.07Z</time></trkpt><trkpt lat="43.3429717" lon="13.2546833"><ele>341.0</ele><time>2026-04-18T07:52:27.07Z</time></trkpt><trkpt lat="43.3429" lon="13.25448"><ele>341.0</ele><time>2026-04-18T07:52:28.07Z</time></trkpt><trkpt lat="43.3428317" lon="13.2542733"><ele>341.0</ele><time>2026-04-18T07:52:29.069Z</time></trkpt><trkpt lat="43.34277" lon="13.2540483"><ele>343.33333333333337</ele><time>2026-04-18T07:52:30.069Z</time></trkpt><trkpt lat="43.34272" lon="13.2538233"><ele>345.6666666666667</ele><time>2026-04-18T07:52:31.069Z</time></trkpt><trkpt lat="43.34267" lon="13.2536133"><ele>348.0</ele><time>2026-04-18T07:52:32.069Z</time></trkpt><trkpt lat="43.342605" lon="13.25342"><ele>348.0</ele><time>2026-04-18T07:52:33.069Z</time></trkpt><trkpt lat="43.342535" lon="13.253245"><ele>348.0</ele><time>2026-04-18T07:52:34.069Z</time></trkpt><trkpt lat="43.34244" lon="13.253085"><ele>348.0</ele><time>2026-04-18T07:52:35.069Z</time></trkpt><trkpt lat="43.3423267" lon="13.2529317"><ele>345.6666666666667</ele><time>2026-04-18T07:52:36.069Z</time></trkpt><trkpt lat="43.3421983" lon="13.2527867"><ele>343.33333333333337</ele><time>2026-04-18T07:52:37.069Z</time></trkpt><trkpt lat="43.3420583" lon="13.252645"><ele>341.0</ele><time>2026-04-18T07:52:38.07Z</time></trkpt><trkpt lat="43.3419167" lon="13.2525"><ele>341.0</ele><time>2026-04-18T07:52:39.069Z</time></trkpt><trkpt lat="43.3417767" lon="13.252365"><ele>341.0</ele><time>2026-04-18T07:52:40.07Z</time></trkpt><trkpt lat="43.3416383" lon="13.2522217"><ele>341.0</ele><time>2026-04-18T07:52:41.069Z</time></trkpt><trkpt lat="43.3414967" lon="13.2521017"><ele>340.6666666666667</ele><time>2026-04-18T07:52:42.069Z</time></trkpt><trkpt lat="43.3413383" lon="13.2519917"><ele>340.3333333333333</ele><time>2026-04-18T07:52:43.069Z</time></trkpt><trkpt lat="43.3411917" lon="13.251885"><ele>340.0</ele><time>2026-04-18T07:52:44.069Z</time></trkpt><trkpt lat="43.3410467" lon="13.251785"><ele>340.0</ele><time>2026-04-18T07:52:45.07Z</time></trkpt><trkpt lat="43.3408967" lon="13.2516867"><ele>340.0</ele><time>2026-04-18T07:52:46.07Z</time></trkpt><trkpt lat="43.34075" lon="13.25159"><ele>340.0</ele><time>2026-04-18T07:52:47.069Z</time></trkpt><trkpt lat="43.3406017" lon="13.2514917"><ele>339.66666666666663</ele><time>2026-04-18T07:52:48.069Z</time></trkpt><trkpt lat="43.34046" lon="13.2513933"><ele>339.3333333333333</ele><time>2026-04-18T07:52:49.069Z</time></trkpt><trkpt lat="43.3403217" lon="13.2512917"><ele>339.0</ele><time>2026-04-18T07:52:50.069Z</time></trkpt><trkpt lat="43.3401917" lon="13.2511833"><ele>339.0</ele><time>2026-04-18T07:52:51.069Z</time></trkpt><trkpt lat="43.340085" lon="13.2510533"><ele>339.0</ele><time>2026-04-18T07:52:52.069Z</time></trkpt><trkpt lat="43.3399817" lon="13.2509317"><ele>339.0</ele><time>2026-04-18T07:52:53.069Z</time></trkpt><trkpt lat="43.33987" lon="13.2508333"><ele>339.0</ele><time>2026-04-18T07:52:54.07Z</time></trkpt><trkpt lat="43.339735" lon="13.2507667"><ele>338.75</ele><time>2026-04-18T07:52:55.069Z</time></trkpt><trkpt lat="43.3395967" lon="13.2507183"><ele>338.5</ele><time>2026-04-18T07:52:56.07Z</time></trkpt><trkpt lat="43.3394517" lon="13.2506933"><ele>338.25</ele><time>2026-04-18T07:52:57.069Z</time></trkpt><trkpt lat="43.3393183" lon="13.2506533"><ele>338.0</ele><time>2026-04-18T07:52:58.07Z</time></trkpt><trkpt lat="43.3391867" lon="13.2506033"><ele>338.0</ele><time>2026-04-18T07:52:59.069Z</time></trkpt><trkpt lat="43.33906" lon="13.2505433"><ele>338.0</ele><time>2026-04-18T07:53:00.069Z</time></trkpt><trkpt lat="43.33896" lon="13.2504483"><ele>338.0</ele><time>2026-04-18T07:53:01.069Z</time></trkpt><trkpt lat="43.3388767" lon="13.2503183"><ele>338.0</ele><time>2026-04-18T07:53:02.069Z</time></trkpt><trkpt lat="43.3387967" lon="13.2501617"><ele>338.0</ele><time>2026-04-18T07:53:03.069Z</time></trkpt><trkpt lat="43.3387117" lon="13.2499883"><ele>338.0</ele><time>2026-04-18T07:53:04.069Z</time></trkpt><trkpt lat="43.338615" lon="13.2498117"><ele>338.0</ele><time>2026-04-18T07:53:05.069Z</time></trkpt><trkpt lat="43.3385133" lon="13.24962"><ele>338.0</ele><time>2026-04-18T07:53:06.068Z</time></trkpt><trkpt lat="43.33842" lon="13.249415"><ele>338.0</ele><time>2026-04-18T07:53:07.069Z</time></trkpt><trkpt lat="43.338325" lon="13.2492283"><ele>338.0</ele><time>2026-04-18T07:53:08.069Z</time></trkpt><trkpt lat="43.3382333" lon="13.249045"><ele>339.5</ele><time>2026-04-18T07:53:09.07Z</time></trkpt><trkpt lat="43.3381433" lon="13.24888"><ele>341.0</ele><time>2026-04-18T07:53:10.069Z</time></trkpt><trkpt lat="43.33807" lon="13.2487117"><ele>342.5</ele><time>2026-04-18T07:53:11.069Z</time></trkpt><trkpt lat="43.3380217" lon="13.24855"><ele>344.0</ele><time>2026-04-18T07:53:12.069Z</time></trkpt><trkpt lat="43.3380017" lon="13.2483783"><ele>344.5</ele><time>2026-04-18T07:53:13.069Z</time></trkpt><trkpt lat="43.3380117" lon="13.248205"><ele>345.0</ele><time>2026-04-18T07:53:14.07Z</time></trkpt><trkpt lat="43.3380567" lon="13.248055"><ele>345.5</ele><time>2026-04-18T07:53:15.069Z</time></trkpt><trkpt lat="43.3381217" lon="13.2479133"><ele>346.0</ele><time>2026-04-18T07:53:16.069Z</time></trkpt><trkpt lat="43.338195" lon="13.247775"><ele>346.0</ele><time>2026-04-18T07:53:17.07Z</time></trkpt><trkpt lat="43.3382617" lon="13.2476367"><ele>346.0</ele><time>2026-04-18T07:53:18.069Z</time></trkpt><trkpt lat="43.338325" lon="13.2475117"><ele>346.0</ele><time>2026-04-18T07:53:19.069Z</time></trkpt><trkpt lat="43.33839" lon="13.2473817"><ele>346.0</ele><time>2026-04-18T07:53:20.069Z</time></trkpt><trkpt lat="43.33845" lon="13.2472633"><ele>345.25</ele><time>2026-04-18T07:53:21.069Z</time></trkpt><trkpt lat="43.3385183" lon="13.2471433"><ele>344.5</ele><time>2026-04-18T07:53:22.07Z</time></trkpt><trkpt lat="43.33859" lon="13.24702"><ele>343.75</ele><time>2026-04-18T07:53:23.07Z</time></trkpt><trkpt lat="43.338675" lon="13.2469067"><ele>343.0</ele><time>2026-04-18T07:53:24.07Z</time></trkpt><trkpt lat="43.3387633" lon="13.2468033"><ele>343.0</ele><time>2026-04-18T07:53:25.069Z</time></trkpt><trkpt lat="43.3388733" lon="13.2467183"><ele>343.0</ele><time>2026-04-18T07:53:26.069Z</time></trkpt><trkpt lat="43.3389817" lon="13.2466017"><ele>343.0</ele><time>2026-04-18T07:53:27.069Z</time></trkpt><trkpt lat="43.3390817" lon="13.2464617"><ele>343.0</ele><time>2026-04-18T07:53:28.069Z</time></trkpt><trkpt lat="43.33918" lon="13.24632"><ele>344.0</ele><time>2026-04-18T07:53:29.069Z</time></trkpt><trkpt lat="43.3392783" lon="13.2461833"><ele>345.0</ele><time>2026-04-18T07:53:30.069Z</time></trkpt><trkpt lat="43.3393883" lon="13.2460733"><ele>346.0</ele><time>2026-04-18T07:53:31.069Z</time></trkpt><trkpt lat="43.339505" lon="13.24597"><ele>347.0</ele><time>2026-04-18T07:53:32.069Z</time></trkpt><trkpt lat="43.3396217" lon="13.2459083"><ele>349.20000000000005</ele><time>2026-04-18T07:53:33.069Z</time></trkpt><trkpt lat="43.3397283" lon="13.2458483"><ele>351.4</ele><time>2026-04-18T07:53:34.069Z</time></trkpt><trkpt lat="43.3398267" lon="13.2457983"><ele>353.6</ele><time>2026-04-18T07:53:35.07Z</time></trkpt><trkpt lat="43.3399083" lon="13.2457367"><ele>355.79999999999995</ele><time>2026-04-18T07:53:36.069Z</time></trkpt><trkpt lat="43.3399667" lon="13.24564"><ele>358.0</ele><time>2026-04-18T07:53:37.069Z</time></trkpt><trkpt lat="43.3399967" lon="13.24554"><ele>359.0</ele><time>2026-04-18T07:53:38.069Z</time></trkpt><trkpt lat="43.3400033" lon="13.2454333"><ele>360.0</ele><time>2026-04-18T07:53:39.07Z</time></trkpt><trkpt lat="43.339975" lon="13.2453383"><ele>361.0</ele><time>2026-04-18T07:53:40.069Z</time></trkpt><trkpt lat="43.33992" lon="13.2452533"><ele>362.0</ele><time>2026-04-18T07:53:41.069Z</time></trkpt><trkpt lat="43.33983" lon="13.2451717"><ele>363.0</ele><time>2026-04-18T07:53:42.069Z</time></trkpt><trkpt lat="43.339725" lon="13.2450717"><ele>363.5</ele><time>2026-04-18T07:53:43.069Z</time></trkpt><trkpt lat="43.3396233" lon="13.2449467"><ele>364.0</ele><time>2026-04-18T07:53:44.069Z</time></trkpt><trkpt lat="43.3395383" lon="13.2448067"><ele>364.5</ele><time>2026-04-18T07:53:45.069Z</time></trkpt><trkpt lat="43.3394717" lon="13.2446583"><ele>365.0</ele><time>2026-04-18T07:53:46.069Z</time></trkpt><trkpt lat="43.3394133" lon="13.2445083"><ele>365.0</ele><time>2026-04-18T07:53:47.069Z</time></trkpt><trkpt lat="43.3393817" lon="13.2443433"><ele>365.0</ele><time>2026-04-18T07:53:48.069Z</time></trkpt><trkpt lat="43.3393533" lon="13.244175"><ele>365.0</ele><time>2026-04-18T07:53:49.069Z</time></trkpt><trkpt lat="43.3393317" lon="13.24401"><ele>365.0</ele><time>2026-04-18T07:53:50.07Z</time></trkpt><trkpt lat="43.339285" lon="13.2438617"><ele>366.5</ele><time>2026-04-18T07:53:51.069Z</time></trkpt><trkpt lat="43.3392217" lon="13.2437117"><ele>368.0</ele><time>2026-04-18T07:53:52.07Z</time></trkpt><trkpt lat="43.33914" lon="13.2435633"><ele>369.5</ele><time>2026-04-18T07:53:53.069Z</time></trkpt><trkpt lat="43.3390483" lon="13.2434233"><ele>371.0</ele><time>2026-04-18T07:53:54.069Z</time></trkpt><trkpt lat="43.33895" lon="13.2432933"><ele>366.25</ele><time>2026-04-18T07:53:55.069Z</time></trkpt><trkpt lat="43.3388517" lon="13.2431533"><ele>361.5</ele><time>2026-04-18T07:53:56.069Z</time></trkpt><trkpt lat="43.3387683" lon="13.2430083"><ele>356.75</ele><time>2026-04-18T07:53:57.069Z</time></trkpt><trkpt lat="43.338695" lon="13.24286"><ele>352.0</ele><time>2026-04-18T07:53:58.069Z</time></trkpt><trkpt lat="43.3386217" lon="13.2427067"><ele>352.0</ele><time>2026-04-18T07:53:59.069Z</time></trkpt><trkpt lat="43.3385567" lon="13.2425583"><ele>352.0</ele><time>2026-04-18T07:54:00.069Z</time></trkpt><trkpt lat="43.3384983" lon="13.242405"><ele>352.0</ele><time>2026-04-18T07:54:01.069Z</time></trkpt><trkpt lat="43.3384333" lon="13.2422567"><ele>352.0</ele><time>2026-04-18T07:54:02.069Z</time></trkpt><trkpt lat="43.3383733" lon="13.2421083"><ele>354.0</ele><time>2026-04-18T07:54:03.07Z</time></trkpt><trkpt lat="43.33833" lon="13.24195"><ele>356.0</ele><time>2026-04-18T07:54:04.069Z</time></trkpt><trkpt lat="43.3382967" lon="13.2418017"><ele>358.0</ele><time>2026-04-18T07:54:05.069Z</time></trkpt><trkpt lat="43.338275" lon="13.24164"><ele>360.0</ele><time>2026-04-18T07:54:06.069Z</time></trkpt><trkpt lat="43.338245" lon="13.2414733"><ele>362.5</ele><time>2026-04-18T07:54:07.069Z</time></trkpt><trkpt lat="43.3381967" lon="13.2413167"><ele>365.0</ele><time>2026-04-18T07:54:08.069Z</time></trkpt><trkpt lat="43.33814" lon="13.2411733"><ele>367.5</ele><time>2026-04-18T07:54:09.069Z</time></trkpt><trkpt lat="43.33808" lon="13.24103"><ele>370.0</ele><time>2026-04-18T07:54:10.069Z</time></trkpt><trkpt lat="43.3380317" lon="13.240875"><ele>364.25</ele><time>2026-04-18T07:54:11.07Z</time></trkpt><trkpt lat="43.3380033" lon="13.2407083"><ele>358.5</ele><time>2026-04-18T07:54:12.069Z</time></trkpt><trkpt lat="43.3379883" lon="13.240535"><ele>352.75</ele><time>2026-04-18T07:54:13.069Z</time></trkpt><trkpt lat="43.3379833" lon="13.2403433"><ele>347.0</ele><time>2026-04-18T07:54:14.07Z</time></trkpt><trkpt lat="43.3379817" lon="13.2401633"><ele>347.0</ele><time>2026-04-18T07:54:15.069Z</time></trkpt><trkpt lat="43.337985" lon="13.2399917"><ele>347.0</ele><time>2026-04-18T07:54:16.07Z</time></trkpt><trkpt lat="43.33799" lon="13.2398217"><ele>347.0</ele><time>2026-04-18T07:54:17.069Z</time></trkpt><trkpt lat="43.33798" lon="13.2396667"><ele>347.0</ele><time>2026-04-18T07:54:18.069Z</time></trkpt><trkpt lat="43.33797" lon="13.239515"><ele>347.0</ele><time>2026-04-18T07:54:19.069Z</time></trkpt><trkpt lat="43.3379467" lon="13.2393733"><ele>347.0</ele><time>2026-04-18T07:54:20.069Z</time></trkpt><trkpt lat="43.3379117" lon="13.239225"><ele>347.0</ele><time>2026-04-18T07:54:21.069Z</time></trkpt><trkpt lat="43.337855" lon="13.2390817"><ele>347.0</ele><time>2026-04-18T07:54:22.07Z</time></trkpt><trkpt lat="43.3377867" lon="13.2389417"><ele>347.75</ele><time>2026-04-18T07:54:23.069Z</time></trkpt><trkpt lat="43.3377367" lon="13.238795"><ele>348.5</ele><time>2026-04-18T07:54:24.07Z</time></trkpt><trkpt lat="43.3377183" lon="13.2386283"><ele>349.25</ele><time>2026-04-18T07:54:25.069Z</time></trkpt><trkpt lat="43.3377167" lon="13.2384667"><ele>350.0</ele><time>2026-04-18T07:54:26.069Z</time></trkpt><trkpt lat="43.337715" lon="13.2383017"><ele>351.75</ele><time>2026-04-18T07:54:27.069Z</time></trkpt><trkpt lat="43.3376933" lon="13.2381317"><ele>353.5</ele><time>2026-04-18T07:54:28.069Z</time></trkpt><trkpt lat="43.3376617" lon="13.237955"><ele>355.25</ele><time>2026-04-18T07:54:29.069Z</time></trkpt><trkpt lat="43.33764" lon="13.2377917"><ele>357.0</ele><time>2026-04-18T07:54:30.069Z</time></trkpt><trkpt lat="43.337625" lon="13.2376383"><ele>357.0</ele><time>2026-04-18T07:54:31.069Z</time></trkpt><trkpt lat="43.3376217" lon="13.2374817"><ele>357.0</ele><time>2026-04-18T07:54:32.07Z</time></trkpt><trkpt lat="43.337645" lon="13.2373333"><ele>357.0</ele><time>2026-04-18T07:54:33.069Z</time></trkpt><trkpt lat="43.337695" lon="13.2371883"><ele>357.0</ele><time>2026-04-18T07:54:34.069Z</time></trkpt><trkpt lat="43.3377467" lon="13.237045"><ele>357.75</ele><time>2026-04-18T07:54:35.069Z</time></trkpt><trkpt lat="43.3377933" lon="13.2368983"><ele>358.5</ele><time>2026-04-18T07:54:36.069Z</time></trkpt><trkpt lat="43.33782" lon="13.23674"><ele>359.25</ele><time>2026-04-18T07:54:37.07Z</time></trkpt><trkpt lat="43.3378433" lon="13.2365683"><ele>360.0</ele><time>2026-04-18T07:54:38.069Z</time></trkpt><trkpt lat="43.3378683" lon="13.236425"><ele>360.0</ele><time>2026-04-18T07:54:39.069Z</time></trkpt><trkpt lat="43.3378767" lon="13.236265"><ele>360.0</ele><time>2026-04-18T07:54:40.069Z</time></trkpt><trkpt lat="43.3378917" lon="13.2361167"><ele>360.0</ele><time>2026-04-18T07:54:41.07Z</time></trkpt><trkpt lat="43.337895" lon="13.2359733"><ele>360.0</ele><time>2026-04-18T07:54:42.069Z</time></trkpt><trkpt lat="43.3378917" lon="13.2358367"><ele>360.0</ele><time>2026-04-18T07:54:43.069Z</time></trkpt><trkpt lat="43.3378683" lon="13.2357017"><ele>360.4</ele><time>2026-04-18T07:54:44.069Z</time></trkpt><trkpt lat="43.3378317" lon="13.2355817"><ele>360.8</ele><time>2026-04-18T07:54:45.07Z</time></trkpt><trkpt lat="43.3377783" lon="13.23547"><ele>361.20000000000005</ele><time>2026-04-18T07:54:46.07Z</time></trkpt><trkpt lat="43.33772" lon="13.235375"><ele>361.6</ele><time>2026-04-18T07:54:47.07Z</time></trkpt><trkpt lat="43.3376583" lon="13.2352733"><ele>362.0</ele><time>2026-04-18T07:54:48.069Z</time></trkpt><trkpt lat="43.3375983" lon="13.2351733"><ele>362.0</ele><time>2026-04-18T07:54:49.07Z</time></trkpt><trkpt lat="43.3375517" lon="13.2350567"><ele>362.0</ele><time>2026-04-18T07:54:50.069Z</time></trkpt><trkpt lat="43.3375217" lon="13.2349283"><ele>362.0</ele><time>2026-04-18T07:54:51.069Z</time></trkpt><trkpt lat="43.3375033" lon="13.2347933"><ele>362.0</ele><time>2026-04-18T07:54:52.069Z</time></trkpt><trkpt lat="43.33748" lon="13.23466"><ele>362.0</ele><time>2026-04-18T07:54:53.069Z</time></trkpt><trkpt lat="43.337435" lon="13.2345267"><ele>363.75</ele><time>2026-04-18T07:54:54.069Z</time></trkpt><trkpt lat="43.3373617" lon="13.2343967"><ele>365.5</ele><time>2026-04-18T07:54:55.069Z</time></trkpt><trkpt lat="43.3372533" lon="13.2342683"><ele>367.25</ele><time>2026-04-18T07:54:56.07Z</time></trkpt><trkpt lat="43.3371367" lon="13.2341633"><ele>369.0</ele><time>2026-04-18T07:54:57.069Z</time></trkpt><trkpt lat="43.33702" lon="13.2340633"><ele>370.75</ele><time>2026-04-18T07:54:58.069Z</time></trkpt><trkpt lat="43.3368967" lon="13.2339633"><ele>372.5</ele><time>2026-04-18T07:54:59.069Z</time></trkpt><trkpt lat="43.3367683" lon="13.23386"><ele>374.25</ele><time>2026-04-18T07:55:00.07Z</time></trkpt><trkpt lat="43.33665" lon="13.2337633"><ele>376.0</ele><time>2026-04-18T07:55:01.069Z</time></trkpt><trkpt lat="43.3365367" lon="13.2336483"><ele>376.0</ele><time>2026-04-18T07:55:02.07Z</time></trkpt><trkpt lat="43.3364217" lon="13.233525"><ele>376.0</ele><time>2026-04-18T07:55:03.069Z</time></trkpt><trkpt lat="43.3363033" lon="13.2334017"><ele>376.0</ele><time>2026-04-18T07:55:04.07Z</time></trkpt><trkpt lat="43.3361833" lon="13.23327"><ele>376.0</ele><time>2026-04-18T07:55:05.07Z</time></trkpt><trkpt lat="43.3360583" lon="13.2331433"><ele>376.3333333333333</ele><time>2026-04-18T07:55:06.069Z</time></trkpt><trkpt lat="43.3359317" lon="13.2330083"><ele>376.6666666666667</ele><time>2026-04-18T07:55:07.07Z</time></trkpt><trkpt lat="43.33581" lon="13.2328883"><ele>377.0</ele><time>2026-04-18T07:55:08.069Z</time></trkpt><trkpt lat="43.3356967" lon="13.2327633"><ele>377.0</ele><time>2026-04-18T07:55:09.069Z</time></trkpt><trkpt lat="43.3355817" lon="13.2326533"><ele>377.0</ele><time>2026-04-18T07:55:10.069Z</time></trkpt><trkpt lat="43.3354767" lon="13.232555"><ele>377.0</ele><time>2026-04-18T07:55:11.069Z</time></trkpt><trkpt lat="43.335375" lon="13.2324733"><ele>377.0</ele><time>2026-04-18T07:55:12.069Z</time></trkpt><trkpt lat="43.3352733" lon="13.2324017"><ele>376.40000000000003</ele><time>2026-04-18T07:55:13.07Z</time></trkpt><trkpt lat="43.335165" lon="13.2323583"><ele>375.8</ele><time>2026-04-18T07:55:14.069Z</time></trkpt><trkpt lat="43.3350517" lon="13.2323533"><ele>375.2</ele><time>2026-04-18T07:55:15.069Z</time></trkpt><trkpt lat="43.3349467" lon="13.2323767"><ele>374.6</ele><time>2026-04-18T07:55:16.069Z</time></trkpt><trkpt lat="43.33484" lon="13.2324417"><ele>374.0</ele><time>2026-04-18T07:55:17.07Z</time></trkpt><trkpt lat="43.33473" lon="13.2325367"><ele>373.5</ele><time>2026-04-18T07:55:18.069Z</time></trkpt><trkpt lat="43.3346117" lon="13.23265"><ele>373.0</ele><time>2026-04-18T07:55:19.069Z</time></trkpt><trkpt lat="43.334485" lon="13.2327567"><ele>372.5</ele><time>2026-04-18T07:55:20.069Z</time></trkpt><trkpt lat="43.3343517" lon="13.2328367"><ele>372.0</ele><time>2026-04-18T07:55:21.069Z</time></trkpt><trkpt lat="43.3342183" lon="13.2328983"><ele>372.0</ele><time>2026-04-18T07:55:22.069Z</time></trkpt><trkpt lat="43.334085" lon="13.2329333"><ele>372.0</ele><time>2026-04-18T07:55:23.069Z</time></trkpt><trkpt lat="43.3339683" lon="13.2329217"><ele>372.0</ele><time>2026-04-18T07:55:24.069Z</time></trkpt><trkpt lat="43.3338683" lon="13.2328683"><ele>372.0</ele><time>2026-04-18T07:55:25.069Z</time></trkpt><trkpt lat="43.3337717" lon="13.2327767"><ele>372.0</ele><time>2026-04-18T07:55:26.069Z</time></trkpt><trkpt lat="43.3336783" lon="13.2326667"><ele>372.0</ele><time>2026-04-18T07:55:27.069Z</time></trkpt><trkpt lat="43.3335867" lon="13.232555"><ele>372.0</ele><time>2026-04-18T07:55:28.07Z</time></trkpt><trkpt lat="43.333485" lon="13.2324717"><ele>372.0</ele><time>2026-04-18T07:55:29.069Z</time></trkpt><trkpt lat="43.3333717" lon="13.2324"><ele>372.0</ele><time>2026-04-18T07:55:30.069Z</time></trkpt><trkpt lat="43.3332417" lon="13.2323533"><ele>372.0</ele><time>2026-04-18T07:55:31.069Z</time></trkpt><trkpt lat="43.3331033" lon="13.232325"><ele>372.0</ele><time>2026-04-18T07:55:32.069Z</time></trkpt><trkpt lat="43.3329783" lon="13.2322983"><ele>372.0</ele><time>2026-04-18T07:55:33.069Z</time></trkpt><trkpt lat="43.3328633" lon="13.2322733"><ele>373.20000000000005</ele><time>2026-04-18T07:55:34.07Z</time></trkpt><trkpt lat="43.3327667" lon="13.2322633"><ele>374.4</ele><time>2026-04-18T07:55:35.07Z</time></trkpt><trkpt lat="43.3326717" lon="13.23227"><ele>375.6</ele><time>2026-04-18T07:55:36.069Z</time></trkpt><trkpt lat="43.33258" lon="13.2323017"><ele>376.79999999999995</ele><time>2026-04-18T07:55:37.069Z</time></trkpt><trkpt lat="43.3324933" lon="13.2323683"><ele>378.0</ele><time>2026-04-18T07:55:38.07Z</time></trkpt><trkpt lat="43.3324017" lon="13.2324217"><ele>378.0</ele><time>2026-04-18T07:55:39.069Z</time></trkpt><trkpt lat="43.3323067" lon="13.23245"><ele>378.0</ele><time>2026-04-18T07:55:40.069Z</time></trkpt><trkpt lat="43.332215" lon="13.2324333"><ele>378.0</ele><time>2026-04-18T07:55:41.069Z</time></trkpt><trkpt lat="43.3321333" lon="13.232385"><ele>378.0</ele><time>2026-04-18T07:55:42.069Z</time></trkpt><trkpt lat="43.3320617" lon="13.2323017"><ele>378.0</ele><time>2026-04-18T07:55:43.069Z</time></trkpt><trkpt lat="43.332" lon="13.2321967"><ele>381.0</ele><time>2026-04-18T07:55:44.069Z</time></trkpt><trkpt lat="43.3319383" lon="13.23207"><ele>384.0</ele><time>2026-04-18T07:55:45.069Z</time></trkpt><trkpt lat="43.3318783" lon="13.231915"><ele>387.0</ele><time>2026-04-18T07:55:46.069Z</time></trkpt><trkpt lat="43.3318167" lon="13.2317533"><ele>390.0</ele><time>2026-04-18T07:55:47.069Z</time></trkpt><trkpt lat="43.3317467" lon="13.23159"><ele>392.0</ele><time>2026-04-18T07:55:48.069Z</time></trkpt><trkpt lat="43.3316867" lon="13.2314317"><ele>394.0</ele><time>2026-04-18T07:55:49.069Z</time></trkpt><trkpt lat="43.3316317" lon="13.23128"><ele>396.0</ele><time>2026-04-18T07:55:50.069Z</time></trkpt><trkpt lat="43.3315667" lon="13.231145"><ele>398.0</ele><time>2026-04-18T07:55:51.07Z</time></trkpt><trkpt lat="43.3314833" lon="13.2310433"><ele>397.25</ele><time>2026-04-18T07:55:52.07Z</time></trkpt><trkpt lat="43.3313783" lon="13.2309583"><ele>396.5</ele><time>2026-04-18T07:55:53.07Z</time></trkpt><trkpt lat="43.3312533" lon="13.2308883"><ele>395.75</ele><time>2026-04-18T07:55:54.069Z</time></trkpt><trkpt lat="43.3311217" lon="13.2308017"><ele>395.0</ele><time>2026-04-18T07:55:55.069Z</time></trkpt><trkpt lat="43.331" lon="13.2306967"><ele>397.75</ele><time>2026-04-18T07:55:56.069Z</time></trkpt><trkpt lat="43.3308833" lon="13.230605"><ele>400.5</ele><time>2026-04-18T07:55:57.069Z</time></trkpt><trkpt lat="43.3307833" lon="13.2304917"><ele>403.25</ele><time>2026-04-18T07:55:58.069Z</time></trkpt><trkpt lat="43.3306783" lon="13.2303717"><ele>406.0</ele><time>2026-04-18T07:55:59.069Z</time></trkpt><trkpt lat="43.330585" lon="13.23023"><ele>406.0</ele><time>2026-04-18T07:56:00.069Z</time></trkpt><trkpt lat="43.3305017" lon="13.23008"><ele>406.0</ele><time>2026-04-18T07:56:01.07Z</time></trkpt><trkpt lat="43.3304233" lon="13.22992"><ele>406.0</ele><time>2026-04-18T07:56:02.069Z</time></trkpt><trkpt lat="43.33034" lon="13.229765"><ele>406.0</ele><time>2026-04-18T07:56:03.069Z</time></trkpt><trkpt lat="43.33026" lon="13.2295983"><ele>406.0</ele><time>2026-04-18T07:56:04.069Z</time></trkpt><trkpt lat="43.33017" lon="13.2294267"><ele>406.0</ele><time>2026-04-18T07:56:05.069Z</time></trkpt><trkpt lat="43.330075" lon="13.22925"><ele>406.0</ele><time>2026-04-18T07:56:06.069Z</time></trkpt><trkpt lat="43.32998" lon="13.2290683"><ele>407.33333333333337</ele><time>2026-04-18T07:56:07.069Z</time></trkpt><trkpt lat="43.32988" lon="13.2288933"><ele>408.66666666666663</ele><time>2026-04-18T07:56:08.069Z</time></trkpt><trkpt lat="43.32978" lon="13.22872"><ele>410.0</ele><time>2026-04-18T07:56:09.07Z</time></trkpt><trkpt lat="43.3296717" lon="13.2285667"><ele>410.0</ele><time>2026-04-18T07:56:10.07Z</time></trkpt><trkpt lat="43.3295533" lon="13.22844"><ele>410.0</ele><time>2026-04-18T07:56:11.069Z</time></trkpt><trkpt lat="43.3294433" lon="13.2283267"><ele>410.0</ele><time>2026-04-18T07:56:12.069Z</time></trkpt><trkpt lat="43.32933" lon="13.22822"><ele>410.0</ele><time>2026-04-18T07:56:13.069Z</time></trkpt><trkpt lat="43.3292083" lon="13.22811"><ele>413.75</ele><time>2026-04-18T07:56:14.069Z</time></trkpt><trkpt lat="43.3290983" lon="13.2280017"><ele>417.5</ele><time>2026-04-18T07:56:15.069Z</time></trkpt><trkpt lat="43.3289883" lon="13.2279083"><ele>421.25</ele><time>2026-04-18T07:56:16.069Z</time></trkpt><trkpt lat="43.3289" lon="13.2278"><ele>425.0</ele><time>2026-04-18T07:56:17.07Z</time></trkpt><trkpt lat="43.3288383" lon="13.2276717"><ele>426.0</ele><time>2026-04-18T07:56:18.069Z</time></trkpt><trkpt lat="43.32881" lon="13.22753"><ele>427.0</ele><time>2026-04-18T07:56:19.069Z</time></trkpt><trkpt lat="43.328815" lon="13.2273683"><ele>428.0</ele><time>2026-04-18T07:56:20.069Z</time></trkpt><trkpt lat="43.3288417" lon="13.2272"><ele>429.0</ele><time>2026-04-18T07:56:21.069Z</time></trkpt><trkpt lat="43.32887" lon="13.2270333"><ele>427.5</ele><time>2026-04-18T07:56:22.069Z</time></trkpt><trkpt lat="43.3288767" lon="13.2268617"><ele>426.0</ele><time>2026-04-18T07:56:23.07Z</time></trkpt><trkpt lat="43.328845" lon="13.22669"><ele>424.5</ele><time>2026-04-18T07:56:24.07Z</time></trkpt><trkpt lat="43.3287983" lon="13.2265233"><ele>423.0</ele><time>2026-04-18T07:56:25.069Z</time></trkpt><trkpt lat="43.3287433" lon="13.2263683"><ele>423.0</ele><time>2026-04-18T07:56:26.069Z</time></trkpt><trkpt lat="43.3286783" lon="13.2262117"><ele>423.0</ele><time>2026-04-18T07:56:27.069Z</time></trkpt><trkpt lat="43.3286267" lon="13.2260633"><ele>423.0</ele><time>2026-04-18T07:56:28.069Z</time></trkpt><trkpt lat="43.3285933" lon="13.2259083"><ele>423.0</ele><time>2026-04-18T07:56:29.069Z</time></trkpt><trkpt lat="43.3285767" lon="13.22574"><ele>424.75</ele><time>2026-04-18T07:56:30.069Z</time></trkpt><trkpt lat="43.3285667" lon="13.225565"><ele>426.5</ele><time>2026-04-18T07:56:31.069Z</time></trkpt><trkpt lat="43.3285617" lon="13.22539"><ele>428.25</ele><time>2026-04-18T07:56:32.069Z</time></trkpt><trkpt lat="43.3285633" lon="13.2252233"><ele>430.0</ele><time>2026-04-18T07:56:33.07Z</time></trkpt><trkpt lat="43.3285817" lon="13.2250583"><ele>430.0</ele><time>2026-04-18T07:56:34.069Z</time></trkpt><trkpt lat="43.3286233" lon="13.2248883"><ele>430.0</ele><time>2026-04-18T07:56:35.069Z</time></trkpt><trkpt lat="43.3286767" lon="13.22471"><ele>430.0</ele><time>2026-04-18T07:56:36.07Z</time></trkpt><trkpt lat="43.32873" lon="13.2245367"><ele>430.0</ele><time>2026-04-18T07:56:37.069Z</time></trkpt><trkpt lat="43.3287883" lon="13.2243633"><ele>429.75</ele><time>2026-04-18T07:56:38.069Z</time></trkpt><trkpt lat="43.3288367" lon="13.22418"><ele>429.5</ele><time>2026-04-18T07:56:39.069Z</time></trkpt><trkpt lat="43.3288933" lon="13.2239933"><ele>429.25</ele><time>2026-04-18T07:56:40.069Z</time></trkpt><trkpt lat="43.3289467" lon="13.223815"><ele>429.0</ele><time>2026-04-18T07:56:41.069Z</time></trkpt><trkpt lat="43.3289983" lon="13.2236367"><ele>429.0</ele><time>2026-04-18T07:56:42.069Z</time></trkpt><trkpt lat="43.3290517" lon="13.2234583"><ele>429.0</ele><time>2026-04-18T07:56:43.068Z</time></trkpt><trkpt lat="43.3291083" lon="13.2232883"><ele>429.0</ele><time>2026-04-18T07:56:44.069Z</time></trkpt><trkpt lat="43.3291667" lon="13.22314"><ele>429.0</ele><time>2026-04-18T07:56:45.068Z</time></trkpt><trkpt lat="43.3292333" lon="13.2229967"><ele>429.5</ele><time>2026-04-18T07:56:46.068Z</time></trkpt><trkpt lat="43.32932" lon="13.22287"><ele>430.0</ele><time>2026-04-18T07:56:47.068Z</time></trkpt><trkpt lat="43.3294" lon="13.2227433"><ele>430.5</ele><time>2026-04-18T07:56:48.068Z</time></trkpt><trkpt lat="43.329465" lon="13.222585"><ele>431.0</ele><time>2026-04-18T07:56:49.068Z</time></trkpt><trkpt lat="43.3295233" lon="13.2224217"><ele>436.0</ele><time>2026-04-18T07:56:50.069Z</time></trkpt><trkpt lat="43.3295633" lon="13.2222383"><ele>441.0</ele><time>2026-04-18T07:56:51.068Z</time></trkpt><trkpt lat="43.329605" lon="13.2220483"><ele>446.0</ele><time>2026-04-18T07:56:52.068Z</time></trkpt><trkpt lat="43.3296517" lon="13.2218617"><ele>451.0</ele><time>2026-04-18T07:56:53.068Z</time></trkpt><trkpt lat="43.3297083" lon="13.2216817"><ele>448.5</ele><time>2026-04-18T07:56:54.068Z</time></trkpt><trkpt lat="43.329775" lon="13.2215133"><ele>446.0</ele><time>2026-04-18T07:56:55.068Z</time></trkpt><trkpt lat="43.3298267" lon="13.2213617"><ele>443.5</ele><time>2026-04-18T07:56:56.068Z</time></trkpt><trkpt lat="43.32985" lon="13.2212083"><ele>441.0</ele><time>2026-04-18T07:56:57.068Z</time></trkpt><trkpt lat="43.3298483" lon="13.22105"><ele>441.0</ele><time>2026-04-18T07:56:58.068Z</time></trkpt><trkpt lat="43.3298233" lon="13.22088"><ele>441.0</ele><time>2026-04-18T07:56:59.068Z</time></trkpt><trkpt lat="43.3297867" lon="13.2206917"><ele>441.0</ele><time>2026-04-18T07:57:00.069Z</time></trkpt><trkpt lat="43.3297467" lon="13.2205033"><ele>441.0</ele><time>2026-04-18T07:57:01.069Z</time></trkpt><trkpt lat="43.3297067" lon="13.2203183"><ele>444.0</ele><time>2026-04-18T07:57:02.068Z</time></trkpt><trkpt lat="43.3296667" lon="13.2201467"><ele>447.0</ele><time>2026-04-18T07:57:03.068Z</time></trkpt><trkpt lat="43.3296333" lon="13.2199817"><ele>450.0</ele><time>2026-04-18T07:57:04.068Z</time></trkpt><trkpt lat="43.3296167" lon="13.21981"><ele>453.0</ele><time>2026-04-18T07:57:05.068Z</time></trkpt><trkpt lat="43.329625" lon="13.2196333"><ele>454.5</ele><time>2026-04-18T07:57:06.068Z</time></trkpt><trkpt lat="43.32966" lon="13.2194617"><ele>456.0</ele><time>2026-04-18T07:57:07.068Z</time></trkpt><trkpt lat="43.32971" lon="13.219295"><ele>457.5</ele><time>2026-04-18T07:57:08.068Z</time></trkpt><trkpt lat="43.3297683" lon="13.2191217"><ele>459.0</ele><time>2026-04-18T07:57:09.068Z</time></trkpt><trkpt lat="43.3298317" lon="13.2189567"><ele>453.25</ele><time>2026-04-18T07:57:10.069Z</time></trkpt><trkpt lat="43.3298883" lon="13.2187967"><ele>447.5</ele><time>2026-04-18T07:57:11.068Z</time></trkpt><trkpt lat="43.32994" lon="13.2186417"><ele>441.75</ele><time>2026-04-18T07:57:12.068Z</time></trkpt><trkpt lat="43.3299983" lon="13.21849"><ele>436.0</ele><time>2026-04-18T07:57:13.068Z</time></trkpt><trkpt lat="43.3300567" lon="13.2183417"><ele>436.0</ele><time>2026-04-18T07:57:14.069Z</time></trkpt><trkpt lat="43.3301083" lon="13.2181917"><ele>436.0</ele><time>2026-04-18T07:57:15.068Z</time></trkpt><trkpt lat="43.3301717" lon="13.218045"><ele>436.0</ele><time>2026-04-18T07:57:16.068Z</time></trkpt><trkpt lat="43.330235" lon="13.217895"><ele>436.0</ele><time>2026-04-18T07:57:17.068Z</time></trkpt><trkpt lat="43.3302933" lon="13.2177383"><ele>436.5</ele><time>2026-04-18T07:57:18.068Z</time></trkpt><trkpt lat="43.3303533" lon="13.2175767"><ele>437.0</ele><time>2026-04-18T07:57:19.068Z</time></trkpt><trkpt lat="43.3304" lon="13.2174083"><ele>437.5</ele><time>2026-04-18T07:57:20.068Z</time></trkpt><trkpt lat="43.3304467" lon="13.2172317"><ele>438.0</ele><time>2026-04-18T07:57:21.069Z</time></trkpt><trkpt lat="43.33049" lon="13.217045"><ele>438.75</ele><time>2026-04-18T07:57:22.068Z</time></trkpt><trkpt lat="43.33054" lon="13.21686"><ele>439.5</ele><time>2026-04-18T07:57:23.068Z</time></trkpt><trkpt lat="43.3305933" lon="13.216675"><ele>440.25</ele><time>2026-04-18T07:57:24.068Z</time></trkpt><trkpt lat="43.3306467" lon="13.216485"><ele>441.0</ele><time>2026-04-18T07:57:25.068Z</time></trkpt><trkpt lat="43.3306967" lon="13.2162867"><ele>441.0</ele><time>2026-04-18T07:57:26.068Z</time></trkpt><trkpt lat="43.33075" lon="13.216085"><ele>441.0</ele><time>2026-04-18T07:57:27.069Z</time></trkpt><trkpt lat="43.3308033" lon="13.2158817"><ele>441.0</ele><time>2026-04-18T07:57:28.068Z</time></trkpt><trkpt lat="43.3308667" lon="13.21567"><ele>442.33333333333337</ele><time>2026-04-18T07:57:29.068Z</time></trkpt><trkpt lat="43.3309383" lon="13.2154633"><ele>443.6666666666667</ele><time>2026-04-18T07:57:30.069Z</time></trkpt><trkpt lat="43.331005" lon="13.2152517"><ele>445.0</ele><time>2026-04-18T07:57:31.068Z</time></trkpt><trkpt lat="43.33107" lon="13.215055"><ele>445.0</ele><time>2026-04-18T07:57:32.068Z</time></trkpt><trkpt lat="43.33114" lon="13.2148433"><ele>445.0</ele><time>2026-04-18T07:57:33.068Z</time></trkpt><trkpt lat="43.3311883" lon="13.2146383"><ele>445.0</ele><time>2026-04-18T07:57:34.069Z</time></trkpt><trkpt lat="43.3312233" lon="13.214435"><ele>446.25</ele><time>2026-04-18T07:57:35.068Z</time></trkpt><trkpt lat="43.331245" lon="13.2142333"><ele>447.5</ele><time>2026-04-18T07:57:36.069Z</time></trkpt><trkpt lat="43.3312533" lon="13.2140333"><ele>448.75</ele><time>2026-04-18T07:57:37.068Z</time></trkpt><trkpt lat="43.33126" lon="13.2138217"><ele>450.0</ele><time>2026-04-18T07:57:38.068Z</time></trkpt><trkpt lat="43.3312567" lon="13.2136117"><ele>451.0</ele><time>2026-04-18T07:57:39.068Z</time></trkpt><trkpt lat="43.3312517" lon="13.2134033"><ele>452.0</ele><time>2026-04-18T07:57:40.068Z</time></trkpt><trkpt lat="43.3312533" lon="13.213205"><ele>453.0</ele><time>2026-04-18T07:57:41.069Z</time></trkpt><trkpt lat="43.3312733" lon="13.2130183"><ele>454.0</ele><time>2026-04-18T07:57:42.068Z</time></trkpt><trkpt lat="43.3313083" lon="13.2128317"><ele>455.5</ele><time>2026-04-18T07:57:43.068Z</time></trkpt><trkpt lat="43.3313517" lon="13.212645"><ele>457.0</ele><time>2026-04-18T07:57:44.068Z</time></trkpt><trkpt lat="43.3314083" lon="13.2124617"><ele>458.5</ele><time>2026-04-18T07:57:45.068Z</time></trkpt><trkpt lat="43.3314633" lon="13.212275"><ele>460.0</ele><time>2026-04-18T07:57:46.069Z</time></trkpt><trkpt lat="43.331525" lon="13.2120833"><ele>457.0</ele><time>2026-04-18T07:57:47.068Z</time></trkpt><trkpt lat="43.331595" lon="13.2118917"><ele>454.0</ele><time>2026-04-18T07:57:48.068Z</time></trkpt><trkpt lat="43.3316583" lon="13.2117117"><ele>451.0</ele><time>2026-04-18T07:57:49.068Z</time></trkpt><trkpt lat="43.3317267" lon="13.2115333"><ele>448.0</ele><time>2026-04-18T07:57:50.068Z</time></trkpt><trkpt lat="43.331785" lon="13.211355"><ele>447.25</ele><time>2026-04-18T07:57:51.068Z</time></trkpt><trkpt lat="43.3318367" lon="13.2111783"><ele>446.5</ele><time>2026-04-18T07:57:52.068Z</time></trkpt><trkpt lat="43.331875" lon="13.21101"><ele>445.75</ele><time>2026-04-18T07:57:53.068Z</time></trkpt><trkpt lat="43.3319083" lon="13.210835"><ele>445.0</ele><time>2026-04-18T07:57:54.068Z</time></trkpt><trkpt lat="43.3319467" lon="13.2106633"><ele>445.5</ele><time>2026-04-18T07:57:55.068Z</time></trkpt><trkpt lat="43.3319783" lon="13.2104967"><ele>446.0</ele><time>2026-04-18T07:57:56.068Z</time></trkpt><trkpt lat="43.3320167" lon="13.2103117"><ele>446.5</ele><time>2026-04-18T07:57:57.068Z</time></trkpt><trkpt lat="43.3320467" lon="13.2101367"><ele>447.0</ele><time>2026-04-18T07:57:58.068Z</time></trkpt><trkpt lat="43.3320583" lon="13.209965"><ele>448.0</ele><time>2026-04-18T07:57:59.069Z</time></trkpt><trkpt lat="43.3320567" lon="13.2098017"><ele>449.0</ele><time>2026-04-18T07:58:00.068Z</time></trkpt><trkpt lat="43.3320317" lon="13.209635"><ele>450.0</ele><time>2026-04-18T07:58:01.068Z</time></trkpt><trkpt lat="43.3320183" lon="13.2094533"><ele>451.0</ele><time>2026-04-18T07:58:02.069Z</time></trkpt><trkpt lat="43.3320167" lon="13.209265"><ele>451.0</ele><time>2026-04-18T07:58:03.068Z</time></trkpt><trkpt lat="43.3320217" lon="13.2090733"><ele>451.0</ele><time>2026-04-18T07:58:04.068Z</time></trkpt><trkpt lat="43.3320283" lon="13.2088883"><ele>451.0</ele><time>2026-04-18T07:58:05.068Z</time></trkpt><trkpt lat="43.3320317" lon="13.208695"><ele>451.0</ele><time>2026-04-18T07:58:06.068Z</time></trkpt><trkpt lat="43.3320067" lon="13.2085067"><ele>451.75</ele><time>2026-04-18T07:58:07.068Z</time></trkpt><trkpt lat="43.331965" lon="13.2083233"><ele>452.5</ele><time>2026-04-18T07:58:08.069Z</time></trkpt><trkpt lat="43.3319067" lon="13.2081483"><ele>453.25</ele><time>2026-04-18T07:58:09.069Z</time></trkpt><trkpt lat="43.3318417" lon="13.2079683"><ele>454.0</ele><time>2026-04-18T07:58:10.068Z</time></trkpt><trkpt lat="43.33178" lon="13.207785"><ele>455.75</ele><time>2026-04-18T07:58:11.069Z</time></trkpt><trkpt lat="43.33171" lon="13.2076083"><ele>457.5</ele><time>2026-04-18T07:58:12.069Z</time></trkpt><trkpt lat="43.3316583" lon="13.2074217"><ele>459.25</ele><time>2026-04-18T07:58:13.068Z</time></trkpt><trkpt lat="43.3316167" lon="13.20724"><ele>461.0</ele><time>2026-04-18T07:58:14.068Z</time></trkpt><trkpt lat="43.3315817" lon="13.2070383"><ele>463.3333333333333</ele><time>2026-04-18T07:58:15.068Z</time></trkpt><trkpt lat="43.33155" lon="13.2068317"><ele>465.66666666666663</ele><time>2026-04-18T07:58:16.068Z</time></trkpt><trkpt lat="43.3315233" lon="13.206625"><ele>468.0</ele><time>2026-04-18T07:58:17.068Z</time></trkpt><trkpt lat="43.3315" lon="13.2064167"><ele>471.0</ele><time>2026-04-18T07:58:18.068Z</time></trkpt><trkpt lat="43.331475" lon="13.2062133"><ele>474.0</ele><time>2026-04-18T07:58:19.068Z</time></trkpt><trkpt lat="43.331455" lon="13.2060067"><ele>477.0</ele><time>2026-04-18T07:58:20.069Z</time></trkpt><trkpt lat="43.3314267" lon="13.2057867"><ele>469.33333333333337</ele><time>2026-04-18T07:58:21.069Z</time></trkpt><trkpt lat="43.331375" lon="13.20557"><ele>461.6666666666667</ele><time>2026-04-18T07:58:22.068Z</time></trkpt><trkpt lat="43.3313217" lon="13.20535"><ele>454.0</ele><time>2026-04-18T07:58:23.069Z</time></trkpt><trkpt lat="43.3312583" lon="13.2051317"><ele>454.0</ele><time>2026-04-18T07:58:24.068Z</time></trkpt><trkpt lat="43.3311817" lon="13.2049233"><ele>454.0</ele><time>2026-04-18T07:58:25.068Z</time></trkpt><trkpt lat="43.3310983" lon="13.20472"><ele>454.0</ele><time>2026-04-18T07:58:26.068Z</time></trkpt><trkpt lat="43.3310083" lon="13.204515"><ele>457.0</ele><time>2026-04-18T07:58:27.068Z</time></trkpt><trkpt lat="43.3309233" lon="13.2043167"><ele>460.0</ele><time>2026-04-18T07:58:28.068Z</time></trkpt><trkpt lat="43.3308217" lon="13.2041333"><ele>463.0</ele><time>2026-04-18T07:58:29.068Z</time></trkpt><trkpt lat="43.3307167" lon="13.20396"><ele>460.6666666666667</ele><time>2026-04-18T07:58:30.068Z</time></trkpt><trkpt lat="43.3306" lon="13.2037967"><ele>458.33333333333337</ele><time>2026-04-18T07:58:31.068Z</time></trkpt><trkpt lat="43.330485" lon="13.20363"><ele>456.0</ele><time>2026-04-18T07:58:32.069Z</time></trkpt><trkpt lat="43.330375" lon="13.20346"><ele>456.0</ele><time>2026-04-18T07:58:33.068Z</time></trkpt><trkpt lat="43.330265" lon="13.2032967"><ele>456.0</ele><time>2026-04-18T07:58:34.068Z</time></trkpt><trkpt lat="43.3301383" lon="13.2031383"><ele>456.0</ele><time>2026-04-18T07:58:35.068Z</time></trkpt><trkpt lat="43.3300083" lon="13.2029933"><ele>456.33333333333337</ele><time>2026-04-18T07:58:36.068Z</time></trkpt><trkpt lat="43.32988" lon="13.2028417"><ele>456.6666666666667</ele><time>2026-04-18T07:58:37.068Z</time></trkpt><trkpt lat="43.32976" lon="13.2026833"><ele>457.0</ele><time>2026-04-18T07:58:38.068Z</time></trkpt><trkpt lat="43.3296367" lon="13.20253"><ele>457.0</ele><time>2026-04-18T07:58:39.068Z</time></trkpt><trkpt lat="43.3295167" lon="13.202375"><ele>457.0</ele><time>2026-04-18T07:58:40.068Z</time></trkpt><trkpt lat="43.3293983" lon="13.2022183"><ele>457.0</ele><time>2026-04-18T07:58:41.068Z</time></trkpt><trkpt lat="43.32928" lon="13.202055"><ele>458.6666666666667</ele><time>2026-04-18T07:58:42.068Z</time></trkpt><trkpt lat="43.32917" lon="13.2018783"><ele>460.33333333333337</ele><time>2026-04-18T07:58:43.068Z</time></trkpt><trkpt lat="43.32906" lon="13.2017"><ele>462.0</ele><time>2026-04-18T07:58:44.068Z</time></trkpt><trkpt lat="43.3289517" lon="13.201515"><ele>462.33333333333337</ele><time>2026-04-18T07:58:45.068Z</time></trkpt><trkpt lat="43.3288483" lon="13.2013183"><ele>462.6666666666667</ele><time>2026-04-18T07:58:46.068Z</time></trkpt><trkpt lat="43.3287483" lon="13.2011283"><ele>463.0</ele><time>2026-04-18T07:58:47.068Z</time></trkpt><trkpt lat="43.3286533" lon="13.2009583"><ele>463.0</ele><time>2026-04-18T07:58:48.069Z</time></trkpt><trkpt lat="43.328555" lon="13.2007967"><ele>463.0</ele><time>2026-04-18T07:58:49.068Z</time></trkpt><trkpt lat="43.3284583" lon="13.2006533"><ele>463.0</ele><time>2026-04-18T07:58:50.068Z</time></trkpt><trkpt lat="43.32836" lon="13.20051"><ele>463.0</ele><time>2026-04-18T07:58:51.068Z</time></trkpt><trkpt lat="43.328255" lon="13.2003633"><ele>464.0</ele><time>2026-04-18T07:58:52.068Z</time></trkpt><trkpt lat="43.3281433" lon="13.2002267"><ele>465.0</ele><time>2026-04-18T07:58:53.068Z</time></trkpt><trkpt lat="43.328025" lon="13.200095"><ele>466.0</ele><time>2026-04-18T07:58:54.068Z</time></trkpt><trkpt lat="43.32791" lon="13.1999567"><ele>466.25</ele><time>2026-04-18T07:58:55.068Z</time></trkpt><trkpt lat="43.3278083" lon="13.1998283"><ele>466.5</ele><time>2026-04-18T07:58:56.068Z</time></trkpt><trkpt lat="43.3277233" lon="13.19969"><ele>466.75</ele><time>2026-04-18T07:58:57.068Z</time></trkpt><trkpt lat="43.3276483" lon="13.1995483"><ele>467.0</ele><time>2026-04-18T07:58:58.068Z</time></trkpt><trkpt lat="43.3275767" lon="13.199395"><ele>467.0</ele><time>2026-04-18T07:58:59.069Z</time></trkpt><trkpt lat="43.3275133" lon="13.1992367"><ele>467.0</ele><time>2026-04-18T07:59:00.068Z</time></trkpt><trkpt lat="43.3274433" lon="13.199085"><ele>467.0</ele><time>2026-04-18T07:59:01.068Z</time></trkpt><trkpt lat="43.3273733" lon="13.1989417"><ele>467.0</ele><time>2026-04-18T07:59:02.068Z</time></trkpt><trkpt lat="43.3272967" lon="13.19881"><ele>466.5</ele><time>2026-04-18T07:59:03.069Z</time></trkpt><trkpt lat="43.3272167" lon="13.19868"><ele>466.0</ele><time>2026-04-18T07:59:04.068Z</time></trkpt><trkpt lat="43.3271333" lon="13.1985483"><ele>465.5</ele><time>2026-04-18T07:59:05.068Z</time></trkpt><trkpt lat="43.327045" lon="13.19842"><ele>465.0</ele><time>2026-04-18T07:59:06.068Z</time></trkpt><trkpt lat="43.32694" lon="13.1982933"><ele>465.0</ele><time>2026-04-18T07:59:07.068Z</time></trkpt><trkpt lat="43.3268317" lon="13.19817"><ele>465.0</ele><time>2026-04-18T07:59:08.069Z</time></trkpt><trkpt lat="43.32671" lon="13.198045"><ele>465.0</ele><time>2026-04-18T07:59:09.068Z</time></trkpt><trkpt lat="43.32658" lon="13.19794"><ele>465.0</ele><time>2026-04-18T07:59:10.068Z</time></trkpt><trkpt lat="43.3264417" lon="13.19784"><ele>467.0</ele><time>2026-04-18T07:59:11.068Z</time></trkpt><trkpt lat="43.3263017" lon="13.1977517"><ele>469.0</ele><time>2026-04-18T07:59:12.068Z</time></trkpt><trkpt lat="43.3261683" lon="13.1976567"><ele>471.0</ele><time>2026-04-18T07:59:13.068Z</time></trkpt><trkpt lat="43.3260367" lon="13.1975517"><ele>471.0</ele><time>2026-04-18T07:59:14.068Z</time></trkpt><trkpt lat="43.32592" lon="13.197425"><ele>471.0</ele><time>2026-04-18T07:59:15.068Z</time></trkpt><trkpt lat="43.325805" lon="13.19728"><ele>471.0</ele><time>2026-04-18T07:59:16.068Z</time></trkpt><trkpt lat="43.325695" lon="13.1971167"><ele>472.0</ele><time>2026-04-18T07:59:17.068Z</time></trkpt><trkpt lat="43.3255767" lon="13.19695"><ele>473.0</ele><time>2026-04-18T07:59:18.068Z</time></trkpt><trkpt lat="43.325455" lon="13.1967917"><ele>474.0</ele><time>2026-04-18T07:59:19.068Z</time></trkpt><trkpt lat="43.3253333" lon="13.1966367"><ele>475.0</ele><time>2026-04-18T07:59:20.068Z</time></trkpt><trkpt lat="43.3252267" lon="13.1964967"><ele>476.0</ele><time>2026-04-18T07:59:21.068Z</time></trkpt><trkpt lat="43.325145" lon="13.196355"><ele>477.0</ele><time>2026-04-18T07:59:22.068Z</time></trkpt><trkpt lat="43.3250883" lon="13.19621"><ele>478.0</ele><time>2026-04-18T07:59:23.068Z</time></trkpt><trkpt lat="43.3250517" lon="13.196055"><ele>478.0</ele><time>2026-04-18T07:59:24.068Z</time></trkpt><trkpt lat="43.3250483" lon="13.1959"><ele>478.0</ele><time>2026-04-18T07:59:25.068Z</time></trkpt><trkpt lat="43.3250667" lon="13.19573"><ele>478.0</ele><time>2026-04-18T07:59:26.069Z</time></trkpt><trkpt lat="43.325105" lon="13.1955667"><ele>478.0</ele><time>2026-04-18T07:59:27.068Z</time></trkpt><trkpt lat="43.3251167" lon="13.1953783"><ele>479.25</ele><time>2026-04-18T07:59:28.068Z</time></trkpt><trkpt lat="43.3251" lon="13.1951933"><ele>480.5</ele><time>2026-04-18T07:59:29.068Z</time></trkpt><trkpt lat="43.32505" lon="13.1950133"><ele>481.75</ele><time>2026-04-18T07:59:30.069Z</time></trkpt><trkpt lat="43.324995" lon="13.1948317"><ele>483.0</ele><time>2026-04-18T07:59:31.069Z</time></trkpt><trkpt lat="43.3249217" lon="13.19465"><ele>482.5</ele><time>2026-04-18T07:59:32.068Z</time></trkpt><trkpt lat="43.3248517" lon="13.1944583"><ele>482.0</ele><time>2026-04-18T07:59:33.069Z</time></trkpt><trkpt lat="43.324785" lon="13.194285"><ele>481.5</ele><time>2026-04-18T07:59:34.068Z</time></trkpt><trkpt lat="43.3247317" lon="13.1941183"><ele>481.0</ele><time>2026-04-18T07:59:35.068Z</time></trkpt><trkpt lat="43.3247083" lon="13.19398"><ele>481.0</ele><time>2026-04-18T07:59:36.069Z</time></trkpt><trkpt lat="43.32471" lon="13.193855"><ele>481.0</ele><time>2026-04-18T07:59:37.068Z</time></trkpt><trkpt lat="43.3247467" lon="13.1937333"><ele>481.0</ele><time>2026-04-18T07:59:38.068Z</time></trkpt><trkpt lat="43.3248083" lon="13.193625"><ele>481.0</ele><time>2026-04-18T07:59:39.068Z</time></trkpt><trkpt lat="43.3248883" lon="13.1935233"><ele>481.0</ele><time>2026-04-18T07:59:40.069Z</time></trkpt><trkpt lat="43.3249717" lon="13.19341"><ele>483.0</ele><time>2026-04-18T07:59:41.069Z</time></trkpt><trkpt lat="43.32505" lon="13.1932933"><ele>485.0</ele><time>2026-04-18T07:59:42.069Z</time></trkpt><trkpt lat="43.32512" lon="13.19316"><ele>487.0</ele><time>2026-04-18T07:59:43.068Z</time></trkpt><trkpt lat="43.3251817" lon="13.1930317"><ele>489.0</ele><time>2026-04-18T07:59:44.068Z</time></trkpt><trkpt lat="43.3252167" lon="13.1928983"><ele>489.4</ele><time>2026-04-18T07:59:45.068Z</time></trkpt><trkpt lat="43.32524" lon="13.1927817"><ele>489.79999999999995</ele><time>2026-04-18T07:59:46.068Z</time></trkpt><trkpt lat="43.325245" lon="13.1926667"><ele>490.20000000000005</ele><time>2026-04-18T07:59:47.068Z</time></trkpt><trkpt lat="43.325225" lon="13.1925483"><ele>490.6</ele><time>2026-04-18T07:59:48.068Z</time></trkpt><trkpt lat="43.3251833" lon="13.1924267"><ele>491.0</ele><time>2026-04-18T07:59:49.068Z</time></trkpt><trkpt lat="43.3251183" lon="13.192315"><ele>492.75</ele><time>2026-04-18T07:59:50.068Z</time></trkpt><trkpt lat="43.3250417" lon="13.1922017"><ele>494.5</ele><time>2026-04-18T07:59:51.068Z</time></trkpt><trkpt lat="43.324945" lon="13.19208"><ele>496.25</ele><time>2026-04-18T07:59:52.068Z</time></trkpt><trkpt lat="43.3248583" lon="13.1919467"><ele>498.0</ele><time>2026-04-18T07:59:53.068Z</time></trkpt><trkpt lat="43.3247783" lon="13.1918117"><ele>497.5</ele><time>2026-04-18T07:59:54.068Z</time></trkpt><trkpt lat="43.3247167" lon="13.1916633"><ele>497.0</ele><time>2026-04-18T07:59:55.069Z</time></trkpt><trkpt lat="43.324655" lon="13.191515"><ele>496.5</ele><time>2026-04-18T07:59:56.068Z</time></trkpt><trkpt lat="43.3245933" lon="13.1913567"><ele>496.0</ele><time>2026-04-18T07:59:57.068Z</time></trkpt><trkpt lat="43.3245233" lon="13.1911833"><ele>496.0</ele><time>2026-04-18T07:59:58.068Z</time></trkpt><trkpt lat="43.3244517" lon="13.191"><ele>496.0</ele><time>2026-04-18T07:59:59.068Z</time></trkpt><trkpt lat="43.3243883" lon="13.1908183"><ele>496.0</ele><time>2026-04-18T08:00:00.068Z</time></trkpt><trkpt lat="43.3243183" lon="13.1906483"><ele>496.0</ele><time>2026-04-18T08:00:01.069Z</time></trkpt><trkpt lat="43.3242667" lon="13.1904633"><ele>498.33333333333337</ele><time>2026-04-18T08:00:02.068Z</time></trkpt><trkpt lat="43.32421" lon="13.1902717"><ele>500.66666666666663</ele><time>2026-04-18T08:00:03.068Z</time></trkpt><trkpt lat="43.3241633" lon="13.19006"><ele>503.0</ele><time>2026-04-18T08:00:04.068Z</time></trkpt><trkpt lat="43.3240817" lon="13.1898533"><ele>500.66666666666663</ele><time>2026-04-18T08:00:05.069Z</time></trkpt><trkpt lat="43.32399" lon="13.1896583"><ele>498.33333333333337</ele><time>2026-04-18T08:00:06.068Z</time></trkpt><trkpt lat="43.323905" lon="13.1894733"><ele>496.0</ele><time>2026-04-18T08:00:07.068Z</time></trkpt><trkpt lat="43.3238417" lon="13.18927"><ele>496.0</ele><time>2026-04-18T08:00:08.068Z</time></trkpt><trkpt lat="43.323785" lon="13.1890417"><ele>496.0</ele><time>2026-04-18T08:00:09.068Z</time></trkpt><trkpt lat="43.3237183" lon="13.188795"><ele>496.0</ele><time>2026-04-18T08:00:10.068Z</time></trkpt><trkpt lat="43.3236333" lon="13.1885567"><ele>499.0</ele><time>2026-04-18T08:00:11.068Z</time></trkpt><trkpt lat="43.3235483" lon="13.188345"><ele>502.0</ele><time>2026-04-18T08:00:12.068Z</time></trkpt><trkpt lat="43.3234667" lon="13.1881633"><ele>505.0</ele><time>2026-04-18T08:00:13.068Z</time></trkpt><trkpt lat="43.3233983" lon="13.1880033"><ele>506.0</ele><time>2026-04-18T08:00:14.068Z</time></trkpt><trkpt lat="43.323345" lon="13.1878533"><ele>507.0</ele><time>2026-04-18T08:00:15.068Z</time></trkpt><trkpt lat="43.3233" lon="13.1877217"><ele>508.0</ele><time>2026-04-18T08:00:16.068Z</time></trkpt><trkpt lat="43.3232567" lon="13.1876133"><ele>509.0</ele><time>2026-04-18T08:00:17.068Z</time></trkpt><trkpt lat="43.3232283" lon="13.1875267"><ele>510.0</ele><time>2026-04-18T08:00:18.068Z</time></trkpt><trkpt lat="43.3231967" lon="13.1874133"><ele>510.6</ele><time>2026-04-18T08:00:20.068Z</time></trkpt><trkpt lat="43.3231367" lon="13.1873233"><ele>511.2</ele><time>2026-04-18T08:00:47.068Z</time></trkpt><trkpt lat="43.3230183" lon="13.18727"><ele>511.79999999999995</ele><time>2026-04-18T08:00:49.068Z</time></trkpt><trkpt lat="43.3229383" lon="13.1872583"><ele>512.4</ele><time>2026-04-18T08:00:50.068Z</time></trkpt><trkpt lat="43.3228467" lon="13.18724"><ele>513.0</ele><time>2026-04-18T08:00:51.068Z</time></trkpt><trkpt lat="43.32274" lon="13.1872333"><ele>511.0</ele><time>2026-04-18T08:00:52.068Z</time></trkpt><trkpt lat="43.3226317" lon="13.1872233"><ele>509.0</ele><time>2026-04-18T08:00:53.068Z</time></trkpt><trkpt lat="43.3225133" lon="13.1872133"><ele>507.0</ele><time>2026-04-18T08:00:54.068Z</time></trkpt><trkpt lat="43.32239" lon="13.187205"><ele>505.0</ele><time>2026-04-18T08:00:55.068Z</time></trkpt><trkpt lat="43.32225" lon="13.1871817"><ele>504.75</ele><time>2026-04-18T08:00:56.068Z</time></trkpt><trkpt lat="43.3221133" lon="13.1871617"><ele>504.5</ele><time>2026-04-18T08:00:57.068Z</time></trkpt><trkpt lat="43.3219833" lon="13.1871233"><ele>504.25</ele><time>2026-04-18T08:00:58.068Z</time></trkpt><trkpt lat="43.321855" lon="13.1870917"><ele>504.0</ele><time>2026-04-18T08:00:59.069Z</time></trkpt><trkpt lat="43.32172" lon="13.1870467"><ele>504.0</ele><time>2026-04-18T08:01:00.068Z</time></trkpt><trkpt lat="43.3216" lon="13.1869783"><ele>504.0</ele><time>2026-04-18T08:01:01.069Z</time></trkpt><trkpt lat="43.321495" lon="13.1868833"><ele>504.0</ele><time>2026-04-18T08:01:02.068Z</time></trkpt><trkpt lat="43.3213983" lon="13.1867517"><ele>504.0</ele><time>2026-04-18T08:01:03.068Z</time></trkpt><trkpt lat="43.3213067" lon="13.1866117"><ele>505.0</ele><time>2026-04-18T08:01:04.069Z</time></trkpt><trkpt lat="43.3212067" lon="13.1864567"><ele>506.0</ele><time>2026-04-18T08:01:05.068Z</time></trkpt><trkpt lat="43.32112" lon="13.1862867"><ele>507.0</ele><time>2026-04-18T08:01:06.068Z</time></trkpt><trkpt lat="43.32104" lon="13.1861067"><ele>507.0</ele><time>2026-04-18T08:01:07.068Z</time></trkpt><trkpt lat="43.3209717" lon="13.185905"><ele>507.0</ele><time>2026-04-18T08:01:08.069Z</time></trkpt><trkpt lat="43.320905" lon="13.1857233"><ele>507.0</ele><time>2026-04-18T08:01:09.068Z</time></trkpt><trkpt lat="43.32085" lon="13.1855333"><ele>506.0</ele><time>2026-04-18T08:01:10.069Z</time></trkpt><trkpt lat="43.3207967" lon="13.1853467"><ele>505.0</ele><time>2026-04-18T08:01:11.068Z</time></trkpt><trkpt lat="43.3207267" lon="13.1851667"><ele>504.0</ele><time>2026-04-18T08:01:12.068Z</time></trkpt><trkpt lat="43.3206567" lon="13.1849917"><ele>503.0</ele><time>2026-04-18T08:01:13.068Z</time></trkpt><trkpt lat="43.3205783" lon="13.1848333"><ele>502.5</ele><time>2026-04-18T08:01:14.068Z</time></trkpt><trkpt lat="43.320495" lon="13.1846867"><ele>502.0</ele><time>2026-04-18T08:01:15.068Z</time></trkpt><trkpt lat="43.3204183" lon="13.1845567"><ele>501.5</ele><time>2026-04-18T08:01:16.068Z</time></trkpt><trkpt lat="43.3203283" lon="13.1844517"><ele>501.0</ele><time>2026-04-18T08:01:17.068Z</time></trkpt><trkpt lat="43.3202267" lon="13.184365"><ele>501.0</ele><time>2026-04-18T08:01:18.068Z</time></trkpt><trkpt lat="43.320115" lon="13.1843033"><ele>501.0</ele><time>2026-04-18T08:01:19.068Z</time></trkpt><trkpt lat="43.3199833" lon="13.1842617"><ele>501.0</ele><time>2026-04-18T08:01:20.069Z</time></trkpt><trkpt lat="43.3198433" lon="13.1842517"><ele>501.0</ele><time>2026-04-18T08:01:21.068Z</time></trkpt><trkpt lat="43.31968" lon="13.1842483"><ele>501.0</ele><time>2026-04-18T08:01:22.069Z</time></trkpt><trkpt lat="43.3195183" lon="13.1842383"><ele>501.0</ele><time>2026-04-18T08:01:23.068Z</time></trkpt><trkpt lat="43.31936" lon="13.184225"><ele>501.0</ele><time>2026-04-18T08:01:24.069Z</time></trkpt><trkpt lat="43.319205" lon="13.184215"><ele>501.0</ele><time>2026-04-18T08:01:25.068Z</time></trkpt><trkpt lat="43.31907" lon="13.1842017"><ele>501.0</ele><time>2026-04-18T08:01:26.068Z</time></trkpt><trkpt lat="43.3189367" lon="13.18419"><ele>501.0</ele><time>2026-04-18T08:01:27.069Z</time></trkpt><trkpt lat="43.3188183" lon="13.1841733"><ele>501.0</ele><time>2026-04-18T08:01:28.068Z</time></trkpt><trkpt lat="43.318715" lon="13.1841283"><ele>501.0</ele><time>2026-04-18T08:01:29.068Z</time></trkpt><trkpt lat="43.3186333" lon="13.1840517"><ele>501.0</ele><time>2026-04-18T08:01:30.068Z</time></trkpt><trkpt lat="43.318575" lon="13.1839417"><ele>501.0</ele><time>2026-04-18T08:01:31.068Z</time></trkpt><trkpt lat="43.3185383" lon="13.1838"><ele>501.0</ele><time>2026-04-18T08:01:32.068Z</time></trkpt><trkpt lat="43.3185133" lon="13.183635"><ele>501.0</ele><time>2026-04-18T08:01:33.068Z</time></trkpt><trkpt lat="43.3184967" lon="13.1834633"><ele>501.0</ele><time>2026-04-18T08:01:34.068Z</time></trkpt><trkpt lat="43.3184567" lon="13.1833"><ele>501.0</ele><time>2026-04-18T08:01:35.068Z</time></trkpt><trkpt lat="43.3183983" lon="13.1831267"><ele>501.0</ele><time>2026-04-18T08:01:36.069Z</time></trkpt><trkpt lat="43.3183233" lon="13.1829817"><ele>501.0</ele><time>2026-04-18T08:01:37.068Z</time></trkpt><trkpt lat="43.318235" lon="13.1828517"><ele>501.0</ele><time>2026-04-18T08:01:38.068Z</time></trkpt><trkpt lat="43.318135" lon="13.182735"><ele>501.0</ele><time>2026-04-18T08:01:39.068Z</time></trkpt><trkpt lat="43.318025" lon="13.182645"><ele>501.0</ele><time>2026-04-18T08:01:40.069Z</time></trkpt><trkpt lat="43.3178983" lon="13.18258"><ele>501.0</ele><time>2026-04-18T08:01:41.068Z</time></trkpt><trkpt lat="43.3177717" lon="13.1825183"><ele>501.0</ele><time>2026-04-18T08:01:42.068Z</time></trkpt><trkpt lat="43.317635" lon="13.182445"><ele>501.0</ele><time>2026-04-18T08:01:43.068Z</time></trkpt><trkpt lat="43.3175017" lon="13.1823717"><ele>501.0</ele><time>2026-04-18T08:01:44.068Z</time></trkpt><trkpt lat="43.317365" lon="13.182305"><ele>501.0</ele><time>2026-04-18T08:01:45.069Z</time></trkpt><trkpt lat="43.3172383" lon="13.1822417"><ele>498.25</ele><time>2026-04-18T08:01:46.068Z</time></trkpt><trkpt lat="43.317125" lon="13.1821633"><ele>495.5</ele><time>2026-04-18T08:01:47.068Z</time></trkpt><trkpt lat="43.3170217" lon="13.18207"><ele>492.75</ele><time>2026-04-18T08:01:48.067Z</time></trkpt><trkpt lat="43.31693" lon="13.1819517"><ele>490.0</ele><time>2026-04-18T08:01:49.068Z</time></trkpt><trkpt lat="43.316845" lon="13.1818267"><ele>490.0</ele><time>2026-04-18T08:01:50.067Z</time></trkpt><trkpt lat="43.3167517" lon="13.18172"><ele>490.0</ele><time>2026-04-18T08:01:51.067Z</time></trkpt><trkpt lat="43.31665" lon="13.1816567"><ele>490.0</ele><time>2026-04-18T08:01:52.067Z</time></trkpt><trkpt lat="43.3165367" lon="13.1816283"><ele>490.0</ele><time>2026-04-18T08:01:53.067Z</time></trkpt><trkpt lat="43.3164133" lon="13.181615"><ele>490.25</ele><time>2026-04-18T08:01:54.067Z</time></trkpt><trkpt lat="43.3162733" lon="13.1816067"><ele>490.5</ele><time>2026-04-18T08:01:55.067Z</time></trkpt><trkpt lat="43.3161267" lon="13.1815983"><ele>490.75</ele><time>2026-04-18T08:01:56.068Z</time></trkpt><trkpt lat="43.31599" lon="13.1816"><ele>491.0</ele><time>2026-04-18T08:01:57.067Z</time></trkpt><trkpt lat="43.3158583" lon="13.1816067"><ele>491.0</ele><time>2026-04-18T08:01:58.068Z</time></trkpt><trkpt lat="43.3157333" lon="13.1816183"><ele>491.0</ele><time>2026-04-18T08:01:59.067Z</time></trkpt><trkpt lat="43.31561" lon="13.1816567"><ele>491.0</ele><time>2026-04-18T08:02:00.067Z</time></trkpt><trkpt lat="43.3154933" lon="13.181715"><ele>491.0</ele><time>2026-04-18T08:02:01.068Z</time></trkpt><trkpt lat="43.315395" lon="13.18179"><ele>491.0</ele><time>2026-04-18T08:02:02.067Z</time></trkpt><trkpt lat="43.3152933" lon="13.181865"><ele>491.0</ele><time>2026-04-18T08:02:03.067Z</time></trkpt><trkpt lat="43.3151967" lon="13.1819367"><ele>491.0</ele><time>2026-04-18T08:02:04.067Z</time></trkpt><trkpt lat="43.3151083" lon="13.1819933"><ele>491.0</ele><time>2026-04-18T08:02:05.067Z</time></trkpt><trkpt lat="43.3150217" lon="13.1820283"><ele>491.0</ele><time>2026-04-18T08:02:06.067Z</time></trkpt><trkpt lat="43.3149433" lon="13.1820417"><ele>490.99999999999994</ele><time>2026-04-18T08:02:07.067Z</time></trkpt><trkpt lat="43.31483" lon="13.18198"><ele>491.0</ele><time>2026-04-18T08:02:09.067Z</time></trkpt><trkpt lat="43.3147983" lon="13.1819"><ele>491.0</ele><time>2026-04-18T08:02:10.068Z</time></trkpt><trkpt lat="43.31479" lon="13.1818083"><ele>491.0</ele><time>2026-04-18T08:02:11.067Z</time></trkpt><trkpt lat="43.3148083" lon="13.1817017"><ele>490.99999999999994</ele><time>2026-04-18T08:02:12.067Z</time></trkpt><trkpt lat="43.3148417" lon="13.18156"><ele>491.0</ele><time>2026-04-18T08:02:13.067Z</time></trkpt><trkpt lat="43.31487" lon="13.181385"><ele>487.75</ele><time>2026-04-18T08:02:14.068Z</time></trkpt><trkpt lat="43.31487" lon="13.1812233"><ele>484.5</ele><time>2026-04-18T08:02:15.067Z</time></trkpt><trkpt lat="43.3148417" lon="13.1810617"><ele>481.25</ele><time>2026-04-18T08:02:16.068Z</time></trkpt><trkpt lat="43.3148017" lon="13.1809133"><ele>478.0</ele><time>2026-04-18T08:02:17.068Z</time></trkpt><trkpt lat="43.31477" lon="13.1807633"><ele>478.2</ele><time>2026-04-18T08:02:18.067Z</time></trkpt><trkpt lat="43.3147567" lon="13.180605"><ele>478.4</ele><time>2026-04-18T08:02:19.067Z</time></trkpt><trkpt lat="43.31475" lon="13.1804533"><ele>478.59999999999997</ele><time>2026-04-18T08:02:20.067Z</time></trkpt><trkpt lat="43.3147517" lon="13.1803033"><ele>478.79999999999995</ele><time>2026-04-18T08:02:21.067Z</time></trkpt><trkpt lat="43.3147467" lon="13.1801583"><ele>479.0</ele><time>2026-04-18T08:02:22.067Z</time></trkpt><trkpt lat="43.31472" lon="13.1800183"><ele>479.0</ele><time>2026-04-18T08:02:23.067Z</time></trkpt><trkpt lat="43.3146783" lon="13.17989"><ele>479.0</ele><time>2026-04-18T08:02:24.068Z</time></trkpt><trkpt lat="43.3146183" lon="13.1797767"><ele>479.0</ele><time>2026-04-18T08:02:25.067Z</time></trkpt><trkpt lat="43.3145483" lon="13.1796767"><ele>479.0</ele><time>2026-04-18T08:02:26.067Z</time></trkpt><trkpt lat="43.3144683" lon="13.1795817"><ele>479.0</ele><time>2026-04-18T08:02:27.067Z</time></trkpt><trkpt lat="43.3143883" lon="13.1794983"><ele>477.0</ele><time>2026-04-18T08:02:28.067Z</time></trkpt><trkpt lat="43.3143017" lon="13.1794117"><ele>475.0</ele><time>2026-04-18T08:02:29.067Z</time></trkpt><trkpt lat="43.31421" lon="13.1793283"><ele>473.0</ele><time>2026-04-18T08:02:30.067Z</time></trkpt><trkpt lat="43.3141133" lon="13.17924"><ele>471.0</ele><time>2026-04-18T08:02:31.067Z</time></trkpt><trkpt lat="43.3140183" lon="13.179155"><ele>469.0</ele><time>2026-04-18T08:02:32.068Z</time></trkpt><trkpt lat="43.313925" lon="13.1790617"><ele>468.25</ele><time>2026-04-18T08:02:33.067Z</time></trkpt><trkpt lat="43.3138317" lon="13.1789717"><ele>467.5</ele><time>2026-04-18T08:02:34.067Z</time></trkpt><trkpt lat="43.3137383" lon="13.1788717"><ele>466.75</ele><time>2026-04-18T08:02:35.067Z</time></trkpt><trkpt lat="43.313645" lon="13.178785"><ele>466.0</ele><time>2026-04-18T08:02:36.067Z</time></trkpt><trkpt lat="43.3135583" lon="13.178695"><ele>466.0</ele><time>2026-04-18T08:02:37.068Z</time></trkpt><trkpt lat="43.31348" lon="13.1785983"><ele>466.0</ele><time>2026-04-18T08:02:38.067Z</time></trkpt><trkpt lat="43.3134083" lon="13.1785167"><ele>466.0</ele><time>2026-04-18T08:02:39.067Z</time></trkpt><trkpt lat="43.3133367" lon="13.1784333"><ele>466.0</ele><time>2026-04-18T08:02:40.067Z</time></trkpt><trkpt lat="43.3132633" lon="13.178355"><ele>466.0</ele><time>2026-04-18T08:02:41.067Z</time></trkpt><trkpt lat="43.3131917" lon="13.178275"><ele>466.00000000000006</ele><time>2026-04-18T08:02:42.067Z</time></trkpt><trkpt lat="43.3131183" lon="13.17819"><ele>466.0</ele><time>2026-04-18T08:02:43.068Z</time></trkpt><trkpt lat="43.3130433" lon="13.178115"><ele>466.0</ele><time>2026-04-18T08:02:44.067Z</time></trkpt><trkpt lat="43.3129783" lon="13.178035"><ele>466.0</ele><time>2026-04-18T08:02:45.067Z</time></trkpt><trkpt lat="43.3129183" lon="13.17796"><ele>466.00000000000006</ele><time>2026-04-18T08:02:46.067Z</time></trkpt><trkpt lat="43.3128667" lon="13.1778883"><ele>466.0</ele><time>2026-04-18T08:02:47.067Z</time></trkpt><trkpt lat="43.3128283" lon="13.177815"><ele>466.20000000000005</ele><time>2026-04-18T08:02:48.067Z</time></trkpt><trkpt lat="43.3127967" lon="13.17767"><ele>466.40000000000003</ele><time>2026-04-18T08:02:50.067Z</time></trkpt><trkpt lat="43.3128267" lon="13.1774817"><ele>466.6</ele><time>2026-04-18T08:02:52.067Z</time></trkpt><trkpt lat="43.3128333" lon="13.1773767"><ele>466.8</ele><time>2026-04-18T08:02:53.067Z</time></trkpt><trkpt lat="43.3128383" lon="13.1772833"><ele>467.0</ele><time>2026-04-18T08:02:54.067Z</time></trkpt><trkpt lat="43.3128583" lon="13.177195"><ele>467.99999999999994</ele><time>2026-04-18T08:02:55.067Z</time></trkpt><trkpt lat="43.31289" lon="13.17711"><ele>469.0</ele><time>2026-04-18T08:02:56.067Z</time></trkpt><trkpt lat="43.3129633" lon="13.1770133"><ele>470.0</ele><time>2026-04-18T08:02:58.067Z</time></trkpt><trkpt lat="43.3130267" lon="13.177"><ele>471.0</ele><time>2026-04-18T08:02:59.067Z</time></trkpt><trkpt lat="43.3131033" lon="13.1769967"><ele>471.99999999999994</ele><time>2026-04-18T08:03:00.067Z</time></trkpt><trkpt lat="43.3131783" lon="13.1769883"><ele>473.0</ele><time>2026-04-18T08:03:01.067Z</time></trkpt><trkpt lat="43.3132417" lon="13.176965"><ele>473.57142857142856</ele><time>2026-04-18T08:03:02.067Z</time></trkpt><trkpt lat="43.3133067" lon="13.1769083"><ele>474.1428571428571</ele><time>2026-04-18T08:03:03.067Z</time></trkpt><trkpt lat="43.3133467" lon="13.1768367"><ele>474.71428571428567</ele><time>2026-04-18T08:03:04.067Z</time></trkpt><trkpt lat="43.3133767" lon="13.17675"><ele>475.2857142857143</ele><time>2026-04-18T08:03:05.067Z</time></trkpt><trkpt lat="43.313375" lon="13.1766483"><ele>475.8571428571428</ele><time>2026-04-18T08:03:06.067Z</time></trkpt><trkpt lat="43.31336" lon="13.1765483"><ele>476.4285714285714</ele><time>2026-04-18T08:03:07.067Z</time></trkpt><trkpt lat="43.31333" lon="13.1764583"><ele>477.0</ele><time>2026-04-18T08:03:08.067Z</time></trkpt><trkpt lat="43.3132833" lon="13.1763717"><ele>477.40000000000003</ele><time>2026-04-18T08:03:09.067Z</time></trkpt><trkpt lat="43.3132183" lon="13.176275"><ele>477.80000000000007</ele><time>2026-04-18T08:03:10.067Z</time></trkpt><trkpt lat="43.313145" lon="13.1761733"><ele>478.2</ele><time>2026-04-18T08:03:11.068Z</time></trkpt><trkpt lat="43.313075" lon="13.1760683"><ele>478.6</ele><time>2026-04-18T08:03:12.067Z</time></trkpt><trkpt lat="43.3130183" lon="13.1759567"><ele>479.0</ele><time>2026-04-18T08:03:13.067Z</time></trkpt><trkpt lat="43.31297" lon="13.175825"><ele>484.75</ele><time>2026-04-18T08:03:14.067Z</time></trkpt><trkpt lat="43.3129317" lon="13.1756717"><ele>490.5</ele><time>2026-04-18T08:03:15.067Z</time></trkpt><trkpt lat="43.3129133" lon="13.1755167"><ele>496.25</ele><time>2026-04-18T08:03:16.067Z</time></trkpt><trkpt lat="43.3129133" lon="13.1753583"><ele>502.0</ele><time>2026-04-18T08:03:17.067Z</time></trkpt><trkpt lat="43.31295" lon="13.1752167"><ele>502.0</ele><time>2026-04-18T08:03:18.067Z</time></trkpt><trkpt lat="43.3129933" lon="13.175075"><ele>502.00000000000006</ele><time>2026-04-18T08:03:19.067Z</time></trkpt><trkpt lat="43.3130383" lon="13.174945"><ele>502.00000000000006</ele><time>2026-04-18T08:03:20.067Z</time></trkpt><trkpt lat="43.31309" lon="13.1748133"><ele>502.0</ele><time>2026-04-18T08:03:21.067Z</time></trkpt><trkpt lat="43.3131317" lon="13.1746733"><ele>502.0</ele><time>2026-04-18T08:03:22.067Z</time></trkpt><trkpt lat="43.3131567" lon="13.17453"><ele>502.6</ele><time>2026-04-18T08:03:23.067Z</time></trkpt><trkpt lat="43.3131667" lon="13.1743933"><ele>503.20000000000005</ele><time>2026-04-18T08:03:24.067Z</time></trkpt><trkpt lat="43.3131517" lon="13.1742717"><ele>503.8</ele><time>2026-04-18T08:03:25.068Z</time></trkpt><trkpt lat="43.313115" lon="13.174155"><ele>504.4</ele><time>2026-04-18T08:03:26.068Z</time></trkpt><trkpt lat="43.3130667" lon="13.1740383"><ele>505.0</ele><time>2026-04-18T08:03:27.067Z</time></trkpt><trkpt lat="43.31301" lon="13.173925"><ele>505.0</ele><time>2026-04-18T08:03:28.067Z</time></trkpt><trkpt lat="43.312945" lon="13.1738167"><ele>505.0</ele><time>2026-04-18T08:03:29.067Z</time></trkpt><trkpt lat="43.3128683" lon="13.17371"><ele>505.0</ele><time>2026-04-18T08:03:30.067Z</time></trkpt><trkpt lat="43.3127933" lon="13.1736167"><ele>505.0</ele><time>2026-04-18T08:03:31.067Z</time></trkpt><trkpt lat="43.3126967" lon="13.173525"><ele>505.0</ele><time>2026-04-18T08:03:32.068Z</time></trkpt><trkpt lat="43.3125917" lon="13.1734267"><ele>505.0</ele><time>2026-04-18T08:03:33.067Z</time></trkpt><trkpt lat="43.3124783" lon="13.1733167"><ele>505.0</ele><time>2026-04-18T08:03:34.068Z</time></trkpt><trkpt lat="43.3123617" lon="13.173205"><ele>505.0</ele><time>2026-04-18T08:03:35.067Z</time></trkpt><trkpt lat="43.3122333" lon="13.1730983"><ele>505.0</ele><time>2026-04-18T08:03:36.067Z</time></trkpt><trkpt lat="43.312105" lon="13.172975"><ele>506.5</ele><time>2026-04-18T08:03:37.067Z</time></trkpt><trkpt lat="43.3119883" lon="13.172845"><ele>508.0</ele><time>2026-04-18T08:03:38.067Z</time></trkpt><trkpt lat="43.311875" lon="13.1727217"><ele>509.5</ele><time>2026-04-18T08:03:39.067Z</time></trkpt><trkpt lat="43.311765" lon="13.172605"><ele>511.0</ele><time>2026-04-18T08:03:40.068Z</time></trkpt><trkpt lat="43.3116617" lon="13.1724983"><ele>511.0</ele><time>2026-04-18T08:03:41.067Z</time></trkpt><trkpt lat="43.31156" lon="13.172385"><ele>511.0</ele><time>2026-04-18T08:03:42.067Z</time></trkpt><trkpt lat="43.3114617" lon="13.1722733"><ele>511.0</ele><time>2026-04-18T08:03:43.067Z</time></trkpt><trkpt lat="43.311365" lon="13.1721683"><ele>511.0</ele><time>2026-04-18T08:03:44.067Z</time></trkpt><trkpt lat="43.3112617" lon="13.172075"><ele>513.0</ele><time>2026-04-18T08:03:45.068Z</time></trkpt><trkpt lat="43.3111483" lon="13.1720067"><ele>515.0</ele><time>2026-04-18T08:03:46.067Z</time></trkpt><trkpt lat="43.311035" lon="13.1719417"><ele>517.0</ele><time>2026-04-18T08:03:47.068Z</time></trkpt><trkpt lat="43.3109183" lon="13.1718767"><ele>519.0</ele><time>2026-04-18T08:03:48.068Z</time></trkpt><trkpt lat="43.3108017" lon="13.1718167"><ele>519.0</ele><time>2026-04-18T08:03:49.067Z</time></trkpt><trkpt lat="43.3106983" lon="13.1717567"><ele>519.0</ele><time>2026-04-18T08:03:50.067Z</time></trkpt><trkpt lat="43.3105933" lon="13.1717133"><ele>519.0</ele><time>2026-04-18T08:03:51.067Z</time></trkpt><trkpt lat="43.3104983" lon="13.1716717"><ele>519.0</ele><time>2026-04-18T08:03:52.067Z</time></trkpt><trkpt lat="43.3104167" lon="13.1716117"><ele>519.0</ele><time>2026-04-18T08:03:53.068Z</time></trkpt><trkpt lat="43.3103517" lon="13.171535"><ele>518.0</ele><time>2026-04-18T08:03:54.068Z</time></trkpt><trkpt lat="43.310285" lon="13.17145"><ele>517.0</ele><time>2026-04-18T08:03:55.067Z</time></trkpt><trkpt lat="43.3102183" lon="13.1713633"><ele>516.0</ele><time>2026-04-18T08:03:56.068Z</time></trkpt><trkpt lat="43.3101583" lon="13.1712667"><ele>515.0</ele><time>2026-04-18T08:03:57.067Z</time></trkpt><trkpt lat="43.3100933" lon="13.17116"><ele>514.0</ele><time>2026-04-18T08:03:58.067Z</time></trkpt><trkpt lat="43.3100333" lon="13.17104"><ele>514.0</ele><time>2026-04-18T08:03:59.068Z</time></trkpt><trkpt lat="43.3099733" lon="13.1709267"><ele>514.0</ele><time>2026-04-18T08:04:00.068Z</time></trkpt><trkpt lat="43.309905" lon="13.170815"><ele>514.0</ele><time>2026-04-18T08:04:01.067Z</time></trkpt><trkpt lat="43.3098317" lon="13.1707233"><ele>514.0</ele><time>2026-04-18T08:04:02.067Z</time></trkpt><trkpt lat="43.3097433" lon="13.1706367"><ele>514.0</ele><time>2026-04-18T08:04:03.067Z</time></trkpt><trkpt lat="43.3096517" lon="13.1705517"><ele>513.6</ele><time>2026-04-18T08:04:04.067Z</time></trkpt><trkpt lat="43.3095583" lon="13.1704717"><ele>513.2</ele><time>2026-04-18T08:04:05.068Z</time></trkpt><trkpt lat="43.3094617" lon="13.1703933"><ele>512.8000000000001</ele><time>2026-04-18T08:04:06.067Z</time></trkpt><trkpt lat="43.309365" lon="13.1703183"><ele>512.4</ele><time>2026-04-18T08:04:07.067Z</time></trkpt><trkpt lat="43.3092667" lon="13.170245"><ele>512.0</ele><time>2026-04-18T08:04:08.068Z</time></trkpt><trkpt lat="43.3091683" lon="13.1701767"><ele>512.0</ele><time>2026-04-18T08:04:09.067Z</time></trkpt><trkpt lat="43.309065" lon="13.1701183"><ele>512.0</ele><time>2026-04-18T08:04:10.067Z</time></trkpt><trkpt lat="43.308955" lon="13.170075"><ele>512.0</ele><time>2026-04-18T08:04:11.067Z</time></trkpt><trkpt lat="43.3088433" lon="13.1700333"><ele>512.0</ele><time>2026-04-18T08:04:12.067Z</time></trkpt><trkpt lat="43.308735" lon="13.1699967"><ele>511.8</ele><time>2026-04-18T08:04:13.067Z</time></trkpt><trkpt lat="43.3086283" lon="13.16996"><ele>511.6</ele><time>2026-04-18T08:04:14.067Z</time></trkpt><trkpt lat="43.308525" lon="13.1699233"><ele>511.40000000000003</ele><time>2026-04-18T08:04:15.067Z</time></trkpt><trkpt lat="43.308425" lon="13.1698967"><ele>511.20000000000005</ele><time>2026-04-18T08:04:16.067Z</time></trkpt><trkpt lat="43.308315" lon="13.1698633"><ele>511.0</ele><time>2026-04-18T08:04:17.068Z</time></trkpt><trkpt lat="43.3082" lon="13.1698433"><ele>509.75</ele><time>2026-04-18T08:04:18.067Z</time></trkpt><trkpt lat="43.30808" lon="13.1698367"><ele>508.5</ele><time>2026-04-18T08:04:19.067Z</time></trkpt><trkpt lat="43.3079667" lon="13.1698183"><ele>507.25</ele><time>2026-04-18T08:04:20.067Z</time></trkpt><trkpt lat="43.3078483" lon="13.1697967"><ele>506.0</ele><time>2026-04-18T08:04:21.067Z</time></trkpt><trkpt lat="43.3077383" lon="13.1697583"><ele>505.5</ele><time>2026-04-18T08:04:22.068Z</time></trkpt><trkpt lat="43.3076283" lon="13.16972"><ele>505.0</ele><time>2026-04-18T08:04:23.068Z</time></trkpt><trkpt lat="43.3075167" lon="13.16966"><ele>504.5</ele><time>2026-04-18T08:04:24.067Z</time></trkpt><trkpt lat="43.307405" lon="13.1695933"><ele>504.0</ele><time>2026-04-18T08:04:25.067Z</time></trkpt><trkpt lat="43.3073" lon="13.1695117"><ele>505.75</ele><time>2026-04-18T08:04:26.067Z</time></trkpt><trkpt lat="43.3072017" lon="13.1694217"><ele>507.5</ele><time>2026-04-18T08:04:27.067Z</time></trkpt><trkpt lat="43.3071033" lon="13.169335"><ele>509.25</ele><time>2026-04-18T08:04:28.067Z</time></trkpt><trkpt lat="43.3070117" lon="13.1692517"><ele>511.0</ele><time>2026-04-18T08:04:29.067Z</time></trkpt><trkpt lat="43.3069167" lon="13.16918"><ele>511.0</ele><time>2026-04-18T08:04:30.067Z</time></trkpt><trkpt lat="43.3068183" lon="13.1691267"><ele>511.0</ele><time>2026-04-18T08:04:31.068Z</time></trkpt><trkpt lat="43.3067167" lon="13.1690817"><ele>511.0</ele><time>2026-04-18T08:04:32.067Z</time></trkpt><trkpt lat="43.3066167" lon="13.1690483"><ele>511.0</ele><time>2026-04-18T08:04:33.067Z</time></trkpt><trkpt lat="43.3065233" lon="13.1690067"><ele>511.0</ele><time>2026-04-18T08:04:34.067Z</time></trkpt><trkpt lat="43.3064467" lon="13.16895"><ele>512.0</ele><time>2026-04-18T08:04:35.067Z</time></trkpt><trkpt lat="43.3063733" lon="13.1688767"><ele>513.0</ele><time>2026-04-18T08:04:36.067Z</time></trkpt><trkpt lat="43.3063017" lon="13.1687767"><ele>514.0</ele><time>2026-04-18T08:04:37.067Z</time></trkpt><trkpt lat="43.3062333" lon="13.16866"><ele>515.0</ele><time>2026-04-18T08:04:38.067Z</time></trkpt><trkpt lat="43.3061683" lon="13.1685417"><ele>516.0</ele><time>2026-04-18T08:04:39.067Z</time></trkpt><trkpt lat="43.306085" lon="13.1684183"><ele>516.0</ele><time>2026-04-18T08:04:40.067Z</time></trkpt><trkpt lat="43.3060033" lon="13.1682983"><ele>516.0</ele><time>2026-04-18T08:04:41.068Z</time></trkpt><trkpt lat="43.3059233" lon="13.1681933"><ele>516.0</ele><time>2026-04-18T08:04:42.067Z</time></trkpt><trkpt lat="43.30585" lon="13.1680883"><ele>516.0</ele><time>2026-04-18T08:04:43.067Z</time></trkpt><trkpt lat="43.3057817" lon="13.1679917"><ele>516.0</ele><time>2026-04-18T08:04:44.067Z</time></trkpt><trkpt lat="43.3057133" lon="13.1679"><ele>515.4</ele><time>2026-04-18T08:04:45.067Z</time></trkpt><trkpt lat="43.3056483" lon="13.1678133"><ele>514.8</ele><time>2026-04-18T08:04:46.068Z</time></trkpt><trkpt lat="43.30558" lon="13.1677183"><ele>514.1999999999999</ele><time>2026-04-18T08:04:47.067Z</time></trkpt><trkpt lat="43.3055033" lon="13.1676367"><ele>513.6</ele><time>2026-04-18T08:04:48.067Z</time></trkpt><trkpt lat="43.30542" lon="13.167565"><ele>513.0</ele><time>2026-04-18T08:04:49.067Z</time></trkpt><trkpt lat="43.3053367" lon="13.1674967"><ele>513.0</ele><time>2026-04-18T08:04:50.067Z</time></trkpt><trkpt lat="43.3052533" lon="13.1674417"><ele>513.0</ele><time>2026-04-18T08:04:51.067Z</time></trkpt><trkpt lat="43.305175" lon="13.16737"><ele>513.0</ele><time>2026-04-18T08:04:52.067Z</time></trkpt><trkpt lat="43.3050967" lon="13.1673"><ele>513.0</ele><time>2026-04-18T08:04:53.067Z</time></trkpt><trkpt lat="43.3050167" lon="13.167215"><ele>513.0</ele><time>2026-04-18T08:04:54.067Z</time></trkpt><trkpt lat="43.3049483" lon="13.1671217"><ele>514.1999999999999</ele><time>2026-04-18T08:04:55.067Z</time></trkpt><trkpt lat="43.3048933" lon="13.16701"><ele>515.4</ele><time>2026-04-18T08:04:56.067Z</time></trkpt><trkpt lat="43.3048367" lon="13.1668967"><ele>516.5999999999999</ele><time>2026-04-18T08:04:57.067Z</time></trkpt><trkpt lat="43.3047833" lon="13.166785"><ele>517.8</ele><time>2026-04-18T08:04:58.067Z</time></trkpt><trkpt lat="43.3047367" lon="13.1666667"><ele>519.0</ele><time>2026-04-18T08:04:59.067Z</time></trkpt><trkpt lat="43.3046983" lon="13.1665433"><ele>520.3333333333334</ele><time>2026-04-18T08:05:00.067Z</time></trkpt><trkpt lat="43.3046617" lon="13.16642"><ele>521.6666666666666</ele><time>2026-04-18T08:05:01.067Z</time></trkpt><trkpt lat="43.3046283" lon="13.1663"><ele>523.0</ele><time>2026-04-18T08:05:02.067Z</time></trkpt><trkpt lat="43.3046167" lon="13.1661867"><ele>524.3333333333333</ele><time>2026-04-18T08:05:03.067Z</time></trkpt><trkpt lat="43.3046033" lon="13.1660667"><ele>525.6666666666666</ele><time>2026-04-18T08:05:04.068Z</time></trkpt><trkpt lat="43.3045817" lon="13.1659617"><ele>527.0</ele><time>2026-04-18T08:05:05.067Z</time></trkpt><trkpt lat="43.30455" lon="13.1658867"><ele>527.0</ele><time>2026-04-18T08:05:06.067Z</time></trkpt><trkpt lat="43.3044517" lon="13.1658117"><ele>527.0</ele><time>2026-04-18T08:05:08.067Z</time></trkpt><trkpt lat="43.3043833" lon="13.16579"><ele>527.0</ele><time>2026-04-18T08:05:09.068Z</time></trkpt><trkpt lat="43.304315" lon="13.1657733"><ele>527.0</ele><time>2026-04-18T08:05:10.068Z</time></trkpt><trkpt lat="43.3042333" lon="13.1657667"><ele>527.0</ele><time>2026-04-18T08:05:11.068Z</time></trkpt><trkpt lat="43.3041517" lon="13.1657467"><ele>527.0</ele><time>2026-04-18T08:05:12.067Z</time></trkpt><trkpt lat="43.3040683" lon="13.1657267"><ele>527.0</ele><time>2026-04-18T08:05:13.067Z</time></trkpt><trkpt lat="43.3039783" lon="13.16571"><ele>527.0</ele><time>2026-04-18T08:05:14.067Z</time></trkpt><trkpt lat="43.303885" lon="13.1657017"><ele>527.0</ele><time>2026-04-18T08:05:15.067Z</time></trkpt><trkpt lat="43.3037883" lon="13.1656967"><ele>527.0</ele><time>2026-04-18T08:05:16.067Z</time></trkpt><trkpt lat="43.3037017" lon="13.165695"><ele>527.0</ele><time>2026-04-18T08:05:17.067Z</time></trkpt><trkpt lat="43.3036183" lon="13.165695"><ele>528.0</ele><time>2026-04-18T08:05:18.067Z</time></trkpt><trkpt lat="43.303535" lon="13.1656983"><ele>529.0</ele><time>2026-04-18T08:05:19.067Z</time></trkpt><trkpt lat="43.3034433" lon="13.1656983"><ele>530.0</ele><time>2026-04-18T08:05:20.068Z</time></trkpt><trkpt lat="43.3033517" lon="13.1657083"><ele>531.0</ele><time>2026-04-18T08:05:21.067Z</time></trkpt><trkpt lat="43.30325" lon="13.1657217"><ele>532.0</ele><time>2026-04-18T08:05:22.067Z</time></trkpt><trkpt lat="43.3031467" lon="13.1657317"><ele>533.0</ele><time>2026-04-18T08:05:23.067Z</time></trkpt><trkpt lat="43.3030433" lon="13.165745"><ele>534.0</ele><time>2026-04-18T08:05:24.067Z</time></trkpt><trkpt lat="43.3029233" lon="13.1657617"><ele>535.0</ele><time>2026-04-18T08:05:25.067Z</time></trkpt><trkpt lat="43.3028133" lon="13.1657667"><ele>536.0</ele><time>2026-04-18T08:05:26.067Z</time></trkpt><trkpt lat="43.3027" lon="13.1657733"><ele>537.0</ele><time>2026-04-18T08:05:27.067Z</time></trkpt><trkpt lat="43.3026067" lon="13.16578"><ele>537.0</ele><time>2026-04-18T08:05:28.067Z</time></trkpt><trkpt lat="43.3025033" lon="13.165795"><ele>537.0</ele><time>2026-04-18T08:05:29.067Z</time></trkpt><trkpt lat="43.3024033" lon="13.1658067"><ele>537.0</ele><time>2026-04-18T08:05:30.068Z</time></trkpt><trkpt lat="43.3022967" lon="13.165815"><ele>537.0</ele><time>2026-04-18T08:05:31.067Z</time></trkpt><trkpt lat="43.30219" lon="13.16582"><ele>537.0</ele><time>2026-04-18T08:05:32.068Z</time></trkpt><trkpt lat="43.30208" lon="13.16582"><ele>539.0</ele><time>2026-04-18T08:05:33.067Z</time></trkpt><trkpt lat="43.30197" lon="13.165815"><ele>541.0</ele><time>2026-04-18T08:05:34.068Z</time></trkpt><trkpt lat="43.3018583" lon="13.1658067"><ele>543.0</ele><time>2026-04-18T08:05:35.067Z</time></trkpt><trkpt lat="43.3017467" lon="13.1657983"><ele>545.0</ele><time>2026-04-18T08:05:36.067Z</time></trkpt><trkpt lat="43.3016317" lon="13.165785"><ele>547.0</ele><time>2026-04-18T08:05:37.067Z</time></trkpt><trkpt lat="43.30152" lon="13.1657767"><ele>547.0</ele><time>2026-04-18T08:05:38.067Z</time></trkpt><trkpt lat="43.3014167" lon="13.165765"><ele>547.0</ele><time>2026-04-18T08:05:39.067Z</time></trkpt><trkpt lat="43.3013117" lon="13.16574"><ele>547.0</ele><time>2026-04-18T08:05:40.067Z</time></trkpt><trkpt lat="43.3012117" lon="13.1656967"><ele>547.0</ele><time>2026-04-18T08:05:41.067Z</time></trkpt><trkpt lat="43.3011167" lon="13.1656417"><ele>547.0</ele><time>2026-04-18T08:05:42.067Z</time></trkpt><trkpt lat="43.301015" lon="13.165575"><ele>548.75</ele><time>2026-04-18T08:05:43.067Z</time></trkpt><trkpt lat="43.3009167" lon="13.16549"><ele>550.5</ele><time>2026-04-18T08:05:44.067Z</time></trkpt><trkpt lat="43.3008317" lon="13.1653867"><ele>552.25</ele><time>2026-04-18T08:05:45.068Z</time></trkpt><trkpt lat="43.3007433" lon="13.16527"><ele>554.0</ele><time>2026-04-18T08:05:46.067Z</time></trkpt><trkpt lat="43.300655" lon="13.1651533"><ele>553.75</ele><time>2026-04-18T08:05:47.067Z</time></trkpt><trkpt lat="43.3005717" lon="13.1650383"><ele>553.5</ele><time>2026-04-18T08:05:48.067Z</time></trkpt><trkpt lat="43.3004883" lon="13.1649133"><ele>553.25</ele><time>2026-04-18T08:05:49.067Z</time></trkpt><trkpt lat="43.3004083" lon="13.1647983"><ele>553.0</ele><time>2026-04-18T08:05:50.067Z</time></trkpt><trkpt lat="43.30033" lon="13.1646767"><ele>555.0</ele><time>2026-04-18T08:05:51.067Z</time></trkpt><trkpt lat="43.300255" lon="13.1645633"><ele>557.0</ele><time>2026-04-18T08:05:52.067Z</time></trkpt><trkpt lat="43.3001817" lon="13.16445"><ele>559.0</ele><time>2026-04-18T08:05:53.067Z</time></trkpt><trkpt lat="43.3001133" lon="13.164365"><ele>561.0</ele><time>2026-04-18T08:05:54.067Z</time></trkpt><trkpt lat="43.30004" lon="13.164305"><ele>563.0</ele><time>2026-04-18T08:05:55.067Z</time></trkpt><trkpt lat="43.2999817" lon="13.1642517"><ele>563.0</ele><time>2026-04-18T08:05:56.068Z</time></trkpt><trkpt lat="43.2999167" lon="13.1642183"><ele>563.0</ele><time>2026-04-18T08:05:57.067Z</time></trkpt><trkpt lat="43.2998433" lon="13.1641883"><ele>563.0</ele><time>2026-04-18T08:05:58.067Z</time></trkpt><trkpt lat="43.2997683" lon="13.16415"><ele>563.0</ele><time>2026-04-18T08:05:59.067Z</time></trkpt><trkpt lat="43.2996883" lon="13.1641133"><ele>563.0</ele><time>2026-04-18T08:06:00.067Z</time></trkpt><trkpt lat="43.2996" lon="13.16408"><ele>563.0</ele><time>2026-04-18T08:06:01.067Z</time></trkpt><trkpt lat="43.2995033" lon="13.1640517"><ele>562.8333333333333</ele><time>2026-04-18T08:06:02.067Z</time></trkpt><trkpt lat="43.2994167" lon="13.16403"><ele>562.6666666666666</ele><time>2026-04-18T08:06:03.067Z</time></trkpt><trkpt lat="43.29934" lon="13.1640033"><ele>562.5</ele><time>2026-04-18T08:06:04.067Z</time></trkpt><trkpt lat="43.2992733" lon="13.1639867"><ele>562.3333333333334</ele><time>2026-04-18T08:06:05.067Z</time></trkpt><trkpt lat="43.299165" lon="13.16398"><ele>562.1666666666667</ele><time>2026-04-18T08:06:07.067Z</time></trkpt><trkpt lat="43.2990633" lon="13.1640217"><ele>562.0</ele><time>2026-04-18T08:06:09.067Z</time></trkpt><trkpt lat="43.2989983" lon="13.1640533"><ele>562.0</ele><time>2026-04-18T08:06:10.067Z</time></trkpt><trkpt lat="43.29892" lon="13.164105"><ele>562.0</ele><time>2026-04-18T08:06:11.068Z</time></trkpt><trkpt lat="43.2988333" lon="13.16414"><ele>562.0</ele><time>2026-04-18T08:06:12.067Z</time></trkpt><trkpt lat="43.298745" lon="13.16417"><ele>562.0</ele><time>2026-04-18T08:06:13.068Z</time></trkpt><trkpt lat="43.2986583" lon="13.1641867"><ele>562.0</ele><time>2026-04-18T08:06:14.067Z</time></trkpt><trkpt lat="43.29857" lon="13.1641833"><ele>562.0</ele><time>2026-04-18T08:06:15.067Z</time></trkpt><trkpt lat="43.2984733" lon="13.1641633"><ele>562.6</ele><time>2026-04-18T08:06:16.068Z</time></trkpt><trkpt lat="43.2983683" lon="13.16413"><ele>563.2</ele><time>2026-04-18T08:06:17.068Z</time></trkpt><trkpt lat="43.29827" lon="13.1640833"><ele>563.8</ele><time>2026-04-18T08:06:18.067Z</time></trkpt><trkpt lat="43.2981733" lon="13.16404"><ele>564.4</ele><time>2026-04-18T08:06:19.067Z</time></trkpt><trkpt lat="43.29808" lon="13.16399"><ele>565.0</ele><time>2026-04-18T08:06:20.067Z</time></trkpt><trkpt lat="43.2979967" lon="13.163945"><ele>566.4</ele><time>2026-04-18T08:06:21.068Z</time></trkpt><trkpt lat="43.2979167" lon="13.1639067"><ele>567.8</ele><time>2026-04-18T08:06:22.067Z</time></trkpt><trkpt lat="43.2978333" lon="13.1638783"><ele>569.2</ele><time>2026-04-18T08:06:23.067Z</time></trkpt><trkpt lat="43.29774" lon="13.16384"><ele>570.6</ele><time>2026-04-18T08:06:24.067Z</time></trkpt><trkpt lat="43.2976483" lon="13.1638017"><ele>572.0</ele><time>2026-04-18T08:06:25.067Z</time></trkpt><trkpt lat="43.29755" lon="13.1637717"><ele>572.0</ele><time>2026-04-18T08:06:26.067Z</time></trkpt><trkpt lat="43.297435" lon="13.1637333"><ele>572.0</ele><time>2026-04-18T08:06:27.068Z</time></trkpt><trkpt lat="43.2973233" lon="13.1636967"><ele>572.0</ele><time>2026-04-18T08:06:28.067Z</time></trkpt><trkpt lat="43.297225" lon="13.163645"><ele>572.0</ele><time>2026-04-18T08:06:29.067Z</time></trkpt><trkpt lat="43.2971317" lon="13.1636017"><ele>572.0</ele><time>2026-04-18T08:06:30.067Z</time></trkpt><trkpt lat="43.2970417" lon="13.1635467"><ele>571.3333333333333</ele><time>2026-04-18T08:06:31.067Z</time></trkpt><trkpt lat="43.2969517" lon="13.1634883"><ele>570.6666666666666</ele><time>2026-04-18T08:06:32.067Z</time></trkpt><trkpt lat="43.296875" lon="13.1634267"><ele>570.0</ele><time>2026-04-18T08:06:33.067Z</time></trkpt><trkpt lat="43.2968083" lon="13.1633617"><ele>569.3333333333334</ele><time>2026-04-18T08:06:34.067Z</time></trkpt><trkpt lat="43.296745" lon="13.1633033"><ele>568.6666666666667</ele><time>2026-04-18T08:06:35.067Z</time></trkpt><trkpt lat="43.2966933" lon="13.1632267"><ele>568.0</ele><time>2026-04-18T08:06:36.067Z</time></trkpt><trkpt lat="43.2966417" lon="13.1631417"><ele>568.0</ele><time>2026-04-18T08:06:37.067Z</time></trkpt><trkpt lat="43.2965933" lon="13.1630483"><ele>568.0</ele><time>2026-04-18T08:06:38.068Z</time></trkpt><trkpt lat="43.2965433" lon="13.1629767"><ele>568.0</ele><time>2026-04-18T08:06:39.067Z</time></trkpt><trkpt lat="43.2964683" lon="13.1628517"><ele>568.0</ele><time>2026-04-18T08:06:41.067Z</time></trkpt><trkpt lat="43.2964083" lon="13.162775"><ele>568.0</ele><time>2026-04-18T08:06:43.067Z</time></trkpt><trkpt lat="43.2963267" lon="13.1627883"><ele>568.0</ele><time>2026-04-18T08:06:46.067Z</time></trkpt><trkpt lat="43.29632" lon="13.1628767"><ele>565.5</ele><time>2026-04-18T08:06:48.067Z</time></trkpt><trkpt lat="43.2963483" lon="13.1630367"><ele>563.0</ele><time>2026-04-18T08:06:50.067Z</time></trkpt><trkpt lat="43.2963833" lon="13.1631417"><ele>560.5</ele><time>2026-04-18T08:06:51.068Z</time></trkpt><trkpt lat="43.2964067" lon="13.163255"><ele>558.0</ele><time>2026-04-18T08:06:52.067Z</time></trkpt><trkpt lat="43.29641" lon="13.1633633"><ele>555.5</ele><time>2026-04-18T08:06:53.068Z</time></trkpt><trkpt lat="43.2963967" lon="13.163465"><ele>553.0</ele><time>2026-04-18T08:06:54.067Z</time></trkpt><trkpt lat="43.2963633" lon="13.16354"><ele>553.0</ele><time>2026-04-18T08:06:55.067Z</time></trkpt><trkpt lat="43.2962533" lon="13.1636033"><ele>553.0</ele><time>2026-04-18T08:06:57.067Z</time></trkpt><trkpt lat="43.2961583" lon="13.1635533"><ele>553.0</ele><time>2026-04-18T08:06:59.068Z</time></trkpt><trkpt lat="43.2961167" lon="13.163395"><ele>553.0</ele><time>2026-04-18T08:07:01.066Z</time></trkpt><trkpt lat="43.296105" lon="13.1632833"><ele>553.0</ele><time>2026-04-18T08:07:02.067Z</time></trkpt><trkpt lat="43.2960833" lon="13.163165"><ele>550.25</ele><time>2026-04-18T08:07:03.066Z</time></trkpt><trkpt lat="43.29604" lon="13.1630317"><ele>547.5</ele><time>2026-04-18T08:07:04.066Z</time></trkpt><trkpt lat="43.2959767" lon="13.1629117"><ele>544.75</ele><time>2026-04-18T08:07:05.066Z</time></trkpt><trkpt lat="43.295915" lon="13.1627767"><ele>542.0</ele><time>2026-04-18T08:07:06.066Z</time></trkpt><trkpt lat="43.2958533" lon="13.1626283"><ele>542.0</ele><time>2026-04-18T08:07:07.066Z</time></trkpt><trkpt lat="43.2958117" lon="13.16248"><ele>542.0</ele><time>2026-04-18T08:07:08.066Z</time></trkpt><trkpt lat="43.2957833" lon="13.1623217"><ele>542.0</ele><time>2026-04-18T08:07:09.066Z</time></trkpt><trkpt lat="43.29577" lon="13.1621833"><ele>542.0</ele><time>2026-04-18T08:07:10.067Z</time></trkpt><trkpt lat="43.29578" lon="13.1620367"><ele>542.0</ele><time>2026-04-18T08:07:11.066Z</time></trkpt><trkpt lat="43.2957967" lon="13.1618867"><ele>539.6</ele><time>2026-04-18T08:07:12.066Z</time></trkpt><trkpt lat="43.2958283" lon="13.1617533"><ele>537.2</ele><time>2026-04-18T08:07:13.066Z</time></trkpt><trkpt lat="43.2958683" lon="13.161635"><ele>534.8</ele><time>2026-04-18T08:07:14.066Z</time></trkpt><trkpt lat="43.2959167" lon="13.1615217"><ele>532.4</ele><time>2026-04-18T08:07:15.066Z</time></trkpt><trkpt lat="43.2959717" lon="13.1614267"><ele>530.0</ele><time>2026-04-18T08:07:16.066Z</time></trkpt><trkpt lat="43.2960333" lon="13.1613233"><ele>527.5</ele><time>2026-04-18T08:07:17.066Z</time></trkpt><trkpt lat="43.2960933" lon="13.1612317"><ele>525.0</ele><time>2026-04-18T08:07:18.066Z</time></trkpt><trkpt lat="43.2961633" lon="13.161145"><ele>522.5</ele><time>2026-04-18T08:07:19.067Z</time></trkpt><trkpt lat="43.2962333" lon="13.161065"><ele>520.0</ele><time>2026-04-18T08:07:20.066Z</time></trkpt><trkpt lat="43.2962983" lon="13.16098"><ele>517.5</ele><time>2026-04-18T08:07:21.066Z</time></trkpt><trkpt lat="43.296345" lon="13.1608933"><ele>515.0</ele><time>2026-04-18T08:07:22.066Z</time></trkpt><trkpt lat="43.2963717" lon="13.160785"><ele>513.5</ele><time>2026-04-18T08:07:23.066Z</time></trkpt><trkpt lat="43.2963883" lon="13.16067"><ele>512.0</ele><time>2026-04-18T08:07:24.066Z</time></trkpt><trkpt lat="43.2963933" lon="13.1605483"><ele>510.5</ele><time>2026-04-18T08:07:25.067Z</time></trkpt><trkpt lat="43.2963867" lon="13.1604233"><ele>509.0</ele><time>2026-04-18T08:07:26.066Z</time></trkpt><trkpt lat="43.2963867" lon="13.1602933"><ele>507.49999999999994</ele><time>2026-04-18T08:07:27.066Z</time></trkpt><trkpt lat="43.2963783" lon="13.1601717"><ele>506.0</ele><time>2026-04-18T08:07:28.066Z</time></trkpt><trkpt lat="43.2963733" lon="13.16005"><ele>505.99999999999994</ele><time>2026-04-18T08:07:29.066Z</time></trkpt><trkpt lat="43.2963567" lon="13.1599233"><ele>506.0</ele><time>2026-04-18T08:07:30.066Z</time></trkpt><trkpt lat="43.2963383" lon="13.1597817"><ele>506.0</ele><time>2026-04-18T08:07:31.066Z</time></trkpt><trkpt lat="43.2963167" lon="13.1596683"><ele>506.0</ele><time>2026-04-18T08:07:32.067Z</time></trkpt><trkpt lat="43.2962967" lon="13.15956"><ele>505.99999999999994</ele><time>2026-04-18T08:07:33.066Z</time></trkpt><trkpt lat="43.2962833" lon="13.159475"><ele>506.0</ele><time>2026-04-18T08:07:34.066Z</time></trkpt><trkpt lat="43.2962333" lon="13.1593933"><ele>506.49999999999994</ele><time>2026-04-18T08:07:36.067Z</time></trkpt><trkpt lat="43.2961833" lon="13.15934"><ele>507.0</ele><time>2026-04-18T08:07:38.066Z</time></trkpt><trkpt lat="43.2961333" lon="13.15923"><ele>507.5</ele><time>2026-04-18T08:07:40.066Z</time></trkpt><trkpt lat="43.296105" lon="13.1591417"><ele>508.0</ele><time>2026-04-18T08:07:41.067Z</time></trkpt><trkpt lat="43.2960833" lon="13.1590383"><ele>508.49999999999994</ele><time>2026-04-18T08:07:42.066Z</time></trkpt><trkpt lat="43.2960733" lon="13.1589267"><ele>509.0</ele><time>2026-04-18T08:07:43.066Z</time></trkpt><trkpt lat="43.2960817" lon="13.1587833"><ele>509.4</ele><time>2026-04-18T08:07:44.066Z</time></trkpt><trkpt lat="43.2960917" lon="13.1586467"><ele>509.79999999999995</ele><time>2026-04-18T08:07:45.066Z</time></trkpt><trkpt lat="43.296115" lon="13.1585067"><ele>510.20000000000005</ele><time>2026-04-18T08:07:46.066Z</time></trkpt><trkpt lat="43.2961467" lon="13.1583633"><ele>510.6</ele><time>2026-04-18T08:07:47.067Z</time></trkpt><trkpt lat="43.2961983" lon="13.1582067"><ele>511.0</ele><time>2026-04-18T08:07:48.066Z</time></trkpt><trkpt lat="43.2962467" lon="13.15805"><ele>511.0</ele><time>2026-04-18T08:07:49.066Z</time></trkpt><trkpt lat="43.29631" lon="13.1578717"><ele>511.0</ele><time>2026-04-18T08:07:50.066Z</time></trkpt><trkpt lat="43.2963817" lon="13.1576767"><ele>511.0</ele><time>2026-04-18T08:07:51.066Z</time></trkpt><trkpt lat="43.296445" lon="13.1574933"><ele>515.75</ele><time>2026-04-18T08:07:52.066Z</time></trkpt><trkpt lat="43.2964917" lon="13.1573217"><ele>520.5</ele><time>2026-04-18T08:07:53.066Z</time></trkpt><trkpt lat="43.2965367" lon="13.1571467"><ele>525.25</ele><time>2026-04-18T08:07:54.066Z</time></trkpt><trkpt lat="43.2965617" lon="13.15697"><ele>530.0</ele><time>2026-04-18T08:07:55.066Z</time></trkpt><trkpt lat="43.29657" lon="13.15678"><ele>530.0</ele><time>2026-04-18T08:07:56.066Z</time></trkpt><trkpt lat="43.29656" lon="13.1565917"><ele>530.0</ele><time>2026-04-18T08:07:57.067Z</time></trkpt><trkpt lat="43.296545" lon="13.1563967"><ele>530.0</ele><time>2026-04-18T08:07:58.066Z</time></trkpt><trkpt lat="43.2965217" lon="13.1562033"><ele>530.0</ele><time>2026-04-18T08:07:59.066Z</time></trkpt><trkpt lat="43.2965033" lon="13.1560083"><ele>529.25</ele><time>2026-04-18T08:08:00.066Z</time></trkpt><trkpt lat="43.296485" lon="13.1558183"><ele>528.5</ele><time>2026-04-18T08:08:01.066Z</time></trkpt><trkpt lat="43.29646" lon="13.1556267"><ele>527.75</ele><time>2026-04-18T08:08:02.066Z</time></trkpt><trkpt lat="43.2964317" lon="13.1554417"><ele>527.0</ele><time>2026-04-18T08:08:03.067Z</time></trkpt><trkpt lat="43.2964017" lon="13.1552517"><ele>527.0</ele><time>2026-04-18T08:08:04.066Z</time></trkpt><trkpt lat="43.2963667" lon="13.15507"><ele>527.0</ele><time>2026-04-18T08:08:05.066Z</time></trkpt><trkpt lat="43.2963283" lon="13.1549017"><ele>527.0</ele><time>2026-04-18T08:08:06.067Z</time></trkpt><trkpt lat="43.2962783" lon="13.154755"><ele>527.0</ele><time>2026-04-18T08:08:07.066Z</time></trkpt><trkpt lat="43.2961983" lon="13.1546283"><ele>530.25</ele><time>2026-04-18T08:08:08.066Z</time></trkpt><trkpt lat="43.2961017" lon="13.154525"><ele>533.5</ele><time>2026-04-18T08:08:09.066Z</time></trkpt><trkpt lat="43.296" lon="13.1544233"><ele>536.75</ele><time>2026-04-18T08:08:10.066Z</time></trkpt><trkpt lat="43.2959017" lon="13.1543417"><ele>540.0</ele><time>2026-04-18T08:08:11.066Z</time></trkpt><trkpt lat="43.295785" lon="13.1542917"><ele>540.0</ele><time>2026-04-18T08:08:12.066Z</time></trkpt><trkpt lat="43.295675" lon="13.15423"><ele>540.0</ele><time>2026-04-18T08:08:13.067Z</time></trkpt><trkpt lat="43.295585" lon="13.1541733"><ele>540.0</ele><time>2026-04-18T08:08:14.066Z</time></trkpt><trkpt lat="43.2955133" lon="13.1541083"><ele>540.0</ele><time>2026-04-18T08:08:15.067Z</time></trkpt><trkpt lat="43.2954533" lon="13.1540283"><ele>540.0</ele><time>2026-04-18T08:08:16.067Z</time></trkpt><trkpt lat="43.2954167" lon="13.15394"><ele>540.4285714285714</ele><time>2026-04-18T08:08:17.066Z</time></trkpt><trkpt lat="43.2953967" lon="13.15385"><ele>540.8571428571428</ele><time>2026-04-18T08:08:18.066Z</time></trkpt><trkpt lat="43.2954033" lon="13.1537567"><ele>541.2857142857142</ele><time>2026-04-18T08:08:19.067Z</time></trkpt><trkpt lat="43.295435" lon="13.153665"><ele>541.7142857142857</ele><time>2026-04-18T08:08:20.067Z</time></trkpt><trkpt lat="43.2954733" lon="13.15359"><ele>542.1428571428571</ele><time>2026-04-18T08:08:21.066Z</time></trkpt><trkpt lat="43.2955317" lon="13.1535117"><ele>542.5714285714286</ele><time>2026-04-18T08:08:22.066Z</time></trkpt><trkpt lat="43.2955967" lon="13.1534367"><ele>543.0</ele><time>2026-04-18T08:08:23.066Z</time></trkpt><trkpt lat="43.29567" lon="13.1533667"><ele>543.0</ele><time>2026-04-18T08:08:24.066Z</time></trkpt><trkpt lat="43.2957417" lon="13.153295"><ele>543.0</ele><time>2026-04-18T08:08:25.066Z</time></trkpt><trkpt lat="43.2958033" lon="13.1532233"><ele>543.0</ele><time>2026-04-18T08:08:26.066Z</time></trkpt><trkpt lat="43.2958633" lon="13.1531283"><ele>543.0</ele><time>2026-04-18T08:08:27.066Z</time></trkpt><trkpt lat="43.2959167" lon="13.1530067"><ele>543.0</ele><time>2026-04-18T08:08:28.066Z</time></trkpt><trkpt lat="43.295955" lon="13.15286"><ele>542.25</ele><time>2026-04-18T08:08:29.066Z</time></trkpt><trkpt lat="43.29598" lon="13.1526833"><ele>541.5</ele><time>2026-04-18T08:08:30.066Z</time></trkpt><trkpt lat="43.29599" lon="13.15252"><ele>540.75</ele><time>2026-04-18T08:08:31.066Z</time></trkpt><trkpt lat="43.2959783" lon="13.15237"><ele>540.0</ele><time>2026-04-18T08:08:32.066Z</time></trkpt><trkpt lat="43.29593" lon="13.1522283"><ele>541.5</ele><time>2026-04-18T08:08:33.067Z</time></trkpt><trkpt lat="43.2958667" lon="13.1520867"><ele>543.0</ele><time>2026-04-18T08:08:34.066Z</time></trkpt><trkpt lat="43.2957867" lon="13.151965"><ele>544.5</ele><time>2026-04-18T08:08:35.067Z</time></trkpt><trkpt lat="43.295705" lon="13.151845"><ele>546.0</ele><time>2026-04-18T08:08:36.066Z</time></trkpt><trkpt lat="43.2956217" lon="13.1517117"><ele>542.25</ele><time>2026-04-18T08:08:37.066Z</time></trkpt><trkpt lat="43.29553" lon="13.1515783"><ele>538.5</ele><time>2026-04-18T08:08:38.066Z</time></trkpt><trkpt lat="43.295435" lon="13.1514383"><ele>534.75</ele><time>2026-04-18T08:08:39.067Z</time></trkpt><trkpt lat="43.2953467" lon="13.1513"><ele>531.0</ele><time>2026-04-18T08:08:40.066Z</time></trkpt><trkpt lat="43.2952617" lon="13.15116"><ele>531.0</ele><time>2026-04-18T08:08:41.067Z</time></trkpt><trkpt lat="43.295185" lon="13.151005"><ele>531.0</ele><time>2026-04-18T08:08:42.066Z</time></trkpt><trkpt lat="43.2951167" lon="13.1508367"><ele>531.0</ele><time>2026-04-18T08:08:43.066Z</time></trkpt><trkpt lat="43.2950583" lon="13.1506683"><ele>531.0</ele><time>2026-04-18T08:08:44.066Z</time></trkpt><trkpt lat="43.295015" lon="13.1504917"><ele>532.75</ele><time>2026-04-18T08:08:45.066Z</time></trkpt><trkpt lat="43.2949667" lon="13.1503333"><ele>534.5</ele><time>2026-04-18T08:08:46.066Z</time></trkpt><trkpt lat="43.2949317" lon="13.1501767"><ele>536.25</ele><time>2026-04-18T08:08:47.067Z</time></trkpt><trkpt lat="43.2948983" lon="13.1500183"><ele>538.0</ele><time>2026-04-18T08:08:48.066Z</time></trkpt><trkpt lat="43.294865" lon="13.1498683"><ele>538.25</ele><time>2026-04-18T08:08:49.067Z</time></trkpt><trkpt lat="43.2948283" lon="13.1497217"><ele>538.5</ele><time>2026-04-18T08:08:50.066Z</time></trkpt><trkpt lat="43.2947917" lon="13.149575"><ele>538.75</ele><time>2026-04-18T08:08:51.066Z</time></trkpt><trkpt lat="43.2947617" lon="13.14942"><ele>539.0</ele><time>2026-04-18T08:08:52.067Z</time></trkpt><trkpt lat="43.2947433" lon="13.1492633"><ele>538.6</ele><time>2026-04-18T08:08:53.067Z</time></trkpt><trkpt lat="43.2947367" lon="13.149125"><ele>538.2</ele><time>2026-04-18T08:08:54.066Z</time></trkpt><trkpt lat="43.2947367" lon="13.1489917"><ele>537.8000000000001</ele><time>2026-04-18T08:08:55.066Z</time></trkpt><trkpt lat="43.2947483" lon="13.148855"><ele>537.4</ele><time>2026-04-18T08:08:56.066Z</time></trkpt><trkpt lat="43.2947867" lon="13.1487"><ele>537.0</ele><time>2026-04-18T08:08:57.066Z</time></trkpt><trkpt lat="43.2948317" lon="13.148545"><ele>537.0</ele><time>2026-04-18T08:08:58.066Z</time></trkpt><trkpt lat="43.29491" lon="13.1484033"><ele>537.0</ele><time>2026-04-18T08:08:59.066Z</time></trkpt><trkpt lat="43.29501" lon="13.1482467"><ele>537.0</ele><time>2026-04-18T08:09:00.067Z</time></trkpt><trkpt lat="43.2951233" lon="13.14808"><ele>537.0</ele><time>2026-04-18T08:09:01.066Z</time></trkpt><trkpt lat="43.295235" lon="13.1479217"><ele>537.75</ele><time>2026-04-18T08:09:02.066Z</time></trkpt><trkpt lat="43.2953367" lon="13.147775"><ele>538.5</ele><time>2026-04-18T08:09:03.066Z</time></trkpt><trkpt lat="43.2954083" lon="13.147615"><ele>539.25</ele><time>2026-04-18T08:09:04.066Z</time></trkpt><trkpt lat="43.295455" lon="13.1474283"><ele>540.0</ele><time>2026-04-18T08:09:05.066Z</time></trkpt><trkpt lat="43.295485" lon="13.1472283"><ele>540.0</ele><time>2026-04-18T08:09:06.066Z</time></trkpt><trkpt lat="43.29551" lon="13.1470183"><ele>540.0</ele><time>2026-04-18T08:09:07.066Z</time></trkpt><trkpt lat="43.2955233" lon="13.1467933"><ele>540.0</ele><time>2026-04-18T08:09:08.066Z</time></trkpt><trkpt lat="43.295535" lon="13.1465867"><ele>539.0</ele><time>2026-04-18T08:09:09.066Z</time></trkpt><trkpt lat="43.2955517" lon="13.1463883"><ele>538.0</ele><time>2026-04-18T08:09:10.066Z</time></trkpt><trkpt lat="43.2955717" lon="13.1461917"><ele>537.0</ele><time>2026-04-18T08:09:11.066Z</time></trkpt><trkpt lat="43.2955867" lon="13.1460133"><ele>536.0</ele><time>2026-04-18T08:09:12.066Z</time></trkpt><trkpt lat="43.2956017" lon="13.1458333"><ele>533.0</ele><time>2026-04-18T08:09:13.066Z</time></trkpt><trkpt lat="43.2956017" lon="13.14566"><ele>530.0</ele><time>2026-04-18T08:09:14.066Z</time></trkpt><trkpt lat="43.2955883" lon="13.14549"><ele>527.0</ele><time>2026-04-18T08:09:15.066Z</time></trkpt><trkpt lat="43.2955417" lon="13.1453317"><ele>524.0</ele><time>2026-04-18T08:09:16.066Z</time></trkpt><trkpt lat="43.2954717" lon="13.1452067"><ele>524.0</ele><time>2026-04-18T08:09:17.066Z</time></trkpt><trkpt lat="43.2953867" lon="13.145105"><ele>524.0</ele><time>2026-04-18T08:09:18.066Z</time></trkpt><trkpt lat="43.295295" lon="13.1450033"><ele>524.0</ele><time>2026-04-18T08:09:19.066Z</time></trkpt><trkpt lat="43.2952017" lon="13.1449133"><ele>524.0</ele><time>2026-04-18T08:09:20.066Z</time></trkpt><trkpt lat="43.2951133" lon="13.1448183"><ele>522.4</ele><time>2026-04-18T08:09:21.066Z</time></trkpt><trkpt lat="43.295045" lon="13.1447083"><ele>520.8</ele><time>2026-04-18T08:09:22.066Z</time></trkpt><trkpt lat="43.2950067" lon="13.1445867"><ele>519.2</ele><time>2026-04-18T08:09:23.066Z</time></trkpt><trkpt lat="43.29502" lon="13.14446"><ele>517.6</ele><time>2026-04-18T08:09:24.066Z</time></trkpt><trkpt lat="43.29506" lon="13.1443367"><ele>516.0</ele><time>2026-04-18T08:09:25.066Z</time></trkpt><trkpt lat="43.2951317" lon="13.14423"><ele>516.0</ele><time>2026-04-18T08:09:26.066Z</time></trkpt><trkpt lat="43.2952233" lon="13.144125"><ele>516.0</ele><time>2026-04-18T08:09:27.066Z</time></trkpt><trkpt lat="43.2953283" lon="13.1440083"><ele>516.0</ele><time>2026-04-18T08:09:28.066Z</time></trkpt><trkpt lat="43.2954517" lon="13.1438867"><ele>516.0</ele><time>2026-04-18T08:09:29.067Z</time></trkpt><trkpt lat="43.295585" lon="13.14376"><ele>513.3333333333334</ele><time>2026-04-18T08:09:30.066Z</time></trkpt><trkpt lat="43.295715" lon="13.1436367"><ele>510.6666666666667</ele><time>2026-04-18T08:09:31.067Z</time></trkpt><trkpt lat="43.29584" lon="13.1435167"><ele>508.0</ele><time>2026-04-18T08:09:32.066Z</time></trkpt><trkpt lat="43.29596" lon="13.1434"><ele>508.0</ele><time>2026-04-18T08:09:33.066Z</time></trkpt><trkpt lat="43.2960817" lon="13.1432867"><ele>508.0</ele><time>2026-04-18T08:09:34.066Z</time></trkpt><trkpt lat="43.2962033" lon="13.1431733"><ele>508.0</ele><time>2026-04-18T08:09:35.066Z</time></trkpt><trkpt lat="43.2963183" lon="13.14306"><ele>508.0</ele><time>2026-04-18T08:09:36.066Z</time></trkpt><trkpt lat="43.2964383" lon="13.14295"><ele>506.5</ele><time>2026-04-18T08:09:37.066Z</time></trkpt><trkpt lat="43.2965533" lon="13.1428433"><ele>505.0</ele><time>2026-04-18T08:09:38.066Z</time></trkpt><trkpt lat="43.296665" lon="13.14274"><ele>503.5</ele><time>2026-04-18T08:09:39.066Z</time></trkpt><trkpt lat="43.2967717" lon="13.1426567"><ele>502.0</ele><time>2026-04-18T08:09:40.066Z</time></trkpt><trkpt lat="43.2968917" lon="13.1425967"><ele>502.0</ele><time>2026-04-18T08:09:41.066Z</time></trkpt><trkpt lat="43.297005" lon="13.14258"><ele>502.0</ele><time>2026-04-18T08:09:42.066Z</time></trkpt><trkpt lat="43.2971267" lon="13.1426083"><ele>502.0</ele><time>2026-04-18T08:09:43.066Z</time></trkpt><trkpt lat="43.2972483" lon="13.1426683"><ele>502.0</ele><time>2026-04-18T08:09:44.066Z</time></trkpt><trkpt lat="43.29737" lon="13.14276"><ele>500.5</ele><time>2026-04-18T08:09:45.066Z</time></trkpt><trkpt lat="43.2974817" lon="13.1428817"><ele>499.0</ele><time>2026-04-18T08:09:46.066Z</time></trkpt><trkpt lat="43.29759" lon="13.1430017"><ele>497.5</ele><time>2026-04-18T08:09:47.066Z</time></trkpt><trkpt lat="43.2977133" lon="13.1431217"><ele>496.0</ele><time>2026-04-18T08:09:48.066Z</time></trkpt><trkpt lat="43.2978383" lon="13.143245"><ele>494.75</ele><time>2026-04-18T08:09:49.067Z</time></trkpt><trkpt lat="43.2979633" lon="13.1433633"><ele>493.5</ele><time>2026-04-18T08:09:50.066Z</time></trkpt><trkpt lat="43.29808" lon="13.1434733"><ele>492.25</ele><time>2026-04-18T08:09:51.066Z</time></trkpt><trkpt lat="43.2981967" lon="13.1435783"><ele>491.0</ele><time>2026-04-18T08:09:52.066Z</time></trkpt><trkpt lat="43.2983083" lon="13.143685"><ele>490.5</ele><time>2026-04-18T08:09:53.066Z</time></trkpt><trkpt lat="43.2984167" lon="13.1437883"><ele>490.0</ele><time>2026-04-18T08:09:54.066Z</time></trkpt><trkpt lat="43.2985217" lon="13.143895"><ele>489.5</ele><time>2026-04-18T08:09:55.066Z</time></trkpt><trkpt lat="43.298635" lon="13.1439983"><ele>489.0</ele><time>2026-04-18T08:09:56.066Z</time></trkpt><trkpt lat="43.2987417" lon="13.144105"><ele>489.0</ele><time>2026-04-18T08:09:57.066Z</time></trkpt><trkpt lat="43.29885" lon="13.1442033"><ele>489.0</ele><time>2026-04-18T08:09:58.067Z</time></trkpt><trkpt lat="43.2989617" lon="13.1443"><ele>489.0</ele><time>2026-04-18T08:09:59.066Z</time></trkpt><trkpt lat="43.299065" lon="13.1443967"><ele>489.0</ele><time>2026-04-18T08:10:00.066Z</time></trkpt><trkpt lat="43.2991767" lon="13.1444817"><ele>486.5</ele><time>2026-04-18T08:10:01.067Z</time></trkpt><trkpt lat="43.2992917" lon="13.1445433"><ele>484.0</ele><time>2026-04-18T08:10:02.066Z</time></trkpt><trkpt lat="43.299425" lon="13.1445733"><ele>481.5</ele><time>2026-04-18T08:10:03.066Z</time></trkpt><trkpt lat="43.2995567" lon="13.1445633"><ele>479.0</ele><time>2026-04-18T08:10:04.066Z</time></trkpt><trkpt lat="43.2996817" lon="13.1445217"><ele>476.75</ele><time>2026-04-18T08:10:05.066Z</time></trkpt><trkpt lat="43.299805" lon="13.1444733"><ele>474.5</ele><time>2026-04-18T08:10:06.066Z</time></trkpt><trkpt lat="43.2999317" lon="13.1444167"><ele>472.25</ele><time>2026-04-18T08:10:07.067Z</time></trkpt><trkpt lat="43.300065" lon="13.1443667"><ele>470.0</ele><time>2026-04-18T08:10:08.067Z</time></trkpt><trkpt lat="43.30019" lon="13.1443133"><ele>470.0</ele><time>2026-04-18T08:10:09.066Z</time></trkpt><trkpt lat="43.300305" lon="13.1442667"><ele>470.0</ele><time>2026-04-18T08:10:10.066Z</time></trkpt><trkpt lat="43.30042" lon="13.144225"><ele>470.0</ele><time>2026-04-18T08:10:11.067Z</time></trkpt><trkpt lat="43.3005367" lon="13.144205"><ele>470.0</ele><time>2026-04-18T08:10:12.066Z</time></trkpt><trkpt lat="43.3006467" lon="13.1442233"><ele>470.4</ele><time>2026-04-18T08:10:13.066Z</time></trkpt><trkpt lat="43.3007483" lon="13.144265"><ele>470.8</ele><time>2026-04-18T08:10:14.066Z</time></trkpt><trkpt lat="43.3008383" lon="13.1443367"><ele>471.20000000000005</ele><time>2026-04-18T08:10:15.066Z</time></trkpt><trkpt lat="43.3009133" lon="13.1444317"><ele>471.6</ele><time>2026-04-18T08:10:16.066Z</time></trkpt><trkpt lat="43.3009783" lon="13.1445233"><ele>472.0</ele><time>2026-04-18T08:10:17.067Z</time></trkpt><trkpt lat="43.3010233" lon="13.1446033"><ele>472.00000000000006</ele><time>2026-04-18T08:10:18.066Z</time></trkpt><trkpt lat="43.30106" lon="13.144675"><ele>472.0</ele><time>2026-04-18T08:10:19.066Z</time></trkpt><trkpt lat="43.30113" lon="13.14475"><ele>472.0</ele><time>2026-04-18T08:10:21.066Z</time></trkpt><trkpt lat="43.301205" lon="13.1447233"><ele>472.0</ele><time>2026-04-18T08:10:23.066Z</time></trkpt><trkpt lat="43.3012483" lon="13.14459"><ele>472.00000000000006</ele><time>2026-04-18T08:10:25.066Z</time></trkpt><trkpt lat="43.3012583" lon="13.1444717"><ele>472.0</ele><time>2026-04-18T08:10:26.066Z</time></trkpt><trkpt lat="43.301265" lon="13.1443433"><ele>472.0</ele><time>2026-04-18T08:10:27.067Z</time></trkpt><trkpt lat="43.301275" lon="13.1442133"><ele>472.00000000000006</ele><time>2026-04-18T08:10:28.067Z</time></trkpt><trkpt lat="43.301285" lon="13.1440883"><ele>472.00000000000006</ele><time>2026-04-18T08:10:29.066Z</time></trkpt><trkpt lat="43.3013017" lon="13.14395"><ele>472.0</ele><time>2026-04-18T08:10:30.066Z</time></trkpt><trkpt lat="43.3013133" lon="13.1438067"><ele>472.0</ele><time>2026-04-18T08:10:31.066Z</time></trkpt><trkpt lat="43.3013283" lon="13.1436617"><ele>473.0</ele><time>2026-04-18T08:10:32.066Z</time></trkpt><trkpt lat="43.3013417" lon="13.1435217"><ele>474.00000000000006</ele><time>2026-04-18T08:10:33.066Z</time></trkpt><trkpt lat="43.301355" lon="13.143385"><ele>475.00000000000006</ele><time>2026-04-18T08:10:34.066Z</time></trkpt><trkpt lat="43.3013717" lon="13.14325"><ele>476.0</ele><time>2026-04-18T08:10:35.066Z</time></trkpt><trkpt lat="43.301385" lon="13.1431117"><ele>477.0</ele><time>2026-04-18T08:10:36.066Z</time></trkpt><trkpt lat="43.3013983" lon="13.1429683"><ele>478.40000000000003</ele><time>2026-04-18T08:10:37.066Z</time></trkpt><trkpt lat="43.3014067" lon="13.1428333"><ele>479.80000000000007</ele><time>2026-04-18T08:10:38.066Z</time></trkpt><trkpt lat="43.3014217" lon="13.1426917"><ele>481.2</ele><time>2026-04-18T08:10:39.066Z</time></trkpt><trkpt lat="43.3014367" lon="13.1425483"><ele>482.6</ele><time>2026-04-18T08:10:40.066Z</time></trkpt><trkpt lat="43.301455" lon="13.1424033"><ele>484.0</ele><time>2026-04-18T08:10:41.066Z</time></trkpt><trkpt lat="43.3014633" lon="13.1422567"><ele>486.79999999999995</ele><time>2026-04-18T08:10:42.067Z</time></trkpt><trkpt lat="43.301475" lon="13.142115"><ele>489.59999999999997</ele><time>2026-04-18T08:10:43.066Z</time></trkpt><trkpt lat="43.3014883" lon="13.1419667"><ele>492.4</ele><time>2026-04-18T08:10:44.066Z</time></trkpt><trkpt lat="43.3015017" lon="13.1418233"><ele>495.2</ele><time>2026-04-18T08:10:45.066Z</time></trkpt><trkpt lat="43.30152" lon="13.1416767"><ele>498.0</ele><time>2026-04-18T08:10:46.067Z</time></trkpt><trkpt lat="43.301535" lon="13.1415333"><ele>498.59999999999997</ele><time>2026-04-18T08:10:47.066Z</time></trkpt><trkpt lat="43.3015483" lon="13.1413883"><ele>499.19999999999993</ele><time>2026-04-18T08:10:48.066Z</time></trkpt><trkpt lat="43.301565" lon="13.1412483"><ele>499.8</ele><time>2026-04-18T08:10:49.066Z</time></trkpt><trkpt lat="43.3015817" lon="13.14111"><ele>500.4</ele><time>2026-04-18T08:10:50.066Z</time></trkpt><trkpt lat="43.3016033" lon="13.1409717"><ele>501.0</ele><time>2026-04-18T08:10:51.066Z</time></trkpt><trkpt lat="43.30162" lon="13.14084"><ele>501.0</ele><time>2026-04-18T08:10:52.066Z</time></trkpt><trkpt lat="43.30164" lon="13.14072"><ele>501.0</ele><time>2026-04-18T08:10:53.066Z</time></trkpt><trkpt lat="43.3016667" lon="13.1406033"><ele>501.0</ele><time>2026-04-18T08:10:54.066Z</time></trkpt><trkpt lat="43.3017067" lon="13.140495"><ele>501.0</ele><time>2026-04-18T08:10:55.066Z</time></trkpt><trkpt lat="43.3017567" lon="13.140395"><ele>501.0</ele><time>2026-04-18T08:10:56.066Z</time></trkpt><trkpt lat="43.3018233" lon="13.1403033"><ele>501.20000000000005</ele><time>2026-04-18T08:10:57.066Z</time></trkpt><trkpt lat="43.30191" lon="13.140215"><ele>501.40000000000003</ele><time>2026-04-18T08:10:58.067Z</time></trkpt><trkpt lat="43.3020017" lon="13.14013"><ele>501.6</ele><time>2026-04-18T08:10:59.066Z</time></trkpt><trkpt lat="43.3020967" lon="13.140055"><ele>501.8</ele><time>2026-04-18T08:11:00.066Z</time></trkpt><trkpt lat="43.3021967" lon="13.1399933"><ele>502.0</ele><time>2026-04-18T08:11:01.066Z</time></trkpt><trkpt lat="43.302295" lon="13.1399317"><ele>505.0</ele><time>2026-04-18T08:11:02.066Z</time></trkpt><trkpt lat="43.30239" lon="13.139875"><ele>508.00000000000006</ele><time>2026-04-18T08:11:03.067Z</time></trkpt><trkpt lat="43.302485" lon="13.1398183"><ele>511.00000000000006</ele><time>2026-04-18T08:11:04.066Z</time></trkpt><trkpt lat="43.3025783" lon="13.1397717"><ele>514.0</ele><time>2026-04-18T08:11:05.066Z</time></trkpt><trkpt lat="43.3026583" lon="13.1397283"><ele>517.0</ele><time>2026-04-18T08:11:06.066Z</time></trkpt><trkpt lat="43.3027417" lon="13.1396867"><ele>517.0</ele><time>2026-04-18T08:11:07.067Z</time></trkpt><trkpt lat="43.3028217" lon="13.1396433"><ele>517.0</ele><time>2026-04-18T08:11:08.066Z</time></trkpt><trkpt lat="43.30289" lon="13.139565"><ele>517.0</ele><time>2026-04-18T08:11:09.066Z</time></trkpt><trkpt lat="43.302945" lon="13.13948"><ele>517.0</ele><time>2026-04-18T08:11:10.066Z</time></trkpt><trkpt lat="43.3029833" lon="13.1393667"><ele>517.0</ele><time>2026-04-18T08:11:11.066Z</time></trkpt><trkpt lat="43.3030117" lon="13.139245"><ele>517.0</ele><time>2026-04-18T08:11:12.066Z</time></trkpt><trkpt lat="43.3030267" lon="13.1391133"><ele>518.6</ele><time>2026-04-18T08:11:13.066Z</time></trkpt><trkpt lat="43.3030467" lon="13.1389783"><ele>520.2</ele><time>2026-04-18T08:11:14.067Z</time></trkpt><trkpt lat="43.3030833" lon="13.1388417"><ele>521.8</ele><time>2026-04-18T08:11:15.066Z</time></trkpt><trkpt lat="43.3031217" lon="13.13871"><ele>523.4</ele><time>2026-04-18T08:11:16.066Z</time></trkpt><trkpt lat="43.303155" lon="13.1385683"><ele>525.0</ele><time>2026-04-18T08:11:17.067Z</time></trkpt><trkpt lat="43.3031967" lon="13.138425"><ele>525.6</ele><time>2026-04-18T08:11:18.066Z</time></trkpt><trkpt lat="43.3032367" lon="13.1382933"><ele>526.2</ele><time>2026-04-18T08:11:19.067Z</time></trkpt><trkpt lat="43.3032767" lon="13.13816"><ele>526.8</ele><time>2026-04-18T08:11:20.067Z</time></trkpt><trkpt lat="43.3033067" lon="13.1380233"><ele>527.4</ele><time>2026-04-18T08:11:21.066Z</time></trkpt><trkpt lat="43.3033417" lon="13.1378933"><ele>528.0</ele><time>2026-04-18T08:11:22.066Z</time></trkpt><trkpt lat="43.3033783" lon="13.1377683"><ele>530.3333333333334</ele><time>2026-04-18T08:11:23.066Z</time></trkpt><trkpt lat="43.303415" lon="13.13765"><ele>532.6666666666666</ele><time>2026-04-18T08:11:24.066Z</time></trkpt><trkpt lat="43.3034633" lon="13.1375367"><ele>535.0</ele><time>2026-04-18T08:11:25.066Z</time></trkpt><trkpt lat="43.3035117" lon="13.13744"><ele>537.3333333333333</ele><time>2026-04-18T08:11:26.066Z</time></trkpt><trkpt lat="43.3035517" lon="13.1373683"><ele>539.6666666666666</ele><time>2026-04-18T08:11:27.066Z</time></trkpt><trkpt lat="43.303585" lon="13.1372717"><ele>542.0</ele><time>2026-04-18T08:11:29.066Z</time></trkpt><trkpt lat="43.3035583" lon="13.13716"><ele>546.2</ele><time>2026-04-18T08:11:31.066Z</time></trkpt><trkpt lat="43.303445" lon="13.1371083"><ele>550.4000000000001</ele><time>2026-04-18T08:11:33.066Z</time></trkpt><trkpt lat="43.3033567" lon="13.1370883"><ele>554.5999999999999</ele><time>2026-04-18T08:11:34.066Z</time></trkpt><trkpt lat="43.3032717" lon="13.137055"><ele>558.8</ele><time>2026-04-18T08:11:35.066Z</time></trkpt><trkpt lat="43.303185" lon="13.137025"><ele>563.0</ele><time>2026-04-18T08:11:36.066Z</time></trkpt><trkpt lat="43.3031" lon="13.1369817"><ele>563.3333333333333</ele><time>2026-04-18T08:11:37.066Z</time></trkpt><trkpt lat="43.3030233" lon="13.1369517"><ele>563.6666666666666</ele><time>2026-04-18T08:11:38.066Z</time></trkpt><trkpt lat="43.30294" lon="13.136915"><ele>564.0</ele><time>2026-04-18T08:11:39.066Z</time></trkpt><trkpt lat="43.3028583" lon="13.136885"><ele>564.3333333333334</ele><time>2026-04-18T08:11:40.066Z</time></trkpt><trkpt lat="43.3027833" lon="13.1368467"><ele>564.6666666666667</ele><time>2026-04-18T08:11:41.067Z</time></trkpt><trkpt lat="43.3027083" lon="13.1368083"><ele>565.0</ele><time>2026-04-18T08:11:42.067Z</time></trkpt><trkpt lat="43.302635" lon="13.13678"><ele>565.0</ele><time>2026-04-18T08:11:43.066Z</time></trkpt><trkpt lat="43.302565" lon="13.1367567"><ele>565.0</ele><time>2026-04-18T08:11:44.066Z</time></trkpt><trkpt lat="43.3024917" lon="13.13675"><ele>565.0</ele><time>2026-04-18T08:11:45.066Z</time></trkpt><trkpt lat="43.302415" lon="13.1367633"><ele>565.0</ele><time>2026-04-18T08:11:46.066Z</time></trkpt><trkpt lat="43.3023417" lon="13.13679"><ele>565.0</ele><time>2026-04-18T08:11:47.066Z</time></trkpt><trkpt lat="43.30227" lon="13.13682"><ele>565.0</ele><time>2026-04-18T08:11:48.066Z</time></trkpt><trkpt lat="43.3021733" lon="13.13685"><ele>565.8</ele><time>2026-04-18T08:11:50.067Z</time></trkpt><trkpt lat="43.3020833" lon="13.1368267"><ele>566.6</ele><time>2026-04-18T08:11:53.066Z</time></trkpt><trkpt lat="43.3020033" lon="13.136815"><ele>567.4</ele><time>2026-04-18T08:11:55.066Z</time></trkpt><trkpt lat="43.30189" lon="13.1367767"><ele>568.2</ele><time>2026-04-18T08:11:57.066Z</time></trkpt><trkpt lat="43.3017717" lon="13.1367517"><ele>569.0</ele><time>2026-04-18T08:11:59.065Z</time></trkpt><trkpt lat="43.3016867" lon="13.136675"><ele>569.0</ele><time>2026-04-18T08:12:01.065Z</time></trkpt><trkpt lat="43.301655" lon="13.136565"><ele>569.0</ele><time>2026-04-18T08:12:03.066Z</time></trkpt><trkpt lat="43.301635" lon="13.1364733"><ele>569.0</ele><time>2026-04-18T08:12:05.065Z</time></trkpt><trkpt lat="43.3017383" lon="13.1365"><ele>569.0</ele><time>2026-04-18T08:12:25.066Z</time></trkpt><trkpt lat="43.3018267" lon="13.1364817"><ele>569.0</ele><time>2026-04-18T08:12:28.065Z</time></trkpt><trkpt lat="43.3018633" lon="13.136385"><ele>569.0</ele><time>2026-04-18T08:12:31.065Z</time></trkpt><trkpt lat="43.3019" lon="13.1362733"><ele>572.1666666666666</ele><time>2026-04-18T08:12:34.065Z</time></trkpt><trkpt lat="43.3019433" lon="13.1361633"><ele>575.3333333333333</ele><time>2026-04-18T08:12:36.065Z</time></trkpt><trkpt lat="43.3020133" lon="13.1360817"><ele>578.5</ele><time>2026-04-18T08:12:38.065Z</time></trkpt><trkpt lat="43.3020617" lon="13.13602"><ele>581.6666666666666</ele><time>2026-04-18T08:12:41.065Z</time></trkpt><trkpt lat="43.3019867" lon="13.1360133"><ele>584.8333333333334</ele><time>2026-04-18T08:12:45.065Z</time></trkpt><trkpt lat="43.3019133" lon="13.13602"><ele>588.0</ele><time>2026-04-18T08:12:47.065Z</time></trkpt><trkpt lat="43.3018283" lon="13.1360133"><ele>588.0</ele><time>2026-04-18T08:12:49.065Z</time></trkpt><trkpt lat="43.3017067" lon="13.136"><ele>588.0</ele><time>2026-04-18T08:12:51.065Z</time></trkpt><trkpt lat="43.3016" lon="13.13596"><ele>588.0</ele><time>2026-04-18T08:12:53.065Z</time></trkpt><trkpt lat="43.3015083" lon="13.1358767"><ele>588.0</ele><time>2026-04-18T08:12:55.065Z</time></trkpt><trkpt lat="43.3014033" lon="13.13582"><ele>586.3333333333334</ele><time>2026-04-18T08:12:57.065Z</time></trkpt><trkpt lat="43.3013367" lon="13.135805"><ele>584.6666666666666</ele><time>2026-04-18T08:12:58.065Z</time></trkpt><trkpt lat="43.3012683" lon="13.1357833"><ele>583.0</ele><time>2026-04-18T08:12:59.065Z</time></trkpt><trkpt lat="43.301185" lon="13.13576"><ele>581.3333333333333</ele><time>2026-04-18T08:13:00.065Z</time></trkpt><trkpt lat="43.3011017" lon="13.1357217"><ele>579.6666666666666</ele><time>2026-04-18T08:13:01.065Z</time></trkpt><trkpt lat="43.30102" lon="13.13567"><ele>578.0</ele><time>2026-04-18T08:13:02.065Z</time></trkpt><trkpt lat="43.30093" lon="13.135615"><ele>581.0</ele><time>2026-04-18T08:13:03.065Z</time></trkpt><trkpt lat="43.3008333" lon="13.1355667"><ele>584.0</ele><time>2026-04-18T08:13:04.065Z</time></trkpt><trkpt lat="43.3007383" lon="13.1355383"><ele>587.0</ele><time>2026-04-18T08:13:05.066Z</time></trkpt><trkpt lat="43.3006417" lon="13.1355283"><ele>590.0</ele><time>2026-04-18T08:13:06.065Z</time></trkpt><trkpt lat="43.3005433" lon="13.1355233"><ele>593.0</ele><time>2026-04-18T08:13:07.065Z</time></trkpt><trkpt lat="43.3004583" lon="13.1355183"><ele>592.9999999999999</ele><time>2026-04-18T08:13:08.065Z</time></trkpt><trkpt lat="43.3003783" lon="13.1355083"><ele>593.0</ele><time>2026-04-18T08:13:09.065Z</time></trkpt><trkpt lat="43.3003067" lon="13.1354783"><ele>593.0</ele><time>2026-04-18T08:13:10.065Z</time></trkpt><trkpt lat="43.30024" lon="13.1354583"><ele>593.0</ele><time>2026-04-18T08:13:11.065Z</time></trkpt><trkpt lat="43.3001717" lon="13.1354433"><ele>593.0</ele><time>2026-04-18T08:13:12.065Z</time></trkpt><trkpt lat="43.3000967" lon="13.1354217"><ele>592.9999999999999</ele><time>2026-04-18T08:13:13.065Z</time></trkpt><trkpt lat="43.3000267" lon="13.1353883"><ele>593.0</ele><time>2026-04-18T08:13:14.066Z</time></trkpt><trkpt lat="43.2999667" lon="13.1353533"><ele>593.0</ele><time>2026-04-18T08:13:15.065Z</time></trkpt><trkpt lat="43.2999083" lon="13.1353167"><ele>593.0</ele><time>2026-04-18T08:13:16.066Z</time></trkpt><trkpt lat="43.299845" lon="13.1352767"><ele>593.0</ele><time>2026-04-18T08:13:17.065Z</time></trkpt><trkpt lat="43.29979" lon="13.13523"><ele>593.0</ele><time>2026-04-18T08:13:18.065Z</time></trkpt><trkpt lat="43.2997" lon="13.13512"><ele>593.0</ele><time>2026-04-18T08:13:20.065Z</time></trkpt><trkpt lat="43.299665" lon="13.1350433"><ele>593.0</ele><time>2026-04-18T08:13:21.066Z</time></trkpt><trkpt lat="43.299635" lon="13.13496"><ele>587.4285714285713</ele><time>2026-04-18T08:13:22.065Z</time></trkpt><trkpt lat="43.2996083" lon="13.1348733"><ele>581.8571428571429</ele><time>2026-04-18T08:13:23.065Z</time></trkpt><trkpt lat="43.29959" lon="13.1347767"><ele>576.2857142857142</ele><time>2026-04-18T08:13:24.065Z</time></trkpt><trkpt lat="43.2995717" lon="13.1346817"><ele>570.7142857142857</ele><time>2026-04-18T08:13:25.065Z</time></trkpt><trkpt lat="43.29955" lon="13.13459"><ele>565.1428571428571</ele><time>2026-04-18T08:13:26.065Z</time></trkpt><trkpt lat="43.2995317" lon="13.1344983"><ele>559.5714285714286</ele><time>2026-04-18T08:13:27.065Z</time></trkpt><trkpt lat="43.2995233" lon="13.1343983"><ele>554.0</ele><time>2026-04-18T08:13:28.065Z</time></trkpt><trkpt lat="43.2995117" lon="13.1342983"><ele>554.0</ele><time>2026-04-18T08:13:29.066Z</time></trkpt><trkpt lat="43.2994983" lon="13.1342067"><ele>554.0</ele><time>2026-04-18T08:13:30.065Z</time></trkpt><trkpt lat="43.2994917" lon="13.1341083"><ele>554.0</ele><time>2026-04-18T08:13:31.065Z</time></trkpt><trkpt lat="43.2994783" lon="13.1340083"><ele>554.0</ele><time>2026-04-18T08:13:32.065Z</time></trkpt><trkpt lat="43.2994617" lon="13.1339067"><ele>554.0</ele><time>2026-04-18T08:13:33.065Z</time></trkpt><trkpt lat="43.2994283" lon="13.1337367"><ele>554.0</ele><time>2026-04-18T08:13:35.065Z</time></trkpt><trkpt lat="43.2993933" lon="13.133555"><ele>555.6</ele><time>2026-04-18T08:13:37.065Z</time></trkpt><trkpt lat="43.299375" lon="13.13344"><ele>557.2</ele><time>2026-04-18T08:13:38.065Z</time></trkpt><trkpt lat="43.299355" lon="13.1333267"><ele>558.8000000000001</ele><time>2026-04-18T08:13:39.065Z</time></trkpt><trkpt lat="43.2993317" lon="13.1331933"><ele>560.4</ele><time>2026-04-18T08:13:40.065Z</time></trkpt><trkpt lat="43.2993033" lon="13.133065"><ele>562.0</ele><time>2026-04-18T08:13:41.065Z</time></trkpt><trkpt lat="43.29927" lon="13.1329417"><ele>563.8000000000001</ele><time>2026-04-18T08:13:42.065Z</time></trkpt><trkpt lat="43.2992433" lon="13.1328133"><ele>565.6</ele><time>2026-04-18T08:13:43.065Z</time></trkpt><trkpt lat="43.2992133" lon="13.1326883"><ele>567.4000000000001</ele><time>2026-04-18T08:13:44.066Z</time></trkpt><trkpt lat="43.299185" lon="13.1325583"><ele>569.2</ele><time>2026-04-18T08:13:45.065Z</time></trkpt><trkpt lat="43.299155" lon="13.1324333"><ele>571.0</ele><time>2026-04-18T08:13:46.065Z</time></trkpt><trkpt lat="43.2991217" lon="13.132305"><ele>574.0</ele><time>2026-04-18T08:13:47.066Z</time></trkpt><trkpt lat="43.29909" lon="13.13218"><ele>577.0</ele><time>2026-04-18T08:13:48.065Z</time></trkpt><trkpt lat="43.2990533" lon="13.1320517"><ele>580.0</ele><time>2026-04-18T08:13:49.066Z</time></trkpt><trkpt lat="43.2990083" lon="13.1319283"><ele>583.0</ele><time>2026-04-18T08:13:50.065Z</time></trkpt><trkpt lat="43.298975" lon="13.1318017"><ele>586.0</ele><time>2026-04-18T08:13:51.065Z</time></trkpt><trkpt lat="43.298935" lon="13.1316733"><ele>578.6</ele><time>2026-04-18T08:13:52.065Z</time></trkpt><trkpt lat="43.2988933" lon="13.13154"><ele>571.2</ele><time>2026-04-18T08:13:53.065Z</time></trkpt><trkpt lat="43.29885" lon="13.1314017"><ele>563.8</ele><time>2026-04-18T08:13:54.065Z</time></trkpt><trkpt lat="43.2988133" lon="13.131275"><ele>556.4</ele><time>2026-04-18T08:13:55.065Z</time></trkpt><trkpt lat="43.2987783" lon="13.1311467"><ele>549.0</ele><time>2026-04-18T08:13:56.065Z</time></trkpt><trkpt lat="43.2987433" lon="13.131025"><ele>549.0</ele><time>2026-04-18T08:13:57.065Z</time></trkpt><trkpt lat="43.29871" lon="13.1309017"><ele>549.0</ele><time>2026-04-18T08:13:58.065Z</time></trkpt><trkpt lat="43.2986783" lon="13.1307767"><ele>549.0</ele><time>2026-04-18T08:13:59.066Z</time></trkpt><trkpt lat="43.2986417" lon="13.13065"><ele>549.0</ele><time>2026-04-18T08:14:00.065Z</time></trkpt><trkpt lat="43.2986" lon="13.1305267"><ele>549.0</ele><time>2026-04-18T08:14:01.066Z</time></trkpt><trkpt lat="43.2985667" lon="13.1303983"><ele>551.4</ele><time>2026-04-18T08:14:02.066Z</time></trkpt><trkpt lat="43.29854" lon="13.1302733"><ele>553.8</ele><time>2026-04-18T08:14:03.065Z</time></trkpt><trkpt lat="43.2985083" lon="13.1301533"><ele>556.2</ele><time>2026-04-18T08:14:04.065Z</time></trkpt><trkpt lat="43.2984767" lon="13.1300367"><ele>558.6</ele><time>2026-04-18T08:14:05.065Z</time></trkpt><trkpt lat="43.29844" lon="13.12992"><ele>561.0</ele><time>2026-04-18T08:14:06.066Z</time></trkpt><trkpt lat="43.2983933" lon="13.12981"><ele>563.1666666666666</ele><time>2026-04-18T08:14:07.065Z</time></trkpt><trkpt lat="43.29835" lon="13.1297117"><ele>565.3333333333334</ele><time>2026-04-18T08:14:08.065Z</time></trkpt><trkpt lat="43.29831" lon="13.1296117"><ele>567.5</ele><time>2026-04-18T08:14:09.065Z</time></trkpt><trkpt lat="43.2982683" lon="13.1295067"><ele>569.6666666666667</ele><time>2026-04-18T08:14:10.065Z</time></trkpt><trkpt lat="43.2982333" lon="13.1293967"><ele>571.8333333333334</ele><time>2026-04-18T08:14:11.065Z</time></trkpt><trkpt lat="43.2982017" lon="13.1292717"><ele>574.0</ele><time>2026-04-18T08:14:12.065Z</time></trkpt><trkpt lat="43.2981667" lon="13.12914"><ele>577.4</ele><time>2026-04-18T08:14:13.065Z</time></trkpt><trkpt lat="43.2981233" lon="13.1290033"><ele>580.8</ele><time>2026-04-18T08:14:14.066Z</time></trkpt><trkpt lat="43.2980817" lon="13.1288833"><ele>584.2</ele><time>2026-04-18T08:14:15.066Z</time></trkpt><trkpt lat="43.2980333" lon="13.1287583"><ele>587.6</ele><time>2026-04-18T08:14:16.066Z</time></trkpt><trkpt lat="43.2979833" lon="13.1286383"><ele>591.0</ele><time>2026-04-18T08:14:17.065Z</time></trkpt><trkpt lat="43.297935" lon="13.12852"><ele>585.0</ele><time>2026-04-18T08:14:18.065Z</time></trkpt><trkpt lat="43.2978883" lon="13.1283983"><ele>579.0</ele><time>2026-04-18T08:14:19.065Z</time></trkpt><trkpt lat="43.2978383" lon="13.1282833"><ele>573.0</ele><time>2026-04-18T08:14:20.065Z</time></trkpt><trkpt lat="43.2977917" lon="13.1281667"><ele>567.0</ele><time>2026-04-18T08:14:21.065Z</time></trkpt><trkpt lat="43.2977367" lon="13.128055"><ele>561.0</ele><time>2026-04-18T08:14:22.065Z</time></trkpt><trkpt lat="43.2976833" lon="13.1279533"><ele>561.0</ele><time>2026-04-18T08:14:23.065Z</time></trkpt><trkpt lat="43.2976333" lon="13.12785"><ele>561.0</ele><time>2026-04-18T08:14:24.065Z</time></trkpt><trkpt lat="43.2975833" lon="13.127745"><ele>561.0</ele><time>2026-04-18T08:14:25.065Z</time></trkpt><trkpt lat="43.29754" lon="13.12763"><ele>561.0</ele><time>2026-04-18T08:14:26.065Z</time></trkpt><trkpt lat="43.2975" lon="13.1275133"><ele>561.0</ele><time>2026-04-18T08:14:27.066Z</time></trkpt><trkpt lat="43.29746" lon="13.1273917"><ele>564.5</ele><time>2026-04-18T08:14:28.065Z</time></trkpt><trkpt lat="43.29741" lon="13.1272767"><ele>568.0</ele><time>2026-04-18T08:14:29.065Z</time></trkpt><trkpt lat="43.2973567" lon="13.1271717"><ele>571.5</ele><time>2026-04-18T08:14:30.065Z</time></trkpt><trkpt lat="43.2972917" lon="13.127085"><ele>575.0</ele><time>2026-04-18T08:14:31.065Z</time></trkpt><trkpt lat="43.2972333" lon="13.127"><ele>578.5</ele><time>2026-04-18T08:14:32.065Z</time></trkpt><trkpt lat="43.2971833" lon="13.126915"><ele>582.0</ele><time>2026-04-18T08:14:33.065Z</time></trkpt><trkpt lat="43.29714" lon="13.12682"><ele>575.6</ele><time>2026-04-18T08:14:34.065Z</time></trkpt><trkpt lat="43.2971033" lon="13.1267167"><ele>569.2</ele><time>2026-04-18T08:14:35.065Z</time></trkpt><trkpt lat="43.29707" lon="13.12659"><ele>562.8</ele><time>2026-04-18T08:14:36.065Z</time></trkpt><trkpt lat="43.2970333" lon="13.1264667"><ele>556.4</ele><time>2026-04-18T08:14:37.065Z</time></trkpt><trkpt lat="43.2969833" lon="13.1263433"><ele>550.0</ele><time>2026-04-18T08:14:38.065Z</time></trkpt><trkpt lat="43.2969283" lon="13.12622"><ele>550.0</ele><time>2026-04-18T08:14:39.065Z</time></trkpt><trkpt lat="43.2968733" lon="13.1261017"><ele>550.0</ele><time>2026-04-18T08:14:40.065Z</time></trkpt><trkpt lat="43.2968167" lon="13.1259917"><ele>550.0</ele><time>2026-04-18T08:14:41.065Z</time></trkpt><trkpt lat="43.2967517" lon="13.1258733"><ele>550.0</ele><time>2026-04-18T08:14:42.065Z</time></trkpt><trkpt lat="43.2967067" lon="13.1257683"><ele>550.0</ele><time>2026-04-18T08:14:43.066Z</time></trkpt><trkpt lat="43.2966467" lon="13.12566"><ele>546.0</ele><time>2026-04-18T08:14:44.065Z</time></trkpt><trkpt lat="43.2965867" lon="13.125555"><ele>542.0</ele><time>2026-04-18T08:14:45.065Z</time></trkpt><trkpt lat="43.2965333" lon="13.12546"><ele>538.0</ele><time>2026-04-18T08:14:46.065Z</time></trkpt><trkpt lat="43.2964733" lon="13.1253617"><ele>534.0</ele><time>2026-04-18T08:14:47.065Z</time></trkpt><trkpt lat="43.2964017" lon="13.1252633"><ele>530.0</ele><time>2026-04-18T08:14:48.065Z</time></trkpt><trkpt lat="43.296335" lon="13.1251717"><ele>530.0</ele><time>2026-04-18T08:14:49.065Z</time></trkpt><trkpt lat="43.296275" lon="13.1250817"><ele>530.0</ele><time>2026-04-18T08:14:50.065Z</time></trkpt><trkpt lat="43.2962217" lon="13.1249883"><ele>530.0</ele><time>2026-04-18T08:14:51.065Z</time></trkpt><trkpt lat="43.2961833" lon="13.1248883"><ele>530.0</ele><time>2026-04-18T08:14:52.065Z</time></trkpt><trkpt lat="43.2961583" lon="13.12478"><ele>530.0</ele><time>2026-04-18T08:14:53.065Z</time></trkpt><trkpt lat="43.296135" lon="13.124675"><ele>530.0</ele><time>2026-04-18T08:14:54.065Z</time></trkpt><trkpt lat="43.2961" lon="13.1245783"><ele>531.8333333333333</ele><time>2026-04-18T08:14:55.065Z</time></trkpt><trkpt lat="43.2960467" lon="13.12449"><ele>533.6666666666666</ele><time>2026-04-18T08:14:56.065Z</time></trkpt><trkpt lat="43.295995" lon="13.1244"><ele>535.5</ele><time>2026-04-18T08:14:57.065Z</time></trkpt><trkpt lat="43.295945" lon="13.1243117"><ele>537.3333333333334</ele><time>2026-04-18T08:14:58.065Z</time></trkpt><trkpt lat="43.2958967" lon="13.1242233"><ele>539.1666666666667</ele><time>2026-04-18T08:14:59.065Z</time></trkpt><trkpt lat="43.295855" lon="13.1241267"><ele>541.0</ele><time>2026-04-18T08:15:00.065Z</time></trkpt><trkpt lat="43.2958133" lon="13.12403"><ele>541.8333333333334</ele><time>2026-04-18T08:15:01.065Z</time></trkpt><trkpt lat="43.2957817" lon="13.123935"><ele>542.6666666666667</ele><time>2026-04-18T08:15:02.065Z</time></trkpt><trkpt lat="43.2957533" lon="13.123845"><ele>543.5</ele><time>2026-04-18T08:15:03.066Z</time></trkpt><trkpt lat="43.2957317" lon="13.1237417"><ele>544.3333333333334</ele><time>2026-04-18T08:15:04.065Z</time></trkpt><trkpt lat="43.2957133" lon="13.1236317"><ele>545.1666666666666</ele><time>2026-04-18T08:15:05.066Z</time></trkpt><trkpt lat="43.2957033" lon="13.1235233"><ele>546.0</ele><time>2026-04-18T08:15:06.065Z</time></trkpt><trkpt lat="43.2956917" lon="13.1234083"><ele>546.0</ele><time>2026-04-18T08:15:07.065Z</time></trkpt><trkpt lat="43.2956867" lon="13.1232967"><ele>546.0</ele><time>2026-04-18T08:15:08.066Z</time></trkpt><trkpt lat="43.2956883" lon="13.1231783"><ele>546.0</ele><time>2026-04-18T08:15:09.065Z</time></trkpt><trkpt lat="43.295695" lon="13.1230517"><ele>546.0</ele><time>2026-04-18T08:15:10.065Z</time></trkpt><trkpt lat="43.2957133" lon="13.1229333"><ele>546.0</ele><time>2026-04-18T08:15:11.065Z</time></trkpt><trkpt lat="43.295725" lon="13.12281"><ele>546.0</ele><time>2026-04-18T08:15:12.065Z</time></trkpt><trkpt lat="43.2957283" lon="13.1226867"><ele>546.4</ele><time>2026-04-18T08:15:13.065Z</time></trkpt><trkpt lat="43.295735" lon="13.1225633"><ele>546.8</ele><time>2026-04-18T08:15:14.065Z</time></trkpt><trkpt lat="43.2957433" lon="13.12244"><ele>547.1999999999999</ele><time>2026-04-18T08:15:15.065Z</time></trkpt><trkpt lat="43.2957533" lon="13.1223117"><ele>547.6</ele><time>2026-04-18T08:15:16.066Z</time></trkpt><trkpt lat="43.2957583" lon="13.122185"><ele>548.0</ele><time>2026-04-18T08:15:17.065Z</time></trkpt><trkpt lat="43.2957667" lon="13.1220483"><ele>548.0</ele><time>2026-04-18T08:15:18.065Z</time></trkpt><trkpt lat="43.29577" lon="13.1219117"><ele>548.0</ele><time>2026-04-18T08:15:19.065Z</time></trkpt><trkpt lat="43.29578" lon="13.12179"><ele>548.0</ele><time>2026-04-18T08:15:20.065Z</time></trkpt><trkpt lat="43.2957933" lon="13.1216667"><ele>548.0</ele><time>2026-04-18T08:15:21.065Z</time></trkpt><trkpt lat="43.2958" lon="13.12153"><ele>548.0</ele><time>2026-04-18T08:15:22.065Z</time></trkpt><trkpt lat="43.295805" lon="13.1213917"><ele>548.0</ele><time>2026-04-18T08:15:23.066Z</time></trkpt><trkpt lat="43.295815" lon="13.1212583"><ele>548.0</ele><time>2026-04-18T08:15:24.065Z</time></trkpt><trkpt lat="43.295825" lon="13.1211217"><ele>548.0</ele><time>2026-04-18T08:15:25.065Z</time></trkpt><trkpt lat="43.2958317" lon="13.120975"><ele>548.0</ele><time>2026-04-18T08:15:26.065Z</time></trkpt><trkpt lat="43.29583" lon="13.120825"><ele>548.0</ele><time>2026-04-18T08:15:27.065Z</time></trkpt><trkpt lat="43.2958233" lon="13.1206767"><ele>548.1999999999999</ele><time>2026-04-18T08:15:28.065Z</time></trkpt><trkpt lat="43.2958183" lon="13.12053"><ele>548.4</ele><time>2026-04-18T08:15:29.066Z</time></trkpt><trkpt lat="43.2958083" lon="13.1203883"><ele>548.5999999999999</ele><time>2026-04-18T08:15:30.065Z</time></trkpt><trkpt lat="43.295795" lon="13.1202483"><ele>548.8</ele><time>2026-04-18T08:15:31.065Z</time></trkpt><trkpt lat="43.29577" lon="13.1201217"><ele>549.0</ele><time>2026-04-18T08:15:32.065Z</time></trkpt><trkpt lat="43.295755" lon="13.12"><ele>549.0</ele><time>2026-04-18T08:15:33.065Z</time></trkpt><trkpt lat="43.2957483" lon="13.119895"><ele>549.0</ele><time>2026-04-18T08:15:34.066Z</time></trkpt><trkpt lat="43.2957567" lon="13.1197933"><ele>549.0</ele><time>2026-04-18T08:15:35.065Z</time></trkpt><trkpt lat="43.2957767" lon="13.1196983"><ele>549.0</ele><time>2026-04-18T08:15:36.066Z</time></trkpt><trkpt lat="43.2958" lon="13.1196033"><ele>549.0</ele><time>2026-04-18T08:15:37.065Z</time></trkpt><trkpt lat="43.2958167" lon="13.11951"><ele>549.0</ele><time>2026-04-18T08:15:38.066Z</time></trkpt><trkpt lat="43.2958367" lon="13.1194117"><ele>549.0</ele><time>2026-04-18T08:15:39.066Z</time></trkpt><trkpt lat="43.2958467" lon="13.1193117"><ele>549.0</ele><time>2026-04-18T08:15:40.065Z</time></trkpt><trkpt lat="43.295855" lon="13.1192083"><ele>549.0</ele><time>2026-04-18T08:15:41.065Z</time></trkpt><trkpt lat="43.2958517" lon="13.1190883"><ele>549.0</ele><time>2026-04-18T08:15:42.065Z</time></trkpt><trkpt lat="43.29585" lon="13.118965"><ele>549.0</ele><time>2026-04-18T08:15:43.065Z</time></trkpt><trkpt lat="43.2958433" lon="13.11885"><ele>549.0</ele><time>2026-04-18T08:15:44.065Z</time></trkpt><trkpt lat="43.295835" lon="13.118735"><ele>549.0</ele><time>2026-04-18T08:15:45.065Z</time></trkpt><trkpt lat="43.29583" lon="13.118625"><ele>548.8333333333334</ele><time>2026-04-18T08:15:46.066Z</time></trkpt><trkpt lat="43.29582" lon="13.118515"><ele>548.6666666666666</ele><time>2026-04-18T08:15:47.065Z</time></trkpt><trkpt lat="43.295815" lon="13.1184183"><ele>548.5</ele><time>2026-04-18T08:15:48.065Z</time></trkpt><trkpt lat="43.29581" lon="13.1183267"><ele>548.3333333333333</ele><time>2026-04-18T08:15:49.066Z</time></trkpt><trkpt lat="43.2958167" lon="13.1181683"><ele>548.1666666666666</ele><time>2026-04-18T08:15:51.065Z</time></trkpt><trkpt lat="43.2958283" lon="13.1180467"><ele>548.0</ele><time>2026-04-18T08:15:53.066Z</time></trkpt><trkpt lat="43.2958517" lon="13.1179267"><ele>547.8333333333333</ele><time>2026-04-18T08:15:55.065Z</time></trkpt><trkpt lat="43.2958883" lon="13.117785"><ele>547.6666666666666</ele><time>2026-04-18T08:15:57.065Z</time></trkpt><trkpt lat="43.2959067" lon="13.1176917"><ele>547.5</ele><time>2026-04-18T08:15:58.065Z</time></trkpt><trkpt lat="43.29592" lon="13.1175933"><ele>547.3333333333334</ele><time>2026-04-18T08:15:59.065Z</time></trkpt><trkpt lat="43.2959333" lon="13.11749"><ele>547.1666666666667</ele><time>2026-04-18T08:16:00.065Z</time></trkpt><trkpt lat="43.295945" lon="13.11738"><ele>547.0</ele><time>2026-04-18T08:16:01.065Z</time></trkpt><trkpt lat="43.2959467" lon="13.11726"><ele>546.8333333333334</ele><time>2026-04-18T08:16:02.065Z</time></trkpt><trkpt lat="43.2959383" lon="13.11714"><ele>546.6666666666667</ele><time>2026-04-18T08:16:03.065Z</time></trkpt><trkpt lat="43.2959317" lon="13.1170267"><ele>546.5</ele><time>2026-04-18T08:16:04.066Z</time></trkpt><trkpt lat="43.29592" lon="13.116905"><ele>546.3333333333334</ele><time>2026-04-18T08:16:05.066Z</time></trkpt><trkpt lat="43.2959083" lon="13.1167817"><ele>546.1666666666666</ele><time>2026-04-18T08:16:06.066Z</time></trkpt><trkpt lat="43.2958867" lon="13.1166617"><ele>546.0</ele><time>2026-04-18T08:16:07.065Z</time></trkpt><trkpt lat="43.2958483" lon="13.1165483"><ele>546.2</ele><time>2026-04-18T08:16:08.065Z</time></trkpt><trkpt lat="43.2958" lon="13.1164417"><ele>546.4000000000001</ele><time>2026-04-18T08:16:09.065Z</time></trkpt><trkpt lat="43.2957383" lon="13.1163417"><ele>546.6</ele><time>2026-04-18T08:16:10.066Z</time></trkpt><trkpt lat="43.2956667" lon="13.116255"><ele>546.8000000000001</ele><time>2026-04-18T08:16:11.065Z</time></trkpt><trkpt lat="43.2955917" lon="13.1161717"><ele>547.0</ele><time>2026-04-18T08:16:12.065Z</time></trkpt><trkpt lat="43.2955183" lon="13.1160883"><ele>547.0</ele><time>2026-04-18T08:16:13.065Z</time></trkpt><trkpt lat="43.2954483" lon="13.116005"><ele>547.0</ele><time>2026-04-18T08:16:14.065Z</time></trkpt><trkpt lat="43.29538" lon="13.11592"><ele>547.0</ele><time>2026-04-18T08:16:15.065Z</time></trkpt><trkpt lat="43.2953133" lon="13.1158333"><ele>547.0</ele><time>2026-04-18T08:16:16.065Z</time></trkpt><trkpt lat="43.2952417" lon="13.1157467"><ele>547.0</ele><time>2026-04-18T08:16:17.065Z</time></trkpt><trkpt lat="43.295175" lon="13.11566"><ele>547.8000000000001</ele><time>2026-04-18T08:16:18.065Z</time></trkpt><trkpt lat="43.2951133" lon="13.1155717"><ele>548.6</ele><time>2026-04-18T08:16:19.065Z</time></trkpt><trkpt lat="43.2950533" lon="13.1154833"><ele>549.4000000000001</ele><time>2026-04-18T08:16:20.065Z</time></trkpt><trkpt lat="43.2949967" lon="13.1153883"><ele>550.2</ele><time>2026-04-18T08:16:21.065Z</time></trkpt><trkpt lat="43.2949433" lon="13.115275"><ele>551.0</ele><time>2026-04-18T08:16:22.065Z</time></trkpt><trkpt lat="43.294895" lon="13.1151483"><ele>551.0</ele><time>2026-04-18T08:16:23.066Z</time></trkpt><trkpt lat="43.2948467" lon="13.1150233"><ele>551.0</ele><time>2026-04-18T08:16:24.066Z</time></trkpt><trkpt lat="43.2948067" lon="13.1148983"><ele>551.0</ele><time>2026-04-18T08:16:25.065Z</time></trkpt><trkpt lat="43.2947683" lon="13.114785"><ele>551.0</ele><time>2026-04-18T08:16:26.065Z</time></trkpt><trkpt lat="43.2947317" lon="13.1146733"><ele>551.0</ele><time>2026-04-18T08:16:27.065Z</time></trkpt><trkpt lat="43.2946967" lon="13.1145533"><ele>552.2</ele><time>2026-04-18T08:16:28.065Z</time></trkpt><trkpt lat="43.2946667" lon="13.1144283"><ele>553.4000000000001</ele><time>2026-04-18T08:16:29.065Z</time></trkpt><trkpt lat="43.2946317" lon="13.114305"><ele>554.6</ele><time>2026-04-18T08:16:30.065Z</time></trkpt><trkpt lat="43.2946067" lon="13.114185"><ele>555.8000000000001</ele><time>2026-04-18T08:16:31.065Z</time></trkpt><trkpt lat="43.2945783" lon="13.1140633"><ele>557.0</ele><time>2026-04-18T08:16:32.065Z</time></trkpt><trkpt lat="43.29454" lon="13.1139367"><ele>557.0</ele><time>2026-04-18T08:16:33.065Z</time></trkpt><trkpt lat="43.294495" lon="13.113815"><ele>557.0</ele><time>2026-04-18T08:16:34.065Z</time></trkpt><trkpt lat="43.294445" lon="13.1137"><ele>557.0</ele><time>2026-04-18T08:16:35.065Z</time></trkpt><trkpt lat="43.2944017" lon="13.1135883"><ele>557.0</ele><time>2026-04-18T08:16:36.065Z</time></trkpt><trkpt lat="43.2943583" lon="13.1134783"><ele>557.0</ele><time>2026-04-18T08:16:37.065Z</time></trkpt><trkpt lat="43.2943217" lon="13.113375"><ele>557.0</ele><time>2026-04-18T08:16:38.065Z</time></trkpt><trkpt lat="43.2942867" lon="13.1132617"><ele>557.0</ele><time>2026-04-18T08:16:39.065Z</time></trkpt><trkpt lat="43.29426" lon="13.1131383"><ele>557.0</ele><time>2026-04-18T08:16:40.065Z</time></trkpt><trkpt lat="43.294235" lon="13.1130133"><ele>557.0</ele><time>2026-04-18T08:16:41.065Z</time></trkpt><trkpt lat="43.2942117" lon="13.11289"><ele>557.0</ele><time>2026-04-18T08:16:42.065Z</time></trkpt><trkpt lat="43.2941883" lon="13.112775"><ele>556.8571428571429</ele><time>2026-04-18T08:16:43.065Z</time></trkpt><trkpt lat="43.2941783" lon="13.1126717"><ele>556.7142857142857</ele><time>2026-04-18T08:16:44.065Z</time></trkpt><trkpt lat="43.2941783" lon="13.1125783"><ele>556.5714285714286</ele><time>2026-04-18T08:16:45.065Z</time></trkpt><trkpt lat="43.2941867" lon="13.1124883"><ele>556.4285714285714</ele><time>2026-04-18T08:16:46.065Z</time></trkpt><trkpt lat="43.2942033" lon="13.1124033"><ele>556.2857142857143</ele><time>2026-04-18T08:16:47.065Z</time></trkpt><trkpt lat="43.2942433" lon="13.1123217"><ele>556.1428571428571</ele><time>2026-04-18T08:16:48.065Z</time></trkpt><trkpt lat="43.2942933" lon="13.1122567"><ele>556.0</ele><time>2026-04-18T08:16:49.064Z</time></trkpt><trkpt lat="43.29435" lon="13.1122033"><ele>557.1428571428571</ele><time>2026-04-18T08:16:50.065Z</time></trkpt><trkpt lat="43.2944117" lon="13.1121417"><ele>558.2857142857143</ele><time>2026-04-18T08:16:51.064Z</time></trkpt><trkpt lat="43.294465" lon="13.1120733"><ele>559.4285714285714</ele><time>2026-04-18T08:16:52.065Z</time></trkpt><trkpt lat="43.2944967" lon="13.111985"><ele>560.5714285714286</ele><time>2026-04-18T08:16:53.064Z</time></trkpt><trkpt lat="43.2945067" lon="13.1118867"><ele>561.7142857142857</ele><time>2026-04-18T08:16:54.064Z</time></trkpt><trkpt lat="43.2945017" lon="13.111785"><ele>562.8571428571429</ele><time>2026-04-18T08:16:55.064Z</time></trkpt><trkpt lat="43.29448" lon="13.1116767"><ele>564.0</ele><time>2026-04-18T08:16:56.064Z</time></trkpt><trkpt lat="43.294445" lon="13.1115667"><ele>565.0</ele><time>2026-04-18T08:16:57.064Z</time></trkpt><trkpt lat="43.2944133" lon="13.11145"><ele>566.0</ele><time>2026-04-18T08:16:58.064Z</time></trkpt><trkpt lat="43.2943817" lon="13.111335"><ele>567.0</ele><time>2026-04-18T08:16:59.064Z</time></trkpt><trkpt lat="43.2943433" lon="13.1112183"><ele>568.0</ele><time>2026-04-18T08:17:00.065Z</time></trkpt><trkpt lat="43.2943083" lon="13.1110983"><ele>569.0</ele><time>2026-04-18T08:17:01.064Z</time></trkpt><trkpt lat="43.2942733" lon="13.110975"><ele>569.0</ele><time>2026-04-18T08:17:02.064Z</time></trkpt><trkpt lat="43.2942417" lon="13.11084"><ele>569.0</ele><time>2026-04-18T08:17:03.064Z</time></trkpt><trkpt lat="43.2942083" lon="13.11071"><ele>569.0</ele><time>2026-04-18T08:17:04.064Z</time></trkpt><trkpt lat="43.2941733" lon="13.11058"><ele>569.0</ele><time>2026-04-18T08:17:05.064Z</time></trkpt><trkpt lat="43.2941383" lon="13.1104533"><ele>569.0</ele><time>2026-04-18T08:17:06.064Z</time></trkpt><trkpt lat="43.2940983" lon="13.1103267"><ele>571.2</ele><time>2026-04-18T08:17:07.064Z</time></trkpt><trkpt lat="43.29406" lon="13.1102017"><ele>573.4</ele><time>2026-04-18T08:17:08.064Z</time></trkpt><trkpt lat="43.294025" lon="13.1100783"><ele>575.6</ele><time>2026-04-18T08:17:09.064Z</time></trkpt><trkpt lat="43.29399" lon="13.109955"><ele>577.8</ele><time>2026-04-18T08:17:10.064Z</time></trkpt><trkpt lat="43.2939617" lon="13.1098317"><ele>580.0</ele><time>2026-04-18T08:17:11.064Z</time></trkpt><trkpt lat="43.2939267" lon="13.1097"><ele>579.6</ele><time>2026-04-18T08:17:12.064Z</time></trkpt><trkpt lat="43.293895" lon="13.109565"><ele>579.2</ele><time>2026-04-18T08:17:13.064Z</time></trkpt><trkpt lat="43.293875" lon="13.1094383"><ele>578.8</ele><time>2026-04-18T08:17:14.064Z</time></trkpt><trkpt lat="43.29386" lon="13.1093067"><ele>578.4</ele><time>2026-04-18T08:17:15.064Z</time></trkpt><trkpt lat="43.2938417" lon="13.1091833"><ele>578.0</ele><time>2026-04-18T08:17:16.064Z</time></trkpt><trkpt lat="43.29382" lon="13.10905"><ele>578.0</ele><time>2026-04-18T08:17:17.065Z</time></trkpt><trkpt lat="43.293795" lon="13.1089133"><ele>578.0</ele><time>2026-04-18T08:17:18.064Z</time></trkpt><trkpt lat="43.29376" lon="13.1087783"><ele>578.0</ele><time>2026-04-18T08:17:19.064Z</time></trkpt><trkpt lat="43.2937317" lon="13.10863"><ele>578.0</ele><time>2026-04-18T08:17:20.064Z</time></trkpt><trkpt lat="43.2936983" lon="13.1084933"><ele>578.0</ele><time>2026-04-18T08:17:21.064Z</time></trkpt><trkpt lat="43.2936617" lon="13.108355"><ele>579.8</ele><time>2026-04-18T08:17:22.064Z</time></trkpt><trkpt lat="43.293635" lon="13.1082183"><ele>581.5999999999999</ele><time>2026-04-18T08:17:23.064Z</time></trkpt><trkpt lat="43.29361" lon="13.1080867"><ele>583.4000000000001</ele><time>2026-04-18T08:17:24.064Z</time></trkpt><trkpt lat="43.2935967" lon="13.1079567"><ele>585.2</ele><time>2026-04-18T08:17:25.064Z</time></trkpt><trkpt lat="43.2935817" lon="13.1078283"><ele>587.0</ele><time>2026-04-18T08:17:26.064Z</time></trkpt><trkpt lat="43.2935633" lon="13.1077017"><ele>587.0</ele><time>2026-04-18T08:17:27.064Z</time></trkpt><trkpt lat="43.2935367" lon="13.1075733"><ele>587.0</ele><time>2026-04-18T08:17:28.064Z</time></trkpt><trkpt lat="43.2935083" lon="13.1074383"><ele>587.0</ele><time>2026-04-18T08:17:29.065Z</time></trkpt><trkpt lat="43.29346" lon="13.1073183"><ele>587.0</ele><time>2026-04-18T08:17:30.064Z</time></trkpt><trkpt lat="43.2934167" lon="13.1072"><ele>587.0</ele><time>2026-04-18T08:17:31.064Z</time></trkpt><trkpt lat="43.29337" lon="13.1070817"><ele>589.2</ele><time>2026-04-18T08:17:32.064Z</time></trkpt><trkpt lat="43.293325" lon="13.10697"><ele>591.4000000000001</ele><time>2026-04-18T08:17:33.064Z</time></trkpt><trkpt lat="43.29329" lon="13.10686"><ele>593.5999999999999</ele><time>2026-04-18T08:17:34.064Z</time></trkpt><trkpt lat="43.2932617" lon="13.1067383"><ele>595.8</ele><time>2026-04-18T08:17:35.065Z</time></trkpt><trkpt lat="43.2932367" lon="13.1066067"><ele>598.0</ele><time>2026-04-18T08:17:36.064Z</time></trkpt><trkpt lat="43.2932117" lon="13.10647"><ele>599.1999999999999</ele><time>2026-04-18T08:17:37.064Z</time></trkpt><trkpt lat="43.2931917" lon="13.10634"><ele>600.4</ele><time>2026-04-18T08:17:38.064Z</time></trkpt><trkpt lat="43.29317" lon="13.1062117"><ele>601.5999999999999</ele><time>2026-04-18T08:17:39.064Z</time></trkpt><trkpt lat="43.293155" lon="13.1060833"><ele>602.8</ele><time>2026-04-18T08:17:40.064Z</time></trkpt><trkpt lat="43.2931417" lon="13.1059633"><ele>604.0</ele><time>2026-04-18T08:17:41.064Z</time></trkpt><trkpt lat="43.2931283" lon="13.1058433"><ele>604.1666666666667</ele><time>2026-04-18T08:17:42.064Z</time></trkpt><trkpt lat="43.2931117" lon="13.1057233"><ele>604.3333333333334</ele><time>2026-04-18T08:17:43.064Z</time></trkpt><trkpt lat="43.2930883" lon="13.105605"><ele>604.5</ele><time>2026-04-18T08:17:44.064Z</time></trkpt><trkpt lat="43.2930483" lon="13.105495"><ele>604.6666666666666</ele><time>2026-04-18T08:17:45.064Z</time></trkpt><trkpt lat="43.2930017" lon="13.1053933"><ele>604.8333333333333</ele><time>2026-04-18T08:17:46.064Z</time></trkpt><trkpt lat="43.292945" lon="13.1053117"><ele>605.0</ele><time>2026-04-18T08:17:47.064Z</time></trkpt><trkpt lat="43.2928717" lon="13.1052517"><ele>605.0</ele><time>2026-04-18T08:17:48.064Z</time></trkpt><trkpt lat="43.2927917" lon="13.105205"><ele>605.0</ele><time>2026-04-18T08:17:49.065Z</time></trkpt><trkpt lat="43.2927033" lon="13.1051683"><ele>605.0</ele><time>2026-04-18T08:17:50.064Z</time></trkpt><trkpt lat="43.2926117" lon="13.1051417"><ele>605.0</ele><time>2026-04-18T08:17:51.065Z</time></trkpt><trkpt lat="43.2925117" lon="13.105135"><ele>605.0</ele><time>2026-04-18T08:17:52.065Z</time></trkpt><trkpt lat="43.2924167" lon="13.1051417"><ele>605.0</ele><time>2026-04-18T08:17:53.064Z</time></trkpt><trkpt lat="43.2923217" lon="13.105145"><ele>605.0</ele><time>2026-04-18T08:17:54.064Z</time></trkpt><trkpt lat="43.2922333" lon="13.105145"><ele>605.0</ele><time>2026-04-18T08:17:55.064Z</time></trkpt><trkpt lat="43.2921517" lon="13.105135"><ele>605.0</ele><time>2026-04-18T08:17:56.064Z</time></trkpt><trkpt lat="43.2920667" lon="13.1051033"><ele>605.0</ele><time>2026-04-18T08:17:57.064Z</time></trkpt><trkpt lat="43.2919917" lon="13.1050517"><ele>605.0</ele><time>2026-04-18T08:17:58.064Z</time></trkpt><trkpt lat="43.2919183" lon="13.1049883"><ele>604.2</ele><time>2026-04-18T08:17:59.064Z</time></trkpt><trkpt lat="43.291845" lon="13.104915"><ele>603.4</ele><time>2026-04-18T08:18:00.064Z</time></trkpt><trkpt lat="43.2917767" lon="13.1048283"><ele>602.6</ele><time>2026-04-18T08:18:01.064Z</time></trkpt><trkpt lat="43.2917167" lon="13.1047267"><ele>601.8</ele><time>2026-04-18T08:18:02.064Z</time></trkpt><trkpt lat="43.291655" lon="13.1046183"><ele>601.0</ele><time>2026-04-18T08:18:03.064Z</time></trkpt><trkpt lat="43.2915883" lon="13.1044967"><ele>602.4</ele><time>2026-04-18T08:18:04.064Z</time></trkpt><trkpt lat="43.291535" lon="13.1043817"><ele>603.8</ele><time>2026-04-18T08:18:05.065Z</time></trkpt><trkpt lat="43.2914883" lon="13.1042633"><ele>605.1999999999999</ele><time>2026-04-18T08:18:06.064Z</time></trkpt><trkpt lat="43.291435" lon="13.10416"><ele>606.6</ele><time>2026-04-18T08:18:07.064Z</time></trkpt><trkpt lat="43.2913767" lon="13.104055"><ele>608.0</ele><time>2026-04-18T08:18:08.064Z</time></trkpt><trkpt lat="43.2913183" lon="13.1039417"><ele>608.0</ele><time>2026-04-18T08:18:09.064Z</time></trkpt><trkpt lat="43.2912683" lon="13.1038317"><ele>608.0</ele><time>2026-04-18T08:18:10.064Z</time></trkpt><trkpt lat="43.2912183" lon="13.103715"><ele>608.0</ele><time>2026-04-18T08:18:11.064Z</time></trkpt><trkpt lat="43.29118" lon="13.1036033"><ele>608.0</ele><time>2026-04-18T08:18:12.064Z</time></trkpt><trkpt lat="43.29115" lon="13.1034783"><ele>608.0</ele><time>2026-04-18T08:18:13.065Z</time></trkpt><trkpt lat="43.2911317" lon="13.103355"><ele>610.1666666666666</ele><time>2026-04-18T08:18:14.065Z</time></trkpt><trkpt lat="43.2911217" lon="13.103235"><ele>612.3333333333333</ele><time>2026-04-18T08:18:15.064Z</time></trkpt><trkpt lat="43.2911117" lon="13.103115"><ele>614.5</ele><time>2026-04-18T08:18:16.064Z</time></trkpt><trkpt lat="43.2910983" lon="13.103015"><ele>616.6666666666666</ele><time>2026-04-18T08:18:17.064Z</time></trkpt><trkpt lat="43.2910933" lon="13.10292"><ele>618.8333333333334</ele><time>2026-04-18T08:18:18.064Z</time></trkpt><trkpt lat="43.291095" lon="13.1028233"><ele>621.0</ele><time>2026-04-18T08:18:19.064Z</time></trkpt><trkpt lat="43.2911033" lon="13.1027317"><ele>621.0</ele><time>2026-04-18T08:18:20.065Z</time></trkpt><trkpt lat="43.2911167" lon="13.10263"><ele>621.0</ele><time>2026-04-18T08:18:21.064Z</time></trkpt><trkpt lat="43.2911183" lon="13.1025383"><ele>621.0</ele><time>2026-04-18T08:18:22.064Z</time></trkpt><trkpt lat="43.29111" lon="13.102445"><ele>621.0</ele><time>2026-04-18T08:18:23.064Z</time></trkpt><trkpt lat="43.291045" lon="13.1023233"><ele>621.0</ele><time>2026-04-18T08:18:25.064Z</time></trkpt><trkpt lat="43.2909817" lon="13.1022583"><ele>621.0</ele><time>2026-04-18T08:18:26.064Z</time></trkpt><trkpt lat="43.2909133" lon="13.1021833"><ele>621.6666666666666</ele><time>2026-04-18T08:18:27.065Z</time></trkpt><trkpt lat="43.290845" lon="13.1021083"><ele>622.3333333333334</ele><time>2026-04-18T08:18:28.064Z</time></trkpt><trkpt lat="43.2907817" lon="13.102045"><ele>623.0</ele><time>2026-04-18T08:18:29.064Z</time></trkpt><trkpt lat="43.2907333" lon="13.1019867"><ele>623.6666666666667</ele><time>2026-04-18T08:18:30.064Z</time></trkpt><trkpt lat="43.2906833" lon="13.1019167"><ele>624.3333333333334</ele><time>2026-04-18T08:18:31.064Z</time></trkpt><trkpt lat="43.2906217" lon="13.1018533"><ele>625.0</ele><time>2026-04-18T08:18:32.064Z</time></trkpt><trkpt lat="43.2905617" lon="13.101785"><ele>625.0</ele><time>2026-04-18T08:18:33.065Z</time></trkpt><trkpt lat="43.2905067" lon="13.1017283"><ele>625.0</ele><time>2026-04-18T08:18:34.064Z</time></trkpt><trkpt lat="43.290445" lon="13.1016733"><ele>625.0</ele><time>2026-04-18T08:18:35.064Z</time></trkpt><trkpt lat="43.2903733" lon="13.1016133"><ele>625.0</ele><time>2026-04-18T08:18:36.064Z</time></trkpt><trkpt lat="43.2902967" lon="13.1015533"><ele>625.0</ele><time>2026-04-18T08:18:37.065Z</time></trkpt><trkpt lat="43.2902117" lon="13.1014933"><ele>625.0</ele><time>2026-04-18T08:18:38.064Z</time></trkpt><trkpt lat="43.2901317" lon="13.101415"><ele>626.3333333333334</ele><time>2026-04-18T08:18:39.064Z</time></trkpt><trkpt lat="43.29006" lon="13.101325"><ele>627.6666666666667</ele><time>2026-04-18T08:18:40.064Z</time></trkpt><trkpt lat="43.2899933" lon="13.1012433"><ele>629.0</ele><time>2026-04-18T08:18:41.064Z</time></trkpt><trkpt lat="43.2899367" lon="13.10117"><ele>630.3333333333334</ele><time>2026-04-18T08:18:42.064Z</time></trkpt><trkpt lat="43.28987" lon="13.10112"><ele>631.6666666666666</ele><time>2026-04-18T08:18:43.064Z</time></trkpt><trkpt lat="43.289795" lon="13.10108"><ele>633.0</ele><time>2026-04-18T08:18:44.064Z</time></trkpt><trkpt lat="43.28972" lon="13.101055"><ele>633.0</ele><time>2026-04-18T08:18:45.065Z</time></trkpt><trkpt lat="43.2896467" lon="13.10105"><ele>633.0</ele><time>2026-04-18T08:18:46.064Z</time></trkpt><trkpt lat="43.28958" lon="13.1010483"><ele>633.0</ele><time>2026-04-18T08:18:47.064Z</time></trkpt><trkpt lat="43.28951" lon="13.10105"><ele>633.0</ele><time>2026-04-18T08:18:48.064Z</time></trkpt><trkpt lat="43.28944" lon="13.1010583"><ele>633.0</ele><time>2026-04-18T08:18:49.064Z</time></trkpt><trkpt lat="43.28932" lon="13.1010783"><ele>633.0</ele><time>2026-04-18T08:18:51.064Z</time></trkpt><trkpt lat="43.2892267" lon="13.1011167"><ele>633.0</ele><time>2026-04-18T08:18:53.064Z</time></trkpt><trkpt lat="43.289155" lon="13.101135"><ele>633.0</ele><time>2026-04-18T08:18:55.064Z</time></trkpt><trkpt lat="43.2890817" lon="13.1011333"><ele>633.0</ele><time>2026-04-18T08:18:57.064Z</time></trkpt><trkpt lat="43.2890267" lon="13.1010783"><ele>633.0</ele><time>2026-04-18T08:18:59.064Z</time></trkpt><trkpt lat="43.2889783" lon="13.10101"><ele>633.0</ele><time>2026-04-18T08:19:01.065Z</time></trkpt><trkpt lat="43.28893" lon="13.100935"><ele>633.0</ele><time>2026-04-18T08:19:03.064Z</time></trkpt><trkpt lat="43.2888783" lon="13.10085"><ele>633.0</ele><time>2026-04-18T08:19:05.065Z</time></trkpt><trkpt lat="43.2888083" lon="13.1007433"><ele>634.5</ele><time>2026-04-18T08:19:07.064Z</time></trkpt><trkpt lat="43.2887417" lon="13.1006633"><ele>636.0</ele><time>2026-04-18T08:19:09.064Z</time></trkpt><trkpt lat="43.28868" lon="13.1006283"><ele>637.5</ele><time>2026-04-18T08:19:11.064Z</time></trkpt><trkpt lat="43.2886167" lon="13.1006333"><ele>639.0</ele><time>2026-04-18T08:19:13.064Z</time></trkpt><trkpt lat="43.2885517" lon="13.1006767"><ele>640.5</ele><time>2026-04-18T08:19:15.064Z</time></trkpt><trkpt lat="43.2884667" lon="13.10068"><ele>642.0</ele><time>2026-04-18T08:19:17.064Z</time></trkpt><trkpt lat="43.28838" lon="13.1006417"><ele>642.0</ele><time>2026-04-18T08:19:19.064Z</time></trkpt><trkpt lat="43.288285" lon="13.100585"><ele>642.0</ele><time>2026-04-18T08:19:21.064Z</time></trkpt><trkpt lat="43.2881967" lon="13.10053"><ele>642.0</ele><time>2026-04-18T08:19:23.064Z</time></trkpt><trkpt lat="43.288095" lon="13.10045"><ele>642.0</ele><time>2026-04-18T08:19:59.065Z</time></trkpt><trkpt lat="43.2880433" lon="13.1003833"><ele>642.0</ele><time>2026-04-18T08:21:05.064Z</time></trkpt><trkpt lat="43.2879883" lon="13.100305"><ele>639.8000000000001</ele><time>2026-04-18T08:22:02.063Z</time></trkpt><trkpt lat="43.2879017" lon="13.1002367"><ele>637.6</ele><time>2026-04-18T08:22:05.064Z</time></trkpt><trkpt lat="43.2878433" lon="13.1001883"><ele>635.4000000000001</ele><time>2026-04-18T08:22:07.063Z</time></trkpt><trkpt lat="43.28775" lon="13.10013"><ele>633.2</ele><time>2026-04-18T08:22:09.063Z</time></trkpt><trkpt lat="43.2876533" lon="13.1000667"><ele>631.0</ele><time>2026-04-18T08:22:11.064Z</time></trkpt><trkpt lat="43.2875767" lon="13.1000217"><ele>631.0</ele><time>2026-04-18T08:22:13.063Z</time></trkpt><trkpt lat="43.2875033" lon="13.0999683"><ele>631.0</ele><time>2026-04-18T08:22:15.063Z</time></trkpt><trkpt lat="43.2874283" lon="13.0999117"><ele>631.0</ele><time>2026-04-18T08:22:17.063Z</time></trkpt><trkpt lat="43.2873467" lon="13.0998467"><ele>631.0</ele><time>2026-04-18T08:22:19.063Z</time></trkpt><trkpt lat="43.2872567" lon="13.0997717"><ele>631.0</ele><time>2026-04-18T08:22:21.063Z</time></trkpt><trkpt lat="43.2871683" lon="13.099665"><ele>631.4</ele><time>2026-04-18T08:22:23.063Z</time></trkpt><trkpt lat="43.28708" lon="13.09955"><ele>631.8</ele><time>2026-04-18T08:22:25.063Z</time></trkpt><trkpt lat="43.287" lon="13.0994433"><ele>632.1999999999999</ele><time>2026-04-18T08:22:27.063Z</time></trkpt><trkpt lat="43.2869533" lon="13.0993733"><ele>632.6</ele><time>2026-04-18T08:22:28.064Z</time></trkpt><trkpt lat="43.2869117" lon="13.0993017"><ele>633.0</ele><time>2026-04-18T08:22:29.063Z</time></trkpt><trkpt lat="43.2868533" lon="13.09917"><ele>638.8</ele><time>2026-04-18T08:22:31.063Z</time></trkpt><trkpt lat="43.2868" lon="13.0990783"><ele>644.5999999999999</ele><time>2026-04-18T08:22:33.063Z</time></trkpt><trkpt lat="43.28675" lon="13.0989767"><ele>650.4000000000001</ele><time>2026-04-18T08:22:35.063Z</time></trkpt><trkpt lat="43.286685" lon="13.0988733"><ele>656.2</ele><time>2026-04-18T08:22:37.064Z</time></trkpt><trkpt lat="43.2866" lon="13.09878"><ele>662.0</ele><time>2026-04-18T08:22:39.063Z</time></trkpt><trkpt lat="43.28651" lon="13.0986883"><ele>662.0</ele><time>2026-04-18T08:22:41.063Z</time></trkpt><trkpt lat="43.2864433" lon="13.09865"><ele>662.0</ele><time>2026-04-18T08:22:42.063Z</time></trkpt><trkpt lat="43.2863833" lon="13.0986117"><ele>662.0</ele><time>2026-04-18T08:22:43.063Z</time></trkpt><trkpt lat="43.2863183" lon="13.0985733"><ele>662.0</ele><time>2026-04-18T08:22:44.063Z</time></trkpt><trkpt lat="43.2861983" lon="13.0985083"><ele>662.0</ele><time>2026-04-18T08:22:46.063Z</time></trkpt><trkpt lat="43.286085" lon="13.098455"><ele>659.8571428571429</ele><time>2026-04-18T08:22:48.063Z</time></trkpt><trkpt lat="43.286015" lon="13.098435"><ele>657.7142857142857</ele><time>2026-04-18T08:22:49.063Z</time></trkpt><trkpt lat="43.28595" lon="13.0984017"><ele>655.5714285714286</ele><time>2026-04-18T08:22:50.063Z</time></trkpt><trkpt lat="43.2858833" lon="13.098375"><ele>653.4285714285714</ele><time>2026-04-18T08:22:51.063Z</time></trkpt><trkpt lat="43.285815" lon="13.098355"><ele>651.2857142857143</ele><time>2026-04-18T08:22:52.064Z</time></trkpt><trkpt lat="43.2857533" lon="13.098335"><ele>649.1428571428571</ele><time>2026-04-18T08:22:53.063Z</time></trkpt><trkpt lat="43.2856867" lon="13.098305"><ele>647.0</ele><time>2026-04-18T08:22:54.063Z</time></trkpt><trkpt lat="43.2856217" lon="13.09828"><ele>649.5714285714286</ele><time>2026-04-18T08:22:55.063Z</time></trkpt><trkpt lat="43.2855517" lon="13.0982483"><ele>652.1428571428571</ele><time>2026-04-18T08:22:56.064Z</time></trkpt><trkpt lat="43.2854783" lon="13.098225"><ele>654.7142857142858</ele><time>2026-04-18T08:22:57.063Z</time></trkpt><trkpt lat="43.2854117" lon="13.0981867"><ele>657.2857142857142</ele><time>2026-04-18T08:22:58.063Z</time></trkpt><trkpt lat="43.2853483" lon="13.0981567"><ele>659.8571428571429</ele><time>2026-04-18T08:22:59.063Z</time></trkpt><trkpt lat="43.2852833" lon="13.0981267"><ele>662.4285714285714</ele><time>2026-04-18T08:23:00.063Z</time></trkpt><trkpt lat="43.2852133" lon="13.098095"><ele>665.0</ele><time>2026-04-18T08:23:01.063Z</time></trkpt><trkpt lat="43.28515" lon="13.0980567"><ele>665.0</ele><time>2026-04-18T08:23:02.064Z</time></trkpt><trkpt lat="43.2850833" lon="13.098025"><ele>665.0</ele><time>2026-04-18T08:23:03.063Z</time></trkpt><trkpt lat="43.285025" lon="13.09799"><ele>665.0</ele><time>2026-04-18T08:23:04.063Z</time></trkpt><trkpt lat="43.284965" lon="13.0979533"><ele>665.0</ele><time>2026-04-18T08:23:05.063Z</time></trkpt><trkpt lat="43.2849067" lon="13.0979117"><ele>665.0</ele><time>2026-04-18T08:23:06.064Z</time></trkpt><trkpt lat="43.284845" lon="13.0978717"><ele>665.0</ele><time>2026-04-18T08:23:07.063Z</time></trkpt><trkpt lat="43.2847817" lon="13.0978433"><ele>665.0</ele><time>2026-04-18T08:23:08.063Z</time></trkpt><trkpt lat="43.2846617" lon="13.0978067"><ele>665.3333333333333</ele><time>2026-04-18T08:23:10.063Z</time></trkpt><trkpt lat="43.28459" lon="13.0978083"><ele>665.6666666666666</ele><time>2026-04-18T08:23:11.063Z</time></trkpt><trkpt lat="43.2845183" lon="13.0978183"><ele>666.0</ele><time>2026-04-18T08:23:12.063Z</time></trkpt><trkpt lat="43.2844467" lon="13.0978317"><ele>666.3333333333334</ele><time>2026-04-18T08:23:13.063Z</time></trkpt><trkpt lat="43.28432" lon="13.0978583"><ele>666.6666666666667</ele><time>2026-04-18T08:23:15.063Z</time></trkpt><trkpt lat="43.2842533" lon="13.09789"><ele>667.0</ele><time>2026-04-18T08:23:16.063Z</time></trkpt><trkpt lat="43.2841867" lon="13.0979267"><ele>667.0</ele><time>2026-04-18T08:23:17.063Z</time></trkpt><trkpt lat="43.2841217" lon="13.0979733"><ele>667.0</ele><time>2026-04-18T08:23:18.064Z</time></trkpt><trkpt lat="43.2840567" lon="13.0980317"><ele>667.0</ele><time>2026-04-18T08:23:19.063Z</time></trkpt><trkpt lat="43.2839967" lon="13.09809"><ele>667.0</ele><time>2026-04-18T08:23:20.063Z</time></trkpt><trkpt lat="43.2839567" lon="13.0981617"><ele>667.0</ele><time>2026-04-18T08:23:21.063Z</time></trkpt><trkpt lat="43.2838967" lon="13.0983133"><ele>667.0</ele><time>2026-04-18T08:23:23.063Z</time></trkpt><trkpt lat="43.2838083" lon="13.0984167"><ele>663.5</ele><time>2026-04-18T08:23:25.063Z</time></trkpt><trkpt lat="43.2836917" lon="13.0984833"><ele>660.0</ele><time>2026-04-18T08:23:27.063Z</time></trkpt><trkpt lat="43.2835717" lon="13.0985017"><ele>656.5</ele><time>2026-04-18T08:23:29.063Z</time></trkpt><trkpt lat="43.2835033" lon="13.0985017"><ele>653.0</ele><time>2026-04-18T08:23:30.063Z</time></trkpt><trkpt lat="43.2834367" lon="13.0985"><ele>649.5</ele><time>2026-04-18T08:23:31.063Z</time></trkpt><trkpt lat="43.2833717" lon="13.0985033"><ele>646.0</ele><time>2026-04-18T08:23:32.063Z</time></trkpt><trkpt lat="43.283255" lon="13.0984817"><ele>646.0</ele><time>2026-04-18T08:23:34.063Z</time></trkpt><trkpt lat="43.2831917" lon="13.0984783"><ele>646.0</ele><time>2026-04-18T08:23:35.063Z</time></trkpt><trkpt lat="43.2830767" lon="13.0984933"><ele>646.0</ele><time>2026-04-18T08:23:37.064Z</time></trkpt><trkpt lat="43.2829583" lon="13.098525"><ele>646.0</ele><time>2026-04-18T08:23:39.064Z</time></trkpt><trkpt lat="43.282835" lon="13.0985933"><ele>646.0</ele><time>2026-04-18T08:23:41.063Z</time></trkpt><trkpt lat="43.2827767" lon="13.0986333"><ele>646.4</ele><time>2026-04-18T08:23:42.063Z</time></trkpt><trkpt lat="43.2826683" lon="13.0986967"><ele>646.8</ele><time>2026-04-18T08:23:44.063Z</time></trkpt><trkpt lat="43.2825667" lon="13.098725"><ele>647.1999999999999</ele><time>2026-04-18T08:23:46.063Z</time></trkpt><trkpt lat="43.2824783" lon="13.0987417"><ele>647.5999999999999</ele><time>2026-04-18T08:23:48.063Z</time></trkpt><trkpt lat="43.28238" lon="13.0987317"><ele>648.0</ele><time>2026-04-18T08:23:50.063Z</time></trkpt><trkpt lat="43.2822883" lon="13.0986967"><ele>645.1666666666666</ele><time>2026-04-18T08:23:52.063Z</time></trkpt><trkpt lat="43.2822117" lon="13.0986517"><ele>642.3333333333334</ele><time>2026-04-18T08:23:54.063Z</time></trkpt><trkpt lat="43.28213" lon="13.0986217"><ele>639.5</ele><time>2026-04-18T08:23:56.063Z</time></trkpt><trkpt lat="43.28207" lon="13.0985917"><ele>636.6666666666667</ele><time>2026-04-18T08:23:58.063Z</time></trkpt><trkpt lat="43.2819933" lon="13.09856"><ele>633.8333333333334</ele><time>2026-04-18T08:24:01.063Z</time></trkpt><trkpt lat="43.281925" lon="13.09853"><ele>631.0</ele><time>2026-04-18T08:24:04.064Z</time></trkpt><trkpt lat="43.28201" lon="13.09855"><ele>631.0</ele><time>2026-04-18T08:24:57.063Z</time></trkpt><trkpt lat="43.282075" lon="13.0985717"><ele>631.0</ele><time>2026-04-18T08:24:59.063Z</time></trkpt><trkpt lat="43.2821367" lon="13.0985917"><ele>631.0</ele><time>2026-04-18T08:25:08.063Z</time></trkpt><trkpt lat="43.28222" lon="13.0986217"><ele>631.0</ele><time>2026-04-18T08:25:14.063Z</time></trkpt><trkpt lat="43.2822917" lon="13.0986667"><ele>631.0</ele><time>2026-04-18T08:25:16.063Z</time></trkpt><trkpt lat="43.282375" lon="13.0987067"><ele>631.0</ele><time>2026-04-18T08:25:18.064Z</time></trkpt><trkpt lat="43.2824617" lon="13.09872"><ele>634.4</ele><time>2026-04-18T08:25:20.063Z</time></trkpt><trkpt lat="43.2825417" lon="13.0987017"><ele>637.8</ele><time>2026-04-18T08:25:22.063Z</time></trkpt><trkpt lat="43.282635" lon="13.0986583"><ele>641.1999999999999</ele><time>2026-04-18T08:25:24.063Z</time></trkpt><trkpt lat="43.2827133" lon="13.0986017"><ele>644.6</ele><time>2026-04-18T08:25:26.063Z</time></trkpt><trkpt lat="43.282805" lon="13.0985533"><ele>648.0</ele><time>2026-04-18T08:25:29.063Z</time></trkpt><trkpt lat="43.28289" lon="13.0984983"><ele>648.0</ele><time>2026-04-18T08:25:31.064Z</time></trkpt><trkpt lat="43.2829733" lon="13.0984633"><ele>648.0</ele><time>2026-04-18T08:25:33.063Z</time></trkpt><trkpt lat="43.2830617" lon="13.098445"><ele>648.0</ele><time>2026-04-18T08:25:35.063Z</time></trkpt><trkpt lat="43.2831333" lon="13.0984433"><ele>648.0</ele><time>2026-04-18T08:25:37.063Z</time></trkpt><trkpt lat="43.2832133" lon="13.098435"><ele>648.0</ele><time>2026-04-18T08:25:39.063Z</time></trkpt><trkpt lat="43.2832833" lon="13.0984333"><ele>648.0</ele><time>2026-04-18T08:25:41.063Z</time></trkpt><trkpt lat="43.283375" lon="13.09845"><ele>647.6666666666666</ele><time>2026-04-18T08:25:44.063Z</time></trkpt><trkpt lat="43.2834517" lon="13.0984567"><ele>647.3333333333334</ele><time>2026-04-18T08:25:46.064Z</time></trkpt><trkpt lat="43.2835233" lon="13.09845"><ele>647.0</ele><time>2026-04-18T08:25:49.063Z</time></trkpt><trkpt lat="43.2836033" lon="13.0984483"><ele>646.6666666666667</ele><time>2026-04-18T08:25:53.063Z</time></trkpt><trkpt lat="43.28367" lon="13.0984267"><ele>646.3333333333334</ele><time>2026-04-18T08:25:55.063Z</time></trkpt><trkpt lat="43.2837517" lon="13.098365"><ele>646.0</ele><time>2026-04-18T08:25:57.063Z</time></trkpt><trkpt lat="43.2838383" lon="13.098275"><ele>651.25</ele><time>2026-04-18T08:25:59.062Z</time></trkpt><trkpt lat="43.28392" lon="13.098155"><ele>656.5</ele><time>2026-04-18T08:26:01.062Z</time></trkpt><trkpt lat="43.2839983" lon="13.09804"><ele>661.75</ele><time>2026-04-18T08:26:03.062Z</time></trkpt><trkpt lat="43.2840917" lon="13.09794"><ele>667.0</ele><time>2026-04-18T08:26:05.062Z</time></trkpt><trkpt lat="43.2841967" lon="13.0978533"><ele>667.0</ele><time>2026-04-18T08:26:07.062Z</time></trkpt><trkpt lat="43.2842583" lon="13.0978183"><ele>667.0</ele><time>2026-04-18T08:26:08.062Z</time></trkpt><trkpt lat="43.2843217" lon="13.097785"><ele>667.0</ele><time>2026-04-18T08:26:09.062Z</time></trkpt><trkpt lat="43.2844" lon="13.0977533"><ele>667.0</ele><time>2026-04-18T08:26:10.062Z</time></trkpt><trkpt lat="43.2844733" lon="13.097735"><ele>667.0</ele><time>2026-04-18T08:26:11.062Z</time></trkpt><trkpt lat="43.284555" lon="13.0977317"><ele>667.0</ele><time>2026-04-18T08:26:12.062Z</time></trkpt><trkpt lat="43.2846367" lon="13.0977333"><ele>667.0000000000001</ele><time>2026-04-18T08:26:13.063Z</time></trkpt><trkpt lat="43.2847133" lon="13.0977467"><ele>667.0</ele><time>2026-04-18T08:26:14.062Z</time></trkpt><trkpt lat="43.284785" lon="13.09777"><ele>667.0</ele><time>2026-04-18T08:26:15.062Z</time></trkpt><trkpt lat="43.28485" lon="13.097795"><ele>667.0</ele><time>2026-04-18T08:26:16.062Z</time></trkpt><trkpt lat="43.2849117" lon="13.0978283"><ele>667.0</ele><time>2026-04-18T08:26:17.062Z</time></trkpt><trkpt lat="43.2849767" lon="13.0978667"><ele>667.0000000000001</ele><time>2026-04-18T08:26:18.062Z</time></trkpt><trkpt lat="43.2850533" lon="13.097915"><ele>667.0</ele><time>2026-04-18T08:26:19.062Z</time></trkpt><trkpt lat="43.2851333" lon="13.097965"><ele>666.6</ele><time>2026-04-18T08:26:20.063Z</time></trkpt><trkpt lat="43.2852267" lon="13.0980033"><ele>666.2</ele><time>2026-04-18T08:26:21.062Z</time></trkpt><trkpt lat="43.2853217" lon="13.0980467"><ele>665.8</ele><time>2026-04-18T08:26:22.062Z</time></trkpt><trkpt lat="43.2854167" lon="13.0980917"><ele>665.4</ele><time>2026-04-18T08:26:23.063Z</time></trkpt><trkpt lat="43.285505" lon="13.0981367"><ele>665.0</ele><time>2026-04-18T08:26:24.062Z</time></trkpt><trkpt lat="43.285595" lon="13.0981783"><ele>661.4</ele><time>2026-04-18T08:26:25.062Z</time></trkpt><trkpt lat="43.2856883" lon="13.09822"><ele>657.8</ele><time>2026-04-18T08:26:26.062Z</time></trkpt><trkpt lat="43.2857833" lon="13.09826"><ele>654.2</ele><time>2026-04-18T08:26:27.062Z</time></trkpt><trkpt lat="43.285875" lon="13.0982933"><ele>650.6</ele><time>2026-04-18T08:26:28.062Z</time></trkpt><trkpt lat="43.2859617" lon="13.0983217"><ele>647.0</ele><time>2026-04-18T08:26:29.062Z</time></trkpt><trkpt lat="43.2860417" lon="13.09835"><ele>647.0</ele><time>2026-04-18T08:26:30.062Z</time></trkpt><trkpt lat="43.2861233" lon="13.098375"><ele>647.0</ele><time>2026-04-18T08:26:31.062Z</time></trkpt><trkpt lat="43.2862033" lon="13.0984033"><ele>647.0</ele><time>2026-04-18T08:26:32.062Z</time></trkpt><trkpt lat="43.2862817" lon="13.0984317"><ele>647.0</ele><time>2026-04-18T08:26:33.062Z</time></trkpt><trkpt lat="43.2863483" lon="13.098465"><ele>647.0</ele><time>2026-04-18T08:26:34.062Z</time></trkpt><trkpt lat="43.28641" lon="13.0985"><ele>647.0</ele><time>2026-04-18T08:26:35.062Z</time></trkpt><trkpt lat="43.286465" lon="13.0985483"><ele>649.5</ele><time>2026-04-18T08:26:36.062Z</time></trkpt><trkpt lat="43.286525" lon="13.0985817"><ele>652.0</ele><time>2026-04-18T08:26:37.062Z</time></trkpt><trkpt lat="43.28663" lon="13.0986783"><ele>654.5</ele><time>2026-04-18T08:26:39.062Z</time></trkpt><trkpt lat="43.28668" lon="13.09874"><ele>657.0</ele><time>2026-04-18T08:26:40.062Z</time></trkpt><trkpt lat="43.2867233" lon="13.0988133"><ele>659.5</ele><time>2026-04-18T08:26:41.062Z</time></trkpt><trkpt lat="43.2867733" lon="13.0989017"><ele>662.0</ele><time>2026-04-18T08:26:42.062Z</time></trkpt><trkpt lat="43.2868217" lon="13.098995"><ele>662.0</ele><time>2026-04-18T08:26:43.062Z</time></trkpt><trkpt lat="43.28687" lon="13.0990833"><ele>662.0</ele><time>2026-04-18T08:26:44.062Z</time></trkpt><trkpt lat="43.2869133" lon="13.0991583"><ele>662.0</ele><time>2026-04-18T08:26:45.063Z</time></trkpt><trkpt lat="43.286955" lon="13.0992317"><ele>662.0</ele><time>2026-04-18T08:26:46.062Z</time></trkpt><trkpt lat="43.28701" lon="13.0993083"><ele>662.0</ele><time>2026-04-18T08:26:47.062Z</time></trkpt><trkpt lat="43.28706" lon="13.09938"><ele>662.0</ele><time>2026-04-18T08:26:48.062Z</time></trkpt><trkpt lat="43.2871483" lon="13.0995133"><ele>661.0</ele><time>2026-04-18T08:26:50.062Z</time></trkpt><trkpt lat="43.2872417" lon="13.09963"><ele>660.0</ele><time>2026-04-18T08:26:52.062Z</time></trkpt><trkpt lat="43.2872983" lon="13.0996767"><ele>659.0</ele><time>2026-04-18T08:26:53.062Z</time></trkpt><trkpt lat="43.2873967" lon="13.0997683"><ele>658.0</ele><time>2026-04-18T08:26:55.062Z</time></trkpt><trkpt lat="43.2875117" lon="13.0998467"><ele>657.0</ele><time>2026-04-18T08:26:57.062Z</time></trkpt><trkpt lat="43.2875767" lon="13.0998817"><ele>657.0</ele><time>2026-04-18T08:26:58.062Z</time></trkpt><trkpt lat="43.28764" lon="13.09991"><ele>657.0</ele><time>2026-04-18T08:26:59.062Z</time></trkpt><trkpt lat="43.287715" lon="13.099955"><ele>657.0</ele><time>2026-04-18T08:27:00.063Z</time></trkpt><trkpt lat="43.287775" lon="13.09999"><ele>657.0</ele><time>2026-04-18T08:27:01.062Z</time></trkpt><trkpt lat="43.2878383" lon="13.10005"><ele>657.0</ele><time>2026-04-18T08:27:02.062Z</time></trkpt><trkpt lat="43.2879317" lon="13.100155"><ele>657.0</ele><time>2026-04-18T08:27:04.062Z</time></trkpt><trkpt lat="43.2879983" lon="13.100215"><ele>654.5</ele><time>2026-04-18T08:27:06.062Z</time></trkpt><trkpt lat="43.28805" lon="13.100275"><ele>652.0</ele><time>2026-04-18T08:27:08.062Z</time></trkpt><trkpt lat="43.288085" lon="13.1004017"><ele>649.5</ele><time>2026-04-18T08:28:19.062Z</time></trkpt><trkpt lat="43.28814" lon="13.1004517"><ele>647.0</ele><time>2026-04-18T08:29:10.062Z</time></trkpt><trkpt lat="43.2882" lon="13.1005167"><ele>644.5</ele><time>2026-04-18T08:29:13.062Z</time></trkpt><trkpt lat="43.2882717" lon="13.10056"><ele>642.0</ele><time>2026-04-18T08:29:15.062Z</time></trkpt><trkpt lat="43.28835" lon="13.100605"><ele>641.9999999999999</ele><time>2026-04-18T08:29:17.062Z</time></trkpt><trkpt lat="43.28844" lon="13.1006617"><ele>642.0</ele><time>2026-04-18T08:29:19.062Z</time></trkpt><trkpt lat="43.2885067" lon="13.1006667"><ele>642.0</ele><time>2026-04-18T08:29:21.063Z</time></trkpt><trkpt lat="43.2885683" lon="13.100625"><ele>642.0</ele><time>2026-04-18T08:29:23.062Z</time></trkpt><trkpt lat="43.288615" lon="13.1005517"><ele>642.0</ele><time>2026-04-18T08:29:25.063Z</time></trkpt><trkpt lat="43.2886283" lon="13.1004583"><ele>641.9999999999999</ele><time>2026-04-18T08:29:27.062Z</time></trkpt><trkpt lat="43.288615" lon="13.1003633"><ele>642.0</ele><time>2026-04-18T08:29:29.062Z</time></trkpt><trkpt lat="43.28858" lon="13.1002517"><ele>642.0</ele><time>2026-04-18T08:29:31.062Z</time></trkpt><trkpt lat="43.28854" lon="13.1001"><ele>642.0</ele><time>2026-04-18T08:29:33.062Z</time></trkpt><trkpt lat="43.2884983" lon="13.09997"><ele>642.0</ele><time>2026-04-18T08:29:35.062Z</time></trkpt><trkpt lat="43.2884317" lon="13.0997567"><ele>642.0</ele><time>2026-04-18T08:29:38.062Z</time></trkpt><trkpt lat="43.2883833" lon="13.0996033"><ele>643.5714285714286</ele><time>2026-04-18T08:29:40.062Z</time></trkpt><trkpt lat="43.2883517" lon="13.0995167"><ele>645.1428571428571</ele><time>2026-04-18T08:29:41.062Z</time></trkpt><trkpt lat="43.2883217" lon="13.09942"><ele>646.7142857142858</ele><time>2026-04-18T08:29:42.062Z</time></trkpt><trkpt lat="43.288295" lon="13.0993233"><ele>648.2857142857142</ele><time>2026-04-18T08:29:43.062Z</time></trkpt><trkpt lat="43.28827" lon="13.09922"><ele>649.8571428571429</ele><time>2026-04-18T08:29:44.062Z</time></trkpt><trkpt lat="43.288245" lon="13.0991233"><ele>651.4285714285714</ele><time>2026-04-18T08:29:45.062Z</time></trkpt><trkpt lat="43.2882267" lon="13.0990283"><ele>653.0</ele><time>2026-04-18T08:29:46.062Z</time></trkpt><trkpt lat="43.288205" lon="13.0989283"><ele>654.0</ele><time>2026-04-18T08:29:47.063Z</time></trkpt><trkpt lat="43.2881833" lon="13.0988383"><ele>655.0</ele><time>2026-04-18T08:29:48.062Z</time></trkpt><trkpt lat="43.2881633" lon="13.0987433"><ele>656.0</ele><time>2026-04-18T08:29:49.062Z</time></trkpt><trkpt lat="43.2881383" lon="13.0986367"><ele>657.0</ele><time>2026-04-18T08:29:50.062Z</time></trkpt><trkpt lat="43.2881167" lon="13.09853"><ele>658.0</ele><time>2026-04-18T08:29:51.062Z</time></trkpt><trkpt lat="43.2880983" lon="13.0984233"><ele>659.0</ele><time>2026-04-18T08:29:52.062Z</time></trkpt><trkpt lat="43.28808" lon="13.0983117"><ele>664.6666666666666</ele><time>2026-04-18T08:29:53.062Z</time></trkpt><trkpt lat="43.2880633" lon="13.0981917"><ele>670.3333333333333</ele><time>2026-04-18T08:29:54.062Z</time></trkpt><trkpt lat="43.288045" lon="13.0980817"><ele>676.0</ele><time>2026-04-18T08:29:55.062Z</time></trkpt><trkpt lat="43.2880317" lon="13.0979617"><ele>681.6666666666666</ele><time>2026-04-18T08:29:56.062Z</time></trkpt><trkpt lat="43.2880233" lon="13.09784"><ele>687.3333333333334</ele><time>2026-04-18T08:29:57.063Z</time></trkpt><trkpt lat="43.2880217" lon="13.0977283"><ele>693.0</ele><time>2026-04-18T08:29:58.063Z</time></trkpt><trkpt lat="43.2880083" lon="13.0976183"><ele>693.0</ele><time>2026-04-18T08:29:59.062Z</time></trkpt><trkpt lat="43.2880117" lon="13.0975033"><ele>693.0</ele><time>2026-04-18T08:30:00.062Z</time></trkpt><trkpt lat="43.2880117" lon="13.0973867"><ele>693.0</ele><time>2026-04-18T08:30:01.062Z</time></trkpt><trkpt lat="43.2880067" lon="13.0972733"><ele>693.0</ele><time>2026-04-18T08:30:02.062Z</time></trkpt><trkpt lat="43.2879983" lon="13.0971633"><ele>693.0</ele><time>2026-04-18T08:30:03.063Z</time></trkpt><trkpt lat="43.287995" lon="13.0970533"><ele>693.0</ele><time>2026-04-18T08:30:04.062Z</time></trkpt><trkpt lat="43.2879917" lon="13.0969433"><ele>695.0</ele><time>2026-04-18T08:30:05.062Z</time></trkpt><trkpt lat="43.2879967" lon="13.0968383"><ele>697.0</ele><time>2026-04-18T08:30:06.062Z</time></trkpt><trkpt lat="43.2879933" lon="13.096735"><ele>699.0</ele><time>2026-04-18T08:30:07.062Z</time></trkpt><trkpt lat="43.2879867" lon="13.096635"><ele>701.0</ele><time>2026-04-18T08:30:08.062Z</time></trkpt><trkpt lat="43.2879717" lon="13.096545"><ele>703.0</ele><time>2026-04-18T08:30:09.062Z</time></trkpt><trkpt lat="43.2879483" lon="13.0964633"><ele>705.0</ele><time>2026-04-18T08:30:10.063Z</time></trkpt><trkpt lat="43.287925" lon="13.09638"><ele>707.0</ele><time>2026-04-18T08:30:11.062Z</time></trkpt><trkpt lat="43.2878867" lon="13.0962917"><ele>707.7142857142857</ele><time>2026-04-18T08:30:12.063Z</time></trkpt><trkpt lat="43.287845" lon="13.0961983"><ele>708.4285714285714</ele><time>2026-04-18T08:30:13.062Z</time></trkpt><trkpt lat="43.2878083" lon="13.09611"><ele>709.1428571428571</ele><time>2026-04-18T08:30:14.062Z</time></trkpt><trkpt lat="43.2877817" lon="13.0960167"><ele>709.8571428571429</ele><time>2026-04-18T08:30:15.062Z</time></trkpt><trkpt lat="43.28775" lon="13.0959317"><ele>710.5714285714286</ele><time>2026-04-18T08:30:16.062Z</time></trkpt><trkpt lat="43.28773" lon="13.095835"><ele>711.2857142857142</ele><time>2026-04-18T08:30:17.063Z</time></trkpt><trkpt lat="43.2877233" lon="13.0957333"><ele>712.0</ele><time>2026-04-18T08:30:18.062Z</time></trkpt><trkpt lat="43.2877233" lon="13.09562"><ele>712.6</ele><time>2026-04-18T08:30:19.061Z</time></trkpt><trkpt lat="43.2877167" lon="13.095495"><ele>713.2</ele><time>2026-04-18T08:30:20.061Z</time></trkpt><trkpt lat="43.287715" lon="13.09538"><ele>713.8</ele><time>2026-04-18T08:30:21.061Z</time></trkpt><trkpt lat="43.28772" lon="13.0952533"><ele>714.4</ele><time>2026-04-18T08:30:22.061Z</time></trkpt><trkpt lat="43.2877283" lon="13.0951183"><ele>715.0</ele><time>2026-04-18T08:30:23.061Z</time></trkpt><trkpt lat="43.2877433" lon="13.0949783"><ele>717.6666666666667</ele><time>2026-04-18T08:30:24.061Z</time></trkpt><trkpt lat="43.287765" lon="13.0948667"><ele>720.3333333333334</ele><time>2026-04-18T08:30:25.061Z</time></trkpt><trkpt lat="43.2877983" lon="13.0947633"><ele>723.0</ele><time>2026-04-18T08:30:26.061Z</time></trkpt><trkpt lat="43.2878317" lon="13.0946517"><ele>725.6666666666666</ele><time>2026-04-18T08:30:27.061Z</time></trkpt><trkpt lat="43.2878683" lon="13.0945533"><ele>728.3333333333333</ele><time>2026-04-18T08:30:28.061Z</time></trkpt><trkpt lat="43.28791" lon="13.0944633"><ele>731.0</ele><time>2026-04-18T08:30:29.061Z</time></trkpt><trkpt lat="43.2879567" lon="13.0943817"><ele>731.0</ele><time>2026-04-18T08:30:30.062Z</time></trkpt><trkpt lat="43.2880117" lon="13.09431"><ele>731.0</ele><time>2026-04-18T08:30:31.062Z</time></trkpt><trkpt lat="43.28807" lon="13.09425"><ele>731.0</ele><time>2026-04-18T08:30:32.061Z</time></trkpt><trkpt lat="43.2881483" lon="13.0941467"><ele>731.0</ele><time>2026-04-18T08:30:34.061Z</time></trkpt><trkpt lat="43.28815" lon="13.094045"><ele>731.0</ele><time>2026-04-18T08:30:36.061Z</time></trkpt><trkpt lat="43.2880933" lon="13.093965"><ele>731.0</ele><time>2026-04-18T08:30:38.061Z</time></trkpt><trkpt lat="43.2879933" lon="13.093965"><ele>731.0</ele><time>2026-04-18T08:30:40.061Z</time></trkpt><trkpt lat="43.2878817" lon="13.09404"><ele>731.0</ele><time>2026-04-18T08:30:42.061Z</time></trkpt><trkpt lat="43.2878283" lon="13.0941017"><ele>731.0</ele><time>2026-04-18T08:30:43.061Z</time></trkpt><trkpt lat="43.2877783" lon="13.094175"><ele>731.0</ele><time>2026-04-18T08:30:44.061Z</time></trkpt><trkpt lat="43.2877183" lon="13.0942483"><ele>731.0</ele><time>2026-04-18T08:30:45.061Z</time></trkpt><trkpt lat="43.2876517" lon="13.09431"><ele>731.0</ele><time>2026-04-18T08:30:46.061Z</time></trkpt><trkpt lat="43.287585" lon="13.094365"><ele>731.0</ele><time>2026-04-18T08:30:47.061Z</time></trkpt><trkpt lat="43.28752" lon="13.0944183"><ele>731.0</ele><time>2026-04-18T08:30:48.061Z</time></trkpt><trkpt lat="43.2874667" lon="13.0944817"><ele>731.0</ele><time>2026-04-18T08:30:49.061Z</time></trkpt><trkpt lat="43.2874233" lon="13.094555"><ele>731.0</ele><time>2026-04-18T08:30:50.062Z</time></trkpt><trkpt lat="43.28739" lon="13.0946467"><ele>731.0</ele><time>2026-04-18T08:30:51.061Z</time></trkpt><trkpt lat="43.2873567" lon="13.0947467"><ele>731.0</ele><time>2026-04-18T08:30:52.061Z</time></trkpt><trkpt lat="43.2873333" lon="13.094835"><ele>731.0</ele><time>2026-04-18T08:30:53.061Z</time></trkpt><trkpt lat="43.2873067" lon="13.094925"><ele>728.3333333333333</ele><time>2026-04-18T08:30:54.061Z</time></trkpt><trkpt lat="43.287285" lon="13.09502"><ele>725.6666666666666</ele><time>2026-04-18T08:30:55.061Z</time></trkpt><trkpt lat="43.2872617" lon="13.0951167"><ele>723.0</ele><time>2026-04-18T08:30:56.062Z</time></trkpt><trkpt lat="43.2872267" lon="13.095215"><ele>720.3333333333334</ele><time>2026-04-18T08:30:57.061Z</time></trkpt><trkpt lat="43.2872" lon="13.0953233"><ele>717.6666666666667</ele><time>2026-04-18T08:30:58.061Z</time></trkpt><trkpt lat="43.28717" lon="13.0954233"><ele>715.0</ele><time>2026-04-18T08:30:59.061Z</time></trkpt><trkpt lat="43.287135" lon="13.0955367"><ele>720.5</ele><time>2026-04-18T08:31:00.061Z</time></trkpt><trkpt lat="43.2871" lon="13.0956467"><ele>726.0</ele><time>2026-04-18T08:31:01.061Z</time></trkpt><trkpt lat="43.2870667" lon="13.0957483"><ele>731.5</ele><time>2026-04-18T08:31:02.061Z</time></trkpt><trkpt lat="43.2870317" lon="13.0958433"><ele>737.0</ele><time>2026-04-18T08:31:03.062Z</time></trkpt><trkpt lat="43.2869983" lon="13.0959317"><ele>742.5</ele><time>2026-04-18T08:31:04.061Z</time></trkpt><trkpt lat="43.28696" lon="13.0960133"><ele>748.0</ele><time>2026-04-18T08:31:05.061Z</time></trkpt><trkpt lat="43.2869133" lon="13.0960883"><ele>748.0</ele><time>2026-04-18T08:31:06.061Z</time></trkpt><trkpt lat="43.28686" lon="13.096155"><ele>748.0</ele><time>2026-04-18T08:31:07.061Z</time></trkpt><trkpt lat="43.2868033" lon="13.096215"><ele>748.0</ele><time>2026-04-18T08:31:08.061Z</time></trkpt><trkpt lat="43.2867417" lon="13.0962683"><ele>748.0</ele><time>2026-04-18T08:31:09.062Z</time></trkpt><trkpt lat="43.28668" lon="13.0963133"><ele>748.0</ele><time>2026-04-18T08:31:10.061Z</time></trkpt><trkpt lat="43.2866167" lon="13.0963467"><ele>748.0</ele><time>2026-04-18T08:31:11.061Z</time></trkpt><trkpt lat="43.286545" lon="13.0963733"><ele>748.0</ele><time>2026-04-18T08:31:12.061Z</time></trkpt><trkpt lat="43.28647" lon="13.096385"><ele>749.5</ele><time>2026-04-18T08:31:13.061Z</time></trkpt><trkpt lat="43.2863867" lon="13.096375"><ele>751.0</ele><time>2026-04-18T08:31:14.061Z</time></trkpt><trkpt lat="43.2863083" lon="13.0963567"><ele>752.5</ele><time>2026-04-18T08:31:15.061Z</time></trkpt><trkpt lat="43.2862383" lon="13.0963383"><ele>754.0</ele><time>2026-04-18T08:31:16.061Z</time></trkpt><trkpt lat="43.286175" lon="13.0963083"><ele>755.5</ele><time>2026-04-18T08:31:17.061Z</time></trkpt><trkpt lat="43.286055" lon="13.0962517"><ele>757.0</ele><time>2026-04-18T08:31:19.061Z</time></trkpt><trkpt lat="43.286" lon="13.0962083"><ele>757.0</ele><time>2026-04-18T08:31:20.061Z</time></trkpt><trkpt lat="43.285935" lon="13.0961783"><ele>757.0</ele><time>2026-04-18T08:31:21.061Z</time></trkpt><trkpt lat="43.285865" lon="13.0961317"><ele>757.0</ele><time>2026-04-18T08:31:22.061Z</time></trkpt><trkpt lat="43.2858017" lon="13.0960883"><ele>757.0</ele><time>2026-04-18T08:31:23.061Z</time></trkpt><trkpt lat="43.2857383" lon="13.096045"><ele>757.0</ele><time>2026-04-18T08:31:24.061Z</time></trkpt><trkpt lat="43.2856717" lon="13.0959933"><ele>757.0</ele><time>2026-04-18T08:31:25.061Z</time></trkpt><trkpt lat="43.285605" lon="13.0959383"><ele>757.0</ele><time>2026-04-18T08:31:26.061Z</time></trkpt><trkpt lat="43.2855467" lon="13.0958983"><ele>754.4285714285714</ele><time>2026-04-18T08:31:27.061Z</time></trkpt><trkpt lat="43.28549" lon="13.09584"><ele>751.8571428571428</ele><time>2026-04-18T08:31:28.061Z</time></trkpt><trkpt lat="43.2854317" lon="13.0957767"><ele>749.2857142857142</ele><time>2026-04-18T08:31:29.061Z</time></trkpt><trkpt lat="43.2853733" lon="13.0957233"><ele>746.7142857142858</ele><time>2026-04-18T08:31:30.061Z</time></trkpt><trkpt lat="43.2853133" lon="13.0956633"><ele>744.1428571428571</ele><time>2026-04-18T08:31:31.061Z</time></trkpt><trkpt lat="43.2852567" lon="13.0955967"><ele>741.5714285714286</ele><time>2026-04-18T08:31:32.061Z</time></trkpt><trkpt lat="43.2852" lon="13.095525"><ele>739.0</ele><time>2026-04-18T08:31:33.061Z</time></trkpt><trkpt lat="43.285135" lon="13.0954633"><ele>745.0</ele><time>2026-04-18T08:31:34.062Z</time></trkpt><trkpt lat="43.2850667" lon="13.0954117"><ele>751.0</ele><time>2026-04-18T08:31:35.061Z</time></trkpt><trkpt lat="43.284995" lon="13.0953517"><ele>757.0</ele><time>2026-04-18T08:31:36.062Z</time></trkpt><trkpt lat="43.2849267" lon="13.095295"><ele>763.0</ele><time>2026-04-18T08:31:37.061Z</time></trkpt><trkpt lat="43.28486" lon="13.0952333"><ele>768.9999999999999</ele><time>2026-04-18T08:31:38.061Z</time></trkpt><trkpt lat="43.284795" lon="13.0951867"><ele>775.0</ele><time>2026-04-18T08:31:39.061Z</time></trkpt><trkpt lat="43.284735" lon="13.0951533"><ele>774.9999999999999</ele><time>2026-04-18T08:31:40.061Z</time></trkpt><trkpt lat="43.28467" lon="13.0951367"><ele>775.0</ele><time>2026-04-18T08:31:41.061Z</time></trkpt><trkpt lat="43.2846067" lon="13.0951283"><ele>775.0</ele><time>2026-04-18T08:31:42.062Z</time></trkpt><trkpt lat="43.28454" lon="13.0951383"><ele>775.0</ele><time>2026-04-18T08:31:43.061Z</time></trkpt><trkpt lat="43.284415" lon="13.09516"><ele>774.9999999999999</ele><time>2026-04-18T08:31:45.061Z</time></trkpt><trkpt lat="43.2843467" lon="13.0951833"><ele>775.0</ele><time>2026-04-18T08:31:46.061Z</time></trkpt><trkpt lat="43.2842767" lon="13.0951983"><ele>775.0</ele><time>2026-04-18T08:31:47.061Z</time></trkpt><trkpt lat="43.28421" lon="13.09523"><ele>775.0</ele><time>2026-04-18T08:31:48.061Z</time></trkpt><trkpt lat="43.284095" lon="13.09524"><ele>775.0</ele><time>2026-04-18T08:31:50.061Z</time></trkpt><trkpt lat="43.2839833" lon="13.0952117"><ele>775.0</ele><time>2026-04-18T08:31:52.061Z</time></trkpt><trkpt lat="43.2838517" lon="13.0951717"><ele>775.0</ele><time>2026-04-18T08:31:54.062Z</time></trkpt><trkpt lat="43.2837733" lon="13.0951433"><ele>774.8333333333333</ele><time>2026-04-18T08:31:55.061Z</time></trkpt><trkpt lat="43.2836933" lon="13.0951017"><ele>774.6666666666666</ele><time>2026-04-18T08:31:56.061Z</time></trkpt><trkpt lat="43.2836183" lon="13.095055"><ele>774.5</ele><time>2026-04-18T08:31:57.061Z</time></trkpt><trkpt lat="43.2835417" lon="13.0950133"><ele>774.3333333333333</ele><time>2026-04-18T08:31:58.061Z</time></trkpt><trkpt lat="43.2834683" lon="13.0949667"><ele>774.1666666666666</ele><time>2026-04-18T08:31:59.061Z</time></trkpt><trkpt lat="43.2833983" lon="13.094925"><ele>774.0</ele><time>2026-04-18T08:32:00.061Z</time></trkpt><trkpt lat="43.28334" lon="13.0948783"><ele>775.1666666666666</ele><time>2026-04-18T08:32:01.061Z</time></trkpt><trkpt lat="43.2832717" lon="13.094825"><ele>776.3333333333333</ele><time>2026-04-18T08:32:02.061Z</time></trkpt><trkpt lat="43.2832133" lon="13.09476"><ele>777.5</ele><time>2026-04-18T08:32:03.061Z</time></trkpt><trkpt lat="43.2831567" lon="13.0946883"><ele>778.6666666666666</ele><time>2026-04-18T08:32:04.061Z</time></trkpt><trkpt lat="43.2831033" lon="13.094615"><ele>779.8333333333333</ele><time>2026-04-18T08:32:05.061Z</time></trkpt><trkpt lat="43.2830467" lon="13.09454"><ele>781.0</ele><time>2026-04-18T08:32:06.061Z</time></trkpt><trkpt lat="43.282985" lon="13.094465"><ele>780.9999999999999</ele><time>2026-04-18T08:32:07.061Z</time></trkpt><trkpt lat="43.282925" lon="13.0943883"><ele>781.0</ele><time>2026-04-18T08:32:08.061Z</time></trkpt><trkpt lat="43.2828617" lon="13.0943183"><ele>781.0</ele><time>2026-04-18T08:32:09.061Z</time></trkpt><trkpt lat="43.2827983" lon="13.0942467"><ele>781.0</ele><time>2026-04-18T08:32:10.061Z</time></trkpt><trkpt lat="43.2827317" lon="13.0941667"><ele>780.9999999999999</ele><time>2026-04-18T08:32:11.061Z</time></trkpt><trkpt lat="43.2826833" lon="13.0940833"><ele>781.0</ele><time>2026-04-18T08:32:12.061Z</time></trkpt><trkpt lat="43.28263" lon="13.0940017"><ele>785.1666666666666</ele><time>2026-04-18T08:32:13.061Z</time></trkpt><trkpt lat="43.2825783" lon="13.093925"><ele>789.3333333333333</ele><time>2026-04-18T08:32:14.061Z</time></trkpt><trkpt lat="43.2825317" lon="13.0938633"><ele>793.5</ele><time>2026-04-18T08:32:15.062Z</time></trkpt><trkpt lat="43.2824717" lon="13.0937383"><ele>797.6666666666667</ele><time>2026-04-18T08:32:17.061Z</time></trkpt><trkpt lat="43.2824433" lon="13.0936167"><ele>801.8333333333334</ele><time>2026-04-18T08:32:19.061Z</time></trkpt><trkpt lat="43.2824317" lon="13.093525"><ele>806.0</ele><time>2026-04-18T08:32:21.061Z</time></trkpt><trkpt lat="43.2823583" lon="13.0934683"><ele>804.8333333333334</ele><time>2026-04-18T08:32:23.061Z</time></trkpt><trkpt lat="43.2822483" lon="13.093405"><ele>803.6666666666667</ele><time>2026-04-18T08:32:25.061Z</time></trkpt><trkpt lat="43.282195" lon="13.0933567"><ele>802.5</ele><time>2026-04-18T08:32:26.061Z</time></trkpt><trkpt lat="43.2821417" lon="13.0933017"><ele>801.3333333333333</ele><time>2026-04-18T08:32:27.062Z</time></trkpt><trkpt lat="43.2820817" lon="13.0932267"><ele>800.1666666666666</ele><time>2026-04-18T08:32:28.061Z</time></trkpt><trkpt lat="43.2820383" lon="13.0931433"><ele>799.0</ele><time>2026-04-18T08:32:29.061Z</time></trkpt><trkpt lat="43.2819967" lon="13.09306"><ele>798.9999999999999</ele><time>2026-04-18T08:32:30.061Z</time></trkpt><trkpt lat="43.28194" lon="13.09292"><ele>799.0</ele><time>2026-04-18T08:32:32.061Z</time></trkpt><trkpt lat="43.2819233" lon="13.0928333"><ele>799.0</ele><time>2026-04-18T08:32:33.061Z</time></trkpt><trkpt lat="43.2819133" lon="13.0927467"><ele>799.0</ele><time>2026-04-18T08:32:34.061Z</time></trkpt><trkpt lat="43.2819117" lon="13.0926517"><ele>798.9999999999999</ele><time>2026-04-18T08:32:35.061Z</time></trkpt><trkpt lat="43.2819117" lon="13.0925583"><ele>799.0</ele><time>2026-04-18T08:32:36.061Z</time></trkpt><trkpt lat="43.28186" lon="13.0924317"><ele>804.0</ele><time>2026-04-18T08:32:38.061Z</time></trkpt><trkpt lat="43.28181" lon="13.0923683"><ele>809.0</ele><time>2026-04-18T08:32:39.061Z</time></trkpt><trkpt lat="43.2817567" lon="13.0923033"><ele>814.0</ele><time>2026-04-18T08:32:40.061Z</time></trkpt><trkpt lat="43.28169" lon="13.0921733"><ele>819.0</ele><time>2026-04-18T08:32:42.061Z</time></trkpt><trkpt lat="43.2816267" lon="13.0920367"><ele>824.0</ele><time>2026-04-18T08:32:44.061Z</time></trkpt><trkpt lat="43.2815683" lon="13.091895"><ele>824.0000000000001</ele><time>2026-04-18T08:32:46.061Z</time></trkpt><trkpt lat="43.2815183" lon="13.0917483"><ele>824.0</ele><time>2026-04-18T08:32:48.062Z</time></trkpt><trkpt lat="43.2815" lon="13.091655"><ele>824.0</ele><time>2026-04-18T08:32:49.061Z</time></trkpt><trkpt lat="43.2814767" lon="13.0915633"><ele>824.0</ele><time>2026-04-18T08:32:50.062Z</time></trkpt><trkpt lat="43.2814517" lon="13.0914633"><ele>824.0000000000001</ele><time>2026-04-18T08:32:51.061Z</time></trkpt><trkpt lat="43.2814267" lon="13.0913633"><ele>824.0</ele><time>2026-04-18T08:32:52.061Z</time></trkpt><trkpt lat="43.2814067" lon="13.0912617"><ele>822.7142857142857</ele><time>2026-04-18T08:32:53.061Z</time></trkpt><trkpt lat="43.28139" lon="13.0911567"><ele>821.4285714285714</ele><time>2026-04-18T08:32:54.061Z</time></trkpt><trkpt lat="43.2813767" lon="13.091055"><ele>820.1428571428571</ele><time>2026-04-18T08:32:55.061Z</time></trkpt><trkpt lat="43.2813712" lon="13.0909563"><ele>818.8571428571429</ele><time>2026-04-18T08:32:56.061Z</time></trkpt><trkpt lat="43.2813658" lon="13.090859"><ele>817.5714285714286</ele><time>2026-04-18T08:32:57.061Z</time></trkpt><trkpt lat="43.2813519" lon="13.0907628"><ele>816.2857142857142</ele><time>2026-04-18T08:32:58.061Z</time></trkpt><trkpt lat="43.2813294" lon="13.0906645"><ele>815.0</ele><time>2026-04-18T08:32:59.061Z</time></trkpt><trkpt lat="43.2812944" lon="13.0905637"><ele>815.0</ele><time>2026-04-18T08:33:00.061Z</time></trkpt><trkpt lat="43.2812535" lon="13.0904533"><ele>815.0</ele><time>2026-04-18T08:33:01.062Z</time></trkpt><trkpt lat="43.281215" lon="13.0903342"><ele>815.0</ele><time>2026-04-18T08:33:02.062Z</time></trkpt><trkpt lat="43.281185" lon="13.090209"><ele>815.0</ele><time>2026-04-18T08:33:03.061Z</time></trkpt><trkpt lat="43.2811509" lon="13.0900654"><ele>815.0</ele><time>2026-04-18T08:33:04.061Z</time></trkpt><trkpt lat="43.2811138" lon="13.0899122"><ele>818.8</ele><time>2026-04-18T08:33:05.061Z</time></trkpt><trkpt lat="43.2810735" lon="13.0897567"><ele>822.6</ele><time>2026-04-18T08:33:06.061Z</time></trkpt><trkpt lat="43.2810268" lon="13.0896053"><ele>826.4000000000001</ele><time>2026-04-18T08:33:07.062Z</time></trkpt><trkpt lat="43.2809739" lon="13.0894719"><ele>830.2</ele><time>2026-04-18T08:33:08.061Z</time></trkpt><trkpt lat="43.2809247" lon="13.0893545"><ele>834.0</ele><time>2026-04-18T08:33:09.061Z</time></trkpt><trkpt lat="43.2808765" lon="13.0892372"><ele>834.0</ele><time>2026-04-18T08:33:10.062Z</time></trkpt><trkpt lat="43.2808291" lon="13.0891223"><ele>834.0</ele><time>2026-04-18T08:33:11.061Z</time></trkpt><trkpt lat="43.2807801" lon="13.0890178"><ele>834.0</ele><time>2026-04-18T08:33:12.061Z</time></trkpt><trkpt lat="43.2807281" lon="13.0889192"><ele>834.0</ele><time>2026-04-18T08:33:13.061Z</time></trkpt><trkpt lat="43.2806721" lon="13.0888269"><ele>834.0</ele><time>2026-04-18T08:33:14.061Z</time></trkpt><trkpt lat="43.2806126" lon="13.0887412"><ele>834.0</ele><time>2026-04-18T08:33:15.061Z</time></trkpt><trkpt lat="43.2805467" lon="13.0886593"><ele>833.1666666666666</ele><time>2026-04-18T08:33:16.062Z</time></trkpt><trkpt lat="43.2804741" lon="13.0885815"><ele>832.3333333333333</ele><time>2026-04-18T08:33:17.062Z</time></trkpt><trkpt lat="43.280401" lon="13.088505"><ele>831.5</ele><time>2026-04-18T08:33:18.061Z</time></trkpt><trkpt lat="43.2803351" lon="13.0884378"><ele>830.6666666666666</ele><time>2026-04-18T08:33:19.061Z</time></trkpt><trkpt lat="43.2802793" lon="13.0883773"><ele>829.8333333333333</ele><time>2026-04-18T08:33:20.062Z</time></trkpt><trkpt lat="43.2802191" lon="13.0883284"><ele>829.0</ele><time>2026-04-18T08:33:21.061Z</time></trkpt><trkpt lat="43.2801512" lon="13.0882837"><ele>830.1666666666666</ele><time>2026-04-18T08:33:22.061Z</time></trkpt><trkpt lat="43.2800801" lon="13.0882455"><ele>831.3333333333333</ele><time>2026-04-18T08:33:23.061Z</time></trkpt><trkpt lat="43.2800069" lon="13.0882089"><ele>832.5</ele><time>2026-04-18T08:33:24.061Z</time></trkpt><trkpt lat="43.2799358" lon="13.0881628"><ele>833.6666666666667</ele><time>2026-04-18T08:33:25.061Z</time></trkpt><trkpt lat="43.2798665" lon="13.0881026"><ele>834.8333333333334</ele><time>2026-04-18T08:33:26.061Z</time></trkpt><trkpt lat="43.2798025" lon="13.0880259"><ele>836.0</ele><time>2026-04-18T08:33:27.061Z</time></trkpt><trkpt lat="43.2797382" lon="13.0879415"><ele>836.0000000000001</ele><time>2026-04-18T08:33:28.061Z</time></trkpt><trkpt lat="43.2796717" lon="13.0878517"><ele>836.0</ele><time>2026-04-18T08:33:29.061Z</time></trkpt><trkpt lat="43.2796067" lon="13.0877733"><ele>836.0</ele><time>2026-04-18T08:33:30.062Z</time></trkpt><trkpt lat="43.2795483" lon="13.0877033"><ele>836.0</ele><time>2026-04-18T08:33:31.061Z</time></trkpt><trkpt lat="43.2794967" lon="13.0876467"><ele>836.0000000000001</ele><time>2026-04-18T08:33:32.061Z</time></trkpt><trkpt lat="43.2794133" lon="13.0875333"><ele>836.0</ele><time>2026-04-18T08:33:34.061Z</time></trkpt><trkpt lat="43.2793417" lon="13.08744"><ele>838.8</ele><time>2026-04-18T08:33:36.061Z</time></trkpt><trkpt lat="43.2792717" lon="13.0873517"><ele>841.5999999999999</ele><time>2026-04-18T08:33:38.061Z</time></trkpt><trkpt lat="43.279205" lon="13.08727"><ele>844.4</ele><time>2026-04-18T08:33:40.062Z</time></trkpt><trkpt lat="43.279125" lon="13.0871733"><ele>847.2</ele><time>2026-04-18T08:33:42.061Z</time></trkpt><trkpt lat="43.27904" lon="13.0870683"><ele>850.0</ele><time>2026-04-18T08:33:44.061Z</time></trkpt><trkpt lat="43.2789867" lon="13.0870017"><ele>849.5714285714286</ele><time>2026-04-18T08:33:45.061Z</time></trkpt><trkpt lat="43.27893" lon="13.0869267"><ele>849.1428571428571</ele><time>2026-04-18T08:33:46.061Z</time></trkpt><trkpt lat="43.2788717" lon="13.0868533"><ele>848.7142857142858</ele><time>2026-04-18T08:33:47.061Z</time></trkpt><trkpt lat="43.278815" lon="13.0867833"><ele>848.2857142857142</ele><time>2026-04-18T08:33:48.061Z</time></trkpt><trkpt lat="43.2787717" lon="13.0867133"><ele>847.8571428571429</ele><time>2026-04-18T08:33:49.061Z</time></trkpt><trkpt lat="43.2787217" lon="13.0866383"><ele>847.4285714285714</ele><time>2026-04-18T08:33:50.061Z</time></trkpt><trkpt lat="43.2786683" lon="13.0865717"><ele>847.0</ele><time>2026-04-18T08:33:51.061Z</time></trkpt><trkpt lat="43.2786167" lon="13.08651"><ele>848.6666666666666</ele><time>2026-04-18T08:33:52.061Z</time></trkpt><trkpt lat="43.27854" lon="13.0863967"><ele>850.3333333333333</ele><time>2026-04-18T08:33:54.061Z</time></trkpt><trkpt lat="43.27847" lon="13.086265"><ele>852.0</ele><time>2026-04-18T08:33:56.061Z</time></trkpt><trkpt lat="43.27844" lon="13.0861867"><ele>853.6666666666667</ele><time>2026-04-18T08:33:57.061Z</time></trkpt><trkpt lat="43.2784117" lon="13.0860983"><ele>855.3333333333334</ele><time>2026-04-18T08:33:58.062Z</time></trkpt><trkpt lat="43.2783883" lon="13.08601"><ele>857.0</ele><time>2026-04-18T08:33:59.061Z</time></trkpt><trkpt lat="43.2783717" lon="13.08592"><ele>857.0000000000001</ele><time>2026-04-18T08:34:00.062Z</time></trkpt><trkpt lat="43.2783533" lon="13.0858367"><ele>857.0</ele><time>2026-04-18T08:34:01.061Z</time></trkpt><trkpt lat="43.2783083" lon="13.085695"><ele>857.0</ele><time>2026-04-18T08:34:03.061Z</time></trkpt><trkpt lat="43.2782867" lon="13.0856117"><ele>857.0</ele><time>2026-04-18T08:34:04.062Z</time></trkpt><trkpt lat="43.2782617" lon="13.0855217"><ele>857.0000000000001</ele><time>2026-04-18T08:34:05.062Z</time></trkpt><trkpt lat="43.2782333" lon="13.0854317"><ele>857.0</ele><time>2026-04-18T08:34:06.062Z</time></trkpt><trkpt lat="43.2782067" lon="13.08534"><ele>858.8333333333334</ele><time>2026-04-18T08:34:07.061Z</time></trkpt><trkpt lat="43.2781583" lon="13.085185"><ele>860.6666666666667</ele><time>2026-04-18T08:34:09.061Z</time></trkpt><trkpt lat="43.278105" lon="13.0850317"><ele>862.5</ele><time>2026-04-18T08:34:11.061Z</time></trkpt><trkpt lat="43.2780783" lon="13.0849483"><ele>864.3333333333333</ele><time>2026-04-18T08:34:12.061Z</time></trkpt><trkpt lat="43.27805" lon="13.0848667"><ele>866.1666666666666</ele><time>2026-04-18T08:34:13.062Z</time></trkpt><trkpt lat="43.278015" lon="13.0847833"><ele>868.0</ele><time>2026-04-18T08:34:14.062Z</time></trkpt><trkpt lat="43.2779683" lon="13.08469"><ele>869.1666666666666</ele><time>2026-04-18T08:34:15.061Z</time></trkpt><trkpt lat="43.277925" lon="13.084595"><ele>870.3333333333333</ele><time>2026-04-18T08:34:16.061Z</time></trkpt><trkpt lat="43.277885" lon="13.0845033"><ele>871.5</ele><time>2026-04-18T08:34:17.062Z</time></trkpt><trkpt lat="43.277845" lon="13.084415"><ele>872.6666666666667</ele><time>2026-04-18T08:34:18.061Z</time></trkpt><trkpt lat="43.2778117" lon="13.084335"><ele>873.8333333333334</ele><time>2026-04-18T08:34:19.062Z</time></trkpt><trkpt lat="43.2777767" lon="13.0842617"><ele>875.0</ele><time>2026-04-18T08:34:20.061Z</time></trkpt><trkpt lat="43.2777117" lon="13.084125"><ele>875.7142857142857</ele><time>2026-04-18T08:34:22.061Z</time></trkpt><trkpt lat="43.27767" lon="13.0840533"><ele>876.4285714285714</ele><time>2026-04-18T08:34:23.061Z</time></trkpt><trkpt lat="43.2776283" lon="13.0839817"><ele>877.1428571428571</ele><time>2026-04-18T08:34:24.061Z</time></trkpt><trkpt lat="43.277585" lon="13.0838967"><ele>877.8571428571429</ele><time>2026-04-18T08:34:25.061Z</time></trkpt><trkpt lat="43.2775433" lon="13.083805"><ele>878.5714285714286</ele><time>2026-04-18T08:34:26.062Z</time></trkpt><trkpt lat="43.2775" lon="13.08371"><ele>879.2857142857142</ele><time>2026-04-18T08:34:27.061Z</time></trkpt><trkpt lat="43.2774633" lon="13.08362"><ele>880.0</ele><time>2026-04-18T08:34:28.061Z</time></trkpt><trkpt lat="43.2774183" lon="13.0835267"><ele>879.9999999999999</ele><time>2026-04-18T08:34:29.061Z</time></trkpt><trkpt lat="43.2773767" lon="13.0834333"><ele>880.0</ele><time>2026-04-18T08:34:30.062Z</time></trkpt><trkpt lat="43.2773333" lon="13.0833333"><ele>880.0</ele><time>2026-04-18T08:34:31.061Z</time></trkpt><trkpt lat="43.277295" lon="13.083235"><ele>880.0</ele><time>2026-04-18T08:34:32.061Z</time></trkpt><trkpt lat="43.2772567" lon="13.0831333"><ele>879.9999999999999</ele><time>2026-04-18T08:34:33.061Z</time></trkpt><trkpt lat="43.2772167" lon="13.0830267"><ele>880.0</ele><time>2026-04-18T08:34:34.062Z</time></trkpt><trkpt lat="43.2771717" lon="13.08292"><ele>881.6666666666666</ele><time>2026-04-18T08:34:35.061Z</time></trkpt><trkpt lat="43.2771317" lon="13.0828133"><ele>883.3333333333333</ele><time>2026-04-18T08:34:36.061Z</time></trkpt><trkpt lat="43.2770917" lon="13.0827117"><ele>885.0</ele><time>2026-04-18T08:34:37.062Z</time></trkpt><trkpt lat="43.2770533" lon="13.0826033"><ele>886.6666666666667</ele><time>2026-04-18T08:34:38.062Z</time></trkpt><trkpt lat="43.27701" lon="13.08251"><ele>888.3333333333334</ele><time>2026-04-18T08:34:39.062Z</time></trkpt><trkpt lat="43.27697" lon="13.0824083"><ele>890.0</ele><time>2026-04-18T08:34:40.061Z</time></trkpt><trkpt lat="43.2769333" lon="13.082305"><ele>890.0000000000001</ele><time>2026-04-18T08:34:41.061Z</time></trkpt><trkpt lat="43.2768967" lon="13.0822033"><ele>890.0</ele><time>2026-04-18T08:34:42.06Z</time></trkpt><trkpt lat="43.27686" lon="13.0820967"><ele>890.0</ele><time>2026-04-18T08:34:43.06Z</time></trkpt><trkpt lat="43.27682" lon="13.0819967"><ele>890.0</ele><time>2026-04-18T08:34:44.06Z</time></trkpt><trkpt lat="43.2767767" lon="13.0818883"><ele>890.0000000000001</ele><time>2026-04-18T08:34:45.06Z</time></trkpt><trkpt lat="43.276735" lon="13.0817783"><ele>890.0</ele><time>2026-04-18T08:34:46.06Z</time></trkpt><trkpt lat="43.2766933" lon="13.0816667"><ele>891.0000000000001</ele><time>2026-04-18T08:34:47.06Z</time></trkpt><trkpt lat="43.2766533" lon="13.0815533"><ele>892.0</ele><time>2026-04-18T08:34:48.06Z</time></trkpt><trkpt lat="43.276615" lon="13.0814483"><ele>893.0</ele><time>2026-04-18T08:34:49.06Z</time></trkpt><trkpt lat="43.27658" lon="13.0813417"><ele>894.0</ele><time>2026-04-18T08:34:50.061Z</time></trkpt><trkpt lat="43.2765517" lon="13.0812433"><ele>895.0000000000001</ele><time>2026-04-18T08:34:51.061Z</time></trkpt><trkpt lat="43.2765183" lon="13.081145"><ele>896.0</ele><time>2026-04-18T08:34:52.06Z</time></trkpt><trkpt lat="43.27649" lon="13.0810667"><ele>896.0000000000001</ele><time>2026-04-18T08:34:53.061Z</time></trkpt><trkpt lat="43.276445" lon="13.08091"><ele>896.0</ele><time>2026-04-18T08:34:55.061Z</time></trkpt><trkpt lat="43.27642" lon="13.0808217"><ele>896.0</ele><time>2026-04-18T08:34:56.06Z</time></trkpt><trkpt lat="43.2763883" lon="13.0807317"><ele>896.0</ele><time>2026-04-18T08:34:57.06Z</time></trkpt><trkpt lat="43.2763517" lon="13.0806417"><ele>896.0000000000001</ele><time>2026-04-18T08:34:58.06Z</time></trkpt><trkpt lat="43.2763133" lon="13.08056"><ele>896.0</ele><time>2026-04-18T08:34:59.06Z</time></trkpt><trkpt lat="43.2762767" lon="13.08048"><ele>895.3333333333334</ele><time>2026-04-18T08:35:00.061Z</time></trkpt><trkpt lat="43.2762367" lon="13.0803967"><ele>894.6666666666667</ele><time>2026-04-18T08:35:01.061Z</time></trkpt><trkpt lat="43.2761933" lon="13.08031"><ele>894.0</ele><time>2026-04-18T08:35:02.06Z</time></trkpt><trkpt lat="43.2761533" lon="13.0802333"><ele>893.3333333333333</ele><time>2026-04-18T08:35:03.06Z</time></trkpt><trkpt lat="43.2760567" lon="13.0801217"><ele>892.6666666666666</ele><time>2026-04-18T08:35:05.061Z</time></trkpt><trkpt lat="43.2760067" lon="13.0800683"><ele>892.0</ele><time>2026-04-18T08:35:06.06Z</time></trkpt><trkpt lat="43.2759083" lon="13.0800133"><ele>891.9999999999999</ele><time>2026-04-18T08:35:08.061Z</time></trkpt><trkpt lat="43.2758133" lon="13.0800067"><ele>892.0</ele><time>2026-04-18T08:35:10.06Z</time></trkpt><trkpt lat="43.2757533" lon="13.0800483"><ele>892.0</ele><time>2026-04-18T08:35:12.061Z</time></trkpt><trkpt lat="43.2757117" lon="13.0801167"><ele>892.0</ele><time>2026-04-18T08:35:14.06Z</time></trkpt><trkpt lat="43.275705" lon="13.0802167"><ele>891.9999999999999</ele><time>2026-04-18T08:37:15.06Z</time></trkpt><trkpt lat="43.2757033" lon="13.0803483"><ele>892.0</ele><time>2026-04-18T08:37:18.061Z</time></trkpt><trkpt lat="43.27569" lon="13.0804983"><ele>891.9999999999999</ele><time>2026-04-18T08:37:20.06Z</time></trkpt><trkpt lat="43.2756767" lon="13.080585"><ele>892.0</ele><time>2026-04-18T08:37:21.06Z</time></trkpt><trkpt lat="43.2756583" lon="13.0806767"><ele>892.0</ele><time>2026-04-18T08:37:22.06Z</time></trkpt><trkpt lat="43.275645" lon="13.0807733"><ele>892.0</ele><time>2026-04-18T08:37:23.06Z</time></trkpt><trkpt lat="43.27563" lon="13.080875"><ele>891.9999999999999</ele><time>2026-04-18T08:37:24.06Z</time></trkpt><trkpt lat="43.27562" lon="13.0809933"><ele>892.0</ele><time>2026-04-18T08:37:25.061Z</time></trkpt><trkpt lat="43.2756133" lon="13.0811083"><ele>891.3333333333333</ele><time>2026-04-18T08:37:26.06Z</time></trkpt><trkpt lat="43.2756083" lon="13.0812183"><ele>890.6666666666666</ele><time>2026-04-18T08:37:27.06Z</time></trkpt><trkpt lat="43.275595" lon="13.0813217"><ele>890.0</ele><time>2026-04-18T08:37:28.06Z</time></trkpt><trkpt lat="43.2755817" lon="13.081415"><ele>889.3333333333333</ele><time>2026-04-18T08:37:29.06Z</time></trkpt><trkpt lat="43.2755667" lon="13.0815033"><ele>888.6666666666666</ele><time>2026-04-18T08:37:30.06Z</time></trkpt><trkpt lat="43.275535" lon="13.081655"><ele>888.0</ele><time>2026-04-18T08:37:32.06Z</time></trkpt><trkpt lat="43.2755133" lon="13.0818017"><ele>891.1666666666666</ele><time>2026-04-18T08:37:34.06Z</time></trkpt><trkpt lat="43.2754817" lon="13.081935"><ele>894.3333333333333</ele><time>2026-04-18T08:37:36.06Z</time></trkpt><trkpt lat="43.2754533" lon="13.0820633"><ele>897.5</ele><time>2026-04-18T08:37:38.061Z</time></trkpt><trkpt lat="43.2754333" lon="13.082205"><ele>900.6666666666666</ele><time>2026-04-18T08:37:40.06Z</time></trkpt><trkpt lat="43.2754117" lon="13.08229"><ele>903.8333333333333</ele><time>2026-04-18T08:37:41.06Z</time></trkpt><trkpt lat="43.27539" lon="13.0823817"><ele>907.0</ele><time>2026-04-18T08:37:42.061Z</time></trkpt><trkpt lat="43.2753783" lon="13.0824783"><ele>909.6666666666666</ele><time>2026-04-18T08:37:43.06Z</time></trkpt><trkpt lat="43.275365" lon="13.0825683"><ele>912.3333333333333</ele><time>2026-04-18T08:37:44.06Z</time></trkpt><trkpt lat="43.2753417" lon="13.08272"><ele>915.0</ele><time>2026-04-18T08:37:46.06Z</time></trkpt><trkpt lat="43.275305" lon="13.0828867"><ele>917.6666666666667</ele><time>2026-04-18T08:37:48.06Z</time></trkpt><trkpt lat="43.275285" lon="13.0829817"><ele>920.3333333333334</ele><time>2026-04-18T08:37:49.06Z</time></trkpt><trkpt lat="43.2752617" lon="13.0830717"><ele>923.0</ele><time>2026-04-18T08:37:50.06Z</time></trkpt><trkpt lat="43.2752267" lon="13.0831517"><ele>924.2857142857142</ele><time>2026-04-18T08:37:51.06Z</time></trkpt><trkpt lat="43.2751783" lon="13.0832983"><ele>925.5714285714287</ele><time>2026-04-18T08:37:53.06Z</time></trkpt><trkpt lat="43.27515" lon="13.08338"><ele>926.8571428571429</ele><time>2026-04-18T08:37:54.06Z</time></trkpt><trkpt lat="43.2751183" lon="13.0834583"><ele>928.1428571428571</ele><time>2026-04-18T08:37:55.06Z</time></trkpt><trkpt lat="43.2750833" lon="13.0835317"><ele>929.4285714285713</ele><time>2026-04-18T08:37:56.06Z</time></trkpt><trkpt lat="43.2750467" lon="13.08361"><ele>930.7142857142858</ele><time>2026-04-18T08:37:57.06Z</time></trkpt><trkpt lat="43.2750067" lon="13.0836783"><ele>932.0</ele><time>2026-04-18T08:37:58.06Z</time></trkpt><trkpt lat="43.2749617" lon="13.0837433"><ele>932.0</ele><time>2026-04-18T08:37:59.061Z</time></trkpt><trkpt lat="43.2749067" lon="13.0838067"><ele>932.0</ele><time>2026-04-18T08:38:00.06Z</time></trkpt><trkpt lat="43.2748533" lon="13.083865"><ele>932.0</ele><time>2026-04-18T08:38:01.06Z</time></trkpt><trkpt lat="43.2748" lon="13.0839233"><ele>932.0</ele><time>2026-04-18T08:38:02.06Z</time></trkpt><trkpt lat="43.2747467" lon="13.08399"><ele>932.0</ele><time>2026-04-18T08:38:03.06Z</time></trkpt><trkpt lat="43.27469" lon="13.0840567"><ele>932.0</ele><time>2026-04-18T08:38:04.06Z</time></trkpt><trkpt lat="43.274635" lon="13.0841067"><ele>932.0</ele><time>2026-04-18T08:38:05.06Z</time></trkpt><trkpt lat="43.2745383" lon="13.0841783"><ele>933.6666666666667</ele><time>2026-04-18T08:38:07.06Z</time></trkpt><trkpt lat="43.2744233" lon="13.08427"><ele>935.3333333333334</ele><time>2026-04-18T08:38:09.06Z</time></trkpt><trkpt lat="43.2743617" lon="13.0843167"><ele>937.0</ele><time>2026-04-18T08:38:10.06Z</time></trkpt><trkpt lat="43.27429" lon="13.08435"><ele>938.6666666666667</ele><time>2026-04-18T08:38:11.06Z</time></trkpt><trkpt lat="43.2742167" lon="13.0843917"><ele>940.3333333333334</ele><time>2026-04-18T08:38:12.06Z</time></trkpt><trkpt lat="43.2741433" lon="13.08442"><ele>942.0</ele><time>2026-04-18T08:38:13.061Z</time></trkpt><trkpt lat="43.2740683" lon="13.0844367"><ele>942.0000000000001</ele><time>2026-04-18T08:38:14.06Z</time></trkpt><trkpt lat="43.27399" lon="13.08445"><ele>942.0</ele><time>2026-04-18T08:38:15.06Z</time></trkpt><trkpt lat="43.2739183" lon="13.08446"><ele>942.0000000000001</ele><time>2026-04-18T08:38:16.06Z</time></trkpt><trkpt lat="43.2738483" lon="13.0844783"><ele>942.0000000000001</ele><time>2026-04-18T08:38:17.061Z</time></trkpt><trkpt lat="43.2737817" lon="13.0844917"><ele>942.0</ele><time>2026-04-18T08:38:18.061Z</time></trkpt><trkpt lat="43.27372" lon="13.0845133"><ele>942.0000000000001</ele><time>2026-04-18T08:38:19.06Z</time></trkpt><trkpt lat="43.2736567" lon="13.0845367"><ele>942.0000000000001</ele><time>2026-04-18T08:38:20.06Z</time></trkpt><trkpt lat="43.273595" lon="13.084555"><ele>943.0</ele><time>2026-04-18T08:38:21.06Z</time></trkpt><trkpt lat="43.273535" lon="13.0845817"><ele>944.0</ele><time>2026-04-18T08:38:22.06Z</time></trkpt><trkpt lat="43.27346" lon="13.0846567"><ele>945.0</ele><time>2026-04-18T08:38:24.061Z</time></trkpt><trkpt lat="43.2734167" lon="13.0847483"><ele>946.0</ele><time>2026-04-18T08:38:26.06Z</time></trkpt><trkpt lat="43.2733817" lon="13.0848583"><ele>947.0</ele><time>2026-04-18T08:38:28.061Z</time></trkpt><trkpt lat="43.2733783" lon="13.0849517"><ele>948.0</ele><time>2026-04-18T08:38:30.06Z</time></trkpt><trkpt lat="43.2734133" lon="13.0850567"><ele>948.2</ele><time>2026-04-18T08:38:33.06Z</time></trkpt><trkpt lat="43.27348" lon="13.0851133"><ele>948.4</ele><time>2026-04-18T08:38:35.06Z</time></trkpt><trkpt lat="43.273555" lon="13.085185"><ele>948.6000000000001</ele><time>2026-04-18T08:38:37.06Z</time></trkpt><trkpt lat="43.2736067" lon="13.0852833"><ele>948.8000000000001</ele><time>2026-04-18T08:38:39.06Z</time></trkpt><trkpt lat="43.27366" lon="13.08541"><ele>949.0</ele><time>2026-04-18T08:38:41.061Z</time></trkpt><trkpt lat="43.2737233" lon="13.0855417"><ele>949.0</ele><time>2026-04-18T08:38:43.061Z</time></trkpt><trkpt lat="43.2737717" lon="13.0856917"><ele>949.0</ele><time>2026-04-18T08:38:45.061Z</time></trkpt><trkpt lat="43.2738333" lon="13.08584"><ele>949.0</ele><time>2026-04-18T08:38:47.06Z</time></trkpt><trkpt lat="43.27389" lon="13.0859867"><ele>949.0</ele><time>2026-04-18T08:38:49.06Z</time></trkpt><trkpt lat="43.2739467" lon="13.0861467"><ele>946.4999999999999</ele><time>2026-04-18T08:38:51.06Z</time></trkpt><trkpt lat="43.2739783" lon="13.08623"><ele>944.0</ele><time>2026-04-18T08:38:52.061Z</time></trkpt><trkpt lat="43.2740183" lon="13.0863133"><ele>941.5</ele><time>2026-04-18T08:38:53.061Z</time></trkpt><trkpt lat="43.2740617" lon="13.0863933"><ele>939.0</ele><time>2026-04-18T08:38:54.061Z</time></trkpt><trkpt lat="43.2741117" lon="13.08648"><ele>936.4999999999999</ele><time>2026-04-18T08:38:55.06Z</time></trkpt><trkpt lat="43.2741733" lon="13.0865567"><ele>934.0</ele><time>2026-04-18T08:38:56.06Z</time></trkpt><trkpt lat="43.2742367" lon="13.0866383"><ele>932.1666666666666</ele><time>2026-04-18T08:38:57.06Z</time></trkpt><trkpt lat="43.2743033" lon="13.0867183"><ele>930.3333333333333</ele><time>2026-04-18T08:38:58.061Z</time></trkpt><trkpt lat="43.2743667" lon="13.0867867"><ele>928.5</ele><time>2026-04-18T08:38:59.06Z</time></trkpt><trkpt lat="43.2744283" lon="13.0868583"><ele>926.6666666666667</ele><time>2026-04-18T08:39:00.06Z</time></trkpt><trkpt lat="43.27449" lon="13.08693"><ele>924.8333333333334</ele><time>2026-04-18T08:39:01.06Z</time></trkpt><trkpt lat="43.27455" lon="13.0870017"><ele>923.0</ele><time>2026-04-18T08:39:02.061Z</time></trkpt><trkpt lat="43.27461" lon="13.087075"><ele>923.0</ele><time>2026-04-18T08:39:03.06Z</time></trkpt><trkpt lat="43.2746767" lon="13.0871417"><ele>923.0</ele><time>2026-04-18T08:39:04.06Z</time></trkpt><trkpt lat="43.2747467" lon="13.08721"><ele>923.0</ele><time>2026-04-18T08:39:05.06Z</time></trkpt><trkpt lat="43.27481" lon="13.0872617"><ele>923.0</ele><time>2026-04-18T08:39:06.06Z</time></trkpt><trkpt lat="43.2748683" lon="13.0873217"><ele>923.0</ele><time>2026-04-18T08:39:07.06Z</time></trkpt><trkpt lat="43.2749267" lon="13.087365"><ele>923.0</ele><time>2026-04-18T08:39:08.061Z</time></trkpt><trkpt lat="43.2749833" lon="13.0874083"><ele>923.0</ele><time>2026-04-18T08:39:09.06Z</time></trkpt><trkpt lat="43.275085" lon="13.087485"><ele>922.3333333333334</ele><time>2026-04-18T08:39:11.06Z</time></trkpt><trkpt lat="43.2751633" lon="13.08756"><ele>921.6666666666667</ele><time>2026-04-18T08:39:13.06Z</time></trkpt><trkpt lat="43.2752183" lon="13.0876383"><ele>921.0</ele><time>2026-04-18T08:39:16.061Z</time></trkpt><trkpt lat="43.2752783" lon="13.0877017"><ele>920.3333333333333</ele><time>2026-04-18T08:40:19.06Z</time></trkpt><trkpt lat="43.2753283" lon="13.0877667"><ele>919.6666666666666</ele><time>2026-04-18T08:40:23.06Z</time></trkpt><trkpt lat="43.275405" lon="13.0877933"><ele>919.0</ele><time>2026-04-18T08:40:30.059Z</time></trkpt><trkpt lat="43.2754733" lon="13.0877767"><ele>919.0</ele><time>2026-04-18T08:40:34.059Z</time></trkpt><trkpt lat="43.275385" lon="13.0877817"><ele>919.0000000000001</ele><time>2026-04-18T08:40:51.059Z</time></trkpt><trkpt lat="43.27531" lon="13.08777"><ele>919.0000000000001</ele><time>2026-04-18T08:40:53.059Z</time></trkpt><trkpt lat="43.2752217" lon="13.0876983"><ele>919.0</ele><time>2026-04-18T08:40:55.059Z</time></trkpt><trkpt lat="43.2751433" lon="13.0876033"><ele>919.0</ele><time>2026-04-18T08:40:57.059Z</time></trkpt><trkpt lat="43.2750617" lon="13.0875017"><ele>918.9999999999999</ele><time>2026-04-18T08:40:59.06Z</time></trkpt><trkpt lat="43.2750067" lon="13.0874533"><ele>919.0</ele><time>2026-04-18T08:41:00.06Z</time></trkpt><trkpt lat="43.2749367" lon="13.0874033"><ele>919.0</ele><time>2026-04-18T08:41:01.059Z</time></trkpt><trkpt lat="43.274865" lon="13.087345"><ele>919.0</ele><time>2026-04-18T08:41:02.058Z</time></trkpt><trkpt lat="43.2747883" lon="13.0872817"><ele>918.9999999999999</ele><time>2026-04-18T08:41:03.059Z</time></trkpt><trkpt lat="43.27471" lon="13.08721"><ele>919.0</ele><time>2026-04-18T08:41:04.059Z</time></trkpt><trkpt lat="43.2746417" lon="13.08713"><ele>919.8000000000001</ele><time>2026-04-18T08:41:05.06Z</time></trkpt><trkpt lat="43.274565" lon="13.0870417"><ele>920.6000000000001</ele><time>2026-04-18T08:41:06.059Z</time></trkpt><trkpt lat="43.2744883" lon="13.0869517"><ele>921.4</ele><time>2026-04-18T08:41:07.059Z</time></trkpt><trkpt lat="43.274405" lon="13.086865"><ele>922.2</ele><time>2026-04-18T08:41:08.059Z</time></trkpt><trkpt lat="43.2743233" lon="13.086775"><ele>923.0</ele><time>2026-04-18T08:41:09.059Z</time></trkpt><trkpt lat="43.2742367" lon="13.0866883"><ele>925.2</ele><time>2026-04-18T08:41:10.059Z</time></trkpt><trkpt lat="43.2741617" lon="13.0865883"><ele>927.4</ele><time>2026-04-18T08:41:11.06Z</time></trkpt><trkpt lat="43.2740933" lon="13.08649"><ele>929.6000000000001</ele><time>2026-04-18T08:41:12.059Z</time></trkpt><trkpt lat="43.2740383" lon="13.0863833"><ele>931.8000000000001</ele><time>2026-04-18T08:41:13.059Z</time></trkpt><trkpt lat="43.2739933" lon="13.0862733"><ele>934.0</ele><time>2026-04-18T08:41:14.059Z</time></trkpt><trkpt lat="43.27395" lon="13.0861633"><ele>935.6</ele><time>2026-04-18T08:41:15.059Z</time></trkpt><trkpt lat="43.2739" lon="13.0860467"><ele>937.2</ele><time>2026-04-18T08:41:16.059Z</time></trkpt><trkpt lat="43.2738517" lon="13.0859233"><ele>938.8000000000001</ele><time>2026-04-18T08:41:17.059Z</time></trkpt><trkpt lat="43.273805" lon="13.0858083"><ele>940.4000000000001</ele><time>2026-04-18T08:41:18.059Z</time></trkpt><trkpt lat="43.2737583" lon="13.0856883"><ele>942.0</ele><time>2026-04-18T08:41:19.059Z</time></trkpt><trkpt lat="43.2737" lon="13.0855717"><ele>943.1666666666666</ele><time>2026-04-18T08:41:20.059Z</time></trkpt><trkpt lat="43.2736517" lon="13.0854467"><ele>944.3333333333333</ele><time>2026-04-18T08:41:21.059Z</time></trkpt><trkpt lat="43.2736" lon="13.0853317"><ele>945.5</ele><time>2026-04-18T08:41:22.059Z</time></trkpt><trkpt lat="43.2735567" lon="13.0852383"><ele>946.6666666666666</ele><time>2026-04-18T08:41:23.059Z</time></trkpt><trkpt lat="43.2735117" lon="13.0851583"><ele>947.8333333333333</ele><time>2026-04-18T08:41:24.059Z</time></trkpt><trkpt lat="43.27346" lon="13.085105"><ele>949.0</ele><time>2026-04-18T08:41:25.059Z</time></trkpt><trkpt lat="43.2733417" lon="13.085075"><ele>949.0</ele><time>2026-04-18T08:41:27.059Z</time></trkpt><trkpt lat="43.273235" lon="13.0851517"><ele>949.0000000000001</ele><time>2026-04-18T08:41:29.059Z</time></trkpt><trkpt lat="43.2731833" lon="13.0852133"><ele>949.0000000000001</ele><time>2026-04-18T08:41:30.059Z</time></trkpt><trkpt lat="43.2731283" lon="13.0852783"><ele>949.0</ele><time>2026-04-18T08:41:31.06Z</time></trkpt><trkpt lat="43.2730583" lon="13.0853517"><ele>949.0</ele><time>2026-04-18T08:41:32.059Z</time></trkpt><trkpt lat="43.27298" lon="13.0854383"><ele>949.5</ele><time>2026-04-18T08:41:33.06Z</time></trkpt><trkpt lat="43.2728883" lon="13.0855433"><ele>950.0</ele><time>2026-04-18T08:41:34.06Z</time></trkpt><trkpt lat="43.2727883" lon="13.0856667"><ele>950.5</ele><time>2026-04-18T08:41:35.059Z</time></trkpt><trkpt lat="43.2726883" lon="13.0857917"><ele>951.0</ele><time>2026-04-18T08:41:36.059Z</time></trkpt><trkpt lat="43.272605" lon="13.0859067"><ele>951.0</ele><time>2026-04-18T08:41:37.059Z</time></trkpt><trkpt lat="43.2725267" lon="13.0860117"><ele>950.9999999999999</ele><time>2026-04-18T08:41:38.059Z</time></trkpt><trkpt lat="43.27245" lon="13.0861067"><ele>950.9999999999999</ele><time>2026-04-18T08:41:39.059Z</time></trkpt><trkpt lat="43.2723733" lon="13.0861967"><ele>951.0</ele><time>2026-04-18T08:41:40.059Z</time></trkpt><trkpt lat="43.2722883" lon="13.0862717"><ele>951.0</ele><time>2026-04-18T08:41:41.06Z</time></trkpt><trkpt lat="43.2721983" lon="13.0863433"><ele>951.8</ele><time>2026-04-18T08:41:42.06Z</time></trkpt><trkpt lat="43.2721083" lon="13.0864167"><ele>952.5999999999999</ele><time>2026-04-18T08:41:43.059Z</time></trkpt><trkpt lat="43.2720133" lon="13.0864867"><ele>953.4</ele><time>2026-04-18T08:41:44.06Z</time></trkpt><trkpt lat="43.27192" lon="13.08655"><ele>954.2</ele><time>2026-04-18T08:41:45.059Z</time></trkpt><trkpt lat="43.2718267" lon="13.0866133"><ele>955.0</ele><time>2026-04-18T08:41:46.059Z</time></trkpt><trkpt lat="43.271735" lon="13.0866683"><ele>955.0</ele><time>2026-04-18T08:41:47.059Z</time></trkpt><trkpt lat="43.2716417" lon="13.086735"><ele>955.0</ele><time>2026-04-18T08:41:48.059Z</time></trkpt><trkpt lat="43.2715467" lon="13.0867967"><ele>955.0</ele><time>2026-04-18T08:41:49.059Z</time></trkpt><trkpt lat="43.27146" lon="13.0868533"><ele>955.0</ele><time>2026-04-18T08:41:50.059Z</time></trkpt><trkpt lat="43.2713783" lon="13.086905"><ele>955.0</ele><time>2026-04-18T08:41:51.059Z</time></trkpt><trkpt lat="43.2713" lon="13.0869533"><ele>955.8</ele><time>2026-04-18T08:41:52.059Z</time></trkpt><trkpt lat="43.2712267" lon="13.0869967"><ele>956.6</ele><time>2026-04-18T08:41:53.06Z</time></trkpt><trkpt lat="43.27116" lon="13.0870367"><ele>957.4000000000001</ele><time>2026-04-18T08:41:54.059Z</time></trkpt><trkpt lat="43.27105" lon="13.0870867"><ele>958.2</ele><time>2026-04-18T08:41:56.059Z</time></trkpt><trkpt lat="43.270955" lon="13.087105"><ele>959.0</ele><time>2026-04-18T08:41:58.059Z</time></trkpt><trkpt lat="43.270855" lon="13.087155"><ele>959.0000000000001</ele><time>2026-04-18T08:42:21.059Z</time></trkpt><trkpt lat="43.270765" lon="13.0872217"><ele>959.0</ele><time>2026-04-18T08:42:24.059Z</time></trkpt><trkpt lat="43.2706817" lon="13.087225"><ele>959.0</ele><time>2026-04-18T08:42:26.059Z</time></trkpt><trkpt lat="43.2706083" lon="13.087215"><ele>959.0</ele><time>2026-04-18T08:42:27.06Z</time></trkpt><trkpt lat="43.27054" lon="13.087195"><ele>959.0000000000001</ele><time>2026-04-18T08:42:28.059Z</time></trkpt><trkpt lat="43.2704567" lon="13.0871717"><ele>959.0</ele><time>2026-04-18T08:42:29.059Z</time></trkpt><trkpt lat="43.27037" lon="13.0871517"><ele>959.0</ele><time>2026-04-18T08:42:30.059Z</time></trkpt><trkpt lat="43.270285" lon="13.0871317"><ele>959.0000000000001</ele><time>2026-04-18T08:42:31.059Z</time></trkpt><trkpt lat="43.2701933" lon="13.0871183"><ele>959.0000000000001</ele><time>2026-04-18T08:42:32.06Z</time></trkpt><trkpt lat="43.2701033" lon="13.087105"><ele>959.0</ele><time>2026-04-18T08:42:33.059Z</time></trkpt><trkpt lat="43.2700083" lon="13.0870883"><ele>959.0</ele><time>2026-04-18T08:42:34.059Z</time></trkpt><trkpt lat="43.2699183" lon="13.087065"><ele>959.0000000000001</ele><time>2026-04-18T08:42:35.059Z</time></trkpt><trkpt lat="43.2698333" lon="13.0870367"><ele>959.0</ele><time>2026-04-18T08:42:36.059Z</time></trkpt><trkpt lat="43.26975" lon="13.0870117"><ele>959.0</ele><time>2026-04-18T08:42:37.059Z</time></trkpt><trkpt lat="43.2696783" lon="13.08698"><ele>959.0</ele><time>2026-04-18T08:42:38.059Z</time></trkpt><trkpt lat="43.2696117" lon="13.0869583"><ele>959.0000000000001</ele><time>2026-04-18T08:42:39.059Z</time></trkpt><trkpt lat="43.2694883" lon="13.086925"><ele>959.0</ele><time>2026-04-18T08:42:41.059Z</time></trkpt><trkpt lat="43.269425" lon="13.08691"><ele>959.0</ele><time>2026-04-18T08:42:42.059Z</time></trkpt><trkpt lat="43.26936" lon="13.0869017"><ele>959.0</ele><time>2026-04-18T08:42:43.06Z</time></trkpt><trkpt lat="43.2692917" lon="13.0869"><ele>959.0</ele><time>2026-04-18T08:42:44.059Z</time></trkpt><trkpt lat="43.2692267" lon="13.0868933"><ele>959.0</ele><time>2026-04-18T08:42:45.06Z</time></trkpt><trkpt lat="43.2691567" lon="13.0868867"><ele>959.0</ele><time>2026-04-18T08:42:46.06Z</time></trkpt><trkpt lat="43.2690883" lon="13.086895"><ele>959.0</ele><time>2026-04-18T08:42:47.06Z</time></trkpt><trkpt lat="43.2690233" lon="13.0869133"><ele>959.0</ele><time>2026-04-18T08:42:48.059Z</time></trkpt><trkpt lat="43.2689533" lon="13.0869283"><ele>957.3333333333334</ele><time>2026-04-18T08:42:49.059Z</time></trkpt><trkpt lat="43.2688833" lon="13.0869433"><ele>955.6666666666667</ele><time>2026-04-18T08:42:50.059Z</time></trkpt><trkpt lat="43.2688117" lon="13.0869617"><ele>954.0</ele><time>2026-04-18T08:42:51.06Z</time></trkpt><trkpt lat="43.2687333" lon="13.0869767"><ele>952.3333333333333</ele><time>2026-04-18T08:42:52.059Z</time></trkpt><trkpt lat="43.2686533" lon="13.0869967"><ele>950.6666666666666</ele><time>2026-04-18T08:42:53.06Z</time></trkpt><trkpt lat="43.2685717" lon="13.0870167"><ele>949.0</ele><time>2026-04-18T08:42:54.059Z</time></trkpt><trkpt lat="43.268495" lon="13.0870417"><ele>948.9999999999999</ele><time>2026-04-18T08:42:55.06Z</time></trkpt><trkpt lat="43.2684217" lon="13.0870617"><ele>949.0</ele><time>2026-04-18T08:42:56.06Z</time></trkpt><trkpt lat="43.268345" lon="13.08709"><ele>949.0</ele><time>2026-04-18T08:42:57.059Z</time></trkpt><trkpt lat="43.2682683" lon="13.0871133"><ele>949.0</ele><time>2026-04-18T08:42:58.059Z</time></trkpt><trkpt lat="43.2681867" lon="13.087135"><ele>948.9999999999999</ele><time>2026-04-18T08:42:59.059Z</time></trkpt><trkpt lat="43.2681133" lon="13.0871617"><ele>949.0</ele><time>2026-04-18T08:43:00.059Z</time></trkpt><trkpt lat="43.2680333" lon="13.087175"><ele>948.3333333333333</ele><time>2026-04-18T08:43:01.06Z</time></trkpt><trkpt lat="43.267945" lon="13.0871767"><ele>947.6666666666666</ele><time>2026-04-18T08:43:02.059Z</time></trkpt><trkpt lat="43.2678633" lon="13.087165"><ele>947.0</ele><time>2026-04-18T08:43:03.059Z</time></trkpt><trkpt lat="43.2677817" lon="13.087145"><ele>946.3333333333333</ele><time>2026-04-18T08:43:04.059Z</time></trkpt><trkpt lat="43.267705" lon="13.0871233"><ele>945.6666666666666</ele><time>2026-04-18T08:43:05.059Z</time></trkpt><trkpt lat="43.2676183" lon="13.0870883"><ele>945.0</ele><time>2026-04-18T08:43:06.059Z</time></trkpt><trkpt lat="43.26753" lon="13.0870433"><ele>945.0</ele><time>2026-04-18T08:43:07.059Z</time></trkpt><trkpt lat="43.2674433" lon="13.0870083"><ele>945.0</ele><time>2026-04-18T08:43:08.06Z</time></trkpt><trkpt lat="43.2673533" lon="13.0869633"><ele>945.0</ele><time>2026-04-18T08:43:09.059Z</time></trkpt><trkpt lat="43.2672733" lon="13.0869183"><ele>945.0</ele><time>2026-04-18T08:43:10.059Z</time></trkpt><trkpt lat="43.2671933" lon="13.0868767"><ele>945.0</ele><time>2026-04-18T08:43:11.059Z</time></trkpt><trkpt lat="43.267105" lon="13.086835"><ele>942.8</ele><time>2026-04-18T08:43:12.059Z</time></trkpt><trkpt lat="43.267015" lon="13.0868083"><ele>940.6</ele><time>2026-04-18T08:43:13.06Z</time></trkpt><trkpt lat="43.26692" lon="13.0867817"><ele>938.4000000000001</ele><time>2026-04-18T08:43:14.059Z</time></trkpt><trkpt lat="43.2668267" lon="13.0867533"><ele>936.2</ele><time>2026-04-18T08:43:15.059Z</time></trkpt><trkpt lat="43.2667367" lon="13.0867267"><ele>934.0</ele><time>2026-04-18T08:43:16.059Z</time></trkpt><trkpt lat="43.266645" lon="13.086695"><ele>934.0</ele><time>2026-04-18T08:43:17.059Z</time></trkpt><trkpt lat="43.2665533" lon="13.0866667"><ele>934.0000000000001</ele><time>2026-04-18T08:43:18.06Z</time></trkpt><trkpt lat="43.2664667" lon="13.0866433"><ele>934.0000000000001</ele><time>2026-04-18T08:43:19.06Z</time></trkpt><trkpt lat="43.2663783" lon="13.0866183"><ele>934.0</ele><time>2026-04-18T08:43:20.059Z</time></trkpt><trkpt lat="43.2662867" lon="13.08659"><ele>934.0</ele><time>2026-04-18T08:43:21.059Z</time></trkpt><trkpt lat="43.2661933" lon="13.0865567"><ele>932.6666666666666</ele><time>2026-04-18T08:43:22.059Z</time></trkpt><trkpt lat="43.266105" lon="13.0865183"><ele>931.3333333333333</ele><time>2026-04-18T08:43:23.059Z</time></trkpt><trkpt lat="43.266015" lon="13.086475"><ele>930.0</ele><time>2026-04-18T08:43:24.06Z</time></trkpt><trkpt lat="43.26594" lon="13.0864133"><ele>928.6666666666667</ele><time>2026-04-18T08:43:25.059Z</time></trkpt><trkpt lat="43.26587" lon="13.0863433"><ele>927.3333333333334</ele><time>2026-04-18T08:43:26.059Z</time></trkpt><trkpt lat="43.2658067" lon="13.0862617"><ele>926.0</ele><time>2026-04-18T08:43:27.059Z</time></trkpt><trkpt lat="43.265745" lon="13.0861767"><ele>926.0</ele><time>2026-04-18T08:43:28.059Z</time></trkpt><trkpt lat="43.265685" lon="13.0860917"><ele>925.9999999999999</ele><time>2026-04-18T08:43:29.059Z</time></trkpt><trkpt lat="43.26562" lon="13.0860017"><ele>925.9999999999999</ele><time>2026-04-18T08:43:30.059Z</time></trkpt><trkpt lat="43.2655533" lon="13.08592"><ele>926.0</ele><time>2026-04-18T08:43:31.06Z</time></trkpt><trkpt lat="43.2654767" lon="13.0858417"><ele>926.0</ele><time>2026-04-18T08:43:32.059Z</time></trkpt><trkpt lat="43.265405" lon="13.0857583"><ele>924.0</ele><time>2026-04-18T08:43:33.059Z</time></trkpt><trkpt lat="43.2653283" lon="13.085675"><ele>921.9999999999999</ele><time>2026-04-18T08:43:34.059Z</time></trkpt><trkpt lat="43.26525" lon="13.085595"><ele>919.9999999999999</ele><time>2026-04-18T08:43:35.059Z</time></trkpt><trkpt lat="43.265165" lon="13.08552"><ele>918.0</ele><time>2026-04-18T08:43:36.06Z</time></trkpt><trkpt lat="43.26508" lon="13.0854417"><ele>916.0</ele><time>2026-04-18T08:43:37.059Z</time></trkpt><trkpt lat="43.2650017" lon="13.0853483"><ele>916.0</ele><time>2026-04-18T08:43:38.059Z</time></trkpt><trkpt lat="43.264915" lon="13.0852583"><ele>915.9999999999999</ele><time>2026-04-18T08:43:39.059Z</time></trkpt><trkpt lat="43.2648333" lon="13.0851683"><ele>915.9999999999999</ele><time>2026-04-18T08:43:40.06Z</time></trkpt><trkpt lat="43.26475" lon="13.0850883"><ele>916.0</ele><time>2026-04-18T08:43:41.059Z</time></trkpt><trkpt lat="43.2646633" lon="13.085005"><ele>916.0</ele><time>2026-04-18T08:43:42.06Z</time></trkpt><trkpt lat="43.2645817" lon="13.0849267"><ele>913.1999999999999</ele><time>2026-04-18T08:43:43.059Z</time></trkpt><trkpt lat="43.2644967" lon="13.0848517"><ele>910.3999999999999</ele><time>2026-04-18T08:43:44.059Z</time></trkpt><trkpt lat="43.2644017" lon="13.084785"><ele>907.6</ele><time>2026-04-18T08:43:45.06Z</time></trkpt><trkpt lat="43.2643" lon="13.0847417"><ele>904.8</ele><time>2026-04-18T08:43:46.059Z</time></trkpt><trkpt lat="43.2641967" lon="13.08471"><ele>902.0</ele><time>2026-04-18T08:43:47.059Z</time></trkpt><trkpt lat="43.2640967" lon="13.08468"><ele>902.0</ele><time>2026-04-18T08:43:48.059Z</time></trkpt><trkpt lat="43.264" lon="13.0846583"><ele>902.0</ele><time>2026-04-18T08:43:49.059Z</time></trkpt><trkpt lat="43.2638917" lon="13.0846383"><ele>902.0</ele><time>2026-04-18T08:43:50.059Z</time></trkpt><trkpt lat="43.2637917" lon="13.084605"><ele>902.0</ele><time>2026-04-18T08:43:51.059Z</time></trkpt><trkpt lat="43.2636783" lon="13.0845733"><ele>902.0</ele><time>2026-04-18T08:43:52.059Z</time></trkpt><trkpt lat="43.2635583" lon="13.0845517"><ele>902.2</ele><time>2026-04-18T08:43:53.059Z</time></trkpt><trkpt lat="43.26345" lon="13.0845333"><ele>902.4000000000001</ele><time>2026-04-18T08:43:54.059Z</time></trkpt><trkpt lat="43.2633433" lon="13.0845067"><ele>902.5999999999999</ele><time>2026-04-18T08:43:55.059Z</time></trkpt><trkpt lat="43.263245" lon="13.0844717"><ele>902.8</ele><time>2026-04-18T08:43:56.06Z</time></trkpt><trkpt lat="43.263165" lon="13.0844183"><ele>903.0</ele><time>2026-04-18T08:43:57.059Z</time></trkpt><trkpt lat="43.2631033" lon="13.08434"><ele>903.0</ele><time>2026-04-18T08:43:58.059Z</time></trkpt><trkpt lat="43.2630567" lon="13.084245"><ele>903.0</ele><time>2026-04-18T08:43:59.059Z</time></trkpt><trkpt lat="43.26301" lon="13.0841433"><ele>903.0</ele><time>2026-04-18T08:44:00.059Z</time></trkpt><trkpt lat="43.2629617" lon="13.0840383"><ele>903.0</ele><time>2026-04-18T08:44:01.059Z</time></trkpt><trkpt lat="43.2629117" lon="13.0839433"><ele>903.0</ele><time>2026-04-18T08:44:02.059Z</time></trkpt><trkpt lat="43.2628567" lon="13.0838533"><ele>903.0</ele><time>2026-04-18T08:44:03.059Z</time></trkpt><trkpt lat="43.2628" lon="13.08377"><ele>901.4</ele><time>2026-04-18T08:44:04.059Z</time></trkpt><trkpt lat="43.2627383" lon="13.0836833"><ele>899.8</ele><time>2026-04-18T08:44:05.059Z</time></trkpt><trkpt lat="43.262675" lon="13.0836"><ele>898.2</ele><time>2026-04-18T08:44:06.059Z</time></trkpt><trkpt lat="43.2626017" lon="13.083525"><ele>896.6</ele><time>2026-04-18T08:44:07.059Z</time></trkpt><trkpt lat="43.2625217" lon="13.0834517"><ele>895.0</ele><time>2026-04-18T08:44:08.059Z</time></trkpt><trkpt lat="43.2624417" lon="13.0833783"><ele>895.0</ele><time>2026-04-18T08:44:09.059Z</time></trkpt><trkpt lat="43.262355" lon="13.083305"><ele>895.0</ele><time>2026-04-18T08:44:10.059Z</time></trkpt><trkpt lat="43.2622667" lon="13.083235"><ele>895.0</ele><time>2026-04-18T08:44:11.059Z</time></trkpt><trkpt lat="43.2621767" lon="13.0831617"><ele>895.0</ele><time>2026-04-18T08:44:12.059Z</time></trkpt><trkpt lat="43.26208" lon="13.0830917"><ele>895.0</ele><time>2026-04-18T08:44:13.059Z</time></trkpt><trkpt lat="43.2619867" lon="13.0830283"><ele>892.6</ele><time>2026-04-18T08:44:14.059Z</time></trkpt><trkpt lat="43.26189" lon="13.0829517"><ele>890.2</ele><time>2026-04-18T08:44:15.059Z</time></trkpt><trkpt lat="43.2618" lon="13.082875"><ele>887.8</ele><time>2026-04-18T08:44:16.059Z</time></trkpt><trkpt lat="43.2617" lon="13.0827967"><ele>885.4</ele><time>2026-04-18T08:44:17.059Z</time></trkpt><trkpt lat="43.2616033" lon="13.0827117"><ele>883.0</ele><time>2026-04-18T08:44:18.059Z</time></trkpt><trkpt lat="43.2615067" lon="13.0826333"><ele>883.0</ele><time>2026-04-18T08:44:19.059Z</time></trkpt><trkpt lat="43.2614067" lon="13.082555"><ele>883.0</ele><time>2026-04-18T08:44:20.059Z</time></trkpt><trkpt lat="43.261305" lon="13.082475"><ele>883.0</ele><time>2026-04-18T08:44:21.059Z</time></trkpt><trkpt lat="43.2611983" lon="13.0824033"><ele>883.0</ele><time>2026-04-18T08:44:22.06Z</time></trkpt><trkpt lat="43.2611" lon="13.08233"><ele>879.75</ele><time>2026-04-18T08:44:23.059Z</time></trkpt><trkpt lat="43.2610033" lon="13.082265"><ele>876.5</ele><time>2026-04-18T08:44:24.059Z</time></trkpt><trkpt lat="43.2609017" lon="13.0821983"><ele>873.25</ele><time>2026-04-18T08:44:25.06Z</time></trkpt><trkpt lat="43.2607983" lon="13.082135"><ele>870.0</ele><time>2026-04-18T08:44:26.059Z</time></trkpt><trkpt lat="43.2606883" lon="13.0820667"><ele>871.25</ele><time>2026-04-18T08:44:27.059Z</time></trkpt><trkpt lat="43.2605817" lon="13.08201"><ele>872.5</ele><time>2026-04-18T08:44:28.06Z</time></trkpt><trkpt lat="43.2604717" lon="13.0819567"><ele>873.75</ele><time>2026-04-18T08:44:29.059Z</time></trkpt><trkpt lat="43.2603667" lon="13.0819117"><ele>875.0</ele><time>2026-04-18T08:44:30.059Z</time></trkpt><trkpt lat="43.2602583" lon="13.0818583"><ele>875.0</ele><time>2026-04-18T08:44:31.059Z</time></trkpt><trkpt lat="43.2601433" lon="13.081805"><ele>875.0</ele><time>2026-04-18T08:44:32.059Z</time></trkpt><trkpt lat="43.260035" lon="13.08175"><ele>875.0</ele><time>2026-04-18T08:44:33.059Z</time></trkpt><trkpt lat="43.2599217" lon="13.0817"><ele>875.0</ele><time>2026-04-18T08:44:34.059Z</time></trkpt><trkpt lat="43.259815" lon="13.0816417"><ele>872.0</ele><time>2026-04-18T08:44:35.058Z</time></trkpt><trkpt lat="43.2597067" lon="13.081585"><ele>869.0</ele><time>2026-04-18T08:44:36.058Z</time></trkpt><trkpt lat="43.2595917" lon="13.08152"><ele>866.0</ele><time>2026-04-18T08:44:37.058Z</time></trkpt><trkpt lat="43.2594867" lon="13.0814633"><ele>863.0</ele><time>2026-04-18T08:44:38.058Z</time></trkpt><trkpt lat="43.2593867" lon="13.0814033"><ele>863.0</ele><time>2026-04-18T08:44:39.058Z</time></trkpt><trkpt lat="43.2592783" lon="13.0813367"><ele>863.0</ele><time>2026-04-18T08:44:40.059Z</time></trkpt><trkpt lat="43.2591717" lon="13.0812767"><ele>863.0</ele><time>2026-04-18T08:44:41.058Z</time></trkpt><trkpt lat="43.259075" lon="13.0812167"><ele>863.0</ele><time>2026-04-18T08:44:42.058Z</time></trkpt><trkpt lat="43.2589683" lon="13.0811633"><ele>863.4</ele><time>2026-04-18T08:44:43.058Z</time></trkpt><trkpt lat="43.258875" lon="13.0811233"><ele>863.8</ele><time>2026-04-18T08:44:44.058Z</time></trkpt><trkpt lat="43.258785" lon="13.0810983"><ele>864.2</ele><time>2026-04-18T08:44:45.058Z</time></trkpt><trkpt lat="43.2586917" lon="13.08109"><ele>864.6</ele><time>2026-04-18T08:44:46.058Z</time></trkpt><trkpt lat="43.2586" lon="13.081085"><ele>865.0</ele><time>2026-04-18T08:44:47.058Z</time></trkpt><trkpt lat="43.2585" lon="13.0810867"><ele>865.0</ele><time>2026-04-18T08:44:48.059Z</time></trkpt><trkpt lat="43.2583967" lon="13.0810917"><ele>865.0</ele><time>2026-04-18T08:44:49.058Z</time></trkpt><trkpt lat="43.2582883" lon="13.081095"><ele>865.0</ele><time>2026-04-18T08:44:50.058Z</time></trkpt><trkpt lat="43.2581733" lon="13.0810967"><ele>865.0</ele><time>2026-04-18T08:44:51.059Z</time></trkpt><trkpt lat="43.2580633" lon="13.0811083"><ele>865.0</ele><time>2026-04-18T08:44:52.058Z</time></trkpt><trkpt lat="43.2579533" lon="13.0811167"><ele>863.6</ele><time>2026-04-18T08:44:53.059Z</time></trkpt><trkpt lat="43.2578433" lon="13.08112"><ele>862.2</ele><time>2026-04-18T08:44:54.059Z</time></trkpt><trkpt lat="43.2577367" lon="13.0811267"><ele>860.8</ele><time>2026-04-18T08:44:55.058Z</time></trkpt><trkpt lat="43.257625" lon="13.081135"><ele>859.4</ele><time>2026-04-18T08:44:56.059Z</time></trkpt><trkpt lat="43.257515" lon="13.0811367"><ele>858.0</ele><time>2026-04-18T08:44:57.058Z</time></trkpt><trkpt lat="43.257405" lon="13.0811467"><ele>858.0</ele><time>2026-04-18T08:44:58.058Z</time></trkpt><trkpt lat="43.2572983" lon="13.081155"><ele>858.0</ele><time>2026-04-18T08:44:59.058Z</time></trkpt><trkpt lat="43.2572067" lon="13.081165"><ele>858.0</ele><time>2026-04-18T08:45:00.058Z</time></trkpt><trkpt lat="43.2571217" lon="13.0811767"><ele>858.0</ele><time>2026-04-18T08:45:01.058Z</time></trkpt><trkpt lat="43.2570467" lon="13.0811933"><ele>858.0</ele><time>2026-04-18T08:45:02.058Z</time></trkpt><trkpt lat="43.2569817" lon="13.0812117"><ele>858.0</ele><time>2026-04-18T08:45:03.059Z</time></trkpt><trkpt lat="43.2568717" lon="13.081255"><ele>856.2</ele><time>2026-04-18T08:45:05.059Z</time></trkpt><trkpt lat="43.2567883" lon="13.08123"><ele>854.4</ele><time>2026-04-18T08:45:07.058Z</time></trkpt><trkpt lat="43.25673" lon="13.0811417"><ele>852.6</ele><time>2026-04-18T08:45:09.058Z</time></trkpt><trkpt lat="43.2567367" lon="13.0810033"><ele>850.8000000000001</ele><time>2026-04-18T08:45:11.059Z</time></trkpt><trkpt lat="43.25681" lon="13.0808783"><ele>849.0</ele><time>2026-04-18T08:45:13.058Z</time></trkpt><trkpt lat="43.2568667" lon="13.0808067"><ele>846.8333333333334</ele><time>2026-04-18T08:45:14.058Z</time></trkpt><trkpt lat="43.2569283" lon="13.0807283"><ele>844.6666666666667</ele><time>2026-04-18T08:45:15.058Z</time></trkpt><trkpt lat="43.2569883" lon="13.08065"><ele>842.5</ele><time>2026-04-18T08:45:16.058Z</time></trkpt><trkpt lat="43.2570533" lon="13.0805683"><ele>840.3333333333334</ele><time>2026-04-18T08:45:17.058Z</time></trkpt><trkpt lat="43.2571217" lon="13.0804833"><ele>838.1666666666667</ele><time>2026-04-18T08:45:18.059Z</time></trkpt><trkpt lat="43.2571967" lon="13.08041"><ele>836.0</ele><time>2026-04-18T08:45:19.058Z</time></trkpt><trkpt lat="43.257275" lon="13.0803333"><ele>837.5999999999999</ele><time>2026-04-18T08:45:20.059Z</time></trkpt><trkpt lat="43.25735" lon="13.080265"><ele>839.2</ele><time>2026-04-18T08:45:21.058Z</time></trkpt><trkpt lat="43.2574333" lon="13.0802067"><ele>840.8</ele><time>2026-04-18T08:45:22.058Z</time></trkpt><trkpt lat="43.25752" lon="13.0801483"><ele>842.4000000000001</ele><time>2026-04-18T08:45:23.058Z</time></trkpt><trkpt lat="43.2575983" lon="13.0801"><ele>844.0</ele><time>2026-04-18T08:45:24.058Z</time></trkpt><trkpt lat="43.2576767" lon="13.0800383"><ele>844.0</ele><time>2026-04-18T08:45:25.058Z</time></trkpt><trkpt lat="43.2577517" lon="13.0799683"><ele>844.0</ele><time>2026-04-18T08:45:26.058Z</time></trkpt><trkpt lat="43.2578183" lon="13.0798817"><ele>844.0</ele><time>2026-04-18T08:45:27.058Z</time></trkpt><trkpt lat="43.25788" lon="13.079795"><ele>844.0</ele><time>2026-04-18T08:45:28.058Z</time></trkpt><trkpt lat="43.25794" lon="13.0797033"><ele>844.0</ele><time>2026-04-18T08:45:29.058Z</time></trkpt><trkpt lat="43.2580133" lon="13.0796333"><ele>840.8000000000001</ele><time>2026-04-18T08:45:30.058Z</time></trkpt><trkpt lat="43.258095" lon="13.0795733"><ele>837.6</ele><time>2026-04-18T08:45:31.059Z</time></trkpt><trkpt lat="43.2581783" lon="13.0795217"><ele>834.4</ele><time>2026-04-18T08:45:32.058Z</time></trkpt><trkpt lat="43.2582667" lon="13.0794767"><ele>831.2</ele><time>2026-04-18T08:45:33.058Z</time></trkpt><trkpt lat="43.25835" lon="13.0794367"><ele>828.0</ele><time>2026-04-18T08:45:34.058Z</time></trkpt><trkpt lat="43.2584383" lon="13.079385"><ele>828.0</ele><time>2026-04-18T08:45:35.059Z</time></trkpt><trkpt lat="43.2585233" lon="13.079335"><ele>828.0</ele><time>2026-04-18T08:45:36.058Z</time></trkpt><trkpt lat="43.2586033" lon="13.0792883"><ele>828.0</ele><time>2026-04-18T08:45:37.058Z</time></trkpt><trkpt lat="43.258685" lon="13.0792433"><ele>828.0</ele><time>2026-04-18T08:45:38.058Z</time></trkpt><trkpt lat="43.2587633" lon="13.0791933"><ele>828.0</ele><time>2026-04-18T08:45:39.059Z</time></trkpt><trkpt lat="43.2588517" lon="13.0791433"><ele>828.0</ele><time>2026-04-18T08:45:40.058Z</time></trkpt><trkpt lat="43.2589367" lon="13.079095"><ele>825.5</ele><time>2026-04-18T08:45:41.058Z</time></trkpt><trkpt lat="43.2590233" lon="13.0790467"><ele>823.0</ele><time>2026-04-18T08:45:42.058Z</time></trkpt><trkpt lat="43.259105" lon="13.078995"><ele>820.5</ele><time>2026-04-18T08:45:43.058Z</time></trkpt><trkpt lat="43.2591867" lon="13.0789483"><ele>818.0</ele><time>2026-04-18T08:45:44.058Z</time></trkpt><trkpt lat="43.25927" lon="13.0789117"><ele>815.5</ele><time>2026-04-18T08:45:45.058Z</time></trkpt><trkpt lat="43.25935" lon="13.078875"><ele>813.0</ele><time>2026-04-18T08:45:46.058Z</time></trkpt><trkpt lat="43.2594333" lon="13.078845"><ele>813.0</ele><time>2026-04-18T08:45:47.058Z</time></trkpt><trkpt lat="43.259515" lon="13.07882"><ele>813.0</ele><time>2026-04-18T08:45:48.058Z</time></trkpt><trkpt lat="43.2595967" lon="13.0787883"><ele>813.0</ele><time>2026-04-18T08:45:49.058Z</time></trkpt><trkpt lat="43.25968" lon="13.0787583"><ele>813.0</ele><time>2026-04-18T08:45:50.058Z</time></trkpt><trkpt lat="43.2597683" lon="13.0787217"><ele>813.0</ele><time>2026-04-18T08:45:51.058Z</time></trkpt><trkpt lat="43.2598567" lon="13.078675"><ele>813.0</ele><time>2026-04-18T08:45:52.058Z</time></trkpt><trkpt lat="43.25994" lon="13.0786333"><ele>813.0</ele><time>2026-04-18T08:45:53.058Z</time></trkpt><trkpt lat="43.2600233" lon="13.0785933"><ele>813.0</ele><time>2026-04-18T08:45:54.058Z</time></trkpt><trkpt lat="43.2601167" lon="13.0785417"><ele>813.0</ele><time>2026-04-18T08:45:55.058Z</time></trkpt><trkpt lat="43.2602133" lon="13.0784983"><ele>813.0</ele><time>2026-04-18T08:45:56.058Z</time></trkpt><trkpt lat="43.2603033" lon="13.0784567"><ele>813.0</ele><time>2026-04-18T08:45:57.059Z</time></trkpt><trkpt lat="43.2603883" lon="13.0784017"><ele>813.0</ele><time>2026-04-18T08:45:58.059Z</time></trkpt><trkpt lat="43.2604617" lon="13.07835"><ele>813.0</ele><time>2026-04-18T08:45:59.058Z</time></trkpt><trkpt lat="43.2605333" lon="13.0782983"><ele>813.0</ele><time>2026-04-18T08:46:00.058Z</time></trkpt><trkpt lat="43.2606017" lon="13.0782467"><ele>813.0</ele><time>2026-04-18T08:46:01.058Z</time></trkpt><trkpt lat="43.26066" lon="13.0782033"><ele>813.0</ele><time>2026-04-18T08:46:02.058Z</time></trkpt><trkpt lat="43.2607583" lon="13.078115"><ele>813.0</ele><time>2026-04-18T08:46:04.058Z</time></trkpt><trkpt lat="43.2607983" lon="13.07799"><ele>811.0</ele><time>2026-04-18T08:46:06.058Z</time></trkpt><trkpt lat="43.2607583" lon="13.0778633"><ele>809.0</ele><time>2026-04-18T08:46:08.058Z</time></trkpt><trkpt lat="43.2607033" lon="13.0778183"><ele>807.0</ele><time>2026-04-18T08:46:09.059Z</time></trkpt><trkpt lat="43.2606333" lon="13.0777867"><ele>805.0</ele><time>2026-04-18T08:46:10.058Z</time></trkpt><trkpt lat="43.2605583" lon="13.077765"><ele>803.0</ele><time>2026-04-18T08:46:11.058Z</time></trkpt><trkpt lat="43.2604733" lon="13.07775"><ele>801.0</ele><time>2026-04-18T08:46:12.059Z</time></trkpt><trkpt lat="43.2603933" lon="13.077725"><ele>800.3333333333334</ele><time>2026-04-18T08:46:13.058Z</time></trkpt><trkpt lat="43.26031" lon="13.07771"><ele>799.6666666666667</ele><time>2026-04-18T08:46:14.059Z</time></trkpt><trkpt lat="43.2602283" lon="13.0777033"><ele>799.0</ele><time>2026-04-18T08:46:15.058Z</time></trkpt><trkpt lat="43.2601517" lon="13.0777033"><ele>798.3333333333334</ele><time>2026-04-18T08:46:16.059Z</time></trkpt><trkpt lat="43.2600767" lon="13.0777133"><ele>797.6666666666667</ele><time>2026-04-18T08:46:17.058Z</time></trkpt><trkpt lat="43.259995" lon="13.07773"><ele>797.0</ele><time>2026-04-18T08:46:18.058Z</time></trkpt><trkpt lat="43.2599083" lon="13.0777533"><ele>797.0000000000001</ele><time>2026-04-18T08:46:19.058Z</time></trkpt><trkpt lat="43.25982" lon="13.0777767"><ele>797.0</ele><time>2026-04-18T08:46:20.058Z</time></trkpt><trkpt lat="43.25973" lon="13.0778033"><ele>797.0</ele><time>2026-04-18T08:46:21.058Z</time></trkpt><trkpt lat="43.259645" lon="13.0778333"><ele>797.0</ele><time>2026-04-18T08:46:22.058Z</time></trkpt><trkpt lat="43.25957" lon="13.0778767"><ele>797.0000000000001</ele><time>2026-04-18T08:46:23.058Z</time></trkpt><trkpt lat="43.2595017" lon="13.0779217"><ele>797.0</ele><time>2026-04-18T08:46:24.058Z</time></trkpt><trkpt lat="43.2594217" lon="13.07796"><ele>796.5000000000001</ele><time>2026-04-18T08:46:25.059Z</time></trkpt><trkpt lat="43.259345" lon="13.07798"><ele>796.0</ele><time>2026-04-18T08:46:26.058Z</time></trkpt><trkpt lat="43.25927" lon="13.07796"><ele>795.5</ele><time>2026-04-18T08:46:27.058Z</time></trkpt><trkpt lat="43.2592" lon="13.0779167"><ele>795.0</ele><time>2026-04-18T08:46:28.058Z</time></trkpt><trkpt lat="43.2591317" lon="13.0778483"><ele>794.5000000000001</ele><time>2026-04-18T08:46:29.058Z</time></trkpt><trkpt lat="43.2590667" lon="13.0777717"><ele>794.0</ele><time>2026-04-18T08:46:30.058Z</time></trkpt><trkpt lat="43.2590033" lon="13.0776933"><ele>794.6</ele><time>2026-04-18T08:46:31.059Z</time></trkpt><trkpt lat="43.2589283" lon="13.0776117"><ele>795.2</ele><time>2026-04-18T08:46:32.059Z</time></trkpt><trkpt lat="43.2588467" lon="13.0775467"><ele>795.8000000000001</ele><time>2026-04-18T08:46:33.058Z</time></trkpt><trkpt lat="43.2587583" lon="13.07749"><ele>796.4000000000001</ele><time>2026-04-18T08:46:34.058Z</time></trkpt><trkpt lat="43.25868" lon="13.0774417"><ele>797.0</ele><time>2026-04-18T08:46:35.058Z</time></trkpt><trkpt lat="43.2585983" lon="13.0773983"><ele>794.1666666666667</ele><time>2026-04-18T08:46:36.058Z</time></trkpt><trkpt lat="43.2585133" lon="13.0773533"><ele>791.3333333333334</ele><time>2026-04-18T08:46:37.059Z</time></trkpt><trkpt lat="43.2584317" lon="13.0773083"><ele>788.5</ele><time>2026-04-18T08:46:38.059Z</time></trkpt><trkpt lat="43.2583533" lon="13.077275"><ele>785.6666666666667</ele><time>2026-04-18T08:46:39.058Z</time></trkpt><trkpt lat="43.2582667" lon="13.0772417"><ele>782.8333333333334</ele><time>2026-04-18T08:46:40.058Z</time></trkpt><trkpt lat="43.25818" lon="13.0772183"><ele>780.0</ele><time>2026-04-18T08:46:41.059Z</time></trkpt><trkpt lat="43.2580933" lon="13.0771917"><ele>779.6</ele><time>2026-04-18T08:46:42.059Z</time></trkpt><trkpt lat="43.2580083" lon="13.0771617"><ele>779.2</ele><time>2026-04-18T08:46:43.059Z</time></trkpt><trkpt lat="43.2579183" lon="13.0771317"><ele>778.8</ele><time>2026-04-18T08:46:44.058Z</time></trkpt><trkpt lat="43.2578317" lon="13.077095"><ele>778.4</ele><time>2026-04-18T08:46:45.058Z</time></trkpt><trkpt lat="43.2577483" lon="13.0770533"><ele>778.0</ele><time>2026-04-18T08:46:46.058Z</time></trkpt><trkpt lat="43.2576567" lon="13.077005"><ele>778.0</ele><time>2026-04-18T08:46:47.058Z</time></trkpt><trkpt lat="43.25757" lon="13.0769683"><ele>778.0</ele><time>2026-04-18T08:46:48.058Z</time></trkpt><trkpt lat="43.25748" lon="13.0769283"><ele>778.0</ele><time>2026-04-18T08:46:49.059Z</time></trkpt><trkpt lat="43.25739" lon="13.076895"><ele>778.0</ele><time>2026-04-18T08:46:50.058Z</time></trkpt><trkpt lat="43.2572967" lon="13.0768567"><ele>778.0</ele><time>2026-04-18T08:46:51.058Z</time></trkpt><trkpt lat="43.2571967" lon="13.076835"><ele>777.2</ele><time>2026-04-18T08:46:52.058Z</time></trkpt><trkpt lat="43.25709" lon="13.0768167"><ele>776.4</ele><time>2026-04-18T08:46:53.058Z</time></trkpt><trkpt lat="43.2569883" lon="13.0768083"><ele>775.6</ele><time>2026-04-18T08:46:54.058Z</time></trkpt><trkpt lat="43.2568883" lon="13.076805"><ele>774.8000000000001</ele><time>2026-04-18T08:46:55.058Z</time></trkpt><trkpt lat="43.256785" lon="13.0768"><ele>774.0</ele><time>2026-04-18T08:46:56.058Z</time></trkpt><trkpt lat="43.2566833" lon="13.0767967"><ele>774.0</ele><time>2026-04-18T08:46:57.058Z</time></trkpt><trkpt lat="43.2565817" lon="13.0767883"><ele>774.0</ele><time>2026-04-18T08:46:58.058Z</time></trkpt><trkpt lat="43.25649" lon="13.076775"><ele>774.0</ele><time>2026-04-18T08:46:59.058Z</time></trkpt><trkpt lat="43.2563967" lon="13.07676"><ele>774.0</ele><time>2026-04-18T08:47:00.058Z</time></trkpt><trkpt lat="43.2563033" lon="13.0767383"><ele>774.0</ele><time>2026-04-18T08:47:01.058Z</time></trkpt><trkpt lat="43.2562083" lon="13.076715"><ele>772.4000000000001</ele><time>2026-04-18T08:47:02.058Z</time></trkpt><trkpt lat="43.2561117" lon="13.0766983"><ele>770.8</ele><time>2026-04-18T08:47:03.058Z</time></trkpt><trkpt lat="43.2560167" lon="13.076685"><ele>769.2</ele><time>2026-04-18T08:47:04.059Z</time></trkpt><trkpt lat="43.2559233" lon="13.076665"><ele>767.5999999999999</ele><time>2026-04-18T08:47:05.058Z</time></trkpt><trkpt lat="43.2558283" lon="13.0766383"><ele>766.0</ele><time>2026-04-18T08:47:06.058Z</time></trkpt><trkpt lat="43.2557333" lon="13.0766067"><ele>763.5</ele><time>2026-04-18T08:47:07.059Z</time></trkpt><trkpt lat="43.25564" lon="13.076575"><ele>761.0</ele><time>2026-04-18T08:47:08.059Z</time></trkpt><trkpt lat="43.2555533" lon="13.0765367"><ele>758.5</ele><time>2026-04-18T08:47:09.058Z</time></trkpt><trkpt lat="43.2554683" lon="13.0764983"><ele>756.0</ele><time>2026-04-18T08:47:10.059Z</time></trkpt><trkpt lat="43.25539" lon="13.076465"><ele>753.5</ele><time>2026-04-18T08:47:11.058Z</time></trkpt><trkpt lat="43.2553083" lon="13.076445"><ele>751.0</ele><time>2026-04-18T08:47:12.058Z</time></trkpt><trkpt lat="43.2552267" lon="13.0764433"><ele>751.0</ele><time>2026-04-18T08:47:13.059Z</time></trkpt><trkpt lat="43.2551433" lon="13.0764583"><ele>751.0</ele><time>2026-04-18T08:47:14.058Z</time></trkpt><trkpt lat="43.25506" lon="13.0764883"><ele>751.0</ele><time>2026-04-18T08:47:15.058Z</time></trkpt><trkpt lat="43.25498" lon="13.0765283"><ele>751.0</ele><time>2026-04-18T08:47:16.058Z</time></trkpt><trkpt lat="43.2549017" lon="13.0765817"><ele>751.0</ele><time>2026-04-18T08:47:17.059Z</time></trkpt><trkpt lat="43.2548283" lon="13.07665"><ele>751.0</ele><time>2026-04-18T08:47:18.059Z</time></trkpt><trkpt lat="43.25476" lon="13.0767217"><ele>751.0</ele><time>2026-04-18T08:47:19.059Z</time></trkpt><trkpt lat="43.25469" lon="13.0767967"><ele>751.0</ele><time>2026-04-18T08:47:20.058Z</time></trkpt><trkpt lat="43.2546167" lon="13.0768717"><ele>751.0</ele><time>2026-04-18T08:47:21.058Z</time></trkpt><trkpt lat="43.254545" lon="13.0769383"><ele>751.0</ele><time>2026-04-18T08:47:22.058Z</time></trkpt><trkpt lat="43.254475" lon="13.0770033"><ele>751.0</ele><time>2026-04-18T08:47:23.059Z</time></trkpt><trkpt lat="43.2543917" lon="13.0770717"><ele>751.0</ele><time>2026-04-18T08:47:24.058Z</time></trkpt><trkpt lat="43.2543117" lon="13.0771433"><ele>751.0</ele><time>2026-04-18T08:47:25.058Z</time></trkpt><trkpt lat="43.2542317" lon="13.07722"><ele>751.0</ele><time>2026-04-18T08:47:26.058Z</time></trkpt><trkpt lat="43.25415" lon="13.0773033"><ele>751.0</ele><time>2026-04-18T08:47:27.058Z</time></trkpt><trkpt lat="43.2540683" lon="13.07738"><ele>751.0</ele><time>2026-04-18T08:47:28.058Z</time></trkpt><trkpt lat="43.25399" lon="13.0774567"><ele>751.0</ele><time>2026-04-18T08:47:29.058Z</time></trkpt><trkpt lat="43.2539133" lon="13.0775283"><ele>750.1999999999999</ele><time>2026-04-18T08:47:30.058Z</time></trkpt><trkpt lat="43.25383" lon="13.0775967"><ele>749.4</ele><time>2026-04-18T08:47:31.058Z</time></trkpt><trkpt lat="43.25374" lon="13.0776617"><ele>748.6</ele><time>2026-04-18T08:47:32.058Z</time></trkpt><trkpt lat="43.25365" lon="13.077705"><ele>747.8</ele><time>2026-04-18T08:47:33.058Z</time></trkpt><trkpt lat="43.2535583" lon="13.0777483"><ele>747.0</ele><time>2026-04-18T08:47:34.058Z</time></trkpt><trkpt lat="43.253465" lon="13.0777683"><ele>747.0</ele><time>2026-04-18T08:47:35.058Z</time></trkpt><trkpt lat="43.253375" lon="13.0777767"><ele>747.0</ele><time>2026-04-18T08:47:36.058Z</time></trkpt><trkpt lat="43.2532833" lon="13.07777"><ele>747.0</ele><time>2026-04-18T08:47:37.058Z</time></trkpt><trkpt lat="43.253185" lon="13.07776"><ele>747.0</ele><time>2026-04-18T08:47:38.058Z</time></trkpt><trkpt lat="43.2530967" lon="13.0777517"><ele>747.0</ele><time>2026-04-18T08:47:39.058Z</time></trkpt><trkpt lat="43.2530017" lon="13.0777483"><ele>746.5</ele><time>2026-04-18T08:47:40.058Z</time></trkpt><trkpt lat="43.2529067" lon="13.0777383"><ele>746.0</ele><time>2026-04-18T08:47:41.058Z</time></trkpt><trkpt lat="43.2528133" lon="13.0777283"><ele>745.5</ele><time>2026-04-18T08:47:42.058Z</time></trkpt><trkpt lat="43.2527317" lon="13.0777133"><ele>745.0</ele><time>2026-04-18T08:47:43.058Z</time></trkpt><trkpt lat="43.2526583" lon="13.0777067"><ele>744.5</ele><time>2026-04-18T08:47:44.058Z</time></trkpt><trkpt lat="43.25259" lon="13.077705"><ele>744.0</ele><time>2026-04-18T08:47:45.058Z</time></trkpt><trkpt lat="43.2525167" lon="13.0776933"><ele>744.0</ele><time>2026-04-18T08:47:46.058Z</time></trkpt><trkpt lat="43.2524483" lon="13.077665"><ele>744.0</ele><time>2026-04-18T08:47:47.058Z</time></trkpt><trkpt lat="43.25238" lon="13.0776433"><ele>744.0</ele><time>2026-04-18T08:47:48.059Z</time></trkpt><trkpt lat="43.2522717" lon="13.0776"><ele>744.0</ele><time>2026-04-18T08:47:50.058Z</time></trkpt><trkpt lat="43.2521717" lon="13.077565"><ele>744.0</ele><time>2026-04-18T08:47:52.058Z</time></trkpt><trkpt lat="43.2520533" lon="13.0775133"><ele>742.8333333333334</ele><time>2026-04-18T08:47:54.058Z</time></trkpt><trkpt lat="43.251985" lon="13.077475"><ele>741.6666666666666</ele><time>2026-04-18T08:47:55.058Z</time></trkpt><trkpt lat="43.2519167" lon="13.0774317"><ele>740.5</ele><time>2026-04-18T08:47:56.059Z</time></trkpt><trkpt lat="43.2518533" lon="13.0773867"><ele>739.3333333333333</ele><time>2026-04-18T08:47:57.059Z</time></trkpt><trkpt lat="43.2517583" lon="13.0772883"><ele>738.1666666666666</ele><time>2026-04-18T08:47:59.058Z</time></trkpt><trkpt lat="43.2517083" lon="13.077155"><ele>737.0</ele><time>2026-04-18T08:48:01.058Z</time></trkpt><trkpt lat="43.2516983" lon="13.07699"><ele>734.6</ele><time>2026-04-18T08:48:03.058Z</time></trkpt><trkpt lat="43.2517233" lon="13.07681"><ele>732.2</ele><time>2026-04-18T08:48:05.058Z</time></trkpt><trkpt lat="43.251755" lon="13.0766967"><ele>729.8</ele><time>2026-04-18T08:48:06.059Z</time></trkpt><trkpt lat="43.2517833" lon="13.0765767"><ele>727.4</ele><time>2026-04-18T08:48:07.058Z</time></trkpt><trkpt lat="43.25182" lon="13.0764533"><ele>725.0</ele><time>2026-04-18T08:48:08.058Z</time></trkpt><trkpt lat="43.2518583" lon="13.0763283"><ele>723.2</ele><time>2026-04-18T08:48:09.058Z</time></trkpt><trkpt lat="43.251885" lon="13.0762033"><ele>721.4</ele><time>2026-04-18T08:48:10.059Z</time></trkpt><trkpt lat="43.2519133" lon="13.07608"><ele>719.5999999999999</ele><time>2026-04-18T08:48:11.059Z</time></trkpt><trkpt lat="43.2519433" lon="13.0759617"><ele>717.8</ele><time>2026-04-18T08:48:12.059Z</time></trkpt><trkpt lat="43.25197" lon="13.0758383"><ele>716.0</ele><time>2026-04-18T08:48:13.058Z</time></trkpt><trkpt lat="43.25199" lon="13.0757233"><ele>714.1666666666666</ele><time>2026-04-18T08:48:14.058Z</time></trkpt><trkpt lat="43.2520117" lon="13.075605"><ele>712.3333333333333</ele><time>2026-04-18T08:48:15.058Z</time></trkpt><trkpt lat="43.25204" lon="13.0754883"><ele>710.5</ele><time>2026-04-18T08:48:16.059Z</time></trkpt><trkpt lat="43.2520533" lon="13.07538"><ele>708.6666666666666</ele><time>2026-04-18T08:48:17.059Z</time></trkpt><trkpt lat="43.2520733" lon="13.0752717"><ele>706.8333333333334</ele><time>2026-04-18T08:48:18.059Z</time></trkpt><trkpt lat="43.2521033" lon="13.0751633"><ele>705.0</ele><time>2026-04-18T08:48:19.059Z</time></trkpt><trkpt lat="43.2521367" lon="13.07506"><ele>705.0</ele><time>2026-04-18T08:48:20.058Z</time></trkpt><trkpt lat="43.25218" lon="13.0749583"><ele>705.0</ele><time>2026-04-18T08:48:21.059Z</time></trkpt><trkpt lat="43.2522317" lon="13.0748567"><ele>705.0</ele><time>2026-04-18T08:48:22.059Z</time></trkpt><trkpt lat="43.252285" lon="13.07476"><ele>705.0</ele><time>2026-04-18T08:48:23.058Z</time></trkpt><trkpt lat="43.2523467" lon="13.0746667"><ele>705.0</ele><time>2026-04-18T08:48:24.058Z</time></trkpt><trkpt lat="43.25242" lon="13.0745767"><ele>705.0</ele><time>2026-04-18T08:48:25.058Z</time></trkpt><trkpt lat="43.252495" lon="13.0745"><ele>705.0</ele><time>2026-04-18T08:48:26.058Z</time></trkpt><trkpt lat="43.2525667" lon="13.07442"><ele>705.0</ele><time>2026-04-18T08:48:27.058Z</time></trkpt><trkpt lat="43.2526433" lon="13.0743317"><ele>705.0</ele><time>2026-04-18T08:48:28.059Z</time></trkpt><trkpt lat="43.2527217" lon="13.0742367"><ele>705.0</ele><time>2026-04-18T08:48:29.058Z</time></trkpt><trkpt lat="43.2527917" lon="13.07414"><ele>704.2</ele><time>2026-04-18T08:48:30.058Z</time></trkpt><trkpt lat="43.2528633" lon="13.0740383"><ele>703.4</ele><time>2026-04-18T08:48:31.058Z</time></trkpt><trkpt lat="43.2529317" lon="13.0739483"><ele>702.5999999999999</ele><time>2026-04-18T08:48:32.059Z</time></trkpt><trkpt lat="43.253005" lon="13.0738567"><ele>701.8</ele><time>2026-04-18T08:48:33.058Z</time></trkpt><trkpt lat="43.2530767" lon="13.0737717"><ele>701.0</ele><time>2026-04-18T08:48:34.058Z</time></trkpt><trkpt lat="43.2531467" lon="13.07368"><ele>701.0</ele><time>2026-04-18T08:48:35.058Z</time></trkpt><trkpt lat="43.2532217" lon="13.07359"><ele>701.0</ele><time>2026-04-18T08:48:36.059Z</time></trkpt><trkpt lat="43.2532933" lon="13.0735033"><ele>701.0</ele><time>2026-04-18T08:48:37.059Z</time></trkpt><trkpt lat="43.253365" lon="13.0734133"><ele>701.0</ele><time>2026-04-18T08:48:38.058Z</time></trkpt><trkpt lat="43.2534333" lon="13.0733267"><ele>701.0</ele><time>2026-04-18T08:48:39.058Z</time></trkpt><trkpt lat="43.2535083" lon="13.0732417"><ele>698.4</ele><time>2026-04-18T08:48:40.058Z</time></trkpt><trkpt lat="43.2535867" lon="13.073155"><ele>695.8</ele><time>2026-04-18T08:48:41.058Z</time></trkpt><trkpt lat="43.2536717" lon="13.0730717"><ele>693.1999999999999</ele><time>2026-04-18T08:48:42.058Z</time></trkpt><trkpt lat="43.2537583" lon="13.0729967"><ele>690.5999999999999</ele><time>2026-04-18T08:48:43.058Z</time></trkpt><trkpt lat="43.25384" lon="13.07293"><ele>688.0</ele><time>2026-04-18T08:48:44.058Z</time></trkpt><trkpt lat="43.2539183" lon="13.07287"><ele>688.8</ele><time>2026-04-18T08:48:45.058Z</time></trkpt><trkpt lat="43.2540067" lon="13.0728117"><ele>689.5999999999999</ele><time>2026-04-18T08:48:46.058Z</time></trkpt><trkpt lat="43.254095" lon="13.072755"><ele>690.4000000000001</ele><time>2026-04-18T08:48:47.058Z</time></trkpt><trkpt lat="43.2541883" lon="13.0726967"><ele>691.2</ele><time>2026-04-18T08:48:48.059Z</time></trkpt><trkpt lat="43.2542783" lon="13.0726417"><ele>692.0</ele><time>2026-04-18T08:48:49.058Z</time></trkpt><trkpt lat="43.254365" lon="13.072585"><ele>692.0</ele><time>2026-04-18T08:48:50.058Z</time></trkpt><trkpt lat="43.2544433" lon="13.0725433"><ele>692.0</ele><time>2026-04-18T08:48:51.059Z</time></trkpt><trkpt lat="43.254515" lon="13.07251"><ele>692.0</ele><time>2026-04-18T08:48:52.058Z</time></trkpt><trkpt lat="43.2546217" lon="13.072455"><ele>692.0</ele><time>2026-04-18T08:48:54.059Z</time></trkpt><trkpt lat="43.254705" lon="13.0723767"><ele>692.0</ele><time>2026-04-18T08:48:56.058Z</time></trkpt><trkpt lat="43.254735" lon="13.0722417"><ele>689.6666666666666</ele><time>2026-04-18T08:48:58.059Z</time></trkpt><trkpt lat="43.2546667" lon="13.07215"><ele>687.3333333333333</ele><time>2026-04-18T08:49:00.058Z</time></trkpt><trkpt lat="43.2546017" lon="13.07213"><ele>685.0</ele><time>2026-04-18T08:49:01.058Z</time></trkpt><trkpt lat="43.2545167" lon="13.0721317"><ele>682.6666666666666</ele><time>2026-04-18T08:49:02.058Z</time></trkpt><trkpt lat="43.2544283" lon="13.0721433"><ele>680.3333333333334</ele><time>2026-04-18T08:49:03.058Z</time></trkpt><trkpt lat="43.2543367" lon="13.0721517"><ele>678.0</ele><time>2026-04-18T08:49:04.058Z</time></trkpt><trkpt lat="43.254245" lon="13.072165"><ele>678.0</ele><time>2026-04-18T08:49:05.058Z</time></trkpt><trkpt lat="43.2541533" lon="13.0721783"><ele>678.0</ele><time>2026-04-18T08:49:06.058Z</time></trkpt><trkpt lat="43.2540717" lon="13.0721783"><ele>678.0</ele><time>2026-04-18T08:49:07.058Z</time></trkpt><trkpt lat="43.2539883" lon="13.07216"><ele>678.0</ele><time>2026-04-18T08:49:08.059Z</time></trkpt><trkpt lat="43.2539033" lon="13.0721433"><ele>678.0</ele><time>2026-04-18T08:49:09.058Z</time></trkpt><trkpt lat="43.2538133" lon="13.072115"><ele>678.0</ele><time>2026-04-18T08:49:10.058Z</time></trkpt><trkpt lat="43.2537233" lon="13.0720817"><ele>677.6666666666666</ele><time>2026-04-18T08:49:11.058Z</time></trkpt><trkpt lat="43.2536367" lon="13.07205"><ele>677.3333333333334</ele><time>2026-04-18T08:49:12.058Z</time></trkpt><trkpt lat="43.2535567" lon="13.0720167"><ele>677.0</ele><time>2026-04-18T08:49:13.058Z</time></trkpt><trkpt lat="43.25349" lon="13.0719883"><ele>676.6666666666667</ele><time>2026-04-18T08:49:14.058Z</time></trkpt><trkpt lat="43.2533833" lon="13.071945"><ele>676.3333333333334</ele><time>2026-04-18T08:49:16.058Z</time></trkpt><trkpt lat="43.253315" lon="13.0719033"><ele>676.0</ele><time>2026-04-18T08:49:19.058Z</time></trkpt><trkpt lat="43.25326" lon="13.0718233"><ele>676.0</ele><time>2026-04-18T08:49:22.058Z</time></trkpt><trkpt lat="43.253225" lon="13.0716933"><ele>676.0</ele><time>2026-04-18T08:49:24.059Z</time></trkpt><trkpt lat="43.2531933" lon="13.0715183"><ele>676.0</ele><time>2026-04-18T08:49:26.059Z</time></trkpt><trkpt lat="43.2531783" lon="13.0714133"><ele>676.0</ele><time>2026-04-18T08:49:27.059Z</time></trkpt><trkpt lat="43.25316" lon="13.0713"><ele>676.0</ele><time>2026-04-18T08:49:28.059Z</time></trkpt><trkpt lat="43.253145" lon="13.0712017"><ele>674.0</ele><time>2026-04-18T08:49:29.058Z</time></trkpt><trkpt lat="43.253135" lon="13.0711133"><ele>672.0</ele><time>2026-04-18T08:49:30.058Z</time></trkpt><trkpt lat="43.2531517" lon="13.0709667"><ele>670.0</ele><time>2026-04-18T08:49:32.058Z</time></trkpt><trkpt lat="43.2532167" lon="13.0708533"><ele>668.0</ele><time>2026-04-18T08:49:34.059Z</time></trkpt><trkpt lat="43.2533" lon="13.0708033"><ele>666.0</ele><time>2026-04-18T08:49:36.058Z</time></trkpt><trkpt lat="43.2533767" lon="13.0708333"><ele>664.0</ele><time>2026-04-18T08:49:38.058Z</time></trkpt><trkpt lat="43.2534467" lon="13.0709367"><ele>664.0</ele><time>2026-04-18T08:49:40.058Z</time></trkpt><trkpt lat="43.2535195" lon="13.0710555"><ele>664.0</ele><time>2026-04-18T08:49:42.059Z</time></trkpt><trkpt lat="43.2535849" lon="13.0711144"><ele>664.0</ele><time>2026-04-18T08:49:44.058Z</time></trkpt><trkpt lat="43.2536383" lon="13.0710683"><ele>664.0</ele><time>2026-04-18T08:49:46.058Z</time></trkpt><trkpt lat="43.253645" lon="13.0709517"><ele>664.0</ele><time>2026-04-18T08:49:49.058Z</time></trkpt><trkpt lat="43.253585" lon="13.0708633"><ele>664.0</ele><time>2026-04-18T08:49:52.058Z</time></trkpt><trkpt lat="43.2535467" lon="13.0707817"><ele>659.6</ele><time>2026-04-18T08:49:54.059Z</time></trkpt><trkpt lat="43.25349" lon="13.0706717"><ele>655.2</ele><time>2026-04-18T08:49:56.058Z</time></trkpt><trkpt lat="43.253435" lon="13.0705567"><ele>650.8000000000001</ele><time>2026-04-18T08:49:58.058Z</time></trkpt><trkpt lat="43.253375" lon="13.0704317"><ele>646.4000000000001</ele><time>2026-04-18T08:50:00.058Z</time></trkpt><trkpt lat="43.2533217" lon="13.0702967"><ele>642.0</ele><time>2026-04-18T08:50:02.058Z</time></trkpt><trkpt lat="43.2532583" lon="13.0701667"><ele>642.0</ele><time>2026-04-18T08:50:04.057Z</time></trkpt><trkpt lat="43.2531717" lon="13.070085"><ele>642.0</ele><time>2026-04-18T08:50:06.057Z</time></trkpt><trkpt lat="43.2530783" lon="13.0700367"><ele>642.0</ele><time>2026-04-18T08:50:08.057Z</time></trkpt><trkpt lat="43.2529967" lon="13.070035"><ele>642.0</ele><time>2026-04-18T08:50:10.057Z</time></trkpt><trkpt lat="43.2529217" lon="13.0700533"><ele>642.0</ele><time>2026-04-18T08:50:12.058Z</time></trkpt><trkpt lat="43.2528783" lon="13.0699617"><ele>642.0</ele><time>2026-04-18T08:50:15.057Z</time></trkpt><trkpt lat="43.2529083" lon="13.0698617"><ele>637.6</ele><time>2026-04-18T08:50:17.057Z</time></trkpt><trkpt lat="43.2529833" lon="13.0697967"><ele>633.2</ele><time>2026-04-18T08:50:19.058Z</time></trkpt><trkpt lat="43.2530817" lon="13.069765"><ele>628.8</ele><time>2026-04-18T08:50:21.057Z</time></trkpt><trkpt lat="43.2531983" lon="13.0697617"><ele>624.4</ele><time>2026-04-18T08:50:23.058Z</time></trkpt><trkpt lat="43.2532633" lon="13.0697683"><ele>620.0</ele><time>2026-04-18T08:50:24.058Z</time></trkpt><trkpt lat="43.25336" lon="13.06977"><ele>620.0</ele><time>2026-04-18T08:50:26.058Z</time></trkpt><trkpt lat="43.2534117" lon="13.0697033"><ele>620.0</ele><time>2026-04-18T08:50:28.058Z</time></trkpt><trkpt lat="43.2533783" lon="13.0695767"><ele>620.0</ele><time>2026-04-18T08:50:31.057Z</time></trkpt><trkpt lat="43.2532917" lon="13.0695217"><ele>620.0</ele><time>2026-04-18T08:50:33.057Z</time></trkpt><trkpt lat="43.25318" lon="13.0694633"><ele>620.0</ele><time>2026-04-18T08:50:35.057Z</time></trkpt><trkpt lat="43.2531217" lon="13.0694267"><ele>620.0</ele><time>2026-04-18T08:50:36.057Z</time></trkpt><trkpt lat="43.253055" lon="13.0693833"><ele>619.5714285714286</ele><time>2026-04-18T08:50:37.058Z</time></trkpt><trkpt lat="43.2529883" lon="13.069345"><ele>619.1428571428571</ele><time>2026-04-18T08:50:38.057Z</time></trkpt><trkpt lat="43.25292" lon="13.0693133"><ele>618.7142857142858</ele><time>2026-04-18T08:50:39.058Z</time></trkpt><trkpt lat="43.2528533" lon="13.0692867"><ele>618.2857142857142</ele><time>2026-04-18T08:50:40.057Z</time></trkpt><trkpt lat="43.25279" lon="13.0692583"><ele>617.8571428571428</ele><time>2026-04-18T08:50:41.057Z</time></trkpt><trkpt lat="43.2527283" lon="13.0692283"><ele>617.4285714285714</ele><time>2026-04-18T08:50:42.057Z</time></trkpt><trkpt lat="43.2526667" lon="13.0692067"><ele>617.0</ele><time>2026-04-18T08:50:43.057Z</time></trkpt><trkpt lat="43.2525617" lon="13.0691567"><ele>617.0</ele><time>2026-04-18T08:50:45.057Z</time></trkpt><trkpt lat="43.2524617" lon="13.069115"><ele>617.0</ele><time>2026-04-18T08:50:47.057Z</time></trkpt><trkpt lat="43.25237" lon="13.0690567"><ele>617.0</ele><time>2026-04-18T08:50:49.058Z</time></trkpt><trkpt lat="43.2523" lon="13.06896"><ele>617.0</ele><time>2026-04-18T08:50:51.057Z</time></trkpt><trkpt lat="43.252225" lon="13.0688567"><ele>617.0</ele><time>2026-04-18T08:50:53.057Z</time></trkpt><trkpt lat="43.252145" lon="13.068735"><ele>612.1666666666666</ele><time>2026-04-18T08:50:55.057Z</time></trkpt><trkpt lat="43.2521017" lon="13.0686683"><ele>607.3333333333333</ele><time>2026-04-18T08:50:56.057Z</time></trkpt><trkpt lat="43.2520533" lon="13.0686033"><ele>602.5</ele><time>2026-04-18T08:50:57.057Z</time></trkpt><trkpt lat="43.2519917" lon="13.068455"><ele>597.6666666666666</ele><time>2026-04-18T08:50:59.057Z</time></trkpt><trkpt lat="43.2519633" lon="13.068365"><ele>592.8333333333334</ele><time>2026-04-18T08:51:00.057Z</time></trkpt><trkpt lat="43.251945" lon="13.068275"><ele>588.0</ele><time>2026-04-18T08:51:01.058Z</time></trkpt><trkpt lat="43.251925" lon="13.06818"><ele>587.8571428571429</ele><time>2026-04-18T08:51:02.058Z</time></trkpt><trkpt lat="43.2519" lon="13.0680817"><ele>587.7142857142858</ele><time>2026-04-18T08:51:03.057Z</time></trkpt><trkpt lat="43.25187" lon="13.0679933"><ele>587.5714285714286</ele><time>2026-04-18T08:51:04.057Z</time></trkpt><trkpt lat="43.2518317" lon="13.0679167"><ele>587.4285714285714</ele><time>2026-04-18T08:51:05.058Z</time></trkpt><trkpt lat="43.2517933" lon="13.06783"><ele>587.2857142857143</ele><time>2026-04-18T08:51:06.057Z</time></trkpt><trkpt lat="43.251755" lon="13.06776"><ele>587.1428571428571</ele><time>2026-04-18T08:51:07.057Z</time></trkpt><trkpt lat="43.2517167" lon="13.0676867"><ele>587.0</ele><time>2026-04-18T08:51:08.057Z</time></trkpt><trkpt lat="43.2516733" lon="13.0676133"><ele>587.0</ele><time>2026-04-18T08:51:09.057Z</time></trkpt><trkpt lat="43.2515967" lon="13.06749"><ele>587.0</ele><time>2026-04-18T08:51:11.057Z</time></trkpt><trkpt lat="43.2515483" lon="13.0674233"><ele>587.0</ele><time>2026-04-18T08:51:12.057Z</time></trkpt><trkpt lat="43.2515" lon="13.067355"><ele>587.0</ele><time>2026-04-18T08:51:13.057Z</time></trkpt><trkpt lat="43.2514233" lon="13.067225"><ele>587.0</ele><time>2026-04-18T08:51:15.057Z</time></trkpt><trkpt lat="43.2513583" lon="13.067095"><ele>587.4</ele><time>2026-04-18T08:51:17.058Z</time></trkpt><trkpt lat="43.2512983" lon="13.0669517"><ele>587.8000000000001</ele><time>2026-04-18T08:51:19.057Z</time></trkpt><trkpt lat="43.2512317" lon="13.0668133"><ele>588.2</ele><time>2026-04-18T08:51:21.057Z</time></trkpt><trkpt lat="43.251195" lon="13.066735"><ele>588.6</ele><time>2026-04-18T08:51:22.058Z</time></trkpt><trkpt lat="43.251125" lon="13.066585"><ele>589.0</ele><time>2026-04-18T08:51:24.057Z</time></trkpt><trkpt lat="43.2510867" lon="13.0665067"><ele>587.5</ele><time>2026-04-18T08:51:25.057Z</time></trkpt><trkpt lat="43.2510533" lon="13.0664333"><ele>586.0</ele><time>2026-04-18T08:51:26.057Z</time></trkpt><trkpt lat="43.2509867" lon="13.06629"><ele>584.5</ele><time>2026-04-18T08:51:28.058Z</time></trkpt><trkpt lat="43.250955" lon="13.0662083"><ele>583.0</ele><time>2026-04-18T08:51:29.057Z</time></trkpt><trkpt lat="43.2509317" lon="13.0661217"><ele>581.5</ele><time>2026-04-18T08:51:30.057Z</time></trkpt><trkpt lat="43.25091" lon="13.06604"><ele>580.0</ele><time>2026-04-18T08:51:31.057Z</time></trkpt><trkpt lat="43.2508833" lon="13.0659483"><ele>580.0</ele><time>2026-04-18T08:51:32.057Z</time></trkpt><trkpt lat="43.2508617" lon="13.0658617"><ele>580.0</ele><time>2026-04-18T08:51:33.058Z</time></trkpt><trkpt lat="43.250845" lon="13.0657667"><ele>580.0</ele><time>2026-04-18T08:51:34.058Z</time></trkpt><trkpt lat="43.25082" lon="13.065675"><ele>580.0</ele><time>2026-04-18T08:51:35.057Z</time></trkpt><trkpt lat="43.2507967" lon="13.06559"><ele>580.0</ele><time>2026-04-18T08:51:36.057Z</time></trkpt><trkpt lat="43.250775" lon="13.065495"><ele>580.0</ele><time>2026-04-18T08:51:37.057Z</time></trkpt><trkpt lat="43.2507467" lon="13.0653983"><ele>580.0</ele><time>2026-04-18T08:51:38.057Z</time></trkpt><trkpt lat="43.2507233" lon="13.0653033"><ele>578.8</ele><time>2026-04-18T08:51:39.058Z</time></trkpt><trkpt lat="43.2507033" lon="13.06521"><ele>577.6</ele><time>2026-04-18T08:51:40.057Z</time></trkpt><trkpt lat="43.25066" lon="13.0650433"><ele>576.4</ele><time>2026-04-18T08:51:42.058Z</time></trkpt><trkpt lat="43.2506433" lon="13.0649483"><ele>575.2</ele><time>2026-04-18T08:51:43.057Z</time></trkpt><trkpt lat="43.2506233" lon="13.064855"><ele>574.0</ele><time>2026-04-18T08:51:44.057Z</time></trkpt><trkpt lat="43.2506117" lon="13.064685"><ele>572.3333333333334</ele><time>2026-04-18T08:51:46.057Z</time></trkpt><trkpt lat="43.250605" lon="13.0645883"><ele>570.6666666666667</ele><time>2026-04-18T08:51:47.057Z</time></trkpt><trkpt lat="43.250585" lon="13.0644983"><ele>569.0</ele><time>2026-04-18T08:51:48.057Z</time></trkpt><trkpt lat="43.2505633" lon="13.0644167"><ele>567.3333333333334</ele><time>2026-04-18T08:51:49.058Z</time></trkpt><trkpt lat="43.25053" lon="13.0642633"><ele>565.6666666666666</ele><time>2026-04-18T08:51:51.058Z</time></trkpt><trkpt lat="43.2505267" lon="13.0641767"><ele>564.0</ele><time>2026-04-18T08:51:52.057Z</time></trkpt><trkpt lat="43.2505083" lon="13.0640083"><ele>564.0</ele><time>2026-04-18T08:51:54.057Z</time></trkpt><trkpt lat="43.2504933" lon="13.063915"><ele>564.0</ele><time>2026-04-18T08:51:55.057Z</time></trkpt><trkpt lat="43.2504783" lon="13.0638133"><ele>564.0</ele><time>2026-04-18T08:51:56.057Z</time></trkpt><trkpt lat="43.2504567" lon="13.063645"><ele>564.0</ele><time>2026-04-18T08:51:58.057Z</time></trkpt><trkpt lat="43.2504367" lon="13.06351"><ele>564.0</ele><time>2026-04-18T08:52:00.057Z</time></trkpt><trkpt lat="43.2504133" lon="13.06342"><ele>564.0</ele><time>2026-04-18T08:52:02.057Z</time></trkpt><trkpt lat="43.2503967" lon="13.063335"><ele>565.0</ele><time>2026-04-18T08:52:05.058Z</time></trkpt><trkpt lat="43.2503683" lon="13.063215"><ele>566.0</ele><time>2026-04-18T08:52:09.058Z</time></trkpt><trkpt lat="43.2503133" lon="13.06309"><ele>567.0</ele><time>2026-04-18T08:52:11.057Z</time></trkpt><trkpt lat="43.25027" lon="13.063005"><ele>568.0</ele><time>2026-04-18T08:52:12.057Z</time></trkpt><trkpt lat="43.2502183" lon="13.0629233"><ele>569.0</ele><time>2026-04-18T08:52:13.057Z</time></trkpt><trkpt lat="43.250155" lon="13.0628483"><ele>570.0</ele><time>2026-04-18T08:52:14.057Z</time></trkpt><trkpt lat="43.250095" lon="13.06278"><ele>570.0</ele><time>2026-04-18T08:52:15.058Z</time></trkpt><trkpt lat="43.2500267" lon="13.0627317"><ele>570.0</ele><time>2026-04-18T08:52:16.057Z</time></trkpt><trkpt lat="43.2499583" lon="13.0626933"><ele>570.0</ele><time>2026-04-18T08:52:17.057Z</time></trkpt><trkpt lat="43.2498867" lon="13.0626583"><ele>570.0</ele><time>2026-04-18T08:52:18.057Z</time></trkpt><trkpt lat="43.2498167" lon="13.06264"><ele>570.0</ele><time>2026-04-18T08:52:19.057Z</time></trkpt><trkpt lat="43.2497417" lon="13.0626283"><ele>570.0</ele><time>2026-04-18T08:52:20.057Z</time></trkpt><trkpt lat="43.2496683" lon="13.062625"><ele>570.0</ele><time>2026-04-18T08:52:21.057Z</time></trkpt><trkpt lat="43.24959" lon="13.0626267"><ele>571.25</ele><time>2026-04-18T08:52:22.057Z</time></trkpt><trkpt lat="43.2494933" lon="13.0626283"><ele>572.5</ele><time>2026-04-18T08:52:23.057Z</time></trkpt><trkpt lat="43.2493817" lon="13.06262"><ele>573.75</ele><time>2026-04-18T08:52:24.057Z</time></trkpt><trkpt lat="43.249255" lon="13.0626083"><ele>575.0</ele><time>2026-04-18T08:52:25.057Z</time></trkpt><trkpt lat="43.2491333" lon="13.062595"><ele>575.0</ele><time>2026-04-18T08:52:26.057Z</time></trkpt><trkpt lat="43.24902" lon="13.062585"><ele>575.0</ele><time>2026-04-18T08:52:27.057Z</time></trkpt><trkpt lat="43.2489217" lon="13.0625783"><ele>575.0</ele><time>2026-04-18T08:52:28.057Z</time></trkpt><trkpt lat="43.2488333" lon="13.06258"><ele>575.0</ele><time>2026-04-18T08:52:29.057Z</time></trkpt><trkpt lat="43.2487417" lon="13.0625767"><ele>575.0</ele><time>2026-04-18T08:52:30.057Z</time></trkpt><trkpt lat="43.2486567" lon="13.062585"><ele>575.8333333333333</ele><time>2026-04-18T08:52:31.057Z</time></trkpt><trkpt lat="43.2485633" lon="13.0625883"><ele>576.6666666666666</ele><time>2026-04-18T08:52:32.057Z</time></trkpt><trkpt lat="43.24847" lon="13.0626033"><ele>577.5</ele><time>2026-04-18T08:52:33.057Z</time></trkpt><trkpt lat="43.2483867" lon="13.0626167"><ele>578.3333333333334</ele><time>2026-04-18T08:52:34.057Z</time></trkpt><trkpt lat="43.2483067" lon="13.0626117"><ele>579.1666666666667</ele><time>2026-04-18T08:52:35.057Z</time></trkpt><trkpt lat="43.2482267" lon="13.062595"><ele>580.0</ele><time>2026-04-18T08:52:36.057Z</time></trkpt><trkpt lat="43.2481517" lon="13.062575"><ele>581.8</ele><time>2026-04-18T08:52:37.057Z</time></trkpt><trkpt lat="43.2480617" lon="13.062545"><ele>583.6</ele><time>2026-04-18T08:52:38.057Z</time></trkpt><trkpt lat="43.2479717" lon="13.0624917"><ele>585.4</ele><time>2026-04-18T08:52:39.057Z</time></trkpt><trkpt lat="43.2478783" lon="13.0624417"><ele>587.2</ele><time>2026-04-18T08:52:40.057Z</time></trkpt><trkpt lat="43.2477983" lon="13.0623833"><ele>589.0</ele><time>2026-04-18T08:52:41.057Z</time></trkpt><trkpt lat="43.2477233" lon="13.0623333"><ele>589.0</ele><time>2026-04-18T08:52:42.057Z</time></trkpt><trkpt lat="43.2476483" lon="13.0622867"><ele>589.0</ele><time>2026-04-18T08:52:43.057Z</time></trkpt><trkpt lat="43.247575" lon="13.0622333"><ele>589.0</ele><time>2026-04-18T08:52:44.057Z</time></trkpt><trkpt lat="43.2474933" lon="13.0621767"><ele>589.0</ele><time>2026-04-18T08:52:45.057Z</time></trkpt><trkpt lat="43.2473983" lon="13.062125"><ele>589.0</ele><time>2026-04-18T08:52:46.057Z</time></trkpt><trkpt lat="43.2473067" lon="13.06207"><ele>586.6</ele><time>2026-04-18T08:52:47.057Z</time></trkpt><trkpt lat="43.24722" lon="13.0620167"><ele>584.2</ele><time>2026-04-18T08:52:48.057Z</time></trkpt><trkpt lat="43.2471267" lon="13.0619767"><ele>581.8000000000001</ele><time>2026-04-18T08:52:49.058Z</time></trkpt><trkpt lat="43.24704" lon="13.0619383"><ele>579.4</ele><time>2026-04-18T08:52:50.057Z</time></trkpt><trkpt lat="43.246955" lon="13.061895"><ele>577.0</ele><time>2026-04-18T08:52:51.057Z</time></trkpt><trkpt lat="43.2468667" lon="13.06185"><ele>577.0</ele><time>2026-04-18T08:52:52.057Z</time></trkpt><trkpt lat="43.2467783" lon="13.061795"><ele>577.0</ele><time>2026-04-18T08:52:53.058Z</time></trkpt><trkpt lat="43.2466983" lon="13.0617583"><ele>577.0</ele><time>2026-04-18T08:52:54.057Z</time></trkpt><trkpt lat="43.2466183" lon="13.061735"><ele>577.0</ele><time>2026-04-18T08:52:55.057Z</time></trkpt><trkpt lat="43.2465433" lon="13.0617133"><ele>577.0</ele><time>2026-04-18T08:52:56.058Z</time></trkpt><trkpt lat="43.2464717" lon="13.0616833"><ele>577.0</ele><time>2026-04-18T08:52:57.057Z</time></trkpt><trkpt lat="43.2464017" lon="13.06166"><ele>576.1666666666667</ele><time>2026-04-18T08:52:58.058Z</time></trkpt><trkpt lat="43.2463367" lon="13.06164"><ele>575.3333333333334</ele><time>2026-04-18T08:52:59.057Z</time></trkpt><trkpt lat="43.2462217" lon="13.0615583"><ele>574.5</ele><time>2026-04-18T08:53:01.057Z</time></trkpt><trkpt lat="43.2461583" lon="13.0615"><ele>573.6666666666666</ele><time>2026-04-18T08:53:02.057Z</time></trkpt><trkpt lat="43.2461" lon="13.0614183"><ele>572.8333333333333</ele><time>2026-04-18T08:53:03.057Z</time></trkpt><trkpt lat="43.2460517" lon="13.0613317"><ele>572.0</ele><time>2026-04-18T08:53:04.058Z</time></trkpt><trkpt lat="43.2459983" lon="13.0612467"><ele>572.0</ele><time>2026-04-18T08:53:05.057Z</time></trkpt><trkpt lat="43.24595" lon="13.06115"><ele>572.0</ele><time>2026-04-18T08:53:06.057Z</time></trkpt><trkpt lat="43.2458983" lon="13.061055"><ele>572.0</ele><time>2026-04-18T08:53:07.058Z</time></trkpt><trkpt lat="43.2458483" lon="13.0609467"><ele>572.0</ele><time>2026-04-18T08:53:08.057Z</time></trkpt><trkpt lat="43.24579" lon="13.0608517"><ele>572.0</ele><time>2026-04-18T08:53:09.057Z</time></trkpt><trkpt lat="43.2457317" lon="13.06077"><ele>572.0</ele><time>2026-04-18T08:53:10.057Z</time></trkpt><trkpt lat="43.2456767" lon="13.0606883"><ele>568.8333333333333</ele><time>2026-04-18T08:53:11.057Z</time></trkpt><trkpt lat="43.2456183" lon="13.0606283"><ele>565.6666666666666</ele><time>2026-04-18T08:53:12.057Z</time></trkpt><trkpt lat="43.2455667" lon="13.0605733"><ele>562.5</ele><time>2026-04-18T08:53:13.057Z</time></trkpt><trkpt lat="43.24548" lon="13.0604583"><ele>559.3333333333334</ele><time>2026-04-18T08:53:15.057Z</time></trkpt><trkpt lat="43.245405" lon="13.0603317"><ele>556.1666666666667</ele><time>2026-04-18T08:53:17.057Z</time></trkpt><trkpt lat="43.2453733" lon="13.0602517"><ele>553.0</ele><time>2026-04-18T08:53:18.057Z</time></trkpt><trkpt lat="43.24534" lon="13.0601717"><ele>553.0</ele><time>2026-04-18T08:53:19.057Z</time></trkpt><trkpt lat="43.245315" lon="13.0600917"><ele>553.0</ele><time>2026-04-18T08:53:20.057Z</time></trkpt><trkpt lat="43.2452833" lon="13.0599167"><ele>553.0</ele><time>2026-04-18T08:53:22.057Z</time></trkpt><trkpt lat="43.2452717" lon="13.05983"><ele>553.0</ele><time>2026-04-18T08:53:23.057Z</time></trkpt><trkpt lat="43.2452517" lon="13.0596917"><ele>553.0</ele><time>2026-04-18T08:53:25.057Z</time></trkpt><trkpt lat="43.245185" lon="13.05964"><ele>553.0</ele><time>2026-04-18T08:53:27.057Z</time></trkpt><trkpt lat="43.2450933" lon="13.05968"><ele>553.0</ele><time>2026-04-18T08:53:29.057Z</time></trkpt><trkpt lat="43.2449967" lon="13.0597917"><ele>553.0</ele><time>2026-04-18T08:53:31.057Z</time></trkpt><trkpt lat="43.2449433" lon="13.0598617"><ele>553.0</ele><time>2026-04-18T08:53:32.057Z</time></trkpt><trkpt lat="43.2448933" lon="13.0599317"><ele>553.0</ele><time>2026-04-18T08:53:33.057Z</time></trkpt><trkpt lat="43.2448467" lon="13.0600117"><ele>553.0</ele><time>2026-04-18T08:53:34.057Z</time></trkpt><trkpt lat="43.244805" lon="13.06009"><ele>553.0</ele><time>2026-04-18T08:53:35.057Z</time></trkpt><trkpt lat="43.244765" lon="13.06016"><ele>549.0</ele><time>2026-04-18T08:53:36.057Z</time></trkpt><trkpt lat="43.24473" lon="13.060235"><ele>545.0</ele><time>2026-04-18T08:53:37.058Z</time></trkpt><trkpt lat="43.2446583" lon="13.0603567"><ele>541.0</ele><time>2026-04-18T08:53:39.057Z</time></trkpt><trkpt lat="43.244585" lon="13.060425"><ele>537.0</ele><time>2026-04-18T08:53:41.057Z</time></trkpt><trkpt lat="43.244505" lon="13.0604217"><ele>533.0</ele><time>2026-04-18T08:53:44.057Z</time></trkpt><trkpt lat="43.24449" lon="13.0602983"><ele>529.0</ele><time>2026-04-18T08:53:47.057Z</time></trkpt><trkpt lat="43.2445133" lon="13.0601533"><ele>529.0</ele><time>2026-04-18T08:53:49.057Z</time></trkpt><trkpt lat="43.24453" lon="13.06006"><ele>529.0</ele><time>2026-04-18T08:53:50.057Z</time></trkpt><trkpt lat="43.24454" lon="13.0599633"><ele>529.0</ele><time>2026-04-18T08:53:51.057Z</time></trkpt><trkpt lat="43.2445433" lon="13.0598633"><ele>529.0</ele><time>2026-04-18T08:53:52.057Z</time></trkpt><trkpt lat="43.24455" lon="13.0597583"><ele>529.0</ele><time>2026-04-18T08:53:53.057Z</time></trkpt><trkpt lat="43.24456" lon="13.0596567"><ele>529.0</ele><time>2026-04-18T08:53:54.058Z</time></trkpt><trkpt lat="43.244575" lon="13.059565"><ele>529.0</ele><time>2026-04-18T08:53:55.058Z</time></trkpt><trkpt lat="43.2446067" lon="13.0594783"><ele>528.6666666666667</ele><time>2026-04-18T08:53:56.057Z</time></trkpt><trkpt lat="43.244645" lon="13.0593883"><ele>528.3333333333334</ele><time>2026-04-18T08:53:57.058Z</time></trkpt><trkpt lat="43.2446917" lon="13.0592983"><ele>528.0</ele><time>2026-04-18T08:53:58.057Z</time></trkpt><trkpt lat="43.2447417" lon="13.0591917"><ele>527.6666666666666</ele><time>2026-04-18T08:53:59.057Z</time></trkpt><trkpt lat="43.2447933" lon="13.0590967"><ele>527.3333333333333</ele><time>2026-04-18T08:54:00.057Z</time></trkpt><trkpt lat="43.24485" lon="13.058995"><ele>527.0</ele><time>2026-04-18T08:54:01.057Z</time></trkpt><trkpt lat="43.2449" lon="13.058885"><ele>527.0</ele><time>2026-04-18T08:54:02.057Z</time></trkpt><trkpt lat="43.2449483" lon="13.05877"><ele>527.0</ele><time>2026-04-18T08:54:03.058Z</time></trkpt><trkpt lat="43.2449833" lon="13.058655"><ele>527.0</ele><time>2026-04-18T08:54:04.058Z</time></trkpt><trkpt lat="43.24501" lon="13.0585267"><ele>527.0</ele><time>2026-04-18T08:54:05.058Z</time></trkpt><trkpt lat="43.245035" lon="13.0583983"><ele>527.0</ele><time>2026-04-18T08:54:06.057Z</time></trkpt><trkpt lat="43.24507" lon="13.0582817"><ele>525.0</ele><time>2026-04-18T08:54:07.058Z</time></trkpt><trkpt lat="43.245115" lon="13.0581833"><ele>523.0</ele><time>2026-04-18T08:54:08.057Z</time></trkpt><trkpt lat="43.2451867" lon="13.0580933"><ele>521.0</ele><time>2026-04-18T08:54:09.057Z</time></trkpt><trkpt lat="43.2452533" lon="13.0580283"><ele>519.0</ele><time>2026-04-18T08:54:10.057Z</time></trkpt><trkpt lat="43.2453217" lon="13.0579617"><ele>517.0</ele><time>2026-04-18T08:54:11.057Z</time></trkpt><trkpt lat="43.2453917" lon="13.0579"><ele>515.0</ele><time>2026-04-18T08:54:12.057Z</time></trkpt><trkpt lat="43.24543" lon="13.0578117"><ele>515.0</ele><time>2026-04-18T08:54:13.058Z</time></trkpt><trkpt lat="43.2454633" lon="13.0576867"><ele>515.0</ele><time>2026-04-18T08:54:14.057Z</time></trkpt><trkpt lat="43.2454817" lon="13.0575383"><ele>515.0</ele><time>2026-04-18T08:54:15.057Z</time></trkpt><trkpt lat="43.2455133" lon="13.0573917"><ele>515.0</ele><time>2026-04-18T08:54:16.057Z</time></trkpt><trkpt lat="43.2455367" lon="13.0572533"><ele>515.0</ele><time>2026-04-18T08:54:17.057Z</time></trkpt><trkpt lat="43.245555" lon="13.0571317"><ele>515.2</ele><time>2026-04-18T08:54:18.057Z</time></trkpt><trkpt lat="43.2455683" lon="13.056995"><ele>515.4</ele><time>2026-04-18T08:54:19.058Z</time></trkpt><trkpt lat="43.245565" lon="13.0568517"><ele>515.6</ele><time>2026-04-18T08:54:20.057Z</time></trkpt><trkpt lat="43.245555" lon="13.056715"><ele>515.8</ele><time>2026-04-18T08:54:21.057Z</time></trkpt><trkpt lat="43.2455433" lon="13.0565933"><ele>516.0</ele><time>2026-04-18T08:54:22.058Z</time></trkpt><trkpt lat="43.2455333" lon="13.0564983"><ele>515.8333333333334</ele><time>2026-04-18T08:54:23.057Z</time></trkpt><trkpt lat="43.245545" lon="13.0564017"><ele>515.6666666666666</ele><time>2026-04-18T08:54:24.057Z</time></trkpt><trkpt lat="43.24557" lon="13.0563033"><ele>515.5</ele><time>2026-04-18T08:54:25.057Z</time></trkpt><trkpt lat="43.2456133" lon="13.0562117"><ele>515.3333333333333</ele><time>2026-04-18T08:54:26.057Z</time></trkpt><trkpt lat="43.24567" lon="13.05612"><ele>515.1666666666666</ele><time>2026-04-18T08:54:27.057Z</time></trkpt><trkpt lat="43.2457383" lon="13.0560117"><ele>515.0</ele><time>2026-04-18T08:54:28.057Z</time></trkpt><trkpt lat="43.2458" lon="13.0559067"><ele>515.0</ele><time>2026-04-18T08:54:29.057Z</time></trkpt><trkpt lat="43.245855" lon="13.0558"><ele>515.0</ele><time>2026-04-18T08:54:30.057Z</time></trkpt><trkpt lat="43.245905" lon="13.0556917"><ele>515.0</ele><time>2026-04-18T08:54:31.057Z</time></trkpt><trkpt lat="43.2459533" lon="13.0555717"><ele>515.0</ele><time>2026-04-18T08:54:32.057Z</time></trkpt><trkpt lat="43.2459983" lon="13.0554617"><ele>515.0</ele><time>2026-04-18T08:54:33.057Z</time></trkpt><trkpt lat="43.2460433" lon="13.055355"><ele>516.0</ele><time>2026-04-18T08:54:34.057Z</time></trkpt><trkpt lat="43.246085" lon="13.055245"><ele>517.0</ele><time>2026-04-18T08:54:35.057Z</time></trkpt><trkpt lat="43.246135" lon="13.0551417"><ele>518.0</ele><time>2026-04-18T08:54:36.057Z</time></trkpt><trkpt lat="43.2461883" lon="13.0550283"><ele>519.0</ele><time>2026-04-18T08:54:37.057Z</time></trkpt><trkpt lat="43.2462433" lon="13.0549217"><ele>520.0</ele><time>2026-04-18T08:54:38.057Z</time></trkpt><trkpt lat="43.2462883" lon="13.0548183"><ele>520.0</ele><time>2026-04-18T08:54:39.057Z</time></trkpt><trkpt lat="43.246325" lon="13.0547167"><ele>520.0</ele><time>2026-04-18T08:54:40.057Z</time></trkpt><trkpt lat="43.2463583" lon="13.0546217"><ele>520.0</ele><time>2026-04-18T08:54:41.057Z</time></trkpt><trkpt lat="43.24638" lon="13.0545283"><ele>520.0</ele><time>2026-04-18T08:54:42.057Z</time></trkpt><trkpt lat="43.2463933" lon="13.05443"><ele>520.0</ele><time>2026-04-18T08:54:43.057Z</time></trkpt><trkpt lat="43.2464067" lon="13.0543217"><ele>520.0</ele><time>2026-04-18T08:54:44.057Z</time></trkpt><trkpt lat="43.2464183" lon="13.05421"><ele>518.8333333333334</ele><time>2026-04-18T08:54:45.057Z</time></trkpt><trkpt lat="43.2464317" lon="13.054095"><ele>517.6666666666667</ele><time>2026-04-18T08:54:46.057Z</time></trkpt><trkpt lat="43.24645" lon="13.0539967"><ele>516.5</ele><time>2026-04-18T08:54:47.057Z</time></trkpt><trkpt lat="43.24652" lon="13.053845"><ele>515.3333333333334</ele><time>2026-04-18T08:54:49.057Z</time></trkpt><trkpt lat="43.2465733" lon="13.0537733"><ele>514.1666666666666</ele><time>2026-04-18T08:54:50.057Z</time></trkpt><trkpt lat="43.24663" lon="13.0537"><ele>513.0</ele><time>2026-04-18T08:54:51.057Z</time></trkpt><trkpt lat="43.2466883" lon="13.053615"><ele>511.3333333333333</ele><time>2026-04-18T08:54:52.058Z</time></trkpt><trkpt lat="43.2467433" lon="13.0535317"><ele>509.66666666666663</ele><time>2026-04-18T08:54:53.058Z</time></trkpt><trkpt lat="43.2467867" lon="13.0534483"><ele>508.0</ele><time>2026-04-18T08:54:54.058Z</time></trkpt><trkpt lat="43.246815" lon="13.05337"><ele>506.3333333333333</ele><time>2026-04-18T08:54:55.057Z</time></trkpt><trkpt lat="43.2468317" lon="13.0532117"><ele>504.66666666666663</ele><time>2026-04-18T08:54:57.057Z</time></trkpt><trkpt lat="43.24681" lon="13.053125"><ele>503.0</ele><time>2026-04-18T08:54:58.057Z</time></trkpt><trkpt lat="43.24676" lon="13.0530567"><ele>502.8333333333333</ele><time>2026-04-18T08:54:59.057Z</time></trkpt><trkpt lat="43.2466917" lon="13.0530067"><ele>502.66666666666663</ele><time>2026-04-18T08:55:00.057Z</time></trkpt><trkpt lat="43.2466067" lon="13.0529567"><ele>502.5</ele><time>2026-04-18T08:55:01.057Z</time></trkpt><trkpt lat="43.2465267" lon="13.0529033"><ele>502.33333333333337</ele><time>2026-04-18T08:55:02.057Z</time></trkpt><trkpt lat="43.2464467" lon="13.0528517"><ele>502.1666666666667</ele><time>2026-04-18T08:55:03.057Z</time></trkpt><trkpt lat="43.24637" lon="13.0528017"><ele>502.0</ele><time>2026-04-18T08:55:04.058Z</time></trkpt><trkpt lat="43.2463133" lon="13.05273"><ele>502.00000000000006</ele><time>2026-04-18T08:55:05.057Z</time></trkpt><trkpt lat="43.2462667" lon="13.05265"><ele>502.0</ele><time>2026-04-18T08:55:06.057Z</time></trkpt><trkpt lat="43.246225" lon="13.0525517"><ele>502.0</ele><time>2026-04-18T08:55:07.057Z</time></trkpt><trkpt lat="43.246185" lon="13.0524467"><ele>502.0</ele><time>2026-04-18T08:55:08.057Z</time></trkpt><trkpt lat="43.24616" lon="13.0523283"><ele>502.00000000000006</ele><time>2026-04-18T08:55:09.057Z</time></trkpt><trkpt lat="43.2461383" lon="13.0522133"><ele>502.0</ele><time>2026-04-18T08:55:10.057Z</time></trkpt><trkpt lat="43.2461183" lon="13.0520917"><ele>499.8</ele><time>2026-04-18T08:55:11.057Z</time></trkpt><trkpt lat="43.2461" lon="13.0519733"><ele>497.6</ele><time>2026-04-18T08:55:12.057Z</time></trkpt><trkpt lat="43.2460867" lon="13.0518417"><ele>495.40000000000003</ele><time>2026-04-18T08:55:13.058Z</time></trkpt><trkpt lat="43.2460867" lon="13.0517067"><ele>493.20000000000005</ele><time>2026-04-18T08:55:14.057Z</time></trkpt><trkpt lat="43.246095" lon="13.0515733"><ele>491.0</ele><time>2026-04-18T08:55:15.057Z</time></trkpt><trkpt lat="43.2461033" lon="13.0514333"><ele>489.6</ele><time>2026-04-18T08:55:16.057Z</time></trkpt><trkpt lat="43.2461183" lon="13.0513"><ele>488.20000000000005</ele><time>2026-04-18T08:55:17.058Z</time></trkpt><trkpt lat="43.24614" lon="13.0511717"><ele>486.79999999999995</ele><time>2026-04-18T08:55:18.058Z</time></trkpt><trkpt lat="43.2461617" lon="13.0510333"><ele>485.4</ele><time>2026-04-18T08:55:19.057Z</time></trkpt><trkpt lat="43.24618" lon="13.0509083"><ele>484.0</ele><time>2026-04-18T08:55:20.057Z</time></trkpt><trkpt lat="43.2461983" lon="13.0508017"><ele>482.79999999999995</ele><time>2026-04-18T08:55:21.057Z</time></trkpt><trkpt lat="43.2462217" lon="13.050685"><ele>481.59999999999997</ele><time>2026-04-18T08:55:22.057Z</time></trkpt><trkpt lat="43.2462483" lon="13.05057"><ele>480.4</ele><time>2026-04-18T08:55:23.057Z</time></trkpt><trkpt lat="43.2462583" lon="13.0504633"><ele>479.2</ele><time>2026-04-18T08:55:24.057Z</time></trkpt><trkpt lat="43.246255" lon="13.0503583"><ele>478.0</ele><time>2026-04-18T08:55:25.056Z</time></trkpt><trkpt lat="43.2461883" lon="13.0502183"><ele>478.00000000000006</ele><time>2026-04-18T08:55:27.057Z</time></trkpt><trkpt lat="43.2461267" lon="13.050175"><ele>478.0</ele><time>2026-04-18T08:55:28.056Z</time></trkpt><trkpt lat="43.2460517" lon="13.050165"><ele>478.0</ele><time>2026-04-18T08:55:29.057Z</time></trkpt><trkpt lat="43.2459733" lon="13.0501517"><ele>478.0</ele><time>2026-04-18T08:55:30.056Z</time></trkpt><trkpt lat="43.2458883" lon="13.0501467"><ele>478.00000000000006</ele><time>2026-04-18T08:55:31.056Z</time></trkpt><trkpt lat="43.2457967" lon="13.0501333"><ele>478.0</ele><time>2026-04-18T08:55:32.057Z</time></trkpt><trkpt lat="43.2457017" lon="13.0501133"><ele>477.2</ele><time>2026-04-18T08:55:33.056Z</time></trkpt><trkpt lat="43.2456067" lon="13.0501067"><ele>476.4</ele><time>2026-04-18T08:55:34.056Z</time></trkpt><trkpt lat="43.2455167" lon="13.0500967"><ele>475.59999999999997</ele><time>2026-04-18T08:55:35.057Z</time></trkpt><trkpt lat="43.2454217" lon="13.0500817"><ele>474.79999999999995</ele><time>2026-04-18T08:55:36.056Z</time></trkpt><trkpt lat="43.245315" lon="13.0500667"><ele>474.0</ele><time>2026-04-18T08:55:37.056Z</time></trkpt><trkpt lat="43.2452117" lon="13.05006"><ele>474.0</ele><time>2026-04-18T08:55:38.057Z</time></trkpt><trkpt lat="43.24512" lon="13.0500533"><ele>474.0</ele><time>2026-04-18T08:55:39.057Z</time></trkpt><trkpt lat="43.2450367" lon="13.050065"><ele>474.0</ele><time>2026-04-18T08:55:40.056Z</time></trkpt><trkpt lat="43.2449617" lon="13.0500867"><ele>474.0</ele><time>2026-04-18T08:55:41.057Z</time></trkpt><trkpt lat="43.2448917" lon="13.05013"><ele>474.0</ele><time>2026-04-18T08:55:42.057Z</time></trkpt><trkpt lat="43.244815" lon="13.0501933"><ele>474.0</ele><time>2026-04-18T08:55:43.056Z</time></trkpt><trkpt lat="43.244735" lon="13.05027"><ele>472.79999999999995</ele><time>2026-04-18T08:55:44.056Z</time></trkpt><trkpt lat="43.2446533" lon="13.05034"><ele>471.59999999999997</ele><time>2026-04-18T08:55:45.057Z</time></trkpt><trkpt lat="43.2445733" lon="13.0504"><ele>470.4</ele><time>2026-04-18T08:55:46.056Z</time></trkpt><trkpt lat="43.24449" lon="13.0504467"><ele>469.2</ele><time>2026-04-18T08:55:47.056Z</time></trkpt><trkpt lat="43.2444" lon="13.0504883"><ele>468.0</ele><time>2026-04-18T08:55:48.056Z</time></trkpt><trkpt lat="43.244315" lon="13.0505067"><ele>468.0</ele><time>2026-04-18T08:55:49.056Z</time></trkpt><trkpt lat="43.2442233" lon="13.050505"><ele>468.0</ele><time>2026-04-18T08:55:50.056Z</time></trkpt><trkpt lat="43.244145" lon="13.0504867"><ele>468.0</ele><time>2026-04-18T08:55:51.056Z</time></trkpt><trkpt lat="43.2440617" lon="13.050445"><ele>468.0</ele><time>2026-04-18T08:55:52.056Z</time></trkpt><trkpt lat="43.2439817" lon="13.0503933"><ele>468.0</ele><time>2026-04-18T08:55:53.056Z</time></trkpt><trkpt lat="43.2439067" lon="13.050335"><ele>468.0</ele><time>2026-04-18T08:55:54.056Z</time></trkpt><trkpt lat="43.2438317" lon="13.0502733"><ele>469.4</ele><time>2026-04-18T08:55:55.056Z</time></trkpt><trkpt lat="43.2437483" lon="13.0502117"><ele>470.79999999999995</ele><time>2026-04-18T08:55:56.056Z</time></trkpt><trkpt lat="43.2436733" lon="13.0501567"><ele>472.2</ele><time>2026-04-18T08:55:57.056Z</time></trkpt><trkpt lat="43.24359" lon="13.0500983"><ele>473.6</ele><time>2026-04-18T08:55:58.056Z</time></trkpt><trkpt lat="43.2435033" lon="13.0500417"><ele>475.0</ele><time>2026-04-18T08:55:59.056Z</time></trkpt><trkpt lat="43.2434083" lon="13.049985"><ele>474.8</ele><time>2026-04-18T08:56:00.057Z</time></trkpt><trkpt lat="43.2433167" lon="13.0499267"><ele>474.6</ele><time>2026-04-18T08:56:01.056Z</time></trkpt><trkpt lat="43.243245" lon="13.0498717"><ele>474.4</ele><time>2026-04-18T08:56:02.056Z</time></trkpt><trkpt lat="43.243165" lon="13.0498067"><ele>474.2</ele><time>2026-04-18T08:56:04.056Z</time></trkpt><trkpt lat="43.243105" lon="13.0497783"><ele>474.0</ele><time>2026-04-18T08:56:14.056Z</time></trkpt><trkpt lat="43.24298" lon="13.0497617"><ele>474.0</ele><time>2026-04-18T08:56:16.056Z</time></trkpt><trkpt lat="43.24287" lon="13.0497583"><ele>474.0</ele><time>2026-04-18T08:56:18.057Z</time></trkpt><trkpt lat="43.2427967" lon="13.049745"><ele>474.0</ele><time>2026-04-18T08:56:20.056Z</time></trkpt><trkpt lat="43.2427433" lon="13.0498233"><ele>474.0</ele><time>2026-04-18T08:56:43.056Z</time></trkpt><trkpt lat="43.2427583" lon="13.0499633"><ele>474.0</ele><time>2026-04-18T08:56:45.056Z</time></trkpt><trkpt lat="43.2427717" lon="13.0501317"><ele>473.3333333333333</ele><time>2026-04-18T08:56:47.057Z</time></trkpt><trkpt lat="43.2427783" lon="13.05022"><ele>472.66666666666663</ele><time>2026-04-18T08:56:48.056Z</time></trkpt><trkpt lat="43.2427783" lon="13.05032"><ele>472.0</ele><time>2026-04-18T08:56:49.056Z</time></trkpt><trkpt lat="43.242785" lon="13.050425"><ele>471.3333333333333</ele><time>2026-04-18T08:56:50.057Z</time></trkpt><trkpt lat="43.2427917" lon="13.050535"><ele>470.66666666666663</ele><time>2026-04-18T08:56:51.056Z</time></trkpt><trkpt lat="43.2428" lon="13.050645"><ele>470.0</ele><time>2026-04-18T08:56:52.056Z</time></trkpt><trkpt lat="43.2428" lon="13.050765"><ele>469.0</ele><time>2026-04-18T08:56:53.056Z</time></trkpt><trkpt lat="43.2428033" lon="13.0508783"><ele>467.99999999999994</ele><time>2026-04-18T08:56:54.056Z</time></trkpt><trkpt lat="43.2428083" lon="13.050985"><ele>467.0</ele><time>2026-04-18T08:56:55.056Z</time></trkpt><trkpt lat="43.2428167" lon="13.051085"><ele>466.0</ele><time>2026-04-18T08:56:56.056Z</time></trkpt><trkpt lat="43.2428233" lon="13.0511767"><ele>464.99999999999994</ele><time>2026-04-18T08:56:57.057Z</time></trkpt><trkpt lat="43.24283" lon="13.0512717"><ele>464.0</ele><time>2026-04-18T08:56:58.056Z</time></trkpt><trkpt lat="43.2428383" lon="13.05136"><ele>463.0</ele><time>2026-04-18T08:56:59.056Z</time></trkpt><trkpt lat="43.2428467" lon="13.0515233"><ele>462.0</ele><time>2026-04-18T08:57:01.057Z</time></trkpt><trkpt lat="43.2428517" lon="13.0516717"><ele>461.0</ele><time>2026-04-18T08:57:03.056Z</time></trkpt><trkpt lat="43.242865" lon="13.0518267"><ele>460.0</ele><time>2026-04-18T08:57:05.056Z</time></trkpt><trkpt lat="43.2428733" lon="13.0519883"><ele>459.0</ele><time>2026-04-18T08:57:07.056Z</time></trkpt><trkpt lat="43.24287" lon="13.0521533"><ele>459.0</ele><time>2026-04-18T08:57:09.056Z</time></trkpt><trkpt lat="43.2428717" lon="13.0522817"><ele>459.0</ele><time>2026-04-18T08:57:11.056Z</time></trkpt><trkpt lat="43.2428767" lon="13.0523767"><ele>459.0</ele><time>2026-04-18T08:57:59.056Z</time></trkpt><trkpt lat="43.2429" lon="13.052235"><ele>459.0</ele><time>2026-04-18T08:58:05.056Z</time></trkpt><trkpt lat="43.24289" lon="13.0521333"><ele>459.0</ele><time>2026-04-18T08:58:06.056Z</time></trkpt><trkpt lat="43.24288" lon="13.0520267"><ele>459.0</ele><time>2026-04-18T08:58:07.056Z</time></trkpt><trkpt lat="43.24287" lon="13.0519117"><ele>459.0</ele><time>2026-04-18T08:58:08.056Z</time></trkpt><trkpt lat="43.242865" lon="13.0517867"><ele>459.0</ele><time>2026-04-18T08:58:09.057Z</time></trkpt><trkpt lat="43.2428517" lon="13.05167"><ele>459.0</ele><time>2026-04-18T08:58:10.056Z</time></trkpt><trkpt lat="43.2428433" lon="13.0515383"><ele>459.0</ele><time>2026-04-18T08:58:11.057Z</time></trkpt><trkpt lat="43.242835" lon="13.0513883"><ele>459.0</ele><time>2026-04-18T08:58:12.056Z</time></trkpt><trkpt lat="43.2428233" lon="13.0512383"><ele>460.0</ele><time>2026-04-18T08:58:13.057Z</time></trkpt><trkpt lat="43.24282" lon="13.051075"><ele>461.0</ele><time>2026-04-18T08:58:14.057Z</time></trkpt><trkpt lat="43.2428117" lon="13.0508767"><ele>462.0</ele><time>2026-04-18T08:58:15.057Z</time></trkpt><trkpt lat="43.2428033" lon="13.0506783"><ele>463.0</ele><time>2026-04-18T08:58:16.056Z</time></trkpt><trkpt lat="43.2427933" lon="13.0504617"><ele>464.75</ele><time>2026-04-18T08:58:17.056Z</time></trkpt><trkpt lat="43.2427783" lon="13.0502383"><ele>466.5</ele><time>2026-04-18T08:58:18.056Z</time></trkpt><trkpt lat="43.2427633" lon="13.0500467"><ele>468.25</ele><time>2026-04-18T08:58:19.056Z</time></trkpt><trkpt lat="43.2427417" lon="13.0498717"><ele>470.0</ele><time>2026-04-18T08:58:20.057Z</time></trkpt><trkpt lat="43.2427" lon="13.04972"><ele>471.0</ele><time>2026-04-18T08:58:21.056Z</time></trkpt><trkpt lat="43.2426433" lon="13.0495733"><ele>472.0</ele><time>2026-04-18T08:58:22.056Z</time></trkpt><trkpt lat="43.2425633" lon="13.049445"><ele>473.0</ele><time>2026-04-18T08:58:23.056Z</time></trkpt><trkpt lat="43.2424717" lon="13.04931"><ele>474.0</ele><time>2026-04-18T08:58:24.057Z</time></trkpt><trkpt lat="43.2423617" lon="13.0491783"><ele>472.33333333333337</ele><time>2026-04-18T08:58:25.056Z</time></trkpt><trkpt lat="43.2422617" lon="13.049025"><ele>470.6666666666667</ele><time>2026-04-18T08:58:26.056Z</time></trkpt><trkpt lat="43.2421583" lon="13.048855"><ele>469.0</ele><time>2026-04-18T08:58:27.056Z</time></trkpt><trkpt lat="43.2420567" lon="13.0486783"><ele>469.0</ele><time>2026-04-18T08:58:28.056Z</time></trkpt><trkpt lat="43.2419617" lon="13.0485017"><ele>469.0</ele><time>2026-04-18T08:58:29.056Z</time></trkpt><trkpt lat="43.2418617" lon="13.0483267"><ele>469.0</ele><time>2026-04-18T08:58:30.057Z</time></trkpt><trkpt lat="43.241755" lon="13.0481417"><ele>468.6666666666667</ele><time>2026-04-18T08:58:31.056Z</time></trkpt><trkpt lat="43.2416467" lon="13.0479383"><ele>468.33333333333337</ele><time>2026-04-18T08:58:32.057Z</time></trkpt><trkpt lat="43.2415367" lon="13.0477367"><ele>468.0</ele><time>2026-04-18T08:58:33.056Z</time></trkpt><trkpt lat="43.2414317" lon="13.0475317"><ele>467.0</ele><time>2026-04-18T08:58:34.056Z</time></trkpt><trkpt lat="43.2413267" lon="13.047335"><ele>466.0</ele><time>2026-04-18T08:58:35.056Z</time></trkpt><trkpt lat="43.2412267" lon="13.0471483"><ele>465.0</ele><time>2026-04-18T08:58:36.056Z</time></trkpt><trkpt lat="43.24113" lon="13.04697"><ele>465.0</ele><time>2026-04-18T08:58:37.056Z</time></trkpt><trkpt lat="43.2410383" lon="13.0467867"><ele>465.0</ele><time>2026-04-18T08:58:38.056Z</time></trkpt><trkpt lat="43.240945" lon="13.0466083"><ele>465.0</ele><time>2026-04-18T08:58:39.056Z</time></trkpt><trkpt lat="43.2408517" lon="13.04644"><ele>465.0</ele><time>2026-04-18T08:58:40.056Z</time></trkpt><trkpt lat="43.2407633" lon="13.0462717"><ele>465.0</ele><time>2026-04-18T08:58:41.057Z</time></trkpt><trkpt lat="43.240675" lon="13.0460967"><ele>465.0</ele><time>2026-04-18T08:58:42.056Z</time></trkpt><trkpt lat="43.240585" lon="13.0459267"><ele>465.0</ele><time>2026-04-18T08:58:43.056Z</time></trkpt><trkpt lat="43.240505" lon="13.0457467"><ele>465.0</ele><time>2026-04-18T08:58:44.057Z</time></trkpt><trkpt lat="43.24043" lon="13.0455667"><ele>465.0</ele><time>2026-04-18T08:58:45.057Z</time></trkpt><trkpt lat="43.2403567" lon="13.0453733"><ele>465.0</ele><time>2026-04-18T08:58:46.056Z</time></trkpt><trkpt lat="43.24029" lon="13.045185"><ele>465.0</ele><time>2026-04-18T08:58:47.056Z</time></trkpt><trkpt lat="43.2402233" lon="13.044995"><ele>465.0</ele><time>2026-04-18T08:58:48.057Z</time></trkpt><trkpt lat="43.2401633" lon="13.0447883"><ele>463.33333333333337</ele><time>2026-04-18T08:58:49.056Z</time></trkpt><trkpt lat="43.240125" lon="13.0445717"><ele>461.6666666666667</ele><time>2026-04-18T08:58:50.056Z</time></trkpt><trkpt lat="43.2400967" lon="13.04435"><ele>460.0</ele><time>2026-04-18T08:58:51.056Z</time></trkpt><trkpt lat="43.2400683" lon="13.04413"><ele>459.0</ele><time>2026-04-18T08:58:52.056Z</time></trkpt><trkpt lat="43.2400433" lon="13.0439133"><ele>458.0</ele><time>2026-04-18T08:58:53.056Z</time></trkpt><trkpt lat="43.2400233" lon="13.0436933"><ele>457.0</ele><time>2026-04-18T08:58:54.056Z</time></trkpt><trkpt lat="43.2400033" lon="13.043475"><ele>457.0</ele><time>2026-04-18T08:58:55.056Z</time></trkpt><trkpt lat="43.239985" lon="13.0432517"><ele>457.0</ele><time>2026-04-18T08:58:56.056Z</time></trkpt><trkpt lat="43.2399717" lon="13.0430233"><ele>457.0</ele><time>2026-04-18T08:58:57.056Z</time></trkpt><trkpt lat="43.239955" lon="13.0427883"><ele>457.0</ele><time>2026-04-18T08:58:58.056Z</time></trkpt><trkpt lat="43.239935" lon="13.0425683"><ele>457.0</ele><time>2026-04-18T08:58:59.056Z</time></trkpt><trkpt lat="43.2399133" lon="13.0423517"><ele>457.0</ele><time>2026-04-18T08:59:00.057Z</time></trkpt><trkpt lat="43.2398933" lon="13.0421333"><ele>456.6666666666667</ele><time>2026-04-18T08:59:01.056Z</time></trkpt><trkpt lat="43.2398667" lon="13.0419083"><ele>456.33333333333337</ele><time>2026-04-18T08:59:02.056Z</time></trkpt><trkpt lat="43.2398433" lon="13.0416983"><ele>456.0</ele><time>2026-04-18T08:59:03.056Z</time></trkpt><trkpt lat="43.239805" lon="13.041485"><ele>455.25</ele><time>2026-04-18T08:59:04.056Z</time></trkpt><trkpt lat="43.239755" lon="13.0412917"><ele>454.5</ele><time>2026-04-18T08:59:05.056Z</time></trkpt><trkpt lat="43.2397067" lon="13.041105"><ele>453.75</ele><time>2026-04-18T08:59:06.056Z</time></trkpt><trkpt lat="43.23966" lon="13.0409217"><ele>453.0</ele><time>2026-04-18T08:59:07.056Z</time></trkpt><trkpt lat="43.23961" lon="13.0407417"><ele>453.0</ele><time>2026-04-18T08:59:08.056Z</time></trkpt><trkpt lat="43.23957" lon="13.0405567"><ele>453.0</ele><time>2026-04-18T08:59:09.056Z</time></trkpt><trkpt lat="43.2395433" lon="13.0403833"><ele>453.0</ele><time>2026-04-18T08:59:10.056Z</time></trkpt><trkpt lat="43.2395483" lon="13.0402067"><ele>453.0</ele><time>2026-04-18T08:59:11.057Z</time></trkpt><trkpt lat="43.239575" lon="13.0400217"><ele>453.66666666666663</ele><time>2026-04-18T08:59:12.056Z</time></trkpt><trkpt lat="43.2396217" lon="13.0398217"><ele>454.3333333333333</ele><time>2026-04-18T08:59:13.056Z</time></trkpt><trkpt lat="43.2396783" lon="13.0396117"><ele>455.0</ele><time>2026-04-18T08:59:14.056Z</time></trkpt><trkpt lat="43.23974" lon="13.0394"><ele>452.3333333333333</ele><time>2026-04-18T08:59:15.057Z</time></trkpt><trkpt lat="43.2398083" lon="13.0391783"><ele>449.66666666666663</ele><time>2026-04-18T08:59:16.056Z</time></trkpt><trkpt lat="43.2398783" lon="13.0389733"><ele>447.0</ele><time>2026-04-18T08:59:17.056Z</time></trkpt><trkpt lat="43.2399483" lon="13.0387683"><ele>447.0</ele><time>2026-04-18T08:59:18.057Z</time></trkpt><trkpt lat="43.2400117" lon="13.0385767"><ele>447.0</ele><time>2026-04-18T08:59:19.056Z</time></trkpt><trkpt lat="43.2400717" lon="13.03838"><ele>447.0</ele><time>2026-04-18T08:59:20.057Z</time></trkpt><trkpt lat="43.240125" lon="13.0381717"><ele>447.0</ele><time>2026-04-18T08:59:21.056Z</time></trkpt><trkpt lat="43.2401717" lon="13.03796"><ele>447.0</ele><time>2026-04-18T08:59:22.056Z</time></trkpt><trkpt lat="43.24021" lon="13.03774"><ele>447.0</ele><time>2026-04-18T08:59:23.056Z</time></trkpt><trkpt lat="43.2402433" lon="13.0375217"><ele>446.0</ele><time>2026-04-18T08:59:24.056Z</time></trkpt><trkpt lat="43.24027" lon="13.037305"><ele>445.0</ele><time>2026-04-18T08:59:25.056Z</time></trkpt><trkpt lat="43.2402933" lon="13.0370867"><ele>444.0</ele><time>2026-04-18T08:59:26.056Z</time></trkpt><trkpt lat="43.2403083" lon="13.036865"><ele>444.0</ele><time>2026-04-18T08:59:27.056Z</time></trkpt><trkpt lat="43.2403333" lon="13.03665"><ele>444.0</ele><time>2026-04-18T08:59:28.056Z</time></trkpt><trkpt lat="43.2403567" lon="13.0364467"><ele>444.0</ele><time>2026-04-18T08:59:29.056Z</time></trkpt><trkpt lat="43.2403833" lon="13.0362367"><ele>444.0</ele><time>2026-04-18T08:59:30.056Z</time></trkpt><trkpt lat="43.24041" lon="13.0360317"><ele>444.0</ele><time>2026-04-18T08:59:31.056Z</time></trkpt><trkpt lat="43.240435" lon="13.035825"><ele>444.0</ele><time>2026-04-18T08:59:32.056Z</time></trkpt><trkpt lat="43.2404717" lon="13.0356183"><ele>443.33333333333337</ele><time>2026-04-18T08:59:33.056Z</time></trkpt><trkpt lat="43.2405033" lon="13.0354083"><ele>442.6666666666667</ele><time>2026-04-18T08:59:34.056Z</time></trkpt><trkpt lat="43.2405283" lon="13.0351933"><ele>442.0</ele><time>2026-04-18T08:59:35.056Z</time></trkpt><trkpt lat="43.2405517" lon="13.03498"><ele>441.0</ele><time>2026-04-18T08:59:36.056Z</time></trkpt><trkpt lat="43.2405733" lon="13.0347717"><ele>440.0</ele><time>2026-04-18T08:59:37.056Z</time></trkpt><trkpt lat="43.2406033" lon="13.0345583"><ele>439.0</ele><time>2026-04-18T08:59:38.056Z</time></trkpt><trkpt lat="43.2406333" lon="13.0343467"><ele>436.33333333333337</ele><time>2026-04-18T08:59:39.056Z</time></trkpt><trkpt lat="43.2406633" lon="13.0341383"><ele>433.66666666666663</ele><time>2026-04-18T08:59:40.056Z</time></trkpt><trkpt lat="43.240685" lon="13.033925"><ele>431.0</ele><time>2026-04-18T08:59:41.056Z</time></trkpt><trkpt lat="43.2407067" lon="13.03371"><ele>429.66666666666663</ele><time>2026-04-18T08:59:42.057Z</time></trkpt><trkpt lat="43.240735" lon="13.0334983"><ele>428.33333333333337</ele><time>2026-04-18T08:59:43.056Z</time></trkpt><trkpt lat="43.2407617" lon="13.0332867"><ele>427.0</ele><time>2026-04-18T08:59:44.057Z</time></trkpt><trkpt lat="43.2407883" lon="13.0330683"><ele>425.33333333333337</ele><time>2026-04-18T08:59:45.057Z</time></trkpt><trkpt lat="43.2408133" lon="13.032855"><ele>423.66666666666663</ele><time>2026-04-18T08:59:46.056Z</time></trkpt><trkpt lat="43.2408417" lon="13.0326417"><ele>422.0</ele><time>2026-04-18T08:59:47.056Z</time></trkpt><trkpt lat="43.24087" lon="13.03242"><ele>420.66666666666663</ele><time>2026-04-18T08:59:48.056Z</time></trkpt><trkpt lat="43.240895" lon="13.0322"><ele>419.33333333333337</ele><time>2026-04-18T08:59:49.056Z</time></trkpt><trkpt lat="43.2409233" lon="13.0319833"><ele>418.0</ele><time>2026-04-18T08:59:50.056Z</time></trkpt><trkpt lat="43.2409517" lon="13.0317667"><ele>417.6666666666667</ele><time>2026-04-18T08:59:51.056Z</time></trkpt><trkpt lat="43.240975" lon="13.03155"><ele>417.33333333333337</ele><time>2026-04-18T08:59:52.056Z</time></trkpt><trkpt lat="43.241" lon="13.0313383"><ele>417.0</ele><time>2026-04-18T08:59:53.057Z</time></trkpt><trkpt lat="43.2410333" lon="13.0311233"><ele>417.0</ele><time>2026-04-18T08:59:54.057Z</time></trkpt><trkpt lat="43.241065" lon="13.0309117"><ele>417.0</ele><time>2026-04-18T08:59:55.057Z</time></trkpt><trkpt lat="43.2410933" lon="13.0307033"><ele>417.0</ele><time>2026-04-18T08:59:56.056Z</time></trkpt><trkpt lat="43.2411217" lon="13.0304933"><ele>416.33333333333337</ele><time>2026-04-18T08:59:57.056Z</time></trkpt><trkpt lat="43.24115" lon="13.0302933"><ele>415.6666666666667</ele><time>2026-04-18T08:59:58.056Z</time></trkpt><trkpt lat="43.2411783" lon="13.0300833"><ele>415.0</ele><time>2026-04-18T08:59:59.056Z</time></trkpt><trkpt lat="43.2412067" lon="13.0298717"><ele>415.0</ele><time>2026-04-18T09:00:00.056Z</time></trkpt><trkpt lat="43.241235" lon="13.0296617"><ele>415.0</ele><time>2026-04-18T09:00:01.057Z</time></trkpt><trkpt lat="43.241275" lon="13.0294617"><ele>415.0</ele><time>2026-04-18T09:00:02.056Z</time></trkpt><trkpt lat="43.2413217" lon="13.0292583"><ele>414.5</ele><time>2026-04-18T09:00:03.056Z</time></trkpt><trkpt lat="43.2413683" lon="13.0290617"><ele>414.0</ele><time>2026-04-18T09:00:04.057Z</time></trkpt><trkpt lat="43.24141" lon="13.0288817"><ele>413.5</ele><time>2026-04-18T09:00:05.056Z</time></trkpt><trkpt lat="43.2414667" lon="13.0286917"><ele>413.0</ele><time>2026-04-18T09:00:06.056Z</time></trkpt><trkpt lat="43.2415283" lon="13.028515"><ele>411.0</ele><time>2026-04-18T09:00:07.056Z</time></trkpt><trkpt lat="43.241585" lon="13.02833"><ele>409.0</ele><time>2026-04-18T09:00:08.056Z</time></trkpt><trkpt lat="43.2416483" lon="13.02815"><ele>407.0</ele><time>2026-04-18T09:00:09.056Z</time></trkpt><trkpt lat="43.241715" lon="13.0279617"><ele>405.0</ele><time>2026-04-18T09:00:10.056Z</time></trkpt><trkpt lat="43.241775" lon="13.02778"><ele>404.0</ele><time>2026-04-18T09:00:11.055Z</time></trkpt><trkpt lat="43.241835" lon="13.0275983"><ele>403.0</ele><time>2026-04-18T09:00:12.055Z</time></trkpt><trkpt lat="43.2419" lon="13.027405"><ele>402.0</ele><time>2026-04-18T09:00:13.056Z</time></trkpt><trkpt lat="43.2419717" lon="13.0272167"><ele>402.0</ele><time>2026-04-18T09:00:14.055Z</time></trkpt><trkpt lat="43.242035" lon="13.0270233"><ele>402.0</ele><time>2026-04-18T09:00:15.055Z</time></trkpt><trkpt lat="43.2421117" lon="13.0268333"><ele>402.0</ele><time>2026-04-18T09:00:16.055Z</time></trkpt><trkpt lat="43.2421933" lon="13.02664"><ele>402.66666666666663</ele><time>2026-04-18T09:00:17.055Z</time></trkpt><trkpt lat="43.24227" lon="13.026455"><ele>403.3333333333333</ele><time>2026-04-18T09:00:18.055Z</time></trkpt><trkpt lat="43.2423533" lon="13.0262783"><ele>404.0</ele><time>2026-04-18T09:00:19.055Z</time></trkpt><trkpt lat="43.242435" lon="13.0261133"><ele>401.5</ele><time>2026-04-18T09:00:20.055Z</time></trkpt><trkpt lat="43.242515" lon="13.025945"><ele>399.0</ele><time>2026-04-18T09:00:21.055Z</time></trkpt><trkpt lat="43.2426017" lon="13.0257683"><ele>396.5</ele><time>2026-04-18T09:00:22.055Z</time></trkpt><trkpt lat="43.2426717" lon="13.0256"><ele>394.0</ele><time>2026-04-18T09:00:23.055Z</time></trkpt><trkpt lat="43.2427483" lon="13.02543"><ele>393.33333333333337</ele><time>2026-04-18T09:00:24.055Z</time></trkpt><trkpt lat="43.2428283" lon="13.0252583"><ele>392.66666666666663</ele><time>2026-04-18T09:00:25.055Z</time></trkpt><trkpt lat="43.2429183" lon="13.0250883"><ele>392.0</ele><time>2026-04-18T09:00:26.055Z</time></trkpt><trkpt lat="43.2430017" lon="13.02491"><ele>392.0</ele><time>2026-04-18T09:00:27.056Z</time></trkpt><trkpt lat="43.2431017" lon="13.0247283"><ele>392.0</ele><time>2026-04-18T09:00:28.055Z</time></trkpt><trkpt lat="43.2432" lon="13.0245583"><ele>392.0</ele><time>2026-04-18T09:00:29.055Z</time></trkpt><trkpt lat="43.2433" lon="13.0243883"><ele>388.66666666666663</ele><time>2026-04-18T09:00:30.056Z</time></trkpt><trkpt lat="43.2434083" lon="13.0242217"><ele>385.3333333333333</ele><time>2026-04-18T09:00:31.055Z</time></trkpt><trkpt lat="43.243515" lon="13.0240517"><ele>382.0</ele><time>2026-04-18T09:00:32.055Z</time></trkpt><trkpt lat="43.2436283" lon="13.0238833"><ele>382.0</ele><time>2026-04-18T09:00:33.055Z</time></trkpt><trkpt lat="43.2437467" lon="13.02372"><ele>382.0</ele><time>2026-04-18T09:00:34.055Z</time></trkpt><trkpt lat="43.2438567" lon="13.0235567"><ele>382.0</ele><time>2026-04-18T09:00:35.055Z</time></trkpt><trkpt lat="43.2439783" lon="13.0233933"><ele>380.3333333333333</ele><time>2026-04-18T09:00:36.055Z</time></trkpt><trkpt lat="43.244095" lon="13.0232267"><ele>378.6666666666667</ele><time>2026-04-18T09:00:37.056Z</time></trkpt><trkpt lat="43.2442017" lon="13.0230517"><ele>377.0</ele><time>2026-04-18T09:00:38.056Z</time></trkpt><trkpt lat="43.2442983" lon="13.0228767"><ele>377.0</ele><time>2026-04-18T09:00:39.055Z</time></trkpt><trkpt lat="43.244385" lon="13.0226867"><ele>377.0</ele><time>2026-04-18T09:00:40.056Z</time></trkpt><trkpt lat="43.2444583" lon="13.0225033"><ele>377.0</ele><time>2026-04-18T09:00:41.055Z</time></trkpt><trkpt lat="43.2445383" lon="13.022315"><ele>376.33333333333337</ele><time>2026-04-18T09:00:42.055Z</time></trkpt><trkpt lat="43.2446083" lon="13.0221233"><ele>375.6666666666667</ele><time>2026-04-18T09:00:43.056Z</time></trkpt><trkpt lat="43.2446783" lon="13.0219383"><ele>375.0</ele><time>2026-04-18T09:00:44.055Z</time></trkpt><trkpt lat="43.2447533" lon="13.021745"><ele>374.5</ele><time>2026-04-18T09:00:45.055Z</time></trkpt><trkpt lat="43.2448283" lon="13.0215533"><ele>374.0</ele><time>2026-04-18T09:00:46.056Z</time></trkpt><trkpt lat="43.2449017" lon="13.02138"><ele>373.5</ele><time>2026-04-18T09:00:47.055Z</time></trkpt><trkpt lat="43.24498" lon="13.0212167"><ele>373.0</ele><time>2026-04-18T09:00:48.055Z</time></trkpt><trkpt lat="43.2450567" lon="13.0210533"><ele>373.0</ele><time>2026-04-18T09:00:49.055Z</time></trkpt><trkpt lat="43.2451383" lon="13.0208883"><ele>373.0</ele><time>2026-04-18T09:00:50.056Z</time></trkpt><trkpt lat="43.2452267" lon="13.020735"><ele>373.0</ele><time>2026-04-18T09:00:51.056Z</time></trkpt><trkpt lat="43.2453133" lon="13.0205933"><ele>373.0</ele><time>2026-04-18T09:00:52.055Z</time></trkpt><trkpt lat="43.24541" lon="13.0204667"><ele>372.5</ele><time>2026-04-18T09:00:53.055Z</time></trkpt><trkpt lat="43.2455183" lon="13.020365"><ele>372.0</ele><time>2026-04-18T09:00:54.055Z</time></trkpt><trkpt lat="43.2456367" lon="13.0202683"><ele>371.5</ele><time>2026-04-18T09:00:55.055Z</time></trkpt><trkpt lat="43.2457633" lon="13.0201867"><ele>371.0</ele><time>2026-04-18T09:00:56.055Z</time></trkpt><trkpt lat="43.24588" lon="13.0200767"><ele>370.0</ele><time>2026-04-18T09:00:57.056Z</time></trkpt><trkpt lat="43.245995" lon="13.019945"><ele>369.0</ele><time>2026-04-18T09:00:58.055Z</time></trkpt><trkpt lat="43.24611" lon="13.0198017"><ele>368.0</ele><time>2026-04-18T09:00:59.055Z</time></trkpt><trkpt lat="43.2462217" lon="13.0196533"><ele>368.0</ele><time>2026-04-18T09:01:00.055Z</time></trkpt><trkpt lat="43.2463317" lon="13.0195067"><ele>368.0</ele><time>2026-04-18T09:01:01.055Z</time></trkpt><trkpt lat="43.246435" lon="13.0193733"><ele>368.0</ele><time>2026-04-18T09:01:02.056Z</time></trkpt><trkpt lat="43.2465383" lon="13.0192417"><ele>368.0</ele><time>2026-04-18T09:01:03.055Z</time></trkpt><trkpt lat="43.246645" lon="13.0191083"><ele>369.0</ele><time>2026-04-18T09:01:04.055Z</time></trkpt><trkpt lat="43.2467617" lon="13.0189683"><ele>370.0</ele><time>2026-04-18T09:01:05.055Z</time></trkpt><trkpt lat="43.2468867" lon="13.0188267"><ele>371.0</ele><time>2026-04-18T09:01:06.056Z</time></trkpt><trkpt lat="43.247015" lon="13.018695"><ele>371.0</ele><time>2026-04-18T09:01:07.055Z</time></trkpt><trkpt lat="43.24713" lon="13.0185733"><ele>371.0</ele><time>2026-04-18T09:01:08.055Z</time></trkpt><trkpt lat="43.2472417" lon="13.0184533"><ele>371.0</ele><time>2026-04-18T09:01:09.055Z</time></trkpt><trkpt lat="43.2473533" lon="13.0183467"><ele>371.0</ele><time>2026-04-18T09:01:10.056Z</time></trkpt><trkpt lat="43.2474617" lon="13.0182383"><ele>371.0</ele><time>2026-04-18T09:01:11.056Z</time></trkpt><trkpt lat="43.247565" lon="13.0181317"><ele>371.0</ele><time>2026-04-18T09:01:12.055Z</time></trkpt><trkpt lat="43.247665" lon="13.0180233"><ele>371.0</ele><time>2026-04-18T09:01:13.055Z</time></trkpt><trkpt lat="43.247765" lon="13.0179233"><ele>371.0</ele><time>2026-04-18T09:01:14.055Z</time></trkpt><trkpt lat="43.2478633" lon="13.0178117"><ele>371.0</ele><time>2026-04-18T09:01:15.056Z</time></trkpt><trkpt lat="43.2479583" lon="13.0177117"><ele>371.0</ele><time>2026-04-18T09:01:16.055Z</time></trkpt><trkpt lat="43.24806" lon="13.0175967"><ele>371.0</ele><time>2026-04-18T09:01:17.055Z</time></trkpt><trkpt lat="43.2481667" lon="13.0174833"><ele>371.0</ele><time>2026-04-18T09:01:18.055Z</time></trkpt><trkpt lat="43.2482683" lon="13.0173783"><ele>370.4</ele><time>2026-04-18T09:01:19.055Z</time></trkpt><trkpt lat="43.2483583" lon="13.01728"><ele>369.8</ele><time>2026-04-18T09:01:20.055Z</time></trkpt><trkpt lat="43.2484467" lon="13.0171917"><ele>369.2</ele><time>2026-04-18T09:01:21.055Z</time></trkpt><trkpt lat="43.248525" lon="13.0171033"><ele>368.59999999999997</ele><time>2026-04-18T09:01:22.055Z</time></trkpt><trkpt lat="43.2486067" lon="13.0170167"><ele>368.0</ele><time>2026-04-18T09:01:23.055Z</time></trkpt><trkpt lat="43.2486867" lon="13.0169283"><ele>368.0</ele><time>2026-04-18T09:01:24.055Z</time></trkpt><trkpt lat="43.2487717" lon="13.01684"><ele>368.0</ele><time>2026-04-18T09:01:25.055Z</time></trkpt><trkpt lat="43.2488567" lon="13.01675"><ele>368.0</ele><time>2026-04-18T09:01:26.055Z</time></trkpt><trkpt lat="43.2489417" lon="13.0166617"><ele>368.0</ele><time>2026-04-18T09:01:27.055Z</time></trkpt><trkpt lat="43.24903" lon="13.0165683"><ele>368.0</ele><time>2026-04-18T09:01:28.055Z</time></trkpt><trkpt lat="43.249115" lon="13.016465"><ele>367.4</ele><time>2026-04-18T09:01:29.055Z</time></trkpt><trkpt lat="43.2492067" lon="13.016375"><ele>366.79999999999995</ele><time>2026-04-18T09:01:30.055Z</time></trkpt><trkpt lat="43.2492983" lon="13.016285"><ele>366.2</ele><time>2026-04-18T09:01:31.055Z</time></trkpt><trkpt lat="43.2493883" lon="13.0161967"><ele>365.6</ele><time>2026-04-18T09:01:32.056Z</time></trkpt><trkpt lat="43.24948" lon="13.0161133"><ele>365.0</ele><time>2026-04-18T09:01:33.055Z</time></trkpt><trkpt lat="43.24957" lon="13.016025"><ele>365.0</ele><time>2026-04-18T09:01:34.055Z</time></trkpt><trkpt lat="43.24966" lon="13.0159433"><ele>365.0</ele><time>2026-04-18T09:01:35.055Z</time></trkpt><trkpt lat="43.2497467" lon="13.0158533"><ele>365.0</ele><time>2026-04-18T09:01:36.055Z</time></trkpt><trkpt lat="43.249825" lon="13.01576"><ele>365.0</ele><time>2026-04-18T09:01:37.056Z</time></trkpt><trkpt lat="43.2499083" lon="13.01567"><ele>365.0</ele><time>2026-04-18T09:01:38.056Z</time></trkpt><trkpt lat="43.2499967" lon="13.01558"><ele>364.0</ele><time>2026-04-18T09:01:39.055Z</time></trkpt><trkpt lat="43.250085" lon="13.0154867"><ele>363.0</ele><time>2026-04-18T09:01:40.055Z</time></trkpt><trkpt lat="43.2501717" lon="13.0153917"><ele>362.0</ele><time>2026-04-18T09:01:41.055Z</time></trkpt><trkpt lat="43.25026" lon="13.0153033"><ele>361.0</ele><time>2026-04-18T09:01:42.055Z</time></trkpt><trkpt lat="43.2503483" lon="13.0152"><ele>360.0</ele><time>2026-04-18T09:01:43.055Z</time></trkpt><trkpt lat="43.2504333" lon="13.0151067"><ele>360.0</ele><time>2026-04-18T09:01:44.055Z</time></trkpt><trkpt lat="43.25052" lon="13.0150133"><ele>360.0</ele><time>2026-04-18T09:01:45.055Z</time></trkpt><trkpt lat="43.2506083" lon="13.0149233"><ele>360.0</ele><time>2026-04-18T09:01:46.055Z</time></trkpt><trkpt lat="43.2506933" lon="13.0148283"><ele>360.0</ele><time>2026-04-18T09:01:47.055Z</time></trkpt><trkpt lat="43.2507733" lon="13.01474"><ele>360.0</ele><time>2026-04-18T09:01:48.055Z</time></trkpt><trkpt lat="43.2508517" lon="13.0146633"><ele>359.8333333333333</ele><time>2026-04-18T09:01:49.055Z</time></trkpt><trkpt lat="43.25092" lon="13.0145817"><ele>359.6666666666667</ele><time>2026-04-18T09:01:50.055Z</time></trkpt><trkpt lat="43.2509833" lon="13.0145067"><ele>359.5</ele><time>2026-04-18T09:01:51.055Z</time></trkpt><trkpt lat="43.25104" lon="13.0144467"><ele>359.33333333333337</ele><time>2026-04-18T09:01:52.055Z</time></trkpt><trkpt lat="43.2510933" lon="13.0143917"><ele>359.1666666666667</ele><time>2026-04-18T09:01:53.055Z</time></trkpt><trkpt lat="43.2511517" lon="13.01433"><ele>359.0</ele><time>2026-04-18T09:01:54.055Z</time></trkpt><trkpt lat="43.251215" lon="13.01427"><ele>359.0</ele><time>2026-04-18T09:01:55.055Z</time></trkpt><trkpt lat="43.251275" lon="13.014195"><ele>359.0</ele><time>2026-04-18T09:01:56.055Z</time></trkpt><trkpt lat="43.2513383" lon="13.01412"><ele>359.0</ele><time>2026-04-18T09:01:57.055Z</time></trkpt><trkpt lat="43.25141" lon="13.0140533"><ele>359.0</ele><time>2026-04-18T09:01:58.055Z</time></trkpt><trkpt lat="43.2514783" lon="13.0139917"><ele>359.0</ele><time>2026-04-18T09:01:59.055Z</time></trkpt><trkpt lat="43.2515433" lon="13.013925"><ele>359.0</ele><time>2026-04-18T09:02:00.055Z</time></trkpt><trkpt lat="43.2516083" lon="13.01386"><ele>359.0</ele><time>2026-04-18T09:02:01.055Z</time></trkpt><trkpt lat="43.2516667" lon="13.0138133"><ele>359.0</ele><time>2026-04-18T09:02:02.055Z</time></trkpt><trkpt lat="43.2517233" lon="13.0137667"><ele>359.0</ele><time>2026-04-18T09:02:03.055Z</time></trkpt><trkpt lat="43.2518133" lon="13.0136767"><ele>359.0</ele><time>2026-04-18T09:02:05.055Z</time></trkpt><trkpt lat="43.251895" lon="13.0135817"><ele>359.0</ele><time>2026-04-18T09:02:07.055Z</time></trkpt><trkpt lat="43.2519767" lon="13.01349"><ele>359.0</ele><time>2026-04-18T09:02:09.055Z</time></trkpt><trkpt lat="43.2520583" lon="13.0133983"><ele>359.0</ele><time>2026-04-18T09:02:11.055Z</time></trkpt><trkpt lat="43.2521283" lon="13.01333"><ele>359.0</ele><time>2026-04-18T09:02:13.055Z</time></trkpt><trkpt lat="43.2521967" lon="13.013275"><ele>359.0</ele><time>2026-04-18T09:02:15.055Z</time></trkpt><trkpt lat="43.25228" lon="13.013175"><ele>359.0</ele><time>2026-04-18T09:02:17.055Z</time></trkpt><trkpt lat="43.2523333" lon="13.013105"><ele>358.6</ele><time>2026-04-18T09:02:18.056Z</time></trkpt><trkpt lat="43.2524" lon="13.0130233"><ele>358.2</ele><time>2026-04-18T09:02:19.055Z</time></trkpt><trkpt lat="43.2524733" lon="13.012935"><ele>357.8</ele><time>2026-04-18T09:02:20.055Z</time></trkpt><trkpt lat="43.2525533" lon="13.01285"><ele>357.40000000000003</ele><time>2026-04-18T09:02:21.056Z</time></trkpt><trkpt lat="43.2526417" lon="13.0127583"><ele>357.0</ele><time>2026-04-18T09:02:22.055Z</time></trkpt><trkpt lat="43.2527283" lon="13.0126633"><ele>357.0</ele><time>2026-04-18T09:02:23.055Z</time></trkpt><trkpt lat="43.2528083" lon="13.0125667"><ele>357.0</ele><time>2026-04-18T09:02:24.055Z</time></trkpt><trkpt lat="43.2528883" lon="13.0124933"><ele>357.0</ele><time>2026-04-18T09:02:25.055Z</time></trkpt><trkpt lat="43.25296" lon="13.0124167"><ele>357.0</ele><time>2026-04-18T09:02:26.055Z</time></trkpt><trkpt lat="43.2530267" lon="13.01233"><ele>357.0</ele><time>2026-04-18T09:02:27.055Z</time></trkpt><trkpt lat="43.2530967" lon="13.012255"><ele>355.8333333333333</ele><time>2026-04-18T09:02:28.055Z</time></trkpt><trkpt lat="43.2531583" lon="13.0121783"><ele>354.6666666666667</ele><time>2026-04-18T09:02:29.056Z</time></trkpt><trkpt lat="43.2532183" lon="13.012085"><ele>353.5</ele><time>2026-04-18T09:02:30.055Z</time></trkpt><trkpt lat="43.2532733" lon="13.012"><ele>352.33333333333337</ele><time>2026-04-18T09:02:31.055Z</time></trkpt><trkpt lat="43.2533283" lon="13.011905"><ele>351.1666666666667</ele><time>2026-04-18T09:02:32.055Z</time></trkpt><trkpt lat="43.2533817" lon="13.01182"><ele>350.0</ele><time>2026-04-18T09:02:33.055Z</time></trkpt><trkpt lat="43.253425" lon="13.0117333"><ele>349.6</ele><time>2026-04-18T09:02:34.055Z</time></trkpt><trkpt lat="43.2534617" lon="13.0116383"><ele>349.2</ele><time>2026-04-18T09:02:35.055Z</time></trkpt><trkpt lat="43.2535017" lon="13.01155"><ele>348.79999999999995</ele><time>2026-04-18T09:02:36.055Z</time></trkpt><trkpt lat="43.25354" lon="13.0113983"><ele>348.4</ele><time>2026-04-18T09:02:38.055Z</time></trkpt><trkpt lat="43.2535683" lon="13.011265"><ele>348.0</ele><time>2026-04-18T09:02:40.055Z</time></trkpt><trkpt lat="43.2535883" lon="13.01116"><ele>348.0</ele><time>2026-04-18T09:02:42.055Z</time></trkpt><trkpt lat="43.2535983" lon="13.0110467"><ele>348.0</ele><time>2026-04-18T09:02:45.056Z</time></trkpt><trkpt lat="43.253615" lon="13.0109433"><ele>348.0</ele><time>2026-04-18T09:02:47.055Z</time></trkpt><trkpt lat="43.2536283" lon="13.0108317"><ele>348.0</ele><time>2026-04-18T09:02:49.055Z</time></trkpt><trkpt lat="43.2536367" lon="13.0107367"><ele>348.0</ele><time>2026-04-18T09:02:51.056Z</time></trkpt><trkpt lat="43.2536633" lon="13.0106533"><ele>348.0</ele><time>2026-04-18T09:02:53.056Z</time></trkpt><trkpt lat="43.2536933" lon="13.0105617"><ele>348.1428571428571</ele><time>2026-04-18T09:02:55.055Z</time></trkpt><trkpt lat="43.253715" lon="13.0104633"><ele>348.2857142857143</ele><time>2026-04-18T09:02:57.055Z</time></trkpt><trkpt lat="43.2537283" lon="13.010355"><ele>348.42857142857144</ele><time>2026-04-18T09:02:59.055Z</time></trkpt><trkpt lat="43.253745" lon="13.0102533"><ele>348.57142857142856</ele><time>2026-04-18T09:03:01.055Z</time></trkpt><trkpt lat="43.2537733" lon="13.01016"><ele>348.7142857142857</ele><time>2026-04-18T09:03:03.055Z</time></trkpt><trkpt lat="43.2537967" lon="13.0100767"><ele>348.85714285714283</ele><time>2026-04-18T09:03:05.056Z</time></trkpt><trkpt lat="43.25381" lon="13.0099917"><ele>349.0</ele><time>2026-04-18T09:03:08.055Z</time></trkpt><trkpt lat="43.25384" lon="13.009885"><ele>349.66666666666663</ele><time>2026-04-18T09:03:18.055Z</time></trkpt><trkpt lat="43.2538267" lon="13.0097633"><ele>350.3333333333333</ele><time>2026-04-18T09:03:21.055Z</time></trkpt><trkpt lat="43.2537567" lon="13.0096733"><ele>351.0</ele><time>2026-04-18T09:03:23.055Z</time></trkpt><trkpt lat="43.25369" lon="13.0096383"><ele>351.6666666666667</ele><time>2026-04-18T09:03:24.055Z</time></trkpt><trkpt lat="43.2536167" lon="13.0096083"><ele>352.33333333333337</ele><time>2026-04-18T09:03:25.055Z</time></trkpt><trkpt lat="43.253535" lon="13.0095733"><ele>353.0</ele><time>2026-04-18T09:03:26.055Z</time></trkpt><trkpt lat="43.2534583" lon="13.0095317"><ele>353.0</ele><time>2026-04-18T09:03:27.056Z</time></trkpt><trkpt lat="43.25338" lon="13.009495"><ele>353.0</ele><time>2026-04-18T09:03:28.055Z</time></trkpt><trkpt lat="43.253295" lon="13.0094633"><ele>353.0</ele><time>2026-04-18T09:03:29.055Z</time></trkpt><trkpt lat="43.2532033" lon="13.0094317"><ele>353.0</ele><time>2026-04-18T09:03:30.055Z</time></trkpt><trkpt lat="43.253125" lon="13.009395"><ele>353.0</ele><time>2026-04-18T09:03:31.055Z</time></trkpt><trkpt lat="43.253055" lon="13.00935"><ele>353.0</ele><time>2026-04-18T09:03:32.055Z</time></trkpt><trkpt lat="43.2529767" lon="13.00932"><ele>353.59999999999997</ele><time>2026-04-18T09:03:33.055Z</time></trkpt><trkpt lat="43.2528917" lon="13.0093"><ele>354.2</ele><time>2026-04-18T09:03:34.055Z</time></trkpt><trkpt lat="43.2527967" lon="13.0092817"><ele>354.8</ele><time>2026-04-18T09:03:35.056Z</time></trkpt><trkpt lat="43.2526983" lon="13.0092733"><ele>355.4</ele><time>2026-04-18T09:03:36.055Z</time></trkpt><trkpt lat="43.2526017" lon="13.0092683"><ele>356.0</ele><time>2026-04-18T09:03:37.055Z</time></trkpt><trkpt lat="43.252505" lon="13.0092617"><ele>356.0</ele><time>2026-04-18T09:03:38.055Z</time></trkpt><trkpt lat="43.252405" lon="13.0092617"><ele>356.0</ele><time>2026-04-18T09:03:39.056Z</time></trkpt><trkpt lat="43.2523083" lon="13.009265"><ele>356.0</ele><time>2026-04-18T09:03:40.055Z</time></trkpt><trkpt lat="43.2522117" lon="13.0092633"><ele>356.0</ele><time>2026-04-18T09:03:41.055Z</time></trkpt><trkpt lat="43.25211" lon="13.009255"><ele>356.0</ele><time>2026-04-18T09:03:42.055Z</time></trkpt><trkpt lat="43.2520133" lon="13.0092417"><ele>356.33333333333337</ele><time>2026-04-18T09:03:43.055Z</time></trkpt><trkpt lat="43.2519167" lon="13.0092417"><ele>356.6666666666667</ele><time>2026-04-18T09:03:44.055Z</time></trkpt><trkpt lat="43.2518183" lon="13.0092333"><ele>357.0</ele><time>2026-04-18T09:03:45.056Z</time></trkpt><trkpt lat="43.2517267" lon="13.00921"><ele>357.3333333333333</ele><time>2026-04-18T09:03:46.055Z</time></trkpt><trkpt lat="43.2516433" lon="13.0092267"><ele>357.66666666666663</ele><time>2026-04-18T09:03:47.055Z</time></trkpt><trkpt lat="43.2515667" lon="13.00922"><ele>358.0</ele><time>2026-04-18T09:03:48.055Z</time></trkpt><trkpt lat="43.2515033" lon="13.0091967"><ele>358.66666666666663</ele><time>2026-04-18T09:03:49.056Z</time></trkpt><trkpt lat="43.25142" lon="13.0091117"><ele>359.3333333333333</ele><time>2026-04-18T09:03:51.056Z</time></trkpt><trkpt lat="43.2513533" lon="13.0090283"><ele>360.0</ele><time>2026-04-18T09:03:53.055Z</time></trkpt><trkpt lat="43.2512583" lon="13.0089683"><ele>360.6666666666667</ele><time>2026-04-18T09:03:55.055Z</time></trkpt><trkpt lat="43.2511967" lon="13.0089317"><ele>361.33333333333337</ele><time>2026-04-18T09:03:56.055Z</time></trkpt><trkpt lat="43.2511267" lon="13.0088867"><ele>362.0</ele><time>2026-04-18T09:03:57.056Z</time></trkpt><trkpt lat="43.2510567" lon="13.00882"><ele>362.0</ele><time>2026-04-18T09:03:58.055Z</time></trkpt><trkpt lat="43.25099" lon="13.0087517"><ele>362.0</ele><time>2026-04-18T09:03:59.055Z</time></trkpt><trkpt lat="43.25093" lon="13.008685"><ele>362.0</ele><time>2026-04-18T09:04:00.055Z</time></trkpt><trkpt lat="43.2508717" lon="13.0086117"><ele>362.0</ele><time>2026-04-18T09:04:01.056Z</time></trkpt><trkpt lat="43.2508167" lon="13.0085383"><ele>362.0</ele><time>2026-04-18T09:04:02.055Z</time></trkpt><trkpt lat="43.2507433" lon="13.0084717"><ele>362.0</ele><time>2026-04-18T09:04:03.055Z</time></trkpt><trkpt lat="43.2506617" lon="13.008405"><ele>362.0</ele><time>2026-04-18T09:04:04.055Z</time></trkpt><trkpt lat="43.25059" lon="13.008335"><ele>362.0</ele><time>2026-04-18T09:04:05.055Z</time></trkpt><trkpt lat="43.2505217" lon="13.008265"><ele>362.0</ele><time>2026-04-18T09:04:06.055Z</time></trkpt><trkpt lat="43.2504667" lon="13.0081917"><ele>362.0</ele><time>2026-04-18T09:04:07.056Z</time></trkpt><trkpt lat="43.2504133" lon="13.00812"><ele>362.0</ele><time>2026-04-18T09:04:08.055Z</time></trkpt><trkpt lat="43.2503583" lon="13.00805"><ele>362.0</ele><time>2026-04-18T09:04:09.055Z</time></trkpt><trkpt lat="43.2503" lon="13.0079817"><ele>362.1666666666667</ele><time>2026-04-18T09:04:10.055Z</time></trkpt><trkpt lat="43.250245" lon="13.0079167"><ele>362.33333333333337</ele><time>2026-04-18T09:04:11.056Z</time></trkpt><trkpt lat="43.2501833" lon="13.007855"><ele>362.5</ele><time>2026-04-18T09:04:12.055Z</time></trkpt><trkpt lat="43.250125" lon="13.0077817"><ele>362.6666666666667</ele><time>2026-04-18T09:04:13.055Z</time></trkpt><trkpt lat="43.2500567" lon="13.0077283"><ele>362.8333333333333</ele><time>2026-04-18T09:04:14.055Z</time></trkpt><trkpt lat="43.249995" lon="13.0076733"><ele>363.0</ele><time>2026-04-18T09:04:15.055Z</time></trkpt><trkpt lat="43.24993" lon="13.007625"><ele>363.0</ele><time>2026-04-18T09:04:16.055Z</time></trkpt><trkpt lat="43.2498667" lon="13.007575"><ele>363.0</ele><time>2026-04-18T09:04:17.056Z</time></trkpt><trkpt lat="43.249785" lon="13.0074867"><ele>363.0</ele><time>2026-04-18T09:04:19.055Z</time></trkpt><trkpt lat="43.2497167" lon="13.0074117"><ele>363.0</ele><time>2026-04-18T09:04:21.055Z</time></trkpt><trkpt lat="43.24967" lon="13.00734"><ele>363.0</ele><time>2026-04-18T09:04:23.055Z</time></trkpt><trkpt lat="43.2496067" lon="13.0072583"><ele>363.0</ele><time>2026-04-18T09:04:25.055Z</time></trkpt><trkpt lat="43.2495217" lon="13.0071683"><ele>363.0</ele><time>2026-04-18T09:04:27.055Z</time></trkpt><trkpt lat="43.2494233" lon="13.0070833"><ele>363.0</ele><time>2026-04-18T09:04:29.056Z</time></trkpt><trkpt lat="43.2493233" lon="13.0070017"><ele>363.0</ele><time>2026-04-18T09:04:31.056Z</time></trkpt><trkpt lat="43.2492717" lon="13.0069417"><ele>363.0</ele><time>2026-04-18T09:04:32.055Z</time></trkpt><trkpt lat="43.2492167" lon="13.0068683"><ele>363.0</ele><time>2026-04-18T09:04:33.055Z</time></trkpt><trkpt lat="43.2491567" lon="13.0067883"><ele>363.0</ele><time>2026-04-18T09:04:34.055Z</time></trkpt><trkpt lat="43.2490883" lon="13.0067083"><ele>363.0</ele><time>2026-04-18T09:04:35.055Z</time></trkpt><trkpt lat="43.2490217" lon="13.0066283"><ele>363.0</ele><time>2026-04-18T09:04:36.055Z</time></trkpt><trkpt lat="43.2489517" lon="13.0065517"><ele>363.0</ele><time>2026-04-18T09:04:37.056Z</time></trkpt><trkpt lat="43.2488817" lon="13.00648"><ele>363.0</ele><time>2026-04-18T09:04:38.055Z</time></trkpt><trkpt lat="43.2488133" lon="13.0063983"><ele>363.0</ele><time>2026-04-18T09:04:39.055Z</time></trkpt><trkpt lat="43.2487333" lon="13.006315"><ele>363.4</ele><time>2026-04-18T09:04:40.056Z</time></trkpt><trkpt lat="43.2486417" lon="13.006235"><ele>363.79999999999995</ele><time>2026-04-18T09:04:41.055Z</time></trkpt><trkpt lat="43.2485633" lon="13.0061417"><ele>364.2</ele><time>2026-04-18T09:04:42.055Z</time></trkpt><trkpt lat="43.2484817" lon="13.0060567"><ele>364.6</ele><time>2026-04-18T09:04:43.055Z</time></trkpt><trkpt lat="43.248395" lon="13.005975"><ele>365.0</ele><time>2026-04-18T09:04:44.055Z</time></trkpt><trkpt lat="43.2483133" lon="13.0058833"><ele>364.8</ele><time>2026-04-18T09:04:45.055Z</time></trkpt><trkpt lat="43.24823" lon="13.0057967"><ele>364.6</ele><time>2026-04-18T09:04:46.055Z</time></trkpt><trkpt lat="43.24816" lon="13.0057067"><ele>364.4</ele><time>2026-04-18T09:04:47.055Z</time></trkpt><trkpt lat="43.2480817" lon="13.005625"><ele>364.2</ele><time>2026-04-18T09:04:48.055Z</time></trkpt><trkpt lat="43.2480033" lon="13.005535"><ele>364.0</ele><time>2026-04-18T09:04:49.055Z</time></trkpt><trkpt lat="43.2479233" lon="13.0054567"><ele>364.0</ele><time>2026-04-18T09:04:50.054Z</time></trkpt><trkpt lat="43.247845" lon="13.005375"><ele>364.0</ele><time>2026-04-18T09:04:51.054Z</time></trkpt><trkpt lat="43.2477667" lon="13.005295"><ele>364.0</ele><time>2026-04-18T09:04:52.055Z</time></trkpt><trkpt lat="43.24769" lon="13.0052167"><ele>364.0</ele><time>2026-04-18T09:04:53.054Z</time></trkpt><trkpt lat="43.2476267" lon="13.005135"><ele>364.0</ele><time>2026-04-18T09:04:54.054Z</time></trkpt><trkpt lat="43.2475667" lon="13.0050683"><ele>364.0</ele><time>2026-04-18T09:04:55.054Z</time></trkpt><trkpt lat="43.247515" lon="13.0049983"><ele>364.0</ele><time>2026-04-18T09:04:56.054Z</time></trkpt><trkpt lat="43.2474683" lon="13.0049233"><ele>364.0</ele><time>2026-04-18T09:04:57.054Z</time></trkpt><trkpt lat="43.247435" lon="13.00484"><ele>364.0</ele><time>2026-04-18T09:04:58.054Z</time></trkpt><trkpt lat="43.2473983" lon="13.00475"><ele>364.0</ele><time>2026-04-18T09:04:59.054Z</time></trkpt><trkpt lat="43.24735" lon="13.0046817"><ele>364.0</ele><time>2026-04-18T09:05:00.054Z</time></trkpt><trkpt lat="43.2472867" lon="13.004625"><ele>364.0</ele><time>2026-04-18T09:05:01.054Z</time></trkpt><trkpt lat="43.247235" lon="13.0045617"><ele>364.6</ele><time>2026-04-18T09:05:02.054Z</time></trkpt><trkpt lat="43.247165" lon="13.0044417"><ele>365.2</ele><time>2026-04-18T09:05:04.054Z</time></trkpt><trkpt lat="43.2471317" lon="13.004355"><ele>365.8</ele><time>2026-04-18T09:05:06.054Z</time></trkpt><trkpt lat="43.2470867" lon="13.0042367"><ele>366.40000000000003</ele><time>2026-04-18T09:05:08.054Z</time></trkpt><trkpt lat="43.2470417" lon="13.0041483"><ele>367.0</ele><time>2026-04-18T09:05:09.054Z</time></trkpt><trkpt lat="43.2469867" lon="13.0040483"><ele>367.40000000000003</ele><time>2026-04-18T09:05:10.054Z</time></trkpt><trkpt lat="43.246935" lon="13.003935"><ele>367.8</ele><time>2026-04-18T09:05:11.054Z</time></trkpt><trkpt lat="43.2468833" lon="13.0038333"><ele>368.2</ele><time>2026-04-18T09:05:12.054Z</time></trkpt><trkpt lat="43.2468267" lon="13.0037167"><ele>368.6</ele><time>2026-04-18T09:05:13.054Z</time></trkpt><trkpt lat="43.2467717" lon="13.0035883"><ele>369.0</ele><time>2026-04-18T09:05:14.054Z</time></trkpt><trkpt lat="43.246715" lon="13.0034533"><ele>369.25</ele><time>2026-04-18T09:05:15.054Z</time></trkpt><trkpt lat="43.24666" lon="13.003305"><ele>369.5</ele><time>2026-04-18T09:05:16.055Z</time></trkpt><trkpt lat="43.2466083" lon="13.0031767"><ele>369.75</ele><time>2026-04-18T09:05:17.054Z</time></trkpt><trkpt lat="43.2465567" lon="13.0030333"><ele>370.0</ele><time>2026-04-18T09:05:18.054Z</time></trkpt><trkpt lat="43.2464967" lon="13.002905"><ele>370.0</ele><time>2026-04-18T09:05:19.054Z</time></trkpt><trkpt lat="43.2464383" lon="13.002785"><ele>370.0</ele><time>2026-04-18T09:05:20.054Z</time></trkpt><trkpt lat="43.2463883" lon="13.0026767"><ele>370.0</ele><time>2026-04-18T09:05:21.054Z</time></trkpt><trkpt lat="43.2463417" lon="13.0025717"><ele>370.0</ele><time>2026-04-18T09:05:22.054Z</time></trkpt><trkpt lat="43.2462933" lon="13.002465"><ele>370.0</ele><time>2026-04-18T09:05:23.054Z</time></trkpt><trkpt lat="43.2462567" lon="13.0023483"><ele>369.75</ele><time>2026-04-18T09:05:24.054Z</time></trkpt><trkpt lat="43.2462083" lon="13.0022283"><ele>369.5</ele><time>2026-04-18T09:05:25.054Z</time></trkpt><trkpt lat="43.2461533" lon="13.0020917"><ele>369.25</ele><time>2026-04-18T09:05:26.054Z</time></trkpt><trkpt lat="43.24609" lon="13.0019517"><ele>369.0</ele><time>2026-04-18T09:05:27.054Z</time></trkpt><trkpt lat="43.2460267" lon="13.0018133"><ele>369.0</ele><time>2026-04-18T09:05:28.054Z</time></trkpt><trkpt lat="43.24597" lon="13.0016733"><ele>369.0</ele><time>2026-04-18T09:05:29.055Z</time></trkpt><trkpt lat="43.2459083" lon="13.0015383"><ele>369.0</ele><time>2026-04-18T09:05:30.054Z</time></trkpt><trkpt lat="43.2458517" lon="13.0014083"><ele>369.0</ele><time>2026-04-18T09:05:31.054Z</time></trkpt><trkpt lat="43.2457933" lon="13.0012783"><ele>369.5</ele><time>2026-04-18T09:05:32.054Z</time></trkpt><trkpt lat="43.2457283" lon="13.0011483"><ele>370.0</ele><time>2026-04-18T09:05:33.054Z</time></trkpt><trkpt lat="43.2456683" lon="13.001005"><ele>370.5</ele><time>2026-04-18T09:05:34.054Z</time></trkpt><trkpt lat="43.2456117" lon="13.000855"><ele>371.0</ele><time>2026-04-18T09:05:35.054Z</time></trkpt><trkpt lat="43.2455533" lon="13.0007117"><ele>371.5</ele><time>2026-04-18T09:05:36.054Z</time></trkpt><trkpt lat="43.24549" lon="13.00058"><ele>372.0</ele><time>2026-04-18T09:05:37.054Z</time></trkpt><trkpt lat="43.2454317" lon="13.0004383"><ele>372.5</ele><time>2026-04-18T09:05:38.055Z</time></trkpt><trkpt lat="43.245375" lon="13.0003033"><ele>373.0</ele><time>2026-04-18T09:05:39.054Z</time></trkpt><trkpt lat="43.24531" lon="13.00017"><ele>373.0</ele><time>2026-04-18T09:05:40.054Z</time></trkpt><trkpt lat="43.2452417" lon="13.000035"><ele>373.0</ele><time>2026-04-18T09:05:41.054Z</time></trkpt><trkpt lat="43.2451867" lon="12.999905"><ele>373.0</ele><time>2026-04-18T09:05:42.055Z</time></trkpt><trkpt lat="43.2451317" lon="12.9997833"><ele>373.0</ele><time>2026-04-18T09:05:43.054Z</time></trkpt><trkpt lat="43.2450833" lon="12.9996667"><ele>373.0</ele><time>2026-04-18T09:05:44.054Z</time></trkpt><trkpt lat="43.2450533" lon="12.9995467"><ele>373.0</ele><time>2026-04-18T09:05:45.054Z</time></trkpt><trkpt lat="43.245025" lon="12.9994267"><ele>373.0</ele><time>2026-04-18T09:05:46.054Z</time></trkpt><trkpt lat="43.2449733" lon="12.9993233"><ele>373.0</ele><time>2026-04-18T09:05:47.054Z</time></trkpt><trkpt lat="43.2449083" lon="12.99922"><ele>373.0</ele><time>2026-04-18T09:05:48.054Z</time></trkpt><trkpt lat="43.244835" lon="12.99912"><ele>373.0</ele><time>2026-04-18T09:05:49.054Z</time></trkpt><trkpt lat="43.244765" lon="12.9989833"><ele>372.66666666666663</ele><time>2026-04-18T09:05:50.054Z</time></trkpt><trkpt lat="43.2446917" lon="12.998805"><ele>372.3333333333333</ele><time>2026-04-18T09:05:51.054Z</time></trkpt><trkpt lat="43.2446133" lon="12.9986267"><ele>372.0</ele><time>2026-04-18T09:05:52.054Z</time></trkpt><trkpt lat="43.2445367" lon="12.99845"><ele>372.3333333333333</ele><time>2026-04-18T09:05:53.054Z</time></trkpt><trkpt lat="43.2444567" lon="12.99827"><ele>372.66666666666663</ele><time>2026-04-18T09:05:54.054Z</time></trkpt><trkpt lat="43.2443733" lon="12.9980817"><ele>373.0</ele><time>2026-04-18T09:05:55.054Z</time></trkpt><trkpt lat="43.2442867" lon="12.9978833"><ele>373.0</ele><time>2026-04-18T09:05:56.054Z</time></trkpt><trkpt lat="43.244195" lon="12.997685"><ele>373.0</ele><time>2026-04-18T09:05:57.055Z</time></trkpt><trkpt lat="43.2440967" lon="12.9974833"><ele>373.0</ele><time>2026-04-18T09:05:58.054Z</time></trkpt><trkpt lat="43.244005" lon="12.9972733"><ele>373.66666666666663</ele><time>2026-04-18T09:05:59.054Z</time></trkpt><trkpt lat="43.2439217" lon="12.997065"><ele>374.3333333333333</ele><time>2026-04-18T09:06:00.054Z</time></trkpt><trkpt lat="43.2438417" lon="12.9968683"><ele>375.0</ele><time>2026-04-18T09:06:01.055Z</time></trkpt><trkpt lat="43.24375" lon="12.9966667"><ele>375.6666666666667</ele><time>2026-04-18T09:06:02.055Z</time></trkpt><trkpt lat="43.243655" lon="12.996455"><ele>376.33333333333337</ele><time>2026-04-18T09:06:03.054Z</time></trkpt><trkpt lat="43.2435583" lon="12.9962417"><ele>377.0</ele><time>2026-04-18T09:06:04.055Z</time></trkpt><trkpt lat="43.2434567" lon="12.9960117"><ele>377.33333333333337</ele><time>2026-04-18T09:06:05.055Z</time></trkpt><trkpt lat="43.243355" lon="12.995785"><ele>377.6666666666667</ele><time>2026-04-18T09:06:06.054Z</time></trkpt><trkpt lat="43.2432617" lon="12.995565"><ele>378.0</ele><time>2026-04-18T09:06:07.055Z</time></trkpt><trkpt lat="43.2431733" lon="12.995355"><ele>378.6666666666667</ele><time>2026-04-18T09:06:08.054Z</time></trkpt><trkpt lat="43.243085" lon="12.9951583"><ele>379.33333333333337</ele><time>2026-04-18T09:06:09.054Z</time></trkpt><trkpt lat="43.2429967" lon="12.994965"><ele>380.0</ele><time>2026-04-18T09:06:10.054Z</time></trkpt><trkpt lat="43.2429067" lon="12.9947733"><ele>381.33333333333337</ele><time>2026-04-18T09:06:11.055Z</time></trkpt><trkpt lat="43.2428133" lon="12.9945883"><ele>382.6666666666667</ele><time>2026-04-18T09:06:12.054Z</time></trkpt><trkpt lat="43.2427183" lon="12.994415"><ele>384.0</ele><time>2026-04-18T09:06:13.055Z</time></trkpt><trkpt lat="43.2426167" lon="12.9942483"><ele>384.0</ele><time>2026-04-18T09:06:14.054Z</time></trkpt><trkpt lat="43.2425117" lon="12.994095"><ele>384.0</ele><time>2026-04-18T09:06:15.054Z</time></trkpt><trkpt lat="43.2424083" lon="12.99396"><ele>384.0</ele><time>2026-04-18T09:06:16.054Z</time></trkpt><trkpt lat="43.2423" lon="12.9938383"><ele>384.0</ele><time>2026-04-18T09:06:17.054Z</time></trkpt><trkpt lat="43.242185" lon="12.99373"><ele>386.79999999999995</ele><time>2026-04-18T09:06:18.054Z</time></trkpt><trkpt lat="43.2420833" lon="12.993645"><ele>389.59999999999997</ele><time>2026-04-18T09:06:19.054Z</time></trkpt><trkpt lat="43.2419933" lon="12.9935683"><ele>392.4</ele><time>2026-04-18T09:06:20.054Z</time></trkpt><trkpt lat="43.2419033" lon="12.9934967"><ele>395.2</ele><time>2026-04-18T09:06:21.054Z</time></trkpt><trkpt lat="43.2418167" lon="12.99344"><ele>398.0</ele><time>2026-04-18T09:06:22.055Z</time></trkpt><trkpt lat="43.241735" lon="12.9933767"><ele>396.4</ele><time>2026-04-18T09:06:23.054Z</time></trkpt><trkpt lat="43.2416533" lon="12.9933133"><ele>394.79999999999995</ele><time>2026-04-18T09:06:24.054Z</time></trkpt><trkpt lat="43.2416033" lon="12.9932133"><ele>393.2</ele><time>2026-04-18T09:06:25.054Z</time></trkpt><trkpt lat="43.2415667" lon="12.9931083"><ele>391.6</ele><time>2026-04-18T09:06:26.054Z</time></trkpt><trkpt lat="43.2415767" lon="12.9929833"><ele>390.0</ele><time>2026-04-18T09:06:27.054Z</time></trkpt><trkpt lat="43.2416133" lon="12.99285"><ele>390.0</ele><time>2026-04-18T09:06:28.055Z</time></trkpt><trkpt lat="43.2416767" lon="12.9927117"><ele>390.0</ele><time>2026-04-18T09:06:29.054Z</time></trkpt><trkpt lat="43.2417567" lon="12.9925767"><ele>390.0</ele><time>2026-04-18T09:06:30.054Z</time></trkpt><trkpt lat="43.2418683" lon="12.9924517"><ele>390.0</ele><time>2026-04-18T09:06:31.054Z</time></trkpt><trkpt lat="43.2419867" lon="12.992335"><ele>388.66666666666663</ele><time>2026-04-18T09:06:32.054Z</time></trkpt><trkpt lat="43.242115" lon="12.9922233"><ele>387.3333333333333</ele><time>2026-04-18T09:06:33.055Z</time></trkpt><trkpt lat="43.24226" lon="12.9921083"><ele>386.0</ele><time>2026-04-18T09:06:34.054Z</time></trkpt><trkpt lat="43.2424133" lon="12.991995"><ele>386.0</ele><time>2026-04-18T09:06:35.054Z</time></trkpt><trkpt lat="43.242565" lon="12.991875"><ele>386.0</ele><time>2026-04-18T09:06:36.054Z</time></trkpt><trkpt lat="43.2427117" lon="12.9917517"><ele>386.0</ele><time>2026-04-18T09:06:37.054Z</time></trkpt><trkpt lat="43.24287" lon="12.9916267"><ele>386.0</ele><time>2026-04-18T09:06:38.054Z</time></trkpt><trkpt lat="43.24304" lon="12.991495"><ele>386.0</ele><time>2026-04-18T09:06:39.054Z</time></trkpt><trkpt lat="43.2432117" lon="12.9913517"><ele>386.0</ele><time>2026-04-18T09:06:40.054Z</time></trkpt><trkpt lat="43.2433833" lon="12.9912067"><ele>384.5</ele><time>2026-04-18T09:06:41.055Z</time></trkpt><trkpt lat="43.2435683" lon="12.991055"><ele>383.0</ele><time>2026-04-18T09:06:42.054Z</time></trkpt><trkpt lat="43.2437733" lon="12.9908933"><ele>382.33333333333337</ele><time>2026-04-18T09:06:43.055Z</time></trkpt><trkpt lat="43.2439717" lon="12.99074"><ele>381.6666666666667</ele><time>2026-04-18T09:06:44.054Z</time></trkpt><trkpt lat="43.2441517" lon="12.9906033"><ele>381.0</ele><time>2026-04-18T09:06:45.055Z</time></trkpt><trkpt lat="43.2443067" lon="12.99048"><ele>381.0</ele><time>2026-04-18T09:06:46.054Z</time></trkpt><trkpt lat="43.2444517" lon="12.9903783"><ele>381.0</ele><time>2026-04-18T09:06:47.055Z</time></trkpt><trkpt lat="43.2445683" lon="12.990295"><ele>381.0</ele><time>2026-04-18T09:06:48.054Z</time></trkpt><trkpt lat="43.2446633" lon="12.990225"><ele>381.0</ele><time>2026-04-18T09:06:49.054Z</time></trkpt><trkpt lat="43.2447633" lon="12.99021"><ele>381.0</ele><time>2026-04-18T09:06:50.054Z</time></trkpt><trkpt lat="43.2448567" lon="12.9902283"><ele>381.0</ele><time>2026-04-18T09:06:51.054Z</time></trkpt><trkpt lat="43.2449433" lon="12.990245"><ele>381.0</ele><time>2026-04-18T09:06:52.054Z</time></trkpt><trkpt lat="43.2450217" lon="12.9902383"><ele>381.0</ele><time>2026-04-18T09:06:53.054Z</time></trkpt><trkpt lat="43.2450983" lon="12.9902017"><ele>381.0</ele><time>2026-04-18T09:06:54.054Z</time></trkpt><trkpt lat="43.2451617" lon="12.9901433"><ele>381.0</ele><time>2026-04-18T09:06:55.054Z</time></trkpt><trkpt lat="43.2452183" lon="12.9900817"><ele>381.5</ele><time>2026-04-18T09:06:56.054Z</time></trkpt><trkpt lat="43.2452667" lon="12.989995"><ele>382.0</ele><time>2026-04-18T09:06:57.054Z</time></trkpt><trkpt lat="43.245295" lon="12.98989"><ele>382.5</ele><time>2026-04-18T09:06:58.054Z</time></trkpt><trkpt lat="43.24533" lon="12.98979"><ele>383.0</ele><time>2026-04-18T09:06:59.054Z</time></trkpt><trkpt lat="43.2453833" lon="12.9896883"><ele>383.5</ele><time>2026-04-18T09:07:00.055Z</time></trkpt><trkpt lat="43.2454617" lon="12.9895967"><ele>384.0</ele><time>2026-04-18T09:07:01.054Z</time></trkpt><trkpt lat="43.2455733" lon="12.9894983"><ele>384.0</ele><time>2026-04-18T09:07:02.055Z</time></trkpt><trkpt lat="43.2457083" lon="12.9894"><ele>384.0</ele><time>2026-04-18T09:07:03.054Z</time></trkpt><trkpt lat="43.2458483" lon="12.9892933"><ele>384.0</ele><time>2026-04-18T09:07:04.054Z</time></trkpt><trkpt lat="43.245995" lon="12.9891767"><ele>383.3333333333333</ele><time>2026-04-18T09:07:05.054Z</time></trkpt><trkpt lat="43.2461483" lon="12.9890633"><ele>382.66666666666663</ele><time>2026-04-18T09:07:06.054Z</time></trkpt><trkpt lat="43.24629" lon="12.9889583"><ele>382.0</ele><time>2026-04-18T09:07:07.054Z</time></trkpt><trkpt lat="43.246425" lon="12.9888567"><ele>381.25</ele><time>2026-04-18T09:07:08.054Z</time></trkpt><trkpt lat="43.2465483" lon="12.98874"><ele>380.5</ele><time>2026-04-18T09:07:09.054Z</time></trkpt><trkpt lat="43.2466467" lon="12.9885967"><ele>379.75</ele><time>2026-04-18T09:07:10.054Z</time></trkpt><trkpt lat="43.24672" lon="12.9884367"><ele>379.0</ele><time>2026-04-18T09:07:11.054Z</time></trkpt><trkpt lat="43.246765" lon="12.98825"><ele>379.0</ele><time>2026-04-18T09:07:12.055Z</time></trkpt><trkpt lat="43.246765" lon="12.988045"><ele>379.0</ele><time>2026-04-18T09:07:13.055Z</time></trkpt><trkpt lat="43.2467617" lon="12.9878267"><ele>379.0</ele><time>2026-04-18T09:07:14.055Z</time></trkpt><trkpt lat="43.24677" lon="12.9876"><ele>377.66666666666663</ele><time>2026-04-18T09:07:15.054Z</time></trkpt><trkpt lat="43.2467533" lon="12.9873667"><ele>376.3333333333333</ele><time>2026-04-18T09:07:16.055Z</time></trkpt><trkpt lat="43.24675" lon="12.9871233"><ele>375.0</ele><time>2026-04-18T09:07:17.054Z</time></trkpt><trkpt lat="43.2467367" lon="12.9868717"><ele>374.3333333333333</ele><time>2026-04-18T09:07:18.054Z</time></trkpt><trkpt lat="43.2467167" lon="12.9866117"><ele>373.66666666666663</ele><time>2026-04-18T09:07:19.054Z</time></trkpt><trkpt lat="43.2467017" lon="12.9863817"><ele>373.0</ele><time>2026-04-18T09:07:20.055Z</time></trkpt><trkpt lat="43.2466933" lon="12.9861517"><ele>373.0</ele><time>2026-04-18T09:07:21.054Z</time></trkpt><trkpt lat="43.2466817" lon="12.9859433"><ele>373.0</ele><time>2026-04-18T09:07:22.054Z</time></trkpt><trkpt lat="43.2466767" lon="12.9857517"><ele>373.0</ele><time>2026-04-18T09:07:23.054Z</time></trkpt><trkpt lat="43.2466667" lon="12.9855633"><ele>373.0</ele><time>2026-04-18T09:07:24.054Z</time></trkpt><trkpt lat="43.246685" lon="12.9853633"><ele>374.0</ele><time>2026-04-18T09:07:25.054Z</time></trkpt><trkpt lat="43.246725" lon="12.9851683"><ele>375.0</ele><time>2026-04-18T09:07:26.054Z</time></trkpt><trkpt lat="43.2467933" lon="12.984975"><ele>376.0</ele><time>2026-04-18T09:07:27.054Z</time></trkpt><trkpt lat="43.246875" lon="12.98478"><ele>376.0</ele><time>2026-04-18T09:07:28.054Z</time></trkpt><trkpt lat="43.2469633" lon="12.9845867"><ele>376.0</ele><time>2026-04-18T09:07:29.054Z</time></trkpt><trkpt lat="43.2470583" lon="12.9843783"><ele>376.0</ele><time>2026-04-18T09:07:30.054Z</time></trkpt><trkpt lat="43.2471467" lon="12.98417"><ele>376.0</ele><time>2026-04-18T09:07:31.054Z</time></trkpt><trkpt lat="43.247225" lon="12.9839367"><ele>376.0</ele><time>2026-04-18T09:07:32.054Z</time></trkpt><trkpt lat="43.247285" lon="12.983705"><ele>376.0</ele><time>2026-04-18T09:07:33.054Z</time></trkpt><trkpt lat="43.2473417" lon="12.9834717"><ele>377.66666666666663</ele><time>2026-04-18T09:07:34.055Z</time></trkpt><trkpt lat="43.247395" lon="12.98324"><ele>379.3333333333333</ele><time>2026-04-18T09:07:35.054Z</time></trkpt><trkpt lat="43.2474233" lon="12.9830217"><ele>381.0</ele><time>2026-04-18T09:07:36.054Z</time></trkpt><trkpt lat="43.2474433" lon="12.9828183"><ele>381.0</ele><time>2026-04-18T09:07:37.054Z</time></trkpt><trkpt lat="43.2474667" lon="12.9826133"><ele>381.0</ele><time>2026-04-18T09:07:38.054Z</time></trkpt><trkpt lat="43.2474633" lon="12.9823983"><ele>381.0</ele><time>2026-04-18T09:07:39.054Z</time></trkpt><trkpt lat="43.2474467" lon="12.9821867"><ele>381.5</ele><time>2026-04-18T09:07:40.055Z</time></trkpt><trkpt lat="43.2474333" lon="12.9819783"><ele>382.0</ele><time>2026-04-18T09:07:41.054Z</time></trkpt><trkpt lat="43.2474233" lon="12.9817867"><ele>382.5</ele><time>2026-04-18T09:07:42.054Z</time></trkpt><trkpt lat="43.247405" lon="12.9816"><ele>383.0</ele><time>2026-04-18T09:07:43.054Z</time></trkpt><trkpt lat="43.2474233" lon="12.98141"><ele>383.5</ele><time>2026-04-18T09:07:44.054Z</time></trkpt><trkpt lat="43.247465" lon="12.9812417"><ele>384.0</ele><time>2026-04-18T09:07:45.055Z</time></trkpt><trkpt lat="43.24751" lon="12.9810733"><ele>384.5</ele><time>2026-04-18T09:07:46.054Z</time></trkpt><trkpt lat="43.2475683" lon="12.9809083"><ele>385.0</ele><time>2026-04-18T09:07:47.054Z</time></trkpt><trkpt lat="43.2476333" lon="12.9807517"><ele>385.0</ele><time>2026-04-18T09:07:48.054Z</time></trkpt><trkpt lat="43.24769" lon="12.98057"><ele>385.0</ele><time>2026-04-18T09:07:49.054Z</time></trkpt><trkpt lat="43.2477133" lon="12.9803633"><ele>385.0</ele><time>2026-04-18T09:07:50.054Z</time></trkpt><trkpt lat="43.247715" lon="12.9801433"><ele>384.0</ele><time>2026-04-18T09:07:51.054Z</time></trkpt><trkpt lat="43.2477083" lon="12.9799167"><ele>383.0</ele><time>2026-04-18T09:07:52.054Z</time></trkpt><trkpt lat="43.2477017" lon="12.9796733"><ele>382.0</ele><time>2026-04-18T09:07:53.055Z</time></trkpt><trkpt lat="43.2477" lon="12.9794033"><ele>382.3333333333333</ele><time>2026-04-18T09:07:54.054Z</time></trkpt><trkpt lat="43.2476883" lon="12.979145"><ele>382.6666666666667</ele><time>2026-04-18T09:07:55.055Z</time></trkpt><trkpt lat="43.247685" lon="12.9788733"><ele>383.0</ele><time>2026-04-18T09:07:56.054Z</time></trkpt><trkpt lat="43.24768" lon="12.97862"><ele>383.0</ele><time>2026-04-18T09:07:57.054Z</time></trkpt><trkpt lat="43.2476817" lon="12.9783783"><ele>383.0</ele><time>2026-04-18T09:07:58.054Z</time></trkpt><trkpt lat="43.2476783" lon="12.9781267"><ele>383.0</ele><time>2026-04-18T09:07:59.054Z</time></trkpt><trkpt lat="43.2476767" lon="12.977875"><ele>385.33333333333337</ele><time>2026-04-18T09:08:00.055Z</time></trkpt><trkpt lat="43.2476783" lon="12.9776183"><ele>387.6666666666667</ele><time>2026-04-18T09:08:01.055Z</time></trkpt><trkpt lat="43.2476733" lon="12.977365"><ele>390.0</ele><time>2026-04-18T09:08:02.054Z</time></trkpt><trkpt lat="43.247675" lon="12.9770983"><ele>391.66666666666663</ele><time>2026-04-18T09:08:03.054Z</time></trkpt><trkpt lat="43.247695" lon="12.9768467"><ele>393.3333333333333</ele><time>2026-04-18T09:08:04.054Z</time></trkpt><trkpt lat="43.2477283" lon="12.9766017"><ele>395.0</ele><time>2026-04-18T09:08:05.054Z</time></trkpt><trkpt lat="43.2477967" lon="12.9763633"><ele>395.66666666666663</ele><time>2026-04-18T09:08:06.054Z</time></trkpt><trkpt lat="43.247885" lon="12.9761217"><ele>396.33333333333337</ele><time>2026-04-18T09:08:07.055Z</time></trkpt><trkpt lat="43.2479833" lon="12.9758683"><ele>397.0</ele><time>2026-04-18T09:08:08.054Z</time></trkpt><trkpt lat="43.2480817" lon="12.9756183"><ele>397.33333333333337</ele><time>2026-04-18T09:08:09.054Z</time></trkpt><trkpt lat="43.248175" lon="12.9753683"><ele>397.66666666666663</ele><time>2026-04-18T09:08:10.054Z</time></trkpt><trkpt lat="43.2482733" lon="12.9751133"><ele>398.0</ele><time>2026-04-18T09:08:11.054Z</time></trkpt><trkpt lat="43.248375" lon="12.974855"><ele>398.0</ele><time>2026-04-18T09:08:12.055Z</time></trkpt><trkpt lat="43.2484783" lon="12.974605"><ele>398.0</ele><time>2026-04-18T09:08:13.054Z</time></trkpt><trkpt lat="43.2485733" lon="12.9743467"><ele>398.0</ele><time>2026-04-18T09:08:14.054Z</time></trkpt><trkpt lat="43.2486717" lon="12.974095"><ele>398.0</ele><time>2026-04-18T09:08:15.055Z</time></trkpt><trkpt lat="43.2487683" lon="12.9738433"><ele>398.0</ele><time>2026-04-18T09:08:16.054Z</time></trkpt><trkpt lat="43.2488633" lon="12.9735967"><ele>398.0</ele><time>2026-04-18T09:08:17.054Z</time></trkpt><trkpt lat="43.2489583" lon="12.9733483"><ele>401.3333333333333</ele><time>2026-04-18T09:08:18.054Z</time></trkpt><trkpt lat="43.2490533" lon="12.9730967"><ele>404.66666666666663</ele><time>2026-04-18T09:08:19.055Z</time></trkpt><trkpt lat="43.24915" lon="12.97285"><ele>408.0</ele><time>2026-04-18T09:08:20.055Z</time></trkpt><trkpt lat="43.249245" lon="12.972605"><ele>408.0</ele><time>2026-04-18T09:08:21.055Z</time></trkpt><trkpt lat="43.2493417" lon="12.972355"><ele>408.0</ele><time>2026-04-18T09:08:22.054Z</time></trkpt><trkpt lat="43.2494417" lon="12.97211"><ele>408.0</ele><time>2026-04-18T09:08:23.054Z</time></trkpt><trkpt lat="43.249545" lon="12.9718683"><ele>406.66666666666663</ele><time>2026-04-18T09:08:24.054Z</time></trkpt><trkpt lat="43.2496433" lon="12.9716183"><ele>405.3333333333333</ele><time>2026-04-18T09:08:25.054Z</time></trkpt><trkpt lat="43.2497383" lon="12.9713783"><ele>404.0</ele><time>2026-04-18T09:08:26.054Z</time></trkpt><trkpt lat="43.2498283" lon="12.9711533"><ele>405.3333333333333</ele><time>2026-04-18T09:08:27.055Z</time></trkpt><trkpt lat="43.2499067" lon="12.97093"><ele>406.66666666666663</ele><time>2026-04-18T09:08:28.054Z</time></trkpt><trkpt lat="43.2499767" lon="12.9707283"><ele>408.0</ele><time>2026-04-18T09:08:29.055Z</time></trkpt><trkpt lat="43.250055" lon="12.9705333"><ele>408.0</ele><time>2026-04-18T09:08:30.054Z</time></trkpt><trkpt lat="43.2501367" lon="12.9703333"><ele>408.0</ele><time>2026-04-18T09:08:31.054Z</time></trkpt><trkpt lat="43.2502217" lon="12.97014"><ele>408.0</ele><time>2026-04-18T09:08:32.054Z</time></trkpt><trkpt lat="43.2503" lon="12.9699533"><ele>408.0</ele><time>2026-04-18T09:08:33.054Z</time></trkpt><trkpt lat="43.2503767" lon="12.9697683"><ele>408.0</ele><time>2026-04-18T09:08:34.054Z</time></trkpt><trkpt lat="43.250445" lon="12.9695983"><ele>408.0</ele><time>2026-04-18T09:08:35.055Z</time></trkpt><trkpt lat="43.2505117" lon="12.9694317"><ele>408.0</ele><time>2026-04-18T09:08:36.054Z</time></trkpt><trkpt lat="43.2505717" lon="12.9692767"><ele>409.5</ele><time>2026-04-18T09:08:37.054Z</time></trkpt><trkpt lat="43.250625" lon="12.9691183"><ele>411.0</ele><time>2026-04-18T09:08:38.055Z</time></trkpt><trkpt lat="43.2506733" lon="12.9689717"><ele>412.5</ele><time>2026-04-18T09:08:39.054Z</time></trkpt><trkpt lat="43.2507333" lon="12.96882"><ele>414.0</ele><time>2026-04-18T09:08:40.055Z</time></trkpt><trkpt lat="43.250785" lon="12.9686583"><ele>414.0</ele><time>2026-04-18T09:08:41.054Z</time></trkpt><trkpt lat="43.2508233" lon="12.968485"><ele>414.0</ele><time>2026-04-18T09:08:42.055Z</time></trkpt><trkpt lat="43.2508483" lon="12.9683"><ele>414.0</ele><time>2026-04-18T09:08:43.054Z</time></trkpt><trkpt lat="43.2508583" lon="12.9681067"><ele>414.0</ele><time>2026-04-18T09:08:44.054Z</time></trkpt><trkpt lat="43.2508567" lon="12.9679"><ele>413.33333333333337</ele><time>2026-04-18T09:08:45.054Z</time></trkpt><trkpt lat="43.2508383" lon="12.9676917"><ele>412.6666666666667</ele><time>2026-04-18T09:08:46.054Z</time></trkpt><trkpt lat="43.2508" lon="12.9674667"><ele>412.0</ele><time>2026-04-18T09:08:47.054Z</time></trkpt><trkpt lat="43.2507483" lon="12.967245"><ele>411.33333333333337</ele><time>2026-04-18T09:08:48.054Z</time></trkpt><trkpt lat="43.2506883" lon="12.9670233"><ele>410.66666666666663</ele><time>2026-04-18T09:08:49.054Z</time></trkpt><trkpt lat="43.2506317" lon="12.96681"><ele>410.0</ele><time>2026-04-18T09:08:50.054Z</time></trkpt><trkpt lat="43.250575" lon="12.966585"><ele>409.66666666666663</ele><time>2026-04-18T09:08:51.054Z</time></trkpt><trkpt lat="43.250525" lon="12.9663583"><ele>409.33333333333337</ele><time>2026-04-18T09:08:52.054Z</time></trkpt><trkpt lat="43.2504683" lon="12.96613"><ele>409.0</ele><time>2026-04-18T09:08:53.054Z</time></trkpt><trkpt lat="43.2504117" lon="12.9659067"><ele>410.6666666666667</ele><time>2026-04-18T09:08:54.055Z</time></trkpt><trkpt lat="43.2503517" lon="12.96568"><ele>412.33333333333337</ele><time>2026-04-18T09:08:55.054Z</time></trkpt><trkpt lat="43.250285" lon="12.96545"><ele>414.0</ele><time>2026-04-18T09:08:56.054Z</time></trkpt><trkpt lat="43.2502167" lon="12.9652317"><ele>413.66666666666663</ele><time>2026-04-18T09:08:57.054Z</time></trkpt><trkpt lat="43.25014" lon="12.9650117"><ele>413.3333333333333</ele><time>2026-04-18T09:08:58.055Z</time></trkpt><trkpt lat="43.2500583" lon="12.9647917"><ele>413.0</ele><time>2026-04-18T09:08:59.054Z</time></trkpt><trkpt lat="43.249975" lon="12.9645867"><ele>413.0</ele><time>2026-04-18T09:09:00.054Z</time></trkpt><trkpt lat="43.2498883" lon="12.964385"><ele>413.0</ele><time>2026-04-18T09:09:01.054Z</time></trkpt><trkpt lat="43.2498083" lon="12.9641883"><ele>413.0</ele><time>2026-04-18T09:09:02.055Z</time></trkpt><trkpt lat="43.24972" lon="12.9639933"><ele>413.66666666666663</ele><time>2026-04-18T09:09:03.054Z</time></trkpt><trkpt lat="43.2496233" lon="12.9638017"><ele>414.33333333333337</ele><time>2026-04-18T09:09:04.054Z</time></trkpt><trkpt lat="43.2495217" lon="12.9636117"><ele>415.0</ele><time>2026-04-18T09:09:05.054Z</time></trkpt><trkpt lat="43.2494133" lon="12.9634333"><ele>415.6666666666667</ele><time>2026-04-18T09:09:06.054Z</time></trkpt><trkpt lat="43.2492933" lon="12.9632467"><ele>416.33333333333337</ele><time>2026-04-18T09:09:07.054Z</time></trkpt><trkpt lat="43.2491733" lon="12.96306"><ele>417.0</ele><time>2026-04-18T09:09:08.054Z</time></trkpt><trkpt lat="43.24905" lon="12.962885"><ele>417.33333333333337</ele><time>2026-04-18T09:09:09.054Z</time></trkpt><trkpt lat="43.2489267" lon="12.9627167"><ele>417.6666666666667</ele><time>2026-04-18T09:09:10.054Z</time></trkpt><trkpt lat="43.248795" lon="12.9625583"><ele>418.0</ele><time>2026-04-18T09:09:11.054Z</time></trkpt><trkpt lat="43.248655" lon="12.9624067"><ele>418.0</ele><time>2026-04-18T09:09:12.054Z</time></trkpt><trkpt lat="43.2485233" lon="12.9622583"><ele>418.0</ele><time>2026-04-18T09:09:13.054Z</time></trkpt><trkpt lat="43.2483817" lon="12.962115"><ele>418.0</ele><time>2026-04-18T09:09:14.054Z</time></trkpt><trkpt lat="43.2482367" lon="12.9619733"><ele>418.0</ele><time>2026-04-18T09:09:15.054Z</time></trkpt><trkpt lat="43.248095" lon="12.9618333"><ele>418.0</ele><time>2026-04-18T09:09:16.054Z</time></trkpt><trkpt lat="43.24796" lon="12.9616967"><ele>418.0</ele><time>2026-04-18T09:09:17.054Z</time></trkpt><trkpt lat="43.2478183" lon="12.9615567"><ele>419.6666666666667</ele><time>2026-04-18T09:09:18.054Z</time></trkpt><trkpt lat="43.247685" lon="12.9614167"><ele>421.33333333333337</ele><time>2026-04-18T09:09:19.053Z</time></trkpt><trkpt lat="43.2475467" lon="12.9612733"><ele>423.0</ele><time>2026-04-18T09:09:20.053Z</time></trkpt><trkpt lat="43.2473983" lon="12.96112"><ele>423.33333333333337</ele><time>2026-04-18T09:09:21.054Z</time></trkpt><trkpt lat="43.24724" lon="12.96097"><ele>423.6666666666667</ele><time>2026-04-18T09:09:22.053Z</time></trkpt><trkpt lat="43.2470883" lon="12.9608283"><ele>424.0</ele><time>2026-04-18T09:09:23.053Z</time></trkpt><trkpt lat="43.246935" lon="12.96069"><ele>424.6666666666667</ele><time>2026-04-18T09:09:24.054Z</time></trkpt><trkpt lat="43.2467817" lon="12.9605467"><ele>425.33333333333337</ele><time>2026-04-18T09:09:25.053Z</time></trkpt><trkpt lat="43.24663" lon="12.960405"><ele>426.0</ele><time>2026-04-18T09:09:26.053Z</time></trkpt><trkpt lat="43.24647" lon="12.9602567"><ele>427.66666666666663</ele><time>2026-04-18T09:09:27.053Z</time></trkpt><trkpt lat="43.2463083" lon="12.960115"><ele>429.3333333333333</ele><time>2026-04-18T09:09:28.053Z</time></trkpt><trkpt lat="43.2461583" lon="12.9599617"><ele>431.0</ele><time>2026-04-18T09:09:29.053Z</time></trkpt><trkpt lat="43.2460067" lon="12.9598283"><ele>431.0</ele><time>2026-04-18T09:09:30.054Z</time></trkpt><trkpt lat="43.24587" lon="12.9596817"><ele>431.0</ele><time>2026-04-18T09:09:31.053Z</time></trkpt><trkpt lat="43.24573" lon="12.9595367"><ele>431.0</ele><time>2026-04-18T09:09:32.053Z</time></trkpt><trkpt lat="43.24558" lon="12.959395"><ele>433.0</ele><time>2026-04-18T09:09:33.053Z</time></trkpt><trkpt lat="43.2454367" lon="12.9592617"><ele>435.0</ele><time>2026-04-18T09:09:34.053Z</time></trkpt><trkpt lat="43.2452983" lon="12.959135"><ele>437.0</ele><time>2026-04-18T09:09:35.053Z</time></trkpt><trkpt lat="43.2451683" lon="12.959015"><ele>437.0</ele><time>2026-04-18T09:09:36.053Z</time></trkpt><trkpt lat="43.245035" lon="12.958915"><ele>437.0</ele><time>2026-04-18T09:09:37.053Z</time></trkpt><trkpt lat="43.244905" lon="12.9588517"><ele>437.0</ele><time>2026-04-18T09:09:38.053Z</time></trkpt><trkpt lat="43.2447733" lon="12.9588067"><ele>437.0</ele><time>2026-04-18T09:09:39.053Z</time></trkpt><trkpt lat="43.24463" lon="12.9587917"><ele>438.5</ele><time>2026-04-18T09:09:40.053Z</time></trkpt><trkpt lat="43.244485" lon="12.9587967"><ele>440.0</ele><time>2026-04-18T09:09:41.053Z</time></trkpt><trkpt lat="43.2443467" lon="12.9588167"><ele>441.5</ele><time>2026-04-18T09:09:42.054Z</time></trkpt><trkpt lat="43.2441967" lon="12.95885"><ele>443.0</ele><time>2026-04-18T09:09:43.053Z</time></trkpt><trkpt lat="43.2440383" lon="12.9588817"><ele>445.0</ele><time>2026-04-18T09:09:44.053Z</time></trkpt><trkpt lat="43.2438783" lon="12.95889"><ele>447.0</ele><time>2026-04-18T09:09:45.054Z</time></trkpt><trkpt lat="43.2437217" lon="12.95887"><ele>449.0</ele><time>2026-04-18T09:09:46.053Z</time></trkpt><trkpt lat="43.2435633" lon="12.9588233"><ele>449.0</ele><time>2026-04-18T09:09:47.054Z</time></trkpt><trkpt lat="43.2434167" lon="12.9587633"><ele>449.0</ele><time>2026-04-18T09:09:48.054Z</time></trkpt><trkpt lat="43.2432617" lon="12.9586917"><ele>449.0</ele><time>2026-04-18T09:09:49.053Z</time></trkpt><trkpt lat="43.2431167" lon="12.9586033"><ele>450.0</ele><time>2026-04-18T09:09:50.053Z</time></trkpt><trkpt lat="43.24299" lon="12.9585117"><ele>451.0</ele><time>2026-04-18T09:09:51.053Z</time></trkpt><trkpt lat="43.2428783" lon="12.9584283"><ele>452.0</ele><time>2026-04-18T09:09:52.053Z</time></trkpt><trkpt lat="43.2427683" lon="12.9583583"><ele>453.0</ele><time>2026-04-18T09:09:53.053Z</time></trkpt><trkpt lat="43.24267" lon="12.9583067"><ele>453.0</ele><time>2026-04-18T09:09:54.053Z</time></trkpt><trkpt lat="43.2425767" lon="12.95828"><ele>452.99999999999994</ele><time>2026-04-18T09:09:55.054Z</time></trkpt><trkpt lat="43.2424817" lon="12.9582867"><ele>452.99999999999994</ele><time>2026-04-18T09:09:56.054Z</time></trkpt><trkpt lat="43.2423833" lon="12.9583383"><ele>453.0</ele><time>2026-04-18T09:09:57.054Z</time></trkpt><trkpt lat="43.2422917" lon="12.958425"><ele>453.0</ele><time>2026-04-18T09:09:58.054Z</time></trkpt><trkpt lat="43.2422067" lon="12.958515"><ele>454.4</ele><time>2026-04-18T09:09:59.053Z</time></trkpt><trkpt lat="43.24212" lon="12.9586083"><ele>455.79999999999995</ele><time>2026-04-18T09:10:00.053Z</time></trkpt><trkpt lat="43.2420283" lon="12.958695"><ele>457.2</ele><time>2026-04-18T09:10:01.053Z</time></trkpt><trkpt lat="43.2419317" lon="12.9587767"><ele>458.6</ele><time>2026-04-18T09:10:02.054Z</time></trkpt><trkpt lat="43.2418367" lon="12.95883"><ele>460.0</ele><time>2026-04-18T09:10:03.053Z</time></trkpt><trkpt lat="43.2417433" lon="12.9588583"><ele>460.0</ele><time>2026-04-18T09:10:04.053Z</time></trkpt><trkpt lat="43.24163" lon="12.958875"><ele>460.0</ele><time>2026-04-18T09:10:05.053Z</time></trkpt><trkpt lat="43.2415317" lon="12.958875"><ele>460.0</ele><time>2026-04-18T09:10:06.053Z</time></trkpt><trkpt lat="43.2414133" lon="12.9588617"><ele>460.0</ele><time>2026-04-18T09:10:07.053Z</time></trkpt><trkpt lat="43.2412867" lon="12.9588417"><ele>461.0</ele><time>2026-04-18T09:10:08.053Z</time></trkpt><trkpt lat="43.2411817" lon="12.9588217"><ele>462.0</ele><time>2026-04-18T09:10:09.053Z</time></trkpt><trkpt lat="43.2410733" lon="12.958845"><ele>463.0</ele><time>2026-04-18T09:10:10.053Z</time></trkpt><trkpt lat="43.2409733" lon="12.9589067"><ele>464.0</ele><time>2026-04-18T09:10:11.053Z</time></trkpt><trkpt lat="43.2408767" lon="12.9590083"><ele>465.0</ele><time>2026-04-18T09:10:12.053Z</time></trkpt><trkpt lat="43.2407833" lon="12.9591233"><ele>464.25</ele><time>2026-04-18T09:10:13.053Z</time></trkpt><trkpt lat="43.2406933" lon="12.9592567"><ele>463.5</ele><time>2026-04-18T09:10:14.053Z</time></trkpt><trkpt lat="43.2405917" lon="12.9594"><ele>462.75</ele><time>2026-04-18T09:10:15.053Z</time></trkpt><trkpt lat="43.2404967" lon="12.9595317"><ele>462.0</ele><time>2026-04-18T09:10:16.054Z</time></trkpt><trkpt lat="43.2404117" lon="12.9596417"><ele>460.8</ele><time>2026-04-18T09:10:17.054Z</time></trkpt><trkpt lat="43.2403317" lon="12.959735"><ele>459.6</ele><time>2026-04-18T09:10:18.053Z</time></trkpt><trkpt lat="43.240235" lon="12.9598033"><ele>458.40000000000003</ele><time>2026-04-18T09:10:19.053Z</time></trkpt><trkpt lat="43.2401383" lon="12.95983"><ele>457.20000000000005</ele><time>2026-04-18T09:10:20.053Z</time></trkpt><trkpt lat="43.24005" lon="12.9598233"><ele>456.0</ele><time>2026-04-18T09:10:21.053Z</time></trkpt><trkpt lat="43.23996" lon="12.95977"><ele>456.0</ele><time>2026-04-18T09:10:22.054Z</time></trkpt><trkpt lat="43.239865" lon="12.9596833"><ele>456.0</ele><time>2026-04-18T09:10:23.053Z</time></trkpt><trkpt lat="43.2397883" lon="12.95957"><ele>456.0</ele><time>2026-04-18T09:10:24.053Z</time></trkpt><trkpt lat="43.2397133" lon="12.9594483"><ele>456.0</ele><time>2026-04-18T09:10:25.053Z</time></trkpt><trkpt lat="43.2396333" lon="12.9593233"><ele>456.75</ele><time>2026-04-18T09:10:26.053Z</time></trkpt><trkpt lat="43.239545" lon="12.9592217"><ele>457.5</ele><time>2026-04-18T09:10:27.053Z</time></trkpt><trkpt lat="43.2394533" lon="12.9591217"><ele>458.25</ele><time>2026-04-18T09:10:28.053Z</time></trkpt><trkpt lat="43.2393433" lon="12.9590267"><ele>459.0</ele><time>2026-04-18T09:10:29.053Z</time></trkpt><trkpt lat="43.2392283" lon="12.95894"><ele>459.0</ele><time>2026-04-18T09:10:30.054Z</time></trkpt><trkpt lat="43.2391133" lon="12.9588533"><ele>459.0</ele><time>2026-04-18T09:10:31.053Z</time></trkpt><trkpt lat="43.2389883" lon="12.95875"><ele>459.0</ele><time>2026-04-18T09:10:32.053Z</time></trkpt><trkpt lat="43.2388633" lon="12.9586433"><ele>459.0</ele><time>2026-04-18T09:10:33.053Z</time></trkpt><trkpt lat="43.23873" lon="12.958555"><ele>456.75</ele><time>2026-04-18T09:10:34.053Z</time></trkpt><trkpt lat="43.2386183" lon="12.9584633"><ele>454.5</ele><time>2026-04-18T09:10:35.053Z</time></trkpt><trkpt lat="43.2384983" lon="12.958385"><ele>452.25</ele><time>2026-04-18T09:10:36.053Z</time></trkpt><trkpt lat="43.23837" lon="12.95834"><ele>450.0</ele><time>2026-04-18T09:10:37.053Z</time></trkpt><trkpt lat="43.2382533" lon="12.958275"><ele>451.75</ele><time>2026-04-18T09:10:38.054Z</time></trkpt><trkpt lat="43.23814" lon="12.9582167"><ele>453.5</ele><time>2026-04-18T09:10:39.053Z</time></trkpt><trkpt lat="43.2380417" lon="12.9581333"><ele>455.25</ele><time>2026-04-18T09:10:40.053Z</time></trkpt><trkpt lat="43.2379317" lon="12.9580417"><ele>457.0</ele><time>2026-04-18T09:10:41.053Z</time></trkpt><trkpt lat="43.2378233" lon="12.9579383"><ele>457.0</ele><time>2026-04-18T09:10:42.053Z</time></trkpt><trkpt lat="43.2377083" lon="12.95783"><ele>457.0</ele><time>2026-04-18T09:10:43.053Z</time></trkpt><trkpt lat="43.2375967" lon="12.9577283"><ele>457.0</ele><time>2026-04-18T09:10:44.053Z</time></trkpt><trkpt lat="43.23749" lon="12.9576233"><ele>457.0</ele><time>2026-04-18T09:10:45.053Z</time></trkpt><trkpt lat="43.2373733" lon="12.9575333"><ele>457.75</ele><time>2026-04-18T09:10:46.054Z</time></trkpt><trkpt lat="43.2372617" lon="12.957455"><ele>458.5</ele><time>2026-04-18T09:10:47.053Z</time></trkpt><trkpt lat="43.2371467" lon="12.9573817"><ele>459.25</ele><time>2026-04-18T09:10:48.053Z</time></trkpt><trkpt lat="43.23703" lon="12.9573117"><ele>460.0</ele><time>2026-04-18T09:10:49.054Z</time></trkpt><trkpt lat="43.2369117" lon="12.9572517"><ele>460.0</ele><time>2026-04-18T09:10:50.053Z</time></trkpt><trkpt lat="43.2368" lon="12.9571867"><ele>460.0</ele><time>2026-04-18T09:10:51.054Z</time></trkpt><trkpt lat="43.2366867" lon="12.9571233"><ele>460.0</ele><time>2026-04-18T09:10:52.054Z</time></trkpt><trkpt lat="43.236575" lon="12.9570633"><ele>460.0</ele><time>2026-04-18T09:10:53.053Z</time></trkpt><trkpt lat="43.2364567" lon="12.9570017"><ele>458.0</ele><time>2026-04-18T09:10:54.054Z</time></trkpt><trkpt lat="43.2363417" lon="12.9569433"><ele>456.0</ele><time>2026-04-18T09:10:55.054Z</time></trkpt><trkpt lat="43.2362283" lon="12.9568817"><ele>454.0</ele><time>2026-04-18T09:10:56.053Z</time></trkpt><trkpt lat="43.23611" lon="12.956825"><ele>452.0</ele><time>2026-04-18T09:10:57.053Z</time></trkpt><trkpt lat="43.2359983" lon="12.95677"><ele>452.0</ele><time>2026-04-18T09:10:58.054Z</time></trkpt><trkpt lat="43.235905" lon="12.9567067"><ele>452.00000000000006</ele><time>2026-04-18T09:10:59.053Z</time></trkpt><trkpt lat="43.2358217" lon="12.95663"><ele>452.00000000000006</ele><time>2026-04-18T09:11:00.054Z</time></trkpt><trkpt lat="43.23577" lon="12.956515"><ele>452.0</ele><time>2026-04-18T09:11:01.053Z</time></trkpt><trkpt lat="43.235735" lon="12.9563817"><ele>452.0</ele><time>2026-04-18T09:11:02.053Z</time></trkpt><trkpt lat="43.2357183" lon="12.9562317"><ele>453.25</ele><time>2026-04-18T09:11:03.053Z</time></trkpt><trkpt lat="43.2357017" lon="12.9560567"><ele>454.5</ele><time>2026-04-18T09:11:04.053Z</time></trkpt><trkpt lat="43.235685" lon="12.9558783"><ele>455.75</ele><time>2026-04-18T09:11:05.053Z</time></trkpt><trkpt lat="43.2356583" lon="12.9557017"><ele>457.0</ele><time>2026-04-18T09:11:06.054Z</time></trkpt><trkpt lat="43.2356283" lon="12.9555233"><ele>457.0</ele><time>2026-04-18T09:11:07.053Z</time></trkpt><trkpt lat="43.2355883" lon="12.9553383"><ele>457.0</ele><time>2026-04-18T09:11:08.054Z</time></trkpt><trkpt lat="43.23555" lon="12.9551533"><ele>457.0</ele><time>2026-04-18T09:11:09.053Z</time></trkpt><trkpt lat="43.2355117" lon="12.9549717"><ele>457.0</ele><time>2026-04-18T09:11:10.053Z</time></trkpt><trkpt lat="43.23548" lon="12.9547867"><ele>457.25</ele><time>2026-04-18T09:11:11.053Z</time></trkpt><trkpt lat="43.2354417" lon="12.9545967"><ele>457.5</ele><time>2026-04-18T09:11:12.053Z</time></trkpt><trkpt lat="43.235415" lon="12.9544083"><ele>457.75</ele><time>2026-04-18T09:11:13.054Z</time></trkpt><trkpt lat="43.2353983" lon="12.9542117"><ele>458.0</ele><time>2026-04-18T09:11:14.054Z</time></trkpt><trkpt lat="43.2353833" lon="12.9540283"><ele>458.75</ele><time>2026-04-18T09:11:15.053Z</time></trkpt><trkpt lat="43.2353667" lon="12.953835"><ele>459.5</ele><time>2026-04-18T09:11:16.053Z</time></trkpt><trkpt lat="43.2353633" lon="12.9536367"><ele>460.25</ele><time>2026-04-18T09:11:17.054Z</time></trkpt><trkpt lat="43.2353383" lon="12.9534333"><ele>461.0</ele><time>2026-04-18T09:11:18.053Z</time></trkpt><trkpt lat="43.2353033" lon="12.9532433"><ele>462.5</ele><time>2026-04-18T09:11:19.053Z</time></trkpt><trkpt lat="43.235265" lon="12.9530617"><ele>464.0</ele><time>2026-04-18T09:11:20.053Z</time></trkpt><trkpt lat="43.235225" lon="12.9528917"><ele>465.5</ele><time>2026-04-18T09:11:21.053Z</time></trkpt><trkpt lat="43.2351917" lon="12.9527233"><ele>467.0</ele><time>2026-04-18T09:11:22.053Z</time></trkpt><trkpt lat="43.23517" lon="12.9525683"><ele>468.6</ele><time>2026-04-18T09:11:23.053Z</time></trkpt><trkpt lat="43.235145" lon="12.9524133"><ele>470.20000000000005</ele><time>2026-04-18T09:11:24.053Z</time></trkpt><trkpt lat="43.2351117" lon="12.9522633"><ele>471.8</ele><time>2026-04-18T09:11:25.053Z</time></trkpt><trkpt lat="43.23507" lon="12.9521233"><ele>473.4</ele><time>2026-04-18T09:11:26.054Z</time></trkpt><trkpt lat="43.2350217" lon="12.9519917"><ele>475.0</ele><time>2026-04-18T09:11:27.053Z</time></trkpt><trkpt lat="43.23496" lon="12.9518883"><ele>475.0</ele><time>2026-04-18T09:11:28.053Z</time></trkpt><trkpt lat="43.2348817" lon="12.9518017"><ele>475.0</ele><time>2026-04-18T09:11:29.053Z</time></trkpt><trkpt lat="43.2347917" lon="12.9517433"><ele>475.0</ele><time>2026-04-18T09:11:30.053Z</time></trkpt><trkpt lat="43.2346733" lon="12.9517117"><ele>475.0</ele><time>2026-04-18T09:11:31.054Z</time></trkpt><trkpt lat="43.23456" lon="12.9516967"><ele>475.0</ele><time>2026-04-18T09:11:32.053Z</time></trkpt><trkpt lat="43.2344467" lon="12.9516467"><ele>473.75</ele><time>2026-04-18T09:11:33.054Z</time></trkpt><trkpt lat="43.234335" lon="12.9515717"><ele>472.5</ele><time>2026-04-18T09:11:34.053Z</time></trkpt><trkpt lat="43.2342267" lon="12.9514683"><ele>471.25</ele><time>2026-04-18T09:11:35.053Z</time></trkpt><trkpt lat="43.2341233" lon="12.9513533"><ele>470.0</ele><time>2026-04-18T09:11:36.053Z</time></trkpt><trkpt lat="43.2340233" lon="12.9512383"><ele>477.75</ele><time>2026-04-18T09:11:37.053Z</time></trkpt><trkpt lat="43.2339367" lon="12.951105"><ele>485.5</ele><time>2026-04-18T09:11:38.053Z</time></trkpt><trkpt lat="43.2338583" lon="12.9509567"><ele>493.25</ele><time>2026-04-18T09:11:39.053Z</time></trkpt><trkpt lat="43.2337967" lon="12.950805"><ele>501.0</ele><time>2026-04-18T09:11:40.053Z</time></trkpt><trkpt lat="43.2337433" lon="12.9506617"><ele>501.0</ele><time>2026-04-18T09:11:41.053Z</time></trkpt><trkpt lat="43.2336867" lon="12.9505417"><ele>501.0</ele><time>2026-04-18T09:11:42.053Z</time></trkpt><trkpt lat="43.23364" lon="12.9504233"><ele>501.0</ele><time>2026-04-18T09:11:43.053Z</time></trkpt><trkpt lat="43.2336217" lon="12.9503183"><ele>501.0</ele><time>2026-04-18T09:11:44.053Z</time></trkpt><trkpt lat="43.23365" lon="12.9502017"><ele>501.0</ele><time>2026-04-18T09:11:45.053Z</time></trkpt><trkpt lat="43.2337033" lon="12.9500967"><ele>499.8</ele><time>2026-04-18T09:11:46.053Z</time></trkpt><trkpt lat="43.233765" lon="12.950005"><ele>498.6</ele><time>2026-04-18T09:11:47.053Z</time></trkpt><trkpt lat="43.23383" lon="12.9499083"><ele>497.4</ele><time>2026-04-18T09:11:48.053Z</time></trkpt><trkpt lat="43.23388" lon="12.949785"><ele>496.2</ele><time>2026-04-18T09:11:49.053Z</time></trkpt><trkpt lat="43.2338967" lon="12.94965"><ele>495.0</ele><time>2026-04-18T09:11:50.053Z</time></trkpt><trkpt lat="43.233885" lon="12.9495117"><ele>495.0</ele><time>2026-04-18T09:11:51.053Z</time></trkpt><trkpt lat="43.2338483" lon="12.9493583"><ele>495.0</ele><time>2026-04-18T09:11:52.053Z</time></trkpt><trkpt lat="43.2337883" lon="12.9492067"><ele>495.0</ele><time>2026-04-18T09:11:53.053Z</time></trkpt><trkpt lat="43.2337317" lon="12.9490383"><ele>495.0</ele><time>2026-04-18T09:11:54.053Z</time></trkpt><trkpt lat="43.2336683" lon="12.9488817"><ele>493.5</ele><time>2026-04-18T09:11:55.053Z</time></trkpt><trkpt lat="43.23361" lon="12.9487167"><ele>492.0</ele><time>2026-04-18T09:11:56.053Z</time></trkpt><trkpt lat="43.233545" lon="12.9485533"><ele>490.5</ele><time>2026-04-18T09:11:57.053Z</time></trkpt><trkpt lat="43.2334983" lon="12.9483667"><ele>489.0</ele><time>2026-04-18T09:11:58.054Z</time></trkpt><trkpt lat="43.2334617" lon="12.9481717"><ele>489.0</ele><time>2026-04-18T09:11:59.053Z</time></trkpt><trkpt lat="43.2334367" lon="12.94797"><ele>489.0</ele><time>2026-04-18T09:12:00.053Z</time></trkpt><trkpt lat="43.2334183" lon="12.94775"><ele>489.0</ele><time>2026-04-18T09:12:01.053Z</time></trkpt><trkpt lat="43.233395" lon="12.94751"><ele>490.0</ele><time>2026-04-18T09:12:02.053Z</time></trkpt><trkpt lat="43.2333733" lon="12.947275"><ele>491.0</ele><time>2026-04-18T09:12:03.054Z</time></trkpt><trkpt lat="43.2333367" lon="12.9470417"><ele>492.0</ele><time>2026-04-18T09:12:04.053Z</time></trkpt><trkpt lat="43.2332867" lon="12.9468167"><ele>494.33333333333337</ele><time>2026-04-18T09:12:05.053Z</time></trkpt><trkpt lat="43.2332267" lon="12.9465933"><ele>496.6666666666667</ele><time>2026-04-18T09:12:06.053Z</time></trkpt><trkpt lat="43.2331583" lon="12.94638"><ele>499.0</ele><time>2026-04-18T09:12:07.053Z</time></trkpt><trkpt lat="43.2330983" lon="12.9461717"><ele>499.0</ele><time>2026-04-18T09:12:08.054Z</time></trkpt><trkpt lat="43.2330483" lon="12.945955"><ele>499.0</ele><time>2026-04-18T09:12:09.053Z</time></trkpt><trkpt lat="43.2329783" lon="12.9457433"><ele>499.0</ele><time>2026-04-18T09:12:10.053Z</time></trkpt><trkpt lat="43.2329283" lon="12.9455483"><ele>499.25</ele><time>2026-04-18T09:12:11.053Z</time></trkpt><trkpt lat="43.2329117" lon="12.9453567"><ele>499.5</ele><time>2026-04-18T09:12:12.053Z</time></trkpt><trkpt lat="43.2329" lon="12.9451683"><ele>499.75</ele><time>2026-04-18T09:12:13.054Z</time></trkpt><trkpt lat="43.2328883" lon="12.9449983"><ele>500.0</ele><time>2026-04-18T09:12:14.053Z</time></trkpt><trkpt lat="43.2328433" lon="12.9448483"><ele>500.0</ele><time>2026-04-18T09:12:15.053Z</time></trkpt><trkpt lat="43.2327683" lon="12.944715"><ele>500.0</ele><time>2026-04-18T09:12:16.053Z</time></trkpt><trkpt lat="43.2326717" lon="12.9446117"><ele>500.0</ele><time>2026-04-18T09:12:17.053Z</time></trkpt><trkpt lat="43.23255" lon="12.94453"><ele>500.0</ele><time>2026-04-18T09:12:18.053Z</time></trkpt><trkpt lat="43.232425" lon="12.94446"><ele>502.25</ele><time>2026-04-18T09:12:19.054Z</time></trkpt><trkpt lat="43.2322867" lon="12.9443933"><ele>504.5</ele><time>2026-04-18T09:12:20.053Z</time></trkpt><trkpt lat="43.2321817" lon="12.94428"><ele>506.75</ele><time>2026-04-18T09:12:21.053Z</time></trkpt><trkpt lat="43.232095" lon="12.9441267"><ele>509.0</ele><time>2026-04-18T09:12:22.053Z</time></trkpt><trkpt lat="43.232015" lon="12.9439383"><ele>509.0</ele><time>2026-04-18T09:12:23.053Z</time></trkpt><trkpt lat="43.2319233" lon="12.9437567"><ele>509.0</ele><time>2026-04-18T09:12:24.053Z</time></trkpt><trkpt lat="43.2318467" lon="12.943555"><ele>509.0</ele><time>2026-04-18T09:12:25.053Z</time></trkpt><trkpt lat="43.2317683" lon="12.943365"><ele>511.0</ele><time>2026-04-18T09:12:26.053Z</time></trkpt><trkpt lat="43.2316917" lon="12.9431783"><ele>513.0</ele><time>2026-04-18T09:12:27.053Z</time></trkpt><trkpt lat="43.2316217" lon="12.94301"><ele>515.0</ele><time>2026-04-18T09:12:28.053Z</time></trkpt><trkpt lat="43.2315483" lon="12.94287"><ele>517.0</ele><time>2026-04-18T09:12:29.053Z</time></trkpt><trkpt lat="43.2314733" lon="12.942725"><ele>517.75</ele><time>2026-04-18T09:12:30.053Z</time></trkpt><trkpt lat="43.2313833" lon="12.9425983"><ele>518.5</ele><time>2026-04-18T09:12:31.053Z</time></trkpt><trkpt lat="43.2312733" lon="12.9424967"><ele>519.25</ele><time>2026-04-18T09:12:32.053Z</time></trkpt><trkpt lat="43.2311667" lon="12.9424"><ele>520.0</ele><time>2026-04-18T09:12:33.053Z</time></trkpt><trkpt lat="43.2310583" lon="12.94231"><ele>520.5</ele><time>2026-04-18T09:12:34.053Z</time></trkpt><trkpt lat="43.230975" lon="12.9422067"><ele>521.0</ele><time>2026-04-18T09:12:35.053Z</time></trkpt><trkpt lat="43.23091" lon="12.942075"><ele>521.5</ele><time>2026-04-18T09:12:36.053Z</time></trkpt><trkpt lat="43.23086" lon="12.9419117"><ele>522.0</ele><time>2026-04-18T09:12:37.053Z</time></trkpt><trkpt lat="43.2308233" lon="12.941715"><ele>522.0</ele><time>2026-04-18T09:12:38.053Z</time></trkpt><trkpt lat="43.2307967" lon="12.9414933"><ele>522.0</ele><time>2026-04-18T09:12:39.053Z</time></trkpt><trkpt lat="43.23078" lon="12.9412683"><ele>522.0</ele><time>2026-04-18T09:12:40.053Z</time></trkpt><trkpt lat="43.23076" lon="12.9410433"><ele>524.0</ele><time>2026-04-18T09:12:41.053Z</time></trkpt><trkpt lat="43.2307367" lon="12.94081"><ele>526.0</ele><time>2026-04-18T09:12:42.053Z</time></trkpt><trkpt lat="43.2306983" lon="12.9405867"><ele>528.0</ele><time>2026-04-18T09:12:43.053Z</time></trkpt><trkpt lat="43.2306767" lon="12.940335"><ele>529.3333333333334</ele><time>2026-04-18T09:12:44.053Z</time></trkpt><trkpt lat="43.2306267" lon="12.9401067"><ele>530.6666666666667</ele><time>2026-04-18T09:12:45.053Z</time></trkpt><trkpt lat="43.230565" lon="12.9398733"><ele>532.0</ele><time>2026-04-18T09:12:46.053Z</time></trkpt><trkpt lat="43.2305" lon="12.939645"><ele>529.0</ele><time>2026-04-18T09:12:47.053Z</time></trkpt><trkpt lat="43.2304433" lon="12.939405"><ele>526.0</ele><time>2026-04-18T09:12:48.053Z</time></trkpt><trkpt lat="43.2303883" lon="12.9391617"><ele>523.0</ele><time>2026-04-18T09:12:49.053Z</time></trkpt><trkpt lat="43.2303117" lon="12.9389383"><ele>523.0</ele><time>2026-04-18T09:12:50.053Z</time></trkpt><trkpt lat="43.2302533" lon="12.938725"><ele>523.0</ele><time>2026-04-18T09:12:51.053Z</time></trkpt><trkpt lat="43.2301783" lon="12.9385117"><ele>523.0</ele><time>2026-04-18T09:12:52.053Z</time></trkpt><trkpt lat="43.2300817" lon="12.938315"><ele>523.0</ele><time>2026-04-18T09:12:53.053Z</time></trkpt><trkpt lat="43.2299567" lon="12.9381167"><ele>523.0</ele><time>2026-04-18T09:12:54.053Z</time></trkpt><trkpt lat="43.2298467" lon="12.9379083"><ele>523.0</ele><time>2026-04-18T09:12:55.054Z</time></trkpt><trkpt lat="43.2297233" lon="12.9377117"><ele>524.0</ele><time>2026-04-18T09:12:56.053Z</time></trkpt><trkpt lat="43.2295867" lon="12.9375183"><ele>525.0</ele><time>2026-04-18T09:12:57.053Z</time></trkpt><trkpt lat="43.2294883" lon="12.9373117"><ele>526.0</ele><time>2026-04-18T09:12:58.053Z</time></trkpt><trkpt lat="43.2293883" lon="12.9371117"><ele>526.0</ele><time>2026-04-18T09:12:59.053Z</time></trkpt><trkpt lat="43.22928" lon="12.9369317"><ele>526.0</ele><time>2026-04-18T09:13:00.053Z</time></trkpt><trkpt lat="43.229165" lon="12.936775"><ele>526.0</ele><time>2026-04-18T09:13:01.053Z</time></trkpt><trkpt lat="43.229015" lon="12.9366667"><ele>529.6666666666667</ele><time>2026-04-18T09:13:02.053Z</time></trkpt><trkpt lat="43.228885" lon="12.93656"><ele>533.3333333333334</ele><time>2026-04-18T09:13:03.053Z</time></trkpt><trkpt lat="43.22873" lon="12.9364383"><ele>537.0</ele><time>2026-04-18T09:13:04.054Z</time></trkpt><trkpt lat="43.228605" lon="12.9363083"><ele>537.0</ele><time>2026-04-18T09:13:05.053Z</time></trkpt><trkpt lat="43.2284767" lon="12.9361917"><ele>537.0</ele><time>2026-04-18T09:13:06.054Z</time></trkpt><trkpt lat="43.2283567" lon="12.93607"><ele>537.0</ele><time>2026-04-18T09:13:07.053Z</time></trkpt><trkpt lat="43.22825" lon="12.9359267"><ele>537.0</ele><time>2026-04-18T09:13:08.053Z</time></trkpt><trkpt lat="43.22814" lon="12.9357633"><ele>537.0</ele><time>2026-04-18T09:13:09.054Z</time></trkpt><trkpt lat="43.2280233" lon="12.9355983"><ele>537.0</ele><time>2026-04-18T09:13:10.053Z</time></trkpt><trkpt lat="43.2279067" lon="12.9354333"><ele>537.0</ele><time>2026-04-18T09:13:11.053Z</time></trkpt><trkpt lat="43.2277833" lon="12.9352767"><ele>537.0</ele><time>2026-04-18T09:13:12.053Z</time></trkpt><trkpt lat="43.22765" lon="12.9351267"><ele>537.0</ele><time>2026-04-18T09:13:13.054Z</time></trkpt><trkpt lat="43.22751" lon="12.934985"><ele>536.0</ele><time>2026-04-18T09:13:14.054Z</time></trkpt><trkpt lat="43.2273533" lon="12.9348617"><ele>535.0</ele><time>2026-04-18T09:13:15.053Z</time></trkpt><trkpt lat="43.2271867" lon="12.934755"><ele>534.0</ele><time>2026-04-18T09:13:16.053Z</time></trkpt><trkpt lat="43.2270083" lon="12.934655"><ele>534.0</ele><time>2026-04-18T09:13:17.053Z</time></trkpt><trkpt lat="43.2268467" lon="12.9345683"><ele>534.0</ele><time>2026-04-18T09:13:18.053Z</time></trkpt><trkpt lat="43.2267033" lon="12.9344783"><ele>534.0</ele><time>2026-04-18T09:13:19.054Z</time></trkpt><trkpt lat="43.2265883" lon="12.9343867"><ele>534.0</ele><time>2026-04-18T09:13:20.054Z</time></trkpt><trkpt lat="43.2265083" lon="12.93427"><ele>534.0</ele><time>2026-04-18T09:13:21.053Z</time></trkpt><trkpt lat="43.226455" lon="12.9341317"><ele>534.0</ele><time>2026-04-18T09:13:22.053Z</time></trkpt><trkpt lat="43.226425" lon="12.93399"><ele>534.0</ele><time>2026-04-18T09:13:23.053Z</time></trkpt><trkpt lat="43.2264233" lon="12.93384"><ele>534.0</ele><time>2026-04-18T09:13:24.054Z</time></trkpt><trkpt lat="43.2264167" lon="12.933675"><ele>534.25</ele><time>2026-04-18T09:13:25.053Z</time></trkpt><trkpt lat="43.22637" lon="12.933515"><ele>534.5</ele><time>2026-04-18T09:13:26.054Z</time></trkpt><trkpt lat="43.2262917" lon="12.933365"><ele>534.75</ele><time>2026-04-18T09:13:27.053Z</time></trkpt><trkpt lat="43.2262083" lon="12.9331933"><ele>535.0</ele><time>2026-04-18T09:13:28.053Z</time></trkpt><trkpt lat="43.2261167" lon="12.9330067"><ele>535.3333333333334</ele><time>2026-04-18T09:13:29.054Z</time></trkpt><trkpt lat="43.22603" lon="12.9328217"><ele>535.6666666666666</ele><time>2026-04-18T09:13:30.053Z</time></trkpt><trkpt lat="43.22596" lon="12.9326417"><ele>536.0</ele><time>2026-04-18T09:13:31.053Z</time></trkpt><trkpt lat="43.2258833" lon="12.9324683"><ele>536.0</ele><time>2026-04-18T09:13:32.053Z</time></trkpt><trkpt lat="43.2258017" lon="12.9323067"><ele>536.0</ele><time>2026-04-18T09:13:33.054Z</time></trkpt><trkpt lat="43.2257233" lon="12.9321617"><ele>536.0</ele><time>2026-04-18T09:13:34.053Z</time></trkpt><trkpt lat="43.22564" lon="12.9320017"><ele>536.0</ele><time>2026-04-18T09:13:35.053Z</time></trkpt><trkpt lat="43.2255633" lon="12.9318367"><ele>536.75</ele><time>2026-04-18T09:13:36.053Z</time></trkpt><trkpt lat="43.225495" lon="12.9316583"><ele>537.5</ele><time>2026-04-18T09:13:37.053Z</time></trkpt><trkpt lat="43.2254283" lon="12.9314933"><ele>538.25</ele><time>2026-04-18T09:13:38.053Z</time></trkpt><trkpt lat="43.2253433" lon="12.931335"><ele>539.0</ele><time>2026-04-18T09:13:39.053Z</time></trkpt><trkpt lat="43.2252517" lon="12.931185"><ele>539.0</ele><time>2026-04-18T09:13:40.053Z</time></trkpt><trkpt lat="43.225145" lon="12.9310467"><ele>539.0</ele><time>2026-04-18T09:13:41.053Z</time></trkpt><trkpt lat="43.22503" lon="12.930915"><ele>539.0</ele><time>2026-04-18T09:13:42.053Z</time></trkpt><trkpt lat="43.224905" lon="12.93082"><ele>539.0</ele><time>2026-04-18T09:13:43.054Z</time></trkpt><trkpt lat="43.22479" lon="12.930745"><ele>540.4</ele><time>2026-04-18T09:13:44.054Z</time></trkpt><trkpt lat="43.2246933" lon="12.9306867"><ele>541.8</ele><time>2026-04-18T09:13:45.054Z</time></trkpt><trkpt lat="43.2246033" lon="12.9306467"><ele>543.2</ele><time>2026-04-18T09:13:46.054Z</time></trkpt><trkpt lat="43.22451" lon="12.93062"><ele>544.6</ele><time>2026-04-18T09:13:47.053Z</time></trkpt><trkpt lat="43.2244133" lon="12.9306133"><ele>546.0</ele><time>2026-04-18T09:13:48.054Z</time></trkpt><trkpt lat="43.22432" lon="12.9306083"><ele>546.0</ele><time>2026-04-18T09:13:49.053Z</time></trkpt><trkpt lat="43.2242267" lon="12.9306033"><ele>546.0</ele><time>2026-04-18T09:13:50.052Z</time></trkpt><trkpt lat="43.2241333" lon="12.9306017"><ele>546.0</ele><time>2026-04-18T09:13:51.053Z</time></trkpt><trkpt lat="43.22404" lon="12.9306067"><ele>546.0</ele><time>2026-04-18T09:13:52.052Z</time></trkpt><trkpt lat="43.2239433" lon="12.930605"><ele>546.0</ele><time>2026-04-18T09:13:53.052Z</time></trkpt><trkpt lat="43.2238433" lon="12.9306033"><ele>547.2</ele><time>2026-04-18T09:13:54.052Z</time></trkpt><trkpt lat="43.2237433" lon="12.9306083"><ele>548.4000000000001</ele><time>2026-04-18T09:13:55.052Z</time></trkpt><trkpt lat="43.2236467" lon="12.93062"><ele>549.6</ele><time>2026-04-18T09:13:56.052Z</time></trkpt><trkpt lat="43.22355" lon="12.9306417"><ele>550.8000000000001</ele><time>2026-04-18T09:13:57.052Z</time></trkpt><trkpt lat="43.2234567" lon="12.9306733"><ele>552.0</ele><time>2026-04-18T09:13:58.052Z</time></trkpt><trkpt lat="43.2233617" lon="12.930685"><ele>552.0</ele><time>2026-04-18T09:13:59.052Z</time></trkpt><trkpt lat="43.2232567" lon="12.9307033"><ele>552.0</ele><time>2026-04-18T09:14:00.052Z</time></trkpt><trkpt lat="43.223175" lon="12.9307267"><ele>552.0</ele><time>2026-04-18T09:14:01.052Z</time></trkpt><trkpt lat="43.2230933" lon="12.9307583"><ele>552.0</ele><time>2026-04-18T09:14:02.052Z</time></trkpt><trkpt lat="43.22301" lon="12.9308017"><ele>552.0</ele><time>2026-04-18T09:14:03.052Z</time></trkpt><trkpt lat="43.2229267" lon="12.9308317"><ele>552.0</ele><time>2026-04-18T09:14:04.052Z</time></trkpt><trkpt lat="43.2228283" lon="12.9308567"><ele>552.6</ele><time>2026-04-18T09:14:05.052Z</time></trkpt><trkpt lat="43.222735" lon="12.9308667"><ele>553.2</ele><time>2026-04-18T09:14:06.053Z</time></trkpt><trkpt lat="43.2226517" lon="12.9308467"><ele>553.8</ele><time>2026-04-18T09:14:07.053Z</time></trkpt><trkpt lat="43.2225617" lon="12.9308117"><ele>554.4</ele><time>2026-04-18T09:14:08.052Z</time></trkpt><trkpt lat="43.2224633" lon="12.9307717"><ele>555.0</ele><time>2026-04-18T09:14:09.052Z</time></trkpt><trkpt lat="43.2223617" lon="12.9307167"><ele>555.6</ele><time>2026-04-18T09:14:10.052Z</time></trkpt><trkpt lat="43.2222567" lon="12.9306667"><ele>556.2</ele><time>2026-04-18T09:14:11.052Z</time></trkpt><trkpt lat="43.2221617" lon="12.9306067"><ele>556.8</ele><time>2026-04-18T09:14:12.052Z</time></trkpt><trkpt lat="43.2220717" lon="12.9305483"><ele>557.4</ele><time>2026-04-18T09:14:13.052Z</time></trkpt><trkpt lat="43.2219933" lon="12.9305183"><ele>558.0</ele><time>2026-04-18T09:14:14.052Z</time></trkpt><trkpt lat="43.2219183" lon="12.930505"><ele>558.0</ele><time>2026-04-18T09:14:15.052Z</time></trkpt><trkpt lat="43.2218383" lon="12.93053"><ele>558.0</ele><time>2026-04-18T09:14:16.052Z</time></trkpt><trkpt lat="43.2217667" lon="12.9305967"><ele>558.0</ele><time>2026-04-18T09:14:17.052Z</time></trkpt><trkpt lat="43.2217017" lon="12.9306883"><ele>558.0</ele><time>2026-04-18T09:14:18.052Z</time></trkpt><trkpt lat="43.2216567" lon="12.9307983"><ele>558.0</ele><time>2026-04-18T09:14:19.052Z</time></trkpt><trkpt lat="43.2216" lon="12.9309233"><ele>560.4</ele><time>2026-04-18T09:14:20.052Z</time></trkpt><trkpt lat="43.2215383" lon="12.9310417"><ele>562.8</ele><time>2026-04-18T09:14:21.052Z</time></trkpt><trkpt lat="43.2214667" lon="12.93115"><ele>565.2</ele><time>2026-04-18T09:14:22.052Z</time></trkpt><trkpt lat="43.2213817" lon="12.9312383"><ele>567.6</ele><time>2026-04-18T09:14:23.052Z</time></trkpt><trkpt lat="43.2212867" lon="12.9313133"><ele>570.0</ele><time>2026-04-18T09:14:24.053Z</time></trkpt><trkpt lat="43.22118" lon="12.9313767"><ele>570.0</ele><time>2026-04-18T09:14:25.052Z</time></trkpt><trkpt lat="43.221075" lon="12.9314467"><ele>570.0</ele><time>2026-04-18T09:14:26.052Z</time></trkpt><trkpt lat="43.220965" lon="12.9315067"><ele>570.0</ele><time>2026-04-18T09:14:27.052Z</time></trkpt><trkpt lat="43.2208483" lon="12.9315783"><ele>570.0</ele><time>2026-04-18T09:14:28.052Z</time></trkpt><trkpt lat="43.2207367" lon="12.9316633"><ele>572.5</ele><time>2026-04-18T09:14:29.052Z</time></trkpt><trkpt lat="43.22064" lon="12.9317617"><ele>575.0</ele><time>2026-04-18T09:14:30.053Z</time></trkpt><trkpt lat="43.22055" lon="12.931865"><ele>577.5</ele><time>2026-04-18T09:14:31.052Z</time></trkpt><trkpt lat="43.2204833" lon="12.932005"><ele>580.0</ele><time>2026-04-18T09:14:32.053Z</time></trkpt><trkpt lat="43.22044" lon="12.9321733"><ele>580.0</ele><time>2026-04-18T09:14:33.053Z</time></trkpt><trkpt lat="43.2204083" lon="12.9323567"><ele>580.0</ele><time>2026-04-18T09:14:34.052Z</time></trkpt><trkpt lat="43.2203733" lon="12.9325533"><ele>580.0</ele><time>2026-04-18T09:14:35.052Z</time></trkpt><trkpt lat="43.2203433" lon="12.9327417"><ele>580.0</ele><time>2026-04-18T09:14:36.052Z</time></trkpt><trkpt lat="43.220315" lon="12.9329117"><ele>581.4</ele><time>2026-04-18T09:14:37.052Z</time></trkpt><trkpt lat="43.2202867" lon="12.933075"><ele>582.8</ele><time>2026-04-18T09:14:38.052Z</time></trkpt><trkpt lat="43.2202533" lon="12.93321"><ele>584.2</ele><time>2026-04-18T09:14:39.052Z</time></trkpt><trkpt lat="43.2201983" lon="12.9333267"><ele>585.6</ele><time>2026-04-18T09:14:40.052Z</time></trkpt><trkpt lat="43.220125" lon="12.9334117"><ele>587.0</ele><time>2026-04-18T09:14:41.052Z</time></trkpt><trkpt lat="43.220015" lon="12.9334717"><ele>589.5</ele><time>2026-04-18T09:14:42.052Z</time></trkpt><trkpt lat="43.2198983" lon="12.933545"><ele>592.0</ele><time>2026-04-18T09:14:43.052Z</time></trkpt><trkpt lat="43.2197783" lon="12.9336317"><ele>594.5</ele><time>2026-04-18T09:14:44.052Z</time></trkpt><trkpt lat="43.2196683" lon="12.9337417"><ele>597.0</ele><time>2026-04-18T09:14:45.053Z</time></trkpt><trkpt lat="43.2195583" lon="12.9338617"><ele>597.0</ele><time>2026-04-18T09:14:46.052Z</time></trkpt><trkpt lat="43.21944" lon="12.933975"><ele>597.0</ele><time>2026-04-18T09:14:47.052Z</time></trkpt><trkpt lat="43.2193233" lon="12.9340917"><ele>597.0</ele><time>2026-04-18T09:14:48.052Z</time></trkpt><trkpt lat="43.21921" lon="12.9342183"><ele>597.0</ele><time>2026-04-18T09:14:49.052Z</time></trkpt><trkpt lat="43.2191067" lon="12.93436"><ele>600.0</ele><time>2026-04-18T09:14:50.052Z</time></trkpt><trkpt lat="43.2189983" lon="12.9345017"><ele>603.0</ele><time>2026-04-18T09:14:51.052Z</time></trkpt><trkpt lat="43.2188867" lon="12.934645"><ele>606.0</ele><time>2026-04-18T09:14:52.052Z</time></trkpt><trkpt lat="43.2187533" lon="12.93477"><ele>606.0</ele><time>2026-04-18T09:14:53.052Z</time></trkpt><trkpt lat="43.2186267" lon="12.9348933"><ele>606.0</ele><time>2026-04-18T09:14:54.052Z</time></trkpt><trkpt lat="43.218495" lon="12.9349967"><ele>606.0</ele><time>2026-04-18T09:14:55.053Z</time></trkpt><trkpt lat="43.2183617" lon="12.935095"><ele>614.0</ele><time>2026-04-18T09:14:56.052Z</time></trkpt><trkpt lat="43.2182233" lon="12.9351683"><ele>622.0</ele><time>2026-04-18T09:14:57.052Z</time></trkpt><trkpt lat="43.2180817" lon="12.9352383"><ele>630.0</ele><time>2026-04-18T09:14:58.052Z</time></trkpt><trkpt lat="43.2179433" lon="12.935305"><ele>638.0</ele><time>2026-04-18T09:14:59.052Z</time></trkpt><trkpt lat="43.217805" lon="12.935375"><ele>638.0</ele><time>2026-04-18T09:15:00.052Z</time></trkpt><trkpt lat="43.217665" lon="12.9354367"><ele>638.0</ele><time>2026-04-18T09:15:01.052Z</time></trkpt><trkpt lat="43.2175183" lon="12.93549"><ele>638.0</ele><time>2026-04-18T09:15:02.052Z</time></trkpt><trkpt lat="43.21737" lon="12.9355267"><ele>638.0</ele><time>2026-04-18T09:15:03.052Z</time></trkpt><trkpt lat="43.2172267" lon="12.9355233"><ele>639.25</ele><time>2026-04-18T09:15:04.052Z</time></trkpt><trkpt lat="43.2170867" lon="12.9355033"><ele>640.5</ele><time>2026-04-18T09:15:05.052Z</time></trkpt><trkpt lat="43.2169467" lon="12.9355083"><ele>641.75</ele><time>2026-04-18T09:15:06.052Z</time></trkpt><trkpt lat="43.2167967" lon="12.93554"><ele>643.0</ele><time>2026-04-18T09:15:07.052Z</time></trkpt><trkpt lat="43.2166467" lon="12.9355667"><ele>643.0</ele><time>2026-04-18T09:15:08.052Z</time></trkpt><trkpt lat="43.2165067" lon="12.9355917"><ele>643.0</ele><time>2026-04-18T09:15:09.052Z</time></trkpt><trkpt lat="43.21637" lon="12.93561"><ele>643.0</ele><time>2026-04-18T09:15:10.052Z</time></trkpt><trkpt lat="43.2162217" lon="12.9356133"><ele>643.0</ele><time>2026-04-18T09:15:11.053Z</time></trkpt><trkpt lat="43.21608" lon="12.9356283"><ele>643.25</ele><time>2026-04-18T09:15:12.052Z</time></trkpt><trkpt lat="43.2159383" lon="12.9356433"><ele>643.5</ele><time>2026-04-18T09:15:13.053Z</time></trkpt><trkpt lat="43.21579" lon="12.93565"><ele>643.75</ele><time>2026-04-18T09:15:14.052Z</time></trkpt><trkpt lat="43.2156383" lon="12.9356667"><ele>644.0</ele><time>2026-04-18T09:15:15.053Z</time></trkpt><trkpt lat="43.2154783" lon="12.9356667"><ele>645.75</ele><time>2026-04-18T09:15:16.052Z</time></trkpt><trkpt lat="43.2153317" lon="12.93565"><ele>647.5</ele><time>2026-04-18T09:15:17.052Z</time></trkpt><trkpt lat="43.215185" lon="12.93565"><ele>649.25</ele><time>2026-04-18T09:15:18.053Z</time></trkpt><trkpt lat="43.21504" lon="12.9356467"><ele>651.0</ele><time>2026-04-18T09:15:19.052Z</time></trkpt><trkpt lat="43.2148867" lon="12.935625"><ele>652.0</ele><time>2026-04-18T09:15:20.052Z</time></trkpt><trkpt lat="43.2147333" lon="12.9356117"><ele>653.0</ele><time>2026-04-18T09:15:21.052Z</time></trkpt><trkpt lat="43.2145667" lon="12.9356167"><ele>654.0</ele><time>2026-04-18T09:15:22.053Z</time></trkpt><trkpt lat="43.2144117" lon="12.9356217"><ele>654.0</ele><time>2026-04-18T09:15:23.052Z</time></trkpt><trkpt lat="43.2142567" lon="12.9356367"><ele>654.0</ele><time>2026-04-18T09:15:24.052Z</time></trkpt><trkpt lat="43.2141117" lon="12.9356633"><ele>654.0</ele><time>2026-04-18T09:15:25.052Z</time></trkpt><trkpt lat="43.21398" lon="12.935705"><ele>654.0</ele><time>2026-04-18T09:15:26.052Z</time></trkpt><trkpt lat="43.2138667" lon="12.9357533"><ele>655.0</ele><time>2026-04-18T09:15:27.052Z</time></trkpt><trkpt lat="43.2137683" lon="12.9358317"><ele>656.0</ele><time>2026-04-18T09:15:28.052Z</time></trkpt><trkpt lat="43.2136733" lon="12.9359283"><ele>657.0</ele><time>2026-04-18T09:15:29.053Z</time></trkpt><trkpt lat="43.213595" lon="12.9360683"><ele>658.0</ele><time>2026-04-18T09:15:30.052Z</time></trkpt><trkpt lat="43.21354" lon="12.936225"><ele>658.0</ele><time>2026-04-18T09:15:31.053Z</time></trkpt><trkpt lat="43.2134767" lon="12.936415"><ele>658.0</ele><time>2026-04-18T09:15:32.052Z</time></trkpt><trkpt lat="43.2133933" lon="12.9366167"><ele>658.0</ele><time>2026-04-18T09:15:33.052Z</time></trkpt><trkpt lat="43.2133117" lon="12.9368183"><ele>657.6666666666667</ele><time>2026-04-18T09:15:34.052Z</time></trkpt><trkpt lat="43.21324" lon="12.9370067"><ele>657.3333333333334</ele><time>2026-04-18T09:15:35.052Z</time></trkpt><trkpt lat="43.2131567" lon="12.9372117"><ele>657.0</ele><time>2026-04-18T09:15:36.052Z</time></trkpt><trkpt lat="43.2130733" lon="12.9374017"><ele>661.3333333333334</ele><time>2026-04-18T09:15:37.052Z</time></trkpt><trkpt lat="43.21299" lon="12.9375933"><ele>665.6666666666667</ele><time>2026-04-18T09:15:38.052Z</time></trkpt><trkpt lat="43.2128983" lon="12.937785"><ele>670.0</ele><time>2026-04-18T09:15:39.052Z</time></trkpt><trkpt lat="43.2128083" lon="12.937975"><ele>670.0</ele><time>2026-04-18T09:15:40.052Z</time></trkpt><trkpt lat="43.212725" lon="12.9381717"><ele>670.0</ele><time>2026-04-18T09:15:41.052Z</time></trkpt><trkpt lat="43.2126467" lon="12.938375"><ele>670.0</ele><time>2026-04-18T09:15:42.052Z</time></trkpt><trkpt lat="43.2125633" lon="12.9385767"><ele>675.3333333333334</ele><time>2026-04-18T09:15:43.053Z</time></trkpt><trkpt lat="43.212485" lon="12.9387767"><ele>680.6666666666666</ele><time>2026-04-18T09:15:44.052Z</time></trkpt><trkpt lat="43.212405" lon="12.9389733"><ele>686.0</ele><time>2026-04-18T09:15:45.052Z</time></trkpt><trkpt lat="43.212325" lon="12.9391767"><ele>685.3333333333333</ele><time>2026-04-18T09:15:46.052Z</time></trkpt><trkpt lat="43.212245" lon="12.9393833"><ele>684.6666666666666</ele><time>2026-04-18T09:15:47.052Z</time></trkpt><trkpt lat="43.212165" lon="12.93958"><ele>684.0</ele><time>2026-04-18T09:15:48.052Z</time></trkpt><trkpt lat="43.2120867" lon="12.9397817"><ele>684.0</ele><time>2026-04-18T09:15:49.052Z</time></trkpt><trkpt lat="43.2120283" lon="12.9399683"><ele>684.0</ele><time>2026-04-18T09:15:50.052Z</time></trkpt><trkpt lat="43.2119683" lon="12.940125"><ele>684.0</ele><time>2026-04-18T09:15:51.052Z</time></trkpt><trkpt lat="43.2119133" lon="12.9402567"><ele>684.0</ele><time>2026-04-18T09:15:52.052Z</time></trkpt><trkpt lat="43.2118567" lon="12.9403717"><ele>686.2</ele><time>2026-04-18T09:15:53.052Z</time></trkpt><trkpt lat="43.211795" lon="12.940445"><ele>688.4000000000001</ele><time>2026-04-18T09:15:54.052Z</time></trkpt><trkpt lat="43.2117117" lon="12.9404783"><ele>690.6</ele><time>2026-04-18T09:15:55.052Z</time></trkpt><trkpt lat="43.2116033" lon="12.9404817"><ele>692.8</ele><time>2026-04-18T09:15:56.053Z</time></trkpt><trkpt lat="43.2114833" lon="12.9404533"><ele>695.0</ele><time>2026-04-18T09:15:57.052Z</time></trkpt><trkpt lat="43.2113633" lon="12.9403933"><ele>699.4</ele><time>2026-04-18T09:15:58.052Z</time></trkpt><trkpt lat="43.2112617" lon="12.940325"><ele>703.8</ele><time>2026-04-18T09:15:59.052Z</time></trkpt><trkpt lat="43.211175" lon="12.9402367"><ele>708.2</ele><time>2026-04-18T09:16:00.052Z</time></trkpt><trkpt lat="43.2111167" lon="12.940115"><ele>712.6</ele><time>2026-04-18T09:16:01.052Z</time></trkpt><trkpt lat="43.211075" lon="12.93996"><ele>717.0</ele><time>2026-04-18T09:16:02.052Z</time></trkpt><trkpt lat="43.2110467" lon="12.93978"><ele>717.0</ele><time>2026-04-18T09:16:03.052Z</time></trkpt><trkpt lat="43.21102" lon="12.939595"><ele>717.0</ele><time>2026-04-18T09:16:04.052Z</time></trkpt><trkpt lat="43.2110067" lon="12.9393983"><ele>717.0</ele><time>2026-04-18T09:16:05.052Z</time></trkpt><trkpt lat="43.2110067" lon="12.9391983"><ele>717.0</ele><time>2026-04-18T09:16:06.052Z</time></trkpt><trkpt lat="43.2110183" lon="12.9390117"><ele>717.75</ele><time>2026-04-18T09:16:07.052Z</time></trkpt><trkpt lat="43.2110317" lon="12.938815"><ele>718.5</ele><time>2026-04-18T09:16:08.052Z</time></trkpt><trkpt lat="43.2110467" lon="12.938615"><ele>719.25</ele><time>2026-04-18T09:16:09.052Z</time></trkpt><trkpt lat="43.2110783" lon="12.938405"><ele>720.0</ele><time>2026-04-18T09:16:10.053Z</time></trkpt><trkpt lat="43.2111067" lon="12.938195"><ele>722.0</ele><time>2026-04-18T09:16:11.052Z</time></trkpt><trkpt lat="43.2111417" lon="12.93798"><ele>724.0</ele><time>2026-04-18T09:16:12.052Z</time></trkpt><trkpt lat="43.2111717" lon="12.93777"><ele>726.0</ele><time>2026-04-18T09:16:13.052Z</time></trkpt><trkpt lat="43.2112033" lon="12.93756"><ele>726.75</ele><time>2026-04-18T09:16:14.052Z</time></trkpt><trkpt lat="43.21123" lon="12.9373483"><ele>727.5</ele><time>2026-04-18T09:16:15.052Z</time></trkpt><trkpt lat="43.2112567" lon="12.9371517"><ele>728.25</ele><time>2026-04-18T09:16:16.052Z</time></trkpt><trkpt lat="43.2112683" lon="12.9369867"><ele>729.0</ele><time>2026-04-18T09:16:17.052Z</time></trkpt><trkpt lat="43.2112833" lon="12.9368467"><ele>726.6</ele><time>2026-04-18T09:16:18.052Z</time></trkpt><trkpt lat="43.2112733" lon="12.9367167"><ele>724.2</ele><time>2026-04-18T09:16:19.053Z</time></trkpt><trkpt lat="43.2112467" lon="12.936595"><ele>721.8000000000001</ele><time>2026-04-18T09:16:20.053Z</time></trkpt><trkpt lat="43.2111883" lon="12.9364933"><ele>719.4000000000001</ele><time>2026-04-18T09:16:21.052Z</time></trkpt><trkpt lat="43.211095" lon="12.936405"><ele>717.0</ele><time>2026-04-18T09:16:22.052Z</time></trkpt><trkpt lat="43.2109817" lon="12.936315"><ele>717.0</ele><time>2026-04-18T09:16:23.052Z</time></trkpt><trkpt lat="43.2108617" lon="12.9362367"><ele>717.0</ele><time>2026-04-18T09:16:24.052Z</time></trkpt><trkpt lat="43.2107217" lon="12.936145"><ele>717.0</ele><time>2026-04-18T09:16:25.052Z</time></trkpt><trkpt lat="43.2105917" lon="12.9360633"><ele>717.0</ele><time>2026-04-18T09:16:26.052Z</time></trkpt><trkpt lat="43.2104667" lon="12.9359717"><ele>719.3333333333334</ele><time>2026-04-18T09:16:27.053Z</time></trkpt><trkpt lat="43.2103283" lon="12.9358883"><ele>721.6666666666667</ele><time>2026-04-18T09:16:28.053Z</time></trkpt><trkpt lat="43.2101883" lon="12.935805"><ele>724.0</ele><time>2026-04-18T09:16:29.052Z</time></trkpt><trkpt lat="43.210025" lon="12.9357483"><ele>724.0</ele><time>2026-04-18T09:16:30.052Z</time></trkpt><trkpt lat="43.20985" lon="12.9356883"><ele>724.0</ele><time>2026-04-18T09:16:31.052Z</time></trkpt><trkpt lat="43.2096633" lon="12.9356"><ele>724.0</ele><time>2026-04-18T09:16:32.052Z</time></trkpt><trkpt lat="43.2094983" lon="12.9355167"><ele>729.6666666666667</ele><time>2026-04-18T09:16:33.052Z</time></trkpt><trkpt lat="43.2093417" lon="12.9354467"><ele>735.3333333333334</ele><time>2026-04-18T09:16:34.053Z</time></trkpt><trkpt lat="43.2091817" lon="12.9354033"><ele>741.0</ele><time>2026-04-18T09:16:35.053Z</time></trkpt><trkpt lat="43.2090217" lon="12.93537"><ele>743.0</ele><time>2026-04-18T09:16:36.052Z</time></trkpt><trkpt lat="43.208875" lon="12.9353283"><ele>745.0</ele><time>2026-04-18T09:16:37.052Z</time></trkpt><trkpt lat="43.2087383" lon="12.9352983"><ele>747.0</ele><time>2026-04-18T09:16:38.052Z</time></trkpt><trkpt lat="43.2085883" lon="12.9352783"><ele>749.0</ele><time>2026-04-18T09:16:39.052Z</time></trkpt><trkpt lat="43.2084583" lon="12.935265"><ele>749.0</ele><time>2026-04-18T09:16:40.053Z</time></trkpt><trkpt lat="43.2083233" lon="12.9352467"><ele>749.0</ele><time>2026-04-18T09:16:41.052Z</time></trkpt><trkpt lat="43.2082033" lon="12.9352333"><ele>749.0</ele><time>2026-04-18T09:16:42.052Z</time></trkpt><trkpt lat="43.2081" lon="12.93522"><ele>749.0</ele><time>2026-04-18T09:16:43.052Z</time></trkpt><trkpt lat="43.2080167" lon="12.9352083"><ele>749.0</ele><time>2026-04-18T09:16:44.052Z</time></trkpt><trkpt lat="43.2079367" lon="12.9351967"><ele>749.1666666666666</ele><time>2026-04-18T09:16:45.052Z</time></trkpt><trkpt lat="43.207855" lon="12.935195"><ele>749.3333333333333</ele><time>2026-04-18T09:16:46.053Z</time></trkpt><trkpt lat="43.2077733" lon="12.9352"><ele>749.5</ele><time>2026-04-18T09:16:47.052Z</time></trkpt><trkpt lat="43.2076817" lon="12.93521"><ele>749.6666666666666</ele><time>2026-04-18T09:16:48.053Z</time></trkpt><trkpt lat="43.207595" lon="12.935215"><ele>749.8333333333334</ele><time>2026-04-18T09:16:49.052Z</time></trkpt><trkpt lat="43.207495" lon="12.9352233"><ele>750.0</ele><time>2026-04-18T09:16:50.052Z</time></trkpt><trkpt lat="43.2073917" lon="12.9352333"><ele>748.2</ele><time>2026-04-18T09:16:51.052Z</time></trkpt><trkpt lat="43.207275" lon="12.93525"><ele>746.4</ele><time>2026-04-18T09:16:52.052Z</time></trkpt><trkpt lat="43.20717" lon="12.9352583"><ele>744.5999999999999</ele><time>2026-04-18T09:16:53.052Z</time></trkpt><trkpt lat="43.207065" lon="12.935265"><ele>742.8</ele><time>2026-04-18T09:16:54.053Z</time></trkpt><trkpt lat="43.206955" lon="12.935265"><ele>741.0</ele><time>2026-04-18T09:16:55.052Z</time></trkpt><trkpt lat="43.206845" lon="12.9352767"><ele>741.0</ele><time>2026-04-18T09:16:56.052Z</time></trkpt><trkpt lat="43.20674" lon="12.9352883"><ele>741.0</ele><time>2026-04-18T09:16:57.052Z</time></trkpt><trkpt lat="43.2066367" lon="12.93532"><ele>741.0</ele><time>2026-04-18T09:16:58.052Z</time></trkpt><trkpt lat="43.2065317" lon="12.9353583"><ele>741.0</ele><time>2026-04-18T09:16:59.052Z</time></trkpt><trkpt lat="43.206425" lon="12.9353867"><ele>741.0</ele><time>2026-04-18T09:17:00.052Z</time></trkpt><trkpt lat="43.20632" lon="12.93543"><ele>734.5999999999999</ele><time>2026-04-18T09:17:01.052Z</time></trkpt><trkpt lat="43.2062167" lon="12.9354733"><ele>728.2</ele><time>2026-04-18T09:17:02.053Z</time></trkpt><trkpt lat="43.206115" lon="12.9355217"><ele>721.8</ele><time>2026-04-18T09:17:03.052Z</time></trkpt><trkpt lat="43.2060283" lon="12.9355783"><ele>715.4000000000001</ele><time>2026-04-18T09:17:04.052Z</time></trkpt><trkpt lat="43.2059617" lon="12.9356817"><ele>709.0</ele><time>2026-04-18T09:17:05.052Z</time></trkpt><trkpt lat="43.205905" lon="12.9358233"><ele>712.4000000000001</ele><time>2026-04-18T09:17:06.052Z</time></trkpt><trkpt lat="43.2058717" lon="12.93597"><ele>715.8</ele><time>2026-04-18T09:17:07.053Z</time></trkpt><trkpt lat="43.2058517" lon="12.936115"><ele>719.2</ele><time>2026-04-18T09:17:08.052Z</time></trkpt><trkpt lat="43.2058417" lon="12.9362467"><ele>722.5999999999999</ele><time>2026-04-18T09:17:09.052Z</time></trkpt><trkpt lat="43.2058133" lon="12.9363617"><ele>726.0</ele><time>2026-04-18T09:17:10.053Z</time></trkpt><trkpt lat="43.2057733" lon="12.9364517"><ele>726.0</ele><time>2026-04-18T09:17:11.052Z</time></trkpt><trkpt lat="43.2057" lon="12.93651"><ele>726.0</ele><time>2026-04-18T09:17:12.052Z</time></trkpt><trkpt lat="43.2056083" lon="12.9365333"><ele>726.0</ele><time>2026-04-18T09:17:13.052Z</time></trkpt><trkpt lat="43.2055133" lon="12.9365283"><ele>726.0</ele><time>2026-04-18T09:17:14.052Z</time></trkpt><trkpt lat="43.2054117" lon="12.9365317"><ele>726.0</ele><time>2026-04-18T09:17:15.052Z</time></trkpt><trkpt lat="43.2053167" lon="12.93657"><ele>726.0</ele><time>2026-04-18T09:17:16.052Z</time></trkpt><trkpt lat="43.2052217" lon="12.9366167"><ele>726.0</ele><time>2026-04-18T09:17:17.053Z</time></trkpt><trkpt lat="43.2051383" lon="12.93667"><ele>726.0</ele><time>2026-04-18T09:17:18.052Z</time></trkpt><trkpt lat="43.2050633" lon="12.9367333"><ele>726.0</ele><time>2026-04-18T09:17:19.052Z</time></trkpt><trkpt lat="43.2049833" lon="12.9368"><ele>726.0</ele><time>2026-04-18T09:17:20.052Z</time></trkpt><trkpt lat="43.2049" lon="12.93687"><ele>718.1999999999999</ele><time>2026-04-18T09:17:21.052Z</time></trkpt><trkpt lat="43.2048217" lon="12.9369517"><ele>710.4</ele><time>2026-04-18T09:17:22.052Z</time></trkpt><trkpt lat="43.2047517" lon="12.937025"><ele>702.6</ele><time>2026-04-18T09:17:23.052Z</time></trkpt><trkpt lat="43.2046767" lon="12.937115"><ele>694.8</ele><time>2026-04-18T09:17:24.052Z</time></trkpt><trkpt lat="43.2046067" lon="12.9372017"><ele>687.0</ele><time>2026-04-18T09:17:25.052Z</time></trkpt><trkpt lat="43.2045333" lon="12.9372917"><ele>687.0</ele><time>2026-04-18T09:17:26.053Z</time></trkpt><trkpt lat="43.2044567" lon="12.9373767"><ele>687.0</ele><time>2026-04-18T09:17:27.052Z</time></trkpt><trkpt lat="43.2043883" lon="12.9374683"><ele>687.0</ele><time>2026-04-18T09:17:28.052Z</time></trkpt><trkpt lat="43.2043167" lon="12.937565"><ele>687.0</ele><time>2026-04-18T09:17:29.052Z</time></trkpt><trkpt lat="43.2042517" lon="12.9376667"><ele>687.0</ele><time>2026-04-18T09:17:30.052Z</time></trkpt><trkpt lat="43.2041883" lon="12.9377667"><ele>688.0</ele><time>2026-04-18T09:17:31.052Z</time></trkpt><trkpt lat="43.204125" lon="12.93788"><ele>689.0</ele><time>2026-04-18T09:17:32.052Z</time></trkpt><trkpt lat="43.2040617" lon="12.9379783"><ele>690.0</ele><time>2026-04-18T09:17:33.053Z</time></trkpt><trkpt lat="43.2039883" lon="12.9380667"><ele>691.0</ele><time>2026-04-18T09:17:34.052Z</time></trkpt><trkpt lat="43.2039067" lon="12.938135"><ele>692.0</ele><time>2026-04-18T09:17:35.052Z</time></trkpt><trkpt lat="43.2038183" lon="12.9381933"><ele>692.0</ele><time>2026-04-18T09:17:36.053Z</time></trkpt><trkpt lat="43.2037233" lon="12.9382483"><ele>692.0</ele><time>2026-04-18T09:17:37.052Z</time></trkpt><trkpt lat="43.2036233" lon="12.9382917"><ele>692.0</ele><time>2026-04-18T09:17:38.052Z</time></trkpt><trkpt lat="43.2035267" lon="12.938315"><ele>692.0</ele><time>2026-04-18T09:17:39.052Z</time></trkpt><trkpt lat="43.20343" lon="12.9382933"><ele>692.0</ele><time>2026-04-18T09:17:40.052Z</time></trkpt><trkpt lat="43.20333" lon="12.9382417"><ele>692.0</ele><time>2026-04-18T09:17:41.052Z</time></trkpt><trkpt lat="43.2032417" lon="12.93818"><ele>692.0</ele><time>2026-04-18T09:17:42.053Z</time></trkpt><trkpt lat="43.2031533" lon="12.9381183"><ele>692.0</ele><time>2026-04-18T09:17:43.052Z</time></trkpt><trkpt lat="43.2030617" lon="12.9380517"><ele>692.0</ele><time>2026-04-18T09:17:44.052Z</time></trkpt><trkpt lat="43.2029617" lon="12.9379783"><ele>692.0</ele><time>2026-04-18T09:17:45.052Z</time></trkpt><trkpt lat="43.2028483" lon="12.9378967"><ele>695.75</ele><time>2026-04-18T09:17:46.052Z</time></trkpt><trkpt lat="43.2027233" lon="12.9378067"><ele>699.5</ele><time>2026-04-18T09:17:47.053Z</time></trkpt><trkpt lat="43.20261" lon="12.93772"><ele>703.25</ele><time>2026-04-18T09:17:48.052Z</time></trkpt><trkpt lat="43.2025083" lon="12.937635"><ele>707.0</ele><time>2026-04-18T09:17:49.053Z</time></trkpt><trkpt lat="43.2024183" lon="12.9375417"><ele>708.5</ele><time>2026-04-18T09:17:50.052Z</time></trkpt><trkpt lat="43.202325" lon="12.9374333"><ele>710.0</ele><time>2026-04-18T09:17:51.052Z</time></trkpt><trkpt lat="43.2022433" lon="12.937325"><ele>711.5</ele><time>2026-04-18T09:17:52.052Z</time></trkpt><trkpt lat="43.202165" lon="12.9372183"><ele>713.0</ele><time>2026-04-18T09:17:53.052Z</time></trkpt><trkpt lat="43.2020917" lon="12.9371017"><ele>713.0</ele><time>2026-04-18T09:17:54.052Z</time></trkpt><trkpt lat="43.2020283" lon="12.9369783"><ele>713.0</ele><time>2026-04-18T09:17:55.052Z</time></trkpt><trkpt lat="43.2019567" lon="12.936845"><ele>713.0</ele><time>2026-04-18T09:17:56.052Z</time></trkpt><trkpt lat="43.2018883" lon="12.9367133"><ele>713.0</ele><time>2026-04-18T09:17:57.052Z</time></trkpt><trkpt lat="43.201825" lon="12.93658"><ele>708.0</ele><time>2026-04-18T09:17:58.052Z</time></trkpt><trkpt lat="43.2017733" lon="12.9364383"><ele>703.0</ele><time>2026-04-18T09:17:59.053Z</time></trkpt><trkpt lat="43.2017367" lon="12.9363"><ele>698.0</ele><time>2026-04-18T09:18:00.052Z</time></trkpt><trkpt lat="43.201695" lon="12.9361667"><ele>693.0</ele><time>2026-04-18T09:18:01.052Z</time></trkpt><trkpt lat="43.20165" lon="12.9360183"><ele>688.0</ele><time>2026-04-18T09:18:02.053Z</time></trkpt><trkpt lat="43.2016017" lon="12.9358833"><ele>684.8</ele><time>2026-04-18T09:18:03.052Z</time></trkpt><trkpt lat="43.2015667" lon="12.9357483"><ele>681.5999999999999</ele><time>2026-04-18T09:18:04.052Z</time></trkpt><trkpt lat="43.2015433" lon="12.9356117"><ele>678.4000000000001</ele><time>2026-04-18T09:18:05.052Z</time></trkpt><trkpt lat="43.20154" lon="12.9354767"><ele>675.2</ele><time>2026-04-18T09:18:06.052Z</time></trkpt><trkpt lat="43.2015667" lon="12.9353467"><ele>672.0</ele><time>2026-04-18T09:18:07.052Z</time></trkpt><trkpt lat="43.2016217" lon="12.9352267"><ele>672.0</ele><time>2026-04-18T09:18:08.052Z</time></trkpt><trkpt lat="43.20168" lon="12.93512"><ele>672.0</ele><time>2026-04-18T09:18:09.052Z</time></trkpt><trkpt lat="43.2017433" lon="12.9350133"><ele>672.0</ele><time>2026-04-18T09:18:10.052Z</time></trkpt><trkpt lat="43.2018" lon="12.9348917"><ele>672.0</ele><time>2026-04-18T09:18:11.052Z</time></trkpt><trkpt lat="43.2018433" lon="12.9347667"><ele>672.0</ele><time>2026-04-18T09:18:12.052Z</time></trkpt><trkpt lat="43.2018683" lon="12.9346267"><ele>670.8</ele><time>2026-04-18T09:18:13.052Z</time></trkpt><trkpt lat="43.20188" lon="12.9344917"><ele>669.6</ele><time>2026-04-18T09:18:14.053Z</time></trkpt><trkpt lat="43.2018583" lon="12.9343567"><ele>668.4</ele><time>2026-04-18T09:18:15.053Z</time></trkpt><trkpt lat="43.20182" lon="12.9342167"><ele>667.1999999999999</ele><time>2026-04-18T09:18:16.053Z</time></trkpt><trkpt lat="43.2017883" lon="12.9340667"><ele>666.0</ele><time>2026-04-18T09:18:17.052Z</time></trkpt><trkpt lat="43.201755" lon="12.9339117"><ele>663.5</ele><time>2026-04-18T09:18:18.053Z</time></trkpt><trkpt lat="43.2017283" lon="12.9337533"><ele>661.0</ele><time>2026-04-18T09:18:19.053Z</time></trkpt><trkpt lat="43.201685" lon="12.93361"><ele>658.5</ele><time>2026-04-18T09:18:20.052Z</time></trkpt><trkpt lat="43.20164" lon="12.93347"><ele>656.0</ele><time>2026-04-18T09:18:21.052Z</time></trkpt><trkpt lat="43.2015867" lon="12.9333317"><ele>653.25</ele><time>2026-04-18T09:18:22.052Z</time></trkpt><trkpt lat="43.2015233" lon="12.9332083"><ele>650.5</ele><time>2026-04-18T09:18:23.051Z</time></trkpt><trkpt lat="43.2014383" lon="12.9330983"><ele>647.75</ele><time>2026-04-18T09:18:24.052Z</time></trkpt><trkpt lat="43.20134" lon="12.9330133"><ele>645.0</ele><time>2026-04-18T09:18:25.052Z</time></trkpt><trkpt lat="43.201245" lon="12.932935"><ele>645.0</ele><time>2026-04-18T09:18:26.051Z</time></trkpt><trkpt lat="43.2011417" lon="12.9328717"><ele>645.0</ele><time>2026-04-18T09:18:27.051Z</time></trkpt><trkpt lat="43.201045" lon="12.9328317"><ele>645.0</ele><time>2026-04-18T09:18:28.051Z</time></trkpt><trkpt lat="43.2009383" lon="12.9328083"><ele>645.0</ele><time>2026-04-18T09:18:29.051Z</time></trkpt><trkpt lat="43.200825" lon="12.932805"><ele>645.0</ele><time>2026-04-18T09:18:30.051Z</time></trkpt><trkpt lat="43.2006983" lon="12.93283"><ele>641.25</ele><time>2026-04-18T09:18:31.051Z</time></trkpt><trkpt lat="43.2005633" lon="12.932865"><ele>637.5</ele><time>2026-04-18T09:18:32.051Z</time></trkpt><trkpt lat="43.2004467" lon="12.9328867"><ele>633.75</ele><time>2026-04-18T09:18:33.051Z</time></trkpt><trkpt lat="43.20032" lon="12.9329317"><ele>630.0</ele><time>2026-04-18T09:18:34.052Z</time></trkpt><trkpt lat="43.2001933" lon="12.932985"><ele>630.0</ele><time>2026-04-18T09:18:35.051Z</time></trkpt><trkpt lat="43.2000767" lon="12.9330417"><ele>630.0</ele><time>2026-04-18T09:18:36.052Z</time></trkpt><trkpt lat="43.19996" lon="12.9330983"><ele>630.0</ele><time>2026-04-18T09:18:37.052Z</time></trkpt><trkpt lat="43.1998433" lon="12.93318"><ele>630.0</ele><time>2026-04-18T09:18:38.051Z</time></trkpt><trkpt lat="43.199725" lon="12.9332533"><ele>632.25</ele><time>2026-04-18T09:18:39.051Z</time></trkpt><trkpt lat="43.1996067" lon="12.9333317"><ele>634.5</ele><time>2026-04-18T09:18:40.052Z</time></trkpt><trkpt lat="43.19948" lon="12.933405"><ele>636.75</ele><time>2026-04-18T09:18:41.051Z</time></trkpt><trkpt lat="43.1993617" lon="12.9334767"><ele>639.0</ele><time>2026-04-18T09:18:42.051Z</time></trkpt><trkpt lat="43.1992417" lon="12.9335367"><ele>639.0</ele><time>2026-04-18T09:18:43.051Z</time></trkpt><trkpt lat="43.199115" lon="12.9336017"><ele>639.0</ele><time>2026-04-18T09:18:44.051Z</time></trkpt><trkpt lat="43.198995" lon="12.9336617"><ele>639.0</ele><time>2026-04-18T09:18:45.051Z</time></trkpt><trkpt lat="43.1988683" lon="12.933715"><ele>639.0</ele><time>2026-04-18T09:18:46.051Z</time></trkpt><trkpt lat="43.1987417" lon="12.933775"><ele>633.25</ele><time>2026-04-18T09:18:47.051Z</time></trkpt><trkpt lat="43.1986217" lon="12.93383"><ele>627.5</ele><time>2026-04-18T09:18:48.052Z</time></trkpt><trkpt lat="43.1984917" lon="12.9338967"><ele>621.75</ele><time>2026-04-18T09:18:49.051Z</time></trkpt><trkpt lat="43.1983633" lon="12.9339417"><ele>616.0</ele><time>2026-04-18T09:18:50.051Z</time></trkpt><trkpt lat="43.19824" lon="12.9339867"><ele>609.6</ele><time>2026-04-18T09:18:51.051Z</time></trkpt><trkpt lat="43.19813" lon="12.9340317"><ele>603.2</ele><time>2026-04-18T09:18:52.051Z</time></trkpt><trkpt lat="43.19802" lon="12.9340733"><ele>596.8</ele><time>2026-04-18T09:18:53.052Z</time></trkpt><trkpt lat="43.197935" lon="12.9341017"><ele>590.4</ele><time>2026-04-18T09:18:54.051Z</time></trkpt><trkpt lat="43.1978533" lon="12.9341333"><ele>584.0</ele><time>2026-04-18T09:18:55.051Z</time></trkpt><trkpt lat="43.1977833" lon="12.9341833"><ele>584.0</ele><time>2026-04-18T09:18:56.051Z</time></trkpt><trkpt lat="43.1977367" lon="12.9342417"><ele>584.0</ele><time>2026-04-18T09:18:57.051Z</time></trkpt><trkpt lat="43.1976583" lon="12.9343383"><ele>584.0</ele><time>2026-04-18T09:18:59.052Z</time></trkpt><trkpt lat="43.1975933" lon="12.934355"><ele>584.0</ele><time>2026-04-18T09:19:01.051Z</time></trkpt><trkpt lat="43.19754" lon="12.934275"><ele>584.0</ele><time>2026-04-18T09:19:03.051Z</time></trkpt><trkpt lat="43.1975717" lon="12.9341883"><ele>584.0</ele><time>2026-04-18T09:19:05.052Z</time></trkpt><trkpt lat="43.19768" lon="12.9341067"><ele>584.0</ele><time>2026-04-18T09:19:07.051Z</time></trkpt><trkpt lat="43.1977533" lon="12.93405"><ele>584.0</ele><time>2026-04-18T09:19:08.051Z</time></trkpt><trkpt lat="43.19783" lon="12.9339783"><ele>584.0</ele><time>2026-04-18T09:19:09.051Z</time></trkpt><trkpt lat="43.1979133" lon="12.9338983"><ele>584.0</ele><time>2026-04-18T09:19:10.051Z</time></trkpt><trkpt lat="43.19801" lon="12.9337933"><ele>584.0</ele><time>2026-04-18T09:19:11.051Z</time></trkpt><trkpt lat="43.1981167" lon="12.9336867"><ele>584.0</ele><time>2026-04-18T09:19:12.051Z</time></trkpt><trkpt lat="43.1982217" lon="12.9335733"><ele>584.0</ele><time>2026-04-18T09:19:13.051Z</time></trkpt><trkpt lat="43.1983383" lon="12.933465"><ele>584.0</ele><time>2026-04-18T09:19:14.051Z</time></trkpt><trkpt lat="43.19846" lon="12.933335"><ele>584.0</ele><time>2026-04-18T09:19:15.051Z</time></trkpt><trkpt lat="43.19858" lon="12.933215"><ele>584.0</ele><time>2026-04-18T09:19:16.051Z</time></trkpt><trkpt lat="43.1987017" lon="12.9330967"><ele>584.0</ele><time>2026-04-18T09:19:17.051Z</time></trkpt><trkpt lat="43.1988083" lon="12.9329733"><ele>584.0</ele><time>2026-04-18T09:19:18.051Z</time></trkpt><trkpt lat="43.1990233" lon="12.9327167"><ele>583.0</ele><time>2026-04-18T09:19:20.051Z</time></trkpt><trkpt lat="43.1991267" lon="12.9325917"><ele>582.0</ele><time>2026-04-18T09:19:21.051Z</time></trkpt><trkpt lat="43.1992267" lon="12.93246"><ele>581.0</ele><time>2026-04-18T09:19:22.051Z</time></trkpt><trkpt lat="43.1993267" lon="12.9323333"><ele>580.0</ele><time>2026-04-18T09:19:23.051Z</time></trkpt><trkpt lat="43.1994283" lon="12.9322033"><ele>580.0</ele><time>2026-04-18T09:19:24.052Z</time></trkpt><trkpt lat="43.1995217" lon="12.9320767"><ele>580.0</ele><time>2026-04-18T09:19:25.051Z</time></trkpt><trkpt lat="43.1996217" lon="12.931955"><ele>580.0</ele><time>2026-04-18T09:19:26.051Z</time></trkpt><trkpt lat="43.1997267" lon="12.9318517"><ele>580.0</ele><time>2026-04-18T09:19:27.052Z</time></trkpt><trkpt lat="43.1998383" lon="12.931735"><ele>579.75</ele><time>2026-04-18T09:19:28.051Z</time></trkpt><trkpt lat="43.1999483" lon="12.93161"><ele>579.5</ele><time>2026-04-18T09:19:29.051Z</time></trkpt><trkpt lat="43.2000617" lon="12.93149"><ele>579.25</ele><time>2026-04-18T09:19:30.051Z</time></trkpt><trkpt lat="43.2001717" lon="12.93138"><ele>579.0</ele><time>2026-04-18T09:19:31.051Z</time></trkpt><trkpt lat="43.2002783" lon="12.9312767"><ele>579.0</ele><time>2026-04-18T09:19:32.051Z</time></trkpt><trkpt lat="43.2003817" lon="12.931175"><ele>579.0</ele><time>2026-04-18T09:19:33.051Z</time></trkpt><trkpt lat="43.2004883" lon="12.9310817"><ele>579.0</ele><time>2026-04-18T09:19:34.051Z</time></trkpt><trkpt lat="43.200595" lon="12.9309967"><ele>579.0</ele><time>2026-04-18T09:19:35.052Z</time></trkpt><trkpt lat="43.2007167" lon="12.930915"><ele>575.5</ele><time>2026-04-18T09:19:36.051Z</time></trkpt><trkpt lat="43.2008417" lon="12.930855"><ele>572.0</ele><time>2026-04-18T09:19:37.051Z</time></trkpt><trkpt lat="43.2009667" lon="12.9307883"><ele>568.5</ele><time>2026-04-18T09:19:38.052Z</time></trkpt><trkpt lat="43.2010883" lon="12.930725"><ele>565.0</ele><time>2026-04-18T09:19:39.051Z</time></trkpt><trkpt lat="43.2012133" lon="12.9306617"><ele>565.0</ele><time>2026-04-18T09:19:40.051Z</time></trkpt><trkpt lat="43.2013317" lon="12.9306"><ele>565.0</ele><time>2026-04-18T09:19:41.052Z</time></trkpt><trkpt lat="43.2014583" lon="12.930545"><ele>565.0</ele><time>2026-04-18T09:19:42.051Z</time></trkpt><trkpt lat="43.2015833" lon="12.930505"><ele>565.0</ele><time>2026-04-18T09:19:43.051Z</time></trkpt><trkpt lat="43.2017117" lon="12.9304883"><ele>565.75</ele><time>2026-04-18T09:19:44.051Z</time></trkpt><trkpt lat="43.201845" lon="12.9304767"><ele>566.5</ele><time>2026-04-18T09:19:45.051Z</time></trkpt><trkpt lat="43.201985" lon="12.9304567"><ele>567.25</ele><time>2026-04-18T09:19:46.051Z</time></trkpt><trkpt lat="43.20212" lon="12.9304467"><ele>568.0</ele><time>2026-04-18T09:19:47.051Z</time></trkpt><trkpt lat="43.2022467" lon="12.93044"><ele>566.5</ele><time>2026-04-18T09:19:48.051Z</time></trkpt><trkpt lat="43.2023783" lon="12.9304217"><ele>565.0</ele><time>2026-04-18T09:19:49.051Z</time></trkpt><trkpt lat="43.20251" lon="12.9304017"><ele>563.5</ele><time>2026-04-18T09:19:50.051Z</time></trkpt><trkpt lat="43.20263" lon="12.9303917"><ele>562.0</ele><time>2026-04-18T09:19:51.051Z</time></trkpt><trkpt lat="43.2027433" lon="12.9303967"><ele>562.0</ele><time>2026-04-18T09:19:52.052Z</time></trkpt><trkpt lat="43.2028517" lon="12.9304317"><ele>562.0</ele><time>2026-04-18T09:19:53.052Z</time></trkpt><trkpt lat="43.2029517" lon="12.930505"><ele>562.0</ele><time>2026-04-18T09:19:54.051Z</time></trkpt><trkpt lat="43.2030317" lon="12.9306083"><ele>562.0</ele><time>2026-04-18T09:19:55.052Z</time></trkpt><trkpt lat="43.2031" lon="12.93073"><ele>562.0</ele><time>2026-04-18T09:19:56.051Z</time></trkpt><trkpt lat="43.2031733" lon="12.93085"><ele>563.4</ele><time>2026-04-18T09:19:57.051Z</time></trkpt><trkpt lat="43.2032383" lon="12.93095"><ele>564.8000000000001</ele><time>2026-04-18T09:19:58.051Z</time></trkpt><trkpt lat="43.203315" lon="12.9310167"><ele>566.2</ele><time>2026-04-18T09:19:59.051Z</time></trkpt><trkpt lat="43.2033983" lon="12.93105"><ele>567.6</ele><time>2026-04-18T09:20:00.051Z</time></trkpt><trkpt lat="43.2035" lon="12.93104"><ele>569.0</ele><time>2026-04-18T09:20:01.051Z</time></trkpt><trkpt lat="43.2035933" lon="12.931005"><ele>569.0</ele><time>2026-04-18T09:20:02.051Z</time></trkpt><trkpt lat="43.2036667" lon="12.9309433"><ele>569.0</ele><time>2026-04-18T09:20:03.051Z</time></trkpt><trkpt lat="43.20372" lon="12.9308617"><ele>569.0</ele><time>2026-04-18T09:20:04.052Z</time></trkpt><trkpt lat="43.2037217" lon="12.93075"><ele>569.0</ele><time>2026-04-18T09:20:05.051Z</time></trkpt><trkpt lat="43.203705" lon="12.930625"><ele>569.0</ele><time>2026-04-18T09:20:06.051Z</time></trkpt><trkpt lat="43.2036683" lon="12.9304883"><ele>569.0</ele><time>2026-04-18T09:20:07.051Z</time></trkpt><trkpt lat="43.203625" lon="12.9303233"><ele>565.5</ele><time>2026-04-18T09:20:08.051Z</time></trkpt><trkpt lat="43.2035733" lon="12.93013"><ele>562.0</ele><time>2026-04-18T09:20:09.051Z</time></trkpt><trkpt lat="43.2035383" lon="12.92993"><ele>558.5</ele><time>2026-04-18T09:20:10.051Z</time></trkpt><trkpt lat="43.2035033" lon="12.9297333"><ele>555.0</ele><time>2026-04-18T09:20:11.051Z</time></trkpt><trkpt lat="43.2034767" lon="12.9295433"><ele>552.8</ele><time>2026-04-18T09:20:12.052Z</time></trkpt><trkpt lat="43.2034533" lon="12.9293683"><ele>550.6</ele><time>2026-04-18T09:20:13.051Z</time></trkpt><trkpt lat="43.2034217" lon="12.9292367"><ele>548.4</ele><time>2026-04-18T09:20:14.052Z</time></trkpt><trkpt lat="43.2033833" lon="12.9291233"><ele>546.2</ele><time>2026-04-18T09:20:15.051Z</time></trkpt><trkpt lat="43.2033217" lon="12.929015"><ele>544.0</ele><time>2026-04-18T09:20:16.051Z</time></trkpt><trkpt lat="43.20324" lon="12.92894"><ele>540.0</ele><time>2026-04-18T09:20:17.051Z</time></trkpt><trkpt lat="43.2031367" lon="12.9289033"><ele>536.0</ele><time>2026-04-18T09:20:18.051Z</time></trkpt><trkpt lat="43.203015" lon="12.92889"><ele>532.0</ele><time>2026-04-18T09:20:19.051Z</time></trkpt><trkpt lat="43.2028883" lon="12.9288667"><ele>528.0</ele><time>2026-04-18T09:20:20.051Z</time></trkpt><trkpt lat="43.2027583" lon="12.9288467"><ele>528.0</ele><time>2026-04-18T09:20:21.051Z</time></trkpt><trkpt lat="43.2026283" lon="12.9288267"><ele>528.0</ele><time>2026-04-18T09:20:22.052Z</time></trkpt><trkpt lat="43.2025017" lon="12.928805"><ele>528.0</ele><time>2026-04-18T09:20:23.051Z</time></trkpt><trkpt lat="43.202375" lon="12.9287783"><ele>528.0</ele><time>2026-04-18T09:20:24.052Z</time></trkpt><trkpt lat="43.2022567" lon="12.92876"><ele>526.75</ele><time>2026-04-18T09:20:25.051Z</time></trkpt><trkpt lat="43.2021333" lon="12.9287333"><ele>525.5</ele><time>2026-04-18T09:20:26.051Z</time></trkpt><trkpt lat="43.2020133" lon="12.92871"><ele>524.25</ele><time>2026-04-18T09:20:27.052Z</time></trkpt><trkpt lat="43.2018917" lon="12.9286733"><ele>523.0</ele><time>2026-04-18T09:20:28.051Z</time></trkpt><trkpt lat="43.2017683" lon="12.9286317"><ele>523.0</ele><time>2026-04-18T09:20:29.051Z</time></trkpt><trkpt lat="43.2016483" lon="12.92859"><ele>523.0</ele><time>2026-04-18T09:20:30.051Z</time></trkpt><trkpt lat="43.2015267" lon="12.928535"><ele>523.0</ele><time>2026-04-18T09:20:31.051Z</time></trkpt><trkpt lat="43.201405" lon="12.928485"><ele>523.0</ele><time>2026-04-18T09:20:32.051Z</time></trkpt><trkpt lat="43.2012817" lon="12.92844"><ele>519.5</ele><time>2026-04-18T09:20:33.051Z</time></trkpt><trkpt lat="43.2011633" lon="12.9283867"><ele>516.0</ele><time>2026-04-18T09:20:34.051Z</time></trkpt><trkpt lat="43.2010333" lon="12.9283383"><ele>512.5</ele><time>2026-04-18T09:20:35.051Z</time></trkpt><trkpt lat="43.2009133" lon="12.9282867"><ele>509.0</ele><time>2026-04-18T09:20:36.051Z</time></trkpt><trkpt lat="43.2008017" lon="12.9282317"><ele>509.0</ele><time>2026-04-18T09:20:37.051Z</time></trkpt><trkpt lat="43.2006833" lon="12.92818"><ele>509.0</ele><time>2026-04-18T09:20:38.051Z</time></trkpt><trkpt lat="43.2005717" lon="12.9281333"><ele>509.0</ele><time>2026-04-18T09:20:39.051Z</time></trkpt><trkpt lat="43.2004617" lon="12.9280983"><ele>509.0</ele><time>2026-04-18T09:20:40.052Z</time></trkpt><trkpt lat="43.200345" lon="12.9281033"><ele>507.75</ele><time>2026-04-18T09:20:41.051Z</time></trkpt><trkpt lat="43.2002333" lon="12.9281533"><ele>506.5</ele><time>2026-04-18T09:20:42.051Z</time></trkpt><trkpt lat="43.2001267" lon="12.9282317"><ele>505.25</ele><time>2026-04-18T09:20:43.051Z</time></trkpt><trkpt lat="43.2000317" lon="12.9283217"><ele>504.0</ele><time>2026-04-18T09:20:44.051Z</time></trkpt><trkpt lat="43.1999333" lon="12.9284167"><ele>503.75</ele><time>2026-04-18T09:20:45.051Z</time></trkpt><trkpt lat="43.1998383" lon="12.928515"><ele>503.5</ele><time>2026-04-18T09:20:46.051Z</time></trkpt><trkpt lat="43.199755" lon="12.9286283"><ele>503.25</ele><time>2026-04-18T09:20:47.051Z</time></trkpt><trkpt lat="43.1996767" lon="12.9287467"><ele>503.0</ele><time>2026-04-18T09:20:48.052Z</time></trkpt><trkpt lat="43.1996133" lon="12.9288783"><ele>502.5</ele><time>2026-04-18T09:20:49.051Z</time></trkpt><trkpt lat="43.1995583" lon="12.92901"><ele>502.0</ele><time>2026-04-18T09:20:50.052Z</time></trkpt><trkpt lat="43.1994883" lon="12.9291333"><ele>501.5</ele><time>2026-04-18T09:20:51.051Z</time></trkpt><trkpt lat="43.1994017" lon="12.92925"><ele>501.0</ele><time>2026-04-18T09:20:52.051Z</time></trkpt><trkpt lat="43.1993033" lon="12.92936"><ele>501.0</ele><time>2026-04-18T09:20:53.052Z</time></trkpt><trkpt lat="43.1992" lon="12.929465"><ele>501.0</ele><time>2026-04-18T09:20:54.052Z</time></trkpt><trkpt lat="43.1991033" lon="12.9295667"><ele>501.0</ele><time>2026-04-18T09:20:55.051Z</time></trkpt><trkpt lat="43.1990083" lon="12.9296683"><ele>501.0</ele><time>2026-04-18T09:20:56.051Z</time></trkpt><trkpt lat="43.1989133" lon="12.9297733"><ele>501.6</ele><time>2026-04-18T09:20:57.051Z</time></trkpt><trkpt lat="43.19882" lon="12.92987"><ele>502.20000000000005</ele><time>2026-04-18T09:20:58.052Z</time></trkpt><trkpt lat="43.198735" lon="12.9299617"><ele>502.79999999999995</ele><time>2026-04-18T09:20:59.051Z</time></trkpt><trkpt lat="43.1986483" lon="12.93007"><ele>503.4</ele><time>2026-04-18T09:21:00.052Z</time></trkpt><trkpt lat="43.1985833" lon="12.9301817"><ele>504.0</ele><time>2026-04-18T09:21:01.052Z</time></trkpt><trkpt lat="43.1985217" lon="12.9302917"><ele>504.0</ele><time>2026-04-18T09:21:02.051Z</time></trkpt><trkpt lat="43.1984733" lon="12.930405"><ele>504.0</ele><time>2026-04-18T09:21:03.052Z</time></trkpt><trkpt lat="43.198425" lon="12.930535"><ele>504.0</ele><time>2026-04-18T09:21:04.051Z</time></trkpt><trkpt lat="43.1983717" lon="12.9306533"><ele>504.0</ele><time>2026-04-18T09:21:05.051Z</time></trkpt><trkpt lat="43.1983033" lon="12.93077"><ele>504.0</ele><time>2026-04-18T09:21:06.052Z</time></trkpt><trkpt lat="43.1982083" lon="12.93088"><ele>503.66666666666663</ele><time>2026-04-18T09:21:07.051Z</time></trkpt><trkpt lat="43.1980967" lon="12.93098"><ele>503.3333333333333</ele><time>2026-04-18T09:21:08.052Z</time></trkpt><trkpt lat="43.1979683" lon="12.9310833"><ele>503.0</ele><time>2026-04-18T09:21:09.051Z</time></trkpt><trkpt lat="43.1978117" lon="12.9311733"><ele>503.0</ele><time>2026-04-18T09:21:10.051Z</time></trkpt><trkpt lat="43.1976617" lon="12.93125"><ele>503.0</ele><time>2026-04-18T09:21:11.052Z</time></trkpt><trkpt lat="43.19752" lon="12.9313133"><ele>503.0</ele><time>2026-04-18T09:21:12.051Z</time></trkpt><trkpt lat="43.19738" lon="12.9313683"><ele>498.75</ele><time>2026-04-18T09:21:13.052Z</time></trkpt><trkpt lat="43.1972417" lon="12.9314033"><ele>494.5</ele><time>2026-04-18T09:21:14.051Z</time></trkpt><trkpt lat="43.1971017" lon="12.93144"><ele>490.25</ele><time>2026-04-18T09:21:15.051Z</time></trkpt><trkpt lat="43.196965" lon="12.9314817"><ele>486.0</ele><time>2026-04-18T09:21:16.051Z</time></trkpt><trkpt lat="43.1968383" lon="12.93154"><ele>486.0</ele><time>2026-04-18T09:21:17.051Z</time></trkpt><trkpt lat="43.1967217" lon="12.9315967"><ele>486.0</ele><time>2026-04-18T09:21:18.051Z</time></trkpt><trkpt lat="43.1966083" lon="12.93166"><ele>486.0</ele><time>2026-04-18T09:21:19.052Z</time></trkpt><trkpt lat="43.1964883" lon="12.9317217"><ele>486.0</ele><time>2026-04-18T09:21:20.051Z</time></trkpt><trkpt lat="43.1963783" lon="12.9317867"><ele>486.25</ele><time>2026-04-18T09:21:21.051Z</time></trkpt><trkpt lat="43.19627" lon="12.93185"><ele>486.5</ele><time>2026-04-18T09:21:22.051Z</time></trkpt><trkpt lat="43.1961533" lon="12.9319"><ele>486.75</ele><time>2026-04-18T09:21:23.051Z</time></trkpt><trkpt lat="43.1960233" lon="12.9319333"><ele>487.0</ele><time>2026-04-18T09:21:24.051Z</time></trkpt><trkpt lat="43.1958967" lon="12.931965"><ele>487.0</ele><time>2026-04-18T09:21:25.051Z</time></trkpt><trkpt lat="43.1957683" lon="12.931985"><ele>487.0</ele><time>2026-04-18T09:21:26.051Z</time></trkpt><trkpt lat="43.1956417" lon="12.9320133"><ele>487.0</ele><time>2026-04-18T09:21:27.051Z</time></trkpt><trkpt lat="43.1955167" lon="12.9320533"><ele>487.0</ele><time>2026-04-18T09:21:28.052Z</time></trkpt><trkpt lat="43.1954067" lon="12.9320983"><ele>483.25</ele><time>2026-04-18T09:21:29.052Z</time></trkpt><trkpt lat="43.195295" lon="12.9321583"><ele>479.5</ele><time>2026-04-18T09:21:30.051Z</time></trkpt><trkpt lat="43.1951717" lon="12.93223"><ele>475.75</ele><time>2026-04-18T09:21:31.051Z</time></trkpt><trkpt lat="43.195055" lon="12.9323067"><ele>472.0</ele><time>2026-04-18T09:21:32.051Z</time></trkpt><trkpt lat="43.1949467" lon="12.93238"><ele>470.75</ele><time>2026-04-18T09:21:33.051Z</time></trkpt><trkpt lat="43.1948267" lon="12.93245"><ele>469.5</ele><time>2026-04-18T09:21:34.051Z</time></trkpt><trkpt lat="43.1947033" lon="12.9325133"><ele>468.25</ele><time>2026-04-18T09:21:35.051Z</time></trkpt><trkpt lat="43.1945717" lon="12.93255"><ele>467.0</ele><time>2026-04-18T09:21:36.051Z</time></trkpt><trkpt lat="43.1944317" lon="12.93257"><ele>469.0</ele><time>2026-04-18T09:21:37.052Z</time></trkpt><trkpt lat="43.1942933" lon="12.9325833"><ele>471.0</ele><time>2026-04-18T09:21:38.051Z</time></trkpt><trkpt lat="43.1941417" lon="12.9326033"><ele>473.0</ele><time>2026-04-18T09:21:39.051Z</time></trkpt><trkpt lat="43.1939867" lon="12.93262"><ele>475.0</ele><time>2026-04-18T09:21:40.051Z</time></trkpt><trkpt lat="43.1938333" lon="12.932635"><ele>475.0</ele><time>2026-04-18T09:21:41.051Z</time></trkpt><trkpt lat="43.1936933" lon="12.9326483"><ele>475.0</ele><time>2026-04-18T09:21:42.052Z</time></trkpt><trkpt lat="43.1935633" lon="12.9326583"><ele>475.0</ele><time>2026-04-18T09:21:43.051Z</time></trkpt><trkpt lat="43.1934317" lon="12.93265"><ele>475.0</ele><time>2026-04-18T09:21:44.051Z</time></trkpt><trkpt lat="43.1932933" lon="12.9326283"><ele>474.0</ele><time>2026-04-18T09:21:45.051Z</time></trkpt><trkpt lat="43.1931583" lon="12.9325917"><ele>473.0</ele><time>2026-04-18T09:21:46.051Z</time></trkpt><trkpt lat="43.1930217" lon="12.93253"><ele>472.0</ele><time>2026-04-18T09:21:47.052Z</time></trkpt><trkpt lat="43.1928933" lon="12.9324533"><ele>471.0</ele><time>2026-04-18T09:21:48.051Z</time></trkpt><trkpt lat="43.192765" lon="12.93238"><ele>468.5</ele><time>2026-04-18T09:21:49.051Z</time></trkpt><trkpt lat="43.1926433" lon="12.9323017"><ele>466.0</ele><time>2026-04-18T09:21:50.052Z</time></trkpt><trkpt lat="43.1925167" lon="12.9322533"><ele>463.5</ele><time>2026-04-18T09:21:51.051Z</time></trkpt><trkpt lat="43.1924017" lon="12.932235"><ele>461.0</ele><time>2026-04-18T09:21:52.051Z</time></trkpt><trkpt lat="43.19228" lon="12.932235"><ele>460.25</ele><time>2026-04-18T09:21:53.052Z</time></trkpt><trkpt lat="43.1921583" lon="12.9322717"><ele>459.5</ele><time>2026-04-18T09:21:54.051Z</time></trkpt><trkpt lat="43.1920317" lon="12.9323533"><ele>458.75</ele><time>2026-04-18T09:21:55.051Z</time></trkpt><trkpt lat="43.19191" lon="12.9324483"><ele>458.0</ele><time>2026-04-18T09:21:56.051Z</time></trkpt><trkpt lat="43.1917883" lon="12.9325267"><ele>457.75</ele><time>2026-04-18T09:21:57.051Z</time></trkpt><trkpt lat="43.191665" lon="12.9325967"><ele>457.5</ele><time>2026-04-18T09:21:58.052Z</time></trkpt><trkpt lat="43.1915383" lon="12.932655"><ele>457.25</ele><time>2026-04-18T09:21:59.052Z</time></trkpt><trkpt lat="43.191415" lon="12.9327067"><ele>457.0</ele><time>2026-04-18T09:22:00.051Z</time></trkpt><trkpt lat="43.1912867" lon="12.9327567"><ele>457.0</ele><time>2026-04-18T09:22:01.051Z</time></trkpt><trkpt lat="43.191165" lon="12.932795"><ele>457.00000000000006</ele><time>2026-04-18T09:22:02.051Z</time></trkpt><trkpt lat="43.1910483" lon="12.93283"><ele>457.00000000000006</ele><time>2026-04-18T09:22:03.051Z</time></trkpt><trkpt lat="43.1909583" lon="12.93286"><ele>457.0</ele><time>2026-04-18T09:22:04.051Z</time></trkpt><trkpt lat="43.1908817" lon="12.9328867"><ele>457.0</ele><time>2026-04-18T09:22:05.051Z</time></trkpt><trkpt lat="43.19082" lon="12.932905"><ele>457.0</ele><time>2026-04-18T09:22:06.051Z</time></trkpt><trkpt lat="43.19071" lon="12.9329217"><ele>457.00000000000006</ele><time>2026-04-18T09:22:08.051Z</time></trkpt><trkpt lat="43.190625" lon="12.932835"><ele>457.00000000000006</ele><time>2026-04-18T09:22:10.051Z</time></trkpt><trkpt lat="43.1905517" lon="12.9327083"><ele>457.0</ele><time>2026-04-18T09:22:12.052Z</time></trkpt><trkpt lat="43.1905117" lon="12.93264"><ele>457.0</ele><time>2026-04-18T09:22:13.051Z</time></trkpt><trkpt lat="43.1904667" lon="12.9325783"><ele>456.6666666666667</ele><time>2026-04-18T09:22:14.051Z</time></trkpt><trkpt lat="43.1903817" lon="12.9324567"><ele>456.33333333333337</ele><time>2026-04-18T09:22:16.051Z</time></trkpt><trkpt lat="43.1903417" lon="12.9323883"><ele>456.0</ele><time>2026-04-18T09:22:17.051Z</time></trkpt><trkpt lat="43.1902967" lon="12.932325"><ele>455.66666666666663</ele><time>2026-04-18T09:22:18.051Z</time></trkpt><trkpt lat="43.1902433" lon="12.9322633"><ele>455.3333333333333</ele><time>2026-04-18T09:22:19.051Z</time></trkpt><trkpt lat="43.1901917" lon="12.93221"><ele>455.0</ele><time>2026-04-18T09:22:20.051Z</time></trkpt><trkpt lat="43.19013" lon="12.9321483"><ele>455.0</ele><time>2026-04-18T09:22:21.051Z</time></trkpt><trkpt lat="43.19007" lon="12.9321"><ele>455.0</ele><time>2026-04-18T09:22:22.051Z</time></trkpt><trkpt lat="43.1899967" lon="12.9320683"><ele>455.0</ele><time>2026-04-18T09:22:23.051Z</time></trkpt><trkpt lat="43.1899233" lon="12.9320367"><ele>455.0</ele><time>2026-04-18T09:22:24.051Z</time></trkpt><trkpt lat="43.189855" lon="12.9320117"><ele>455.0</ele><time>2026-04-18T09:22:25.051Z</time></trkpt><trkpt lat="43.18979" lon="12.931985"><ele>455.0</ele><time>2026-04-18T09:22:26.051Z</time></trkpt><trkpt lat="43.1897233" lon="12.93196"><ele>455.0</ele><time>2026-04-18T09:22:27.052Z</time></trkpt><trkpt lat="43.189655" lon="12.9319483"><ele>454.8571428571429</ele><time>2026-04-18T09:22:28.052Z</time></trkpt><trkpt lat="43.189585" lon="12.9319233"><ele>454.7142857142857</ele><time>2026-04-18T09:22:29.051Z</time></trkpt><trkpt lat="43.1895083" lon="12.9319067"><ele>454.57142857142856</ele><time>2026-04-18T09:22:30.051Z</time></trkpt><trkpt lat="43.18944" lon="12.93188"><ele>454.42857142857144</ele><time>2026-04-18T09:22:31.051Z</time></trkpt><trkpt lat="43.1893767" lon="12.9318617"><ele>454.28571428571433</ele><time>2026-04-18T09:22:32.051Z</time></trkpt><trkpt lat="43.1893083" lon="12.9318333"><ele>454.14285714285717</ele><time>2026-04-18T09:22:33.051Z</time></trkpt><trkpt lat="43.189235" lon="12.9318233"><ele>454.0</ele><time>2026-04-18T09:22:34.051Z</time></trkpt><trkpt lat="43.1891667" lon="12.9318067"><ele>454.0</ele><time>2026-04-18T09:22:35.052Z</time></trkpt><trkpt lat="43.1890967" lon="12.9318"><ele>454.0</ele><time>2026-04-18T09:22:36.051Z</time></trkpt><trkpt lat="43.188965" lon="12.9317867"><ele>454.0</ele><time>2026-04-18T09:22:38.051Z</time></trkpt><trkpt lat="43.18885" lon="12.9317767"><ele>454.0</ele><time>2026-04-18T09:22:40.051Z</time></trkpt><trkpt lat="43.1887283" lon="12.9317817"><ele>454.0</ele><time>2026-04-18T09:22:42.051Z</time></trkpt><trkpt lat="43.1886617" lon="12.93179"><ele>454.1666666666667</ele><time>2026-04-18T09:22:43.051Z</time></trkpt><trkpt lat="43.1885583" lon="12.93181"><ele>454.33333333333337</ele><time>2026-04-18T09:22:45.051Z</time></trkpt><trkpt lat="43.1884733" lon="12.9318017"><ele>454.5</ele><time>2026-04-18T09:22:47.051Z</time></trkpt><trkpt lat="43.188415" lon="12.9317583"><ele>454.66666666666663</ele><time>2026-04-18T09:22:49.051Z</time></trkpt><trkpt lat="43.1883467" lon="12.9317317"><ele>454.8333333333333</ele><time>2026-04-18T09:22:51.051Z</time></trkpt><trkpt lat="43.188255" lon="12.9317433"><ele>455.0</ele><time>2026-04-18T09:22:53.051Z</time></trkpt><trkpt lat="43.1881483" lon="12.9317583"><ele>455.0</ele><time>2026-04-18T09:22:55.051Z</time></trkpt><trkpt lat="43.1880483" lon="12.9317817"><ele>455.0</ele><time>2026-04-18T09:22:57.051Z</time></trkpt><trkpt lat="43.1879417" lon="12.9318"><ele>455.0</ele><time>2026-04-18T09:22:59.051Z</time></trkpt><trkpt lat="43.18785" lon="12.9317533"><ele>455.0</ele><time>2026-04-18T09:23:01.051Z</time></trkpt><trkpt lat="43.1877933" lon="12.9316783"><ele>455.0</ele><time>2026-04-18T09:23:03.051Z</time></trkpt><trkpt lat="43.187735" lon="12.931575"><ele>455.0</ele><time>2026-04-18T09:23:05.051Z</time></trkpt><trkpt lat="43.1876917" lon="12.9314767"><ele>455.0</ele><time>2026-04-18T09:23:10.051Z</time></trkpt><trkpt lat="43.187655" lon="12.93136"><ele>455.0</ele><time>2026-04-18T09:23:13.051Z</time></trkpt><trkpt lat="43.187615" lon="12.9312383"><ele>455.0</ele><time>2026-04-18T09:23:15.051Z</time></trkpt><trkpt lat="43.1875717" lon="12.931125"><ele>455.0</ele><time>2026-04-18T09:23:17.051Z</time></trkpt><trkpt lat="43.1875133" lon="12.9310033"><ele>455.4</ele><time>2026-04-18T09:23:19.052Z</time></trkpt><trkpt lat="43.187455" lon="12.93087"><ele>455.8</ele><time>2026-04-18T09:23:21.051Z</time></trkpt><trkpt lat="43.1874083" lon="12.9307533"><ele>456.20000000000005</ele><time>2026-04-18T09:23:23.051Z</time></trkpt><trkpt lat="43.1873633" lon="12.9306317"><ele>456.6</ele><time>2026-04-18T09:23:25.051Z</time></trkpt><trkpt lat="43.187295" lon="12.9305233"><ele>457.0</ele><time>2026-04-18T09:23:27.051Z</time></trkpt><trkpt lat="43.187235" lon="12.930395"><ele>456.1666666666667</ele><time>2026-04-18T09:23:29.05Z</time></trkpt><trkpt lat="43.1871667" lon="12.9302533"><ele>455.33333333333337</ele><time>2026-04-18T09:23:31.05Z</time></trkpt><trkpt lat="43.1871383" lon="12.9301617"><ele>454.5</ele><time>2026-04-18T09:23:32.05Z</time></trkpt><trkpt lat="43.1870967" lon="12.930085"><ele>453.66666666666663</ele><time>2026-04-18T09:23:33.05Z</time></trkpt><trkpt lat="43.18706" lon="12.9300083"><ele>452.8333333333333</ele><time>2026-04-18T09:23:34.05Z</time></trkpt><trkpt lat="43.1870033" lon="12.92987"><ele>452.0</ele><time>2026-04-18T09:23:36.051Z</time></trkpt><trkpt lat="43.1869483" lon="12.9297217"><ele>451.99999999999994</ele><time>2026-04-18T09:23:38.05Z</time></trkpt><trkpt lat="43.1868917" lon="12.9295617"><ele>452.0</ele><time>2026-04-18T09:23:40.05Z</time></trkpt><trkpt lat="43.1868533" lon="12.92949"><ele>452.0</ele><time>2026-04-18T09:23:41.05Z</time></trkpt><trkpt lat="43.1868117" lon="12.9294167"><ele>452.0</ele><time>2026-04-18T09:23:42.05Z</time></trkpt><trkpt lat="43.1867667" lon="12.929325"><ele>451.99999999999994</ele><time>2026-04-18T09:23:43.051Z</time></trkpt><trkpt lat="43.1867133" lon="12.9292367"><ele>452.0</ele><time>2026-04-18T09:23:44.05Z</time></trkpt><trkpt lat="43.1866667" lon="12.92913"><ele>452.0</ele><time>2026-04-18T09:23:45.051Z</time></trkpt><trkpt lat="43.1866183" lon="12.92901"><ele>452.00000000000006</ele><time>2026-04-18T09:23:46.05Z</time></trkpt><trkpt lat="43.1865717" lon="12.9288983"><ele>452.00000000000006</ele><time>2026-04-18T09:23:47.05Z</time></trkpt><trkpt lat="43.18652" lon="12.9287833"><ele>452.0</ele><time>2026-04-18T09:23:48.051Z</time></trkpt><trkpt lat="43.1864683" lon="12.9286633"><ele>452.0</ele><time>2026-04-18T09:23:49.05Z</time></trkpt><trkpt lat="43.1864117" lon="12.9285517"><ele>452.0</ele><time>2026-04-18T09:23:50.05Z</time></trkpt><trkpt lat="43.1863567" lon="12.9284333"><ele>452.00000000000006</ele><time>2026-04-18T09:23:51.051Z</time></trkpt><trkpt lat="43.1863083" lon="12.9283267"><ele>452.00000000000006</ele><time>2026-04-18T09:23:52.05Z</time></trkpt><trkpt lat="43.186255" lon="12.9282217"><ele>452.0</ele><time>2026-04-18T09:23:53.05Z</time></trkpt><trkpt lat="43.18621" lon="12.9281083"><ele>452.0</ele><time>2026-04-18T09:23:54.05Z</time></trkpt><trkpt lat="43.1861617" lon="12.92799"><ele>452.0</ele><time>2026-04-18T09:23:55.051Z</time></trkpt><trkpt lat="43.1861133" lon="12.92787"><ele>452.00000000000006</ele><time>2026-04-18T09:23:56.05Z</time></trkpt><trkpt lat="43.18606" lon="12.9277683"><ele>452.00000000000006</ele><time>2026-04-18T09:23:57.051Z</time></trkpt><trkpt lat="43.18601" lon="12.9276517"><ele>452.0</ele><time>2026-04-18T09:23:58.051Z</time></trkpt><trkpt lat="43.1859617" lon="12.92754"><ele>452.0</ele><time>2026-04-18T09:23:59.051Z</time></trkpt><trkpt lat="43.1859" lon="12.9274367"><ele>452.0</ele><time>2026-04-18T09:24:00.05Z</time></trkpt><trkpt lat="43.1858483" lon="12.9273317"><ele>452.00000000000006</ele><time>2026-04-18T09:24:01.05Z</time></trkpt><trkpt lat="43.1857867" lon="12.927225"><ele>452.00000000000006</ele><time>2026-04-18T09:24:02.05Z</time></trkpt><trkpt lat="43.1857267" lon="12.9271183"><ele>452.0</ele><time>2026-04-18T09:24:03.05Z</time></trkpt><trkpt lat="43.1856617" lon="12.9270217"><ele>452.0</ele><time>2026-04-18T09:24:04.051Z</time></trkpt><trkpt lat="43.1855967" lon="12.9269233"><ele>452.0</ele><time>2026-04-18T09:24:05.05Z</time></trkpt><trkpt lat="43.1855317" lon="12.9268267"><ele>452.00000000000006</ele><time>2026-04-18T09:24:06.05Z</time></trkpt><trkpt lat="43.1854633" lon="12.9267283"><ele>452.00000000000006</ele><time>2026-04-18T09:24:07.051Z</time></trkpt><trkpt lat="43.1853983" lon="12.926635"><ele>452.0</ele><time>2026-04-18T09:24:08.05Z</time></trkpt><trkpt lat="43.1853333" lon="12.926535"><ele>452.0</ele><time>2026-04-18T09:24:09.05Z</time></trkpt><trkpt lat="43.1852683" lon="12.926435"><ele>452.6</ele><time>2026-04-18T09:24:10.051Z</time></trkpt><trkpt lat="43.1852017" lon="12.9263383"><ele>453.20000000000005</ele><time>2026-04-18T09:24:11.051Z</time></trkpt><trkpt lat="43.18513" lon="12.9262417"><ele>453.8</ele><time>2026-04-18T09:24:12.051Z</time></trkpt><trkpt lat="43.18506" lon="12.926155"><ele>454.4</ele><time>2026-04-18T09:24:13.051Z</time></trkpt><trkpt lat="43.18499" lon="12.92606"><ele>455.0</ele><time>2026-04-18T09:24:14.05Z</time></trkpt><trkpt lat="43.1849333" lon="12.9259617"><ele>454.99999999999994</ele><time>2026-04-18T09:24:15.05Z</time></trkpt><trkpt lat="43.1848767" lon="12.9258633"><ele>455.0</ele><time>2026-04-18T09:24:16.05Z</time></trkpt><trkpt lat="43.1848167" lon="12.9257717"><ele>455.0</ele><time>2026-04-18T09:24:17.051Z</time></trkpt><trkpt lat="43.1847567" lon="12.9256767"><ele>455.0</ele><time>2026-04-18T09:24:18.05Z</time></trkpt><trkpt lat="43.18469" lon="12.9256"><ele>454.99999999999994</ele><time>2026-04-18T09:24:19.05Z</time></trkpt><trkpt lat="43.1846233" lon="12.925525"><ele>455.0</ele><time>2026-04-18T09:24:20.05Z</time></trkpt><trkpt lat="43.1845667" lon="12.9254333"><ele>454.99999999999994</ele><time>2026-04-18T09:24:21.051Z</time></trkpt><trkpt lat="43.1845083" lon="12.92534"><ele>455.0</ele><time>2026-04-18T09:24:22.05Z</time></trkpt><trkpt lat="43.1844483" lon="12.9252483"><ele>455.0</ele><time>2026-04-18T09:24:23.051Z</time></trkpt><trkpt lat="43.1843883" lon="12.92516"><ele>455.0</ele><time>2026-04-18T09:24:24.051Z</time></trkpt><trkpt lat="43.1843267" lon="12.92507"><ele>454.99999999999994</ele><time>2026-04-18T09:24:25.051Z</time></trkpt><trkpt lat="43.18427" lon="12.9249817"><ele>455.0</ele><time>2026-04-18T09:24:26.05Z</time></trkpt><trkpt lat="43.1842217" lon="12.9248817"><ele>454.99999999999994</ele><time>2026-04-18T09:24:27.05Z</time></trkpt><trkpt lat="43.1841717" lon="12.9247933"><ele>455.0</ele><time>2026-04-18T09:24:28.05Z</time></trkpt><trkpt lat="43.1841233" lon="12.9247167"><ele>455.0</ele><time>2026-04-18T09:24:29.05Z</time></trkpt><trkpt lat="43.1840817" lon="12.92464"><ele>455.0</ele><time>2026-04-18T09:24:30.05Z</time></trkpt><trkpt lat="43.1840033" lon="12.9245117"><ele>454.99999999999994</ele><time>2026-04-18T09:24:32.05Z</time></trkpt><trkpt lat="43.183965" lon="12.92439"><ele>455.0</ele><time>2026-04-18T09:24:34.05Z</time></trkpt><trkpt lat="43.1839667" lon="12.924295"><ele>454.6</ele><time>2026-04-18T09:24:35.05Z</time></trkpt><trkpt lat="43.183975" lon="12.9241817"><ele>454.2</ele><time>2026-04-18T09:24:36.05Z</time></trkpt><trkpt lat="43.1839917" lon="12.92406"><ele>453.79999999999995</ele><time>2026-04-18T09:24:37.05Z</time></trkpt><trkpt lat="43.18401" lon="12.92394"><ele>453.4</ele><time>2026-04-18T09:24:38.05Z</time></trkpt><trkpt lat="43.1840417" lon="12.9237883"><ele>453.0</ele><time>2026-04-18T09:24:39.05Z</time></trkpt><trkpt lat="43.18408" lon="12.9236117"><ele>455.33333333333337</ele><time>2026-04-18T09:24:40.05Z</time></trkpt><trkpt lat="43.1841167" lon="12.9234117"><ele>457.6666666666667</ele><time>2026-04-18T09:24:41.05Z</time></trkpt><trkpt lat="43.1841717" lon="12.923215"><ele>460.0</ele><time>2026-04-18T09:24:42.05Z</time></trkpt><trkpt lat="43.1842217" lon="12.9230117"><ele>460.0</ele><time>2026-04-18T09:24:43.05Z</time></trkpt><trkpt lat="43.1842733" lon="12.9227983"><ele>460.0</ele><time>2026-04-18T09:24:44.05Z</time></trkpt><trkpt lat="43.1843317" lon="12.92257"><ele>460.0</ele><time>2026-04-18T09:24:45.05Z</time></trkpt><trkpt lat="43.1843917" lon="12.922365"><ele>460.0</ele><time>2026-04-18T09:24:46.05Z</time></trkpt><trkpt lat="43.1844583" lon="12.9221583"><ele>460.0</ele><time>2026-04-18T09:24:47.05Z</time></trkpt><trkpt lat="43.1845317" lon="12.9219567"><ele>460.0</ele><time>2026-04-18T09:24:48.05Z</time></trkpt><trkpt lat="43.1846083" lon="12.92176"><ele>459.33333333333337</ele><time>2026-04-18T09:24:49.051Z</time></trkpt><trkpt lat="43.184695" lon="12.9215667"><ele>458.66666666666663</ele><time>2026-04-18T09:24:50.05Z</time></trkpt><trkpt lat="43.1847767" lon="12.9213633"><ele>458.0</ele><time>2026-04-18T09:24:51.05Z</time></trkpt><trkpt lat="43.184855" lon="12.92117"><ele>461.0</ele><time>2026-04-18T09:24:52.05Z</time></trkpt><trkpt lat="43.1849233" lon="12.920975"><ele>464.0</ele><time>2026-04-18T09:24:53.05Z</time></trkpt><trkpt lat="43.18499" lon="12.9207883"><ele>467.0</ele><time>2026-04-18T09:24:54.05Z</time></trkpt><trkpt lat="43.185055" lon="12.9205967"><ele>467.0</ele><time>2026-04-18T09:24:55.05Z</time></trkpt><trkpt lat="43.1851117" lon="12.9204"><ele>467.0</ele><time>2026-04-18T09:24:56.05Z</time></trkpt><trkpt lat="43.1851533" lon="12.9202083"><ele>467.0</ele><time>2026-04-18T09:24:57.05Z</time></trkpt><trkpt lat="43.185175" lon="12.9199817"><ele>465.3333333333333</ele><time>2026-04-18T09:24:58.051Z</time></trkpt><trkpt lat="43.18521" lon="12.9197633"><ele>463.66666666666663</ele><time>2026-04-18T09:24:59.05Z</time></trkpt><trkpt lat="43.1852467" lon="12.9195317"><ele>462.0</ele><time>2026-04-18T09:25:00.05Z</time></trkpt><trkpt lat="43.1852983" lon="12.9193033"><ele>461.0</ele><time>2026-04-18T09:25:01.05Z</time></trkpt><trkpt lat="43.18536" lon="12.919085"><ele>460.0</ele><time>2026-04-18T09:25:02.05Z</time></trkpt><trkpt lat="43.1854233" lon="12.9188633"><ele>459.0</ele><time>2026-04-18T09:25:03.05Z</time></trkpt><trkpt lat="43.1854967" lon="12.91864"><ele>459.0</ele><time>2026-04-18T09:25:04.051Z</time></trkpt><trkpt lat="43.185565" lon="12.918415"><ele>459.0</ele><time>2026-04-18T09:25:05.05Z</time></trkpt><trkpt lat="43.1856367" lon="12.918205"><ele>459.0</ele><time>2026-04-18T09:25:06.05Z</time></trkpt><trkpt lat="43.185715" lon="12.9180033"><ele>459.66666666666663</ele><time>2026-04-18T09:25:07.05Z</time></trkpt><trkpt lat="43.18581" lon="12.91781"><ele>460.3333333333333</ele><time>2026-04-18T09:25:08.051Z</time></trkpt><trkpt lat="43.1859133" lon="12.917625"><ele>461.0</ele><time>2026-04-18T09:25:09.05Z</time></trkpt><trkpt lat="43.18602" lon="12.9174367"><ele>461.0</ele><time>2026-04-18T09:25:10.05Z</time></trkpt><trkpt lat="43.1861367" lon="12.9172633"><ele>461.0</ele><time>2026-04-18T09:25:11.05Z</time></trkpt><trkpt lat="43.1862533" lon="12.9171033"><ele>461.0</ele><time>2026-04-18T09:25:12.051Z</time></trkpt><trkpt lat="43.186375" lon="12.9169517"><ele>461.0</ele><time>2026-04-18T09:25:13.051Z</time></trkpt><trkpt lat="43.1865067" lon="12.916795"><ele>461.0</ele><time>2026-04-18T09:25:14.05Z</time></trkpt><trkpt lat="43.1866383" lon="12.916625"><ele>461.0</ele><time>2026-04-18T09:25:15.05Z</time></trkpt><trkpt lat="43.1867767" lon="12.916455"><ele>462.3333333333333</ele><time>2026-04-18T09:25:16.05Z</time></trkpt><trkpt lat="43.1869083" lon="12.916285"><ele>463.66666666666663</ele><time>2026-04-18T09:25:17.05Z</time></trkpt><trkpt lat="43.1870467" lon="12.916125"><ele>465.0</ele><time>2026-04-18T09:25:18.05Z</time></trkpt><trkpt lat="43.187175" lon="12.9159933"><ele>465.66666666666663</ele><time>2026-04-18T09:25:19.05Z</time></trkpt><trkpt lat="43.1873167" lon="12.915875"><ele>466.3333333333333</ele><time>2026-04-18T09:25:20.05Z</time></trkpt><trkpt lat="43.1874733" lon="12.9157983"><ele>467.0</ele><time>2026-04-18T09:25:21.05Z</time></trkpt><trkpt lat="43.1876417" lon="12.9157367"><ele>467.0</ele><time>2026-04-18T09:25:22.05Z</time></trkpt><trkpt lat="43.18782" lon="12.915695"><ele>467.0</ele><time>2026-04-18T09:25:23.05Z</time></trkpt><trkpt lat="43.1879933" lon="12.9156583"><ele>467.0</ele><time>2026-04-18T09:25:24.05Z</time></trkpt><trkpt lat="43.18817" lon="12.9156217"><ele>469.66666666666663</ele><time>2026-04-18T09:25:25.05Z</time></trkpt><trkpt lat="43.1883317" lon="12.915575"><ele>472.33333333333337</ele><time>2026-04-18T09:25:26.05Z</time></trkpt><trkpt lat="43.1884917" lon="12.9155367"><ele>475.0</ele><time>2026-04-18T09:25:27.05Z</time></trkpt><trkpt lat="43.1886517" lon="12.9154917"><ele>475.0</ele><time>2026-04-18T09:25:28.051Z</time></trkpt><trkpt lat="43.188815" lon="12.9154683"><ele>475.0</ele><time>2026-04-18T09:25:29.051Z</time></trkpt><trkpt lat="43.1889633" lon="12.9154567"><ele>475.0</ele><time>2026-04-18T09:25:30.051Z</time></trkpt><trkpt lat="43.1891183" lon="12.9154667"><ele>477.33333333333337</ele><time>2026-04-18T09:25:31.05Z</time></trkpt><trkpt lat="43.1892967" lon="12.9154783"><ele>479.66666666666663</ele><time>2026-04-18T09:25:32.051Z</time></trkpt><trkpt lat="43.1894783" lon="12.9154967"><ele>482.0</ele><time>2026-04-18T09:25:33.05Z</time></trkpt><trkpt lat="43.18966" lon="12.9154967"><ele>482.0</ele><time>2026-04-18T09:25:34.05Z</time></trkpt><trkpt lat="43.18984" lon="12.9154683"><ele>482.0</ele><time>2026-04-18T09:25:35.05Z</time></trkpt><trkpt lat="43.1900067" lon="12.9154067"><ele>482.0</ele><time>2026-04-18T09:25:36.05Z</time></trkpt><trkpt lat="43.1901667" lon="12.9153367"><ele>483.3333333333333</ele><time>2026-04-18T09:25:37.051Z</time></trkpt><trkpt lat="43.19032" lon="12.9152667"><ele>484.66666666666663</ele><time>2026-04-18T09:25:38.05Z</time></trkpt><trkpt lat="43.19046" lon="12.9151917"><ele>486.0</ele><time>2026-04-18T09:25:39.05Z</time></trkpt><trkpt lat="43.19061" lon="12.9150783"><ele>479.33333333333337</ele><time>2026-04-18T09:25:40.05Z</time></trkpt><trkpt lat="43.1907583" lon="12.914945"><ele>472.6666666666667</ele><time>2026-04-18T09:25:41.051Z</time></trkpt><trkpt lat="43.190915" lon="12.914805"><ele>466.0</ele><time>2026-04-18T09:25:42.051Z</time></trkpt><trkpt lat="43.19107" lon="12.9146483"><ele>466.0</ele><time>2026-04-18T09:25:43.05Z</time></trkpt><trkpt lat="43.1912233" lon="12.9144933"><ele>466.0</ele><time>2026-04-18T09:25:44.05Z</time></trkpt><trkpt lat="43.19138" lon="12.9143267"><ele>466.0</ele><time>2026-04-18T09:25:45.05Z</time></trkpt><trkpt lat="43.1915333" lon="12.9141583"><ele>464.6666666666667</ele><time>2026-04-18T09:25:46.05Z</time></trkpt><trkpt lat="43.191685" lon="12.913985"><ele>463.33333333333337</ele><time>2026-04-18T09:25:47.05Z</time></trkpt><trkpt lat="43.1918317" lon="12.9138133"><ele>462.0</ele><time>2026-04-18T09:25:48.05Z</time></trkpt><trkpt lat="43.1919733" lon="12.9136433"><ele>462.0</ele><time>2026-04-18T09:25:49.05Z</time></trkpt><trkpt lat="43.1921233" lon="12.9134717"><ele>462.0</ele><time>2026-04-18T09:25:50.05Z</time></trkpt><trkpt lat="43.1922683" lon="12.9132967"><ele>462.0</ele><time>2026-04-18T09:25:51.05Z</time></trkpt><trkpt lat="43.192415" lon="12.913135"><ele>462.66666666666663</ele><time>2026-04-18T09:25:52.05Z</time></trkpt><trkpt lat="43.1925417" lon="12.9129833"><ele>463.3333333333333</ele><time>2026-04-18T09:25:53.05Z</time></trkpt><trkpt lat="43.1926583" lon="12.9128483"><ele>464.0</ele><time>2026-04-18T09:25:54.05Z</time></trkpt><trkpt lat="43.1927633" lon="12.9127383"><ele>464.0</ele><time>2026-04-18T09:25:55.05Z</time></trkpt><trkpt lat="43.19285" lon="12.9126383"><ele>464.0</ele><time>2026-04-18T09:25:56.05Z</time></trkpt><trkpt lat="43.192925" lon="12.9125467"><ele>464.0</ele><time>2026-04-18T09:25:57.05Z</time></trkpt><trkpt lat="43.1929917" lon="12.9124717"><ele>464.0</ele><time>2026-04-18T09:25:58.05Z</time></trkpt><trkpt lat="43.193045" lon="12.9124067"><ele>464.0</ele><time>2026-04-18T09:25:59.05Z</time></trkpt><trkpt lat="43.1931067" lon="12.912295"><ele>464.0</ele><time>2026-04-18T09:26:01.05Z</time></trkpt><trkpt lat="43.1930833" lon="12.912185"><ele>464.0</ele><time>2026-04-18T09:26:03.051Z</time></trkpt><trkpt lat="43.19299" lon="12.9120967"><ele>464.0</ele><time>2026-04-18T09:26:05.05Z</time></trkpt><trkpt lat="43.19293" lon="12.9120483"><ele>464.0</ele><time>2026-04-18T09:26:06.05Z</time></trkpt><trkpt lat="43.19287" lon="12.9120017"><ele>464.0</ele><time>2026-04-18T09:26:07.05Z</time></trkpt><trkpt lat="43.19277" lon="12.9118983"><ele>463.99999999999994</ele><time>2026-04-18T09:26:09.05Z</time></trkpt><trkpt lat="43.192735" lon="12.9118167"><ele>464.0</ele><time>2026-04-18T09:26:10.05Z</time></trkpt><trkpt lat="43.1927267" lon="12.9117267"><ele>464.0</ele><time>2026-04-18T09:26:11.05Z</time></trkpt><trkpt lat="43.1927367" lon="12.9116233"><ele>464.0</ele><time>2026-04-18T09:26:12.05Z</time></trkpt><trkpt lat="43.1927617" lon="12.9115133"><ele>463.99999999999994</ele><time>2026-04-18T09:26:13.05Z</time></trkpt><trkpt lat="43.1927933" lon="12.9113967"><ele>464.0</ele><time>2026-04-18T09:26:14.05Z</time></trkpt><trkpt lat="43.19283" lon="12.9112917"><ele>463.66666666666663</ele><time>2026-04-18T09:26:15.05Z</time></trkpt><trkpt lat="43.1928633" lon="12.91121"><ele>463.3333333333333</ele><time>2026-04-18T09:26:16.05Z</time></trkpt><trkpt lat="43.1929" lon="12.9111267"><ele>463.0</ele><time>2026-04-18T09:26:17.05Z</time></trkpt><trkpt lat="43.1929483" lon="12.9110367"><ele>462.66666666666663</ele><time>2026-04-18T09:26:18.05Z</time></trkpt><trkpt lat="43.19299" lon="12.9109517"><ele>462.3333333333333</ele><time>2026-04-18T09:26:19.05Z</time></trkpt><trkpt lat="43.1930367" lon="12.9108633"><ele>462.0</ele><time>2026-04-18T09:26:20.05Z</time></trkpt><trkpt lat="43.193085" lon="12.9107783"><ele>462.0</ele><time>2026-04-18T09:26:21.051Z</time></trkpt><trkpt lat="43.1931233" lon="12.9106917"><ele>462.0</ele><time>2026-04-18T09:26:22.05Z</time></trkpt><trkpt lat="43.1931567" lon="12.910615"><ele>462.0</ele><time>2026-04-18T09:26:23.05Z</time></trkpt><trkpt lat="43.1932167" lon="12.9104667"><ele>462.0</ele><time>2026-04-18T09:26:25.05Z</time></trkpt><trkpt lat="43.1932467" lon="12.9103683"><ele>462.0</ele><time>2026-04-18T09:26:26.05Z</time></trkpt><trkpt lat="43.1932733" lon="12.9102717"><ele>462.0</ele><time>2026-04-18T09:26:27.051Z</time></trkpt><trkpt lat="43.1933033" lon="12.9101783"><ele>462.0</ele><time>2026-04-18T09:26:28.05Z</time></trkpt><trkpt lat="43.1933233" lon="12.910095"><ele>462.0</ele><time>2026-04-18T09:26:29.051Z</time></trkpt><trkpt lat="43.1933717" lon="12.9099467"><ele>462.0</ele><time>2026-04-18T09:26:31.05Z</time></trkpt><trkpt lat="43.1934167" lon="12.9098217"><ele>462.0</ele><time>2026-04-18T09:26:33.05Z</time></trkpt><trkpt lat="43.193455" lon="12.90973"><ele>462.0</ele><time>2026-04-18T09:26:34.05Z</time></trkpt><trkpt lat="43.1934867" lon="12.9096333"><ele>462.0</ele><time>2026-04-18T09:26:35.05Z</time></trkpt><trkpt lat="43.1935217" lon="12.909545"><ele>462.1666666666667</ele><time>2026-04-18T09:26:36.05Z</time></trkpt><trkpt lat="43.1935533" lon="12.9094533"><ele>462.33333333333337</ele><time>2026-04-18T09:26:37.05Z</time></trkpt><trkpt lat="43.1935817" lon="12.9093433"><ele>462.5</ele><time>2026-04-18T09:26:38.05Z</time></trkpt><trkpt lat="43.1936017" lon="12.909235"><ele>462.6666666666667</ele><time>2026-04-18T09:26:39.05Z</time></trkpt><trkpt lat="43.1936133" lon="12.909135"><ele>462.83333333333337</ele><time>2026-04-18T09:26:40.05Z</time></trkpt><trkpt lat="43.19363" lon="12.90903"><ele>463.0</ele><time>2026-04-18T09:26:41.05Z</time></trkpt><trkpt lat="43.1936517" lon="12.9089283"><ele>463.00000000000006</ele><time>2026-04-18T09:26:42.05Z</time></trkpt><trkpt lat="43.1936767" lon="12.9088317"><ele>463.0</ele><time>2026-04-18T09:26:43.05Z</time></trkpt><trkpt lat="43.193705" lon="12.9087217"><ele>463.0</ele><time>2026-04-18T09:26:44.05Z</time></trkpt><trkpt lat="43.19373" lon="12.9086167"><ele>463.0</ele><time>2026-04-18T09:26:45.05Z</time></trkpt><trkpt lat="43.1937567" lon="12.908515"><ele>463.00000000000006</ele><time>2026-04-18T09:26:46.05Z</time></trkpt><trkpt lat="43.1937783" lon="12.9084083"><ele>463.0</ele><time>2026-04-18T09:26:47.05Z</time></trkpt><trkpt lat="43.1938033" lon="12.9083033"><ele>463.6666666666667</ele><time>2026-04-18T09:26:48.05Z</time></trkpt><trkpt lat="43.1938267" lon="12.9081983"><ele>464.33333333333337</ele><time>2026-04-18T09:26:49.051Z</time></trkpt><trkpt lat="43.193845" lon="12.908095"><ele>465.0</ele><time>2026-04-18T09:26:50.051Z</time></trkpt><trkpt lat="43.1938683" lon="12.908005"><ele>465.66666666666663</ele><time>2026-04-18T09:26:51.05Z</time></trkpt><trkpt lat="43.1938833" lon="12.9079167"><ele>466.3333333333333</ele><time>2026-04-18T09:26:52.05Z</time></trkpt><trkpt lat="43.1938983" lon="12.9078317"><ele>467.0</ele><time>2026-04-18T09:26:53.05Z</time></trkpt><trkpt lat="43.1939417" lon="12.907675"><ele>466.49999999999994</ele><time>2026-04-18T09:26:55.05Z</time></trkpt><trkpt lat="43.193965" lon="12.9075067"><ele>466.0</ele><time>2026-04-18T09:26:57.051Z</time></trkpt><trkpt lat="43.19398" lon="12.9074117"><ele>465.5</ele><time>2026-04-18T09:26:58.05Z</time></trkpt><trkpt lat="43.1940017" lon="12.907295"><ele>465.0</ele><time>2026-04-18T09:26:59.05Z</time></trkpt><trkpt lat="43.194025" lon="12.907185"><ele>464.49999999999994</ele><time>2026-04-18T09:27:00.05Z</time></trkpt><trkpt lat="43.1940517" lon="12.9070817"><ele>464.0</ele><time>2026-04-18T09:27:01.05Z</time></trkpt><trkpt lat="43.19408" lon="12.9069617"><ele>463.99999999999994</ele><time>2026-04-18T09:27:02.051Z</time></trkpt><trkpt lat="43.1941017" lon="12.9068567"><ele>464.0</ele><time>2026-04-18T09:27:03.05Z</time></trkpt><trkpt lat="43.1941183" lon="12.90676"><ele>464.0</ele><time>2026-04-18T09:27:04.05Z</time></trkpt><trkpt lat="43.1941317" lon="12.90665"><ele>464.0</ele><time>2026-04-18T09:27:05.05Z</time></trkpt><trkpt lat="43.19415" lon="12.9065317"><ele>463.99999999999994</ele><time>2026-04-18T09:27:06.05Z</time></trkpt><trkpt lat="43.1941733" lon="12.906405"><ele>464.0</ele><time>2026-04-18T09:27:07.05Z</time></trkpt><trkpt lat="43.194195" lon="12.90628"><ele>464.16666666666663</ele><time>2026-04-18T09:27:08.051Z</time></trkpt><trkpt lat="43.19421" lon="12.90616"><ele>464.3333333333333</ele><time>2026-04-18T09:27:09.051Z</time></trkpt><trkpt lat="43.1942167" lon="12.9060583"><ele>464.5</ele><time>2026-04-18T09:27:10.05Z</time></trkpt><trkpt lat="43.1942333" lon="12.90595"><ele>464.66666666666663</ele><time>2026-04-18T09:27:11.05Z</time></trkpt><trkpt lat="43.1942533" lon="12.9058517"><ele>464.8333333333333</ele><time>2026-04-18T09:27:12.051Z</time></trkpt><trkpt lat="43.1942883" lon="12.9057667"><ele>465.0</ele><time>2026-04-18T09:27:13.051Z</time></trkpt><trkpt lat="43.19435" lon="12.9056517"><ele>465.0</ele><time>2026-04-18T09:27:15.05Z</time></trkpt><trkpt lat="43.194375" lon="12.9054983"><ele>465.0</ele><time>2026-04-18T09:27:17.051Z</time></trkpt><trkpt lat="43.194375" lon="12.9053633"><ele>465.0</ele><time>2026-04-18T09:27:18.05Z</time></trkpt><trkpt lat="43.1943733" lon="12.905215"><ele>465.0</ele><time>2026-04-18T09:27:19.051Z</time></trkpt><trkpt lat="43.1943833" lon="12.90505"><ele>465.0</ele><time>2026-04-18T09:27:20.05Z</time></trkpt><trkpt lat="43.1943933" lon="12.90485"><ele>465.33333333333337</ele><time>2026-04-18T09:27:21.051Z</time></trkpt><trkpt lat="43.194415" lon="12.9046517"><ele>465.6666666666667</ele><time>2026-04-18T09:27:22.051Z</time></trkpt><trkpt lat="43.19444" lon="12.90445"><ele>466.0</ele><time>2026-04-18T09:27:23.05Z</time></trkpt><trkpt lat="43.194465" lon="12.9042367"><ele>466.0</ele><time>2026-04-18T09:27:24.051Z</time></trkpt><trkpt lat="43.1944867" lon="12.9040183"><ele>466.0</ele><time>2026-04-18T09:27:25.05Z</time></trkpt><trkpt lat="43.194515" lon="12.9037783"><ele>466.0</ele><time>2026-04-18T09:27:26.05Z</time></trkpt><trkpt lat="43.1945483" lon="12.9035217"><ele>467.0</ele><time>2026-04-18T09:27:27.05Z</time></trkpt><trkpt lat="43.1945733" lon="12.9032667"><ele>468.0</ele><time>2026-04-18T09:27:28.051Z</time></trkpt><trkpt lat="43.1945983" lon="12.9030217"><ele>469.0</ele><time>2026-04-18T09:27:29.05Z</time></trkpt><trkpt lat="43.1946267" lon="12.9027783"><ele>470.6666666666667</ele><time>2026-04-18T09:27:30.05Z</time></trkpt><trkpt lat="43.1946567" lon="12.9025283"><ele>472.33333333333337</ele><time>2026-04-18T09:27:31.05Z</time></trkpt><trkpt lat="43.19468" lon="12.9022917"><ele>474.0</ele><time>2026-04-18T09:27:32.05Z</time></trkpt><trkpt lat="43.1947067" lon="12.90207"><ele>474.0</ele><time>2026-04-18T09:27:33.051Z</time></trkpt><trkpt lat="43.19473" lon="12.901865"><ele>474.0</ele><time>2026-04-18T09:27:34.05Z</time></trkpt><trkpt lat="43.1947383" lon="12.9016717"><ele>474.0</ele><time>2026-04-18T09:27:35.05Z</time></trkpt><trkpt lat="43.19472" lon="12.901475"><ele>474.0</ele><time>2026-04-18T09:27:36.05Z</time></trkpt><trkpt lat="43.1946617" lon="12.9012833"><ele>474.0</ele><time>2026-04-18T09:27:37.051Z</time></trkpt><trkpt lat="43.1945783" lon="12.901115"><ele>474.0</ele><time>2026-04-18T09:27:38.05Z</time></trkpt><trkpt lat="43.1944867" lon="12.9009333"><ele>474.0</ele><time>2026-04-18T09:27:39.05Z</time></trkpt><trkpt lat="43.1943917" lon="12.90074"><ele>473.0</ele><time>2026-04-18T09:27:40.051Z</time></trkpt><trkpt lat="43.1942917" lon="12.9005433"><ele>472.0</ele><time>2026-04-18T09:27:41.05Z</time></trkpt><trkpt lat="43.1941783" lon="12.9003483"><ele>471.0</ele><time>2026-04-18T09:27:42.05Z</time></trkpt><trkpt lat="43.194055" lon="12.9001533"><ele>471.66666666666663</ele><time>2026-04-18T09:27:43.05Z</time></trkpt><trkpt lat="43.1939317" lon="12.8999633"><ele>472.3333333333333</ele><time>2026-04-18T09:27:44.05Z</time></trkpt><trkpt lat="43.1938183" lon="12.8997617"><ele>473.0</ele><time>2026-04-18T09:27:45.05Z</time></trkpt><trkpt lat="43.1937133" lon="12.8995333"><ele>473.0</ele><time>2026-04-18T09:27:46.05Z</time></trkpt><trkpt lat="43.193605" lon="12.8993017"><ele>473.0</ele><time>2026-04-18T09:27:47.05Z</time></trkpt><trkpt lat="43.1935" lon="12.89906"><ele>473.0</ele><time>2026-04-18T09:27:48.051Z</time></trkpt><trkpt lat="43.1933817" lon="12.8988217"><ele>472.66666666666663</ele><time>2026-04-18T09:27:49.05Z</time></trkpt><trkpt lat="43.193275" lon="12.8985833"><ele>472.33333333333337</ele><time>2026-04-18T09:27:50.05Z</time></trkpt><trkpt lat="43.1931683" lon="12.898345"><ele>472.0</ele><time>2026-04-18T09:27:51.05Z</time></trkpt><trkpt lat="43.193065" lon="12.8981033"><ele>472.0</ele><time>2026-04-18T09:27:52.05Z</time></trkpt><trkpt lat="43.1929583" lon="12.8978617"><ele>472.0</ele><time>2026-04-18T09:27:53.05Z</time></trkpt><trkpt lat="43.1928467" lon="12.89763"><ele>472.0</ele><time>2026-04-18T09:27:54.05Z</time></trkpt><trkpt lat="43.1927133" lon="12.8974067"><ele>473.0</ele><time>2026-04-18T09:27:55.051Z</time></trkpt><trkpt lat="43.1925733" lon="12.8971867"><ele>474.0</ele><time>2026-04-18T09:27:56.05Z</time></trkpt><trkpt lat="43.1924317" lon="12.89697"><ele>475.0</ele><time>2026-04-18T09:27:57.05Z</time></trkpt><trkpt lat="43.1923" lon="12.8967483"><ele>476.6666666666667</ele><time>2026-04-18T09:27:58.05Z</time></trkpt><trkpt lat="43.1921833" lon="12.8965117"><ele>478.33333333333337</ele><time>2026-04-18T09:27:59.05Z</time></trkpt><trkpt lat="43.19207" lon="12.896265"><ele>480.0</ele><time>2026-04-18T09:28:00.05Z</time></trkpt><trkpt lat="43.1919583" lon="12.8960233"><ele>479.0</ele><time>2026-04-18T09:28:01.051Z</time></trkpt><trkpt lat="43.19186" lon="12.8957967"><ele>478.0</ele><time>2026-04-18T09:28:02.05Z</time></trkpt><trkpt lat="43.1917667" lon="12.895575"><ele>477.0</ele><time>2026-04-18T09:28:03.05Z</time></trkpt><trkpt lat="43.1916783" lon="12.89536"><ele>477.0</ele><time>2026-04-18T09:28:04.051Z</time></trkpt><trkpt lat="43.1916" lon="12.8951783"><ele>477.0</ele><time>2026-04-18T09:28:05.05Z</time></trkpt><trkpt lat="43.1915117" lon="12.8950133"><ele>477.0</ele><time>2026-04-18T09:28:06.05Z</time></trkpt><trkpt lat="43.1914067" lon="12.8948767"><ele>477.0</ele><time>2026-04-18T09:28:07.05Z</time></trkpt><trkpt lat="43.191285" lon="12.894765"><ele>476.25</ele><time>2026-04-18T09:28:08.05Z</time></trkpt><trkpt lat="43.1911483" lon="12.8946717"><ele>475.5</ele><time>2026-04-18T09:28:09.05Z</time></trkpt><trkpt lat="43.1910167" lon="12.8945883"><ele>474.75</ele><time>2026-04-18T09:28:10.05Z</time></trkpt><trkpt lat="43.1908883" lon="12.8945183"><ele>474.0</ele><time>2026-04-18T09:28:11.051Z</time></trkpt><trkpt lat="43.1907683" lon="12.8944533"><ele>476.25</ele><time>2026-04-18T09:28:12.051Z</time></trkpt><trkpt lat="43.19067" lon="12.8943633"><ele>478.5</ele><time>2026-04-18T09:28:13.049Z</time></trkpt><trkpt lat="43.1905867" lon="12.8942433"><ele>480.75</ele><time>2026-04-18T09:28:14.049Z</time></trkpt><trkpt lat="43.1905283" lon="12.894085"><ele>483.0</ele><time>2026-04-18T09:28:15.049Z</time></trkpt><trkpt lat="43.19048" lon="12.8939017"><ele>483.0</ele><time>2026-04-18T09:28:16.049Z</time></trkpt><trkpt lat="43.1904333" lon="12.893695"><ele>483.0</ele><time>2026-04-18T09:28:17.05Z</time></trkpt><trkpt lat="43.19038" lon="12.8934967"><ele>483.0</ele><time>2026-04-18T09:28:18.05Z</time></trkpt><trkpt lat="43.1903333" lon="12.8933067"><ele>482.0</ele><time>2026-04-18T09:28:19.049Z</time></trkpt><trkpt lat="43.1902883" lon="12.8931167"><ele>481.0</ele><time>2026-04-18T09:28:20.049Z</time></trkpt><trkpt lat="43.19024" lon="12.8929267"><ele>480.0</ele><time>2026-04-18T09:28:21.049Z</time></trkpt><trkpt lat="43.190185" lon="12.89273"><ele>479.0</ele><time>2026-04-18T09:28:22.05Z</time></trkpt><trkpt lat="43.1901283" lon="12.8925283"><ele>479.0</ele><time>2026-04-18T09:28:23.049Z</time></trkpt><trkpt lat="43.1900683" lon="12.892325"><ele>479.0</ele><time>2026-04-18T09:28:24.05Z</time></trkpt><trkpt lat="43.190005" lon="12.8921233"><ele>479.0</ele><time>2026-04-18T09:28:25.049Z</time></trkpt><trkpt lat="43.18993" lon="12.8919183"><ele>477.66666666666663</ele><time>2026-04-18T09:28:26.05Z</time></trkpt><trkpt lat="43.1898383" lon="12.891705"><ele>476.33333333333337</ele><time>2026-04-18T09:28:27.049Z</time></trkpt><trkpt lat="43.1897183" lon="12.89149"><ele>475.0</ele><time>2026-04-18T09:28:28.049Z</time></trkpt><trkpt lat="43.189575" lon="12.8912967"><ele>475.0</ele><time>2026-04-18T09:28:29.049Z</time></trkpt><trkpt lat="43.1894217" lon="12.8911117"><ele>475.0</ele><time>2026-04-18T09:28:30.049Z</time></trkpt><trkpt lat="43.189265" lon="12.8909417"><ele>475.0</ele><time>2026-04-18T09:28:31.049Z</time></trkpt><trkpt lat="43.1891317" lon="12.8907683"><ele>477.0</ele><time>2026-04-18T09:28:32.049Z</time></trkpt><trkpt lat="43.1890117" lon="12.8906067"><ele>479.0</ele><time>2026-04-18T09:28:33.05Z</time></trkpt><trkpt lat="43.1888967" lon="12.89045"><ele>481.0</ele><time>2026-04-18T09:28:34.049Z</time></trkpt><trkpt lat="43.1887883" lon="12.8902767"><ele>481.0</ele><time>2026-04-18T09:28:35.049Z</time></trkpt><trkpt lat="43.1886767" lon="12.8901"><ele>481.0</ele><time>2026-04-18T09:28:36.049Z</time></trkpt><trkpt lat="43.188565" lon="12.8899333"><ele>481.0</ele><time>2026-04-18T09:28:37.05Z</time></trkpt><trkpt lat="43.18846" lon="12.8897483"><ele>479.33333333333337</ele><time>2026-04-18T09:28:38.049Z</time></trkpt><trkpt lat="43.1883533" lon="12.8895567"><ele>477.66666666666663</ele><time>2026-04-18T09:28:39.049Z</time></trkpt><trkpt lat="43.18824" lon="12.8893783"><ele>476.0</ele><time>2026-04-18T09:28:40.05Z</time></trkpt><trkpt lat="43.1881217" lon="12.889205"><ele>476.0</ele><time>2026-04-18T09:28:41.049Z</time></trkpt><trkpt lat="43.1880017" lon="12.8890417"><ele>476.0</ele><time>2026-04-18T09:28:42.05Z</time></trkpt><trkpt lat="43.1878817" lon="12.888895"><ele>476.0</ele><time>2026-04-18T09:28:43.049Z</time></trkpt><trkpt lat="43.187745" lon="12.8887733"><ele>476.0</ele><time>2026-04-18T09:28:44.049Z</time></trkpt><trkpt lat="43.1875933" lon="12.88868"><ele>476.0</ele><time>2026-04-18T09:28:45.049Z</time></trkpt><trkpt lat="43.1874333" lon="12.8886183"><ele>476.0</ele><time>2026-04-18T09:28:46.05Z</time></trkpt><trkpt lat="43.1872733" lon="12.8885817"><ele>477.5</ele><time>2026-04-18T09:28:47.049Z</time></trkpt><trkpt lat="43.1871283" lon="12.8885767"><ele>479.0</ele><time>2026-04-18T09:28:48.049Z</time></trkpt><trkpt lat="43.1869817" lon="12.8886267"><ele>480.5</ele><time>2026-04-18T09:28:49.049Z</time></trkpt><trkpt lat="43.1868383" lon="12.888675"><ele>482.0</ele><time>2026-04-18T09:28:50.049Z</time></trkpt><trkpt lat="43.1867" lon="12.88874"><ele>482.0</ele><time>2026-04-18T09:28:51.049Z</time></trkpt><trkpt lat="43.1865583" lon="12.88879"><ele>482.0</ele><time>2026-04-18T09:28:52.049Z</time></trkpt><trkpt lat="43.1864017" lon="12.88884"><ele>482.0</ele><time>2026-04-18T09:28:53.049Z</time></trkpt><trkpt lat="43.1862467" lon="12.8888583"><ele>482.5</ele><time>2026-04-18T09:28:54.049Z</time></trkpt><trkpt lat="43.1861133" lon="12.8888483"><ele>483.0</ele><time>2026-04-18T09:28:55.049Z</time></trkpt><trkpt lat="43.1859817" lon="12.8887633"><ele>483.5</ele><time>2026-04-18T09:28:56.049Z</time></trkpt><trkpt lat="43.1858733" lon="12.8886367"><ele>484.0</ele><time>2026-04-18T09:28:57.049Z</time></trkpt><trkpt lat="43.185805" lon="12.8884583"><ele>484.25</ele><time>2026-04-18T09:28:58.049Z</time></trkpt><trkpt lat="43.1857767" lon="12.8882733"><ele>484.5</ele><time>2026-04-18T09:28:59.049Z</time></trkpt><trkpt lat="43.1857733" lon="12.8880867"><ele>484.75</ele><time>2026-04-18T09:29:00.049Z</time></trkpt><trkpt lat="43.1857767" lon="12.8878717"><ele>485.0</ele><time>2026-04-18T09:29:01.049Z</time></trkpt><trkpt lat="43.1857617" lon="12.8876483"><ele>483.66666666666663</ele><time>2026-04-18T09:29:02.049Z</time></trkpt><trkpt lat="43.18571" lon="12.88741"><ele>482.33333333333337</ele><time>2026-04-18T09:29:03.05Z</time></trkpt><trkpt lat="43.1856317" lon="12.8871583"><ele>481.0</ele><time>2026-04-18T09:29:04.049Z</time></trkpt><trkpt lat="43.1855417" lon="12.8868933"><ele>480.33333333333337</ele><time>2026-04-18T09:29:05.049Z</time></trkpt><trkpt lat="43.1854467" lon="12.8866217"><ele>479.66666666666663</ele><time>2026-04-18T09:29:06.049Z</time></trkpt><trkpt lat="43.1853633" lon="12.8863367"><ele>479.0</ele><time>2026-04-18T09:29:07.049Z</time></trkpt><trkpt lat="43.1852767" lon="12.8860233"><ele>480.5</ele><time>2026-04-18T09:29:08.049Z</time></trkpt><trkpt lat="43.1851817" lon="12.8856967"><ele>482.0</ele><time>2026-04-18T09:29:09.049Z</time></trkpt><trkpt lat="43.1850817" lon="12.885365"><ele>486.5</ele><time>2026-04-18T09:29:10.05Z</time></trkpt><trkpt lat="43.1849867" lon="12.8850433"><ele>491.0</ele><time>2026-04-18T09:29:11.049Z</time></trkpt><trkpt lat="43.1849017" lon="12.8847633"><ele>491.3333333333333</ele><time>2026-04-18T09:29:12.049Z</time></trkpt><trkpt lat="43.1848217" lon="12.884525"><ele>491.66666666666663</ele><time>2026-04-18T09:29:13.049Z</time></trkpt><trkpt lat="43.1847617" lon="12.8843333"><ele>492.0</ele><time>2026-04-18T09:29:14.049Z</time></trkpt><trkpt lat="43.1847283" lon="12.8841633"><ele>491.0</ele><time>2026-04-18T09:29:15.049Z</time></trkpt><trkpt lat="43.18473" lon="12.88398"><ele>490.0</ele><time>2026-04-18T09:29:16.05Z</time></trkpt><trkpt lat="43.18476" lon="12.8837967"><ele>489.0</ele><time>2026-04-18T09:29:17.049Z</time></trkpt><trkpt lat="43.1848217" lon="12.8836167"><ele>488.0</ele><time>2026-04-18T09:29:18.05Z</time></trkpt><trkpt lat="43.1848917" lon="12.8834283"><ele>487.0</ele><time>2026-04-18T09:29:19.049Z</time></trkpt><trkpt lat="43.1849483" lon="12.88323"><ele>486.0</ele><time>2026-04-18T09:29:20.05Z</time></trkpt><trkpt lat="43.1849683" lon="12.8830233"><ele>485.0</ele><time>2026-04-18T09:29:21.049Z</time></trkpt><trkpt lat="43.1849717" lon="12.8828217"><ele>485.0</ele><time>2026-04-18T09:29:22.049Z</time></trkpt><trkpt lat="43.184975" lon="12.88261"><ele>485.0</ele><time>2026-04-18T09:29:23.049Z</time></trkpt><trkpt lat="43.1849783" lon="12.8824033"><ele>485.0</ele><time>2026-04-18T09:29:24.049Z</time></trkpt><trkpt lat="43.1849867" lon="12.8821967"><ele>484.75</ele><time>2026-04-18T09:29:25.049Z</time></trkpt><trkpt lat="43.1849883" lon="12.8820033"><ele>484.5</ele><time>2026-04-18T09:29:26.05Z</time></trkpt><trkpt lat="43.1849733" lon="12.8818233"><ele>484.25</ele><time>2026-04-18T09:29:27.049Z</time></trkpt><trkpt lat="43.1849483" lon="12.8816483"><ele>484.0</ele><time>2026-04-18T09:29:28.049Z</time></trkpt><trkpt lat="43.1848867" lon="12.8814833"><ele>483.25</ele><time>2026-04-18T09:29:29.049Z</time></trkpt><trkpt lat="43.184805" lon="12.8813333"><ele>482.5</ele><time>2026-04-18T09:29:30.049Z</time></trkpt><trkpt lat="43.1847183" lon="12.881185"><ele>481.75</ele><time>2026-04-18T09:29:31.049Z</time></trkpt><trkpt lat="43.1846433" lon="12.8810283"><ele>481.0</ele><time>2026-04-18T09:29:32.05Z</time></trkpt><trkpt lat="43.1845617" lon="12.8808833"><ele>480.8</ele><time>2026-04-18T09:29:33.049Z</time></trkpt><trkpt lat="43.18447" lon="12.8807567"><ele>480.6</ele><time>2026-04-18T09:29:34.049Z</time></trkpt><trkpt lat="43.1843867" lon="12.8806417"><ele>480.4</ele><time>2026-04-18T09:29:35.049Z</time></trkpt><trkpt lat="43.1843233" lon="12.8805417"><ele>480.2</ele><time>2026-04-18T09:29:36.049Z</time></trkpt><trkpt lat="43.1842683" lon="12.8804583"><ele>480.0</ele><time>2026-04-18T09:29:37.049Z</time></trkpt><trkpt lat="43.184225" lon="12.8803917"><ele>480.0</ele><time>2026-04-18T09:29:38.049Z</time></trkpt><trkpt lat="43.184195" lon="12.8802933"><ele>480.0</ele><time>2026-04-18T09:29:40.049Z</time></trkpt><trkpt lat="43.184215" lon="12.8801917"><ele>480.0</ele><time>2026-04-18T09:29:42.05Z</time></trkpt><trkpt lat="43.1842617" lon="12.880065"><ele>480.0</ele><time>2026-04-18T09:29:44.049Z</time></trkpt><trkpt lat="43.1843117" lon="12.8799167"><ele>480.0</ele><time>2026-04-18T09:29:46.049Z</time></trkpt><trkpt lat="43.184385" lon="12.87977"><ele>480.1666666666667</ele><time>2026-04-18T09:29:48.049Z</time></trkpt><trkpt lat="43.1844467" lon="12.8796183"><ele>480.33333333333337</ele><time>2026-04-18T09:29:50.05Z</time></trkpt><trkpt lat="43.1844767" lon="12.8795333"><ele>480.5</ele><time>2026-04-18T09:29:51.05Z</time></trkpt><trkpt lat="43.1845083" lon="12.879455"><ele>480.6666666666667</ele><time>2026-04-18T09:29:52.049Z</time></trkpt><trkpt lat="43.18453" lon="12.8793717"><ele>480.83333333333337</ele><time>2026-04-18T09:29:53.049Z</time></trkpt><trkpt lat="43.184545" lon="12.87928"><ele>481.0</ele><time>2026-04-18T09:29:54.049Z</time></trkpt><trkpt lat="43.1845467" lon="12.8791867"><ele>481.00000000000006</ele><time>2026-04-18T09:29:55.049Z</time></trkpt><trkpt lat="43.18454" lon="12.8790883"><ele>481.0</ele><time>2026-04-18T09:29:56.05Z</time></trkpt><trkpt lat="43.1845333" lon="12.878995"><ele>481.0</ele><time>2026-04-18T09:29:57.049Z</time></trkpt><trkpt lat="43.18454" lon="12.87886"><ele>481.0</ele><time>2026-04-18T09:29:59.05Z</time></trkpt><trkpt lat="43.1845817" lon="12.87874"><ele>481.00000000000006</ele><time>2026-04-18T09:30:01.049Z</time></trkpt><trkpt lat="43.1846667" lon="12.878645"><ele>481.0</ele><time>2026-04-18T09:30:03.05Z</time></trkpt><trkpt lat="43.184775" lon="12.8786067"><ele>483.0</ele><time>2026-04-18T09:30:05.049Z</time></trkpt><trkpt lat="43.1848533" lon="12.8786317"><ele>485.0</ele><time>2026-04-18T09:30:06.05Z</time></trkpt><trkpt lat="43.1849517" lon="12.8786683"><ele>487.0</ele><time>2026-04-18T09:30:07.049Z</time></trkpt><trkpt lat="43.1850617" lon="12.8786967"><ele>489.0</ele><time>2026-04-18T09:30:08.049Z</time></trkpt><trkpt lat="43.18519" lon="12.8786983"><ele>491.0</ele><time>2026-04-18T09:30:09.049Z</time></trkpt><trkpt lat="43.185315" lon="12.8786767"><ele>491.0</ele><time>2026-04-18T09:30:10.049Z</time></trkpt><trkpt lat="43.1854267" lon="12.878625"><ele>491.0</ele><time>2026-04-18T09:30:11.05Z</time></trkpt><trkpt lat="43.1855233" lon="12.8785433"><ele>491.0</ele><time>2026-04-18T09:30:12.049Z</time></trkpt><trkpt lat="43.1856083" lon="12.878455"><ele>491.0</ele><time>2026-04-18T09:30:13.049Z</time></trkpt><trkpt lat="43.1856683" lon="12.87832"><ele>493.0</ele><time>2026-04-18T09:30:14.049Z</time></trkpt><trkpt lat="43.1857" lon="12.8781717"><ele>495.0</ele><time>2026-04-18T09:30:15.049Z</time></trkpt><trkpt lat="43.1857133" lon="12.8780033"><ele>497.0</ele><time>2026-04-18T09:30:16.05Z</time></trkpt><trkpt lat="43.1857167" lon="12.8778333"><ele>499.0</ele><time>2026-04-18T09:30:17.049Z</time></trkpt><trkpt lat="43.1857167" lon="12.8776633"><ele>497.25</ele><time>2026-04-18T09:30:18.049Z</time></trkpt><trkpt lat="43.1857167" lon="12.87749"><ele>495.5</ele><time>2026-04-18T09:30:19.049Z</time></trkpt><trkpt lat="43.185705" lon="12.8773117"><ele>493.75</ele><time>2026-04-18T09:30:20.049Z</time></trkpt><trkpt lat="43.1856883" lon="12.8771317"><ele>492.0</ele><time>2026-04-18T09:30:21.05Z</time></trkpt><trkpt lat="43.18567" lon="12.876945"><ele>490.75</ele><time>2026-04-18T09:30:22.05Z</time></trkpt><trkpt lat="43.1856417" lon="12.87675"><ele>489.5</ele><time>2026-04-18T09:30:23.049Z</time></trkpt><trkpt lat="43.1856133" lon="12.8765467"><ele>488.25</ele><time>2026-04-18T09:30:24.049Z</time></trkpt><trkpt lat="43.1855733" lon="12.8763483"><ele>487.0</ele><time>2026-04-18T09:30:25.05Z</time></trkpt><trkpt lat="43.1855517" lon="12.8761667"><ele>487.0</ele><time>2026-04-18T09:30:26.049Z</time></trkpt><trkpt lat="43.1855367" lon="12.8759867"><ele>487.0</ele><time>2026-04-18T09:30:27.049Z</time></trkpt><trkpt lat="43.1855283" lon="12.8757983"><ele>487.0</ele><time>2026-04-18T09:30:28.049Z</time></trkpt><trkpt lat="43.18553" lon="12.8755983"><ele>487.0</ele><time>2026-04-18T09:30:29.049Z</time></trkpt><trkpt lat="43.1855433" lon="12.875405"><ele>488.5</ele><time>2026-04-18T09:30:30.049Z</time></trkpt><trkpt lat="43.1855517" lon="12.8752233"><ele>490.0</ele><time>2026-04-18T09:30:31.049Z</time></trkpt><trkpt lat="43.1855783" lon="12.8750667"><ele>491.5</ele><time>2026-04-18T09:30:32.049Z</time></trkpt><trkpt lat="43.185625" lon="12.87494"><ele>493.0</ele><time>2026-04-18T09:30:33.049Z</time></trkpt><trkpt lat="43.185705" lon="12.874835"><ele>493.5</ele><time>2026-04-18T09:30:34.049Z</time></trkpt><trkpt lat="43.1858083" lon="12.87474"><ele>494.0</ele><time>2026-04-18T09:30:35.049Z</time></trkpt><trkpt lat="43.18592" lon="12.8746617"><ele>494.5</ele><time>2026-04-18T09:30:36.049Z</time></trkpt><trkpt lat="43.1860233" lon="12.8745633"><ele>495.0</ele><time>2026-04-18T09:30:37.049Z</time></trkpt><trkpt lat="43.1861217" lon="12.8744483"><ele>495.0</ele><time>2026-04-18T09:30:38.049Z</time></trkpt><trkpt lat="43.18621" lon="12.8743"><ele>495.0</ele><time>2026-04-18T09:30:39.05Z</time></trkpt><trkpt lat="43.186285" lon="12.874135"><ele>495.0</ele><time>2026-04-18T09:30:40.049Z</time></trkpt><trkpt lat="43.18635" lon="12.8739633"><ele>495.0</ele><time>2026-04-18T09:30:41.049Z</time></trkpt><trkpt lat="43.1863883" lon="12.8738017"><ele>493.75</ele><time>2026-04-18T09:30:42.049Z</time></trkpt><trkpt lat="43.1863917" lon="12.8736467"><ele>492.5</ele><time>2026-04-18T09:30:43.049Z</time></trkpt><trkpt lat="43.1863783" lon="12.8734933"><ele>491.25</ele><time>2026-04-18T09:30:44.049Z</time></trkpt><trkpt lat="43.18635" lon="12.8733367"><ele>490.0</ele><time>2026-04-18T09:30:45.05Z</time></trkpt><trkpt lat="43.1863217" lon="12.8731733"><ele>490.0</ele><time>2026-04-18T09:30:46.05Z</time></trkpt><trkpt lat="43.18632" lon="12.8730033"><ele>490.0</ele><time>2026-04-18T09:30:47.05Z</time></trkpt><trkpt lat="43.186335" lon="12.8728483"><ele>490.0</ele><time>2026-04-18T09:30:48.05Z</time></trkpt><trkpt lat="43.1863783" lon="12.8727183"><ele>490.0</ele><time>2026-04-18T09:30:49.049Z</time></trkpt><trkpt lat="43.1864517" lon="12.8725983"><ele>491.75</ele><time>2026-04-18T09:30:50.049Z</time></trkpt><trkpt lat="43.186545" lon="12.8724933"><ele>493.5</ele><time>2026-04-18T09:30:51.049Z</time></trkpt><trkpt lat="43.186645" lon="12.8723867"><ele>495.25</ele><time>2026-04-18T09:30:52.049Z</time></trkpt><trkpt lat="43.18675" lon="12.8722717"><ele>497.0</ele><time>2026-04-18T09:30:53.049Z</time></trkpt><trkpt lat="43.1868483" lon="12.8721517"><ele>497.0</ele><time>2026-04-18T09:30:54.05Z</time></trkpt><trkpt lat="43.18693" lon="12.8720117"><ele>497.0</ele><time>2026-04-18T09:30:55.049Z</time></trkpt><trkpt lat="43.18702" lon="12.87188"><ele>497.0</ele><time>2026-04-18T09:30:56.049Z</time></trkpt><trkpt lat="43.1871233" lon="12.8717467"><ele>497.0</ele><time>2026-04-18T09:30:57.05Z</time></trkpt><trkpt lat="43.18723" lon="12.8716217"><ele>497.25</ele><time>2026-04-18T09:30:58.049Z</time></trkpt><trkpt lat="43.18734" lon="12.871505"><ele>497.5</ele><time>2026-04-18T09:30:59.05Z</time></trkpt><trkpt lat="43.18745" lon="12.871395"><ele>497.75</ele><time>2026-04-18T09:31:00.049Z</time></trkpt><trkpt lat="43.1875633" lon="12.8712933"><ele>498.0</ele><time>2026-04-18T09:31:01.05Z</time></trkpt><trkpt lat="43.1876617" lon="12.8711967"><ele>498.0</ele><time>2026-04-18T09:31:02.049Z</time></trkpt><trkpt lat="43.1877617" lon="12.87107"><ele>498.0</ele><time>2026-04-18T09:31:03.049Z</time></trkpt><trkpt lat="43.1878533" lon="12.8709367"><ele>498.0</ele><time>2026-04-18T09:31:04.049Z</time></trkpt><trkpt lat="43.1879367" lon="12.8707883"><ele>498.0</ele><time>2026-04-18T09:31:05.049Z</time></trkpt><trkpt lat="43.1880283" lon="12.870645"><ele>497.25</ele><time>2026-04-18T09:31:06.049Z</time></trkpt><trkpt lat="43.1881167" lon="12.8705"><ele>496.5</ele><time>2026-04-18T09:31:07.049Z</time></trkpt><trkpt lat="43.1882067" lon="12.8703667"><ele>495.75</ele><time>2026-04-18T09:31:08.05Z</time></trkpt><trkpt lat="43.1883" lon="12.870235"><ele>495.0</ele><time>2026-04-18T09:31:09.049Z</time></trkpt><trkpt lat="43.1883967" lon="12.870105"><ele>495.0</ele><time>2026-04-18T09:31:10.049Z</time></trkpt><trkpt lat="43.1884917" lon="12.869985"><ele>495.0</ele><time>2026-04-18T09:31:11.049Z</time></trkpt><trkpt lat="43.1885883" lon="12.8698717"><ele>495.0</ele><time>2026-04-18T09:31:12.049Z</time></trkpt><trkpt lat="43.1887033" lon="12.8697417"><ele>495.0</ele><time>2026-04-18T09:31:13.049Z</time></trkpt><trkpt lat="43.1888317" lon="12.869625"><ele>495.0</ele><time>2026-04-18T09:31:14.049Z</time></trkpt><trkpt lat="43.188955" lon="12.8695117"><ele>495.0</ele><time>2026-04-18T09:31:15.049Z</time></trkpt><trkpt lat="43.1890767" lon="12.8694067"><ele>495.0</ele><time>2026-04-18T09:31:16.05Z</time></trkpt><trkpt lat="43.1891917" lon="12.8693167"><ele>495.0</ele><time>2026-04-18T09:31:17.049Z</time></trkpt><trkpt lat="43.1893067" lon="12.869225"><ele>494.5</ele><time>2026-04-18T09:31:18.049Z</time></trkpt><trkpt lat="43.18943" lon="12.8691533"><ele>494.0</ele><time>2026-04-18T09:31:19.049Z</time></trkpt><trkpt lat="43.189565" lon="12.8690867"><ele>493.5</ele><time>2026-04-18T09:31:20.049Z</time></trkpt><trkpt lat="43.1897133" lon="12.8690383"><ele>493.0</ele><time>2026-04-18T09:31:21.049Z</time></trkpt><trkpt lat="43.18986" lon="12.8690083"><ele>497.0</ele><time>2026-04-18T09:31:22.049Z</time></trkpt><trkpt lat="43.19001" lon="12.86898"><ele>501.0</ele><time>2026-04-18T09:31:23.049Z</time></trkpt><trkpt lat="43.190165" lon="12.8689467"><ele>505.0</ele><time>2026-04-18T09:31:24.049Z</time></trkpt><trkpt lat="43.19032" lon="12.8689117"><ele>505.0</ele><time>2026-04-18T09:31:25.049Z</time></trkpt><trkpt lat="43.19047" lon="12.8688733"><ele>505.0</ele><time>2026-04-18T09:31:26.049Z</time></trkpt><trkpt lat="43.1906183" lon="12.86883"><ele>505.0</ele><time>2026-04-18T09:31:27.049Z</time></trkpt><trkpt lat="43.1907617" lon="12.868785"><ele>506.0</ele><time>2026-04-18T09:31:28.049Z</time></trkpt><trkpt lat="43.1909067" lon="12.8687517"><ele>507.0</ele><time>2026-04-18T09:31:29.049Z</time></trkpt><trkpt lat="43.1910467" lon="12.868745"><ele>508.0</ele><time>2026-04-18T09:31:30.049Z</time></trkpt><trkpt lat="43.1911917" lon="12.86877"><ele>509.0</ele><time>2026-04-18T09:31:31.049Z</time></trkpt><trkpt lat="43.1913417" lon="12.8688217"><ele>509.0</ele><time>2026-04-18T09:31:32.05Z</time></trkpt><trkpt lat="43.1914917" lon="12.8688833"><ele>509.0</ele><time>2026-04-18T09:31:33.05Z</time></trkpt><trkpt lat="43.1916383" lon="12.8689433"><ele>509.0</ele><time>2026-04-18T09:31:34.049Z</time></trkpt><trkpt lat="43.1917733" lon="12.8690117"><ele>507.3333333333333</ele><time>2026-04-18T09:31:35.049Z</time></trkpt><trkpt lat="43.19191" lon="12.8690717"><ele>505.66666666666663</ele><time>2026-04-18T09:31:36.049Z</time></trkpt><trkpt lat="43.1920567" lon="12.8691283"><ele>504.0</ele><time>2026-04-18T09:31:37.05Z</time></trkpt><trkpt lat="43.19221" lon="12.8691767"><ele>503.0</ele><time>2026-04-18T09:31:38.049Z</time></trkpt><trkpt lat="43.1923667" lon="12.8692117"><ele>502.0</ele><time>2026-04-18T09:31:39.05Z</time></trkpt><trkpt lat="43.1925183" lon="12.8692333"><ele>501.0</ele><time>2026-04-18T09:31:40.049Z</time></trkpt><trkpt lat="43.1926633" lon="12.86924"><ele>501.0</ele><time>2026-04-18T09:31:41.05Z</time></trkpt><trkpt lat="43.19282" lon="12.8692383"><ele>501.0</ele><time>2026-04-18T09:31:42.049Z</time></trkpt><trkpt lat="43.1929817" lon="12.8692317"><ele>501.0</ele><time>2026-04-18T09:31:43.049Z</time></trkpt><trkpt lat="43.1931367" lon="12.8692267"><ele>500.66666666666663</ele><time>2026-04-18T09:31:44.049Z</time></trkpt><trkpt lat="43.1932933" lon="12.86922"><ele>500.3333333333333</ele><time>2026-04-18T09:31:45.049Z</time></trkpt><trkpt lat="43.1934517" lon="12.8692117"><ele>500.0</ele><time>2026-04-18T09:31:46.05Z</time></trkpt><trkpt lat="43.1936033" lon="12.8691917"><ele>500.0</ele><time>2026-04-18T09:31:47.049Z</time></trkpt><trkpt lat="43.193755" lon="12.86916"><ele>500.0</ele><time>2026-04-18T09:31:48.049Z</time></trkpt><trkpt lat="43.19391" lon="12.869135"><ele>500.0</ele><time>2026-04-18T09:31:49.05Z</time></trkpt><trkpt lat="43.1940633" lon="12.8691117"><ele>500.66666666666663</ele><time>2026-04-18T09:31:50.049Z</time></trkpt><trkpt lat="43.19422" lon="12.8690967"><ele>501.33333333333337</ele><time>2026-04-18T09:31:51.049Z</time></trkpt><trkpt lat="43.19437" lon="12.8690983"><ele>502.0</ele><time>2026-04-18T09:31:52.049Z</time></trkpt><trkpt lat="43.1945267" lon="12.8690917"><ele>502.0</ele><time>2026-04-18T09:31:53.05Z</time></trkpt><trkpt lat="43.194675" lon="12.869085"><ele>502.0</ele><time>2026-04-18T09:31:54.05Z</time></trkpt><trkpt lat="43.194825" lon="12.8690667"><ele>502.0</ele><time>2026-04-18T09:31:55.049Z</time></trkpt><trkpt lat="43.1949733" lon="12.8690567"><ele>502.0</ele><time>2026-04-18T09:31:56.05Z</time></trkpt><trkpt lat="43.1951267" lon="12.86902"><ele>503.0</ele><time>2026-04-18T09:31:57.049Z</time></trkpt><trkpt lat="43.195285" lon="12.8689633"><ele>504.0</ele><time>2026-04-18T09:31:58.05Z</time></trkpt><trkpt lat="43.1954417" lon="12.8689017"><ele>505.0</ele><time>2026-04-18T09:31:59.049Z</time></trkpt><trkpt lat="43.1956017" lon="12.868835"><ele>507.0</ele><time>2026-04-18T09:32:00.05Z</time></trkpt><trkpt lat="43.19577" lon="12.8687517"><ele>509.0</ele><time>2026-04-18T09:32:01.05Z</time></trkpt><trkpt lat="43.195945" lon="12.8686767"><ele>511.0</ele><time>2026-04-18T09:32:02.049Z</time></trkpt><trkpt lat="43.1961317" lon="12.8686067"><ele>511.0</ele><time>2026-04-18T09:32:03.049Z</time></trkpt><trkpt lat="43.196305" lon="12.8685283"><ele>511.0</ele><time>2026-04-18T09:32:04.049Z</time></trkpt><trkpt lat="43.1964817" lon="12.8684617"><ele>511.0</ele><time>2026-04-18T09:32:05.049Z</time></trkpt><trkpt lat="43.1966567" lon="12.868385"><ele>508.33333333333337</ele><time>2026-04-18T09:32:06.049Z</time></trkpt><trkpt lat="43.1968333" lon="12.8683067"><ele>505.66666666666663</ele><time>2026-04-18T09:32:07.049Z</time></trkpt><trkpt lat="43.1970133" lon="12.8682283"><ele>503.0</ele><time>2026-04-18T09:32:08.049Z</time></trkpt><trkpt lat="43.1971917" lon="12.8681617"><ele>505.66666666666663</ele><time>2026-04-18T09:32:09.049Z</time></trkpt><trkpt lat="43.1973617" lon="12.8680967"><ele>508.33333333333337</ele><time>2026-04-18T09:32:10.049Z</time></trkpt><trkpt lat="43.19753" lon="12.868035"><ele>511.0</ele><time>2026-04-18T09:32:11.05Z</time></trkpt><trkpt lat="43.1976967" lon="12.86797"><ele>511.0</ele><time>2026-04-18T09:32:12.05Z</time></trkpt><trkpt lat="43.1978633" lon="12.867915"><ele>511.0</ele><time>2026-04-18T09:32:13.049Z</time></trkpt><trkpt lat="43.198035" lon="12.8678517"><ele>511.0</ele><time>2026-04-18T09:32:14.049Z</time></trkpt><trkpt lat="43.1982" lon="12.86779"><ele>514.0</ele><time>2026-04-18T09:32:15.049Z</time></trkpt><trkpt lat="43.1983733" lon="12.8677283"><ele>517.0</ele><time>2026-04-18T09:32:16.049Z</time></trkpt><trkpt lat="43.1985483" lon="12.8676667"><ele>520.0</ele><time>2026-04-18T09:32:17.049Z</time></trkpt><trkpt lat="43.19873" lon="12.8676"><ele>515.6666666666667</ele><time>2026-04-18T09:32:18.05Z</time></trkpt><trkpt lat="43.19891" lon="12.867545"><ele>511.33333333333337</ele><time>2026-04-18T09:32:19.05Z</time></trkpt><trkpt lat="43.1990867" lon="12.8674833"><ele>507.0</ele><time>2026-04-18T09:32:20.049Z</time></trkpt><trkpt lat="43.1992567" lon="12.8674283"><ele>507.0</ele><time>2026-04-18T09:32:21.049Z</time></trkpt><trkpt lat="43.1994167" lon="12.8673817"><ele>507.0</ele><time>2026-04-18T09:32:22.049Z</time></trkpt><trkpt lat="43.199575" lon="12.86732"><ele>507.0</ele><time>2026-04-18T09:32:23.05Z</time></trkpt><trkpt lat="43.1997283" lon="12.8672167"><ele>510.0</ele><time>2026-04-18T09:32:24.049Z</time></trkpt><trkpt lat="43.19986" lon="12.8670717"><ele>513.0</ele><time>2026-04-18T09:32:25.049Z</time></trkpt><trkpt lat="43.2" lon="12.866925"><ele>516.0</ele><time>2026-04-18T09:32:26.049Z</time></trkpt><trkpt lat="43.2001333" lon="12.8668167"><ele>512.75</ele><time>2026-04-18T09:32:27.05Z</time></trkpt><trkpt lat="43.2002533" lon="12.8667233"><ele>509.5</ele><time>2026-04-18T09:32:28.05Z</time></trkpt><trkpt lat="43.2003767" lon="12.8666417"><ele>506.25</ele><time>2026-04-18T09:32:29.049Z</time></trkpt><trkpt lat="43.2005017" lon="12.8665783"><ele>503.0</ele><time>2026-04-18T09:32:30.05Z</time></trkpt><trkpt lat="43.2006317" lon="12.8665267"><ele>504.0</ele><time>2026-04-18T09:32:31.049Z</time></trkpt><trkpt lat="43.200775" lon="12.8664867"><ele>505.0</ele><time>2026-04-18T09:32:32.05Z</time></trkpt><trkpt lat="43.2009283" lon="12.8664467"><ele>506.0</ele><time>2026-04-18T09:32:33.049Z</time></trkpt><trkpt lat="43.2010867" lon="12.8664033"><ele>506.0</ele><time>2026-04-18T09:32:34.049Z</time></trkpt><trkpt lat="43.2012467" lon="12.86636"><ele>506.0</ele><time>2026-04-18T09:32:35.049Z</time></trkpt><trkpt lat="43.2014083" lon="12.8663183"><ele>506.0</ele><time>2026-04-18T09:32:36.049Z</time></trkpt><trkpt lat="43.20158" lon="12.866265"><ele>508.66666666666663</ele><time>2026-04-18T09:32:37.049Z</time></trkpt><trkpt lat="43.2017583" lon="12.86621"><ele>511.33333333333337</ele><time>2026-04-18T09:32:38.05Z</time></trkpt><trkpt lat="43.20194" lon="12.86615"><ele>514.0</ele><time>2026-04-18T09:32:39.049Z</time></trkpt><trkpt lat="43.2021133" lon="12.8660983"><ele>514.0</ele><time>2026-04-18T09:32:40.049Z</time></trkpt><trkpt lat="43.2022783" lon="12.8660517"><ele>514.0</ele><time>2026-04-18T09:32:41.048Z</time></trkpt><trkpt lat="43.2024317" lon="12.866"><ele>514.0</ele><time>2026-04-18T09:32:42.048Z</time></trkpt><trkpt lat="43.202575" lon="12.8659517"><ele>512.5</ele><time>2026-04-18T09:32:43.048Z</time></trkpt><trkpt lat="43.2027117" lon="12.86591"><ele>511.0</ele><time>2026-04-18T09:32:44.048Z</time></trkpt><trkpt lat="43.202835" lon="12.8658733"><ele>509.5</ele><time>2026-04-18T09:32:45.049Z</time></trkpt><trkpt lat="43.2029533" lon="12.865835"><ele>508.0</ele><time>2026-04-18T09:32:46.048Z</time></trkpt><trkpt lat="43.2030583" lon="12.865795"><ele>508.0</ele><time>2026-04-18T09:32:47.048Z</time></trkpt><trkpt lat="43.2031633" lon="12.8657567"><ele>507.99999999999994</ele><time>2026-04-18T09:32:48.048Z</time></trkpt><trkpt lat="43.20326" lon="12.8657233"><ele>507.99999999999994</ele><time>2026-04-18T09:32:49.048Z</time></trkpt><trkpt lat="43.2033367" lon="12.8656867"><ele>508.0</ele><time>2026-04-18T09:32:50.049Z</time></trkpt><trkpt lat="43.203445" lon="12.8657033"><ele>508.0</ele><time>2026-04-18T09:32:52.048Z</time></trkpt><trkpt lat="43.2035133" lon="12.8658033"><ele>510.4</ele><time>2026-04-18T09:32:54.048Z</time></trkpt><trkpt lat="43.2035167" lon="12.86598"><ele>512.8</ele><time>2026-04-18T09:32:56.049Z</time></trkpt><trkpt lat="43.20351" lon="12.866095"><ele>515.2</ele><time>2026-04-18T09:32:57.048Z</time></trkpt><trkpt lat="43.203505" lon="12.86622"><ele>517.6</ele><time>2026-04-18T09:32:58.049Z</time></trkpt><trkpt lat="43.2035067" lon="12.866355"><ele>520.0</ele><time>2026-04-18T09:32:59.049Z</time></trkpt><trkpt lat="43.20351" lon="12.8664883"><ele>520.0</ele><time>2026-04-18T09:33:00.049Z</time></trkpt><trkpt lat="43.2035133" lon="12.8665917"><ele>520.0</ele><time>2026-04-18T09:33:01.048Z</time></trkpt><trkpt lat="43.203515" lon="12.8666833"><ele>520.0</ele><time>2026-04-18T09:33:02.048Z</time></trkpt><trkpt lat="43.2035517" lon="12.8668117"><ele>520.0</ele><time>2026-04-18T09:33:04.048Z</time></trkpt><trkpt lat="43.2036583" lon="12.86686"><ele>520.0</ele><time>2026-04-18T09:33:06.049Z</time></trkpt><trkpt lat="43.20374" lon="12.8668517"><ele>520.0</ele><time>2026-04-18T09:33:07.048Z</time></trkpt><trkpt lat="43.2038317" lon="12.8667967"><ele>520.0</ele><time>2026-04-18T09:33:08.048Z</time></trkpt><trkpt lat="43.20393" lon="12.8667383"><ele>520.0</ele><time>2026-04-18T09:33:09.048Z</time></trkpt><trkpt lat="43.2040333" lon="12.8666767"><ele>520.0</ele><time>2026-04-18T09:33:10.048Z</time></trkpt><trkpt lat="43.2041367" lon="12.866625"><ele>520.0</ele><time>2026-04-18T09:33:11.048Z</time></trkpt><trkpt lat="43.2042433" lon="12.8665783"><ele>520.0</ele><time>2026-04-18T09:33:12.048Z</time></trkpt><trkpt lat="43.2043483" lon="12.866555"><ele>520.3333333333334</ele><time>2026-04-18T09:33:13.049Z</time></trkpt><trkpt lat="43.2044433" lon="12.8665667"><ele>520.6666666666667</ele><time>2026-04-18T09:33:14.049Z</time></trkpt><trkpt lat="43.2045317" lon="12.866595"><ele>521.0</ele><time>2026-04-18T09:33:15.048Z</time></trkpt><trkpt lat="43.2046067" lon="12.8666433"><ele>521.3333333333334</ele><time>2026-04-18T09:33:16.049Z</time></trkpt><trkpt lat="43.2046767" lon="12.8667033"><ele>521.6666666666666</ele><time>2026-04-18T09:33:17.048Z</time></trkpt><trkpt lat="43.2047433" lon="12.86678"><ele>522.0</ele><time>2026-04-18T09:33:18.048Z</time></trkpt><trkpt lat="43.2048217" lon="12.8668633"><ele>525.2</ele><time>2026-04-18T09:33:19.048Z</time></trkpt><trkpt lat="43.204905" lon="12.8669467"><ele>528.4000000000001</ele><time>2026-04-18T09:33:20.048Z</time></trkpt><trkpt lat="43.2049833" lon="12.8670067"><ele>531.5999999999999</ele><time>2026-04-18T09:33:21.048Z</time></trkpt><trkpt lat="43.205065" lon="12.8670533"><ele>534.8</ele><time>2026-04-18T09:33:22.048Z</time></trkpt><trkpt lat="43.20515" lon="12.8670817"><ele>538.0</ele><time>2026-04-18T09:33:23.049Z</time></trkpt><trkpt lat="43.2052433" lon="12.8670917"><ele>538.0</ele><time>2026-04-18T09:33:24.048Z</time></trkpt><trkpt lat="43.2053417" lon="12.867075"><ele>538.0</ele><time>2026-04-18T09:33:25.048Z</time></trkpt><trkpt lat="43.2054333" lon="12.8670317"><ele>538.0</ele><time>2026-04-18T09:33:26.048Z</time></trkpt><trkpt lat="43.20552" lon="12.8669767"><ele>538.0</ele><time>2026-04-18T09:33:27.049Z</time></trkpt><trkpt lat="43.205605" lon="12.866925"><ele>538.0</ele><time>2026-04-18T09:33:28.048Z</time></trkpt><trkpt lat="43.2056883" lon="12.8668883"><ele>537.3333333333334</ele><time>2026-04-18T09:33:29.048Z</time></trkpt><trkpt lat="43.2057767" lon="12.8668617"><ele>536.6666666666667</ele><time>2026-04-18T09:33:30.048Z</time></trkpt><trkpt lat="43.2058667" lon="12.86685"><ele>536.0</ele><time>2026-04-18T09:33:31.049Z</time></trkpt><trkpt lat="43.2059567" lon="12.8668417"><ele>535.3333333333334</ele><time>2026-04-18T09:33:32.048Z</time></trkpt><trkpt lat="43.2060367" lon="12.8668417"><ele>534.6666666666666</ele><time>2026-04-18T09:33:33.048Z</time></trkpt><trkpt lat="43.206105" lon="12.8668617"><ele>534.0</ele><time>2026-04-18T09:33:34.048Z</time></trkpt><trkpt lat="43.2061983" lon="12.8669067"><ele>534.0</ele><time>2026-04-18T09:33:36.048Z</time></trkpt><trkpt lat="43.20626" lon="12.8669917"><ele>534.0</ele><time>2026-04-18T09:33:38.049Z</time></trkpt><trkpt lat="43.20635" lon="12.867065"><ele>534.0</ele><time>2026-04-18T09:33:40.048Z</time></trkpt><trkpt lat="43.20641" lon="12.8670933"><ele>534.0</ele><time>2026-04-18T09:33:41.048Z</time></trkpt><trkpt lat="43.2064683" lon="12.8671317"><ele>534.0</ele><time>2026-04-18T09:33:42.049Z</time></trkpt><trkpt lat="43.2065833" lon="12.86719"><ele>534.0</ele><time>2026-04-18T09:33:44.048Z</time></trkpt><trkpt lat="43.2066633" lon="12.8671983"><ele>535.0</ele><time>2026-04-18T09:33:46.049Z</time></trkpt><trkpt lat="43.2067117" lon="12.867265"><ele>536.0</ele><time>2026-04-18T09:33:48.049Z</time></trkpt><trkpt lat="43.206765" lon="12.8674317"><ele>537.0</ele><time>2026-04-18T09:33:50.049Z</time></trkpt><trkpt lat="43.2067817" lon="12.8675283"><ele>538.0</ele><time>2026-04-18T09:33:51.048Z</time></trkpt><trkpt lat="43.2068" lon="12.8676283"><ele>539.0</ele><time>2026-04-18T09:33:52.048Z</time></trkpt><trkpt lat="43.20681" lon="12.867745"><ele>540.0</ele><time>2026-04-18T09:33:53.048Z</time></trkpt><trkpt lat="43.2068233" lon="12.8678517"><ele>540.6666666666666</ele><time>2026-04-18T09:33:54.048Z</time></trkpt><trkpt lat="43.2068333" lon="12.8679533"><ele>541.3333333333334</ele><time>2026-04-18T09:33:55.048Z</time></trkpt><trkpt lat="43.20684" lon="12.8680433"><ele>542.0</ele><time>2026-04-18T09:33:56.048Z</time></trkpt><trkpt lat="43.2068467" lon="12.8681733"><ele>542.6666666666667</ele><time>2026-04-18T09:33:58.048Z</time></trkpt><trkpt lat="43.206835" lon="12.8682917"><ele>543.3333333333334</ele><time>2026-04-18T09:34:00.048Z</time></trkpt><trkpt lat="43.20683" lon="12.868425"><ele>544.0</ele><time>2026-04-18T09:34:02.048Z</time></trkpt><trkpt lat="43.206825" lon="12.86857"><ele>545.8333333333334</ele><time>2026-04-18T09:34:04.048Z</time></trkpt><trkpt lat="43.206825" lon="12.8687183"><ele>547.6666666666667</ele><time>2026-04-18T09:34:06.049Z</time></trkpt><trkpt lat="43.20683" lon="12.868865"><ele>549.5</ele><time>2026-04-18T09:34:08.048Z</time></trkpt><trkpt lat="43.20684" lon="12.8689967"><ele>551.3333333333334</ele><time>2026-04-18T09:34:10.049Z</time></trkpt><trkpt lat="43.2068417" lon="12.8690933"><ele>553.1666666666666</ele><time>2026-04-18T09:34:12.048Z</time></trkpt><trkpt lat="43.2068583" lon="12.8691783"><ele>555.0</ele><time>2026-04-18T09:34:15.049Z</time></trkpt><trkpt lat="43.206955" lon="12.86925"><ele>558.2</ele><time>2026-04-18T09:34:18.048Z</time></trkpt><trkpt lat="43.20707" lon="12.8692767"><ele>561.4</ele><time>2026-04-18T09:34:20.048Z</time></trkpt><trkpt lat="43.207135" lon="12.8692817"><ele>564.6</ele><time>2026-04-18T09:34:21.048Z</time></trkpt><trkpt lat="43.20724" lon="12.8693083"><ele>567.8</ele><time>2026-04-18T09:34:23.049Z</time></trkpt><trkpt lat="43.2073417" lon="12.8693617"><ele>571.0</ele><time>2026-04-18T09:34:25.048Z</time></trkpt><trkpt lat="43.2074467" lon="12.8694133"><ele>573.4</ele><time>2026-04-18T09:34:27.048Z</time></trkpt><trkpt lat="43.2075583" lon="12.8694717"><ele>575.8</ele><time>2026-04-18T09:34:29.048Z</time></trkpt><trkpt lat="43.20767" lon="12.86951"><ele>578.1999999999999</ele><time>2026-04-18T09:34:31.048Z</time></trkpt><trkpt lat="43.20778" lon="12.8695483"><ele>580.6</ele><time>2026-04-18T09:34:33.049Z</time></trkpt><trkpt lat="43.20787" lon="12.8695883"><ele>583.0</ele><time>2026-04-18T09:34:35.048Z</time></trkpt><trkpt lat="43.2079417" lon="12.8696217"><ele>583.0</ele><time>2026-04-18T09:34:37.048Z</time></trkpt><trkpt lat="43.208005" lon="12.86965"><ele>583.0</ele><time>2026-04-18T09:34:39.048Z</time></trkpt><trkpt lat="43.2080533" lon="12.869715"><ele>583.0</ele><time>2026-04-18T09:34:41.048Z</time></trkpt><trkpt lat="43.20809" lon="12.8698183"><ele>583.0</ele><time>2026-04-18T09:34:43.048Z</time></trkpt><trkpt lat="43.2081333" lon="12.8699467"><ele>583.0</ele><time>2026-04-18T09:34:45.048Z</time></trkpt><trkpt lat="43.2081833" lon="12.8700933"><ele>583.0</ele><time>2026-04-18T09:34:47.049Z</time></trkpt><trkpt lat="43.2082267" lon="12.8701967"><ele>586.0</ele><time>2026-04-18T09:34:49.049Z</time></trkpt><trkpt lat="43.2082967" lon="12.87026"><ele>589.0</ele><time>2026-04-18T09:34:52.048Z</time></trkpt><trkpt lat="43.20836" lon="12.870275"><ele>592.0</ele><time>2026-04-18T09:34:54.048Z</time></trkpt><trkpt lat="43.2084267" lon="12.8702933"><ele>595.0</ele><time>2026-04-18T09:34:56.048Z</time></trkpt><trkpt lat="43.2084983" lon="12.8703117"><ele>598.0</ele><time>2026-04-18T09:34:58.048Z</time></trkpt><trkpt lat="43.2085817" lon="12.8703067"><ele>601.0</ele><time>2026-04-18T09:35:01.048Z</time></trkpt><trkpt lat="43.208675" lon="12.8702417"><ele>601.0</ele><time>2026-04-18T09:35:03.048Z</time></trkpt><trkpt lat="43.2087683" lon="12.8702083"><ele>601.0</ele><time>2026-04-18T09:35:05.049Z</time></trkpt><trkpt lat="43.2088533" lon="12.87019"><ele>601.0</ele><time>2026-04-18T09:35:07.048Z</time></trkpt><trkpt lat="43.208945" lon="12.8702"><ele>601.0</ele><time>2026-04-18T09:35:09.048Z</time></trkpt><trkpt lat="43.2090217" lon="12.8702067"><ele>601.0</ele><time>2026-04-18T09:35:11.049Z</time></trkpt><trkpt lat="43.2091" lon="12.870235"><ele>601.0</ele><time>2026-04-18T09:35:15.048Z</time></trkpt><trkpt lat="43.2091767" lon="12.8702617"><ele>601.0</ele><time>2026-04-18T09:35:18.048Z</time></trkpt><trkpt lat="43.2091083" lon="12.8702867"><ele>601.0</ele><time>2026-04-18T09:35:45.048Z</time></trkpt><trkpt lat="43.2090183" lon="12.8702817"><ele>601.0</ele><time>2026-04-18T09:35:49.048Z</time></trkpt><trkpt lat="43.2089333" lon="12.8702483"><ele>601.0</ele><time>2026-04-18T09:35:52.048Z</time></trkpt><trkpt lat="43.20884" lon="12.8702283"><ele>601.0</ele><time>2026-04-18T09:35:55.049Z</time></trkpt><trkpt lat="43.208755" lon="12.8702483"><ele>601.0</ele><time>2026-04-18T09:35:58.048Z</time></trkpt><trkpt lat="43.2086883" lon="12.8702883"><ele>601.0</ele><time>2026-04-18T09:36:00.048Z</time></trkpt><trkpt lat="43.2086217" lon="12.8703417"><ele>601.0</ele><time>2026-04-18T09:36:02.049Z</time></trkpt><trkpt lat="43.2085383" lon="12.8703867"><ele>601.0</ele><time>2026-04-18T09:36:05.048Z</time></trkpt><trkpt lat="43.20847" lon="12.870365"><ele>601.0</ele><time>2026-04-18T09:36:07.048Z</time></trkpt><trkpt lat="43.2084083" lon="12.8703417"><ele>601.0</ele><time>2026-04-18T09:36:09.048Z</time></trkpt><trkpt lat="43.20833" lon="12.870305"><ele>601.0</ele><time>2026-04-18T09:36:12.048Z</time></trkpt><trkpt lat="43.2082233" lon="12.87024"><ele>601.0</ele><time>2026-04-18T09:38:01.047Z</time></trkpt><trkpt lat="43.208185" lon="12.8701217"><ele>601.0</ele><time>2026-04-18T09:38:04.047Z</time></trkpt><trkpt lat="43.20815" lon="12.87001"><ele>601.0</ele><time>2026-04-18T09:38:06.047Z</time></trkpt><trkpt lat="43.2081083" lon="12.869935"><ele>601.0</ele><time>2026-04-18T09:38:08.047Z</time></trkpt><trkpt lat="43.2080733" lon="12.8698483"><ele>601.0</ele><time>2026-04-18T09:38:10.047Z</time></trkpt><trkpt lat="43.208035" lon="12.8697567"><ele>601.0</ele><time>2026-04-18T09:38:12.047Z</time></trkpt><trkpt lat="43.2079833" lon="12.8696783"><ele>598.0</ele><time>2026-04-18T09:38:15.047Z</time></trkpt><trkpt lat="43.2079167" lon="12.8696267"><ele>595.0</ele><time>2026-04-18T09:38:18.047Z</time></trkpt><trkpt lat="43.2078517" lon="12.8696"><ele>592.0</ele><time>2026-04-18T09:38:20.047Z</time></trkpt><trkpt lat="43.207785" lon="12.8695683"><ele>589.0</ele><time>2026-04-18T09:38:22.047Z</time></trkpt><trkpt lat="43.207715" lon="12.86954"><ele>586.0</ele><time>2026-04-18T09:38:24.047Z</time></trkpt><trkpt lat="43.2076317" lon="12.8695133"><ele>583.0</ele><time>2026-04-18T09:38:26.047Z</time></trkpt><trkpt lat="43.2075433" lon="12.8694767"><ele>583.0</ele><time>2026-04-18T09:38:28.048Z</time></trkpt><trkpt lat="43.2074517" lon="12.8694383"><ele>583.0</ele><time>2026-04-18T09:38:30.047Z</time></trkpt><trkpt lat="43.207365" lon="12.869395"><ele>583.0</ele><time>2026-04-18T09:38:32.048Z</time></trkpt><trkpt lat="43.207285" lon="12.869345"><ele>583.0</ele><time>2026-04-18T09:38:34.048Z</time></trkpt><trkpt lat="43.2071983" lon="12.8693183"><ele>583.0</ele><time>2026-04-18T09:38:36.047Z</time></trkpt><trkpt lat="43.2071133" lon="12.8693033"><ele>581.2857142857143</ele><time>2026-04-18T09:38:38.048Z</time></trkpt><trkpt lat="43.2070217" lon="12.8692983"><ele>579.5714285714286</ele><time>2026-04-18T09:38:40.047Z</time></trkpt><trkpt lat="43.2069383" lon="12.8692767"><ele>577.8571428571429</ele><time>2026-04-18T09:38:42.048Z</time></trkpt><trkpt lat="43.2068733" lon="12.86924"><ele>576.1428571428571</ele><time>2026-04-18T09:38:44.048Z</time></trkpt><trkpt lat="43.2068383" lon="12.8691667"><ele>574.4285714285714</ele><time>2026-04-18T09:38:47.048Z</time></trkpt><trkpt lat="43.206825" lon="12.8690733"><ele>572.7142857142858</ele><time>2026-04-18T09:38:52.047Z</time></trkpt><trkpt lat="43.2068317" lon="12.8689833"><ele>571.0</ele><time>2026-04-18T09:38:54.048Z</time></trkpt><trkpt lat="43.2068267" lon="12.8688767"><ele>568.7142857142858</ele><time>2026-04-18T09:38:57.047Z</time></trkpt><trkpt lat="43.206825" lon="12.8687833"><ele>566.4285714285714</ele><time>2026-04-18T09:38:59.047Z</time></trkpt><trkpt lat="43.206825" lon="12.8686917"><ele>564.1428571428571</ele><time>2026-04-18T09:39:11.047Z</time></trkpt><trkpt lat="43.2068083" lon="12.8686083"><ele>561.8571428571429</ele><time>2026-04-18T09:39:17.047Z</time></trkpt><trkpt lat="43.2068" lon="12.8685133"><ele>559.5714285714286</ele><time>2026-04-18T09:39:19.047Z</time></trkpt><trkpt lat="43.2068" lon="12.86841"><ele>557.2857142857143</ele><time>2026-04-18T09:39:21.047Z</time></trkpt><trkpt lat="43.2068117" lon="12.86831"><ele>555.0</ele><time>2026-04-18T09:39:23.047Z</time></trkpt><trkpt lat="43.2068167" lon="12.868205"><ele>552.8</ele><time>2026-04-18T09:39:25.047Z</time></trkpt><trkpt lat="43.206815" lon="12.8680917"><ele>550.6</ele><time>2026-04-18T09:39:27.047Z</time></trkpt><trkpt lat="43.2068033" lon="12.8679683"><ele>548.4</ele><time>2026-04-18T09:39:29.047Z</time></trkpt><trkpt lat="43.2067817" lon="12.8677817"><ele>546.2</ele><time>2026-04-18T09:39:31.047Z</time></trkpt><trkpt lat="43.2067733" lon="12.867615"><ele>544.0</ele><time>2026-04-18T09:39:33.047Z</time></trkpt><trkpt lat="43.2067483" lon="12.8674667"><ele>543.2</ele><time>2026-04-18T09:39:35.047Z</time></trkpt><trkpt lat="43.2067033" lon="12.86734"><ele>542.4</ele><time>2026-04-18T09:39:37.047Z</time></trkpt><trkpt lat="43.20665" lon="12.8672567"><ele>541.6</ele><time>2026-04-18T09:39:40.048Z</time></trkpt><trkpt lat="43.20658" lon="12.8672233"><ele>540.8</ele><time>2026-04-18T09:39:42.047Z</time></trkpt><trkpt lat="43.2064817" lon="12.86718"><ele>540.0</ele><time>2026-04-18T09:39:44.047Z</time></trkpt><trkpt lat="43.2063817" lon="12.8671083"><ele>538.8</ele><time>2026-04-18T09:39:46.047Z</time></trkpt><trkpt lat="43.2062917" lon="12.8670417"><ele>537.6</ele><time>2026-04-18T09:39:48.047Z</time></trkpt><trkpt lat="43.206275" lon="12.8669367"><ele>536.4</ele><time>2026-04-18T09:39:50.047Z</time></trkpt><trkpt lat="43.20634" lon="12.8668333"><ele>535.2</ele><time>2026-04-18T09:39:52.047Z</time></trkpt><trkpt lat="43.2064233" lon="12.8667483"><ele>534.0</ele><time>2026-04-18T09:39:54.047Z</time></trkpt><trkpt lat="43.20649" lon="12.86669"><ele>533.6666666666666</ele><time>2026-04-18T09:39:55.047Z</time></trkpt><trkpt lat="43.2065567" lon="12.8666383"><ele>533.3333333333334</ele><time>2026-04-18T09:39:56.047Z</time></trkpt><trkpt lat="43.206625" lon="12.866585"><ele>533.0</ele><time>2026-04-18T09:39:57.047Z</time></trkpt><trkpt lat="43.2066933" lon="12.8665317"><ele>532.6666666666667</ele><time>2026-04-18T09:39:58.047Z</time></trkpt><trkpt lat="43.20677" lon="12.8664817"><ele>532.3333333333334</ele><time>2026-04-18T09:39:59.047Z</time></trkpt><trkpt lat="43.2068583" lon="12.866425"><ele>532.0</ele><time>2026-04-18T09:40:00.047Z</time></trkpt><trkpt lat="43.2069417" lon="12.8663567"><ele>532.0</ele><time>2026-04-18T09:40:01.047Z</time></trkpt><trkpt lat="43.2070267" lon="12.866295"><ele>532.0</ele><time>2026-04-18T09:40:02.047Z</time></trkpt><trkpt lat="43.2071133" lon="12.86623"><ele>532.0</ele><time>2026-04-18T09:40:03.048Z</time></trkpt><trkpt lat="43.2071983" lon="12.8661633"><ele>532.0</ele><time>2026-04-18T09:40:04.047Z</time></trkpt><trkpt lat="43.20728" lon="12.8660967"><ele>532.0</ele><time>2026-04-18T09:40:05.047Z</time></trkpt><trkpt lat="43.2073667" lon="12.8660383"><ele>532.2</ele><time>2026-04-18T09:40:06.047Z</time></trkpt><trkpt lat="43.2074633" lon="12.865995"><ele>532.4000000000001</ele><time>2026-04-18T09:40:07.047Z</time></trkpt><trkpt lat="43.2075567" lon="12.8659517"><ele>532.5999999999999</ele><time>2026-04-18T09:40:08.048Z</time></trkpt><trkpt lat="43.207645" lon="12.8659333"><ele>532.8</ele><time>2026-04-18T09:40:09.047Z</time></trkpt><trkpt lat="43.2077317" lon="12.865925"><ele>533.0</ele><time>2026-04-18T09:40:10.047Z</time></trkpt><trkpt lat="43.2078117" lon="12.865935"><ele>533.0</ele><time>2026-04-18T09:40:11.047Z</time></trkpt><trkpt lat="43.20789" lon="12.865955"><ele>533.0</ele><time>2026-04-18T09:40:12.047Z</time></trkpt><trkpt lat="43.2079783" lon="12.86598"><ele>533.0</ele><time>2026-04-18T09:40:13.047Z</time></trkpt><trkpt lat="43.2080667" lon="12.866"><ele>533.0</ele><time>2026-04-18T09:40:14.048Z</time></trkpt><trkpt lat="43.20816" lon="12.8660167"><ele>533.0</ele><time>2026-04-18T09:40:15.047Z</time></trkpt><trkpt lat="43.2082517" lon="12.8660317"><ele>533.0</ele><time>2026-04-18T09:40:16.047Z</time></trkpt><trkpt lat="43.208345" lon="12.8660483"><ele>532.8333333333333</ele><time>2026-04-18T09:40:17.047Z</time></trkpt><trkpt lat="43.2084317" lon="12.8660617"><ele>532.6666666666666</ele><time>2026-04-18T09:40:18.047Z</time></trkpt><trkpt lat="43.2085183" lon="12.8660783"><ele>532.5</ele><time>2026-04-18T09:40:19.047Z</time></trkpt><trkpt lat="43.2086067" lon="12.8660917"><ele>532.3333333333334</ele><time>2026-04-18T09:40:20.047Z</time></trkpt><trkpt lat="43.2086867" lon="12.86612"><ele>532.1666666666667</ele><time>2026-04-18T09:40:21.047Z</time></trkpt><trkpt lat="43.208765" lon="12.8661417"><ele>532.0</ele><time>2026-04-18T09:40:22.047Z</time></trkpt><trkpt lat="43.2088367" lon="12.86616"><ele>532.0</ele><time>2026-04-18T09:40:23.047Z</time></trkpt><trkpt lat="43.208955" lon="12.8661483"><ele>532.0</ele><time>2026-04-18T09:40:25.047Z</time></trkpt><trkpt lat="43.209015" lon="12.86612"><ele>532.0</ele><time>2026-04-18T09:40:26.047Z</time></trkpt><trkpt lat="43.2090833" lon="12.8660867"><ele>532.0</ele><time>2026-04-18T09:40:27.047Z</time></trkpt><trkpt lat="43.2091567" lon="12.8660517"><ele>532.0</ele><time>2026-04-18T09:40:28.047Z</time></trkpt><trkpt lat="43.209235" lon="12.8660233"><ele>532.0</ele><time>2026-04-18T09:40:29.048Z</time></trkpt><trkpt lat="43.20932" lon="12.8659967"><ele>532.0</ele><time>2026-04-18T09:40:30.047Z</time></trkpt><trkpt lat="43.2094133" lon="12.86598"><ele>532.0</ele><time>2026-04-18T09:40:31.047Z</time></trkpt><trkpt lat="43.2095117" lon="12.8659667"><ele>532.0</ele><time>2026-04-18T09:40:32.047Z</time></trkpt><trkpt lat="43.20961" lon="12.8659567"><ele>532.0</ele><time>2026-04-18T09:40:33.047Z</time></trkpt><trkpt lat="43.20971" lon="12.8659483"><ele>532.0</ele><time>2026-04-18T09:40:34.047Z</time></trkpt><trkpt lat="43.20981" lon="12.8659383"><ele>532.8333333333334</ele><time>2026-04-18T09:40:35.047Z</time></trkpt><trkpt lat="43.2099083" lon="12.8659333"><ele>533.6666666666667</ele><time>2026-04-18T09:40:36.047Z</time></trkpt><trkpt lat="43.2099967" lon="12.8659367"><ele>534.5</ele><time>2026-04-18T09:40:37.048Z</time></trkpt><trkpt lat="43.2100783" lon="12.8659517"><ele>535.3333333333334</ele><time>2026-04-18T09:40:38.048Z</time></trkpt><trkpt lat="43.2101567" lon="12.865995"><ele>536.1666666666666</ele><time>2026-04-18T09:40:39.047Z</time></trkpt><trkpt lat="43.21023" lon="12.8660517"><ele>537.0</ele><time>2026-04-18T09:40:40.048Z</time></trkpt><trkpt lat="43.2103067" lon="12.8661133"><ele>537.8333333333334</ele><time>2026-04-18T09:40:41.047Z</time></trkpt><trkpt lat="43.210385" lon="12.866175"><ele>538.6666666666666</ele><time>2026-04-18T09:40:42.048Z</time></trkpt><trkpt lat="43.2104633" lon="12.86624"><ele>539.5</ele><time>2026-04-18T09:40:43.047Z</time></trkpt><trkpt lat="43.21054" lon="12.866305"><ele>540.3333333333333</ele><time>2026-04-18T09:40:44.047Z</time></trkpt><trkpt lat="43.210615" lon="12.86637"><ele>541.1666666666666</ele><time>2026-04-18T09:40:45.048Z</time></trkpt><trkpt lat="43.2106867" lon="12.86644"><ele>542.0</ele><time>2026-04-18T09:40:46.047Z</time></trkpt><trkpt lat="43.2107567" lon="12.8665217"><ele>543.6</ele><time>2026-04-18T09:40:47.047Z</time></trkpt><trkpt lat="43.210825" lon="12.8666067"><ele>545.2</ele><time>2026-04-18T09:40:48.047Z</time></trkpt><trkpt lat="43.2108967" lon="12.8666967"><ele>546.8</ele><time>2026-04-18T09:40:49.047Z</time></trkpt><trkpt lat="43.2109683" lon="12.86679"><ele>548.4</ele><time>2026-04-18T09:40:50.047Z</time></trkpt><trkpt lat="43.2110417" lon="12.866885"><ele>550.0</ele><time>2026-04-18T09:40:51.047Z</time></trkpt><trkpt lat="43.2111167" lon="12.8669817"><ele>550.4</ele><time>2026-04-18T09:40:52.047Z</time></trkpt><trkpt lat="43.2111967" lon="12.867075"><ele>550.8</ele><time>2026-04-18T09:40:53.047Z</time></trkpt><trkpt lat="43.2112733" lon="12.867175"><ele>551.2</ele><time>2026-04-18T09:40:54.047Z</time></trkpt><trkpt lat="43.2113533" lon="12.8672867"><ele>551.6</ele><time>2026-04-18T09:40:55.047Z</time></trkpt><trkpt lat="43.2114267" lon="12.867395"><ele>552.0</ele><time>2026-04-18T09:40:56.047Z</time></trkpt><trkpt lat="43.2114983" lon="12.8675017"><ele>553.6</ele><time>2026-04-18T09:40:57.047Z</time></trkpt><trkpt lat="43.2115733" lon="12.867605"><ele>555.2</ele><time>2026-04-18T09:40:58.047Z</time></trkpt><trkpt lat="43.2116433" lon="12.867705"><ele>556.8</ele><time>2026-04-18T09:40:59.047Z</time></trkpt><trkpt lat="43.21171" lon="12.8678083"><ele>558.4</ele><time>2026-04-18T09:41:00.047Z</time></trkpt><trkpt lat="43.21178" lon="12.86792"><ele>560.0</ele><time>2026-04-18T09:41:01.047Z</time></trkpt><trkpt lat="43.2118533" lon="12.86803"><ele>561.0</ele><time>2026-04-18T09:41:02.047Z</time></trkpt><trkpt lat="43.2119283" lon="12.8681383"><ele>562.0</ele><time>2026-04-18T09:41:03.047Z</time></trkpt><trkpt lat="43.212" lon="12.8682567"><ele>563.0</ele><time>2026-04-18T09:41:04.047Z</time></trkpt><trkpt lat="43.2120683" lon="12.86837"><ele>564.0</ele><time>2026-04-18T09:41:05.047Z</time></trkpt><trkpt lat="43.212135" lon="12.8684833"><ele>565.0</ele><time>2026-04-18T09:41:06.047Z</time></trkpt><trkpt lat="43.212215" lon="12.86859"><ele>567.6</ele><time>2026-04-18T09:41:07.047Z</time></trkpt><trkpt lat="43.2122933" lon="12.8686967"><ele>570.2</ele><time>2026-04-18T09:41:08.048Z</time></trkpt><trkpt lat="43.212375" lon="12.8688017"><ele>572.8</ele><time>2026-04-18T09:41:09.047Z</time></trkpt><trkpt lat="43.2124533" lon="12.8689083"><ele>575.4</ele><time>2026-04-18T09:41:10.047Z</time></trkpt><trkpt lat="43.2125283" lon="12.8690233"><ele>578.0</ele><time>2026-04-18T09:41:11.047Z</time></trkpt><trkpt lat="43.2126017" lon="12.8691333"><ele>578.1999999999999</ele><time>2026-04-18T09:41:12.047Z</time></trkpt><trkpt lat="43.2126683" lon="12.8692517"><ele>578.4</ele><time>2026-04-18T09:41:13.047Z</time></trkpt><trkpt lat="43.212735" lon="12.8693683"><ele>578.5999999999999</ele><time>2026-04-18T09:41:14.048Z</time></trkpt><trkpt lat="43.2127933" lon="12.86948"><ele>578.8</ele><time>2026-04-18T09:41:15.047Z</time></trkpt><trkpt lat="43.212845" lon="12.8696"><ele>579.0</ele><time>2026-04-18T09:41:16.047Z</time></trkpt><trkpt lat="43.2128933" lon="12.8697117"><ele>581.0</ele><time>2026-04-18T09:41:17.047Z</time></trkpt><trkpt lat="43.21293" lon="12.86982"><ele>583.0</ele><time>2026-04-18T09:41:18.047Z</time></trkpt><trkpt lat="43.212965" lon="12.8699283"><ele>585.0</ele><time>2026-04-18T09:41:19.047Z</time></trkpt><trkpt lat="43.2129817" lon="12.870025"><ele>587.0</ele><time>2026-04-18T09:41:20.048Z</time></trkpt><trkpt lat="43.2129817" lon="12.8701917"><ele>589.0</ele><time>2026-04-18T09:41:22.047Z</time></trkpt><trkpt lat="43.2129633" lon="12.870275"><ele>591.0</ele><time>2026-04-18T09:41:23.047Z</time></trkpt><trkpt lat="43.2129283" lon="12.8703633"><ele>592.0</ele><time>2026-04-18T09:41:24.047Z</time></trkpt><trkpt lat="43.2128817" lon="12.8704533"><ele>593.0</ele><time>2026-04-18T09:41:25.047Z</time></trkpt><trkpt lat="43.2128267" lon="12.87053"><ele>594.0</ele><time>2026-04-18T09:41:26.047Z</time></trkpt><trkpt lat="43.2127683" lon="12.8705967"><ele>595.0</ele><time>2026-04-18T09:41:27.047Z</time></trkpt><trkpt lat="43.212705" lon="12.870645"><ele>596.0</ele><time>2026-04-18T09:41:28.048Z</time></trkpt><trkpt lat="43.2126317" lon="12.8706733"><ele>597.0</ele><time>2026-04-18T09:41:29.047Z</time></trkpt><trkpt lat="43.2125483" lon="12.870695"><ele>597.0</ele><time>2026-04-18T09:41:30.048Z</time></trkpt><trkpt lat="43.2124667" lon="12.870695"><ele>597.0</ele><time>2026-04-18T09:41:31.047Z</time></trkpt><trkpt lat="43.2123733" lon="12.8707033"><ele>597.0</ele><time>2026-04-18T09:41:32.047Z</time></trkpt><trkpt lat="43.2122867" lon="12.8706983"><ele>597.0</ele><time>2026-04-18T09:41:33.048Z</time></trkpt><trkpt lat="43.2121933" lon="12.8706917"><ele>597.0</ele><time>2026-04-18T09:41:34.047Z</time></trkpt><trkpt lat="43.2120967" lon="12.8706867"><ele>599.5</ele><time>2026-04-18T09:41:35.048Z</time></trkpt><trkpt lat="43.2120033" lon="12.8706867"><ele>602.0</ele><time>2026-04-18T09:41:36.047Z</time></trkpt><trkpt lat="43.21192" lon="12.870695"><ele>604.5</ele><time>2026-04-18T09:41:37.047Z</time></trkpt><trkpt lat="43.21184" lon="12.8707067"><ele>607.0</ele><time>2026-04-18T09:41:38.047Z</time></trkpt><trkpt lat="43.2117567" lon="12.8707233"><ele>609.5</ele><time>2026-04-18T09:41:39.047Z</time></trkpt><trkpt lat="43.21167" lon="12.870755"><ele>612.0</ele><time>2026-04-18T09:41:40.047Z</time></trkpt><trkpt lat="43.2115783" lon="12.8708"><ele>611.0</ele><time>2026-04-18T09:41:41.048Z</time></trkpt><trkpt lat="43.2114867" lon="12.87085"><ele>610.0</ele><time>2026-04-18T09:41:42.047Z</time></trkpt><trkpt lat="43.2113917" lon="12.8709083"><ele>609.0</ele><time>2026-04-18T09:41:43.047Z</time></trkpt><trkpt lat="43.2112983" lon="12.8709683"><ele>608.0</ele><time>2026-04-18T09:41:44.047Z</time></trkpt><trkpt lat="43.211205" lon="12.8710283"><ele>607.0</ele><time>2026-04-18T09:41:45.047Z</time></trkpt><trkpt lat="43.211105" lon="12.8710817"><ele>612.4</ele><time>2026-04-18T09:41:46.048Z</time></trkpt><trkpt lat="43.2110067" lon="12.8711367"><ele>617.8000000000001</ele><time>2026-04-18T09:41:47.047Z</time></trkpt><trkpt lat="43.21092" lon="12.8711833"><ele>623.2</ele><time>2026-04-18T09:41:48.048Z</time></trkpt><trkpt lat="43.2108367" lon="12.871235"><ele>628.6</ele><time>2026-04-18T09:41:49.047Z</time></trkpt><trkpt lat="43.2107633" lon="12.8713"><ele>634.0</ele><time>2026-04-18T09:41:50.047Z</time></trkpt><trkpt lat="43.2106967" lon="12.871375"><ele>635.3333333333334</ele><time>2026-04-18T09:41:51.047Z</time></trkpt><trkpt lat="43.210635" lon="12.871465"><ele>636.6666666666667</ele><time>2026-04-18T09:41:52.047Z</time></trkpt><trkpt lat="43.210585" lon="12.871565"><ele>638.0</ele><time>2026-04-18T09:41:53.047Z</time></trkpt><trkpt lat="43.2105383" lon="12.8716617"><ele>639.3333333333334</ele><time>2026-04-18T09:41:54.047Z</time></trkpt><trkpt lat="43.2105017" lon="12.8717633"><ele>640.6666666666666</ele><time>2026-04-18T09:41:55.048Z</time></trkpt><trkpt lat="43.2104633" lon="12.871865"><ele>642.0</ele><time>2026-04-18T09:41:56.047Z</time></trkpt><trkpt lat="43.2104317" lon="12.8719733"><ele>642.0</ele><time>2026-04-18T09:41:57.047Z</time></trkpt><trkpt lat="43.210395" lon="12.8721"><ele>642.0</ele><time>2026-04-18T09:41:58.047Z</time></trkpt><trkpt lat="43.2103633" lon="12.8722267"><ele>642.0</ele><time>2026-04-18T09:41:59.046Z</time></trkpt><trkpt lat="43.21033" lon="12.872355"><ele>642.0</ele><time>2026-04-18T09:42:00.046Z</time></trkpt><trkpt lat="43.2102967" lon="12.8724833"><ele>642.0</ele><time>2026-04-18T09:42:01.046Z</time></trkpt><trkpt lat="43.2102633" lon="12.8726033"><ele>645.8</ele><time>2026-04-18T09:42:02.046Z</time></trkpt><trkpt lat="43.210225" lon="12.8727283"><ele>649.6</ele><time>2026-04-18T09:42:03.046Z</time></trkpt><trkpt lat="43.2101833" lon="12.8728317"><ele>653.4</ele><time>2026-04-18T09:42:04.047Z</time></trkpt><trkpt lat="43.2101433" lon="12.8729083"><ele>657.1999999999999</ele><time>2026-04-18T09:42:05.046Z</time></trkpt><trkpt lat="43.2100517" lon="12.8729833"><ele>661.0</ele><time>2026-04-18T09:42:07.046Z</time></trkpt><trkpt lat="43.2099383" lon="12.8729733"><ele>661.0</ele><time>2026-04-18T09:42:09.046Z</time></trkpt><trkpt lat="43.20987" lon="12.8729283"><ele>661.0</ele><time>2026-04-18T09:42:11.046Z</time></trkpt><trkpt lat="43.209805" lon="12.8728183"><ele>661.0</ele><time>2026-04-18T09:42:13.046Z</time></trkpt><trkpt lat="43.2097517" lon="12.8726483"><ele>661.0</ele><time>2026-04-18T09:42:15.046Z</time></trkpt><trkpt lat="43.20972" lon="12.8725317"><ele>661.0</ele><time>2026-04-18T09:42:16.046Z</time></trkpt><trkpt lat="43.20968" lon="12.8724183"><ele>660.0</ele><time>2026-04-18T09:42:17.046Z</time></trkpt><trkpt lat="43.2096383" lon="12.87233"><ele>659.0</ele><time>2026-04-18T09:42:18.046Z</time></trkpt><trkpt lat="43.2095983" lon="12.87226"><ele>658.0</ele><time>2026-04-18T09:42:19.046Z</time></trkpt><trkpt lat="43.2094983" lon="12.8721967"><ele>657.0</ele><time>2026-04-18T09:42:21.046Z</time></trkpt><trkpt lat="43.2093783" lon="12.8722"><ele>656.0</ele><time>2026-04-18T09:42:23.046Z</time></trkpt><trkpt lat="43.2093083" lon="12.8722067"><ele>655.0</ele><time>2026-04-18T09:42:24.046Z</time></trkpt><trkpt lat="43.2092333" lon="12.8722183"><ele>655.0</ele><time>2026-04-18T09:42:25.047Z</time></trkpt><trkpt lat="43.2091567" lon="12.8722383"><ele>655.0</ele><time>2026-04-18T09:42:26.046Z</time></trkpt><trkpt lat="43.2090867" lon="12.8722667"><ele>655.0</ele><time>2026-04-18T09:42:27.046Z</time></trkpt><trkpt lat="43.2090217" lon="12.8723067"><ele>655.0</ele><time>2026-04-18T09:42:28.046Z</time></trkpt><trkpt lat="43.20897" lon="12.8723617"><ele>655.0</ele><time>2026-04-18T09:42:29.046Z</time></trkpt><trkpt lat="43.2089317" lon="12.8724333"><ele>655.0</ele><time>2026-04-18T09:42:30.047Z</time></trkpt><trkpt lat="43.2088967" lon="12.8725217"><ele>655.0</ele><time>2026-04-18T09:42:31.046Z</time></trkpt><trkpt lat="43.2088667" lon="12.8726217"><ele>658.8333333333334</ele><time>2026-04-18T09:42:32.046Z</time></trkpt><trkpt lat="43.2088417" lon="12.8727217"><ele>662.6666666666667</ele><time>2026-04-18T09:42:33.046Z</time></trkpt><trkpt lat="43.2088134" lon="12.8728321"><ele>666.5</ele><time>2026-04-18T09:42:34.046Z</time></trkpt><trkpt lat="43.2087758" lon="12.8729478"><ele>670.3333333333334</ele><time>2026-04-18T09:42:35.046Z</time></trkpt><trkpt lat="43.2087337" lon="12.8730661"><ele>674.1666666666666</ele><time>2026-04-18T09:42:36.046Z</time></trkpt><trkpt lat="43.208689" lon="12.873176"><ele>678.0</ele><time>2026-04-18T09:42:37.046Z</time></trkpt><trkpt lat="43.2086499" lon="12.8732626"><ele>678.0</ele><time>2026-04-18T09:42:38.046Z</time></trkpt><trkpt lat="43.2086126" lon="12.8733955"><ele>678.0</ele><time>2026-04-18T09:42:40.046Z</time></trkpt><trkpt lat="43.2086598" lon="12.8734624"><ele>678.0</ele><time>2026-04-18T09:42:43.046Z</time></trkpt><trkpt lat="43.2087189" lon="12.8733906"><ele>678.0</ele><time>2026-04-18T09:42:45.047Z</time></trkpt><trkpt lat="43.2087548" lon="12.8732953"><ele>678.0</ele><time>2026-04-18T09:42:46.046Z</time></trkpt><trkpt lat="43.2087859" lon="12.8732037"><ele>678.0</ele><time>2026-04-18T09:42:47.046Z</time></trkpt><trkpt lat="43.2088228" lon="12.8731184"><ele>678.0</ele><time>2026-04-18T09:42:48.047Z</time></trkpt><trkpt lat="43.2088751" lon="12.8730319"><ele>678.0</ele><time>2026-04-18T09:42:49.046Z</time></trkpt><trkpt lat="43.2089433" lon="12.8729417"><ele>678.0</ele><time>2026-04-18T09:42:50.046Z</time></trkpt><trkpt lat="43.20901" lon="12.8728767"><ele>678.0</ele><time>2026-04-18T09:42:51.046Z</time></trkpt><trkpt lat="43.2090733" lon="12.8728417"><ele>678.0</ele><time>2026-04-18T09:42:52.046Z</time></trkpt><trkpt lat="43.2091967" lon="12.8728517"><ele>678.4</ele><time>2026-04-18T09:42:54.046Z</time></trkpt><trkpt lat="43.2093017" lon="12.87295"><ele>678.8</ele><time>2026-04-18T09:42:56.046Z</time></trkpt><trkpt lat="43.209345" lon="12.8730267"><ele>679.2</ele><time>2026-04-18T09:42:57.046Z</time></trkpt><trkpt lat="43.2093717" lon="12.8731067"><ele>679.6</ele><time>2026-04-18T09:42:58.046Z</time></trkpt><trkpt lat="43.2094083" lon="12.8732883"><ele>680.0</ele><time>2026-04-18T09:43:00.047Z</time></trkpt><trkpt lat="43.2094267" lon="12.8733917"><ele>684.5</ele><time>2026-04-18T09:43:01.047Z</time></trkpt><trkpt lat="43.20944" lon="12.8734967"><ele>689.0</ele><time>2026-04-18T09:43:02.046Z</time></trkpt><trkpt lat="43.2094583" lon="12.8735983"><ele>693.5</ele><time>2026-04-18T09:43:03.046Z</time></trkpt><trkpt lat="43.2094833" lon="12.87371"><ele>698.0</ele><time>2026-04-18T09:43:04.046Z</time></trkpt><trkpt lat="43.2095033" lon="12.8738183"><ele>702.5</ele><time>2026-04-18T09:43:05.046Z</time></trkpt><trkpt lat="43.2095267" lon="12.873935"><ele>707.0</ele><time>2026-04-18T09:43:06.046Z</time></trkpt><trkpt lat="43.20956" lon="12.8740533"><ele>707.0</ele><time>2026-04-18T09:43:07.046Z</time></trkpt><trkpt lat="43.20959" lon="12.8741783"><ele>707.0</ele><time>2026-04-18T09:43:08.046Z</time></trkpt><trkpt lat="43.2096233" lon="12.8743"><ele>707.0</ele><time>2026-04-18T09:43:09.046Z</time></trkpt><trkpt lat="43.209655" lon="12.87442"><ele>707.0</ele><time>2026-04-18T09:43:10.047Z</time></trkpt><trkpt lat="43.2096983" lon="12.8745467"><ele>707.0</ele><time>2026-04-18T09:43:11.046Z</time></trkpt><trkpt lat="43.209755" lon="12.8746733"><ele>707.4000000000001</ele><time>2026-04-18T09:43:12.046Z</time></trkpt><trkpt lat="43.209825" lon="12.8747883"><ele>707.8000000000001</ele><time>2026-04-18T09:43:13.046Z</time></trkpt><trkpt lat="43.2099033" lon="12.8748883"><ele>708.2</ele><time>2026-04-18T09:43:14.046Z</time></trkpt><trkpt lat="43.209985" lon="12.8749733"><ele>708.6</ele><time>2026-04-18T09:43:15.047Z</time></trkpt><trkpt lat="43.2100567" lon="12.875015"><ele>709.0</ele><time>2026-04-18T09:43:16.046Z</time></trkpt><trkpt lat="43.2101317" lon="12.8750233"><ele>709.0</ele><time>2026-04-18T09:43:17.046Z</time></trkpt><trkpt lat="43.2102033" lon="12.8750067"><ele>709.0</ele><time>2026-04-18T09:43:18.046Z</time></trkpt><trkpt lat="43.2102667" lon="12.874955"><ele>709.0</ele><time>2026-04-18T09:43:19.046Z</time></trkpt><trkpt lat="43.2103217" lon="12.8748717"><ele>709.0</ele><time>2026-04-18T09:43:20.046Z</time></trkpt><trkpt lat="43.21037" lon="12.8747883"><ele>709.0</ele><time>2026-04-18T09:43:21.046Z</time></trkpt><trkpt lat="43.21042" lon="12.874695"><ele>709.0</ele><time>2026-04-18T09:43:22.046Z</time></trkpt><trkpt lat="43.2104717" lon="12.8745967"><ele>709.0</ele><time>2026-04-18T09:43:23.047Z</time></trkpt><trkpt lat="43.210525" lon="12.874495"><ele>709.0</ele><time>2026-04-18T09:43:24.046Z</time></trkpt><trkpt lat="43.210585" lon="12.8744017"><ele>709.0</ele><time>2026-04-18T09:43:25.047Z</time></trkpt><trkpt lat="43.2106417" lon="12.8743083"><ele>709.0</ele><time>2026-04-18T09:43:26.046Z</time></trkpt><trkpt lat="43.2107" lon="12.8742267"><ele>709.0</ele><time>2026-04-18T09:43:27.046Z</time></trkpt><trkpt lat="43.210765" lon="12.8741433"><ele>709.0</ele><time>2026-04-18T09:43:28.047Z</time></trkpt><trkpt lat="43.2108317" lon="12.874065"><ele>709.8333333333334</ele><time>2026-04-18T09:43:29.046Z</time></trkpt><trkpt lat="43.2108917" lon="12.8740133"><ele>710.6666666666667</ele><time>2026-04-18T09:43:30.046Z</time></trkpt><trkpt lat="43.2110033" lon="12.8739967"><ele>711.5</ele><time>2026-04-18T09:43:32.046Z</time></trkpt><trkpt lat="43.211105" lon="12.8740717"><ele>712.3333333333334</ele><time>2026-04-18T09:43:34.046Z</time></trkpt><trkpt lat="43.2111467" lon="12.8741483"><ele>713.1666666666666</ele><time>2026-04-18T09:43:35.046Z</time></trkpt><trkpt lat="43.2111867" lon="12.8742317"><ele>714.0</ele><time>2026-04-18T09:43:36.047Z</time></trkpt><trkpt lat="43.2112117" lon="12.8743217"><ele>714.0</ele><time>2026-04-18T09:43:37.046Z</time></trkpt><trkpt lat="43.211225" lon="12.874425"><ele>714.0</ele><time>2026-04-18T09:43:38.046Z</time></trkpt><trkpt lat="43.2112333" lon="12.874535"><ele>714.0</ele><time>2026-04-18T09:43:39.047Z</time></trkpt><trkpt lat="43.211235" lon="12.8746483"><ele>714.0</ele><time>2026-04-18T09:43:40.047Z</time></trkpt><trkpt lat="43.2112317" lon="12.8747783"><ele>714.0</ele><time>2026-04-18T09:43:41.046Z</time></trkpt><trkpt lat="43.2112267" lon="12.874915"><ele>714.0</ele><time>2026-04-18T09:43:42.046Z</time></trkpt><trkpt lat="43.21122" lon="12.875055"><ele>716.8000000000001</ele><time>2026-04-18T09:43:43.046Z</time></trkpt><trkpt lat="43.21121" lon="12.8751983"><ele>719.6</ele><time>2026-04-18T09:43:44.047Z</time></trkpt><trkpt lat="43.2112" lon="12.8753467"><ele>722.4</ele><time>2026-04-18T09:43:45.046Z</time></trkpt><trkpt lat="43.2111883" lon="12.8754933"><ele>725.2</ele><time>2026-04-18T09:43:46.046Z</time></trkpt><trkpt lat="43.2111817" lon="12.875655"><ele>728.0</ele><time>2026-04-18T09:43:47.046Z</time></trkpt><trkpt lat="43.2111667" lon="12.875845"><ele>732.5</ele><time>2026-04-18T09:43:48.046Z</time></trkpt><trkpt lat="43.2111633" lon="12.876025"><ele>737.0</ele><time>2026-04-18T09:43:49.046Z</time></trkpt><trkpt lat="43.211155" lon="12.8762017"><ele>741.5</ele><time>2026-04-18T09:43:50.046Z</time></trkpt><trkpt lat="43.21115" lon="12.876375"><ele>746.0</ele><time>2026-04-18T09:43:51.046Z</time></trkpt><trkpt lat="43.2111483" lon="12.8765433"><ele>746.0</ele><time>2026-04-18T09:43:52.046Z</time></trkpt><trkpt lat="43.2111517" lon="12.8767083"><ele>746.0</ele><time>2026-04-18T09:43:53.046Z</time></trkpt><trkpt lat="43.2111633" lon="12.87687"><ele>746.0</ele><time>2026-04-18T09:43:54.046Z</time></trkpt><trkpt lat="43.2111683" lon="12.8770383"><ele>746.0</ele><time>2026-04-18T09:43:55.046Z</time></trkpt><trkpt lat="43.21118" lon="12.8771933"><ele>749.1999999999999</ele><time>2026-04-18T09:43:56.046Z</time></trkpt><trkpt lat="43.211185" lon="12.8773467"><ele>752.4</ele><time>2026-04-18T09:43:57.047Z</time></trkpt><trkpt lat="43.2111983" lon="12.8774933"><ele>755.6</ele><time>2026-04-18T09:43:58.046Z</time></trkpt><trkpt lat="43.211205" lon="12.877645"><ele>758.8</ele><time>2026-04-18T09:43:59.046Z</time></trkpt><trkpt lat="43.2112167" lon="12.8777983"><ele>762.0</ele><time>2026-04-18T09:44:00.046Z</time></trkpt><trkpt lat="43.2112033" lon="12.8779583"><ele>762.5</ele><time>2026-04-18T09:44:01.046Z</time></trkpt><trkpt lat="43.2112067" lon="12.8781233"><ele>763.0</ele><time>2026-04-18T09:44:02.046Z</time></trkpt><trkpt lat="43.2112133" lon="12.8782833"><ele>763.5</ele><time>2026-04-18T09:44:03.046Z</time></trkpt><trkpt lat="43.2112117" lon="12.8784417"><ele>764.0</ele><time>2026-04-18T09:44:04.046Z</time></trkpt><trkpt lat="43.2112067" lon="12.8785883"><ele>764.0</ele><time>2026-04-18T09:44:05.047Z</time></trkpt><trkpt lat="43.211195" lon="12.8787217"><ele>764.0</ele><time>2026-04-18T09:44:06.046Z</time></trkpt><trkpt lat="43.2111867" lon="12.8788317"><ele>764.0</ele><time>2026-04-18T09:44:07.046Z</time></trkpt><trkpt lat="43.21117" lon="12.8789467"><ele>764.0</ele><time>2026-04-18T09:44:08.046Z</time></trkpt><trkpt lat="43.2111367" lon="12.8790567"><ele>764.0</ele><time>2026-04-18T09:44:09.046Z</time></trkpt><trkpt lat="43.211085" lon="12.8791617"><ele>764.0</ele><time>2026-04-18T09:44:10.046Z</time></trkpt><trkpt lat="43.21103" lon="12.8792467"><ele>759.0</ele><time>2026-04-18T09:44:11.047Z</time></trkpt><trkpt lat="43.2109617" lon="12.8793283"><ele>754.0</ele><time>2026-04-18T09:44:12.046Z</time></trkpt><trkpt lat="43.210895" lon="12.8794133"><ele>749.0</ele><time>2026-04-18T09:44:13.046Z</time></trkpt><trkpt lat="43.2108267" lon="12.8795"><ele>744.0</ele><time>2026-04-18T09:44:14.046Z</time></trkpt><trkpt lat="43.2107567" lon="12.8795917"><ele>739.0</ele><time>2026-04-18T09:44:15.046Z</time></trkpt><trkpt lat="43.210685" lon="12.8796783"><ele>748.25</ele><time>2026-04-18T09:44:16.046Z</time></trkpt><trkpt lat="43.2106083" lon="12.8797733"><ele>757.5</ele><time>2026-04-18T09:44:17.046Z</time></trkpt><trkpt lat="43.2105317" lon="12.87989"><ele>766.75</ele><time>2026-04-18T09:44:18.046Z</time></trkpt><trkpt lat="43.21045" lon="12.8800017"><ele>776.0</ele><time>2026-04-18T09:44:19.046Z</time></trkpt><trkpt lat="43.2103717" lon="12.8801217"><ele>776.0</ele><time>2026-04-18T09:44:20.046Z</time></trkpt><trkpt lat="43.2102917" lon="12.880245"><ele>776.0</ele><time>2026-04-18T09:44:21.046Z</time></trkpt><trkpt lat="43.2102067" lon="12.8803683"><ele>776.0</ele><time>2026-04-18T09:44:22.046Z</time></trkpt><trkpt lat="43.21013" lon="12.8804783"><ele>776.0</ele><time>2026-04-18T09:44:23.046Z</time></trkpt><trkpt lat="43.210055" lon="12.880585"><ele>776.0</ele><time>2026-04-18T09:44:24.047Z</time></trkpt><trkpt lat="43.2099867" lon="12.8806933"><ele>776.0</ele><time>2026-04-18T09:44:25.046Z</time></trkpt><trkpt lat="43.20994" lon="12.8808183"><ele>776.0</ele><time>2026-04-18T09:44:26.046Z</time></trkpt><trkpt lat="43.2098933" lon="12.8809383"><ele>776.0</ele><time>2026-04-18T09:44:27.046Z</time></trkpt><trkpt lat="43.2098583" lon="12.8810667"><ele>776.0</ele><time>2026-04-18T09:44:28.046Z</time></trkpt><trkpt lat="43.2098417" lon="12.8812133"><ele>775.5999999999999</ele><time>2026-04-18T09:44:29.046Z</time></trkpt><trkpt lat="43.2098483" lon="12.88135"><ele>775.2</ele><time>2026-04-18T09:44:30.047Z</time></trkpt><trkpt lat="43.2098767" lon="12.8814783"><ele>774.8</ele><time>2026-04-18T09:44:31.046Z</time></trkpt><trkpt lat="43.2099083" lon="12.8816067"><ele>774.4000000000001</ele><time>2026-04-18T09:44:32.046Z</time></trkpt><trkpt lat="43.209935" lon="12.88172"><ele>774.0</ele><time>2026-04-18T09:44:33.046Z</time></trkpt><trkpt lat="43.2099517" lon="12.8818133"><ele>774.0</ele><time>2026-04-18T09:44:34.046Z</time></trkpt><trkpt lat="43.20995" lon="12.881905"><ele>774.0</ele><time>2026-04-18T09:44:35.046Z</time></trkpt><trkpt lat="43.209935" lon="12.882"><ele>774.0</ele><time>2026-04-18T09:44:36.046Z</time></trkpt><trkpt lat="43.2099183" lon="12.8821017"><ele>774.0</ele><time>2026-04-18T09:44:37.046Z</time></trkpt><trkpt lat="43.2099033" lon="12.8822117"><ele>774.0</ele><time>2026-04-18T09:44:38.046Z</time></trkpt><trkpt lat="43.2098917" lon="12.8823433"><ele>774.0</ele><time>2026-04-18T09:44:39.046Z</time></trkpt><trkpt lat="43.2098833" lon="12.8824933"><ele>775.0</ele><time>2026-04-18T09:44:40.046Z</time></trkpt><trkpt lat="43.209865" lon="12.8826317"><ele>776.0</ele><time>2026-04-18T09:44:41.046Z</time></trkpt><trkpt lat="43.20985" lon="12.8827667"><ele>777.0</ele><time>2026-04-18T09:44:42.046Z</time></trkpt><trkpt lat="43.2098433" lon="12.8829033"><ele>778.0</ele><time>2026-04-18T09:44:43.046Z</time></trkpt><trkpt lat="43.20982" lon="12.8830483"><ele>779.0</ele><time>2026-04-18T09:44:44.047Z</time></trkpt><trkpt lat="43.2097983" lon="12.88319"><ele>791.2</ele><time>2026-04-18T09:44:45.046Z</time></trkpt><trkpt lat="43.2097717" lon="12.883325"><ele>803.4000000000001</ele><time>2026-04-18T09:44:46.046Z</time></trkpt><trkpt lat="43.2097483" lon="12.88346"><ele>815.6</ele><time>2026-04-18T09:44:47.046Z</time></trkpt><trkpt lat="43.2097383" lon="12.8835883"><ele>827.8</ele><time>2026-04-18T09:44:48.046Z</time></trkpt><trkpt lat="43.2097433" lon="12.8837133"><ele>840.0</ele><time>2026-04-18T09:44:49.047Z</time></trkpt><trkpt lat="43.2097633" lon="12.8838367"><ele>841.6</ele><time>2026-04-18T09:44:50.047Z</time></trkpt><trkpt lat="43.2097883" lon="12.88395"><ele>843.2</ele><time>2026-04-18T09:44:51.047Z</time></trkpt><trkpt lat="43.2098433" lon="12.88405"><ele>844.8</ele><time>2026-04-18T09:44:52.046Z</time></trkpt><trkpt lat="43.2099083" lon="12.8841333"><ele>846.4</ele><time>2026-04-18T09:44:53.046Z</time></trkpt><trkpt lat="43.2099817" lon="12.884205"><ele>848.0</ele><time>2026-04-18T09:44:54.046Z</time></trkpt><trkpt lat="43.21006" lon="12.8842767"><ele>843.8</ele><time>2026-04-18T09:44:55.047Z</time></trkpt><trkpt lat="43.2101367" lon="12.88436"><ele>839.5999999999999</ele><time>2026-04-18T09:44:56.046Z</time></trkpt><trkpt lat="43.2101933" lon="12.88445"><ele>835.4000000000001</ele><time>2026-04-18T09:44:57.047Z</time></trkpt><trkpt lat="43.2102433" lon="12.88455"><ele>831.2</ele><time>2026-04-18T09:44:58.047Z</time></trkpt><trkpt lat="43.2102883" lon="12.8846733"><ele>827.0</ele><time>2026-04-18T09:44:59.047Z</time></trkpt><trkpt lat="43.2103483" lon="12.8848117"><ele>827.0</ele><time>2026-04-18T09:45:00.046Z</time></trkpt><trkpt lat="43.21042" lon="12.8849417"><ele>827.0</ele><time>2026-04-18T09:45:01.046Z</time></trkpt><trkpt lat="43.21049" lon="12.8850667"><ele>827.0</ele><time>2026-04-18T09:45:02.046Z</time></trkpt><trkpt lat="43.210565" lon="12.8851867"><ele>827.0</ele><time>2026-04-18T09:45:03.046Z</time></trkpt><trkpt lat="43.2106483" lon="12.8852933"><ele>827.0000000000001</ele><time>2026-04-18T09:45:04.046Z</time></trkpt><trkpt lat="43.2107183" lon="12.88538"><ele>827.0</ele><time>2026-04-18T09:45:05.046Z</time></trkpt><trkpt lat="43.2107833" lon="12.88544"><ele>827.0</ele><time>2026-04-18T09:45:06.046Z</time></trkpt><trkpt lat="43.210845" lon="12.885495"><ele>827.0</ele><time>2026-04-18T09:45:07.046Z</time></trkpt><trkpt lat="43.2109" lon="12.8855567"><ele>827.0000000000001</ele><time>2026-04-18T09:45:08.046Z</time></trkpt><trkpt lat="43.2109417" lon="12.88563"><ele>827.0</ele><time>2026-04-18T09:45:09.046Z</time></trkpt><trkpt lat="43.2109767" lon="12.8857333"><ele>827.0000000000001</ele><time>2026-04-18T09:45:10.046Z</time></trkpt><trkpt lat="43.211015" lon="12.8858383"><ele>827.0</ele><time>2026-04-18T09:45:11.046Z</time></trkpt><trkpt lat="43.211035" lon="12.8859333"><ele>827.0</ele><time>2026-04-18T09:45:12.046Z</time></trkpt><trkpt lat="43.211125" lon="12.8860183"><ele>827.0</ele><time>2026-04-18T09:45:14.047Z</time></trkpt><trkpt lat="43.21119" lon="12.886015"><ele>827.0000000000001</ele><time>2026-04-18T09:45:15.046Z</time></trkpt><trkpt lat="43.21127" lon="12.8860017"><ele>827.0</ele><time>2026-04-18T09:45:16.046Z</time></trkpt><trkpt lat="43.2113567" lon="12.8859817"><ele>825.8</ele><time>2026-04-18T09:45:17.047Z</time></trkpt><trkpt lat="43.2114617" lon="12.8859467"><ele>824.6</ele><time>2026-04-18T09:45:18.046Z</time></trkpt><trkpt lat="43.2115667" lon="12.8859067"><ele>823.4</ele><time>2026-04-18T09:45:19.047Z</time></trkpt><trkpt lat="43.211655" lon="12.88588"><ele>822.1999999999999</ele><time>2026-04-18T09:45:20.046Z</time></trkpt><trkpt lat="43.2117367" lon="12.885875"><ele>821.0</ele><time>2026-04-18T09:45:21.046Z</time></trkpt><trkpt lat="43.21183" lon="12.8858767"><ele>821.0</ele><time>2026-04-18T09:45:22.046Z</time></trkpt><trkpt lat="43.2119283" lon="12.8858967"><ele>821.0</ele><time>2026-04-18T09:45:23.046Z</time></trkpt><trkpt lat="43.21204" lon="12.8859183"><ele>821.0</ele><time>2026-04-18T09:45:24.046Z</time></trkpt><trkpt lat="43.2121467" lon="12.8859433"><ele>821.0</ele><time>2026-04-18T09:45:25.046Z</time></trkpt><trkpt lat="43.212245" lon="12.8859767"><ele>821.0</ele><time>2026-04-18T09:45:26.046Z</time></trkpt><trkpt lat="43.2123333" lon="12.8860033"><ele>827.5000000000001</ele><time>2026-04-18T09:45:27.046Z</time></trkpt><trkpt lat="43.2124133" lon="12.8860317"><ele>834.0</ele><time>2026-04-18T09:45:28.047Z</time></trkpt><trkpt lat="43.2124883" lon="12.8860567"><ele>840.5</ele><time>2026-04-18T09:45:29.046Z</time></trkpt><trkpt lat="43.2125633" lon="12.8860933"><ele>847.0</ele><time>2026-04-18T09:45:30.047Z</time></trkpt><trkpt lat="43.2126417" lon="12.8861217"><ele>853.5000000000001</ele><time>2026-04-18T09:45:31.046Z</time></trkpt><trkpt lat="43.2127217" lon="12.886145"><ele>860.0</ele><time>2026-04-18T09:45:32.046Z</time></trkpt><trkpt lat="43.2128033" lon="12.88617"><ele>860.0000000000001</ele><time>2026-04-18T09:45:33.046Z</time></trkpt><trkpt lat="43.2128867" lon="12.886195"><ele>860.0</ele><time>2026-04-18T09:45:34.047Z</time></trkpt><trkpt lat="43.212965" lon="12.886225"><ele>860.0</ele><time>2026-04-18T09:45:35.046Z</time></trkpt><trkpt lat="43.213045" lon="12.8862583"><ele>860.0</ele><time>2026-04-18T09:45:36.046Z</time></trkpt><trkpt lat="43.2131267" lon="12.8862917"><ele>860.0000000000001</ele><time>2026-04-18T09:45:37.046Z</time></trkpt><trkpt lat="43.2132033" lon="12.886335"><ele>860.0</ele><time>2026-04-18T09:45:38.046Z</time></trkpt><trkpt lat="43.2132817" lon="12.8863817"><ele>858.8333333333334</ele><time>2026-04-18T09:45:39.046Z</time></trkpt><trkpt lat="43.2133517" lon="12.88642"><ele>857.6666666666667</ele><time>2026-04-18T09:45:40.046Z</time></trkpt><trkpt lat="43.21342" lon="12.8864733"><ele>856.5</ele><time>2026-04-18T09:45:41.046Z</time></trkpt><trkpt lat="43.2135133" lon="12.8865317"><ele>855.3333333333333</ele><time>2026-04-18T09:45:43.046Z</time></trkpt><trkpt lat="43.2135617" lon="12.8866"><ele>854.1666666666666</ele><time>2026-04-18T09:45:45.046Z</time></trkpt><trkpt lat="43.2135583" lon="12.88669"><ele>853.0</ele><time>2026-04-18T09:45:47.046Z</time></trkpt><trkpt lat="43.213505" lon="12.8867383"><ele>853.0</ele><time>2026-04-18T09:45:49.047Z</time></trkpt><trkpt lat="43.21344" lon="12.88672"><ele>853.0</ele><time>2026-04-18T09:45:51.046Z</time></trkpt><trkpt lat="43.2133533" lon="12.88668"><ele>853.0</ele><time>2026-04-18T09:45:53.046Z</time></trkpt><trkpt lat="43.213235" lon="12.8866383"><ele>853.0</ele><time>2026-04-18T09:45:55.046Z</time></trkpt><trkpt lat="43.2131133" lon="12.8866267"><ele>853.0</ele><time>2026-04-18T09:45:57.047Z</time></trkpt><trkpt lat="43.2130417" lon="12.886635"><ele>854.4</ele><time>2026-04-18T09:45:58.046Z</time></trkpt><trkpt lat="43.21297" lon="12.886655"><ele>855.8</ele><time>2026-04-18T09:45:59.046Z</time></trkpt><trkpt lat="43.2128933" lon="12.8866717"><ele>857.2</ele><time>2026-04-18T09:46:00.046Z</time></trkpt><trkpt lat="43.2128" lon="12.88669"><ele>858.6</ele><time>2026-04-18T09:46:01.046Z</time></trkpt><trkpt lat="43.212685" lon="12.88672"><ele>860.0</ele><time>2026-04-18T09:46:02.046Z</time></trkpt><trkpt lat="43.2125583" lon="12.88675"><ele>866.5</ele><time>2026-04-18T09:46:03.047Z</time></trkpt><trkpt lat="43.2124233" lon="12.88677"><ele>873.0</ele><time>2026-04-18T09:46:04.046Z</time></trkpt><trkpt lat="43.212295" lon="12.8867733"><ele>879.5</ele><time>2026-04-18T09:46:05.047Z</time></trkpt><trkpt lat="43.212185" lon="12.8867717"><ele>886.0</ele><time>2026-04-18T09:46:06.046Z</time></trkpt><trkpt lat="43.2120833" lon="12.8867867"><ele>886.0</ele><time>2026-04-18T09:46:07.046Z</time></trkpt><trkpt lat="43.2119883" lon="12.8868217"><ele>885.9999999999999</ele><time>2026-04-18T09:46:08.046Z</time></trkpt><trkpt lat="43.2118867" lon="12.8868783"><ele>885.9999999999999</ele><time>2026-04-18T09:46:09.046Z</time></trkpt><trkpt lat="43.2117867" lon="12.886955"><ele>886.0</ele><time>2026-04-18T09:46:10.046Z</time></trkpt><trkpt lat="43.2116983" lon="12.8870433"><ele>886.0</ele><time>2026-04-18T09:46:11.047Z</time></trkpt><trkpt lat="43.21161" lon="12.8871433"><ele>886.0</ele><time>2026-04-18T09:46:12.046Z</time></trkpt><trkpt lat="43.2115067" lon="12.8872633"><ele>886.0</ele><time>2026-04-18T09:46:13.046Z</time></trkpt><trkpt lat="43.2114067" lon="12.88738"><ele>886.0</ele><time>2026-04-18T09:46:14.046Z</time></trkpt><trkpt lat="43.2113317" lon="12.8874883"><ele>886.0</ele><time>2026-04-18T09:46:15.046Z</time></trkpt><trkpt lat="43.2112667" lon="12.8875917"><ele>888.8333333333333</ele><time>2026-04-18T09:46:16.046Z</time></trkpt><trkpt lat="43.21121" lon="12.8877067"><ele>891.6666666666666</ele><time>2026-04-18T09:46:17.046Z</time></trkpt><trkpt lat="43.2111533" lon="12.8878183"><ele>894.5</ele><time>2026-04-18T09:46:18.046Z</time></trkpt><trkpt lat="43.2111017" lon="12.8879133"><ele>897.3333333333333</ele><time>2026-04-18T09:46:19.046Z</time></trkpt><trkpt lat="43.211055" lon="12.887995"><ele>900.1666666666666</ele><time>2026-04-18T09:46:20.047Z</time></trkpt><trkpt lat="43.2110033" lon="12.8880483"><ele>903.0</ele><time>2026-04-18T09:46:21.046Z</time></trkpt><trkpt lat="43.2109017" lon="12.888045"><ele>903.0</ele><time>2026-04-18T09:46:23.046Z</time></trkpt><trkpt lat="43.210855" lon="12.88798"><ele>903.0</ele><time>2026-04-18T09:46:24.046Z</time></trkpt><trkpt lat="43.2108117" lon="12.8878883"><ele>903.0</ele><time>2026-04-18T09:46:25.046Z</time></trkpt><trkpt lat="43.2107683" lon="12.8877933"><ele>903.0</ele><time>2026-04-18T09:46:26.046Z</time></trkpt><trkpt lat="43.2107167" lon="12.8877133"><ele>903.0</ele><time>2026-04-18T09:46:27.046Z</time></trkpt><trkpt lat="43.2106583" lon="12.8876483"><ele>903.0</ele><time>2026-04-18T09:46:28.047Z</time></trkpt><trkpt lat="43.210595" lon="12.8876133"><ele>903.0</ele><time>2026-04-18T09:46:29.046Z</time></trkpt><trkpt lat="43.2105167" lon="12.887615"><ele>905.5999999999999</ele><time>2026-04-18T09:46:30.047Z</time></trkpt><trkpt lat="43.21043" lon="12.8876483"><ele>908.1999999999999</ele><time>2026-04-18T09:46:31.046Z</time></trkpt><trkpt lat="43.2103383" lon="12.8876767"><ele>910.8</ele><time>2026-04-18T09:46:32.046Z</time></trkpt><trkpt lat="43.2102417" lon="12.8876917"><ele>913.4</ele><time>2026-04-18T09:46:33.047Z</time></trkpt><trkpt lat="43.2101567" lon="12.8876833"><ele>916.0</ele><time>2026-04-18T09:46:34.046Z</time></trkpt><trkpt lat="43.2100667" lon="12.8876583"><ele>916.0</ele><time>2026-04-18T09:46:35.046Z</time></trkpt><trkpt lat="43.2099733" lon="12.8876167"><ele>915.9999999999999</ele><time>2026-04-18T09:46:36.046Z</time></trkpt><trkpt lat="43.2098733" lon="12.8875717"><ele>915.9999999999999</ele><time>2026-04-18T09:46:37.046Z</time></trkpt><trkpt lat="43.2097733" lon="12.8875317"><ele>916.0</ele><time>2026-04-18T09:46:38.046Z</time></trkpt><trkpt lat="43.2096683" lon="12.8875017"><ele>916.0</ele><time>2026-04-18T09:46:39.046Z</time></trkpt><trkpt lat="43.2095583" lon="12.8874467"><ele>916.0</ele><time>2026-04-18T09:46:40.046Z</time></trkpt><trkpt lat="43.20946" lon="12.8873883"><ele>915.9999999999999</ele><time>2026-04-18T09:46:41.046Z</time></trkpt><trkpt lat="43.209395" lon="12.887305"><ele>915.9999999999999</ele><time>2026-04-18T09:46:42.046Z</time></trkpt><trkpt lat="43.2093317" lon="12.8872"><ele>916.0</ele><time>2026-04-18T09:46:43.045Z</time></trkpt><trkpt lat="43.20927" lon="12.88708"><ele>916.0</ele><time>2026-04-18T09:46:44.045Z</time></trkpt><trkpt lat="43.2092017" lon="12.8869517"><ele>916.0</ele><time>2026-04-18T09:46:45.045Z</time></trkpt><trkpt lat="43.2091317" lon="12.88682"><ele>916.0</ele><time>2026-04-18T09:46:46.045Z</time></trkpt><trkpt lat="43.20904" lon="12.8866733"><ele>916.0</ele><time>2026-04-18T09:46:47.045Z</time></trkpt><trkpt lat="43.2089417" lon="12.886535"><ele>916.0</ele><time>2026-04-18T09:46:48.045Z</time></trkpt><trkpt lat="43.2088517" lon="12.8864133"><ele>919.9999999999999</ele><time>2026-04-18T09:46:49.045Z</time></trkpt><trkpt lat="43.20878" lon="12.8863233"><ele>924.0</ele><time>2026-04-18T09:46:50.045Z</time></trkpt><trkpt lat="43.2087267" lon="12.886255"><ele>928.0</ele><time>2026-04-18T09:46:51.046Z</time></trkpt><trkpt lat="43.2086483" lon="12.8861783"><ele>932.0</ele><time>2026-04-18T09:46:53.045Z</time></trkpt><trkpt lat="43.2085833" lon="12.8861633"><ele>935.9999999999999</ele><time>2026-04-18T09:46:55.045Z</time></trkpt><trkpt lat="43.2085633" lon="12.8862633"><ele>940.0</ele><time>2026-04-18T09:47:08.045Z</time></trkpt><trkpt lat="43.2086" lon="12.8864283"><ele>940.0</ele><time>2026-04-18T09:47:10.045Z</time></trkpt><trkpt lat="43.2086383" lon="12.8865217"><ele>940.0</ele><time>2026-04-18T09:47:11.045Z</time></trkpt><trkpt lat="43.20868" lon="12.88663"><ele>940.0</ele><time>2026-04-18T09:47:12.045Z</time></trkpt><trkpt lat="43.2087217" lon="12.8867633"><ele>940.0</ele><time>2026-04-18T09:47:13.045Z</time></trkpt><trkpt lat="43.2087567" lon="12.8868917"><ele>940.0</ele><time>2026-04-18T09:47:14.045Z</time></trkpt><trkpt lat="43.20879" lon="12.8870283"><ele>942.8</ele><time>2026-04-18T09:47:15.045Z</time></trkpt><trkpt lat="43.208815" lon="12.8871667"><ele>945.6</ele><time>2026-04-18T09:47:16.046Z</time></trkpt><trkpt lat="43.2088367" lon="12.8873117"><ele>948.4000000000001</ele><time>2026-04-18T09:47:17.045Z</time></trkpt><trkpt lat="43.20885" lon="12.88747"><ele>951.2</ele><time>2026-04-18T09:47:18.045Z</time></trkpt><trkpt lat="43.2088683" lon="12.88763"><ele>954.0</ele><time>2026-04-18T09:47:19.045Z</time></trkpt><trkpt lat="43.2088917" lon="12.88777"><ele>950.4000000000001</ele><time>2026-04-18T09:47:20.046Z</time></trkpt><trkpt lat="43.20892" lon="12.8879017"><ele>946.8000000000001</ele><time>2026-04-18T09:47:21.045Z</time></trkpt><trkpt lat="43.2089567" lon="12.88803"><ele>943.1999999999999</ele><time>2026-04-18T09:47:22.045Z</time></trkpt><trkpt lat="43.2090083" lon="12.8881467"><ele>939.5999999999999</ele><time>2026-04-18T09:47:23.045Z</time></trkpt><trkpt lat="43.2090683" lon="12.8882617"><ele>936.0</ele><time>2026-04-18T09:47:24.046Z</time></trkpt><trkpt lat="43.2091383" lon="12.8883733"><ele>942.8</ele><time>2026-04-18T09:47:25.045Z</time></trkpt><trkpt lat="43.2092117" lon="12.8884683"><ele>949.5999999999999</ele><time>2026-04-18T09:47:26.045Z</time></trkpt><trkpt lat="43.2092967" lon="12.8885583"><ele>956.4</ele><time>2026-04-18T09:47:27.045Z</time></trkpt><trkpt lat="43.2093933" lon="12.8886417"><ele>963.2</ele><time>2026-04-18T09:47:28.045Z</time></trkpt><trkpt lat="43.2094917" lon="12.8887167"><ele>970.0</ele><time>2026-04-18T09:47:29.045Z</time></trkpt><trkpt lat="43.2095933" lon="12.8887817"><ele>970.0</ele><time>2026-04-18T09:47:30.045Z</time></trkpt><trkpt lat="43.2096833" lon="12.8888367"><ele>970.0</ele><time>2026-04-18T09:47:31.046Z</time></trkpt><trkpt lat="43.209775" lon="12.8888983"><ele>970.0</ele><time>2026-04-18T09:47:32.045Z</time></trkpt><trkpt lat="43.2098567" lon="12.8889517"><ele>970.0</ele><time>2026-04-18T09:47:33.045Z</time></trkpt><trkpt lat="43.2099383" lon="12.8890217"><ele>970.0</ele><time>2026-04-18T09:47:34.046Z</time></trkpt><trkpt lat="43.2100167" lon="12.8891167"><ele>970.25</ele><time>2026-04-18T09:47:35.045Z</time></trkpt><trkpt lat="43.2101033" lon="12.8892183"><ele>970.5</ele><time>2026-04-18T09:47:36.046Z</time></trkpt><trkpt lat="43.2102" lon="12.8893317"><ele>970.75</ele><time>2026-04-18T09:47:37.045Z</time></trkpt><trkpt lat="43.2103" lon="12.8894483"><ele>971.0</ele><time>2026-04-18T09:47:38.046Z</time></trkpt><trkpt lat="43.2104" lon="12.889565"><ele>971.0</ele><time>2026-04-18T09:47:39.045Z</time></trkpt><trkpt lat="43.2104967" lon="12.8896817"><ele>971.0</ele><time>2026-04-18T09:47:40.045Z</time></trkpt><trkpt lat="43.21059" lon="12.889795"><ele>971.0</ele><time>2026-04-18T09:47:41.045Z</time></trkpt><trkpt lat="43.2106933" lon="12.8899017"><ele>971.0</ele><time>2026-04-18T09:47:42.045Z</time></trkpt><trkpt lat="43.210805" lon="12.8900083"><ele>970.5</ele><time>2026-04-18T09:47:43.046Z</time></trkpt><trkpt lat="43.21092" lon="12.89012"><ele>970.0</ele><time>2026-04-18T09:47:44.045Z</time></trkpt><trkpt lat="43.2110183" lon="12.8902267"><ele>969.5</ele><time>2026-04-18T09:47:45.045Z</time></trkpt><trkpt lat="43.2111083" lon="12.8903183"><ele>969.0</ele><time>2026-04-18T09:47:46.045Z</time></trkpt><trkpt lat="43.2111933" lon="12.8904067"><ele>969.0</ele><time>2026-04-18T09:47:47.045Z</time></trkpt><trkpt lat="43.2112867" lon="12.890495"><ele>969.0000000000001</ele><time>2026-04-18T09:47:48.045Z</time></trkpt><trkpt lat="43.21137" lon="12.8905767"><ele>969.0000000000001</ele><time>2026-04-18T09:47:49.045Z</time></trkpt><trkpt lat="43.2114483" lon="12.8906683"><ele>969.0</ele><time>2026-04-18T09:47:50.045Z</time></trkpt><trkpt lat="43.21152" lon="12.8907683"><ele>969.0</ele><time>2026-04-18T09:47:51.046Z</time></trkpt><trkpt lat="43.2115817" lon="12.8908733"><ele>967.8000000000001</ele><time>2026-04-18T09:47:52.045Z</time></trkpt><trkpt lat="43.2116367" lon="12.8909817"><ele>966.6000000000001</ele><time>2026-04-18T09:47:53.045Z</time></trkpt><trkpt lat="43.2116867" lon="12.8911017"><ele>965.4</ele><time>2026-04-18T09:47:54.045Z</time></trkpt><trkpt lat="43.21174" lon="12.8912317"><ele>964.2</ele><time>2026-04-18T09:47:55.045Z</time></trkpt><trkpt lat="43.2117983" lon="12.891385"><ele>963.0</ele><time>2026-04-18T09:47:56.046Z</time></trkpt><trkpt lat="43.2118617" lon="12.8915467"><ele>963.0</ele><time>2026-04-18T09:47:57.045Z</time></trkpt><trkpt lat="43.2119283" lon="12.8916933"><ele>963.0</ele><time>2026-04-18T09:47:58.043Z</time></trkpt><trkpt lat="43.2120017" lon="12.8918317"><ele>963.0</ele><time>2026-04-18T09:47:59.045Z</time></trkpt><trkpt lat="43.2120667" lon="12.8919517"><ele>963.0</ele><time>2026-04-18T09:48:00.045Z</time></trkpt><trkpt lat="43.2121317" lon="12.89206"><ele>962.5999999999999</ele><time>2026-04-18T09:48:01.045Z</time></trkpt><trkpt lat="43.21219" lon="12.892175"><ele>962.1999999999999</ele><time>2026-04-18T09:48:02.045Z</time></trkpt><trkpt lat="43.2122517" lon="12.892285"><ele>961.8</ele><time>2026-04-18T09:48:03.045Z</time></trkpt><trkpt lat="43.2123117" lon="12.892395"><ele>961.4</ele><time>2026-04-18T09:48:04.045Z</time></trkpt><trkpt lat="43.2123767" lon="12.8925033"><ele>961.0</ele><time>2026-04-18T09:48:05.045Z</time></trkpt><trkpt lat="43.2124533" lon="12.89261"><ele>962.75</ele><time>2026-04-18T09:48:06.045Z</time></trkpt><trkpt lat="43.212545" lon="12.89272"><ele>964.5</ele><time>2026-04-18T09:48:07.045Z</time></trkpt><trkpt lat="43.212645" lon="12.8928383"><ele>966.25</ele><time>2026-04-18T09:48:08.045Z</time></trkpt><trkpt lat="43.21274" lon="12.89295"><ele>968.0</ele><time>2026-04-18T09:48:09.045Z</time></trkpt><trkpt lat="43.2128233" lon="12.8930467"><ele>968.0000000000001</ele><time>2026-04-18T09:48:10.045Z</time></trkpt><trkpt lat="43.2129033" lon="12.8931417"><ele>968.0</ele><time>2026-04-18T09:48:11.045Z</time></trkpt><trkpt lat="43.2129733" lon="12.89324"><ele>968.0</ele><time>2026-04-18T09:48:12.045Z</time></trkpt><trkpt lat="43.213035" lon="12.89333"><ele>968.0</ele><time>2026-04-18T09:48:13.045Z</time></trkpt><trkpt lat="43.213085" lon="12.8934133"><ele>968.0000000000001</ele><time>2026-04-18T09:48:14.045Z</time></trkpt><trkpt lat="43.213125" lon="12.89348"><ele>968.0</ele><time>2026-04-18T09:48:15.045Z</time></trkpt><trkpt lat="43.2131983" lon="12.893615"><ele>968.3333333333334</ele><time>2026-04-18T09:48:17.046Z</time></trkpt><trkpt lat="43.2132417" lon="12.89368"><ele>968.6666666666667</ele><time>2026-04-18T09:48:18.045Z</time></trkpt><trkpt lat="43.21328" lon="12.8937583"><ele>969.0</ele><time>2026-04-18T09:48:19.045Z</time></trkpt><trkpt lat="43.213305" lon="12.8938383"><ele>969.3333333333333</ele><time>2026-04-18T09:48:20.045Z</time></trkpt><trkpt lat="43.2133133" lon="12.8940017"><ele>969.6666666666666</ele><time>2026-04-18T09:48:22.045Z</time></trkpt><trkpt lat="43.2133017" lon="12.8941467"><ele>970.0</ele><time>2026-04-18T09:48:24.045Z</time></trkpt><trkpt lat="43.2132633" lon="12.8942533"><ele>969.8</ele><time>2026-04-18T09:48:26.045Z</time></trkpt><trkpt lat="43.2132167" lon="12.894345"><ele>969.6</ele><time>2026-04-18T09:57:06.044Z</time></trkpt><trkpt lat="43.2131683" lon="12.8944267"><ele>969.4000000000001</ele><time>2026-04-18T09:57:08.044Z</time></trkpt><trkpt lat="43.2130883" lon="12.894505"><ele>969.2</ele><time>2026-04-18T09:57:10.044Z</time></trkpt><trkpt lat="43.21298" lon="12.8946083"><ele>969.0</ele><time>2026-04-18T09:57:12.044Z</time></trkpt><trkpt lat="43.2129217" lon="12.8946583"><ele>968.8000000000001</ele><time>2026-04-18T09:57:13.044Z</time></trkpt><trkpt lat="43.21283" lon="12.8947417"><ele>968.6000000000001</ele><time>2026-04-18T09:57:15.045Z</time></trkpt><trkpt lat="43.2127283" lon="12.89484"><ele>968.4</ele><time>2026-04-18T09:57:17.045Z</time></trkpt><trkpt lat="43.2126683" lon="12.89489"><ele>968.2</ele><time>2026-04-18T09:57:18.044Z</time></trkpt><trkpt lat="43.2126033" lon="12.8949467"><ele>968.0</ele><time>2026-04-18T09:57:19.044Z</time></trkpt><trkpt lat="43.2125367" lon="12.8949967"><ele>968.0000000000001</ele><time>2026-04-18T09:57:20.044Z</time></trkpt><trkpt lat="43.2124767" lon="12.8950367"><ele>968.0</ele><time>2026-04-18T09:57:21.044Z</time></trkpt><trkpt lat="43.2124133" lon="12.8950767"><ele>968.0</ele><time>2026-04-18T09:57:22.044Z</time></trkpt><trkpt lat="43.2123433" lon="12.8951133"><ele>968.0</ele><time>2026-04-18T09:57:23.045Z</time></trkpt><trkpt lat="43.2122767" lon="12.895135"><ele>968.0000000000001</ele><time>2026-04-18T09:57:24.044Z</time></trkpt><trkpt lat="43.2122133" lon="12.8951417"><ele>968.0</ele><time>2026-04-18T09:57:25.045Z</time></trkpt><trkpt lat="43.2120867" lon="12.8951167"><ele>970.3333333333334</ele><time>2026-04-18T09:57:27.044Z</time></trkpt><trkpt lat="43.2120133" lon="12.8950833"><ele>972.6666666666667</ele><time>2026-04-18T09:57:28.044Z</time></trkpt><trkpt lat="43.2119383" lon="12.8950467"><ele>975.0</ele><time>2026-04-18T09:57:29.044Z</time></trkpt><trkpt lat="43.2118667" lon="12.8950217"><ele>977.3333333333333</ele><time>2026-04-18T09:57:30.044Z</time></trkpt><trkpt lat="43.211795" lon="12.8950133"><ele>979.6666666666666</ele><time>2026-04-18T09:57:31.044Z</time></trkpt><trkpt lat="43.2117183" lon="12.8950183"><ele>982.0</ele><time>2026-04-18T09:57:32.045Z</time></trkpt><trkpt lat="43.2116417" lon="12.8950283"><ele>981.9999999999999</ele><time>2026-04-18T09:57:33.044Z</time></trkpt><trkpt lat="43.2115667" lon="12.8950417"><ele>982.0</ele><time>2026-04-18T09:57:34.045Z</time></trkpt><trkpt lat="43.2114983" lon="12.8950517"><ele>982.0</ele><time>2026-04-18T09:57:35.045Z</time></trkpt><trkpt lat="43.2114217" lon="12.8950617"><ele>982.0</ele><time>2026-04-18T09:57:36.044Z</time></trkpt><trkpt lat="43.211345" lon="12.89508"><ele>981.9999999999999</ele><time>2026-04-18T09:57:37.044Z</time></trkpt><trkpt lat="43.2112683" lon="12.89511"><ele>982.0</ele><time>2026-04-18T09:57:38.044Z</time></trkpt><trkpt lat="43.211195" lon="12.8951333"><ele>979.7142857142857</ele><time>2026-04-18T09:57:39.044Z</time></trkpt><trkpt lat="43.2111233" lon="12.89515"><ele>977.4285714285713</ele><time>2026-04-18T09:57:40.044Z</time></trkpt><trkpt lat="43.21105" lon="12.895165"><ele>975.1428571428571</ele><time>2026-04-18T09:57:41.044Z</time></trkpt><trkpt lat="43.2109817" lon="12.8951833"><ele>972.8571428571429</ele><time>2026-04-18T09:57:42.044Z</time></trkpt><trkpt lat="43.2109083" lon="12.89519"><ele>970.5714285714286</ele><time>2026-04-18T09:57:43.044Z</time></trkpt><trkpt lat="43.2108333" lon="12.89519"><ele>968.2857142857142</ele><time>2026-04-18T09:57:44.044Z</time></trkpt><trkpt lat="43.2107583" lon="12.8951883"><ele>966.0</ele><time>2026-04-18T09:57:45.044Z</time></trkpt><trkpt lat="43.2106817" lon="12.895185"><ele>969.6666666666666</ele><time>2026-04-18T09:57:46.044Z</time></trkpt><trkpt lat="43.21061" lon="12.89517"><ele>973.3333333333333</ele><time>2026-04-18T09:57:47.044Z</time></trkpt><trkpt lat="43.2105233" lon="12.89518"><ele>977.0</ele><time>2026-04-18T09:57:48.044Z</time></trkpt><trkpt lat="43.210435" lon="12.8951833"><ele>980.6666666666666</ele><time>2026-04-18T09:57:49.044Z</time></trkpt><trkpt lat="43.21035" lon="12.895185"><ele>984.3333333333333</ele><time>2026-04-18T09:57:50.044Z</time></trkpt><trkpt lat="43.2102683" lon="12.8951917"><ele>988.0</ele><time>2026-04-18T09:57:51.044Z</time></trkpt><trkpt lat="43.2101883" lon="12.8952017"><ele>988.0</ele><time>2026-04-18T09:57:52.045Z</time></trkpt><trkpt lat="43.2101083" lon="12.8952267"><ele>988.0</ele><time>2026-04-18T09:57:53.045Z</time></trkpt><trkpt lat="43.2100317" lon="12.8952533"><ele>988.0</ele><time>2026-04-18T09:57:54.044Z</time></trkpt><trkpt lat="43.20996" lon="12.89528"><ele>988.0</ele><time>2026-04-18T09:57:55.044Z</time></trkpt><trkpt lat="43.2098967" lon="12.8953083"><ele>988.0</ele><time>2026-04-18T09:57:56.044Z</time></trkpt><trkpt lat="43.2098283" lon="12.8953417"><ele>988.0</ele><time>2026-04-18T09:57:57.044Z</time></trkpt><trkpt lat="43.2097617" lon="12.895385"><ele>988.0</ele><time>2026-04-18T09:57:58.044Z</time></trkpt><trkpt lat="43.2097" lon="12.8954533"><ele>991.7142857142858</ele><time>2026-04-18T09:57:59.045Z</time></trkpt><trkpt lat="43.209655" lon="12.8955267"><ele>995.4285714285713</ele><time>2026-04-18T09:58:00.044Z</time></trkpt><trkpt lat="43.2096217" lon="12.8956167"><ele>999.1428571428571</ele><time>2026-04-18T09:58:01.044Z</time></trkpt><trkpt lat="43.2096017" lon="12.8957117"><ele>1002.8571428571429</ele><time>2026-04-18T09:58:02.044Z</time></trkpt><trkpt lat="43.2095917" lon="12.8958033"><ele>1006.5714285714287</ele><time>2026-04-18T09:58:03.044Z</time></trkpt><trkpt lat="43.2095983" lon="12.895905"><ele>1010.2857142857142</ele><time>2026-04-18T09:58:04.044Z</time></trkpt><trkpt lat="43.2096067" lon="12.896"><ele>1014.0</ele><time>2026-04-18T09:58:05.044Z</time></trkpt><trkpt lat="43.2096233" lon="12.8960883"><ele>1014.0</ele><time>2026-04-18T09:58:06.044Z</time></trkpt><trkpt lat="43.2096433" lon="12.8961883"><ele>1014.0</ele><time>2026-04-18T09:58:07.044Z</time></trkpt><trkpt lat="43.2096683" lon="12.8962867"><ele>1014.0</ele><time>2026-04-18T09:58:08.045Z</time></trkpt><trkpt lat="43.2097033" lon="12.8963867"><ele>1014.0</ele><time>2026-04-18T09:58:09.044Z</time></trkpt><trkpt lat="43.20975" lon="12.8964817"><ele>1014.0</ele><time>2026-04-18T09:58:10.044Z</time></trkpt><trkpt lat="43.2098" lon="12.8965717"><ele>1014.0</ele><time>2026-04-18T09:58:11.045Z</time></trkpt><trkpt lat="43.2098333" lon="12.896665"><ele>1012.3333333333334</ele><time>2026-04-18T09:58:12.044Z</time></trkpt><trkpt lat="43.2098683" lon="12.8967667"><ele>1010.6666666666667</ele><time>2026-04-18T09:58:13.044Z</time></trkpt><trkpt lat="43.2099017" lon="12.8968633"><ele>1009.0</ele><time>2026-04-18T09:58:14.045Z</time></trkpt><trkpt lat="43.2099317" lon="12.896965"><ele>1007.3333333333334</ele><time>2026-04-18T09:58:15.045Z</time></trkpt><trkpt lat="43.2099567" lon="12.8970617"><ele>1005.6666666666667</ele><time>2026-04-18T09:58:16.044Z</time></trkpt><trkpt lat="43.209985" lon="12.8971483"><ele>1004.0</ele><time>2026-04-18T09:58:17.045Z</time></trkpt><trkpt lat="43.2099917" lon="12.8972917"><ele>1004.0</ele><time>2026-04-18T09:58:19.044Z</time></trkpt><trkpt lat="43.2099833" lon="12.89742"><ele>1004.0000000000001</ele><time>2026-04-18T09:58:21.044Z</time></trkpt><trkpt lat="43.2099633" lon="12.89758"><ele>1004.0000000000001</ele><time>2026-04-18T09:58:23.044Z</time></trkpt><trkpt lat="43.2099317" lon="12.8976967"><ele>1004.0</ele><time>2026-04-18T09:58:25.044Z</time></trkpt><trkpt lat="43.20989" lon="12.8978"><ele>1004.0</ele><time>2026-04-18T09:58:27.044Z</time></trkpt><trkpt lat="43.2098533" lon="12.8979233"><ele>1002.6</ele><time>2026-04-18T09:58:29.045Z</time></trkpt><trkpt lat="43.2098233" lon="12.8980583"><ele>1001.2</ele><time>2026-04-18T09:58:31.044Z</time></trkpt><trkpt lat="43.2098" lon="12.89821"><ele>999.8000000000001</ele><time>2026-04-18T09:58:33.044Z</time></trkpt><trkpt lat="43.2097867" lon="12.89836"><ele>998.4000000000001</ele><time>2026-04-18T09:58:35.045Z</time></trkpt><trkpt lat="43.20975" lon="12.8984633"><ele>997.0</ele><time>2026-04-18T09:58:37.044Z</time></trkpt><trkpt lat="43.2096883" lon="12.8985"><ele>1003.4000000000001</ele><time>2026-04-18T09:58:39.044Z</time></trkpt><trkpt lat="43.2095983" lon="12.8984983"><ele>1009.8000000000001</ele><time>2026-04-18T09:58:41.044Z</time></trkpt><trkpt lat="43.2095017" lon="12.8984817"><ele>1016.2</ele><time>2026-04-18T09:58:43.044Z</time></trkpt><trkpt lat="43.2094017" lon="12.8984817"><ele>1022.6</ele><time>2026-04-18T09:58:45.044Z</time></trkpt><trkpt lat="43.2093117" lon="12.8985033"><ele>1029.0</ele><time>2026-04-18T09:58:47.044Z</time></trkpt><trkpt lat="43.2092133" lon="12.8985083"><ele>1029.0</ele><time>2026-04-18T09:58:49.044Z</time></trkpt><trkpt lat="43.2091483" lon="12.8985083"><ele>1029.0</ele><time>2026-04-18T09:58:51.045Z</time></trkpt><trkpt lat="43.2090435" lon="12.8984954"><ele>1029.0</ele><time>2026-04-18T09:59:29.046Z</time></trkpt><trkpt lat="43.2089803" lon="12.8985036"><ele>1029.0</ele><time>2026-04-18T09:59:34.097Z</time></trkpt><trkpt lat="43.2090906" lon="12.8984577"><ele>1029.0</ele><time>2026-04-18T09:59:38.044Z</time></trkpt><trkpt lat="43.2091616" lon="12.8984431"><ele>1029.0</ele><time>2026-04-18T09:59:39.043Z</time></trkpt><trkpt lat="43.2092372" lon="12.8984443"><ele>1029.0</ele><time>2026-04-18T09:59:40.044Z</time></trkpt><trkpt lat="43.2093209" lon="12.8984504"><ele>1029.0</ele><time>2026-04-18T09:59:41.044Z</time></trkpt><trkpt lat="43.2094118" lon="12.898456"><ele>1029.0</ele><time>2026-04-18T09:59:42.043Z</time></trkpt><trkpt lat="43.2095045" lon="12.8984649"><ele>1029.0</ele><time>2026-04-18T09:59:43.043Z</time></trkpt><trkpt lat="43.2095953" lon="12.8984837"><ele>1029.0</ele><time>2026-04-18T09:59:44.043Z</time></trkpt><trkpt lat="43.2096719" lon="12.8984895"><ele>1029.0</ele><time>2026-04-18T09:59:45.043Z</time></trkpt><trkpt lat="43.2097352" lon="12.8984705"><ele>1025.6666666666667</ele><time>2026-04-18T09:59:46.043Z</time></trkpt><trkpt lat="43.2098226" lon="12.8983789"><ele>1022.3333333333333</ele><time>2026-04-18T09:59:48.043Z</time></trkpt><trkpt lat="43.2098432" lon="12.8982237"><ele>1019.0</ele><time>2026-04-18T09:59:50.043Z</time></trkpt><trkpt lat="43.209842" lon="12.8981299"><ele>1015.6666666666666</ele><time>2026-04-18T09:59:51.043Z</time></trkpt><trkpt lat="43.2098457" lon="12.8980362"><ele>1012.3333333333333</ele><time>2026-04-18T09:59:52.043Z</time></trkpt><trkpt lat="43.2098596" lon="12.8979444"><ele>1009.0</ele><time>2026-04-18T09:59:53.043Z</time></trkpt><trkpt lat="43.2098852" lon="12.8978502"><ele>1009.0</ele><time>2026-04-18T09:59:54.044Z</time></trkpt><trkpt lat="43.209915" lon="12.897765"><ele>1009.0000000000001</ele><time>2026-04-18T09:59:55.044Z</time></trkpt><trkpt lat="43.209965" lon="12.8976417"><ele>1009.0000000000001</ele><time>2026-04-18T09:59:57.043Z</time></trkpt><trkpt lat="43.2099883" lon="12.897515"><ele>1009.0</ele><time>2026-04-18T09:59:59.044Z</time></trkpt><trkpt lat="43.2099883" lon="12.89734"><ele>1009.0</ele><time>2026-04-18T10:00:01.043Z</time></trkpt><trkpt lat="43.2099817" lon="12.897175"><ele>1008.2857142857143</ele><time>2026-04-18T10:00:03.043Z</time></trkpt><trkpt lat="43.2099683" lon="12.8970867"><ele>1007.5714285714284</ele><time>2026-04-18T10:00:04.043Z</time></trkpt><trkpt lat="43.2099517" lon="12.8970017"><ele>1006.8571428571428</ele><time>2026-04-18T10:00:05.043Z</time></trkpt><trkpt lat="43.2099167" lon="12.89691"><ele>1006.1428571428571</ele><time>2026-04-18T10:00:06.043Z</time></trkpt><trkpt lat="43.2098767" lon="12.896815"><ele>1005.4285714285713</ele><time>2026-04-18T10:00:07.044Z</time></trkpt><trkpt lat="43.209835" lon="12.8967217"><ele>1004.7142857142856</ele><time>2026-04-18T10:00:08.044Z</time></trkpt><trkpt lat="43.2097967" lon="12.896635"><ele>1003.9999999999999</ele><time>2026-04-18T10:00:09.043Z</time></trkpt><trkpt lat="43.2097633" lon="12.8965533"><ele>1005.4285714285713</ele><time>2026-04-18T10:00:10.043Z</time></trkpt><trkpt lat="43.2097317" lon="12.896455"><ele>1006.8571428571429</ele><time>2026-04-18T10:00:11.043Z</time></trkpt><trkpt lat="43.2097083" lon="12.8963617"><ele>1008.2857142857142</ele><time>2026-04-18T10:00:12.044Z</time></trkpt><trkpt lat="43.2096767" lon="12.8962667"><ele>1009.7142857142857</ele><time>2026-04-18T10:00:13.043Z</time></trkpt><trkpt lat="43.20965" lon="12.8961683"><ele>1011.1428571428571</ele><time>2026-04-18T10:00:14.044Z</time></trkpt><trkpt lat="43.2096267" lon="12.8960733"><ele>1012.5714285714286</ele><time>2026-04-18T10:00:15.043Z</time></trkpt><trkpt lat="43.209615" lon="12.8959817"><ele>1014.0</ele><time>2026-04-18T10:00:16.043Z</time></trkpt><trkpt lat="43.2096083" lon="12.8958917"><ele>1015.8571428571429</ele><time>2026-04-18T10:00:17.043Z</time></trkpt><trkpt lat="43.209605" lon="12.8957967"><ele>1017.7142857142858</ele><time>2026-04-18T10:00:18.043Z</time></trkpt><trkpt lat="43.2096117" lon="12.895705"><ele>1019.5714285714287</ele><time>2026-04-18T10:00:19.043Z</time></trkpt><trkpt lat="43.20963" lon="12.8956167"><ele>1021.4285714285714</ele><time>2026-04-18T10:00:20.043Z</time></trkpt><trkpt lat="43.209655" lon="12.895535"><ele>1023.2857142857144</ele><time>2026-04-18T10:00:21.043Z</time></trkpt><trkpt lat="43.20969" lon="12.8954583"><ele>1025.142857142857</ele><time>2026-04-18T10:00:22.043Z</time></trkpt><trkpt lat="43.2097383" lon="12.895395"><ele>1027.0</ele><time>2026-04-18T10:00:23.043Z</time></trkpt><trkpt lat="43.2097917" lon="12.8953417"><ele>1021.4285714285714</ele><time>2026-04-18T10:00:24.043Z</time></trkpt><trkpt lat="43.2098517" lon="12.895305"><ele>1015.8571428571429</ele><time>2026-04-18T10:00:25.043Z</time></trkpt><trkpt lat="43.2099167" lon="12.8952767"><ele>1010.2857142857143</ele><time>2026-04-18T10:00:26.043Z</time></trkpt><trkpt lat="43.2099867" lon="12.8952483"><ele>1004.7142857142858</ele><time>2026-04-18T10:00:27.043Z</time></trkpt><trkpt lat="43.210065" lon="12.8952167"><ele>999.1428571428571</ele><time>2026-04-18T10:00:28.043Z</time></trkpt><trkpt lat="43.2101433" lon="12.8951983"><ele>993.5714285714287</ele><time>2026-04-18T10:00:29.043Z</time></trkpt><trkpt lat="43.2102217" lon="12.8951833"><ele>988.0</ele><time>2026-04-18T10:00:30.043Z</time></trkpt><trkpt lat="43.2102933" lon="12.8951733"><ele>988.0</ele><time>2026-04-18T10:00:31.043Z</time></trkpt><trkpt lat="43.210365" lon="12.8951733"><ele>988.0</ele><time>2026-04-18T10:00:32.044Z</time></trkpt><trkpt lat="43.2104433" lon="12.89517"><ele>988.0</ele><time>2026-04-18T10:00:33.043Z</time></trkpt><trkpt lat="43.2105217" lon="12.8951683"><ele>988.0</ele><time>2026-04-18T10:00:34.043Z</time></trkpt><trkpt lat="43.2106" lon="12.8951767"><ele>988.0</ele><time>2026-04-18T10:00:35.043Z</time></trkpt><trkpt lat="43.21067" lon="12.8951783"><ele>988.0</ele><time>2026-04-18T10:00:36.043Z</time></trkpt><trkpt lat="43.2107383" lon="12.895185"><ele>988.0</ele><time>2026-04-18T10:00:37.043Z</time></trkpt><trkpt lat="43.210805" lon="12.895195"><ele>989.4999999999999</ele><time>2026-04-18T10:00:38.043Z</time></trkpt><trkpt lat="43.210935" lon="12.89519"><ele>991.0</ele><time>2026-04-18T10:00:40.043Z</time></trkpt><trkpt lat="43.2109983" lon="12.8951833"><ele>992.5</ele><time>2026-04-18T10:00:41.043Z</time></trkpt><trkpt lat="43.2110667" lon="12.8951567"><ele>994.0</ele><time>2026-04-18T10:00:42.043Z</time></trkpt><trkpt lat="43.2111383" lon="12.8951333"><ele>995.4999999999999</ele><time>2026-04-18T10:00:43.043Z</time></trkpt><trkpt lat="43.2112117" lon="12.8951033"><ele>997.0</ele><time>2026-04-18T10:00:44.043Z</time></trkpt><trkpt lat="43.21128" lon="12.8950817"><ele>996.9999999999999</ele><time>2026-04-18T10:00:45.043Z</time></trkpt><trkpt lat="43.21135" lon="12.8950667"><ele>997.0</ele><time>2026-04-18T10:00:46.043Z</time></trkpt><trkpt lat="43.2114217" lon="12.8950417"><ele>997.0</ele><time>2026-04-18T10:00:47.043Z</time></trkpt><trkpt lat="43.2114883" lon="12.8950217"><ele>997.0</ele><time>2026-04-18T10:00:48.043Z</time></trkpt><trkpt lat="43.211555" lon="12.8950083"><ele>996.9999999999999</ele><time>2026-04-18T10:00:49.043Z</time></trkpt><trkpt lat="43.2116633" lon="12.8950017"><ele>997.0</ele><time>2026-04-18T10:00:51.044Z</time></trkpt><trkpt lat="43.2117833" lon="12.8950033"><ele>994.4999999999999</ele><time>2026-04-18T10:00:53.043Z</time></trkpt><trkpt lat="43.2118533" lon="12.895015"><ele>992.0</ele><time>2026-04-18T10:00:54.043Z</time></trkpt><trkpt lat="43.21192" lon="12.8950283"><ele>989.5</ele><time>2026-04-18T10:00:55.043Z</time></trkpt><trkpt lat="43.211985" lon="12.89506"><ele>987.0</ele><time>2026-04-18T10:00:56.043Z</time></trkpt><trkpt lat="43.21205" lon="12.8950917"><ele>984.4999999999999</ele><time>2026-04-18T10:00:57.043Z</time></trkpt><trkpt lat="43.2121117" lon="12.8951167"><ele>982.0</ele><time>2026-04-18T10:00:58.043Z</time></trkpt><trkpt lat="43.2122333" lon="12.8951317"><ele>979.6666666666666</ele><time>2026-04-18T10:01:00.043Z</time></trkpt><trkpt lat="43.212355" lon="12.8951017"><ele>977.3333333333333</ele><time>2026-04-18T10:01:02.043Z</time></trkpt><trkpt lat="43.21242" lon="12.8950767"><ele>975.0</ele><time>2026-04-18T10:01:03.043Z</time></trkpt><trkpt lat="43.2124833" lon="12.895045"><ele>972.6666666666667</ele><time>2026-04-18T10:01:04.043Z</time></trkpt><trkpt lat="43.212595" lon="12.8949717"><ele>970.3333333333334</ele><time>2026-04-18T10:01:06.043Z</time></trkpt><trkpt lat="43.2126467" lon="12.8949217"><ele>968.0</ele><time>2026-04-18T10:01:07.043Z</time></trkpt><trkpt lat="43.2127033" lon="12.894875"><ele>968.0</ele><time>2026-04-18T10:01:08.043Z</time></trkpt><trkpt lat="43.21281" lon="12.8947767"><ele>968.0</ele><time>2026-04-18T10:01:10.043Z</time></trkpt><trkpt lat="43.2129067" lon="12.89468"><ele>968.0</ele><time>2026-04-18T10:01:12.043Z</time></trkpt><trkpt lat="43.2130117" lon="12.8945817"><ele>968.0</ele><time>2026-04-18T10:01:14.043Z</time></trkpt><trkpt lat="43.2130717" lon="12.8945283"><ele>968.0</ele><time>2026-04-18T10:01:15.043Z</time></trkpt><trkpt lat="43.2131267" lon="12.89447"><ele>968.1666666666667</ele><time>2026-04-18T10:01:16.043Z</time></trkpt><trkpt lat="43.2131833" lon="12.8944083"><ele>968.3333333333334</ele><time>2026-04-18T10:01:17.043Z</time></trkpt><trkpt lat="43.2132267" lon="12.8943417"><ele>968.5</ele><time>2026-04-18T10:01:18.043Z</time></trkpt><trkpt lat="43.2132717" lon="12.8942583"><ele>968.6666666666667</ele><time>2026-04-18T10:01:19.043Z</time></trkpt><trkpt lat="43.2133017" lon="12.8941783"><ele>968.8333333333334</ele><time>2026-04-18T10:01:20.043Z</time></trkpt><trkpt lat="43.213325" lon="12.8940233"><ele>969.0</ele><time>2026-04-18T10:01:22.043Z</time></trkpt><trkpt lat="43.2133317" lon="12.8939083"><ele>969.2</ele><time>2026-04-18T10:01:24.043Z</time></trkpt><trkpt lat="43.2134017" lon="12.8938667"><ele>969.4000000000001</ele><time>2026-04-18T10:01:27.043Z</time></trkpt><trkpt lat="43.2134717" lon="12.89395"><ele>969.6</ele><time>2026-04-18T10:01:29.043Z</time></trkpt><trkpt lat="43.2135517" lon="12.8940883"><ele>969.8</ele><time>2026-04-18T10:01:31.044Z</time></trkpt><trkpt lat="43.213615" lon="12.8941517"><ele>970.0</ele><time>2026-04-18T10:01:32.044Z</time></trkpt><trkpt lat="43.2136817" lon="12.89421"><ele>969.8333333333333</ele><time>2026-04-18T10:01:33.043Z</time></trkpt><trkpt lat="43.2137567" lon="12.8942617"><ele>969.6666666666666</ele><time>2026-04-18T10:01:34.043Z</time></trkpt><trkpt lat="43.2138317" lon="12.894305"><ele>969.5</ele><time>2026-04-18T10:01:35.044Z</time></trkpt><trkpt lat="43.21391" lon="12.8943467"><ele>969.3333333333333</ele><time>2026-04-18T10:01:36.043Z</time></trkpt><trkpt lat="43.21399" lon="12.8943867"><ele>969.1666666666666</ele><time>2026-04-18T10:01:37.043Z</time></trkpt><trkpt lat="43.214075" lon="12.894425"><ele>969.0</ele><time>2026-04-18T10:01:38.044Z</time></trkpt><trkpt lat="43.21416" lon="12.894455"><ele>968.5</ele><time>2026-04-18T10:01:39.043Z</time></trkpt><trkpt lat="43.2142417" lon="12.8944767"><ele>968.0</ele><time>2026-04-18T10:01:40.043Z</time></trkpt><trkpt lat="43.2143183" lon="12.8944883"><ele>967.5</ele><time>2026-04-18T10:01:41.043Z</time></trkpt><trkpt lat="43.2143883" lon="12.894485"><ele>967.0</ele><time>2026-04-18T10:01:42.044Z</time></trkpt><trkpt lat="43.2144667" lon="12.8944833"><ele>966.5</ele><time>2026-04-18T10:01:43.044Z</time></trkpt><trkpt lat="43.2145483" lon="12.89448"><ele>966.0</ele><time>2026-04-18T10:01:44.043Z</time></trkpt><trkpt lat="43.2146333" lon="12.8944683"><ele>966.0</ele><time>2026-04-18T10:01:45.043Z</time></trkpt><trkpt lat="43.2147167" lon="12.89444"><ele>965.9999999999999</ele><time>2026-04-18T10:01:46.043Z</time></trkpt><trkpt lat="43.2148067" lon="12.8944083"><ele>965.9999999999999</ele><time>2026-04-18T10:01:47.043Z</time></trkpt><trkpt lat="43.2149" lon="12.89437"><ele>966.0</ele><time>2026-04-18T10:01:48.043Z</time></trkpt><trkpt lat="43.2149967" lon="12.8943283"><ele>966.0</ele><time>2026-04-18T10:01:49.044Z</time></trkpt><trkpt lat="43.2150817" lon="12.8942933"><ele>967.0</ele><time>2026-04-18T10:01:50.043Z</time></trkpt><trkpt lat="43.215165" lon="12.8942633"><ele>968.0</ele><time>2026-04-18T10:01:51.043Z</time></trkpt><trkpt lat="43.2152483" lon="12.8942167"><ele>969.0</ele><time>2026-04-18T10:01:52.043Z</time></trkpt><trkpt lat="43.2153283" lon="12.894175"><ele>970.0</ele><time>2026-04-18T10:01:53.043Z</time></trkpt><trkpt lat="43.2154117" lon="12.89413"><ele>971.0</ele><time>2026-04-18T10:01:54.044Z</time></trkpt><trkpt lat="43.2154867" lon="12.89409"><ele>972.0</ele><time>2026-04-18T10:01:55.043Z</time></trkpt><trkpt lat="43.2155583" lon="12.8940483"><ele>973.0</ele><time>2026-04-18T10:01:56.044Z</time></trkpt><trkpt lat="43.215625" lon="12.8939983"><ele>974.0</ele><time>2026-04-18T10:01:57.043Z</time></trkpt><trkpt lat="43.2156967" lon="12.8939383"><ele>975.0</ele><time>2026-04-18T10:01:58.044Z</time></trkpt><trkpt lat="43.21577" lon="12.893895"><ele>976.0</ele><time>2026-04-18T10:01:59.043Z</time></trkpt><trkpt lat="43.2158467" lon="12.89385"><ele>977.0</ele><time>2026-04-18T10:02:00.043Z</time></trkpt><trkpt lat="43.215925" lon="12.89382"><ele>978.0</ele><time>2026-04-18T10:02:01.043Z</time></trkpt><trkpt lat="43.2160083" lon="12.8937867"><ele>978.8</ele><time>2026-04-18T10:02:02.043Z</time></trkpt><trkpt lat="43.2160933" lon="12.893755"><ele>979.5999999999999</ele><time>2026-04-18T10:02:03.043Z</time></trkpt><trkpt lat="43.2161833" lon="12.89372"><ele>980.4000000000001</ele><time>2026-04-18T10:02:04.043Z</time></trkpt><trkpt lat="43.216275" lon="12.893695"><ele>981.2</ele><time>2026-04-18T10:02:05.043Z</time></trkpt><trkpt lat="43.2163617" lon="12.8936667"><ele>982.0</ele><time>2026-04-18T10:02:06.043Z</time></trkpt><trkpt lat="43.2164583" lon="12.89363"><ele>981.8</ele><time>2026-04-18T10:02:07.043Z</time></trkpt><trkpt lat="43.2165533" lon="12.8935967"><ele>981.6</ele><time>2026-04-18T10:02:08.043Z</time></trkpt><trkpt lat="43.2166433" lon="12.893565"><ele>981.3999999999999</ele><time>2026-04-18T10:02:09.043Z</time></trkpt><trkpt lat="43.2167317" lon="12.89353"><ele>981.1999999999999</ele><time>2026-04-18T10:02:10.043Z</time></trkpt><trkpt lat="43.2168217" lon="12.8934867"><ele>981.0</ele><time>2026-04-18T10:02:11.044Z</time></trkpt><trkpt lat="43.2169083" lon="12.8934367"><ele>980.4</ele><time>2026-04-18T10:02:12.043Z</time></trkpt><trkpt lat="43.217" lon="12.8933817"><ele>979.8</ele><time>2026-04-18T10:02:13.043Z</time></trkpt><trkpt lat="43.2170883" lon="12.8933267"><ele>979.1999999999999</ele><time>2026-04-18T10:02:14.043Z</time></trkpt><trkpt lat="43.2171733" lon="12.89327"><ele>978.5999999999999</ele><time>2026-04-18T10:02:15.043Z</time></trkpt><trkpt lat="43.2172517" lon="12.8932117"><ele>978.0</ele><time>2026-04-18T10:02:16.043Z</time></trkpt><trkpt lat="43.2173317" lon="12.8931533"><ele>979.5999999999999</ele><time>2026-04-18T10:02:17.043Z</time></trkpt><trkpt lat="43.2174117" lon="12.89309"><ele>981.1999999999999</ele><time>2026-04-18T10:02:18.043Z</time></trkpt><trkpt lat="43.217495" lon="12.8930217"><ele>982.8</ele><time>2026-04-18T10:02:19.043Z</time></trkpt><trkpt lat="43.21757" lon="12.8929517"><ele>984.4</ele><time>2026-04-18T10:02:20.043Z</time></trkpt><trkpt lat="43.21764" lon="12.892875"><ele>986.0</ele><time>2026-04-18T10:02:21.043Z</time></trkpt><trkpt lat="43.2177083" lon="12.8928017"><ele>986.0</ele><time>2026-04-18T10:02:22.043Z</time></trkpt><trkpt lat="43.2177767" lon="12.8927217"><ele>985.9999999999999</ele><time>2026-04-18T10:02:23.043Z</time></trkpt><trkpt lat="43.21785" lon="12.8926417"><ele>985.9999999999999</ele><time>2026-04-18T10:02:24.043Z</time></trkpt><trkpt lat="43.2179233" lon="12.8925683"><ele>986.0</ele><time>2026-04-18T10:02:25.043Z</time></trkpt><trkpt lat="43.218" lon="12.8924933"><ele>986.0</ele><time>2026-04-18T10:02:26.043Z</time></trkpt><trkpt lat="43.2180817" lon="12.89242"><ele>986.8</ele><time>2026-04-18T10:02:27.043Z</time></trkpt><trkpt lat="43.2181633" lon="12.892345"><ele>987.5999999999999</ele><time>2026-04-18T10:02:28.044Z</time></trkpt><trkpt lat="43.2182417" lon="12.8922783"><ele>988.4</ele><time>2026-04-18T10:02:29.043Z</time></trkpt><trkpt lat="43.2183217" lon="12.8922217"><ele>989.2</ele><time>2026-04-18T10:02:30.043Z</time></trkpt><trkpt lat="43.2183983" lon="12.8921617"><ele>990.0</ele><time>2026-04-18T10:02:31.043Z</time></trkpt><trkpt lat="43.2184667" lon="12.8920983"><ele>990.0</ele><time>2026-04-18T10:02:32.043Z</time></trkpt><trkpt lat="43.218535" lon="12.8920267"><ele>990.0</ele><time>2026-04-18T10:02:33.043Z</time></trkpt><trkpt lat="43.218605" lon="12.8919567"><ele>990.0</ele><time>2026-04-18T10:02:34.043Z</time></trkpt><trkpt lat="43.21868" lon="12.8918883"><ele>990.0</ele><time>2026-04-18T10:02:35.043Z</time></trkpt><trkpt lat="43.2187533" lon="12.8918283"><ele>990.0</ele><time>2026-04-18T10:02:36.043Z</time></trkpt><trkpt lat="43.2188283" lon="12.8917833"><ele>990.0</ele><time>2026-04-18T10:02:37.043Z</time></trkpt><trkpt lat="43.2188983" lon="12.8917567"><ele>990.5</ele><time>2026-04-18T10:02:38.043Z</time></trkpt><trkpt lat="43.2189683" lon="12.8917333"><ele>991.0</ele><time>2026-04-18T10:02:39.043Z</time></trkpt><trkpt lat="43.2190433" lon="12.89172"><ele>991.5</ele><time>2026-04-18T10:02:40.043Z</time></trkpt><trkpt lat="43.2191167" lon="12.8917033"><ele>992.0</ele><time>2026-04-18T10:02:41.044Z</time></trkpt><trkpt lat="43.21919" lon="12.891695"><ele>992.5</ele><time>2026-04-18T10:02:42.044Z</time></trkpt><trkpt lat="43.2192967" lon="12.8916983"><ele>993.0</ele><time>2026-04-18T10:02:44.043Z</time></trkpt><trkpt lat="43.2194117" lon="12.8917233"><ele>992.8</ele><time>2026-04-18T10:02:46.043Z</time></trkpt><trkpt lat="43.219535" lon="12.8917383"><ele>992.5999999999999</ele><time>2026-04-18T10:02:48.043Z</time></trkpt><trkpt lat="43.2196467" lon="12.8917717"><ele>992.4000000000001</ele><time>2026-04-18T10:02:50.043Z</time></trkpt><trkpt lat="43.2197367" lon="12.8917933"><ele>992.2</ele><time>2026-04-18T10:02:52.043Z</time></trkpt><trkpt lat="43.219845" lon="12.8918133"><ele>992.0</ele><time>2026-04-18T10:02:54.044Z</time></trkpt><trkpt lat="43.2199483" lon="12.8918317"><ele>994.5000000000001</ele><time>2026-04-18T10:02:56.044Z</time></trkpt><trkpt lat="43.2200667" lon="12.8918533"><ele>997.0</ele><time>2026-04-18T10:02:58.044Z</time></trkpt><trkpt lat="43.2201933" lon="12.8918717"><ele>999.5</ele><time>2026-04-18T10:03:00.043Z</time></trkpt><trkpt lat="43.2202567" lon="12.8918833"><ele>1002.0</ele><time>2026-04-18T10:03:01.044Z</time></trkpt><trkpt lat="43.2203233" lon="12.891895"><ele>1004.5000000000001</ele><time>2026-04-18T10:03:02.043Z</time></trkpt><trkpt lat="43.22039" lon="12.89191"><ele>1007.0</ele><time>2026-04-18T10:03:03.043Z</time></trkpt><trkpt lat="43.2204583" lon="12.8919283"><ele>1007.0</ele><time>2026-04-18T10:03:04.043Z</time></trkpt><trkpt lat="43.2205267" lon="12.8919433"><ele>1007.0</ele><time>2026-04-18T10:03:05.043Z</time></trkpt><trkpt lat="43.2206017" lon="12.89196"><ele>1007.0</ele><time>2026-04-18T10:03:06.043Z</time></trkpt><trkpt lat="43.2206733" lon="12.8919717"><ele>1007.0</ele><time>2026-04-18T10:03:07.043Z</time></trkpt><trkpt lat="43.220745" lon="12.8919783"><ele>1007.0</ele><time>2026-04-18T10:03:08.043Z</time></trkpt><trkpt lat="43.2208183" lon="12.891985"><ele>1007.0</ele><time>2026-04-18T10:03:09.043Z</time></trkpt><trkpt lat="43.22089" lon="12.8919933"><ele>1007.0</ele><time>2026-04-18T10:03:10.044Z</time></trkpt><trkpt lat="43.2209633" lon="12.8920017"><ele>1009.0</ele><time>2026-04-18T10:03:11.043Z</time></trkpt><trkpt lat="43.221035" lon="12.892005"><ele>1011.0</ele><time>2026-04-18T10:03:12.044Z</time></trkpt><trkpt lat="43.2211067" lon="12.8920017"><ele>1013.0</ele><time>2026-04-18T10:03:13.043Z</time></trkpt><trkpt lat="43.2211783" lon="12.8920183"><ele>1015.0</ele><time>2026-04-18T10:03:14.043Z</time></trkpt><trkpt lat="43.22124" lon="12.892045"><ele>1017.0</ele><time>2026-04-18T10:03:15.043Z</time></trkpt><trkpt lat="43.221305" lon="12.8920817"><ele>1019.0</ele><time>2026-04-18T10:03:16.043Z</time></trkpt><trkpt lat="43.2213683" lon="12.8921317"><ele>1021.0</ele><time>2026-04-18T10:03:17.043Z</time></trkpt><trkpt lat="43.2214367" lon="12.892195"><ele>1019.8571428571429</ele><time>2026-04-18T10:03:18.044Z</time></trkpt><trkpt lat="43.2215015" lon="12.8922574"><ele>1018.7142857142858</ele><time>2026-04-18T10:03:19.043Z</time></trkpt><trkpt lat="43.2215575" lon="12.8923168"><ele>1017.5714285714287</ele><time>2026-04-18T10:03:20.043Z</time></trkpt><trkpt lat="43.2216141" lon="12.8923705"><ele>1016.4285714285714</ele><time>2026-04-18T10:03:21.044Z</time></trkpt><trkpt lat="43.2216671" lon="12.8924298"><ele>1015.2857142857144</ele><time>2026-04-18T10:03:22.043Z</time></trkpt><trkpt lat="43.2217268" lon="12.8924935"><ele>1014.1428571428572</ele><time>2026-04-18T10:03:23.043Z</time></trkpt><trkpt lat="43.2217849" lon="12.8925531"><ele>1013.0</ele><time>2026-04-18T10:03:24.044Z</time></trkpt><trkpt lat="43.2218345" lon="12.8926072"><ele>1013.0000000000001</ele><time>2026-04-18T10:03:25.043Z</time></trkpt><trkpt lat="43.2219242" lon="12.8926784"><ele>1013.0</ele><time>2026-04-18T10:03:27.043Z</time></trkpt><trkpt lat="43.2219878" lon="12.8927227"><ele>1013.0</ele><time>2026-04-18T10:03:29.043Z</time></trkpt><trkpt lat="43.2220557" lon="12.8927543"><ele>1013.0</ele><time>2026-04-18T10:03:31.043Z</time></trkpt><trkpt lat="43.2221422" lon="12.8927846"><ele>1013.0000000000001</ele><time>2026-04-18T10:03:33.043Z</time></trkpt><trkpt lat="43.2222208" lon="12.892811"><ele>1013.0</ele><time>2026-04-18T10:03:35.043Z</time></trkpt><trkpt lat="43.2223002" lon="12.8928635"><ele>1013.0</ele><time>2026-04-18T10:03:37.043Z</time></trkpt><trkpt lat="43.2223611" lon="12.8929367"><ele>1013.0</ele><time>2026-04-18T10:03:39.044Z</time></trkpt><trkpt lat="43.2222841" lon="12.8928469"><ele>1013.0</ele><time>2026-04-18T10:04:01.043Z</time></trkpt><trkpt lat="43.2221967" lon="12.8928"><ele>1013.0</ele><time>2026-04-18T10:04:03.043Z</time></trkpt><trkpt lat="43.222115" lon="12.8927783"><ele>1013.0</ele><time>2026-04-18T10:04:05.043Z</time></trkpt><trkpt lat="43.2220217" lon="12.8927417"><ele>1013.0</ele><time>2026-04-18T10:04:07.044Z</time></trkpt><trkpt lat="43.2219083" lon="12.8926817"><ele>1013.0</ele><time>2026-04-18T10:04:09.043Z</time></trkpt><trkpt lat="43.2218083" lon="12.8925733"><ele>1013.0</ele><time>2026-04-18T10:04:11.043Z</time></trkpt><trkpt lat="43.2217517" lon="12.8925167"><ele>1013.0</ele><time>2026-04-18T10:04:12.043Z</time></trkpt><trkpt lat="43.2216917" lon="12.8924667"><ele>1013.0</ele><time>2026-04-18T10:04:13.044Z</time></trkpt><trkpt lat="43.221595" lon="12.8923617"><ele>1014.5999999999999</ele><time>2026-04-18T10:04:15.044Z</time></trkpt><trkpt lat="43.221515" lon="12.8922717"><ele>1016.1999999999999</ele><time>2026-04-18T10:04:17.043Z</time></trkpt><trkpt lat="43.2214283" lon="12.8922017"><ele>1017.8</ele><time>2026-04-18T10:04:19.043Z</time></trkpt><trkpt lat="43.2213467" lon="12.89213"><ele>1019.4</ele><time>2026-04-18T10:04:21.044Z</time></trkpt><trkpt lat="43.2212683" lon="12.8920783"><ele>1021.0</ele><time>2026-04-18T10:04:23.043Z</time></trkpt><trkpt lat="43.221185" lon="12.8920367"><ele>1020.9999999999999</ele><time>2026-04-18T10:04:25.044Z</time></trkpt><trkpt lat="43.2210917" lon="12.89202"><ele>1021.0</ele><time>2026-04-18T10:04:27.043Z</time></trkpt><trkpt lat="43.2210083" lon="12.89201"><ele>1021.0</ele><time>2026-04-18T10:04:29.043Z</time></trkpt><trkpt lat="43.2209183" lon="12.8919967"><ele>1021.0</ele><time>2026-04-18T10:04:31.043Z</time></trkpt><trkpt lat="43.2208317" lon="12.89198"><ele>1020.9999999999999</ele><time>2026-04-18T10:04:33.043Z</time></trkpt><trkpt lat="43.2207533" lon="12.89197"><ele>1021.0</ele><time>2026-04-18T10:04:35.043Z</time></trkpt><trkpt lat="43.220675" lon="12.89195"><ele>1020.1666666666666</ele><time>2026-04-18T10:04:37.043Z</time></trkpt><trkpt lat="43.22061" lon="12.89192"><ele>1019.3333333333333</ele><time>2026-04-18T10:04:39.043Z</time></trkpt><trkpt lat="43.2205267" lon="12.8918767"><ele>1018.5</ele><time>2026-04-18T10:04:42.044Z</time></trkpt><trkpt lat="43.220475" lon="12.8917767"><ele>1017.6666666666667</ele><time>2026-04-18T10:04:45.043Z</time></trkpt><trkpt lat="43.2204633" lon="12.8916867"><ele>1016.8333333333334</ele><time>2026-04-18T10:04:47.043Z</time></trkpt><trkpt lat="43.2204983" lon="12.8916067"><ele>1016.0</ele><time>2026-04-18T10:04:49.044Z</time></trkpt><trkpt lat="43.2205667" lon="12.89156"><ele>1016.0</ele><time>2026-04-18T10:04:51.043Z</time></trkpt><trkpt lat="43.2206217" lon="12.89146"><ele>1015.9999999999999</ele><time>2026-04-18T10:04:53.043Z</time></trkpt><trkpt lat="43.22066" lon="12.8913317"><ele>1015.9999999999999</ele><time>2026-04-18T10:04:55.043Z</time></trkpt><trkpt lat="43.2207033" lon="12.89121"><ele>1016.0</ele><time>2026-04-18T10:04:57.043Z</time></trkpt><trkpt lat="43.2207583" lon="12.8910817"><ele>1016.0</ele><time>2026-04-18T10:04:59.044Z</time></trkpt><trkpt lat="43.2208033" lon="12.8909583"><ele>1021.0</ele><time>2026-04-18T10:05:01.043Z</time></trkpt><trkpt lat="43.2208433" lon="12.8908367"><ele>1026.0</ele><time>2026-04-18T10:05:03.043Z</time></trkpt><trkpt lat="43.22088" lon="12.890715"><ele>1031.0</ele><time>2026-04-18T10:05:05.043Z</time></trkpt><trkpt lat="43.2209167" lon="12.890615"><ele>1036.0</ele><time>2026-04-18T10:05:07.043Z</time></trkpt><trkpt lat="43.2209917" lon="12.8905617"><ele>1041.0</ele><time>2026-04-18T10:05:09.043Z</time></trkpt><trkpt lat="43.221085" lon="12.8905467"><ele>1041.0</ele><time>2026-04-18T10:05:11.044Z</time></trkpt><trkpt lat="43.221185" lon="12.8905383"><ele>1041.0</ele><time>2026-04-18T10:05:13.043Z</time></trkpt><trkpt lat="43.2212833" lon="12.8905283"><ele>1041.0</ele><time>2026-04-18T10:05:15.042Z</time></trkpt><trkpt lat="43.22139" lon="12.8905133"><ele>1041.0</ele><time>2026-04-18T10:05:17.042Z</time></trkpt><trkpt lat="43.2215083" lon="12.8905067"><ele>1041.0</ele><time>2026-04-18T10:05:19.042Z</time></trkpt><trkpt lat="43.2216117" lon="12.8905133"><ele>1045.0</ele><time>2026-04-18T10:05:21.043Z</time></trkpt><trkpt lat="43.2217167" lon="12.890505"><ele>1049.0</ele><time>2026-04-18T10:05:23.042Z</time></trkpt><trkpt lat="43.22182" lon="12.890485"><ele>1053.0</ele><time>2026-04-18T10:05:25.042Z</time></trkpt><trkpt lat="43.2219183" lon="12.89046"><ele>1057.0</ele><time>2026-04-18T10:05:27.042Z</time></trkpt><trkpt lat="43.2220233" lon="12.89045"><ele>1061.0</ele><time>2026-04-18T10:05:29.043Z</time></trkpt><trkpt lat="43.222135" lon="12.890425"><ele>1061.0</ele><time>2026-04-18T10:05:31.042Z</time></trkpt><trkpt lat="43.2222533" lon="12.8904333"><ele>1061.0</ele><time>2026-04-18T10:05:33.042Z</time></trkpt><trkpt lat="43.2223617" lon="12.8904417"><ele>1061.0</ele><time>2026-04-18T10:05:35.042Z</time></trkpt><trkpt lat="43.2224683" lon="12.8904533"><ele>1061.0</ele><time>2026-04-18T10:05:37.042Z</time></trkpt><trkpt lat="43.2225783" lon="12.8904533"><ele>1061.0</ele><time>2026-04-18T10:05:39.042Z</time></trkpt><trkpt lat="43.2226917" lon="12.8904267"><ele>1065.75</ele><time>2026-04-18T10:05:41.042Z</time></trkpt><trkpt lat="43.222805" lon="12.8903933"><ele>1070.5</ele><time>2026-04-18T10:05:43.043Z</time></trkpt><trkpt lat="43.222915" lon="12.8903217"><ele>1075.25</ele><time>2026-04-18T10:05:45.042Z</time></trkpt><trkpt lat="43.2230183" lon="12.890265"><ele>1080.0</ele><time>2026-04-18T10:05:47.043Z</time></trkpt><trkpt lat="43.2231167" lon="12.8902167"><ele>1081.4</ele><time>2026-04-18T10:05:49.043Z</time></trkpt><trkpt lat="43.2232067" lon="12.890175"><ele>1082.8</ele><time>2026-04-18T10:05:51.042Z</time></trkpt><trkpt lat="43.22331" lon="12.8901133"><ele>1084.2</ele><time>2026-04-18T10:05:53.042Z</time></trkpt><trkpt lat="43.2234067" lon="12.8900467"><ele>1085.6</ele><time>2026-04-18T10:05:55.042Z</time></trkpt><trkpt lat="43.2234917" lon="12.88998"><ele>1087.0</ele><time>2026-04-18T10:05:57.042Z</time></trkpt><trkpt lat="43.2235517" lon="12.8899183"><ele>1087.0</ele><time>2026-04-18T10:05:59.042Z</time></trkpt><trkpt lat="43.2236117" lon="12.8898417"><ele>1087.0</ele><time>2026-04-18T10:06:01.042Z</time></trkpt><trkpt lat="43.223685" lon="12.8897583"><ele>1087.0</ele><time>2026-04-18T10:06:03.042Z</time></trkpt><trkpt lat="43.2237667" lon="12.8896717"><ele>1087.0</ele><time>2026-04-18T10:06:05.042Z</time></trkpt><trkpt lat="43.2238617" lon="12.8895717"><ele>1087.0</ele><time>2026-04-18T10:06:07.042Z</time></trkpt><trkpt lat="43.22396" lon="12.889475"><ele>1086.8</ele><time>2026-04-18T10:06:09.042Z</time></trkpt><trkpt lat="43.2240567" lon="12.8893583"><ele>1086.6</ele><time>2026-04-18T10:06:11.042Z</time></trkpt><trkpt lat="43.2241383" lon="12.8892617"><ele>1086.3999999999999</ele><time>2026-04-18T10:06:13.042Z</time></trkpt><trkpt lat="43.22421" lon="12.8891633"><ele>1086.2</ele><time>2026-04-18T10:06:15.043Z</time></trkpt><trkpt lat="43.2242633" lon="12.8890467"><ele>1086.0</ele><time>2026-04-18T10:06:17.042Z</time></trkpt><trkpt lat="43.2243033" lon="12.8889233"><ele>1085.8</ele><time>2026-04-18T10:06:19.042Z</time></trkpt><trkpt lat="43.2243333" lon="12.8887833"><ele>1085.6</ele><time>2026-04-18T10:06:21.042Z</time></trkpt><trkpt lat="43.2243567" lon="12.8886333"><ele>1085.4</ele><time>2026-04-18T10:06:23.042Z</time></trkpt><trkpt lat="43.2243683" lon="12.8885483"><ele>1085.2</ele><time>2026-04-18T10:06:24.042Z</time></trkpt><trkpt lat="43.2243883" lon="12.88838"><ele>1085.0</ele><time>2026-04-18T10:06:26.042Z</time></trkpt><trkpt lat="43.2243967" lon="12.8882367"><ele>1084.6</ele><time>2026-04-18T10:06:28.042Z</time></trkpt><trkpt lat="43.2244067" lon="12.8881"><ele>1084.2</ele><time>2026-04-18T10:06:30.042Z</time></trkpt><trkpt lat="43.2244017" lon="12.8879733"><ele>1083.8</ele><time>2026-04-18T10:06:32.042Z</time></trkpt><trkpt lat="43.2243967" lon="12.887845"><ele>1083.4</ele><time>2026-04-18T10:06:34.042Z</time></trkpt><trkpt lat="43.2243917" lon="12.88772"><ele>1083.0</ele><time>2026-04-18T10:06:36.042Z</time></trkpt><trkpt lat="43.2243817" lon="12.8876167"><ele>1083.2</ele><time>2026-04-18T10:06:38.042Z</time></trkpt><trkpt lat="43.224385" lon="12.8875033"><ele>1083.4</ele><time>2026-04-18T10:06:40.042Z</time></trkpt><trkpt lat="43.224395" lon="12.8873767"><ele>1083.6000000000001</ele><time>2026-04-18T10:06:42.043Z</time></trkpt><trkpt lat="43.224405" lon="12.8872467"><ele>1083.8</ele><time>2026-04-18T10:06:44.043Z</time></trkpt><trkpt lat="43.22443" lon="12.88712"><ele>1084.0</ele><time>2026-04-18T10:06:46.042Z</time></trkpt><trkpt lat="43.2244717" lon="12.886995"><ele>1084.0</ele><time>2026-04-18T10:06:48.042Z</time></trkpt><trkpt lat="43.2244967" lon="12.88688"><ele>1084.0</ele><time>2026-04-18T10:06:50.042Z</time></trkpt><trkpt lat="43.224495" lon="12.886765"><ele>1084.0</ele><time>2026-04-18T10:06:52.042Z</time></trkpt><trkpt lat="43.224485" lon="12.886635"><ele>1084.0</ele><time>2026-04-18T10:06:54.042Z</time></trkpt><trkpt lat="43.2244733" lon="12.8865167"><ele>1084.0</ele><time>2026-04-18T10:06:56.042Z</time></trkpt><trkpt lat="43.2244533" lon="12.8863917"><ele>1084.0</ele><time>2026-04-18T10:06:58.042Z</time></trkpt><trkpt lat="43.224425" lon="12.8862833"><ele>1083.1666666666665</ele><time>2026-04-18T10:07:00.042Z</time></trkpt><trkpt lat="43.22441" lon="12.8861767"><ele>1082.3333333333333</ele><time>2026-04-18T10:07:02.043Z</time></trkpt><trkpt lat="43.2243933" lon="12.88607"><ele>1081.5</ele><time>2026-04-18T10:07:04.042Z</time></trkpt><trkpt lat="43.22438" lon="12.8859833"><ele>1080.6666666666667</ele><time>2026-04-18T10:07:06.042Z</time></trkpt><trkpt lat="43.2243683" lon="12.885875"><ele>1079.8333333333335</ele><time>2026-04-18T10:07:09.043Z</time></trkpt><trkpt lat="43.2243717" lon="12.8857717"><ele>1079.0</ele><time>2026-04-18T10:07:12.042Z</time></trkpt><trkpt lat="43.2243767" lon="12.8856367"><ele>1078.5</ele><time>2026-04-18T10:07:15.043Z</time></trkpt><trkpt lat="43.22438" lon="12.8855333"><ele>1078.0</ele><time>2026-04-18T10:07:17.042Z</time></trkpt><trkpt lat="43.2243783" lon="12.885435"><ele>1077.5</ele><time>2026-04-18T10:07:19.042Z</time></trkpt><trkpt lat="43.22439" lon="12.8853483"><ele>1077.0</ele><time>2026-04-18T10:07:21.042Z</time></trkpt><trkpt lat="43.224395" lon="12.8851733"><ele>1076.5</ele><time>2026-04-18T10:08:07.042Z</time></trkpt><trkpt lat="43.224405" lon="12.88507"><ele>1076.0</ele><time>2026-04-18T10:08:14.042Z</time></trkpt><trkpt lat="43.2243417" lon="12.8849883"><ele>1076.0</ele><time>2026-04-18T10:08:23.042Z</time></trkpt><trkpt lat="43.2242633" lon="12.885025"><ele>1076.0</ele><time>2026-04-18T10:08:26.042Z</time></trkpt><trkpt lat="43.2242517" lon="12.885115"><ele>1076.0</ele><time>2026-04-18T10:08:29.042Z</time></trkpt><trkpt lat="43.2242733" lon="12.8851967"><ele>1076.0</ele><time>2026-04-18T10:08:31.042Z</time></trkpt><trkpt lat="43.2243" lon="12.885295"><ele>1076.0</ele><time>2026-04-18T10:08:33.043Z</time></trkpt><trkpt lat="43.2243067" lon="12.8853983"><ele>1076.0</ele><time>2026-04-18T10:08:35.042Z</time></trkpt><trkpt lat="43.224285" lon="12.885485"><ele>1076.0</ele><time>2026-04-18T10:08:37.042Z</time></trkpt><trkpt lat="43.2242833" lon="12.8855817"><ele>1076.0</ele><time>2026-04-18T10:08:39.042Z</time></trkpt><trkpt lat="43.224305" lon="12.8856767"><ele>1076.0</ele><time>2026-04-18T10:08:41.042Z</time></trkpt><trkpt lat="43.2243417" lon="12.8857817"><ele>1076.0</ele><time>2026-04-18T10:08:43.043Z</time></trkpt><trkpt lat="43.2243717" lon="12.885875"><ele>1076.0</ele><time>2026-04-18T10:08:45.043Z</time></trkpt><trkpt lat="43.22439" lon="12.8859817"><ele>1076.0</ele><time>2026-04-18T10:08:48.042Z</time></trkpt><trkpt lat="43.2244083" lon="12.8860667"><ele>1076.0</ele><time>2026-04-18T10:08:50.042Z</time></trkpt><trkpt lat="43.2244367" lon="12.886155"><ele>1076.0</ele><time>2026-04-18T10:08:52.042Z</time></trkpt><trkpt lat="43.224475" lon="12.8862683"><ele>1076.6</ele><time>2026-04-18T10:08:54.042Z</time></trkpt><trkpt lat="43.2244967" lon="12.88639"><ele>1077.1999999999998</ele><time>2026-04-18T10:08:56.042Z</time></trkpt><trkpt lat="43.22452" lon="12.8865083"><ele>1077.8000000000002</ele><time>2026-04-18T10:08:58.043Z</time></trkpt><trkpt lat="43.2245333" lon="12.8866467"><ele>1078.4</ele><time>2026-04-18T10:09:07.042Z</time></trkpt><trkpt lat="43.2245517" lon="12.8868167"><ele>1079.0</ele><time>2026-04-18T10:09:09.042Z</time></trkpt><trkpt lat="43.2245617" lon="12.8869133"><ele>1079.7142857142858</ele><time>2026-04-18T10:09:10.042Z</time></trkpt><trkpt lat="43.2245617" lon="12.887005"><ele>1080.4285714285713</ele><time>2026-04-18T10:09:11.042Z</time></trkpt><trkpt lat="43.2245583" lon="12.8870933"><ele>1081.142857142857</ele><time>2026-04-18T10:09:12.042Z</time></trkpt><trkpt lat="43.22456" lon="12.8871817"><ele>1081.857142857143</ele><time>2026-04-18T10:09:13.042Z</time></trkpt><trkpt lat="43.2245583" lon="12.8872783"><ele>1082.5714285714287</ele><time>2026-04-18T10:09:14.042Z</time></trkpt><trkpt lat="43.224545" lon="12.8873733"><ele>1083.2857142857142</ele><time>2026-04-18T10:09:15.042Z</time></trkpt><trkpt lat="43.2245333" lon="12.8874617"><ele>1084.0</ele><time>2026-04-18T10:09:16.042Z</time></trkpt><trkpt lat="43.22452" lon="12.8875467"><ele>1083.8</ele><time>2026-04-18T10:09:17.042Z</time></trkpt><trkpt lat="43.2245117" lon="12.8877133"><ele>1083.6000000000001</ele><time>2026-04-18T10:09:19.042Z</time></trkpt><trkpt lat="43.2245317" lon="12.8878867"><ele>1083.4</ele><time>2026-04-18T10:09:21.042Z</time></trkpt><trkpt lat="43.2245367" lon="12.8879733"><ele>1083.2</ele><time>2026-04-18T10:09:22.043Z</time></trkpt><trkpt lat="43.2245383" lon="12.8881467"><ele>1083.0</ele><time>2026-04-18T10:09:24.042Z</time></trkpt><trkpt lat="43.2245383" lon="12.8882367"><ele>1083.0</ele><time>2026-04-18T10:09:25.042Z</time></trkpt><trkpt lat="43.2245117" lon="12.8884067"><ele>1083.0</ele><time>2026-04-18T10:09:27.042Z</time></trkpt><trkpt lat="43.2244917" lon="12.888495"><ele>1083.0</ele><time>2026-04-18T10:09:28.042Z</time></trkpt><trkpt lat="43.2244467" lon="12.8886517"><ele>1083.0</ele><time>2026-04-18T10:09:30.043Z</time></trkpt><trkpt lat="43.2244167" lon="12.8887433"><ele>1083.0</ele><time>2026-04-18T10:09:31.042Z</time></trkpt><trkpt lat="43.22438" lon="12.8888467"><ele>1083.3333333333333</ele><time>2026-04-18T10:09:32.043Z</time></trkpt><trkpt lat="43.2243483" lon="12.8889433"><ele>1083.6666666666667</ele><time>2026-04-18T10:09:33.043Z</time></trkpt><trkpt lat="43.2243133" lon="12.8890433"><ele>1084.0</ele><time>2026-04-18T10:09:34.042Z</time></trkpt><trkpt lat="43.2242817" lon="12.8891433"><ele>1084.3333333333335</ele><time>2026-04-18T10:09:35.043Z</time></trkpt><trkpt lat="43.224255" lon="12.88925"><ele>1084.6666666666667</ele><time>2026-04-18T10:09:36.043Z</time></trkpt><trkpt lat="43.22423" lon="12.8893517"><ele>1085.0</ele><time>2026-04-18T10:09:37.042Z</time></trkpt><trkpt lat="43.22421" lon="12.8894483"><ele>1085.2</ele><time>2026-04-18T10:09:38.042Z</time></trkpt><trkpt lat="43.2241817" lon="12.8895467"><ele>1085.4</ele><time>2026-04-18T10:09:39.043Z</time></trkpt><trkpt lat="43.2241433" lon="12.8896467"><ele>1085.6</ele><time>2026-04-18T10:09:40.042Z</time></trkpt><trkpt lat="43.2241133" lon="12.8897467"><ele>1085.8</ele><time>2026-04-18T10:09:41.042Z</time></trkpt><trkpt lat="43.2240783" lon="12.8898367"><ele>1086.0</ele><time>2026-04-18T10:09:42.043Z</time></trkpt><trkpt lat="43.2239833" lon="12.8900133"><ele>1086.6666666666667</ele><time>2026-04-18T10:09:44.042Z</time></trkpt><trkpt lat="43.223925" lon="12.890095"><ele>1087.3333333333333</ele><time>2026-04-18T10:09:45.042Z</time></trkpt><trkpt lat="43.223865" lon="12.8901683"><ele>1088.0</ele><time>2026-04-18T10:09:46.042Z</time></trkpt><trkpt lat="43.2238067" lon="12.8902483"><ele>1088.6666666666665</ele><time>2026-04-18T10:09:47.042Z</time></trkpt><trkpt lat="43.223745" lon="12.8903333"><ele>1089.3333333333333</ele><time>2026-04-18T10:09:48.042Z</time></trkpt><trkpt lat="43.223685" lon="12.8904183"><ele>1090.0</ele><time>2026-04-18T10:09:49.042Z</time></trkpt><trkpt lat="43.223635" lon="12.8905017"><ele>1090.0</ele><time>2026-04-18T10:09:50.042Z</time></trkpt><trkpt lat="43.2235817" lon="12.8905817"><ele>1090.0</ele><time>2026-04-18T10:09:51.042Z</time></trkpt><trkpt lat="43.2235383" lon="12.8906617"><ele>1090.0</ele><time>2026-04-18T10:09:52.042Z</time></trkpt><trkpt lat="43.2234933" lon="12.8907367"><ele>1090.0</ele><time>2026-04-18T10:09:53.042Z</time></trkpt><trkpt lat="43.2234333" lon="12.89087"><ele>1090.0</ele><time>2026-04-18T10:09:55.043Z</time></trkpt><trkpt lat="43.2233767" lon="12.8909683"><ele>1090.0</ele><time>2026-04-18T10:09:57.042Z</time></trkpt><trkpt lat="43.2233217" lon="12.8910433"><ele>1089.3333333333333</ele><time>2026-04-18T10:09:59.042Z</time></trkpt><trkpt lat="43.223255" lon="12.891125"><ele>1088.6666666666665</ele><time>2026-04-18T10:10:01.042Z</time></trkpt><trkpt lat="43.2232017" lon="12.8911767"><ele>1088.0</ele><time>2026-04-18T10:10:03.042Z</time></trkpt><trkpt lat="43.223125" lon="12.89116"><ele>1087.3333333333333</ele><time>2026-04-18T10:10:06.043Z</time></trkpt><trkpt lat="43.223065" lon="12.8911217"><ele>1086.6666666666667</ele><time>2026-04-18T10:10:08.042Z</time></trkpt><trkpt lat="43.22299" lon="12.8911017"><ele>1086.0</ele><time>2026-04-18T10:10:10.043Z</time></trkpt><trkpt lat="43.22291" lon="12.8911033"><ele>1083.8333333333333</ele><time>2026-04-18T10:10:12.043Z</time></trkpt><trkpt lat="43.2228367" lon="12.8911267"><ele>1081.6666666666667</ele><time>2026-04-18T10:10:14.042Z</time></trkpt><trkpt lat="43.2227533" lon="12.8911517"><ele>1079.5</ele><time>2026-04-18T10:10:16.042Z</time></trkpt><trkpt lat="43.2226767" lon="12.8911817"><ele>1077.3333333333335</ele><time>2026-04-18T10:10:18.042Z</time></trkpt><trkpt lat="43.2226017" lon="12.891205"><ele>1075.1666666666667</ele><time>2026-04-18T10:10:20.042Z</time></trkpt><trkpt lat="43.2225183" lon="12.8912283"><ele>1073.0</ele><time>2026-04-18T10:10:22.042Z</time></trkpt><trkpt lat="43.2224283" lon="12.891225"><ele>1073.0</ele><time>2026-04-18T10:10:24.042Z</time></trkpt><trkpt lat="43.2223267" lon="12.8912133"><ele>1073.0</ele><time>2026-04-18T10:10:26.043Z</time></trkpt><trkpt lat="43.2222283" lon="12.8912133"><ele>1073.0</ele><time>2026-04-18T10:10:28.042Z</time></trkpt><trkpt lat="43.222115" lon="12.8912083"><ele>1073.0</ele><time>2026-04-18T10:10:30.042Z</time></trkpt><trkpt lat="43.2220117" lon="12.8912"><ele>1073.0</ele><time>2026-04-18T10:10:32.043Z</time></trkpt><trkpt lat="43.221905" lon="12.8911967"><ele>1069.25</ele><time>2026-04-18T10:10:34.043Z</time></trkpt><trkpt lat="43.221795" lon="12.891195"><ele>1065.5</ele><time>2026-04-18T10:10:36.043Z</time></trkpt><trkpt lat="43.2216783" lon="12.8912"><ele>1061.75</ele><time>2026-04-18T10:10:38.042Z</time></trkpt><trkpt lat="43.22156" lon="12.8912233"><ele>1058.0</ele><time>2026-04-18T10:10:40.042Z</time></trkpt><trkpt lat="43.2214383" lon="12.891235"><ele>1053.0</ele><time>2026-04-18T10:10:42.043Z</time></trkpt><trkpt lat="43.2213117" lon="12.8912733"><ele>1048.0</ele><time>2026-04-18T10:10:44.042Z</time></trkpt><trkpt lat="43.2212417" lon="12.8912883"><ele>1043.0</ele><time>2026-04-18T10:10:45.042Z</time></trkpt><trkpt lat="43.2211167" lon="12.8913167"><ele>1038.0</ele><time>2026-04-18T10:10:47.042Z</time></trkpt><trkpt lat="43.2210533" lon="12.891335"><ele>1033.0</ele><time>2026-04-18T10:10:48.042Z</time></trkpt><trkpt lat="43.2209883" lon="12.891345"><ele>1033.0</ele><time>2026-04-18T10:10:49.042Z</time></trkpt><trkpt lat="43.2208683" lon="12.89138"><ele>1033.0</ele><time>2026-04-18T10:10:51.042Z</time></trkpt><trkpt lat="43.220805" lon="12.8913983"><ele>1033.0</ele><time>2026-04-18T10:10:52.042Z</time></trkpt><trkpt lat="43.2207383" lon="12.8914133"><ele>1033.0</ele><time>2026-04-18T10:10:53.042Z</time></trkpt><trkpt lat="43.2206683" lon="12.8914317"><ele>1033.0</ele><time>2026-04-18T10:10:54.042Z</time></trkpt><trkpt lat="43.2206017" lon="12.8914533"><ele>1033.0</ele><time>2026-04-18T10:10:55.042Z</time></trkpt><trkpt lat="43.2205383" lon="12.8914583"><ele>1029.6</ele><time>2026-04-18T10:10:56.041Z</time></trkpt><trkpt lat="43.2204117" lon="12.8914767"><ele>1026.1999999999998</ele><time>2026-04-18T10:10:58.041Z</time></trkpt><trkpt lat="43.2203467" lon="12.8914833"><ele>1022.8</ele><time>2026-04-18T10:10:59.042Z</time></trkpt><trkpt lat="43.2202167" lon="12.8915"><ele>1019.4</ele><time>2026-04-18T10:11:01.041Z</time></trkpt><trkpt lat="43.2201517" lon="12.8915033"><ele>1016.0</ele><time>2026-04-18T10:11:02.041Z</time></trkpt><trkpt lat="43.2200817" lon="12.89151"><ele>1016.0</ele><time>2026-04-18T10:11:03.041Z</time></trkpt><trkpt lat="43.22001" lon="12.8915117"><ele>1016.0</ele><time>2026-04-18T10:11:04.041Z</time></trkpt><trkpt lat="43.219935" lon="12.8915133"><ele>1016.0</ele><time>2026-04-18T10:11:05.041Z</time></trkpt><trkpt lat="43.2198567" lon="12.891515"><ele>1016.0</ele><time>2026-04-18T10:11:06.041Z</time></trkpt><trkpt lat="43.2197817" lon="12.89152"><ele>1016.0</ele><time>2026-04-18T10:11:07.041Z</time></trkpt><trkpt lat="43.2197083" lon="12.8915217"><ele>1016.0</ele><time>2026-04-18T10:11:08.041Z</time></trkpt><trkpt lat="43.2196333" lon="12.8915283"><ele>1016.0</ele><time>2026-04-18T10:11:09.041Z</time></trkpt><trkpt lat="43.2195567" lon="12.8915383"><ele>1014.1428571428571</ele><time>2026-04-18T10:11:10.041Z</time></trkpt><trkpt lat="43.2194833" lon="12.89155"><ele>1012.2857142857142</ele><time>2026-04-18T10:11:11.041Z</time></trkpt><trkpt lat="43.2194067" lon="12.8915617"><ele>1010.4285714285713</ele><time>2026-04-18T10:11:12.041Z</time></trkpt><trkpt lat="43.219335" lon="12.8915767"><ele>1008.5714285714286</ele><time>2026-04-18T10:11:13.042Z</time></trkpt><trkpt lat="43.21926" lon="12.891595"><ele>1006.7142857142856</ele><time>2026-04-18T10:11:14.042Z</time></trkpt><trkpt lat="43.21919" lon="12.8916133"><ele>1004.8571428571428</ele><time>2026-04-18T10:11:15.041Z</time></trkpt><trkpt lat="43.21912" lon="12.89164"><ele>1003.0</ele><time>2026-04-18T10:11:16.041Z</time></trkpt><trkpt lat="43.2190367" lon="12.8916667"><ele>1001.5714285714286</ele><time>2026-04-18T10:11:17.041Z</time></trkpt><trkpt lat="43.21896" lon="12.89169"><ele>1000.1428571428571</ele><time>2026-04-18T10:11:18.041Z</time></trkpt><trkpt lat="43.2188883" lon="12.8917133"><ele>998.7142857142857</ele><time>2026-04-18T10:11:19.041Z</time></trkpt><trkpt lat="43.2188183" lon="12.8917383"><ele>997.2857142857142</ele><time>2026-04-18T10:11:20.041Z</time></trkpt><trkpt lat="43.21875" lon="12.89177"><ele>995.8571428571429</ele><time>2026-04-18T10:11:21.041Z</time></trkpt><trkpt lat="43.2186883" lon="12.89181"><ele>994.4285714285713</ele><time>2026-04-18T10:11:22.041Z</time></trkpt><trkpt lat="43.218625" lon="12.8918533"><ele>993.0</ele><time>2026-04-18T10:11:23.041Z</time></trkpt><trkpt lat="43.2185683" lon="12.8919"><ele>992.4</ele><time>2026-04-18T10:11:24.041Z</time></trkpt><trkpt lat="43.2185117" lon="12.8919533"><ele>991.8</ele><time>2026-04-18T10:11:25.041Z</time></trkpt><trkpt lat="43.2184133" lon="12.8920417"><ele>991.2</ele><time>2026-04-18T10:11:27.042Z</time></trkpt><trkpt lat="43.2183317" lon="12.8921333"><ele>990.6</ele><time>2026-04-18T10:11:29.041Z</time></trkpt><trkpt lat="43.2182583" lon="12.8922117"><ele>990.0</ele><time>2026-04-18T10:11:31.041Z</time></trkpt><trkpt lat="43.2182033" lon="12.8922867"><ele>989.3333333333334</ele><time>2026-04-18T10:11:33.042Z</time></trkpt><trkpt lat="43.2181433" lon="12.89234"><ele>988.6666666666667</ele><time>2026-04-18T10:11:35.042Z</time></trkpt><trkpt lat="43.2180483" lon="12.8923883"><ele>988.0</ele><time>2026-04-18T10:12:36.041Z</time></trkpt><trkpt lat="43.2179833" lon="12.8924583"><ele>987.3333333333334</ele><time>2026-04-18T10:12:39.041Z</time></trkpt><trkpt lat="43.2179117" lon="12.8925483"><ele>986.6666666666667</ele><time>2026-04-18T10:12:41.041Z</time></trkpt><trkpt lat="43.2178633" lon="12.8926083"><ele>986.0</ele><time>2026-04-18T10:12:42.042Z</time></trkpt><trkpt lat="43.2177983" lon="12.892685"><ele>986.0000000000001</ele><time>2026-04-18T10:12:43.041Z</time></trkpt><trkpt lat="43.21773" lon="12.8927567"><ele>986.0</ele><time>2026-04-18T10:12:44.042Z</time></trkpt><trkpt lat="43.217655" lon="12.89282"><ele>986.0</ele><time>2026-04-18T10:12:45.041Z</time></trkpt><trkpt lat="43.2175883" lon="12.8928917"><ele>986.0</ele><time>2026-04-18T10:12:46.041Z</time></trkpt><trkpt lat="43.217525" lon="12.8929533"><ele>986.0000000000001</ele><time>2026-04-18T10:12:47.041Z</time></trkpt><trkpt lat="43.21746" lon="12.8930117"><ele>986.0</ele><time>2026-04-18T10:12:48.041Z</time></trkpt><trkpt lat="43.2173967" lon="12.8930767"><ele>986.0000000000001</ele><time>2026-04-18T10:12:49.041Z</time></trkpt><trkpt lat="43.21733" lon="12.8931333"><ele>986.0</ele><time>2026-04-18T10:12:50.041Z</time></trkpt><trkpt lat="43.2172533" lon="12.8931883"><ele>986.0</ele><time>2026-04-18T10:12:51.041Z</time></trkpt><trkpt lat="43.2171717" lon="12.8932383"><ele>986.0</ele><time>2026-04-18T10:12:52.041Z</time></trkpt><trkpt lat="43.21709" lon="12.8932933"><ele>986.0000000000001</ele><time>2026-04-18T10:12:53.041Z</time></trkpt><trkpt lat="43.2170083" lon="12.89335"><ele>986.0</ele><time>2026-04-18T10:12:54.042Z</time></trkpt><trkpt lat="43.2169233" lon="12.8934017"><ele>985.1999999999999</ele><time>2026-04-18T10:12:55.042Z</time></trkpt><trkpt lat="43.2168317" lon="12.89345"><ele>984.3999999999999</ele><time>2026-04-18T10:12:56.041Z</time></trkpt><trkpt lat="43.2167417" lon="12.8934967"><ele>983.6</ele><time>2026-04-18T10:12:57.041Z</time></trkpt><trkpt lat="43.2166433" lon="12.893535"><ele>982.8</ele><time>2026-04-18T10:12:58.041Z</time></trkpt><trkpt lat="43.2165433" lon="12.893575"><ele>982.0</ele><time>2026-04-18T10:12:59.041Z</time></trkpt><trkpt lat="43.2164467" lon="12.8936117"><ele>982.0</ele><time>2026-04-18T10:13:00.041Z</time></trkpt><trkpt lat="43.21635" lon="12.8936483"><ele>982.0</ele><time>2026-04-18T10:13:01.041Z</time></trkpt><trkpt lat="43.21625" lon="12.8936817"><ele>982.0</ele><time>2026-04-18T10:13:02.041Z</time></trkpt><trkpt lat="43.21615" lon="12.8937167"><ele>982.0</ele><time>2026-04-18T10:13:03.042Z</time></trkpt><trkpt lat="43.2160567" lon="12.8937517"><ele>982.0</ele><time>2026-04-18T10:13:04.041Z</time></trkpt><trkpt lat="43.21597" lon="12.893795"><ele>981.9999999999999</ele><time>2026-04-18T10:13:05.041Z</time></trkpt><trkpt lat="43.21589" lon="12.893835"><ele>982.0</ele><time>2026-04-18T10:13:06.041Z</time></trkpt><trkpt lat="43.2158067" lon="12.8938767"><ele>982.0</ele><time>2026-04-18T10:13:07.041Z</time></trkpt><trkpt lat="43.21573" lon="12.8939183"><ele>982.0</ele><time>2026-04-18T10:13:08.042Z</time></trkpt><trkpt lat="43.2156517" lon="12.8939667"><ele>981.9999999999999</ele><time>2026-04-18T10:13:09.041Z</time></trkpt><trkpt lat="43.21559" lon="12.8940233"><ele>982.0</ele><time>2026-04-18T10:13:10.041Z</time></trkpt><trkpt lat="43.215525" lon="12.8940733"><ele>981.3333333333333</ele><time>2026-04-18T10:13:11.041Z</time></trkpt><trkpt lat="43.2154583" lon="12.89411"><ele>980.6666666666666</ele><time>2026-04-18T10:13:12.041Z</time></trkpt><trkpt lat="43.2153867" lon="12.8941333"><ele>980.0</ele><time>2026-04-18T10:13:13.041Z</time></trkpt><trkpt lat="43.2153183" lon="12.8941583"><ele>979.3333333333333</ele><time>2026-04-18T10:13:14.042Z</time></trkpt><trkpt lat="43.2152417" lon="12.894195"><ele>978.6666666666666</ele><time>2026-04-18T10:13:15.041Z</time></trkpt><trkpt lat="43.215165" lon="12.8942333"><ele>978.0</ele><time>2026-04-18T10:13:16.042Z</time></trkpt><trkpt lat="43.2150867" lon="12.8942783"><ele>976.8</ele><time>2026-04-18T10:13:17.041Z</time></trkpt><trkpt lat="43.2149967" lon="12.8943167"><ele>975.5999999999999</ele><time>2026-04-18T10:13:18.041Z</time></trkpt><trkpt lat="43.2149083" lon="12.8943617"><ele>974.4000000000001</ele><time>2026-04-18T10:13:19.041Z</time></trkpt><trkpt lat="43.21482" lon="12.8943967"><ele>973.2</ele><time>2026-04-18T10:13:20.041Z</time></trkpt><trkpt lat="43.214725" lon="12.8944167"><ele>972.0</ele><time>2026-04-18T10:13:21.041Z</time></trkpt><trkpt lat="43.2146283" lon="12.8944333"><ele>971.0</ele><time>2026-04-18T10:13:22.041Z</time></trkpt><trkpt lat="43.2145367" lon="12.8944517"><ele>970.0</ele><time>2026-04-18T10:13:23.042Z</time></trkpt><trkpt lat="43.2144517" lon="12.89446"><ele>969.0</ele><time>2026-04-18T10:13:24.041Z</time></trkpt><trkpt lat="43.21436" lon="12.8944583"><ele>968.0</ele><time>2026-04-18T10:13:25.041Z</time></trkpt><trkpt lat="43.2142733" lon="12.89445"><ele>967.0</ele><time>2026-04-18T10:13:26.041Z</time></trkpt><trkpt lat="43.2141933" lon="12.8944383"><ele>966.0</ele><time>2026-04-18T10:13:27.041Z</time></trkpt><trkpt lat="43.2141033" lon="12.8944133"><ele>966.0</ele><time>2026-04-18T10:13:28.042Z</time></trkpt><trkpt lat="43.2140217" lon="12.894375"><ele>965.9999999999999</ele><time>2026-04-18T10:13:29.042Z</time></trkpt><trkpt lat="43.21393" lon="12.8943217"><ele>965.9999999999999</ele><time>2026-04-18T10:13:30.042Z</time></trkpt><trkpt lat="43.2138333" lon="12.8942667"><ele>966.0</ele><time>2026-04-18T10:13:31.041Z</time></trkpt><trkpt lat="43.213735" lon="12.89421"><ele>966.0</ele><time>2026-04-18T10:13:32.042Z</time></trkpt><trkpt lat="43.2136483" lon="12.8941533"><ele>966.8</ele><time>2026-04-18T10:13:33.042Z</time></trkpt><trkpt lat="43.21357" lon="12.8940933"><ele>967.5999999999999</ele><time>2026-04-18T10:13:34.041Z</time></trkpt><trkpt lat="43.213495" lon="12.894025"><ele>968.4</ele><time>2026-04-18T10:13:35.041Z</time></trkpt><trkpt lat="43.213425" lon="12.89394"><ele>969.2</ele><time>2026-04-18T10:13:36.041Z</time></trkpt><trkpt lat="43.2133583" lon="12.8938433"><ele>970.0</ele><time>2026-04-18T10:13:37.041Z</time></trkpt><trkpt lat="43.2132933" lon="12.893745"><ele>970.0</ele><time>2026-04-18T10:13:38.041Z</time></trkpt><trkpt lat="43.2132267" lon="12.893635"><ele>970.0</ele><time>2026-04-18T10:13:39.041Z</time></trkpt><trkpt lat="43.2131617" lon="12.8935167"><ele>970.0</ele><time>2026-04-18T10:13:40.041Z</time></trkpt><trkpt lat="43.2130983" lon="12.8934083"><ele>970.0</ele><time>2026-04-18T10:13:41.041Z</time></trkpt><trkpt lat="43.2130333" lon="12.8932967"><ele>970.0</ele><time>2026-04-18T10:13:42.041Z</time></trkpt><trkpt lat="43.2129733" lon="12.8931867"><ele>969.6</ele><time>2026-04-18T10:13:43.041Z</time></trkpt><trkpt lat="43.212905" lon="12.8930817"><ele>969.2</ele><time>2026-04-18T10:13:44.041Z</time></trkpt><trkpt lat="43.2128233" lon="12.8929817"><ele>968.8</ele><time>2026-04-18T10:13:45.041Z</time></trkpt><trkpt lat="43.2127383" lon="12.8928783"><ele>968.4</ele><time>2026-04-18T10:13:46.041Z</time></trkpt><trkpt lat="43.212645" lon="12.8927867"><ele>968.0</ele><time>2026-04-18T10:13:47.041Z</time></trkpt><trkpt lat="43.21255" lon="12.89269"><ele>969.5</ele><time>2026-04-18T10:13:48.042Z</time></trkpt><trkpt lat="43.2124517" lon="12.8925767"><ele>971.0</ele><time>2026-04-18T10:13:49.042Z</time></trkpt><trkpt lat="43.212365" lon="12.8924633"><ele>972.5</ele><time>2026-04-18T10:13:50.041Z</time></trkpt><trkpt lat="43.21229" lon="12.8923467"><ele>974.0</ele><time>2026-04-18T10:13:51.041Z</time></trkpt><trkpt lat="43.2122183" lon="12.8922233"><ele>974.0</ele><time>2026-04-18T10:13:52.041Z</time></trkpt><trkpt lat="43.2121483" lon="12.8920817"><ele>974.0</ele><time>2026-04-18T10:13:53.041Z</time></trkpt><trkpt lat="43.2120833" lon="12.8919467"><ele>974.0</ele><time>2026-04-18T10:13:54.042Z</time></trkpt><trkpt lat="43.212015" lon="12.8918133"><ele>974.0</ele><time>2026-04-18T10:13:55.041Z</time></trkpt><trkpt lat="43.211945" lon="12.8916817"><ele>971.25</ele><time>2026-04-18T10:13:56.041Z</time></trkpt><trkpt lat="43.2118817" lon="12.89155"><ele>968.5</ele><time>2026-04-18T10:13:57.041Z</time></trkpt><trkpt lat="43.2118183" lon="12.8914167"><ele>965.75</ele><time>2026-04-18T10:13:58.041Z</time></trkpt><trkpt lat="43.211765" lon="12.8912817"><ele>963.0</ele><time>2026-04-18T10:13:59.042Z</time></trkpt><trkpt lat="43.2117167" lon="12.89115"><ele>963.0</ele><time>2026-04-18T10:14:00.041Z</time></trkpt><trkpt lat="43.2116717" lon="12.89103"><ele>963.0</ele><time>2026-04-18T10:14:01.041Z</time></trkpt><trkpt lat="43.211615" lon="12.890915"><ele>963.0</ele><time>2026-04-18T10:14:02.041Z</time></trkpt><trkpt lat="43.2115517" lon="12.890795"><ele>963.0</ele><time>2026-04-18T10:14:03.042Z</time></trkpt><trkpt lat="43.211475" lon="12.8906867"><ele>963.0</ele><time>2026-04-18T10:14:04.042Z</time></trkpt><trkpt lat="43.21139" lon="12.8905817"><ele>964.5</ele><time>2026-04-18T10:14:05.041Z</time></trkpt><trkpt lat="43.211295" lon="12.8904733"><ele>966.0</ele><time>2026-04-18T10:14:06.041Z</time></trkpt><trkpt lat="43.2111867" lon="12.8903633"><ele>967.5</ele><time>2026-04-18T10:14:07.042Z</time></trkpt><trkpt lat="43.2110817" lon="12.89027"><ele>969.0</ele><time>2026-04-18T10:14:08.041Z</time></trkpt><trkpt lat="43.2109867" lon="12.8901783"><ele>969.5</ele><time>2026-04-18T10:14:09.042Z</time></trkpt><trkpt lat="43.2108867" lon="12.890085"><ele>970.0</ele><time>2026-04-18T10:14:10.041Z</time></trkpt><trkpt lat="43.2107883" lon="12.889995"><ele>970.5</ele><time>2026-04-18T10:14:11.042Z</time></trkpt><trkpt lat="43.2106867" lon="12.8898983"><ele>971.0</ele><time>2026-04-18T10:14:12.041Z</time></trkpt><trkpt lat="43.2105833" lon="12.8897983"><ele>971.0</ele><time>2026-04-18T10:14:13.041Z</time></trkpt><trkpt lat="43.2104833" lon="12.88969"><ele>971.0</ele><time>2026-04-18T10:14:14.041Z</time></trkpt><trkpt lat="43.21039" lon="12.88958"><ele>971.0</ele><time>2026-04-18T10:14:15.041Z</time></trkpt><trkpt lat="43.2102983" lon="12.8894833"><ele>971.0</ele><time>2026-04-18T10:14:16.041Z</time></trkpt><trkpt lat="43.2102017" lon="12.8893867"><ele>971.0</ele><time>2026-04-18T10:14:17.041Z</time></trkpt><trkpt lat="43.2101233" lon="12.8892933"><ele>970.9999999999999</ele><time>2026-04-18T10:14:18.041Z</time></trkpt><trkpt lat="43.2100433" lon="12.8891967"><ele>970.9999999999999</ele><time>2026-04-18T10:14:19.041Z</time></trkpt><trkpt lat="43.209975" lon="12.8890983"><ele>971.0</ele><time>2026-04-18T10:14:20.041Z</time></trkpt><trkpt lat="43.2098867" lon="12.889015"><ele>971.0</ele><time>2026-04-18T10:14:21.042Z</time></trkpt><trkpt lat="43.209795" lon="12.8889467"><ele>970.8</ele><time>2026-04-18T10:14:22.041Z</time></trkpt><trkpt lat="43.2097" lon="12.8888867"><ele>970.5999999999999</ele><time>2026-04-18T10:14:23.041Z</time></trkpt><trkpt lat="43.209605" lon="12.88883"><ele>970.4</ele><time>2026-04-18T10:14:24.041Z</time></trkpt><trkpt lat="43.20952" lon="12.88877"><ele>970.2</ele><time>2026-04-18T10:14:25.041Z</time></trkpt><trkpt lat="43.2094317" lon="12.8887033"><ele>970.0</ele><time>2026-04-18T10:14:26.041Z</time></trkpt><trkpt lat="43.2093433" lon="12.888615"><ele>970.0</ele><time>2026-04-18T10:14:27.042Z</time></trkpt><trkpt lat="43.209255" lon="12.8885267"><ele>970.0</ele><time>2026-04-18T10:14:28.041Z</time></trkpt><trkpt lat="43.209175" lon="12.888435"><ele>970.0</ele><time>2026-04-18T10:14:29.042Z</time></trkpt><trkpt lat="43.209105" lon="12.8883417"><ele>970.0</ele><time>2026-04-18T10:14:30.041Z</time></trkpt><trkpt lat="43.209045" lon="12.8882383"><ele>970.0</ele><time>2026-04-18T10:14:31.041Z</time></trkpt><trkpt lat="43.208985" lon="12.88812"><ele>972.6</ele><time>2026-04-18T10:14:32.041Z</time></trkpt><trkpt lat="43.20893" lon="12.8879917"><ele>975.2</ele><time>2026-04-18T10:14:33.041Z</time></trkpt><trkpt lat="43.2088867" lon="12.887855"><ele>977.8</ele><time>2026-04-18T10:14:34.041Z</time></trkpt><trkpt lat="43.2088583" lon="12.8877117"><ele>980.4</ele><time>2026-04-18T10:14:35.041Z</time></trkpt><trkpt lat="43.208835" lon="12.88756"><ele>983.0</ele><time>2026-04-18T10:14:36.041Z</time></trkpt><trkpt lat="43.20882" lon="12.8874117"><ele>977.2</ele><time>2026-04-18T10:14:37.041Z</time></trkpt><trkpt lat="43.2088067" lon="12.8872583"><ele>971.4</ele><time>2026-04-18T10:14:38.041Z</time></trkpt><trkpt lat="43.2087867" lon="12.8871133"><ele>965.6000000000001</ele><time>2026-04-18T10:14:39.041Z</time></trkpt><trkpt lat="43.208765" lon="12.8869783"><ele>959.8000000000001</ele><time>2026-04-18T10:14:40.041Z</time></trkpt><trkpt lat="43.2087367" lon="12.8868533"><ele>954.0</ele><time>2026-04-18T10:14:41.041Z</time></trkpt><trkpt lat="43.2087067" lon="12.886735"><ele>951.6666666666666</ele><time>2026-04-18T10:14:42.042Z</time></trkpt><trkpt lat="43.208665" lon="12.8866367"><ele>949.3333333333333</ele><time>2026-04-18T10:14:43.042Z</time></trkpt><trkpt lat="43.2086267" lon="12.8865317"><ele>947.0</ele><time>2026-04-18T10:14:44.042Z</time></trkpt><trkpt lat="43.2085867" lon="12.8864417"><ele>944.6666666666666</ele><time>2026-04-18T10:14:45.041Z</time></trkpt><trkpt lat="43.2085533" lon="12.8863617"><ele>942.3333333333333</ele><time>2026-04-18T10:14:46.041Z</time></trkpt><trkpt lat="43.2085383" lon="12.886245"><ele>940.0</ele><time>2026-04-18T10:14:48.041Z</time></trkpt><trkpt lat="43.2085867" lon="12.8861867"><ele>940.0</ele><time>2026-04-18T10:14:50.041Z</time></trkpt><trkpt lat="43.20867" lon="12.8862083"><ele>940.0</ele><time>2026-04-18T10:14:52.041Z</time></trkpt><trkpt lat="43.2087733" lon="12.8863367"><ele>940.0</ele><time>2026-04-18T10:14:54.041Z</time></trkpt><trkpt lat="43.2088433" lon="12.8864333"><ele>940.0</ele><time>2026-04-18T10:14:55.041Z</time></trkpt><trkpt lat="43.2089183" lon="12.8865317"><ele>940.0</ele><time>2026-04-18T10:14:56.041Z</time></trkpt><trkpt lat="43.2089967" lon="12.88663"><ele>935.2</ele><time>2026-04-18T10:14:57.041Z</time></trkpt><trkpt lat="43.2090717" lon="12.886725"><ele>930.4</ele><time>2026-04-18T10:14:58.041Z</time></trkpt><trkpt lat="43.209135" lon="12.8868233"><ele>925.5999999999999</ele><time>2026-04-18T10:14:59.041Z</time></trkpt><trkpt lat="43.2092033" lon="12.8869283"><ele>920.8</ele><time>2026-04-18T10:15:00.041Z</time></trkpt><trkpt lat="43.2092633" lon="12.8870333"><ele>916.0</ele><time>2026-04-18T10:15:01.041Z</time></trkpt><trkpt lat="43.2093183" lon="12.887135"><ele>916.0</ele><time>2026-04-18T10:15:02.041Z</time></trkpt><trkpt lat="43.209365" lon="12.8872333"><ele>916.0</ele><time>2026-04-18T10:15:03.041Z</time></trkpt><trkpt lat="43.2094233" lon="12.8873167"><ele>916.0</ele><time>2026-04-18T10:15:04.042Z</time></trkpt><trkpt lat="43.2094783" lon="12.8873783"><ele>916.0</ele><time>2026-04-18T10:15:05.041Z</time></trkpt><trkpt lat="43.2095383" lon="12.8874183"><ele>916.0</ele><time>2026-04-18T10:15:06.041Z</time></trkpt><trkpt lat="43.2096017" lon="12.8874467"><ele>916.0</ele><time>2026-04-18T10:15:07.041Z</time></trkpt><trkpt lat="43.2096683" lon="12.8874683"><ele>916.0</ele><time>2026-04-18T10:15:08.041Z</time></trkpt><trkpt lat="43.209735" lon="12.8874833"><ele>915.9999999999999</ele><time>2026-04-18T10:15:09.041Z</time></trkpt><trkpt lat="43.2098083" lon="12.8875083"><ele>916.0</ele><time>2026-04-18T10:15:10.041Z</time></trkpt><trkpt lat="43.2098883" lon="12.8875383"><ele>916.0</ele><time>2026-04-18T10:15:11.042Z</time></trkpt><trkpt lat="43.2099683" lon="12.8875733"><ele>916.0</ele><time>2026-04-18T10:15:12.041Z</time></trkpt><trkpt lat="43.2100517" lon="12.88762"><ele>915.9999999999999</ele><time>2026-04-18T10:15:13.041Z</time></trkpt><trkpt lat="43.2101267" lon="12.8876583"><ele>916.0</ele><time>2026-04-18T10:15:14.042Z</time></trkpt><trkpt lat="43.2102033" lon="12.88768"><ele>915.9999999999999</ele><time>2026-04-18T10:15:15.041Z</time></trkpt><trkpt lat="43.210285" lon="12.8876933"><ele>916.0</ele><time>2026-04-18T10:15:16.042Z</time></trkpt><trkpt lat="43.21037" lon="12.8876867"><ele>916.0</ele><time>2026-04-18T10:15:17.041Z</time></trkpt><trkpt lat="43.210455" lon="12.8876633"><ele>916.0</ele><time>2026-04-18T10:15:18.041Z</time></trkpt><trkpt lat="43.2105367" lon="12.8876333"><ele>915.9999999999999</ele><time>2026-04-18T10:15:19.041Z</time></trkpt><trkpt lat="43.2106117" lon="12.887625"><ele>916.0</ele><time>2026-04-18T10:15:20.041Z</time></trkpt><trkpt lat="43.2106783" lon="12.887645"><ele>913.4</ele><time>2026-04-18T10:15:21.041Z</time></trkpt><trkpt lat="43.21078" lon="12.8877517"><ele>910.8</ele><time>2026-04-18T10:15:23.041Z</time></trkpt><trkpt lat="43.2108217" lon="12.887825"><ele>908.1999999999999</ele><time>2026-04-18T10:15:24.041Z</time></trkpt><trkpt lat="43.2108567" lon="12.8879017"><ele>905.5999999999999</ele><time>2026-04-18T10:15:25.041Z</time></trkpt><trkpt lat="43.2109183" lon="12.88802"><ele>903.0</ele><time>2026-04-18T10:15:27.042Z</time></trkpt><trkpt lat="43.21101" lon="12.8880417"><ele>903.0</ele><time>2026-04-18T10:15:29.042Z</time></trkpt><trkpt lat="43.2111067" lon="12.8879317"><ele>903.0</ele><time>2026-04-18T10:15:31.042Z</time></trkpt><trkpt lat="43.211155" lon="12.88784"><ele>903.0</ele><time>2026-04-18T10:15:32.041Z</time></trkpt><trkpt lat="43.2111983" lon="12.8877283"><ele>903.0</ele><time>2026-04-18T10:15:33.042Z</time></trkpt><trkpt lat="43.21125" lon="12.88761"><ele>903.0</ele><time>2026-04-18T10:15:34.041Z</time></trkpt><trkpt lat="43.2113033" lon="12.8875067"><ele>900.1666666666666</ele><time>2026-04-18T10:15:35.041Z</time></trkpt><trkpt lat="43.2113583" lon="12.8874133"><ele>897.3333333333333</ele><time>2026-04-18T10:15:36.041Z</time></trkpt><trkpt lat="43.211415" lon="12.887325"><ele>894.5</ele><time>2026-04-18T10:15:37.041Z</time></trkpt><trkpt lat="43.2114783" lon="12.88724"><ele>891.6666666666666</ele><time>2026-04-18T10:15:38.041Z</time></trkpt><trkpt lat="43.211545" lon="12.8871567"><ele>888.8333333333333</ele><time>2026-04-18T10:15:39.041Z</time></trkpt><trkpt lat="43.21162" lon="12.8870767"><ele>886.0</ele><time>2026-04-18T10:15:40.041Z</time></trkpt><trkpt lat="43.2116883" lon="12.8870017"><ele>885.9999999999999</ele><time>2026-04-18T10:15:41.041Z</time></trkpt><trkpt lat="43.2117633" lon="12.8869333"><ele>886.0</ele><time>2026-04-18T10:15:42.041Z</time></trkpt><trkpt lat="43.2118367" lon="12.8868667"><ele>886.0</ele><time>2026-04-18T10:15:43.041Z</time></trkpt><trkpt lat="43.21191" lon="12.8868117"><ele>886.0</ele><time>2026-04-18T10:15:44.042Z</time></trkpt><trkpt lat="43.2119867" lon="12.88678"><ele>885.9999999999999</ele><time>2026-04-18T10:15:45.041Z</time></trkpt><trkpt lat="43.2120617" lon="12.8867567"><ele>886.0</ele><time>2026-04-18T10:15:46.041Z</time></trkpt><trkpt lat="43.2121383" lon="12.886745"><ele>881.6666666666666</ele><time>2026-04-18T10:15:47.041Z</time></trkpt><trkpt lat="43.2122217" lon="12.886735"><ele>877.3333333333333</ele><time>2026-04-18T10:15:48.041Z</time></trkpt><trkpt lat="43.2123033" lon="12.8867283"><ele>873.0</ele><time>2026-04-18T10:15:49.041Z</time></trkpt><trkpt lat="43.21239" lon="12.8867317"><ele>868.6666666666667</ele><time>2026-04-18T10:15:50.041Z</time></trkpt><trkpt lat="43.2124783" lon="12.8867233"><ele>864.3333333333334</ele><time>2026-04-18T10:15:51.042Z</time></trkpt><trkpt lat="43.2125617" lon="12.8867083"><ele>860.0</ele><time>2026-04-18T10:15:52.041Z</time></trkpt><trkpt lat="43.2126533" lon="12.8866933"><ele>860.0</ele><time>2026-04-18T10:15:53.041Z</time></trkpt><trkpt lat="43.212745" lon="12.8866717"><ele>860.0</ele><time>2026-04-18T10:15:54.041Z</time></trkpt><trkpt lat="43.212835" lon="12.8866467"><ele>860.0</ele><time>2026-04-18T10:15:55.041Z</time></trkpt><trkpt lat="43.2129317" lon="12.8866267"><ele>860.0</ele><time>2026-04-18T10:15:56.041Z</time></trkpt><trkpt lat="43.21302" lon="12.8866133"><ele>860.0</ele><time>2026-04-18T10:15:57.041Z</time></trkpt><trkpt lat="43.2131117" lon="12.8866033"><ele>858.8333333333334</ele><time>2026-04-18T10:15:58.041Z</time></trkpt><trkpt lat="43.2131983" lon="12.886605"><ele>857.6666666666667</ele><time>2026-04-18T10:15:59.042Z</time></trkpt><trkpt lat="43.2132733" lon="12.8866133"><ele>856.5</ele><time>2026-04-18T10:16:00.041Z</time></trkpt><trkpt lat="43.2133383" lon="12.8866283"><ele>855.3333333333333</ele><time>2026-04-18T10:16:01.041Z</time></trkpt><trkpt lat="43.2134417" lon="12.8866817"><ele>854.1666666666666</ele><time>2026-04-18T10:16:03.041Z</time></trkpt><trkpt lat="43.2135183" lon="12.88671"><ele>853.0</ele><time>2026-04-18T10:16:05.041Z</time></trkpt><trkpt lat="43.2135967" lon="12.886635"><ele>853.0</ele><time>2026-04-18T10:16:38.04Z</time></trkpt><trkpt lat="43.213535" lon="12.88655"><ele>853.0</ele><time>2026-04-18T10:16:41.041Z</time></trkpt><trkpt lat="43.213445" lon="12.8865"><ele>853.0</ele><time>2026-04-18T10:16:43.041Z</time></trkpt><trkpt lat="43.2133483" lon="12.88643"><ele>853.0</ele><time>2026-04-18T10:16:45.041Z</time></trkpt><trkpt lat="43.2132383" lon="12.88636"><ele>853.0</ele><time>2026-04-18T10:16:47.04Z</time></trkpt><trkpt lat="43.21318" lon="12.886325"><ele>854.0</ele><time>2026-04-18T10:16:48.04Z</time></trkpt><trkpt lat="43.2131217" lon="12.8862917"><ele>855.0</ele><time>2026-04-18T10:16:49.04Z</time></trkpt><trkpt lat="43.21306" lon="12.88627"><ele>856.0</ele><time>2026-04-18T10:16:50.04Z</time></trkpt><trkpt lat="43.2129917" lon="12.886245"><ele>857.0</ele><time>2026-04-18T10:16:51.04Z</time></trkpt><trkpt lat="43.2129233" lon="12.8862183"><ele>858.0</ele><time>2026-04-18T10:16:52.04Z</time></trkpt><trkpt lat="43.2128567" lon="12.88619"><ele>859.0</ele><time>2026-04-18T10:16:53.04Z</time></trkpt><trkpt lat="43.2127883" lon="12.88616"><ele>860.0</ele><time>2026-04-18T10:16:54.041Z</time></trkpt><trkpt lat="43.21272" lon="12.8861383"><ele>860.0000000000001</ele><time>2026-04-18T10:16:55.04Z</time></trkpt><trkpt lat="43.2126467" lon="12.8861133"><ele>860.0</ele><time>2026-04-18T10:16:56.04Z</time></trkpt><trkpt lat="43.212575" lon="12.88609"><ele>860.0</ele><time>2026-04-18T10:16:57.04Z</time></trkpt><trkpt lat="43.212505" lon="12.8860633"><ele>860.0</ele><time>2026-04-18T10:16:58.04Z</time></trkpt><trkpt lat="43.2124333" lon="12.8860283"><ele>860.0000000000001</ele><time>2026-04-18T10:16:59.04Z</time></trkpt><trkpt lat="43.2123583" lon="12.885995"><ele>860.0</ele><time>2026-04-18T10:17:00.041Z</time></trkpt><trkpt lat="43.2122767" lon="12.8859667"><ele>859.8333333333334</ele><time>2026-04-18T10:17:01.04Z</time></trkpt><trkpt lat="43.2121867" lon="12.8859433"><ele>859.6666666666667</ele><time>2026-04-18T10:17:02.04Z</time></trkpt><trkpt lat="43.2120983" lon="12.8859217"><ele>859.5</ele><time>2026-04-18T10:17:03.04Z</time></trkpt><trkpt lat="43.2120133" lon="12.8859"><ele>859.3333333333333</ele><time>2026-04-18T10:17:04.04Z</time></trkpt><trkpt lat="43.2119317" lon="12.885885"><ele>859.1666666666666</ele><time>2026-04-18T10:17:05.04Z</time></trkpt><trkpt lat="43.2118533" lon="12.8858633"><ele>859.0</ele><time>2026-04-18T10:17:06.04Z</time></trkpt><trkpt lat="43.2117733" lon="12.8858583"><ele>858.9999999999999</ele><time>2026-04-18T10:17:07.04Z</time></trkpt><trkpt lat="43.2116967" lon="12.8858617"><ele>859.0</ele><time>2026-04-18T10:17:08.04Z</time></trkpt><trkpt lat="43.2116217" lon="12.8858783"><ele>859.0</ele><time>2026-04-18T10:17:09.04Z</time></trkpt><trkpt lat="43.2115433" lon="12.8859033"><ele>859.0</ele><time>2026-04-18T10:17:10.04Z</time></trkpt><trkpt lat="43.2114617" lon="12.8859267"><ele>858.9999999999999</ele><time>2026-04-18T10:17:11.041Z</time></trkpt><trkpt lat="43.2113733" lon="12.8859533"><ele>859.0</ele><time>2026-04-18T10:17:12.04Z</time></trkpt><trkpt lat="43.2112883" lon="12.8859733"><ele>859.0</ele><time>2026-04-18T10:17:13.041Z</time></trkpt><trkpt lat="43.211205" lon="12.8859883"><ele>859.0000000000001</ele><time>2026-04-18T10:17:14.04Z</time></trkpt><trkpt lat="43.2110933" lon="12.8859967"><ele>859.0000000000001</ele><time>2026-04-18T10:17:16.04Z</time></trkpt><trkpt lat="43.211" lon="12.8859267"><ele>859.0</ele><time>2026-04-18T10:17:18.04Z</time></trkpt><trkpt lat="43.2109467" lon="12.88577"><ele>859.0</ele><time>2026-04-18T10:17:20.04Z</time></trkpt><trkpt lat="43.2109283" lon="12.88568"><ele>857.4999999999999</ele><time>2026-04-18T10:17:21.041Z</time></trkpt><trkpt lat="43.210895" lon="12.8856017"><ele>856.0</ele><time>2026-04-18T10:17:22.04Z</time></trkpt><trkpt lat="43.210845" lon="12.8855267"><ele>854.5</ele><time>2026-04-18T10:17:23.04Z</time></trkpt><trkpt lat="43.2107833" lon="12.8854517"><ele>853.0</ele><time>2026-04-18T10:17:24.04Z</time></trkpt><trkpt lat="43.21071" lon="12.8853783"><ele>851.4999999999999</ele><time>2026-04-18T10:17:25.04Z</time></trkpt><trkpt lat="43.2106417" lon="12.8852983"><ele>850.0</ele><time>2026-04-18T10:17:26.04Z</time></trkpt><trkpt lat="43.210575" lon="12.8852117"><ele>850.0</ele><time>2026-04-18T10:17:27.04Z</time></trkpt><trkpt lat="43.2105117" lon="12.885115"><ele>850.0</ele><time>2026-04-18T10:17:28.04Z</time></trkpt><trkpt lat="43.2104517" lon="12.885025"><ele>850.0</ele><time>2026-04-18T10:17:29.041Z</time></trkpt><trkpt lat="43.210395" lon="12.8849333"><ele>850.0</ele><time>2026-04-18T10:17:30.04Z</time></trkpt><trkpt lat="43.21034" lon="12.8848333"><ele>850.0</ele><time>2026-04-18T10:17:31.04Z</time></trkpt><trkpt lat="43.2102917" lon="12.8847267"><ele>846.1666666666666</ele><time>2026-04-18T10:17:32.04Z</time></trkpt><trkpt lat="43.2102483" lon="12.8846183"><ele>842.3333333333333</ele><time>2026-04-18T10:17:33.041Z</time></trkpt><trkpt lat="43.2102117" lon="12.8845217"><ele>838.5</ele><time>2026-04-18T10:17:34.04Z</time></trkpt><trkpt lat="43.2101733" lon="12.8844333"><ele>834.6666666666667</ele><time>2026-04-18T10:17:35.041Z</time></trkpt><trkpt lat="43.2101183" lon="12.884345"><ele>830.8333333333334</ele><time>2026-04-18T10:17:36.041Z</time></trkpt><trkpt lat="43.2100467" lon="12.884275"><ele>827.0</ele><time>2026-04-18T10:17:37.04Z</time></trkpt><trkpt lat="43.20998" lon="12.8842233"><ele>830.5000000000001</ele><time>2026-04-18T10:17:38.04Z</time></trkpt><trkpt lat="43.20991" lon="12.884155"><ele>834.0</ele><time>2026-04-18T10:17:39.041Z</time></trkpt><trkpt lat="43.2098433" lon="12.884085"><ele>837.5</ele><time>2026-04-18T10:17:40.04Z</time></trkpt><trkpt lat="43.2097967" lon="12.8839917"><ele>841.0</ele><time>2026-04-18T10:17:41.04Z</time></trkpt><trkpt lat="43.2097633" lon="12.8838967"><ele>844.5000000000001</ele><time>2026-04-18T10:17:42.041Z</time></trkpt><trkpt lat="43.20974" lon="12.8837833"><ele>848.0</ele><time>2026-04-18T10:17:43.04Z</time></trkpt><trkpt lat="43.2097333" lon="12.8836633"><ele>848.0000000000001</ele><time>2026-04-18T10:17:44.041Z</time></trkpt><trkpt lat="43.20974" lon="12.8835467"><ele>848.0</ele><time>2026-04-18T10:17:45.04Z</time></trkpt><trkpt lat="43.2097567" lon="12.883445"><ele>848.0</ele><time>2026-04-18T10:17:46.04Z</time></trkpt><trkpt lat="43.2097867" lon="12.883345"><ele>848.0</ele><time>2026-04-18T10:17:47.04Z</time></trkpt><trkpt lat="43.2098217" lon="12.88324"><ele>848.0000000000001</ele><time>2026-04-18T10:17:48.041Z</time></trkpt><trkpt lat="43.2098517" lon="12.8831083"><ele>848.0</ele><time>2026-04-18T10:17:49.04Z</time></trkpt><trkpt lat="43.2098783" lon="12.8829767"><ele>834.2</ele><time>2026-04-18T10:17:50.04Z</time></trkpt><trkpt lat="43.2099" lon="12.8828383"><ele>820.4</ele><time>2026-04-18T10:17:51.04Z</time></trkpt><trkpt lat="43.20992" lon="12.882705"><ele>806.6</ele><time>2026-04-18T10:17:52.04Z</time></trkpt><trkpt lat="43.2099267" lon="12.8825717"><ele>792.8000000000001</ele><time>2026-04-18T10:17:53.04Z</time></trkpt><trkpt lat="43.2099217" lon="12.8824417"><ele>779.0</ele><time>2026-04-18T10:17:54.04Z</time></trkpt><trkpt lat="43.2099117" lon="12.8823083"><ele>778.1666666666667</ele><time>2026-04-18T10:17:55.04Z</time></trkpt><trkpt lat="43.20992" lon="12.8821933"><ele>777.3333333333334</ele><time>2026-04-18T10:17:56.04Z</time></trkpt><trkpt lat="43.20993" lon="12.88209"><ele>776.5</ele><time>2026-04-18T10:17:57.04Z</time></trkpt><trkpt lat="43.20995" lon="12.8819933"><ele>775.6666666666667</ele><time>2026-04-18T10:17:58.041Z</time></trkpt><trkpt lat="43.2099717" lon="12.8819"><ele>774.8333333333334</ele><time>2026-04-18T10:17:59.04Z</time></trkpt><trkpt lat="43.2099767" lon="12.8817933"><ele>774.0</ele><time>2026-04-18T10:18:00.04Z</time></trkpt><trkpt lat="43.2099617" lon="12.881695"><ele>774.0</ele><time>2026-04-18T10:18:01.041Z</time></trkpt><trkpt lat="43.2099317" lon="12.8815983"><ele>774.0</ele><time>2026-04-18T10:18:02.04Z</time></trkpt><trkpt lat="43.209895" lon="12.8815167"><ele>774.0</ele><time>2026-04-18T10:18:03.04Z</time></trkpt><trkpt lat="43.2098667" lon="12.88142"><ele>774.0</ele><time>2026-04-18T10:18:04.04Z</time></trkpt><trkpt lat="43.209855" lon="12.8813233"><ele>774.0</ele><time>2026-04-18T10:18:05.04Z</time></trkpt><trkpt lat="43.2098567" lon="12.8812233"><ele>774.0</ele><time>2026-04-18T10:18:06.04Z</time></trkpt><trkpt lat="43.209865" lon="12.8811283"><ele>774.0</ele><time>2026-04-18T10:18:07.04Z</time></trkpt><trkpt lat="43.20989" lon="12.881035"><ele>774.0</ele><time>2026-04-18T10:18:08.04Z</time></trkpt><trkpt lat="43.20992" lon="12.880945"><ele>774.0</ele><time>2026-04-18T10:18:09.04Z</time></trkpt><trkpt lat="43.2099667" lon="12.88083"><ele>774.0</ele><time>2026-04-18T10:18:10.04Z</time></trkpt><trkpt lat="43.21002" lon="12.88072"><ele>774.0</ele><time>2026-04-18T10:18:11.04Z</time></trkpt><trkpt lat="43.21008" lon="12.8806083"><ele>774.0</ele><time>2026-04-18T10:18:12.04Z</time></trkpt><trkpt lat="43.2101417" lon="12.8805117"><ele>774.4000000000001</ele><time>2026-04-18T10:18:13.04Z</time></trkpt><trkpt lat="43.21021" lon="12.8804117"><ele>774.8</ele><time>2026-04-18T10:18:14.04Z</time></trkpt><trkpt lat="43.2102783" lon="12.88032"><ele>775.2</ele><time>2026-04-18T10:18:15.04Z</time></trkpt><trkpt lat="43.2103483" lon="12.8802183"><ele>775.5999999999999</ele><time>2026-04-18T10:18:16.04Z</time></trkpt><trkpt lat="43.210415" lon="12.8801083"><ele>776.0</ele><time>2026-04-18T10:18:17.04Z</time></trkpt><trkpt lat="43.21048" lon="12.8800083"><ele>779.8</ele><time>2026-04-18T10:18:18.041Z</time></trkpt><trkpt lat="43.2105467" lon="12.8799083"><ele>783.5999999999999</ele><time>2026-04-18T10:18:19.041Z</time></trkpt><trkpt lat="43.2106067" lon="12.8798067"><ele>787.4</ele><time>2026-04-18T10:18:20.04Z</time></trkpt><trkpt lat="43.2106683" lon="12.8797067"><ele>791.2</ele><time>2026-04-18T10:18:21.04Z</time></trkpt><trkpt lat="43.2107283" lon="12.8796167"><ele>795.0</ele><time>2026-04-18T10:18:22.04Z</time></trkpt><trkpt lat="43.2107917" lon="12.8795267"><ele>789.8333333333334</ele><time>2026-04-18T10:18:23.04Z</time></trkpt><trkpt lat="43.210865" lon="12.8794317"><ele>784.6666666666666</ele><time>2026-04-18T10:18:24.041Z</time></trkpt><trkpt lat="43.21094" lon="12.8793383"><ele>779.5</ele><time>2026-04-18T10:18:25.04Z</time></trkpt><trkpt lat="43.211015" lon="12.8792467"><ele>774.3333333333333</ele><time>2026-04-18T10:18:26.04Z</time></trkpt><trkpt lat="43.2110717" lon="12.8791783"><ele>769.1666666666666</ele><time>2026-04-18T10:18:27.04Z</time></trkpt><trkpt lat="43.2111267" lon="12.8791217"><ele>764.0</ele><time>2026-04-18T10:18:28.041Z</time></trkpt><trkpt lat="43.2111683" lon="12.8790467"><ele>764.0</ele><time>2026-04-18T10:18:29.041Z</time></trkpt><trkpt lat="43.21119" lon="12.878965"><ele>764.0</ele><time>2026-04-18T10:18:30.04Z</time></trkpt><trkpt lat="43.2112233" lon="12.8787933"><ele>764.0</ele><time>2026-04-18T10:18:32.04Z</time></trkpt><trkpt lat="43.2112283" lon="12.878635"><ele>764.0</ele><time>2026-04-18T10:18:34.041Z</time></trkpt><trkpt lat="43.2112283" lon="12.8785383"><ele>764.0</ele><time>2026-04-18T10:18:35.04Z</time></trkpt><trkpt lat="43.2112317" lon="12.8784367"><ele>765.0</ele><time>2026-04-18T10:18:36.04Z</time></trkpt><trkpt lat="43.21125" lon="12.87832"><ele>766.0</ele><time>2026-04-18T10:18:37.04Z</time></trkpt><trkpt lat="43.211255" lon="12.878195"><ele>767.0</ele><time>2026-04-18T10:18:38.04Z</time></trkpt><trkpt lat="43.211265" lon="12.8780467"><ele>768.0</ele><time>2026-04-18T10:18:39.04Z</time></trkpt><trkpt lat="43.2112617" lon="12.8778817"><ele>769.0</ele><time>2026-04-18T10:18:40.04Z</time></trkpt><trkpt lat="43.2112533" lon="12.8777133"><ele>767.6</ele><time>2026-04-18T10:18:41.041Z</time></trkpt><trkpt lat="43.2112367" lon="12.87755"><ele>766.2</ele><time>2026-04-18T10:18:42.04Z</time></trkpt><trkpt lat="43.211225" lon="12.8774017"><ele>764.8000000000001</ele><time>2026-04-18T10:18:43.04Z</time></trkpt><trkpt lat="43.211215" lon="12.8772617"><ele>763.4000000000001</ele><time>2026-04-18T10:18:44.04Z</time></trkpt><trkpt lat="43.211195" lon="12.8771133"><ele>762.0</ele><time>2026-04-18T10:18:45.04Z</time></trkpt><trkpt lat="43.2111833" lon="12.876985"><ele>762.0</ele><time>2026-04-18T10:18:46.04Z</time></trkpt><trkpt lat="43.2111683" lon="12.8768483"><ele>762.0</ele><time>2026-04-18T10:18:47.04Z</time></trkpt><trkpt lat="43.2111583" lon="12.8767117"><ele>762.0</ele><time>2026-04-18T10:18:48.04Z</time></trkpt><trkpt lat="43.2111567" lon="12.8765767"><ele>762.0</ele><time>2026-04-18T10:18:49.04Z</time></trkpt><trkpt lat="43.2111517" lon="12.876435"><ele>762.0</ele><time>2026-04-18T10:18:50.04Z</time></trkpt><trkpt lat="43.2111467" lon="12.8763067"><ele>758.8</ele><time>2026-04-18T10:18:51.04Z</time></trkpt><trkpt lat="43.2111467" lon="12.8761817"><ele>755.6</ele><time>2026-04-18T10:18:52.04Z</time></trkpt><trkpt lat="43.2111517" lon="12.8760517"><ele>752.4</ele><time>2026-04-18T10:18:53.04Z</time></trkpt><trkpt lat="43.2111633" lon="12.875915"><ele>749.1999999999999</ele><time>2026-04-18T10:18:54.04Z</time></trkpt><trkpt lat="43.21117" lon="12.87577"><ele>746.0</ele><time>2026-04-18T10:18:55.04Z</time></trkpt><trkpt lat="43.2111817" lon="12.8756267"><ele>742.4</ele><time>2026-04-18T10:18:56.04Z</time></trkpt><trkpt lat="43.21119" lon="12.8754783"><ele>738.8</ele><time>2026-04-18T10:18:57.04Z</time></trkpt><trkpt lat="43.211195" lon="12.8753317"><ele>735.1999999999999</ele><time>2026-04-18T10:18:58.04Z</time></trkpt><trkpt lat="43.211205" lon="12.8752"><ele>731.5999999999999</ele><time>2026-04-18T10:18:59.04Z</time></trkpt><trkpt lat="43.211215" lon="12.875065"><ele>728.0</ele><time>2026-04-18T10:19:00.04Z</time></trkpt><trkpt lat="43.21122" lon="12.8749367"><ele>725.6666666666666</ele><time>2026-04-18T10:19:01.04Z</time></trkpt><trkpt lat="43.2112233" lon="12.8748"><ele>723.3333333333333</ele><time>2026-04-18T10:19:02.041Z</time></trkpt><trkpt lat="43.2112283" lon="12.8746733"><ele>721.0</ele><time>2026-04-18T10:19:03.04Z</time></trkpt><trkpt lat="43.2112333" lon="12.8745583"><ele>718.6666666666666</ele><time>2026-04-18T10:19:04.04Z</time></trkpt><trkpt lat="43.2112317" lon="12.874455"><ele>716.3333333333334</ele><time>2026-04-18T10:19:05.04Z</time></trkpt><trkpt lat="43.21123" lon="12.8743667"><ele>714.0</ele><time>2026-04-18T10:19:06.04Z</time></trkpt><trkpt lat="43.2112167" lon="12.87428"><ele>711.8333333333334</ele><time>2026-04-18T10:19:07.041Z</time></trkpt><trkpt lat="43.2111867" lon="12.8741967"><ele>709.6666666666666</ele><time>2026-04-18T10:19:08.04Z</time></trkpt><trkpt lat="43.2111533" lon="12.87412"><ele>707.5</ele><time>2026-04-18T10:19:09.04Z</time></trkpt><trkpt lat="43.2111067" lon="12.8740517"><ele>705.3333333333333</ele><time>2026-04-18T10:19:10.04Z</time></trkpt><trkpt lat="43.21105" lon="12.8740117"><ele>703.1666666666666</ele><time>2026-04-18T10:19:11.04Z</time></trkpt><trkpt lat="43.210925" lon="12.8739933"><ele>701.0</ele><time>2026-04-18T10:19:13.041Z</time></trkpt><trkpt lat="43.21086" lon="12.87403"><ele>701.0</ele><time>2026-04-18T10:19:14.04Z</time></trkpt><trkpt lat="43.2108017" lon="12.87409"><ele>701.0</ele><time>2026-04-18T10:19:15.04Z</time></trkpt><trkpt lat="43.2107417" lon="12.8741517"><ele>701.0</ele><time>2026-04-18T10:19:16.04Z</time></trkpt><trkpt lat="43.2106883" lon="12.8742283"><ele>701.0</ele><time>2026-04-18T10:19:17.041Z</time></trkpt><trkpt lat="43.2106417" lon="12.8743"><ele>701.0</ele><time>2026-04-18T10:19:18.04Z</time></trkpt><trkpt lat="43.2105883" lon="12.874385"><ele>701.0</ele><time>2026-04-18T10:19:19.04Z</time></trkpt><trkpt lat="43.2105383" lon="12.874465"><ele>702.3333333333333</ele><time>2026-04-18T10:19:20.04Z</time></trkpt><trkpt lat="43.2104883" lon="12.8745467"><ele>703.6666666666666</ele><time>2026-04-18T10:19:21.04Z</time></trkpt><trkpt lat="43.2104417" lon="12.87463"><ele>705.0</ele><time>2026-04-18T10:19:22.04Z</time></trkpt><trkpt lat="43.2103933" lon="12.8747083"><ele>706.3333333333334</ele><time>2026-04-18T10:19:23.04Z</time></trkpt><trkpt lat="43.2103383" lon="12.8747883"><ele>707.6666666666667</ele><time>2026-04-18T10:19:24.04Z</time></trkpt><trkpt lat="43.21028" lon="12.8748617"><ele>709.0</ele><time>2026-04-18T10:19:25.04Z</time></trkpt><trkpt lat="43.2102233" lon="12.8749267"><ele>709.0</ele><time>2026-04-18T10:19:26.04Z</time></trkpt><trkpt lat="43.210165" lon="12.8749683"><ele>709.0</ele><time>2026-04-18T10:19:27.041Z</time></trkpt><trkpt lat="43.2100983" lon="12.8749883"><ele>709.0</ele><time>2026-04-18T10:19:28.041Z</time></trkpt><trkpt lat="43.2100333" lon="12.874975"><ele>709.0</ele><time>2026-04-18T10:19:29.041Z</time></trkpt><trkpt lat="43.209915" lon="12.8748883"><ele>709.0</ele><time>2026-04-18T10:19:31.04Z</time></trkpt><trkpt lat="43.2098633" lon="12.87482"><ele>709.0</ele><time>2026-04-18T10:19:32.04Z</time></trkpt><trkpt lat="43.2098167" lon="12.87474"><ele>708.6666666666667</ele><time>2026-04-18T10:19:33.04Z</time></trkpt><trkpt lat="43.2097767" lon="12.8746517"><ele>708.3333333333334</ele><time>2026-04-18T10:19:34.04Z</time></trkpt><trkpt lat="43.20974" lon="12.87456"><ele>708.0</ele><time>2026-04-18T10:19:35.041Z</time></trkpt><trkpt lat="43.2097033" lon="12.8744617"><ele>707.6666666666666</ele><time>2026-04-18T10:19:36.04Z</time></trkpt><trkpt lat="43.2096683" lon="12.8743667"><ele>707.3333333333333</ele><time>2026-04-18T10:19:37.04Z</time></trkpt><trkpt lat="43.20964" lon="12.874265"><ele>707.0</ele><time>2026-04-18T10:19:38.04Z</time></trkpt><trkpt lat="43.209605" lon="12.8741617"><ele>707.0</ele><time>2026-04-18T10:19:39.041Z</time></trkpt><trkpt lat="43.2095783" lon="12.8740633"><ele>707.0</ele><time>2026-04-18T10:19:40.04Z</time></trkpt><trkpt lat="43.20955" lon="12.87397"><ele>707.0</ele><time>2026-04-18T10:19:41.04Z</time></trkpt><trkpt lat="43.2095276" lon="12.873875"><ele>707.0</ele><time>2026-04-18T10:19:42.04Z</time></trkpt><trkpt lat="43.2095049" lon="12.8737747"><ele>707.0</ele><time>2026-04-18T10:19:43.04Z</time></trkpt><trkpt lat="43.2094874" lon="12.8736735"><ele>707.0</ele><time>2026-04-18T10:19:44.04Z</time></trkpt><trkpt lat="43.2094715" lon="12.8735693"><ele>707.0</ele><time>2026-04-18T10:19:45.04Z</time></trkpt><trkpt lat="43.2094497" lon="12.8734701"><ele>707.0</ele><time>2026-04-18T10:19:46.04Z</time></trkpt><trkpt lat="43.209428" lon="12.8733731"><ele>707.0</ele><time>2026-04-18T10:19:47.041Z</time></trkpt><trkpt lat="43.2094103" lon="12.873273"><ele>707.0</ele><time>2026-04-18T10:19:48.04Z</time></trkpt><trkpt lat="43.2093948" lon="12.8731757"><ele>707.0</ele><time>2026-04-18T10:19:49.04Z</time></trkpt><trkpt lat="43.209375" lon="12.8730833"><ele>707.0</ele><time>2026-04-18T10:19:50.04Z</time></trkpt><trkpt lat="43.2092967" lon="12.8729483"><ele>702.5</ele><time>2026-04-18T10:19:52.04Z</time></trkpt><trkpt lat="43.2092367" lon="12.872895"><ele>698.0</ele><time>2026-04-18T10:19:53.04Z</time></trkpt><trkpt lat="43.2091767" lon="12.8728567"><ele>693.5</ele><time>2026-04-18T10:19:54.04Z</time></trkpt><trkpt lat="43.2091117" lon="12.8728383"><ele>689.0</ele><time>2026-04-18T10:19:55.041Z</time></trkpt><trkpt lat="43.2090017" lon="12.8728683"><ele>684.5</ele><time>2026-04-18T10:19:57.04Z</time></trkpt><trkpt lat="43.2089467" lon="12.8729217"><ele>680.0</ele><time>2026-04-18T10:19:58.04Z</time></trkpt><trkpt lat="43.2088983" lon="12.872995"><ele>679.6666666666666</ele><time>2026-04-18T10:19:59.041Z</time></trkpt><trkpt lat="43.2088517" lon="12.8730833"><ele>679.3333333333333</ele><time>2026-04-18T10:20:00.04Z</time></trkpt><trkpt lat="43.2088067" lon="12.8731717"><ele>679.0</ele><time>2026-04-18T10:20:01.04Z</time></trkpt><trkpt lat="43.2087683" lon="12.8732567"><ele>678.6666666666666</ele><time>2026-04-18T10:20:02.04Z</time></trkpt><trkpt lat="43.20872" lon="12.8733933"><ele>678.3333333333334</ele><time>2026-04-18T10:20:04.04Z</time></trkpt><trkpt lat="43.2086683" lon="12.873445"><ele>678.0</ele><time>2026-04-18T10:20:06.04Z</time></trkpt><trkpt lat="43.2086217" lon="12.8733867"><ele>678.0</ele><time>2026-04-18T10:20:08.04Z</time></trkpt><trkpt lat="43.2086333" lon="12.873285"><ele>678.0</ele><time>2026-04-18T10:20:10.04Z</time></trkpt><trkpt lat="43.2087117" lon="12.8731267"><ele>678.0</ele><time>2026-04-18T10:20:12.04Z</time></trkpt><trkpt lat="43.208755" lon="12.8730267"><ele>678.0</ele><time>2026-04-18T10:20:13.04Z</time></trkpt><trkpt lat="43.2087917" lon="12.8729217"><ele>678.0</ele><time>2026-04-18T10:20:14.041Z</time></trkpt><trkpt lat="43.208825" lon="12.87283"><ele>678.0</ele><time>2026-04-18T10:20:15.041Z</time></trkpt><trkpt lat="43.2088533" lon="12.8727333"><ele>678.0</ele><time>2026-04-18T10:20:16.04Z</time></trkpt><trkpt lat="43.2088767" lon="12.8726383"><ele>678.0</ele><time>2026-04-18T10:20:17.04Z</time></trkpt><trkpt lat="43.2089083" lon="12.8725467"><ele>678.0</ele><time>2026-04-18T10:20:18.041Z</time></trkpt><trkpt lat="43.2089433" lon="12.8724417"><ele>678.0</ele><time>2026-04-18T10:20:19.041Z</time></trkpt><trkpt lat="43.2089883" lon="12.8723517"><ele>678.0</ele><time>2026-04-18T10:20:20.041Z</time></trkpt><trkpt lat="43.2090417" lon="12.87229"><ele>674.1666666666666</ele><time>2026-04-18T10:20:21.041Z</time></trkpt><trkpt lat="43.20911" lon="12.8722533"><ele>670.3333333333334</ele><time>2026-04-18T10:20:22.04Z</time></trkpt><trkpt lat="43.2091867" lon="12.8722267"><ele>666.5</ele><time>2026-04-18T10:20:23.04Z</time></trkpt><trkpt lat="43.2092617" lon="12.8722167"><ele>662.6666666666667</ele><time>2026-04-18T10:20:24.04Z</time></trkpt><trkpt lat="43.2093333" lon="12.8722117"><ele>658.8333333333334</ele><time>2026-04-18T10:20:25.04Z</time></trkpt><trkpt lat="43.2094083" lon="12.87221"><ele>655.0</ele><time>2026-04-18T10:20:26.04Z</time></trkpt><trkpt lat="43.2094867" lon="12.8722167"><ele>655.0</ele><time>2026-04-18T10:20:27.041Z</time></trkpt><trkpt lat="43.2095617" lon="12.8722367"><ele>655.0</ele><time>2026-04-18T10:20:28.04Z</time></trkpt><trkpt lat="43.2096233" lon="12.87227"><ele>655.0</ele><time>2026-04-18T10:20:29.041Z</time></trkpt><trkpt lat="43.2096667" lon="12.8723333"><ele>655.0</ele><time>2026-04-18T10:20:30.04Z</time></trkpt><trkpt lat="43.2097" lon="12.87241"><ele>655.0</ele><time>2026-04-18T10:20:31.04Z</time></trkpt><trkpt lat="43.2097267" lon="12.8724983"><ele>655.0</ele><time>2026-04-18T10:20:32.04Z</time></trkpt><trkpt lat="43.20975" lon="12.8725867"><ele>655.0</ele><time>2026-04-18T10:20:33.04Z</time></trkpt><trkpt lat="43.2097717" lon="12.87268"><ele>656.2</ele><time>2026-04-18T10:20:34.04Z</time></trkpt><trkpt lat="43.2097967" lon="12.8727717"><ele>657.4</ele><time>2026-04-18T10:20:35.04Z</time></trkpt><trkpt lat="43.2098233" lon="12.8728667"><ele>658.5999999999999</ele><time>2026-04-18T10:20:36.04Z</time></trkpt><trkpt lat="43.2098567" lon="12.87295"><ele>659.8</ele><time>2026-04-18T10:20:37.04Z</time></trkpt><trkpt lat="43.2099633" lon="12.8730317"><ele>661.0</ele><time>2026-04-18T10:20:39.041Z</time></trkpt><trkpt lat="43.2100867" lon="12.87298"><ele>661.0</ele><time>2026-04-18T10:20:41.04Z</time></trkpt><trkpt lat="43.2101417" lon="12.8729267"><ele>661.0</ele><time>2026-04-18T10:20:42.04Z</time></trkpt><trkpt lat="43.210185" lon="12.8728467"><ele>661.0</ele><time>2026-04-18T10:20:43.04Z</time></trkpt><trkpt lat="43.21022" lon="12.8727583"><ele>661.0</ele><time>2026-04-18T10:20:44.04Z</time></trkpt><trkpt lat="43.210255" lon="12.8726567"><ele>661.0</ele><time>2026-04-18T10:20:45.04Z</time></trkpt><trkpt lat="43.21028" lon="12.8725467"><ele>661.0</ele><time>2026-04-18T10:20:46.041Z</time></trkpt><trkpt lat="43.210315" lon="12.8724267"><ele>657.1999999999999</ele><time>2026-04-18T10:20:47.041Z</time></trkpt><trkpt lat="43.2103467" lon="12.8722967"><ele>653.4</ele><time>2026-04-18T10:20:48.04Z</time></trkpt><trkpt lat="43.21038" lon="12.872165"><ele>649.6</ele><time>2026-04-18T10:20:49.041Z</time></trkpt><trkpt lat="43.210415" lon="12.8720433"><ele>645.8</ele><time>2026-04-18T10:20:50.04Z</time></trkpt><trkpt lat="43.2104533" lon="12.8719267"><ele>642.0</ele><time>2026-04-18T10:20:51.04Z</time></trkpt><trkpt lat="43.2104933" lon="12.8718183"><ele>640.4</ele><time>2026-04-18T10:20:52.04Z</time></trkpt><trkpt lat="43.2105317" lon="12.8717217"><ele>638.8000000000001</ele><time>2026-04-18T10:20:53.04Z</time></trkpt><trkpt lat="43.2105867" lon="12.8716217"><ele>637.2</ele><time>2026-04-18T10:20:54.04Z</time></trkpt><trkpt lat="43.2106483" lon="12.871525"><ele>635.6</ele><time>2026-04-18T10:20:55.041Z</time></trkpt><trkpt lat="43.21071" lon="12.8714317"><ele>634.0</ele><time>2026-04-18T10:20:56.04Z</time></trkpt><trkpt lat="43.210785" lon="12.87135"><ele>634.0</ele><time>2026-04-18T10:20:57.04Z</time></trkpt><trkpt lat="43.21085" lon="12.87127"><ele>634.0</ele><time>2026-04-18T10:20:58.04Z</time></trkpt><trkpt lat="43.21092" lon="12.871205"><ele>634.0</ele><time>2026-04-18T10:20:59.04Z</time></trkpt><trkpt lat="43.2109967" lon="12.87115"><ele>634.0</ele><time>2026-04-18T10:21:00.04Z</time></trkpt><trkpt lat="43.2110783" lon="12.8711"><ele>634.0</ele><time>2026-04-18T10:21:01.041Z</time></trkpt><trkpt lat="43.211155" lon="12.8710667"><ele>634.0</ele><time>2026-04-18T10:21:02.041Z</time></trkpt><trkpt lat="43.21123" lon="12.871025"><ele>634.0</ele><time>2026-04-18T10:21:03.04Z</time></trkpt><trkpt lat="43.211305" lon="12.87098"><ele>634.0</ele><time>2026-04-18T10:21:04.04Z</time></trkpt><trkpt lat="43.211385" lon="12.8709333"><ele>634.0</ele><time>2026-04-18T10:21:05.041Z</time></trkpt><trkpt lat="43.21147" lon="12.870875"><ele>634.0</ele><time>2026-04-18T10:21:06.04Z</time></trkpt><trkpt lat="43.211555" lon="12.87082"><ele>634.0</ele><time>2026-04-18T10:21:07.041Z</time></trkpt><trkpt lat="43.21164" lon="12.8707783"><ele>634.0</ele><time>2026-04-18T10:21:08.04Z</time></trkpt><trkpt lat="43.21173" lon="12.87074"><ele>629.6</ele><time>2026-04-18T10:21:09.04Z</time></trkpt><trkpt lat="43.21182" lon="12.8707183"><ele>625.2</ele><time>2026-04-18T10:21:10.04Z</time></trkpt><trkpt lat="43.21191" lon="12.8706933"><ele>620.8000000000001</ele><time>2026-04-18T10:21:11.04Z</time></trkpt><trkpt lat="43.2119983" lon="12.8706817"><ele>616.4</ele><time>2026-04-18T10:21:12.04Z</time></trkpt><trkpt lat="43.2120867" lon="12.8706833"><ele>612.0</ele><time>2026-04-18T10:21:13.04Z</time></trkpt><trkpt lat="43.21218" lon="12.8706917"><ele>612.0</ele><time>2026-04-18T10:21:14.04Z</time></trkpt><trkpt lat="43.2122717" lon="12.8706967"><ele>612.0</ele><time>2026-04-18T10:21:15.041Z</time></trkpt><trkpt lat="43.2123633" lon="12.8706983"><ele>612.0</ele><time>2026-04-18T10:21:16.04Z</time></trkpt><trkpt lat="43.2124467" lon="12.8707017"><ele>612.0</ele><time>2026-04-18T10:21:17.04Z</time></trkpt><trkpt lat="43.2125233" lon="12.8706983"><ele>612.0</ele><time>2026-04-18T10:21:18.04Z</time></trkpt><trkpt lat="43.2125933" lon="12.8706883"><ele>612.0</ele><time>2026-04-18T10:21:19.041Z</time></trkpt><trkpt lat="43.2126633" lon="12.87067"><ele>609.5</ele><time>2026-04-18T10:21:20.04Z</time></trkpt><trkpt lat="43.2127233" lon="12.8706417"><ele>607.0</ele><time>2026-04-18T10:21:21.04Z</time></trkpt><trkpt lat="43.2127883" lon="12.8706067"><ele>604.5</ele><time>2026-04-18T10:21:22.04Z</time></trkpt><trkpt lat="43.2128433" lon="12.8705517"><ele>602.0</ele><time>2026-04-18T10:21:23.04Z</time></trkpt><trkpt lat="43.2128967" lon="12.8704867"><ele>599.5</ele><time>2026-04-18T10:21:24.04Z</time></trkpt><trkpt lat="43.21293" lon="12.8704133"><ele>597.0</ele><time>2026-04-18T10:21:25.04Z</time></trkpt><trkpt lat="43.212975" lon="12.87026"><ele>597.0</ele><time>2026-04-18T10:21:27.04Z</time></trkpt><trkpt lat="43.21298" lon="12.870115"><ele>597.0</ele><time>2026-04-18T10:21:29.041Z</time></trkpt><trkpt lat="43.21297" lon="12.8699767"><ele>597.0</ele><time>2026-04-18T10:21:31.04Z</time></trkpt><trkpt lat="43.2129283" lon="12.8698133"><ele>597.0</ele><time>2026-04-18T10:21:33.04Z</time></trkpt><trkpt lat="43.2129033" lon="12.8697317"><ele>597.0</ele><time>2026-04-18T10:21:34.039Z</time></trkpt><trkpt lat="43.2128733" lon="12.8696517"><ele>596.1428571428572</ele><time>2026-04-18T10:21:35.039Z</time></trkpt><trkpt lat="43.21284" lon="12.8695733"><ele>595.2857142857143</ele><time>2026-04-18T10:21:36.039Z</time></trkpt><trkpt lat="43.2128" lon="12.8694917"><ele>594.4285714285714</ele><time>2026-04-18T10:21:37.04Z</time></trkpt><trkpt lat="43.2127617" lon="12.8694083"><ele>593.5714285714287</ele><time>2026-04-18T10:21:38.039Z</time></trkpt><trkpt lat="43.2127217" lon="12.8693217"><ele>592.7142857142858</ele><time>2026-04-18T10:21:39.039Z</time></trkpt><trkpt lat="43.2126767" lon="12.8692283"><ele>591.8571428571429</ele><time>2026-04-18T10:21:40.039Z</time></trkpt><trkpt lat="43.2126283" lon="12.8691467"><ele>591.0</ele><time>2026-04-18T10:21:41.039Z</time></trkpt><trkpt lat="43.2125717" lon="12.8690617"><ele>589.2857142857142</ele><time>2026-04-18T10:21:42.039Z</time></trkpt><trkpt lat="43.2125117" lon="12.86898"><ele>587.5714285714286</ele><time>2026-04-18T10:21:43.04Z</time></trkpt><trkpt lat="43.2124683" lon="12.8689017"><ele>585.8571428571429</ele><time>2026-04-18T10:21:44.039Z</time></trkpt><trkpt lat="43.2124233" lon="12.8688333"><ele>584.1428571428571</ele><time>2026-04-18T10:21:45.039Z</time></trkpt><trkpt lat="43.2123767" lon="12.8687667"><ele>582.4285714285714</ele><time>2026-04-18T10:21:46.039Z</time></trkpt><trkpt lat="43.2123233" lon="12.8687033"><ele>580.7142857142857</ele><time>2026-04-18T10:21:47.04Z</time></trkpt><trkpt lat="43.21227" lon="12.86864"><ele>579.0</ele><time>2026-04-18T10:21:48.039Z</time></trkpt><trkpt lat="43.2122167" lon="12.8685733"><ele>578.8333333333334</ele><time>2026-04-18T10:21:49.039Z</time></trkpt><trkpt lat="43.2121667" lon="12.8685033"><ele>578.6666666666666</ele><time>2026-04-18T10:21:50.039Z</time></trkpt><trkpt lat="43.212115" lon="12.8684283"><ele>578.5</ele><time>2026-04-18T10:21:51.039Z</time></trkpt><trkpt lat="43.2120633" lon="12.8683533"><ele>578.3333333333333</ele><time>2026-04-18T10:21:52.039Z</time></trkpt><trkpt lat="43.21201" lon="12.8682733"><ele>578.1666666666666</ele><time>2026-04-18T10:21:53.039Z</time></trkpt><trkpt lat="43.2119533" lon="12.8681917"><ele>578.0</ele><time>2026-04-18T10:21:54.039Z</time></trkpt><trkpt lat="43.2118967" lon="12.8681117"><ele>575.8333333333333</ele><time>2026-04-18T10:21:55.039Z</time></trkpt><trkpt lat="43.2118417" lon="12.8680267"><ele>573.6666666666666</ele><time>2026-04-18T10:21:56.039Z</time></trkpt><trkpt lat="43.21179" lon="12.8679333"><ele>571.5</ele><time>2026-04-18T10:21:57.039Z</time></trkpt><trkpt lat="43.2117367" lon="12.867835"><ele>569.3333333333334</ele><time>2026-04-18T10:21:58.039Z</time></trkpt><trkpt lat="43.2116817" lon="12.8677417"><ele>567.1666666666667</ele><time>2026-04-18T10:21:59.039Z</time></trkpt><trkpt lat="43.21163" lon="12.867655"><ele>565.0</ele><time>2026-04-18T10:22:00.039Z</time></trkpt><trkpt lat="43.2115733" lon="12.8675733"><ele>564.0</ele><time>2026-04-18T10:22:01.039Z</time></trkpt><trkpt lat="43.2115167" lon="12.8674867"><ele>563.0</ele><time>2026-04-18T10:22:02.04Z</time></trkpt><trkpt lat="43.211455" lon="12.867405"><ele>562.0</ele><time>2026-04-18T10:22:03.039Z</time></trkpt><trkpt lat="43.2113917" lon="12.8673167"><ele>561.0</ele><time>2026-04-18T10:22:04.039Z</time></trkpt><trkpt lat="43.21132" lon="12.8672283"><ele>560.0</ele><time>2026-04-18T10:22:05.039Z</time></trkpt><trkpt lat="43.2112567" lon="12.8671333"><ele>558.4</ele><time>2026-04-18T10:22:06.039Z</time></trkpt><trkpt lat="43.211185" lon="12.8670417"><ele>556.8</ele><time>2026-04-18T10:22:07.039Z</time></trkpt><trkpt lat="43.2111083" lon="12.8669433"><ele>555.2</ele><time>2026-04-18T10:22:08.039Z</time></trkpt><trkpt lat="43.2110317" lon="12.8668433"><ele>553.6</ele><time>2026-04-18T10:22:09.04Z</time></trkpt><trkpt lat="43.2109517" lon="12.8667433"><ele>552.0</ele><time>2026-04-18T10:22:10.039Z</time></trkpt><trkpt lat="43.2108733" lon="12.866645"><ele>551.6</ele><time>2026-04-18T10:22:11.039Z</time></trkpt><trkpt lat="43.210795" lon="12.86655"><ele>551.2</ele><time>2026-04-18T10:22:12.039Z</time></trkpt><trkpt lat="43.2107167" lon="12.86646"><ele>550.8</ele><time>2026-04-18T10:22:13.039Z</time></trkpt><trkpt lat="43.2106317" lon="12.866375"><ele>550.4</ele><time>2026-04-18T10:22:14.039Z</time></trkpt><trkpt lat="43.210545" lon="12.8662883"><ele>550.0</ele><time>2026-04-18T10:22:15.039Z</time></trkpt><trkpt lat="43.2104567" lon="12.8662117"><ele>548.4</ele><time>2026-04-18T10:22:16.039Z</time></trkpt><trkpt lat="43.210375" lon="12.8661383"><ele>546.8</ele><time>2026-04-18T10:22:17.039Z</time></trkpt><trkpt lat="43.2102917" lon="12.866075"><ele>545.2</ele><time>2026-04-18T10:22:18.039Z</time></trkpt><trkpt lat="43.2102117" lon="12.8660133"><ele>543.6</ele><time>2026-04-18T10:22:19.039Z</time></trkpt><trkpt lat="43.2101317" lon="12.8659667"><ele>542.0</ele><time>2026-04-18T10:22:20.04Z</time></trkpt><trkpt lat="43.2100433" lon="12.8659333"><ele>541.1666666666666</ele><time>2026-04-18T10:22:21.039Z</time></trkpt><trkpt lat="43.2099567" lon="12.86591"><ele>540.3333333333333</ele><time>2026-04-18T10:22:22.04Z</time></trkpt><trkpt lat="43.20987" lon="12.8659117"><ele>539.5</ele><time>2026-04-18T10:22:23.039Z</time></trkpt><trkpt lat="43.2097817" lon="12.8659183"><ele>538.6666666666666</ele><time>2026-04-18T10:22:24.039Z</time></trkpt><trkpt lat="43.2096933" lon="12.86593"><ele>537.8333333333334</ele><time>2026-04-18T10:22:25.04Z</time></trkpt><trkpt lat="43.2095983" lon="12.8659433"><ele>537.0</ele><time>2026-04-18T10:22:26.039Z</time></trkpt><trkpt lat="43.2095133" lon="12.8659567"><ele>536.1666666666666</ele><time>2026-04-18T10:22:27.039Z</time></trkpt><trkpt lat="43.2094333" lon="12.8659717"><ele>535.3333333333334</ele><time>2026-04-18T10:22:28.039Z</time></trkpt><trkpt lat="43.20936" lon="12.8659933"><ele>534.5</ele><time>2026-04-18T10:22:29.039Z</time></trkpt><trkpt lat="43.2092417" lon="12.8660283"><ele>533.6666666666667</ele><time>2026-04-18T10:22:31.039Z</time></trkpt><trkpt lat="43.20916" lon="12.8660583"><ele>532.8333333333334</ele><time>2026-04-18T10:22:33.039Z</time></trkpt><trkpt lat="43.2090817" lon="12.866045"><ele>532.0</ele><time>2026-04-18T10:22:36.039Z</time></trkpt><trkpt lat="43.2090867" lon="12.8659233"><ele>531.2</ele><time>2026-04-18T10:22:39.039Z</time></trkpt><trkpt lat="43.209155" lon="12.8657683"><ele>530.4000000000001</ele><time>2026-04-18T10:22:41.039Z</time></trkpt><trkpt lat="43.209185" lon="12.86569"><ele>529.5999999999999</ele><time>2026-04-18T10:22:42.039Z</time></trkpt><trkpt lat="43.2092367" lon="12.865535"><ele>528.8</ele><time>2026-04-18T10:22:44.039Z</time></trkpt><trkpt lat="43.2092667" lon="12.865455"><ele>528.0</ele><time>2026-04-18T10:22:45.039Z</time></trkpt><trkpt lat="43.209305" lon="12.865375"><ele>528.0</ele><time>2026-04-18T10:22:46.039Z</time></trkpt><trkpt lat="43.209355" lon="12.8652933"><ele>528.0</ele><time>2026-04-18T10:22:47.039Z</time></trkpt><trkpt lat="43.2094233" lon="12.8652167"><ele>528.0</ele><time>2026-04-18T10:22:48.04Z</time></trkpt><trkpt lat="43.2095033" lon="12.86515"><ele>528.0</ele><time>2026-04-18T10:22:49.039Z</time></trkpt><trkpt lat="43.209595" lon="12.8651117"><ele>528.0</ele><time>2026-04-18T10:22:50.039Z</time></trkpt><trkpt lat="43.2096933" lon="12.8650783"><ele>528.4</ele><time>2026-04-18T10:22:51.039Z</time></trkpt><trkpt lat="43.2097917" lon="12.8650483"><ele>528.8</ele><time>2026-04-18T10:22:52.039Z</time></trkpt><trkpt lat="43.2098833" lon="12.86501"><ele>529.2</ele><time>2026-04-18T10:22:53.039Z</time></trkpt><trkpt lat="43.2099767" lon="12.86495"><ele>529.6</ele><time>2026-04-18T10:22:54.039Z</time></trkpt><trkpt lat="43.2100633" lon="12.8648633"><ele>530.0</ele><time>2026-04-18T10:22:55.039Z</time></trkpt><trkpt lat="43.2101467" lon="12.8647617"><ele>530.0</ele><time>2026-04-18T10:22:56.039Z</time></trkpt><trkpt lat="43.21022" lon="12.8646683"><ele>530.0</ele><time>2026-04-18T10:22:57.039Z</time></trkpt><trkpt lat="43.2102933" lon="12.864595"><ele>530.0</ele><time>2026-04-18T10:22:58.039Z</time></trkpt><trkpt lat="43.210375" lon="12.8645317"><ele>530.0</ele><time>2026-04-18T10:22:59.04Z</time></trkpt><trkpt lat="43.2104667" lon="12.86449"><ele>530.0</ele><time>2026-04-18T10:23:00.039Z</time></trkpt><trkpt lat="43.2105567" lon="12.864455"><ele>530.0</ele><time>2026-04-18T10:23:01.039Z</time></trkpt><trkpt lat="43.2106567" lon="12.8644217"><ele>530.0</ele><time>2026-04-18T10:23:02.039Z</time></trkpt><trkpt lat="43.210755" lon="12.8643917"><ele>530.0</ele><time>2026-04-18T10:23:03.039Z</time></trkpt><trkpt lat="43.2108567" lon="12.8643717"><ele>530.0</ele><time>2026-04-18T10:23:04.04Z</time></trkpt><trkpt lat="43.2109517" lon="12.8643583"><ele>530.0</ele><time>2026-04-18T10:23:05.039Z</time></trkpt><trkpt lat="43.2110583" lon="12.8643583"><ele>531.8</ele><time>2026-04-18T10:23:06.039Z</time></trkpt><trkpt lat="43.2111633" lon="12.8643633"><ele>533.6</ele><time>2026-04-18T10:23:07.039Z</time></trkpt><trkpt lat="43.211265" lon="12.86437"><ele>535.4</ele><time>2026-04-18T10:23:08.039Z</time></trkpt><trkpt lat="43.21137" lon="12.8643783"><ele>537.2</ele><time>2026-04-18T10:23:09.039Z</time></trkpt><trkpt lat="43.211475" lon="12.86439"><ele>539.0</ele><time>2026-04-18T10:23:10.04Z</time></trkpt><trkpt lat="43.2115817" lon="12.8643983"><ele>539.8</ele><time>2026-04-18T10:23:11.039Z</time></trkpt><trkpt lat="43.2116917" lon="12.864415"><ele>540.5999999999999</ele><time>2026-04-18T10:23:12.04Z</time></trkpt><trkpt lat="43.2118017" lon="12.86443"><ele>541.4</ele><time>2026-04-18T10:23:13.039Z</time></trkpt><trkpt lat="43.2119067" lon="12.8644483"><ele>542.1999999999999</ele><time>2026-04-18T10:23:14.04Z</time></trkpt><trkpt lat="43.212015" lon="12.86447"><ele>543.0</ele><time>2026-04-18T10:23:15.039Z</time></trkpt><trkpt lat="43.2121133" lon="12.8645"><ele>543.0</ele><time>2026-04-18T10:23:16.039Z</time></trkpt><trkpt lat="43.2122017" lon="12.8645417"><ele>543.0</ele><time>2026-04-18T10:23:17.039Z</time></trkpt><trkpt lat="43.212285" lon="12.8645983"><ele>543.0</ele><time>2026-04-18T10:23:18.039Z</time></trkpt><trkpt lat="43.21236" lon="12.8646667"><ele>543.0</ele><time>2026-04-18T10:23:19.039Z</time></trkpt><trkpt lat="43.2124317" lon="12.86476"><ele>543.0</ele><time>2026-04-18T10:23:20.039Z</time></trkpt><trkpt lat="43.2124917" lon="12.8648683"><ele>542.6</ele><time>2026-04-18T10:23:21.039Z</time></trkpt><trkpt lat="43.2125533" lon="12.8649867"><ele>542.1999999999999</ele><time>2026-04-18T10:23:22.039Z</time></trkpt><trkpt lat="43.2126183" lon="12.8651117"><ele>541.8</ele><time>2026-04-18T10:23:23.04Z</time></trkpt><trkpt lat="43.2126817" lon="12.8652367"><ele>541.4</ele><time>2026-04-18T10:23:24.039Z</time></trkpt><trkpt lat="43.212745" lon="12.8653583"><ele>541.0</ele><time>2026-04-18T10:23:25.039Z</time></trkpt><trkpt lat="43.2128033" lon="12.8654917"><ele>542.2</ele><time>2026-04-18T10:23:26.039Z</time></trkpt><trkpt lat="43.2128583" lon="12.8656233"><ele>543.4000000000001</ele><time>2026-04-18T10:23:27.039Z</time></trkpt><trkpt lat="43.2129217" lon="12.8657567"><ele>544.6</ele><time>2026-04-18T10:23:28.039Z</time></trkpt><trkpt lat="43.2129683" lon="12.8658917"><ele>545.8000000000001</ele><time>2026-04-18T10:23:29.039Z</time></trkpt><trkpt lat="43.2130133" lon="12.8660283"><ele>547.0</ele><time>2026-04-18T10:23:30.039Z</time></trkpt><trkpt lat="43.2130567" lon="12.8661417"><ele>548.3333333333334</ele><time>2026-04-18T10:23:31.039Z</time></trkpt><trkpt lat="43.2130967" lon="12.8662567"><ele>549.6666666666667</ele><time>2026-04-18T10:23:32.039Z</time></trkpt><trkpt lat="43.21313" lon="12.8663683"><ele>551.0</ele><time>2026-04-18T10:23:33.04Z</time></trkpt><trkpt lat="43.2131667" lon="12.8664783"><ele>552.3333333333334</ele><time>2026-04-18T10:23:34.039Z</time></trkpt><trkpt lat="43.2132033" lon="12.866595"><ele>553.6666666666666</ele><time>2026-04-18T10:23:35.039Z</time></trkpt><trkpt lat="43.213235" lon="12.8667033"><ele>555.0</ele><time>2026-04-18T10:23:36.039Z</time></trkpt><trkpt lat="43.2132717" lon="12.8668017"><ele>552.7142857142858</ele><time>2026-04-18T10:23:37.039Z</time></trkpt><trkpt lat="43.2133183" lon="12.8668867"><ele>550.4285714285714</ele><time>2026-04-18T10:23:38.04Z</time></trkpt><trkpt lat="43.2133617" lon="12.8669633"><ele>548.1428571428571</ele><time>2026-04-18T10:23:39.039Z</time></trkpt><trkpt lat="43.2134217" lon="12.8670333"><ele>545.8571428571429</ele><time>2026-04-18T10:23:40.039Z</time></trkpt><trkpt lat="43.2134817" lon="12.8670917"><ele>543.5714285714286</ele><time>2026-04-18T10:23:41.039Z</time></trkpt><trkpt lat="43.2135467" lon="12.86713"><ele>541.2857142857143</ele><time>2026-04-18T10:23:42.039Z</time></trkpt><trkpt lat="43.2136133" lon="12.8671583"><ele>539.0</ele><time>2026-04-18T10:23:43.039Z</time></trkpt><trkpt lat="43.21368" lon="12.8671767"><ele>539.0</ele><time>2026-04-18T10:23:44.039Z</time></trkpt><trkpt lat="43.2137983" lon="12.8671817"><ele>539.0</ele><time>2026-04-18T10:23:46.039Z</time></trkpt><trkpt lat="43.21391" lon="12.867175"><ele>539.0</ele><time>2026-04-18T10:23:48.039Z</time></trkpt><trkpt lat="43.2140217" lon="12.8670967"><ele>539.0</ele><time>2026-04-18T10:23:50.04Z</time></trkpt><trkpt lat="43.2140633" lon="12.8670317"><ele>539.0</ele><time>2026-04-18T10:23:51.039Z</time></trkpt><trkpt lat="43.2140967" lon="12.8669467"><ele>539.2</ele><time>2026-04-18T10:23:52.039Z</time></trkpt><trkpt lat="43.2141383" lon="12.8667733"><ele>539.4</ele><time>2026-04-18T10:23:54.039Z</time></trkpt><trkpt lat="43.2141533" lon="12.8666667"><ele>539.6</ele><time>2026-04-18T10:23:55.04Z</time></trkpt><trkpt lat="43.2141717" lon="12.866545"><ele>539.8</ele><time>2026-04-18T10:23:56.04Z</time></trkpt><trkpt lat="43.214195" lon="12.8664167"><ele>540.0</ele><time>2026-04-18T10:23:57.039Z</time></trkpt><trkpt lat="43.2142283" lon="12.86629"><ele>540.0</ele><time>2026-04-18T10:23:58.039Z</time></trkpt><trkpt lat="43.21427" lon="12.8661617"><ele>540.0</ele><time>2026-04-18T10:23:59.04Z</time></trkpt><trkpt lat="43.2143167" lon="12.8660367"><ele>540.0</ele><time>2026-04-18T10:24:00.039Z</time></trkpt><trkpt lat="43.21436" lon="12.865925"><ele>540.0</ele><time>2026-04-18T10:24:01.039Z</time></trkpt><trkpt lat="43.2144017" lon="12.865815"><ele>540.0</ele><time>2026-04-18T10:24:02.039Z</time></trkpt><trkpt lat="43.2144567" lon="12.865725"><ele>540.5</ele><time>2026-04-18T10:24:03.039Z</time></trkpt><trkpt lat="43.2145183" lon="12.865645"><ele>541.0</ele><time>2026-04-18T10:24:04.039Z</time></trkpt><trkpt lat="43.21459" lon="12.8655783"><ele>541.5</ele><time>2026-04-18T10:24:05.039Z</time></trkpt><trkpt lat="43.21466" lon="12.865515"><ele>542.0</ele><time>2026-04-18T10:24:06.039Z</time></trkpt><trkpt lat="43.2147167" lon="12.8654667"><ele>542.5</ele><time>2026-04-18T10:24:07.039Z</time></trkpt><trkpt lat="43.2148033" lon="12.86537"><ele>543.0</ele><time>2026-04-18T10:24:09.039Z</time></trkpt><trkpt lat="43.2148317" lon="12.8652867"><ele>543.0</ele><time>2026-04-18T10:24:10.039Z</time></trkpt><trkpt lat="43.2148417" lon="12.865175"><ele>543.0</ele><time>2026-04-18T10:24:11.039Z</time></trkpt><trkpt lat="43.21484" lon="12.8650333"><ele>543.0</ele><time>2026-04-18T10:24:12.039Z</time></trkpt><trkpt lat="43.2148267" lon="12.864885"><ele>543.0</ele><time>2026-04-18T10:24:13.039Z</time></trkpt><trkpt lat="43.2148167" lon="12.8647233"><ele>543.0</ele><time>2026-04-18T10:24:14.039Z</time></trkpt><trkpt lat="43.21481" lon="12.8645333"><ele>540.5</ele><time>2026-04-18T10:24:15.039Z</time></trkpt><trkpt lat="43.2148117" lon="12.8643533"><ele>538.0</ele><time>2026-04-18T10:24:16.039Z</time></trkpt><trkpt lat="43.21481" lon="12.8641733"><ele>535.5</ele><time>2026-04-18T10:24:17.039Z</time></trkpt><trkpt lat="43.2148083" lon="12.8640033"><ele>533.0</ele><time>2026-04-18T10:24:18.039Z</time></trkpt><trkpt lat="43.2148" lon="12.8638433"><ele>532.4</ele><time>2026-04-18T10:24:19.039Z</time></trkpt><trkpt lat="43.214785" lon="12.863685"><ele>531.8</ele><time>2026-04-18T10:24:20.039Z</time></trkpt><trkpt lat="43.2147717" lon="12.8635333"><ele>531.2</ele><time>2026-04-18T10:24:21.04Z</time></trkpt><trkpt lat="43.2147383" lon="12.86339"><ele>530.6</ele><time>2026-04-18T10:24:22.039Z</time></trkpt><trkpt lat="43.2146967" lon="12.8632567"><ele>530.0</ele><time>2026-04-18T10:24:23.039Z</time></trkpt><trkpt lat="43.2146517" lon="12.8631217"><ele>529.2</ele><time>2026-04-18T10:24:24.039Z</time></trkpt><trkpt lat="43.2145983" lon="12.8629917"><ele>528.4</ele><time>2026-04-18T10:24:25.039Z</time></trkpt><trkpt lat="43.214545" lon="12.8628767"><ele>527.6</ele><time>2026-04-18T10:24:26.04Z</time></trkpt><trkpt lat="43.2144933" lon="12.8627733"><ele>526.8</ele><time>2026-04-18T10:24:27.039Z</time></trkpt><trkpt lat="43.214445" lon="12.862675"><ele>526.0</ele><time>2026-04-18T10:24:28.039Z</time></trkpt><trkpt lat="43.2143783" lon="12.8625783"><ele>526.0</ele><time>2026-04-18T10:24:29.039Z</time></trkpt><trkpt lat="43.2143033" lon="12.8624983"><ele>526.0</ele><time>2026-04-18T10:24:30.039Z</time></trkpt><trkpt lat="43.21422" lon="12.862435"><ele>526.0</ele><time>2026-04-18T10:24:31.039Z</time></trkpt><trkpt lat="43.21412" lon="12.862375"><ele>526.0</ele><time>2026-04-18T10:24:32.039Z</time></trkpt><trkpt lat="43.21402" lon="12.8623283"><ele>526.0</ele><time>2026-04-18T10:24:33.039Z</time></trkpt><trkpt lat="43.21393" lon="12.8622917"><ele>525.8333333333334</ele><time>2026-04-18T10:24:34.039Z</time></trkpt><trkpt lat="43.21385" lon="12.8622717"><ele>525.6666666666667</ele><time>2026-04-18T10:24:35.039Z</time></trkpt><trkpt lat="43.21379" lon="12.8622417"><ele>525.5</ele><time>2026-04-18T10:24:36.039Z</time></trkpt><trkpt lat="43.2137033" lon="12.8621983"><ele>525.3333333333334</ele><time>2026-04-18T10:24:38.039Z</time></trkpt><trkpt lat="43.2137033" lon="12.8620833"><ele>525.1666666666666</ele><time>2026-04-18T10:24:41.039Z</time></trkpt><trkpt lat="43.213795" lon="12.8620867"><ele>525.0</ele><time>2026-04-18T10:24:43.039Z</time></trkpt><trkpt lat="43.2138717" lon="12.86213"><ele>525.0</ele><time>2026-04-18T10:24:44.04Z</time></trkpt><trkpt lat="43.2139617" lon="12.8621733"><ele>525.0</ele><time>2026-04-18T10:24:45.04Z</time></trkpt><trkpt lat="43.2140717" lon="12.862195"><ele>525.0</ele><time>2026-04-18T10:24:46.039Z</time></trkpt><trkpt lat="43.214185" lon="12.8622117"><ele>525.0</ele><time>2026-04-18T10:24:47.039Z</time></trkpt><trkpt lat="43.2143083" lon="12.8622133"><ele>525.0</ele><time>2026-04-18T10:24:48.039Z</time></trkpt><trkpt lat="43.2144417" lon="12.8622033"><ele>525.0</ele><time>2026-04-18T10:24:49.039Z</time></trkpt><trkpt lat="43.21458" lon="12.862175"><ele>525.0</ele><time>2026-04-18T10:24:50.039Z</time></trkpt><trkpt lat="43.2147183" lon="12.862145"><ele>525.0</ele><time>2026-04-18T10:24:51.039Z</time></trkpt><trkpt lat="43.2148567" lon="12.8621283"><ele>525.0</ele><time>2026-04-18T10:24:52.039Z</time></trkpt><trkpt lat="43.2150017" lon="12.86213"><ele>525.0</ele><time>2026-04-18T10:24:53.039Z</time></trkpt><trkpt lat="43.21515" lon="12.862155"><ele>525.0</ele><time>2026-04-18T10:24:54.04Z</time></trkpt><trkpt lat="43.2153083" lon="12.86219"><ele>525.0</ele><time>2026-04-18T10:24:55.04Z</time></trkpt><trkpt lat="43.2154717" lon="12.8622383"><ele>525.0</ele><time>2026-04-18T10:24:56.04Z</time></trkpt><trkpt lat="43.2156283" lon="12.8623"><ele>525.0</ele><time>2026-04-18T10:24:57.04Z</time></trkpt><trkpt lat="43.2157767" lon="12.86238"><ele>525.0</ele><time>2026-04-18T10:24:58.039Z</time></trkpt><trkpt lat="43.2159283" lon="12.8624617"><ele>524.6666666666666</ele><time>2026-04-18T10:24:59.039Z</time></trkpt><trkpt lat="43.2160733" lon="12.862535"><ele>524.3333333333333</ele><time>2026-04-18T10:25:00.039Z</time></trkpt><trkpt lat="43.2162283" lon="12.862605"><ele>524.0</ele><time>2026-04-18T10:25:01.039Z</time></trkpt><trkpt lat="43.216385" lon="12.862675"><ele>526.0</ele><time>2026-04-18T10:25:02.04Z</time></trkpt><trkpt lat="43.2165383" lon="12.86275"><ele>528.0</ele><time>2026-04-18T10:25:03.039Z</time></trkpt><trkpt lat="43.216695" lon="12.8628233"><ele>530.0</ele><time>2026-04-18T10:25:04.039Z</time></trkpt><trkpt lat="43.2168433" lon="12.8628917"><ele>530.0</ele><time>2026-04-18T10:25:05.039Z</time></trkpt><trkpt lat="43.2169983" lon="12.8629483"><ele>530.0</ele><time>2026-04-18T10:25:06.039Z</time></trkpt><trkpt lat="43.2171483" lon="12.8630033"><ele>530.0</ele><time>2026-04-18T10:25:07.039Z</time></trkpt><trkpt lat="43.217295" lon="12.8630583"><ele>533.0</ele><time>2026-04-18T10:25:08.039Z</time></trkpt><trkpt lat="43.2174417" lon="12.8631133"><ele>536.0</ele><time>2026-04-18T10:25:09.04Z</time></trkpt><trkpt lat="43.2175917" lon="12.8631617"><ele>539.0</ele><time>2026-04-18T10:25:10.039Z</time></trkpt><trkpt lat="43.2177433" lon="12.86322"><ele>539.0</ele><time>2026-04-18T10:25:11.039Z</time></trkpt><trkpt lat="43.2178983" lon="12.8632717"><ele>539.0</ele><time>2026-04-18T10:25:12.039Z</time></trkpt><trkpt lat="43.21805" lon="12.8633217"><ele>539.0</ele><time>2026-04-18T10:25:13.039Z</time></trkpt><trkpt lat="43.2181967" lon="12.863375"><ele>538.25</ele><time>2026-04-18T10:25:14.039Z</time></trkpt><trkpt lat="43.21833" lon="12.8634217"><ele>537.5</ele><time>2026-04-18T10:25:15.039Z</time></trkpt><trkpt lat="43.2184633" lon="12.863455"><ele>536.75</ele><time>2026-04-18T10:25:16.04Z</time></trkpt><trkpt lat="43.2185867" lon="12.863475"><ele>536.0</ele><time>2026-04-18T10:25:17.039Z</time></trkpt><trkpt lat="43.2187017" lon="12.86349"><ele>536.0</ele><time>2026-04-18T10:25:18.039Z</time></trkpt><trkpt lat="43.2188233" lon="12.8635"><ele>536.0</ele><time>2026-04-18T10:25:19.039Z</time></trkpt><trkpt lat="43.2189517" lon="12.8635083"><ele>536.0</ele><time>2026-04-18T10:25:20.039Z</time></trkpt><trkpt lat="43.2190933" lon="12.8635133"><ele>536.0</ele><time>2026-04-18T10:25:21.039Z</time></trkpt><trkpt lat="43.2192533" lon="12.8635183"><ele>537.0</ele><time>2026-04-18T10:25:22.039Z</time></trkpt><trkpt lat="43.2194167" lon="12.8635133"><ele>538.0</ele><time>2026-04-18T10:25:23.039Z</time></trkpt><trkpt lat="43.21959" lon="12.8635133"><ele>539.0</ele><time>2026-04-18T10:25:24.039Z</time></trkpt><trkpt lat="43.2197583" lon="12.8635133"><ele>538.6666666666666</ele><time>2026-04-18T10:25:25.039Z</time></trkpt><trkpt lat="43.2199183" lon="12.8635133"><ele>538.3333333333334</ele><time>2026-04-18T10:25:26.039Z</time></trkpt><trkpt lat="43.220085" lon="12.8635167"><ele>538.0</ele><time>2026-04-18T10:25:27.039Z</time></trkpt><trkpt lat="43.22025" lon="12.8635283"><ele>538.0</ele><time>2026-04-18T10:25:28.039Z</time></trkpt><trkpt lat="43.2204133" lon="12.8635267"><ele>538.0</ele><time>2026-04-18T10:25:29.039Z</time></trkpt><trkpt lat="43.2205817" lon="12.863525"><ele>538.0</ele><time>2026-04-18T10:25:30.039Z</time></trkpt><trkpt lat="43.2207467" lon="12.8635333"><ele>537.6666666666667</ele><time>2026-04-18T10:25:31.039Z</time></trkpt><trkpt lat="43.22091" lon="12.8635317"><ele>537.3333333333334</ele><time>2026-04-18T10:25:32.039Z</time></trkpt><trkpt lat="43.2210783" lon="12.863535"><ele>537.0</ele><time>2026-04-18T10:25:33.039Z</time></trkpt><trkpt lat="43.2212433" lon="12.8635233"><ele>537.0</ele><time>2026-04-18T10:25:34.039Z</time></trkpt><trkpt lat="43.22141" lon="12.8635133"><ele>537.0</ele><time>2026-04-18T10:25:35.039Z</time></trkpt><trkpt lat="43.221585" lon="12.863505"><ele>537.0</ele><time>2026-04-18T10:25:36.039Z</time></trkpt><trkpt lat="43.2217533" lon="12.86351"><ele>537.3333333333334</ele><time>2026-04-18T10:25:37.039Z</time></trkpt><trkpt lat="43.22192" lon="12.8635133"><ele>537.6666666666667</ele><time>2026-04-18T10:25:38.039Z</time></trkpt><trkpt lat="43.2220833" lon="12.8635167"><ele>538.0</ele><time>2026-04-18T10:25:39.039Z</time></trkpt><trkpt lat="43.2222467" lon="12.8635133"><ele>538.6666666666667</ele><time>2026-04-18T10:25:40.039Z</time></trkpt><trkpt lat="43.2224067" lon="12.8635133"><ele>539.3333333333334</ele><time>2026-04-18T10:25:41.04Z</time></trkpt><trkpt lat="43.22257" lon="12.8635183"><ele>540.0</ele><time>2026-04-18T10:25:42.039Z</time></trkpt><trkpt lat="43.2227417" lon="12.8635133"><ele>540.0</ele><time>2026-04-18T10:25:43.039Z</time></trkpt><trkpt lat="43.2229183" lon="12.8635167"><ele>540.0</ele><time>2026-04-18T10:25:44.039Z</time></trkpt><trkpt lat="43.2230983" lon="12.86352"><ele>540.0</ele><time>2026-04-18T10:25:45.039Z</time></trkpt><trkpt lat="43.223265" lon="12.8635167"><ele>540.6666666666666</ele><time>2026-04-18T10:25:46.039Z</time></trkpt><trkpt lat="43.2234333" lon="12.8635167"><ele>541.3333333333333</ele><time>2026-04-18T10:25:47.039Z</time></trkpt><trkpt lat="43.2235983" lon="12.8635183"><ele>542.0</ele><time>2026-04-18T10:25:48.039Z</time></trkpt><trkpt lat="43.2237633" lon="12.86351"><ele>542.0</ele><time>2026-04-18T10:25:49.039Z</time></trkpt><trkpt lat="43.2239333" lon="12.8635117"><ele>542.0</ele><time>2026-04-18T10:25:50.039Z</time></trkpt><trkpt lat="43.224105" lon="12.86351"><ele>542.0</ele><time>2026-04-18T10:25:51.039Z</time></trkpt><trkpt lat="43.2242667" lon="12.8635033"><ele>543.25</ele><time>2026-04-18T10:25:52.039Z</time></trkpt><trkpt lat="43.2244267" lon="12.8634933"><ele>544.5</ele><time>2026-04-18T10:25:53.04Z</time></trkpt><trkpt lat="43.2245717" lon="12.8634933"><ele>545.75</ele><time>2026-04-18T10:25:54.04Z</time></trkpt><trkpt lat="43.2247133" lon="12.863495"><ele>547.0</ele><time>2026-04-18T10:25:55.039Z</time></trkpt><trkpt lat="43.2248367" lon="12.863505"><ele>547.8000000000001</ele><time>2026-04-18T10:25:56.039Z</time></trkpt><trkpt lat="43.224945" lon="12.863515"><ele>548.6</ele><time>2026-04-18T10:25:57.039Z</time></trkpt><trkpt lat="43.225045" lon="12.8635183"><ele>549.4000000000001</ele><time>2026-04-18T10:25:58.039Z</time></trkpt><trkpt lat="43.225145" lon="12.8635117"><ele>550.2</ele><time>2026-04-18T10:25:59.039Z</time></trkpt><trkpt lat="43.2252317" lon="12.8635083"><ele>551.0</ele><time>2026-04-18T10:26:00.04Z</time></trkpt><trkpt lat="43.2253117" lon="12.86351"><ele>551.0</ele><time>2026-04-18T10:26:01.039Z</time></trkpt><trkpt lat="43.2253783" lon="12.86351"><ele>551.0</ele><time>2026-04-18T10:26:02.039Z</time></trkpt><trkpt lat="43.2254767" lon="12.8634633"><ele>551.0</ele><time>2026-04-18T10:26:04.039Z</time></trkpt><trkpt lat="43.2254667" lon="12.8633467"><ele>551.0</ele><time>2026-04-18T10:26:06.039Z</time></trkpt><trkpt lat="43.2254267" lon="12.86327"><ele>551.0</ele><time>2026-04-18T10:26:07.039Z</time></trkpt><trkpt lat="43.2253833" lon="12.8631833"><ele>551.0</ele><time>2026-04-18T10:26:08.04Z</time></trkpt><trkpt lat="43.225335" lon="12.863075"><ele>550.5</ele><time>2026-04-18T10:26:09.039Z</time></trkpt><trkpt lat="43.2252883" lon="12.86295"><ele>550.0</ele><time>2026-04-18T10:26:10.039Z</time></trkpt><trkpt lat="43.2252383" lon="12.86281"><ele>549.5</ele><time>2026-04-18T10:26:11.039Z</time></trkpt><trkpt lat="43.2251833" lon="12.8626617"><ele>549.0</ele><time>2026-04-18T10:26:12.039Z</time></trkpt><trkpt lat="43.22514" lon="12.8625083"><ele>548.25</ele><time>2026-04-18T10:26:13.04Z</time></trkpt><trkpt lat="43.22509" lon="12.8623567"><ele>547.5</ele><time>2026-04-18T10:26:14.039Z</time></trkpt><trkpt lat="43.22505" lon="12.86221"><ele>546.75</ele><time>2026-04-18T10:26:15.04Z</time></trkpt><trkpt lat="43.2250083" lon="12.8620633"><ele>546.0</ele><time>2026-04-18T10:26:16.039Z</time></trkpt><trkpt lat="43.2249683" lon="12.8619317"><ele>546.0</ele><time>2026-04-18T10:26:17.039Z</time></trkpt><trkpt lat="43.2249317" lon="12.8618117"><ele>546.0</ele><time>2026-04-18T10:26:18.039Z</time></trkpt><trkpt lat="43.224895" lon="12.8616817"><ele>546.0</ele><time>2026-04-18T10:26:19.039Z</time></trkpt><trkpt lat="43.2248583" lon="12.8615367"><ele>546.0</ele><time>2026-04-18T10:26:20.039Z</time></trkpt><trkpt lat="43.2248217" lon="12.8613917"><ele>546.0</ele><time>2026-04-18T10:26:21.039Z</time></trkpt><trkpt lat="43.2247883" lon="12.86124"><ele>545.5</ele><time>2026-04-18T10:26:22.039Z</time></trkpt><trkpt lat="43.2247633" lon="12.8610783"><ele>545.0</ele><time>2026-04-18T10:26:23.039Z</time></trkpt><trkpt lat="43.2247367" lon="12.860915"><ele>544.5</ele><time>2026-04-18T10:26:24.039Z</time></trkpt><trkpt lat="43.22472" lon="12.86076"><ele>544.0</ele><time>2026-04-18T10:26:25.04Z</time></trkpt><trkpt lat="43.2246883" lon="12.86061"><ele>545.0</ele><time>2026-04-18T10:26:26.039Z</time></trkpt><trkpt lat="43.2246617" lon="12.86046"><ele>546.0</ele><time>2026-04-18T10:26:27.039Z</time></trkpt><trkpt lat="43.2246333" lon="12.8603233"><ele>547.0</ele><time>2026-04-18T10:26:28.039Z</time></trkpt><trkpt lat="43.224605" lon="12.8601967"><ele>548.0</ele><time>2026-04-18T10:26:29.039Z</time></trkpt><trkpt lat="43.2245733" lon="12.86007"><ele>549.0</ele><time>2026-04-18T10:26:30.039Z</time></trkpt><trkpt lat="43.22454" lon="12.8599583"><ele>551.6</ele><time>2026-04-18T10:26:31.039Z</time></trkpt><trkpt lat="43.2244917" lon="12.8598683"><ele>554.2</ele><time>2026-04-18T10:26:32.039Z</time></trkpt><trkpt lat="43.2244183" lon="12.8598167"><ele>556.8000000000001</ele><time>2026-04-18T10:26:33.039Z</time></trkpt><trkpt lat="43.22433" lon="12.8597933"><ele>559.4</ele><time>2026-04-18T10:26:34.039Z</time></trkpt><trkpt lat="43.2242317" lon="12.85981"><ele>562.0</ele><time>2026-04-18T10:26:35.039Z</time></trkpt><trkpt lat="43.2241267" lon="12.8598383"><ele>562.0</ele><time>2026-04-18T10:26:36.039Z</time></trkpt><trkpt lat="43.224025" lon="12.8598633"><ele>562.0</ele><time>2026-04-18T10:26:37.039Z</time></trkpt><trkpt lat="43.223925" lon="12.8598933"><ele>562.0</ele><time>2026-04-18T10:26:38.039Z</time></trkpt><trkpt lat="43.2238283" lon="12.85992"><ele>562.0</ele><time>2026-04-18T10:26:39.04Z</time></trkpt><trkpt lat="43.2237267" lon="12.8599383"><ele>562.0</ele><time>2026-04-18T10:26:40.039Z</time></trkpt><trkpt lat="43.2236333" lon="12.8599467"><ele>563.6</ele><time>2026-04-18T10:26:41.04Z</time></trkpt><trkpt lat="43.2235417" lon="12.8599567"><ele>565.2</ele><time>2026-04-18T10:26:42.039Z</time></trkpt><trkpt lat="43.2234433" lon="12.8599517"><ele>566.8</ele><time>2026-04-18T10:26:43.039Z</time></trkpt><trkpt lat="43.2233433" lon="12.859945"><ele>568.4</ele><time>2026-04-18T10:26:44.039Z</time></trkpt><trkpt lat="43.223245" lon="12.8599333"><ele>570.0</ele><time>2026-04-18T10:26:45.039Z</time></trkpt><trkpt lat="43.2231417" lon="12.8599267"><ele>572.2</ele><time>2026-04-18T10:26:46.039Z</time></trkpt><trkpt lat="43.22304" lon="12.859925"><ele>574.4</ele><time>2026-04-18T10:26:47.039Z</time></trkpt><trkpt lat="43.2229383" lon="12.8599167"><ele>576.6</ele><time>2026-04-18T10:26:48.039Z</time></trkpt><trkpt lat="43.2228367" lon="12.8599067"><ele>578.8</ele><time>2026-04-18T10:26:49.039Z</time></trkpt><trkpt lat="43.2227383" lon="12.85989"><ele>581.0</ele><time>2026-04-18T10:26:50.04Z</time></trkpt><trkpt lat="43.2226383" lon="12.859875"><ele>581.0</ele><time>2026-04-18T10:26:51.039Z</time></trkpt><trkpt lat="43.2225383" lon="12.8598633"><ele>581.0</ele><time>2026-04-18T10:26:52.04Z</time></trkpt><trkpt lat="43.2224517" lon="12.859855"><ele>581.0</ele><time>2026-04-18T10:26:53.039Z</time></trkpt><trkpt lat="43.2223867" lon="12.8598317"><ele>581.0</ele><time>2026-04-18T10:26:54.039Z</time></trkpt><trkpt lat="43.2223267" lon="12.8597133"><ele>581.0</ele><time>2026-04-18T10:26:56.039Z</time></trkpt><trkpt lat="43.22239" lon="12.8595533"><ele>581.0</ele><time>2026-04-18T10:26:58.04Z</time></trkpt><trkpt lat="43.2224617" lon="12.8594883"><ele>581.0</ele><time>2026-04-18T10:26:59.039Z</time></trkpt><trkpt lat="43.2225383" lon="12.8594267"><ele>581.0</ele><time>2026-04-18T10:27:00.04Z</time></trkpt><trkpt lat="43.2226217" lon="12.8593817"><ele>581.0</ele><time>2026-04-18T10:27:01.039Z</time></trkpt><trkpt lat="43.2227183" lon="12.8593717"><ele>581.0</ele><time>2026-04-18T10:27:02.039Z</time></trkpt><trkpt lat="43.2228033" lon="12.859395"><ele>581.0</ele><time>2026-04-18T10:27:03.039Z</time></trkpt><trkpt lat="43.2228683" lon="12.8594017"><ele>581.0</ele><time>2026-04-18T10:27:04.039Z</time></trkpt><trkpt lat="43.2229717" lon="12.859355"><ele>581.0</ele><time>2026-04-18T10:27:06.039Z</time></trkpt><trkpt lat="43.2229733" lon="12.859245"><ele>581.0</ele><time>2026-04-18T10:27:08.04Z</time></trkpt><trkpt lat="43.2228633" lon="12.8591417"><ele>581.0</ele><time>2026-04-18T10:27:10.039Z</time></trkpt><trkpt lat="43.2227817" lon="12.8590733"><ele>581.0</ele><time>2026-04-18T10:27:11.04Z</time></trkpt><trkpt lat="43.2226933" lon="12.859"><ele>582.0</ele><time>2026-04-18T10:27:12.04Z</time></trkpt><trkpt lat="43.2226017" lon="12.8589283"><ele>583.0</ele><time>2026-04-18T10:27:13.04Z</time></trkpt><trkpt lat="43.222515" lon="12.85886"><ele>584.0</ele><time>2026-04-18T10:27:14.04Z</time></trkpt><trkpt lat="43.2224183" lon="12.8588067"><ele>585.0</ele><time>2026-04-18T10:27:15.039Z</time></trkpt><trkpt lat="43.2223033" lon="12.8587767"><ele>586.0</ele><time>2026-04-18T10:27:16.039Z</time></trkpt><trkpt lat="43.2221767" lon="12.85877"><ele>587.4</ele><time>2026-04-18T10:27:17.039Z</time></trkpt><trkpt lat="43.2220667" lon="12.8587667"><ele>588.8</ele><time>2026-04-18T10:27:18.038Z</time></trkpt><trkpt lat="43.221965" lon="12.8587617"><ele>590.1999999999999</ele><time>2026-04-18T10:27:19.038Z</time></trkpt><trkpt lat="43.2218783" lon="12.85874"><ele>591.6</ele><time>2026-04-18T10:27:20.038Z</time></trkpt><trkpt lat="43.2218033" lon="12.8586917"><ele>593.0</ele><time>2026-04-18T10:27:21.038Z</time></trkpt><trkpt lat="43.221735" lon="12.8586233"><ele>593.0</ele><time>2026-04-18T10:27:22.038Z</time></trkpt><trkpt lat="43.2216767" lon="12.85854"><ele>593.0</ele><time>2026-04-18T10:27:23.038Z</time></trkpt><trkpt lat="43.22163" lon="12.8584383"><ele>593.0</ele><time>2026-04-18T10:27:24.038Z</time></trkpt><trkpt lat="43.2216033" lon="12.85832"><ele>593.0</ele><time>2026-04-18T10:27:25.038Z</time></trkpt><trkpt lat="43.2215883" lon="12.858185"><ele>593.0</ele><time>2026-04-18T10:27:26.039Z</time></trkpt><trkpt lat="43.2215717" lon="12.8580367"><ele>593.8</ele><time>2026-04-18T10:27:27.038Z</time></trkpt><trkpt lat="43.2215367" lon="12.8578967"><ele>594.5999999999999</ele><time>2026-04-18T10:27:28.038Z</time></trkpt><trkpt lat="43.2214983" lon="12.85777"><ele>595.4000000000001</ele><time>2026-04-18T10:27:29.038Z</time></trkpt><trkpt lat="43.2214517" lon="12.8576567"><ele>596.2</ele><time>2026-04-18T10:27:30.038Z</time></trkpt><trkpt lat="43.2213967" lon="12.857565"><ele>597.0</ele><time>2026-04-18T10:27:31.038Z</time></trkpt><trkpt lat="43.22134" lon="12.8575017"><ele>597.0</ele><time>2026-04-18T10:27:32.038Z</time></trkpt><trkpt lat="43.221275" lon="12.857465"><ele>597.0</ele><time>2026-04-18T10:27:33.038Z</time></trkpt><trkpt lat="43.22121" lon="12.8574617"><ele>597.0</ele><time>2026-04-18T10:27:34.038Z</time></trkpt><trkpt lat="43.2211467" lon="12.8574933"><ele>597.0</ele><time>2026-04-18T10:27:35.038Z</time></trkpt><trkpt lat="43.2210817" lon="12.85755"><ele>597.0</ele><time>2026-04-18T10:27:36.038Z</time></trkpt><trkpt lat="43.2210133" lon="12.8576517"><ele>597.0</ele><time>2026-04-18T10:27:37.038Z</time></trkpt><trkpt lat="43.220945" lon="12.85775"><ele>597.0</ele><time>2026-04-18T10:27:38.038Z</time></trkpt><trkpt lat="43.2208667" lon="12.857845"><ele>597.0</ele><time>2026-04-18T10:27:39.038Z</time></trkpt><trkpt lat="43.2207717" lon="12.85792"><ele>597.0</ele><time>2026-04-18T10:27:40.038Z</time></trkpt><trkpt lat="43.2206567" lon="12.8579767"><ele>597.0</ele><time>2026-04-18T10:27:41.038Z</time></trkpt><trkpt lat="43.2205417" lon="12.8580317"><ele>599.75</ele><time>2026-04-18T10:27:42.038Z</time></trkpt><trkpt lat="43.2204217" lon="12.8581"><ele>602.5</ele><time>2026-04-18T10:27:43.038Z</time></trkpt><trkpt lat="43.22031" lon="12.85817"><ele>605.25</ele><time>2026-04-18T10:27:44.038Z</time></trkpt><trkpt lat="43.2202083" lon="12.8582217"><ele>608.0</ele><time>2026-04-18T10:27:45.038Z</time></trkpt><trkpt lat="43.2201183" lon="12.8582617"><ele>608.0</ele><time>2026-04-18T10:27:46.039Z</time></trkpt><trkpt lat="43.2200267" lon="12.8583"><ele>608.0</ele><time>2026-04-18T10:27:47.038Z</time></trkpt><trkpt lat="43.2199283" lon="12.85833"><ele>608.0</ele><time>2026-04-18T10:27:48.038Z</time></trkpt><trkpt lat="43.2198317" lon="12.8583417"><ele>608.0</ele><time>2026-04-18T10:27:49.038Z</time></trkpt><trkpt lat="43.21973" lon="12.85834"><ele>608.0</ele><time>2026-04-18T10:27:50.038Z</time></trkpt><trkpt lat="43.2196267" lon="12.8583367"><ele>610.0</ele><time>2026-04-18T10:27:51.038Z</time></trkpt><trkpt lat="43.2195217" lon="12.8583383"><ele>612.0</ele><time>2026-04-18T10:27:52.038Z</time></trkpt><trkpt lat="43.2194167" lon="12.8583433"><ele>614.0</ele><time>2026-04-18T10:27:53.038Z</time></trkpt><trkpt lat="43.2193117" lon="12.858355"><ele>616.0</ele><time>2026-04-18T10:27:54.038Z</time></trkpt><trkpt lat="43.219205" lon="12.8583783"><ele>618.0</ele><time>2026-04-18T10:27:55.039Z</time></trkpt><trkpt lat="43.2190983" lon="12.85841"><ele>615.1999999999999</ele><time>2026-04-18T10:27:56.038Z</time></trkpt><trkpt lat="43.2189983" lon="12.8584567"><ele>612.4</ele><time>2026-04-18T10:27:57.038Z</time></trkpt><trkpt lat="43.2188967" lon="12.8585033"><ele>609.5999999999999</ele><time>2026-04-18T10:27:58.038Z</time></trkpt><trkpt lat="43.2187917" lon="12.85854"><ele>606.8</ele><time>2026-04-18T10:27:59.039Z</time></trkpt><trkpt lat="43.2186867" lon="12.8585567"><ele>604.0</ele><time>2026-04-18T10:28:00.038Z</time></trkpt><trkpt lat="43.218585" lon="12.8585583"><ele>604.0</ele><time>2026-04-18T10:28:01.038Z</time></trkpt><trkpt lat="43.21849" lon="12.858545"><ele>604.0</ele><time>2026-04-18T10:28:02.038Z</time></trkpt><trkpt lat="43.2183933" lon="12.8585167"><ele>604.0</ele><time>2026-04-18T10:28:03.039Z</time></trkpt><trkpt lat="43.2183" lon="12.8584833"><ele>604.0</ele><time>2026-04-18T10:28:04.039Z</time></trkpt><trkpt lat="43.2182133" lon="12.8584383"><ele>604.0</ele><time>2026-04-18T10:28:05.038Z</time></trkpt><trkpt lat="43.2181333" lon="12.8583917"><ele>607.8333333333334</ele><time>2026-04-18T10:28:06.038Z</time></trkpt><trkpt lat="43.218055" lon="12.8583517"><ele>611.6666666666667</ele><time>2026-04-18T10:28:07.038Z</time></trkpt><trkpt lat="43.2179783" lon="12.8583333"><ele>615.5</ele><time>2026-04-18T10:28:08.038Z</time></trkpt><trkpt lat="43.217895" lon="12.85833"><ele>619.3333333333334</ele><time>2026-04-18T10:28:09.038Z</time></trkpt><trkpt lat="43.2178183" lon="12.85833"><ele>623.1666666666666</ele><time>2026-04-18T10:28:10.038Z</time></trkpt><trkpt lat="43.217755" lon="12.8583117"><ele>627.0</ele><time>2026-04-18T10:28:11.038Z</time></trkpt><trkpt lat="43.2177" lon="12.858215"><ele>627.0</ele><time>2026-04-18T10:28:13.038Z</time></trkpt><trkpt lat="43.2177783" lon="12.8581367"><ele>627.0</ele><time>2026-04-18T10:28:15.039Z</time></trkpt><trkpt lat="43.2178567" lon="12.8581267"><ele>627.0</ele><time>2026-04-18T10:28:16.038Z</time></trkpt><trkpt lat="43.2179433" lon="12.858125"><ele>627.0</ele><time>2026-04-18T10:28:17.038Z</time></trkpt><trkpt lat="43.2180383" lon="12.8581367"><ele>627.0</ele><time>2026-04-18T10:28:18.038Z</time></trkpt><trkpt lat="43.218145" lon="12.85815"><ele>626.8000000000001</ele><time>2026-04-18T10:28:19.038Z</time></trkpt><trkpt lat="43.2182417" lon="12.8581617"><ele>626.6</ele><time>2026-04-18T10:28:20.038Z</time></trkpt><trkpt lat="43.2183333" lon="12.8581567"><ele>626.4000000000001</ele><time>2026-04-18T10:28:21.038Z</time></trkpt><trkpt lat="43.2184217" lon="12.8581383"><ele>626.2</ele><time>2026-04-18T10:28:22.038Z</time></trkpt><trkpt lat="43.218505" lon="12.8581033"><ele>626.0</ele><time>2026-04-18T10:28:23.038Z</time></trkpt><trkpt lat="43.2185883" lon="12.8580433"><ele>626.0</ele><time>2026-04-18T10:28:24.039Z</time></trkpt><trkpt lat="43.218665" lon="12.8579667"><ele>626.0</ele><time>2026-04-18T10:28:25.038Z</time></trkpt><trkpt lat="43.2187333" lon="12.8578833"><ele>626.0</ele><time>2026-04-18T10:28:26.039Z</time></trkpt><trkpt lat="43.2188" lon="12.8577867"><ele>626.0</ele><time>2026-04-18T10:28:27.038Z</time></trkpt><trkpt lat="43.2188733" lon="12.8576967"><ele>626.0</ele><time>2026-04-18T10:28:28.038Z</time></trkpt><trkpt lat="43.2189483" lon="12.8576083"><ele>628.6</ele><time>2026-04-18T10:28:29.038Z</time></trkpt><trkpt lat="43.21901" lon="12.857525"><ele>631.2</ele><time>2026-04-18T10:28:30.038Z</time></trkpt><trkpt lat="43.2190767" lon="12.8574417"><ele>633.8</ele><time>2026-04-18T10:28:31.038Z</time></trkpt><trkpt lat="43.2191433" lon="12.8573567"><ele>636.4</ele><time>2026-04-18T10:28:32.039Z</time></trkpt><trkpt lat="43.2192133" lon="12.8572667"><ele>639.0</ele><time>2026-04-18T10:28:33.038Z</time></trkpt><trkpt lat="43.2192767" lon="12.85717"><ele>639.0</ele><time>2026-04-18T10:28:34.038Z</time></trkpt><trkpt lat="43.21935" lon="12.857075"><ele>639.0</ele><time>2026-04-18T10:28:35.038Z</time></trkpt><trkpt lat="43.2194217" lon="12.8569917"><ele>639.0</ele><time>2026-04-18T10:28:36.038Z</time></trkpt><trkpt lat="43.2194917" lon="12.8569267"><ele>639.0</ele><time>2026-04-18T10:28:37.038Z</time></trkpt><trkpt lat="43.2195567" lon="12.8568717"><ele>639.0</ele><time>2026-04-18T10:28:38.038Z</time></trkpt><trkpt lat="43.21963" lon="12.8567767"><ele>639.0</ele><time>2026-04-18T10:28:40.038Z</time></trkpt><trkpt lat="43.2196383" lon="12.8566783"><ele>639.0</ele><time>2026-04-18T10:28:42.038Z</time></trkpt><trkpt lat="43.219565" lon="12.85665"><ele>639.0</ele><time>2026-04-18T10:28:44.038Z</time></trkpt><trkpt lat="43.219445" lon="12.8567117"><ele>639.0</ele><time>2026-04-18T10:28:46.039Z</time></trkpt><trkpt lat="43.2193783" lon="12.8567567"><ele>639.0</ele><time>2026-04-18T10:28:47.039Z</time></trkpt><trkpt lat="43.2193033" lon="12.8568"><ele>639.0</ele><time>2026-04-18T10:28:48.038Z</time></trkpt><trkpt lat="43.2192267" lon="12.8568433"><ele>639.0</ele><time>2026-04-18T10:28:49.039Z</time></trkpt><trkpt lat="43.219145" lon="12.856875"><ele>639.0</ele><time>2026-04-18T10:28:50.038Z</time></trkpt><trkpt lat="43.2190483" lon="12.8569017"><ele>639.0</ele><time>2026-04-18T10:28:51.038Z</time></trkpt><trkpt lat="43.218955" lon="12.8569067"><ele>639.0</ele><time>2026-04-18T10:28:52.038Z</time></trkpt><trkpt lat="43.218865" lon="12.8569017"><ele>639.0</ele><time>2026-04-18T10:28:53.038Z</time></trkpt><trkpt lat="43.2187867" lon="12.8569"><ele>639.0</ele><time>2026-04-18T10:28:54.038Z</time></trkpt><trkpt lat="43.21872" lon="12.8568917"><ele>639.3333333333334</ele><time>2026-04-18T10:28:55.038Z</time></trkpt><trkpt lat="43.218655" lon="12.8568717"><ele>639.6666666666666</ele><time>2026-04-18T10:28:56.038Z</time></trkpt><trkpt lat="43.2185833" lon="12.8568383"><ele>640.0</ele><time>2026-04-18T10:28:57.038Z</time></trkpt><trkpt lat="43.2185083" lon="12.8567883"><ele>640.3333333333333</ele><time>2026-04-18T10:28:58.039Z</time></trkpt><trkpt lat="43.2184283" lon="12.85673"><ele>640.6666666666666</ele><time>2026-04-18T10:28:59.038Z</time></trkpt><trkpt lat="43.2183433" lon="12.85668"><ele>641.0</ele><time>2026-04-18T10:29:00.038Z</time></trkpt><trkpt lat="43.218255" lon="12.85664"><ele>644.8</ele><time>2026-04-18T10:29:01.038Z</time></trkpt><trkpt lat="43.2181667" lon="12.8566067"><ele>648.5999999999999</ele><time>2026-04-18T10:29:02.038Z</time></trkpt><trkpt lat="43.21808" lon="12.8565717"><ele>652.4</ele><time>2026-04-18T10:29:03.039Z</time></trkpt><trkpt lat="43.2179867" lon="12.8565467"><ele>656.2</ele><time>2026-04-18T10:29:04.038Z</time></trkpt><trkpt lat="43.217895" lon="12.8565133"><ele>660.0</ele><time>2026-04-18T10:29:05.038Z</time></trkpt><trkpt lat="43.2178" lon="12.8564867"><ele>661.6</ele><time>2026-04-18T10:29:06.038Z</time></trkpt><trkpt lat="43.217705" lon="12.856465"><ele>663.2</ele><time>2026-04-18T10:29:07.038Z</time></trkpt><trkpt lat="43.21761" lon="12.8564633"><ele>664.8</ele><time>2026-04-18T10:29:08.038Z</time></trkpt><trkpt lat="43.21752" lon="12.8564833"><ele>666.4</ele><time>2026-04-18T10:29:09.039Z</time></trkpt><trkpt lat="43.217435" lon="12.8565317"><ele>668.0</ele><time>2026-04-18T10:29:10.039Z</time></trkpt><trkpt lat="43.2173533" lon="12.85659"><ele>668.1666666666666</ele><time>2026-04-18T10:29:11.038Z</time></trkpt><trkpt lat="43.2172683" lon="12.8566467"><ele>668.3333333333333</ele><time>2026-04-18T10:29:12.038Z</time></trkpt><trkpt lat="43.2171883" lon="12.856675"><ele>668.5</ele><time>2026-04-18T10:29:13.039Z</time></trkpt><trkpt lat="43.2171067" lon="12.856665"><ele>668.6666666666666</ele><time>2026-04-18T10:29:14.039Z</time></trkpt><trkpt lat="43.2170317" lon="12.8566317"><ele>668.8333333333334</ele><time>2026-04-18T10:29:15.038Z</time></trkpt><trkpt lat="43.216975" lon="12.856585"><ele>669.0</ele><time>2026-04-18T10:29:16.038Z</time></trkpt><trkpt lat="43.2168833" lon="12.8565067"><ele>669.0</ele><time>2026-04-18T10:29:18.038Z</time></trkpt><trkpt lat="43.2167983" lon="12.85643"><ele>669.0</ele><time>2026-04-18T10:29:20.038Z</time></trkpt><trkpt lat="43.2167117" lon="12.85636"><ele>669.0</ele><time>2026-04-18T10:29:22.039Z</time></trkpt><trkpt lat="43.2166183" lon="12.85633"><ele>669.0</ele><time>2026-04-18T10:29:24.038Z</time></trkpt><trkpt lat="43.2165117" lon="12.8563083"><ele>669.0</ele><time>2026-04-18T10:29:26.039Z</time></trkpt><trkpt lat="43.2164117" lon="12.8562783"><ele>667.8333333333334</ele><time>2026-04-18T10:29:28.039Z</time></trkpt><trkpt lat="43.216315" lon="12.8562133"><ele>666.6666666666666</ele><time>2026-04-18T10:29:30.038Z</time></trkpt><trkpt lat="43.2161967" lon="12.856155"><ele>665.5</ele><time>2026-04-18T10:29:32.038Z</time></trkpt><trkpt lat="43.2161233" lon="12.8561283"><ele>664.3333333333333</ele><time>2026-04-18T10:29:33.039Z</time></trkpt><trkpt lat="43.216055" lon="12.85612"><ele>663.1666666666666</ele><time>2026-04-18T10:29:34.038Z</time></trkpt><trkpt lat="43.2159883" lon="12.8560883"><ele>662.0</ele><time>2026-04-18T10:29:35.039Z</time></trkpt><trkpt lat="43.2159283" lon="12.8560467"><ele>665.2</ele><time>2026-04-18T10:29:36.038Z</time></trkpt><trkpt lat="43.2158517" lon="12.8559417"><ele>668.4000000000001</ele><time>2026-04-18T10:29:38.038Z</time></trkpt><trkpt lat="43.215855" lon="12.85583"><ele>671.5999999999999</ele><time>2026-04-18T10:29:40.038Z</time></trkpt><trkpt lat="43.2159417" lon="12.8557933"><ele>674.8</ele><time>2026-04-18T10:29:42.039Z</time></trkpt><trkpt lat="43.2160633" lon="12.8558233"><ele>678.0</ele><time>2026-04-18T10:29:44.038Z</time></trkpt><trkpt lat="43.2161267" lon="12.8558417"><ele>678.0</ele><time>2026-04-18T10:29:45.038Z</time></trkpt><trkpt lat="43.21622" lon="12.8558117"><ele>678.0</ele><time>2026-04-18T10:29:47.038Z</time></trkpt><trkpt lat="43.216225" lon="12.8556883"><ele>678.0</ele><time>2026-04-18T10:29:49.038Z</time></trkpt><trkpt lat="43.2161267" lon="12.8555833"><ele>678.0</ele><time>2026-04-18T10:29:51.038Z</time></trkpt><trkpt lat="43.2160617" lon="12.8555417"><ele>678.0</ele><time>2026-04-18T10:29:52.038Z</time></trkpt><trkpt lat="43.215995" lon="12.8554833"><ele>678.0</ele><time>2026-04-18T10:29:53.038Z</time></trkpt><trkpt lat="43.2159333" lon="12.8554183"><ele>678.0</ele><time>2026-04-18T10:29:54.039Z</time></trkpt><trkpt lat="43.2158783" lon="12.8553433"><ele>678.0</ele><time>2026-04-18T10:29:55.038Z</time></trkpt><trkpt lat="43.2158267" lon="12.8552667"><ele>678.0</ele><time>2026-04-18T10:29:56.039Z</time></trkpt><trkpt lat="43.2157667" lon="12.8551967"><ele>678.0</ele><time>2026-04-18T10:29:57.038Z</time></trkpt><trkpt lat="43.2157017" lon="12.8551367"><ele>678.0</ele><time>2026-04-18T10:29:58.039Z</time></trkpt><trkpt lat="43.2156283" lon="12.855105"><ele>680.6666666666666</ele><time>2026-04-18T10:29:59.038Z</time></trkpt><trkpt lat="43.2155467" lon="12.855085"><ele>683.3333333333334</ele><time>2026-04-18T10:30:00.039Z</time></trkpt><trkpt lat="43.2154617" lon="12.8550733"><ele>686.0</ele><time>2026-04-18T10:30:01.038Z</time></trkpt><trkpt lat="43.2153833" lon="12.855065"><ele>688.6666666666667</ele><time>2026-04-18T10:30:02.038Z</time></trkpt><trkpt lat="43.215315" lon="12.8550433"><ele>691.3333333333334</ele><time>2026-04-18T10:30:03.038Z</time></trkpt><trkpt lat="43.215245" lon="12.8550067"><ele>694.0</ele><time>2026-04-18T10:30:04.038Z</time></trkpt><trkpt lat="43.2151717" lon="12.8549567"><ele>694.0</ele><time>2026-04-18T10:30:05.039Z</time></trkpt><trkpt lat="43.21509" lon="12.8549033"><ele>694.0</ele><time>2026-04-18T10:30:06.038Z</time></trkpt><trkpt lat="43.2150017" lon="12.8548583"><ele>694.0</ele><time>2026-04-18T10:30:07.038Z</time></trkpt><trkpt lat="43.2149167" lon="12.8548067"><ele>694.0</ele><time>2026-04-18T10:30:08.038Z</time></trkpt><trkpt lat="43.21484" lon="12.85475"><ele>694.0</ele><time>2026-04-18T10:30:09.038Z</time></trkpt><trkpt lat="43.2147667" lon="12.8546867"><ele>694.5</ele><time>2026-04-18T10:30:10.038Z</time></trkpt><trkpt lat="43.2146933" lon="12.85463"><ele>695.0</ele><time>2026-04-18T10:30:11.038Z</time></trkpt><trkpt lat="43.2146317" lon="12.8545767"><ele>695.5</ele><time>2026-04-18T10:30:12.038Z</time></trkpt><trkpt lat="43.21456" lon="12.8545067"><ele>696.0</ele><time>2026-04-18T10:30:14.038Z</time></trkpt><trkpt lat="43.2145183" lon="12.8544233"><ele>696.5</ele><time>2026-04-18T10:30:17.038Z</time></trkpt><trkpt lat="43.2144883" lon="12.8543317"><ele>697.0</ele><time>2026-04-18T10:30:19.038Z</time></trkpt><trkpt lat="43.214475" lon="12.854235"><ele>697.0</ele><time>2026-04-18T10:30:21.038Z</time></trkpt><trkpt lat="43.2145167" lon="12.8541567"><ele>697.0</ele><time>2026-04-18T10:30:23.038Z</time></trkpt><trkpt lat="43.214595" lon="12.85406"><ele>697.0</ele><time>2026-04-18T10:30:25.039Z</time></trkpt><trkpt lat="43.2146667" lon="12.853945"><ele>697.0</ele><time>2026-04-18T10:30:27.038Z</time></trkpt><trkpt lat="43.21472" lon="12.8537983"><ele>697.0</ele><time>2026-04-18T10:30:29.038Z</time></trkpt><trkpt lat="43.2147567" lon="12.8536317"><ele>697.0</ele><time>2026-04-18T10:30:31.038Z</time></trkpt><trkpt lat="43.21477" lon="12.853545"><ele>697.0</ele><time>2026-04-18T10:30:32.038Z</time></trkpt><trkpt lat="43.21477" lon="12.85337"><ele>697.0</ele><time>2026-04-18T10:30:34.038Z</time></trkpt><trkpt lat="43.2147483" lon="12.8532817"><ele>697.0</ele><time>2026-04-18T10:30:35.038Z</time></trkpt><trkpt lat="43.2147117" lon="12.8532033"><ele>697.0</ele><time>2026-04-18T10:30:36.038Z</time></trkpt><trkpt lat="43.2146567" lon="12.8531333"><ele>697.0</ele><time>2026-04-18T10:30:37.038Z</time></trkpt><trkpt lat="43.2146" lon="12.8530783"><ele>699.2857142857143</ele><time>2026-04-18T10:30:38.038Z</time></trkpt><trkpt lat="43.2145367" lon="12.8530283"><ele>701.5714285714286</ele><time>2026-04-18T10:30:39.039Z</time></trkpt><trkpt lat="43.214475" lon="12.85298"><ele>703.8571428571429</ele><time>2026-04-18T10:30:40.038Z</time></trkpt><trkpt lat="43.214415" lon="12.8529317"><ele>706.1428571428571</ele><time>2026-04-18T10:30:41.038Z</time></trkpt><trkpt lat="43.214355" lon="12.8528783"><ele>708.4285714285714</ele><time>2026-04-18T10:30:42.038Z</time></trkpt><trkpt lat="43.2142967" lon="12.852825"><ele>710.7142857142857</ele><time>2026-04-18T10:30:43.038Z</time></trkpt><trkpt lat="43.2142317" lon="12.8527767"><ele>713.0</ele><time>2026-04-18T10:30:44.038Z</time></trkpt><trkpt lat="43.214165" lon="12.852725"><ele>713.0</ele><time>2026-04-18T10:30:45.038Z</time></trkpt><trkpt lat="43.2141133" lon="12.8526733"><ele>713.0</ele><time>2026-04-18T10:30:46.038Z</time></trkpt><trkpt lat="43.21403" lon="12.85262"><ele>713.0</ele><time>2026-04-18T10:30:48.038Z</time></trkpt><trkpt lat="43.2140283" lon="12.85251"><ele>713.0</ele><time>2026-04-18T10:30:51.039Z</time></trkpt><trkpt lat="43.21412" lon="12.8525233"><ele>713.0</ele><time>2026-04-18T10:30:53.038Z</time></trkpt><trkpt lat="43.2141817" lon="12.8525617"><ele>713.0</ele><time>2026-04-18T10:30:54.038Z</time></trkpt><trkpt lat="43.2142533" lon="12.8525933"><ele>716.8571428571428</ele><time>2026-04-18T10:30:55.038Z</time></trkpt><trkpt lat="43.2143183" lon="12.85261"><ele>720.7142857142858</ele><time>2026-04-18T10:30:56.038Z</time></trkpt><trkpt lat="43.2143817" lon="12.8526183"><ele>724.5714285714286</ele><time>2026-04-18T10:30:57.038Z</time></trkpt><trkpt lat="43.2144533" lon="12.852615"><ele>728.4285714285713</ele><time>2026-04-18T10:30:58.038Z</time></trkpt><trkpt lat="43.214525" lon="12.8526167"><ele>732.2857142857142</ele><time>2026-04-18T10:30:59.038Z</time></trkpt><trkpt lat="43.2145983" lon="12.8526167"><ele>736.1428571428571</ele><time>2026-04-18T10:31:00.038Z</time></trkpt><trkpt lat="43.2146667" lon="12.8526167"><ele>740.0</ele><time>2026-04-18T10:31:01.038Z</time></trkpt><trkpt lat="43.2147317" lon="12.8526083"><ele>741.6666666666666</ele><time>2026-04-18T10:31:02.038Z</time></trkpt><trkpt lat="43.214835" lon="12.8525717"><ele>743.3333333333333</ele><time>2026-04-18T10:31:04.039Z</time></trkpt><trkpt lat="43.2148917" lon="12.8525333"><ele>745.0</ele><time>2026-04-18T10:31:05.038Z</time></trkpt><trkpt lat="43.2149567" lon="12.85249"><ele>746.6666666666666</ele><time>2026-04-18T10:31:06.039Z</time></trkpt><trkpt lat="43.215025" lon="12.85245"><ele>748.3333333333334</ele><time>2026-04-18T10:31:07.039Z</time></trkpt><trkpt lat="43.2150967" lon="12.8524133"><ele>750.0</ele><time>2026-04-18T10:31:08.039Z</time></trkpt><trkpt lat="43.2151683" lon="12.8523917"><ele>750.0</ele><time>2026-04-18T10:31:09.038Z</time></trkpt><trkpt lat="43.21524" lon="12.85238"><ele>750.0</ele><time>2026-04-18T10:31:10.038Z</time></trkpt><trkpt lat="43.2153183" lon="12.85239"><ele>750.0</ele><time>2026-04-18T10:31:11.038Z</time></trkpt><trkpt lat="43.2153867" lon="12.8524083"><ele>750.0</ele><time>2026-04-18T10:31:12.038Z</time></trkpt><trkpt lat="43.2154517" lon="12.8524217"><ele>750.0</ele><time>2026-04-18T10:31:13.038Z</time></trkpt><trkpt lat="43.21558" lon="12.85243"><ele>750.0</ele><time>2026-04-18T10:31:15.038Z</time></trkpt><trkpt lat="43.215705" lon="12.8524817"><ele>749.1428571428572</ele><time>2026-04-18T10:31:17.038Z</time></trkpt><trkpt lat="43.2157667" lon="12.8525283"><ele>748.2857142857142</ele><time>2026-04-18T10:31:18.038Z</time></trkpt><trkpt lat="43.2158233" lon="12.85259"><ele>747.4285714285714</ele><time>2026-04-18T10:31:19.038Z</time></trkpt><trkpt lat="43.2158867" lon="12.8526383"><ele>746.5714285714287</ele><time>2026-04-18T10:31:20.038Z</time></trkpt><trkpt lat="43.215955" lon="12.8526717"><ele>745.7142857142858</ele><time>2026-04-18T10:31:21.039Z</time></trkpt><trkpt lat="43.216025" lon="12.8526983"><ele>744.8571428571429</ele><time>2026-04-18T10:31:22.038Z</time></trkpt><trkpt lat="43.2160933" lon="12.8527183"><ele>744.0</ele><time>2026-04-18T10:31:23.038Z</time></trkpt><trkpt lat="43.2161583" lon="12.8527317"><ele>744.0</ele><time>2026-04-18T10:31:24.038Z</time></trkpt><trkpt lat="43.21623" lon="12.85274"><ele>744.0</ele><time>2026-04-18T10:31:25.038Z</time></trkpt><trkpt lat="43.216305" lon="12.8527383"><ele>744.0</ele><time>2026-04-18T10:31:26.038Z</time></trkpt><trkpt lat="43.2163867" lon="12.8527333"><ele>744.0</ele><time>2026-04-18T10:31:27.038Z</time></trkpt><trkpt lat="43.2164633" lon="12.85273"><ele>744.0</ele><time>2026-04-18T10:31:28.038Z</time></trkpt><trkpt lat="43.216545" lon="12.8527267"><ele>744.0</ele><time>2026-04-18T10:31:29.039Z</time></trkpt><trkpt lat="43.2166267" lon="12.85271"><ele>746.6</ele><time>2026-04-18T10:31:30.038Z</time></trkpt><trkpt lat="43.2167167" lon="12.8526983"><ele>749.2</ele><time>2026-04-18T10:31:31.039Z</time></trkpt><trkpt lat="43.2168183" lon="12.852685"><ele>751.8000000000001</ele><time>2026-04-18T10:31:32.038Z</time></trkpt><trkpt lat="43.2169233" lon="12.85267"><ele>754.4000000000001</ele><time>2026-04-18T10:31:33.038Z</time></trkpt><trkpt lat="43.2170167" lon="12.8526517"><ele>757.0</ele><time>2026-04-18T10:31:34.038Z</time></trkpt><trkpt lat="43.2170933" lon="12.8526483"><ele>757.0</ele><time>2026-04-18T10:31:35.038Z</time></trkpt><trkpt lat="43.21716" lon="12.852645"><ele>757.0</ele><time>2026-04-18T10:31:36.038Z</time></trkpt><trkpt lat="43.2172283" lon="12.8526383"><ele>757.0</ele><time>2026-04-18T10:31:37.038Z</time></trkpt><trkpt lat="43.217295" lon="12.8526167"><ele>757.0</ele><time>2026-04-18T10:31:38.038Z</time></trkpt><trkpt lat="43.2173617" lon="12.852585"><ele>757.0</ele><time>2026-04-18T10:31:39.039Z</time></trkpt><trkpt lat="43.217425" lon="12.8525383"><ele>757.0</ele><time>2026-04-18T10:31:40.038Z</time></trkpt><trkpt lat="43.2174867" lon="12.8524867"><ele>757.0</ele><time>2026-04-18T10:31:41.038Z</time></trkpt><trkpt lat="43.2175517" lon="12.8524267"><ele>762.0</ele><time>2026-04-18T10:31:42.038Z</time></trkpt><trkpt lat="43.2176217" lon="12.8523817"><ele>767.0</ele><time>2026-04-18T10:31:43.038Z</time></trkpt><trkpt lat="43.2176983" lon="12.8523617"><ele>772.0</ele><time>2026-04-18T10:31:44.038Z</time></trkpt><trkpt lat="43.2177733" lon="12.8523567"><ele>777.0</ele><time>2026-04-18T10:31:45.039Z</time></trkpt><trkpt lat="43.21785" lon="12.8523617"><ele>781.9999999999999</ele><time>2026-04-18T10:31:46.038Z</time></trkpt><trkpt lat="43.2179167" lon="12.85236"><ele>787.0</ele><time>2026-04-18T10:31:47.038Z</time></trkpt><trkpt lat="43.2180283" lon="12.852325"><ele>786.9999999999999</ele><time>2026-04-18T10:31:49.038Z</time></trkpt><trkpt lat="43.218135" lon="12.85224"><ele>787.0</ele><time>2026-04-18T10:31:51.038Z</time></trkpt><trkpt lat="43.218195" lon="12.8521867"><ele>787.0</ele><time>2026-04-18T10:31:52.038Z</time></trkpt><trkpt lat="43.2182633" lon="12.8521283"><ele>787.0</ele><time>2026-04-18T10:31:53.039Z</time></trkpt><trkpt lat="43.21833" lon="12.8520683"><ele>786.9999999999999</ele><time>2026-04-18T10:31:54.038Z</time></trkpt><trkpt lat="43.2184" lon="12.852015"><ele>787.0</ele><time>2026-04-18T10:31:55.038Z</time></trkpt><trkpt lat="43.2184733" lon="12.85196"><ele>786.8333333333333</ele><time>2026-04-18T10:31:56.038Z</time></trkpt><trkpt lat="43.2185467" lon="12.8519067"><ele>786.6666666666666</ele><time>2026-04-18T10:31:57.038Z</time></trkpt><trkpt lat="43.2186183" lon="12.8518483"><ele>786.5</ele><time>2026-04-18T10:31:58.038Z</time></trkpt><trkpt lat="43.2186817" lon="12.8517917"><ele>786.3333333333333</ele><time>2026-04-18T10:31:59.038Z</time></trkpt><trkpt lat="43.21874" lon="12.8517417"><ele>786.1666666666666</ele><time>2026-04-18T10:32:00.038Z</time></trkpt><trkpt lat="43.2187983" lon="12.8516933"><ele>786.0</ele><time>2026-04-18T10:32:01.039Z</time></trkpt><trkpt lat="43.2188917" lon="12.8516217"><ele>788.8</ele><time>2026-04-18T10:32:03.038Z</time></trkpt><trkpt lat="43.219" lon="12.85153"><ele>791.5999999999999</ele><time>2026-04-18T10:32:05.038Z</time></trkpt><trkpt lat="43.2190533" lon="12.8514783"><ele>794.4</ele><time>2026-04-18T10:32:06.038Z</time></trkpt><trkpt lat="43.21914" lon="12.8513683"><ele>797.2</ele><time>2026-04-18T10:32:08.039Z</time></trkpt><trkpt lat="43.219185" lon="12.85125"><ele>800.0</ele><time>2026-04-18T10:32:10.038Z</time></trkpt><trkpt lat="43.2191983" lon="12.85111"><ele>806.6</ele><time>2026-04-18T10:32:12.038Z</time></trkpt><trkpt lat="43.2192233" lon="12.8509433"><ele>813.2</ele><time>2026-04-18T10:32:14.039Z</time></trkpt><trkpt lat="43.219295" lon="12.85082"><ele>819.8</ele><time>2026-04-18T10:32:16.039Z</time></trkpt><trkpt lat="43.2193833" lon="12.8507333"><ele>826.4</ele><time>2026-04-18T10:32:18.038Z</time></trkpt><trkpt lat="43.2194467" lon="12.85065"><ele>833.0</ele><time>2026-04-18T10:32:20.038Z</time></trkpt><trkpt lat="43.219475" lon="12.8505317"><ele>833.0</ele><time>2026-04-18T10:32:22.038Z</time></trkpt><trkpt lat="43.219505" lon="12.8503767"><ele>833.0</ele><time>2026-04-18T10:32:24.038Z</time></trkpt><trkpt lat="43.219545" lon="12.850235"><ele>833.0</ele><time>2026-04-18T10:32:26.038Z</time></trkpt><trkpt lat="43.219615" lon="12.8501033"><ele>833.0</ele><time>2026-04-18T10:32:28.038Z</time></trkpt><trkpt lat="43.2196567" lon="12.8500383"><ele>833.0</ele><time>2026-04-18T10:32:29.038Z</time></trkpt><trkpt lat="43.2197067" lon="12.8499783"><ele>835.0</ele><time>2026-04-18T10:32:30.038Z</time></trkpt><trkpt lat="43.219765" lon="12.8499267"><ele>837.0</ele><time>2026-04-18T10:32:31.038Z</time></trkpt><trkpt lat="43.2198267" lon="12.84988"><ele>839.0</ele><time>2026-04-18T10:32:32.038Z</time></trkpt><trkpt lat="43.2199" lon="12.84984"><ele>841.0</ele><time>2026-04-18T10:32:33.038Z</time></trkpt><trkpt lat="43.2199767" lon="12.8498233"><ele>843.0</ele><time>2026-04-18T10:32:34.038Z</time></trkpt><trkpt lat="43.220055" lon="12.84982"><ele>845.0</ele><time>2026-04-18T10:32:35.038Z</time></trkpt><trkpt lat="43.2201283" lon="12.849835"><ele>847.0</ele><time>2026-04-18T10:32:36.038Z</time></trkpt><trkpt lat="43.2202017" lon="12.8498383"><ele>847.0</ele><time>2026-04-18T10:32:37.039Z</time></trkpt><trkpt lat="43.2202783" lon="12.8498383"><ele>847.0</ele><time>2026-04-18T10:32:38.038Z</time></trkpt><trkpt lat="43.22035" lon="12.84984"><ele>847.0</ele><time>2026-04-18T10:32:39.038Z</time></trkpt><trkpt lat="43.22042" lon="12.849845"><ele>847.0</ele><time>2026-04-18T10:32:40.039Z</time></trkpt><trkpt lat="43.220495" lon="12.84986"><ele>847.0</ele><time>2026-04-18T10:32:41.038Z</time></trkpt><trkpt lat="43.2205617" lon="12.8498933"><ele>847.0</ele><time>2026-04-18T10:32:42.038Z</time></trkpt><trkpt lat="43.2206267" lon="12.8499383"><ele>847.0</ele><time>2026-04-18T10:32:43.038Z</time></trkpt><trkpt lat="43.2206867" lon="12.8499933"><ele>850.3333333333333</ele><time>2026-04-18T10:32:44.038Z</time></trkpt><trkpt lat="43.2207483" lon="12.850065"><ele>853.6666666666666</ele><time>2026-04-18T10:32:45.038Z</time></trkpt><trkpt lat="43.2208017" lon="12.8501517"><ele>857.0</ele><time>2026-04-18T10:32:46.038Z</time></trkpt><trkpt lat="43.2208483" lon="12.8502317"><ele>860.3333333333333</ele><time>2026-04-18T10:32:47.038Z</time></trkpt><trkpt lat="43.2209267" lon="12.8503217"><ele>863.6666666666666</ele><time>2026-04-18T10:32:49.038Z</time></trkpt><trkpt lat="43.22103" lon="12.85035"><ele>867.0</ele><time>2026-04-18T10:32:51.038Z</time></trkpt><trkpt lat="43.2211" lon="12.8503583"><ele>861.8333333333334</ele><time>2026-04-18T10:32:52.038Z</time></trkpt><trkpt lat="43.2211767" lon="12.8503683"><ele>856.6666666666667</ele><time>2026-04-18T10:32:53.039Z</time></trkpt><trkpt lat="43.2212567" lon="12.8503817"><ele>851.5</ele><time>2026-04-18T10:32:54.039Z</time></trkpt><trkpt lat="43.221335" lon="12.8503917"><ele>846.3333333333334</ele><time>2026-04-18T10:32:55.037Z</time></trkpt><trkpt lat="43.2214117" lon="12.850395"><ele>841.1666666666667</ele><time>2026-04-18T10:32:56.037Z</time></trkpt><trkpt lat="43.2214917" lon="12.8503883"><ele>836.0</ele><time>2026-04-18T10:32:57.037Z</time></trkpt><trkpt lat="43.22157" lon="12.850385"><ele>836.0000000000001</ele><time>2026-04-18T10:32:58.038Z</time></trkpt><trkpt lat="43.2216467" lon="12.8503783"><ele>836.0</ele><time>2026-04-18T10:32:59.037Z</time></trkpt><trkpt lat="43.2217217" lon="12.85037"><ele>836.0</ele><time>2026-04-18T10:33:00.037Z</time></trkpt><trkpt lat="43.2218" lon="12.8503383"><ele>836.0</ele><time>2026-04-18T10:33:01.037Z</time></trkpt><trkpt lat="43.2218767" lon="12.85031"><ele>836.0000000000001</ele><time>2026-04-18T10:33:02.037Z</time></trkpt><trkpt lat="43.2219533" lon="12.8502733"><ele>836.0</ele><time>2026-04-18T10:33:03.038Z</time></trkpt><trkpt lat="43.2220583" lon="12.850205"><ele>843.1666666666667</ele><time>2026-04-18T10:33:05.037Z</time></trkpt><trkpt lat="43.2221267" lon="12.8501033"><ele>850.3333333333334</ele><time>2026-04-18T10:33:07.037Z</time></trkpt><trkpt lat="43.2221567" lon="12.850025"><ele>857.5</ele><time>2026-04-18T10:33:08.037Z</time></trkpt><trkpt lat="43.2221783" lon="12.8499417"><ele>864.6666666666667</ele><time>2026-04-18T10:33:09.037Z</time></trkpt><trkpt lat="43.2222033" lon="12.84978"><ele>871.8333333333334</ele><time>2026-04-18T10:33:11.038Z</time></trkpt><trkpt lat="43.2222017" lon="12.84969"><ele>879.0</ele><time>2026-04-18T10:33:12.037Z</time></trkpt><trkpt lat="43.222195" lon="12.8496017"><ele>879.0</ele><time>2026-04-18T10:33:13.037Z</time></trkpt><trkpt lat="43.2222067" lon="12.84944"><ele>879.0</ele><time>2026-04-18T10:33:15.038Z</time></trkpt><trkpt lat="43.2222383" lon="12.849365"><ele>879.0</ele><time>2026-04-18T10:33:16.037Z</time></trkpt><trkpt lat="43.2222783" lon="12.8492833"><ele>879.0</ele><time>2026-04-18T10:33:17.037Z</time></trkpt><trkpt lat="43.2223367" lon="12.849205"><ele>879.0</ele><time>2026-04-18T10:33:18.037Z</time></trkpt><trkpt lat="43.222405" lon="12.8491333"><ele>879.0</ele><time>2026-04-18T10:33:19.037Z</time></trkpt><trkpt lat="43.222465" lon="12.8490683"><ele>883.6666666666666</ele><time>2026-04-18T10:33:20.037Z</time></trkpt><trkpt lat="43.2225317" lon="12.8490017"><ele>888.3333333333333</ele><time>2026-04-18T10:33:21.038Z</time></trkpt><trkpt lat="43.222595" lon="12.8489367"><ele>893.0</ele><time>2026-04-18T10:33:22.037Z</time></trkpt><trkpt lat="43.2226533" lon="12.8488733"><ele>897.6666666666666</ele><time>2026-04-18T10:33:23.038Z</time></trkpt><trkpt lat="43.222705" lon="12.8488167"><ele>902.3333333333333</ele><time>2026-04-18T10:33:24.037Z</time></trkpt><trkpt lat="43.22279" lon="12.8487333"><ele>907.0</ele><time>2026-04-18T10:33:26.037Z</time></trkpt><trkpt lat="43.2228833" lon="12.8487417"><ele>906.9999999999999</ele><time>2026-04-18T10:33:28.037Z</time></trkpt><trkpt lat="43.222975" lon="12.8488367"><ele>907.0</ele><time>2026-04-18T10:33:30.037Z</time></trkpt><trkpt lat="43.2230267" lon="12.848905"><ele>907.0</ele><time>2026-04-18T10:33:31.037Z</time></trkpt><trkpt lat="43.223085" lon="12.84896"><ele>907.0</ele><time>2026-04-18T10:33:32.037Z</time></trkpt><trkpt lat="43.22314" lon="12.8490067"><ele>906.9999999999999</ele><time>2026-04-18T10:33:33.037Z</time></trkpt><trkpt lat="43.2231967" lon="12.8490467"><ele>907.0</ele><time>2026-04-18T10:33:34.037Z</time></trkpt><trkpt lat="43.22326" lon="12.8490867"><ele>906.0000000000001</ele><time>2026-04-18T10:33:35.038Z</time></trkpt><trkpt lat="43.2233233" lon="12.8491233"><ele>905.0</ele><time>2026-04-18T10:33:36.037Z</time></trkpt><trkpt lat="43.2233967" lon="12.8491533"><ele>904.0000000000001</ele><time>2026-04-18T10:33:37.037Z</time></trkpt><trkpt lat="43.2234667" lon="12.8491733"><ele>903.0000000000001</ele><time>2026-04-18T10:33:38.037Z</time></trkpt><trkpt lat="43.2235367" lon="12.8491917"><ele>902.0</ele><time>2026-04-18T10:33:39.037Z</time></trkpt><trkpt lat="43.2236033" lon="12.849205"><ele>901.0000000000001</ele><time>2026-04-18T10:33:40.037Z</time></trkpt><trkpt lat="43.2236617" lon="12.8492383"><ele>900.0000000000001</ele><time>2026-04-18T10:33:41.038Z</time></trkpt><trkpt lat="43.2237383" lon="12.8492967"><ele>900.0</ele><time>2026-04-18T10:33:43.037Z</time></trkpt><trkpt lat="43.223805" lon="12.84929"><ele>900.0</ele><time>2026-04-18T10:33:46.037Z</time></trkpt><trkpt lat="43.2237783" lon="12.8491883"><ele>900.0</ele><time>2026-04-18T10:33:49.037Z</time></trkpt><trkpt lat="43.2236817" lon="12.84908"><ele>900.0</ele><time>2026-04-18T10:33:51.037Z</time></trkpt><trkpt lat="43.2236183" lon="12.8490317"><ele>900.0</ele><time>2026-04-18T10:33:52.038Z</time></trkpt><trkpt lat="43.2235617" lon="12.84899"><ele>900.0</ele><time>2026-04-18T10:33:53.037Z</time></trkpt><trkpt lat="43.2235017" lon="12.8489383"><ele>900.0</ele><time>2026-04-18T10:33:54.038Z</time></trkpt><trkpt lat="43.2234467" lon="12.8488783"><ele>900.0</ele><time>2026-04-18T10:33:55.037Z</time></trkpt><trkpt lat="43.2233867" lon="12.8488217"><ele>900.0</ele><time>2026-04-18T10:33:56.037Z</time></trkpt><trkpt lat="43.22328" lon="12.8487367"><ele>900.0</ele><time>2026-04-18T10:33:58.037Z</time></trkpt><trkpt lat="43.2231917" lon="12.8486967"><ele>900.0</ele><time>2026-04-18T10:34:00.037Z</time></trkpt><trkpt lat="43.22321" lon="12.8485983"><ele>900.0</ele><time>2026-04-18T10:34:04.038Z</time></trkpt><trkpt lat="43.2232883" lon="12.8486167"><ele>900.0</ele><time>2026-04-18T10:34:06.037Z</time></trkpt><trkpt lat="43.2233467" lon="12.84865"><ele>900.0</ele><time>2026-04-18T10:34:07.037Z</time></trkpt><trkpt lat="43.2234117" lon="12.848685"><ele>900.0</ele><time>2026-04-18T10:34:08.037Z</time></trkpt><trkpt lat="43.2235183" lon="12.84872"><ele>900.0</ele><time>2026-04-18T10:34:10.038Z</time></trkpt><trkpt lat="43.2235867" lon="12.8487183"><ele>900.0</ele><time>2026-04-18T10:34:13.038Z</time></trkpt><trkpt lat="43.2236833" lon="12.8487267"><ele>900.0</ele><time>2026-04-18T10:34:16.037Z</time></trkpt><trkpt lat="43.2237933" lon="12.8487283"><ele>900.0</ele><time>2026-04-18T10:34:18.037Z</time></trkpt><trkpt lat="43.22386" lon="12.8487367"><ele>900.0</ele><time>2026-04-18T10:34:19.038Z</time></trkpt><trkpt lat="43.2239317" lon="12.848755"><ele>900.0</ele><time>2026-04-18T10:34:20.037Z</time></trkpt><trkpt lat="43.2240117" lon="12.8487867"><ele>900.0</ele><time>2026-04-18T10:34:21.037Z</time></trkpt><trkpt lat="43.2240967" lon="12.8488233"><ele>900.0</ele><time>2026-04-18T10:34:22.037Z</time></trkpt><trkpt lat="43.2241833" lon="12.8488733"><ele>900.0</ele><time>2026-04-18T10:34:23.037Z</time></trkpt><trkpt lat="43.2242617" lon="12.8489183"><ele>905.6666666666666</ele><time>2026-04-18T10:34:24.038Z</time></trkpt><trkpt lat="43.2243317" lon="12.8489583"><ele>911.3333333333333</ele><time>2026-04-18T10:34:25.037Z</time></trkpt><trkpt lat="43.2243967" lon="12.849015"><ele>917.0</ele><time>2026-04-18T10:34:26.037Z</time></trkpt><trkpt lat="43.2244633" lon="12.849075"><ele>922.6666666666666</ele><time>2026-04-18T10:34:27.037Z</time></trkpt><trkpt lat="43.2245217" lon="12.8491483"><ele>928.3333333333333</ele><time>2026-04-18T10:34:28.037Z</time></trkpt><trkpt lat="43.224575" lon="12.8492067"><ele>934.0</ele><time>2026-04-18T10:34:29.038Z</time></trkpt><trkpt lat="43.22468" lon="12.8492683"><ele>933.9999999999999</ele><time>2026-04-18T10:34:31.037Z</time></trkpt><trkpt lat="43.2247433" lon="12.8492783"><ele>934.0</ele><time>2026-04-18T10:34:32.037Z</time></trkpt><trkpt lat="43.224815" lon="12.8492667"><ele>933.9999999999999</ele><time>2026-04-18T10:34:33.037Z</time></trkpt><trkpt lat="43.22489" lon="12.8492533"><ele>933.9999999999999</ele><time>2026-04-18T10:34:34.037Z</time></trkpt><trkpt lat="43.224965" lon="12.8492383"><ele>934.0</ele><time>2026-04-18T10:34:35.037Z</time></trkpt><trkpt lat="43.2250317" lon="12.8492133"><ele>933.9999999999999</ele><time>2026-04-18T10:34:36.037Z</time></trkpt><trkpt lat="43.2250983" lon="12.8491883"><ele>933.9999999999999</ele><time>2026-04-18T10:34:37.037Z</time></trkpt><trkpt lat="43.2251683" lon="12.849155"><ele>936.7142857142856</ele><time>2026-04-18T10:34:38.038Z</time></trkpt><trkpt lat="43.2252433" lon="12.8491233"><ele>939.4285714285713</ele><time>2026-04-18T10:34:39.037Z</time></trkpt><trkpt lat="43.2253133" lon="12.8490883"><ele>942.1428571428571</ele><time>2026-04-18T10:34:40.037Z</time></trkpt><trkpt lat="43.2253767" lon="12.8490467"><ele>944.8571428571428</ele><time>2026-04-18T10:34:41.037Z</time></trkpt><trkpt lat="43.2254433" lon="12.8490217"><ele>947.5714285714284</ele><time>2026-04-18T10:34:42.037Z</time></trkpt><trkpt lat="43.2255183" lon="12.849005"><ele>950.2857142857143</ele><time>2026-04-18T10:34:43.037Z</time></trkpt><trkpt lat="43.2255917" lon="12.8489983"><ele>953.0</ele><time>2026-04-18T10:34:44.038Z</time></trkpt><trkpt lat="43.2256667" lon="12.84899"><ele>953.0000000000001</ele><time>2026-04-18T10:34:45.037Z</time></trkpt><trkpt lat="43.2257433" lon="12.84898"><ele>953.0</ele><time>2026-04-18T10:34:46.037Z</time></trkpt><trkpt lat="43.2258183" lon="12.8489767"><ele>953.0</ele><time>2026-04-18T10:34:47.037Z</time></trkpt><trkpt lat="43.2258967" lon="12.8489733"><ele>953.0</ele><time>2026-04-18T10:34:48.037Z</time></trkpt><trkpt lat="43.22598" lon="12.8489567"><ele>953.0000000000001</ele><time>2026-04-18T10:34:49.038Z</time></trkpt><trkpt lat="43.2260617" lon="12.8489417"><ele>953.0</ele><time>2026-04-18T10:34:50.037Z</time></trkpt><trkpt lat="43.2261417" lon="12.8489283"><ele>953.0</ele><time>2026-04-18T10:34:51.037Z</time></trkpt><trkpt lat="43.2262183" lon="12.8489033"><ele>953.0</ele><time>2026-04-18T10:34:52.037Z</time></trkpt><trkpt lat="43.2262967" lon="12.8488717"><ele>953.0</ele><time>2026-04-18T10:34:53.037Z</time></trkpt><trkpt lat="43.226365" lon="12.8488483"><ele>953.0</ele><time>2026-04-18T10:34:54.038Z</time></trkpt><trkpt lat="43.2264367" lon="12.848825"><ele>953.0</ele><time>2026-04-18T10:34:55.037Z</time></trkpt><trkpt lat="43.226505" lon="12.8488017"><ele>953.0</ele><time>2026-04-18T10:34:56.037Z</time></trkpt><trkpt lat="43.2265767" lon="12.8487833"><ele>953.0</ele><time>2026-04-18T10:34:57.037Z</time></trkpt><trkpt lat="43.2266417" lon="12.8487683"><ele>952.8333333333334</ele><time>2026-04-18T10:34:58.037Z</time></trkpt><trkpt lat="43.2267033" lon="12.8487483"><ele>952.6666666666667</ele><time>2026-04-18T10:34:59.038Z</time></trkpt><trkpt lat="43.2268317" lon="12.848705"><ele>952.5</ele><time>2026-04-18T10:35:01.037Z</time></trkpt><trkpt lat="43.226905" lon="12.84868"><ele>952.3333333333333</ele><time>2026-04-18T10:35:02.037Z</time></trkpt><trkpt lat="43.2269817" lon="12.8486533"><ele>952.1666666666666</ele><time>2026-04-18T10:35:03.037Z</time></trkpt><trkpt lat="43.2270583" lon="12.8486233"><ele>952.0</ele><time>2026-04-18T10:35:04.037Z</time></trkpt><trkpt lat="43.227135" lon="12.8485983"><ele>952.0</ele><time>2026-04-18T10:35:05.037Z</time></trkpt><trkpt lat="43.2272167" lon="12.848575"><ele>952.0</ele><time>2026-04-18T10:35:06.037Z</time></trkpt><trkpt lat="43.2273017" lon="12.8485517"><ele>952.0</ele><time>2026-04-18T10:35:07.037Z</time></trkpt><trkpt lat="43.2273967" lon="12.8485133"><ele>952.0</ele><time>2026-04-18T10:35:08.037Z</time></trkpt><trkpt lat="43.227495" lon="12.8484817"><ele>952.0</ele><time>2026-04-18T10:35:09.037Z</time></trkpt><trkpt lat="43.2275767" lon="12.8484533"><ele>958.6666666666666</ele><time>2026-04-18T10:35:10.037Z</time></trkpt><trkpt lat="43.2276667" lon="12.84843"><ele>965.3333333333333</ele><time>2026-04-18T10:35:11.037Z</time></trkpt><trkpt lat="43.2277467" lon="12.8484"><ele>972.0</ele><time>2026-04-18T10:35:12.037Z</time></trkpt><trkpt lat="43.2278333" lon="12.84836"><ele>978.6666666666667</ele><time>2026-04-18T10:35:13.037Z</time></trkpt><trkpt lat="43.2279267" lon="12.8483167"><ele>985.3333333333334</ele><time>2026-04-18T10:35:14.037Z</time></trkpt><trkpt lat="43.2280033" lon="12.8482667"><ele>992.0</ele><time>2026-04-18T10:35:15.038Z</time></trkpt><trkpt lat="43.2280717" lon="12.8482133"><ele>992.0000000000001</ele><time>2026-04-18T10:35:16.038Z</time></trkpt><trkpt lat="43.2281367" lon="12.84817"><ele>992.0</ele><time>2026-04-18T10:35:17.037Z</time></trkpt><trkpt lat="43.2282083" lon="12.8481233"><ele>992.0</ele><time>2026-04-18T10:35:18.037Z</time></trkpt><trkpt lat="43.2282733" lon="12.84807"><ele>992.0</ele><time>2026-04-18T10:35:19.037Z</time></trkpt><trkpt lat="43.2283383" lon="12.8480167"><ele>992.0000000000001</ele><time>2026-04-18T10:35:20.037Z</time></trkpt><trkpt lat="43.2284" lon="12.84796"><ele>992.0</ele><time>2026-04-18T10:35:21.037Z</time></trkpt><trkpt lat="43.2284667" lon="12.8479"><ele>991.1666666666667</ele><time>2026-04-18T10:35:22.037Z</time></trkpt><trkpt lat="43.2285333" lon="12.84784"><ele>990.3333333333334</ele><time>2026-04-18T10:35:23.038Z</time></trkpt><trkpt lat="43.2285933" lon="12.8477883"><ele>989.5</ele><time>2026-04-18T10:35:24.037Z</time></trkpt><trkpt lat="43.228665" lon="12.8477333"><ele>988.6666666666667</ele><time>2026-04-18T10:35:25.038Z</time></trkpt><trkpt lat="43.2287367" lon="12.84767"><ele>987.8333333333334</ele><time>2026-04-18T10:35:26.037Z</time></trkpt><trkpt lat="43.2288067" lon="12.8476067"><ele>987.0</ele><time>2026-04-18T10:35:27.037Z</time></trkpt><trkpt lat="43.22887" lon="12.8475383"><ele>988.5</ele><time>2026-04-18T10:35:28.037Z</time></trkpt><trkpt lat="43.2289317" lon="12.84747"><ele>990.0</ele><time>2026-04-18T10:35:29.037Z</time></trkpt><trkpt lat="43.228995" lon="12.8474033"><ele>991.5</ele><time>2026-04-18T10:35:30.037Z</time></trkpt><trkpt lat="43.2290517" lon="12.8473433"><ele>993.0</ele><time>2026-04-18T10:35:31.037Z</time></trkpt><trkpt lat="43.2291133" lon="12.8472817"><ele>994.5</ele><time>2026-04-18T10:35:32.037Z</time></trkpt><trkpt lat="43.2291733" lon="12.847225"><ele>996.0</ele><time>2026-04-18T10:35:33.037Z</time></trkpt><trkpt lat="43.22926" lon="12.8471017"><ele>996.0</ele><time>2026-04-18T10:35:35.037Z</time></trkpt><trkpt lat="43.229295" lon="12.8470183"><ele>996.0</ele><time>2026-04-18T10:35:36.037Z</time></trkpt><trkpt lat="43.2293317" lon="12.846925"><ele>996.0</ele><time>2026-04-18T10:35:37.038Z</time></trkpt><trkpt lat="43.2293733" lon="12.8468267"><ele>996.0</ele><time>2026-04-18T10:35:38.037Z</time></trkpt><trkpt lat="43.2294067" lon="12.8467283"><ele>996.0</ele><time>2026-04-18T10:35:39.037Z</time></trkpt><trkpt lat="43.2294333" lon="12.8466217"><ele>996.0</ele><time>2026-04-18T10:35:40.037Z</time></trkpt><trkpt lat="43.2294567" lon="12.8465167"><ele>1000.8571428571428</ele><time>2026-04-18T10:35:41.037Z</time></trkpt><trkpt lat="43.229475" lon="12.8464167"><ele>1005.7142857142856</ele><time>2026-04-18T10:35:42.038Z</time></trkpt><trkpt lat="43.2294917" lon="12.84632"><ele>1010.5714285714286</ele><time>2026-04-18T10:35:43.038Z</time></trkpt><trkpt lat="43.2295233" lon="12.84622"><ele>1015.4285714285713</ele><time>2026-04-18T10:35:44.037Z</time></trkpt><trkpt lat="43.22955" lon="12.8461267"><ele>1020.2857142857142</ele><time>2026-04-18T10:35:45.037Z</time></trkpt><trkpt lat="43.2295717" lon="12.8460367"><ele>1025.142857142857</ele><time>2026-04-18T10:35:46.037Z</time></trkpt><trkpt lat="43.2296083" lon="12.8459517"><ele>1030.0</ele><time>2026-04-18T10:35:47.037Z</time></trkpt><trkpt lat="43.229635" lon="12.8458567"><ele>1032.4</ele><time>2026-04-18T10:35:48.038Z</time></trkpt><trkpt lat="43.2296567" lon="12.8457133"><ele>1034.8</ele><time>2026-04-18T10:35:50.037Z</time></trkpt><trkpt lat="43.22965" lon="12.845605"><ele>1037.2</ele><time>2026-04-18T10:35:52.038Z</time></trkpt><trkpt lat="43.22958" lon="12.8455217"><ele>1039.6</ele><time>2026-04-18T10:35:54.037Z</time></trkpt><trkpt lat="43.2295217" lon="12.845435"><ele>1042.0</ele><time>2026-04-18T10:35:56.037Z</time></trkpt><trkpt lat="43.2294583" lon="12.845355"><ele>1042.0</ele><time>2026-04-18T10:35:58.037Z</time></trkpt><trkpt lat="43.2293833" lon="12.8452633"><ele>1042.0</ele><time>2026-04-18T10:36:00.038Z</time></trkpt><trkpt lat="43.2293017" lon="12.8451367"><ele>1042.0</ele><time>2026-04-18T10:36:02.037Z</time></trkpt><trkpt lat="43.229255" lon="12.8450533"><ele>1042.0</ele><time>2026-04-18T10:36:03.037Z</time></trkpt><trkpt lat="43.22921" lon="12.84496"><ele>1042.0</ele><time>2026-04-18T10:36:04.037Z</time></trkpt><trkpt lat="43.2291733" lon="12.8448733"><ele>1041.8333333333333</ele><time>2026-04-18T10:36:05.037Z</time></trkpt><trkpt lat="43.2291367" lon="12.8447883"><ele>1041.6666666666665</ele><time>2026-04-18T10:36:06.037Z</time></trkpt><trkpt lat="43.229095" lon="12.844695"><ele>1041.5</ele><time>2026-04-18T10:36:07.037Z</time></trkpt><trkpt lat="43.22905" lon="12.8445833"><ele>1041.3333333333333</ele><time>2026-04-18T10:36:08.038Z</time></trkpt><trkpt lat="43.2290133" lon="12.8444833"><ele>1041.1666666666667</ele><time>2026-04-18T10:36:09.037Z</time></trkpt><trkpt lat="43.22899" lon="12.8443767"><ele>1041.0</ele><time>2026-04-18T10:36:10.037Z</time></trkpt><trkpt lat="43.2289683" lon="12.8442683"><ele>1048.3333333333333</ele><time>2026-04-18T10:36:11.038Z</time></trkpt><trkpt lat="43.22895" lon="12.844165"><ele>1055.6666666666667</ele><time>2026-04-18T10:36:12.038Z</time></trkpt><trkpt lat="43.2289317" lon="12.8440617"><ele>1063.0</ele><time>2026-04-18T10:36:13.037Z</time></trkpt><trkpt lat="43.2289183" lon="12.843945"><ele>1070.3333333333335</ele><time>2026-04-18T10:36:14.037Z</time></trkpt><trkpt lat="43.22891" lon="12.8438217"><ele>1077.6666666666667</ele><time>2026-04-18T10:36:15.038Z</time></trkpt><trkpt lat="43.2289033" lon="12.843695"><ele>1085.0</ele><time>2026-04-18T10:36:16.037Z</time></trkpt><trkpt lat="43.2289017" lon="12.843555"><ele>1086.4</ele><time>2026-04-18T10:36:17.038Z</time></trkpt><trkpt lat="43.228905" lon="12.84339"><ele>1087.8</ele><time>2026-04-18T10:36:18.037Z</time></trkpt><trkpt lat="43.228905" lon="12.8432417"><ele>1089.2</ele><time>2026-04-18T10:36:19.037Z</time></trkpt><trkpt lat="43.2289017" lon="12.8431"><ele>1090.6</ele><time>2026-04-18T10:36:20.037Z</time></trkpt><trkpt lat="43.2289017" lon="12.8429783"><ele>1092.0</ele><time>2026-04-18T10:36:21.037Z</time></trkpt><trkpt lat="43.2289133" lon="12.8428717"><ele>1092.0</ele><time>2026-04-18T10:36:22.037Z</time></trkpt><trkpt lat="43.2289283" lon="12.8427817"><ele>1092.0</ele><time>2026-04-18T10:36:23.038Z</time></trkpt><trkpt lat="43.2289467" lon="12.8426883"><ele>1092.0</ele><time>2026-04-18T10:36:24.038Z</time></trkpt><trkpt lat="43.228975" lon="12.8425967"><ele>1092.0</ele><time>2026-04-18T10:36:25.037Z</time></trkpt><trkpt lat="43.229005" lon="12.842485"><ele>1092.0</ele><time>2026-04-18T10:36:26.037Z</time></trkpt><trkpt lat="43.2290417" lon="12.84239"><ele>1092.0</ele><time>2026-04-18T10:36:27.037Z</time></trkpt><trkpt lat="43.2290683" lon="12.8422917"><ele>1091.857142857143</ele><time>2026-04-18T10:36:28.037Z</time></trkpt><trkpt lat="43.229105" lon="12.842195"><ele>1091.7142857142858</ele><time>2026-04-18T10:36:29.037Z</time></trkpt><trkpt lat="43.22914" lon="12.842105"><ele>1091.5714285714284</ele><time>2026-04-18T10:36:30.037Z</time></trkpt><trkpt lat="43.2291767" lon="12.8420183"><ele>1091.4285714285716</ele><time>2026-04-18T10:36:31.037Z</time></trkpt><trkpt lat="43.2292117" lon="12.8419367"><ele>1091.2857142857142</ele><time>2026-04-18T10:36:32.038Z</time></trkpt><trkpt lat="43.2292367" lon="12.8418433"><ele>1091.142857142857</ele><time>2026-04-18T10:36:33.037Z</time></trkpt><trkpt lat="43.22927" lon="12.8417533"><ele>1091.0</ele><time>2026-04-18T10:36:34.037Z</time></trkpt><trkpt lat="43.2293033" lon="12.8416683"><ele>1091.0</ele><time>2026-04-18T10:36:35.038Z</time></trkpt><trkpt lat="43.22934" lon="12.84159"><ele>1091.0</ele><time>2026-04-18T10:36:37.037Z</time></trkpt><trkpt lat="43.2292517" lon="12.8417"><ele>1091.0</ele><time>2026-04-18T10:37:58.037Z</time></trkpt><trkpt lat="43.22916" lon="12.8418083"><ele>1091.0</ele><time>2026-04-18T10:38:00.037Z</time></trkpt><trkpt lat="43.2290917" lon="12.84191"><ele>1091.0</ele><time>2026-04-18T10:38:02.037Z</time></trkpt><trkpt lat="43.2289933" lon="12.8420033"><ele>1094.6666666666667</ele><time>2026-04-18T10:38:04.037Z</time></trkpt><trkpt lat="43.228935" lon="12.8420667"><ele>1098.3333333333335</ele><time>2026-04-18T10:38:05.037Z</time></trkpt><trkpt lat="43.2288633" lon="12.8421483"><ele>1102.0</ele><time>2026-04-18T10:38:06.037Z</time></trkpt><trkpt lat="43.22879" lon="12.8422267"><ele>1105.6666666666667</ele><time>2026-04-18T10:38:07.037Z</time></trkpt><trkpt lat="43.228715" lon="12.8423033"><ele>1109.3333333333333</ele><time>2026-04-18T10:38:08.037Z</time></trkpt><trkpt lat="43.228645" lon="12.8423783"><ele>1113.0</ele><time>2026-04-18T10:38:09.037Z</time></trkpt><trkpt lat="43.2285733" lon="12.842465"><ele>1113.0</ele><time>2026-04-18T10:38:10.037Z</time></trkpt><trkpt lat="43.2285" lon="12.84256"><ele>1113.0</ele><time>2026-04-18T10:38:11.037Z</time></trkpt><trkpt lat="43.2284467" lon="12.8426333"><ele>1113.0</ele><time>2026-04-18T10:38:12.037Z</time></trkpt><trkpt lat="43.228375" lon="12.842735"><ele>1113.0</ele><time>2026-04-18T10:38:13.037Z</time></trkpt><trkpt lat="43.2283167" lon="12.842845"><ele>1113.0</ele><time>2026-04-18T10:38:14.037Z</time></trkpt><trkpt lat="43.22828" lon="12.8429333"><ele>1113.0</ele><time>2026-04-18T10:38:15.037Z</time></trkpt><trkpt lat="43.22822" lon="12.8430283"><ele>1113.0</ele><time>2026-04-18T10:38:17.038Z</time></trkpt><trkpt lat="43.22814" lon="12.843025"><ele>1113.0</ele><time>2026-04-18T10:38:20.037Z</time></trkpt><trkpt lat="43.22813" lon="12.842925"><ele>1113.0</ele><time>2026-04-18T10:38:22.036Z</time></trkpt><trkpt lat="43.2281717" lon="12.8427533"><ele>1113.0</ele><time>2026-04-18T10:38:24.037Z</time></trkpt><trkpt lat="43.2281967" lon="12.84266"><ele>1113.0</ele><time>2026-04-18T10:38:25.036Z</time></trkpt><trkpt lat="43.2282267" lon="12.8425667"><ele>1113.0</ele><time>2026-04-18T10:38:26.036Z</time></trkpt><trkpt lat="43.228265" lon="12.8424883"><ele>1113.0</ele><time>2026-04-18T10:38:27.036Z</time></trkpt><trkpt lat="43.2283133" lon="12.8423267"><ele>1113.0</ele><time>2026-04-18T10:38:29.037Z</time></trkpt><trkpt lat="43.22837" lon="12.84216"><ele>1113.0</ele><time>2026-04-18T10:38:31.036Z</time></trkpt><trkpt lat="43.2284033" lon="12.8420667"><ele>1113.0</ele><time>2026-04-18T10:38:32.036Z</time></trkpt><trkpt lat="43.2284383" lon="12.841955"><ele>1113.0</ele><time>2026-04-18T10:38:33.036Z</time></trkpt><trkpt lat="43.2284783" lon="12.8418517"><ele>1113.0</ele><time>2026-04-18T10:38:34.036Z</time></trkpt><trkpt lat="43.2285117" lon="12.841745"><ele>1113.0</ele><time>2026-04-18T10:38:35.036Z</time></trkpt><trkpt lat="43.228545" lon="12.84164"><ele>1113.0</ele><time>2026-04-18T10:38:36.036Z</time></trkpt><trkpt lat="43.2285717" lon="12.8415283"><ele>1113.0</ele><time>2026-04-18T10:38:37.037Z</time></trkpt><trkpt lat="43.2285983" lon="12.8414367"><ele>1113.0</ele><time>2026-04-18T10:38:38.037Z</time></trkpt><trkpt lat="43.228625" lon="12.84134"><ele>1116.0</ele><time>2026-04-18T10:38:39.036Z</time></trkpt><trkpt lat="43.2286583" lon="12.841235"><ele>1119.0</ele><time>2026-04-18T10:38:40.036Z</time></trkpt><trkpt lat="43.2286917" lon="12.84112"><ele>1122.0</ele><time>2026-04-18T10:38:41.037Z</time></trkpt><trkpt lat="43.22873" lon="12.841015"><ele>1125.0</ele><time>2026-04-18T10:38:42.036Z</time></trkpt><trkpt lat="43.22877" lon="12.8408933"><ele>1128.0</ele><time>2026-04-18T10:38:43.036Z</time></trkpt><trkpt lat="43.2288083" lon="12.8407817"><ele>1131.0</ele><time>2026-04-18T10:38:44.036Z</time></trkpt><trkpt lat="43.2288433" lon="12.8406733"><ele>1132.0</ele><time>2026-04-18T10:38:45.037Z</time></trkpt><trkpt lat="43.2288733" lon="12.8405833"><ele>1133.0</ele><time>2026-04-18T10:38:46.036Z</time></trkpt><trkpt lat="43.228905" lon="12.8404883"><ele>1134.0</ele><time>2026-04-18T10:38:47.036Z</time></trkpt><trkpt lat="43.22894" lon="12.8403917"><ele>1135.0</ele><time>2026-04-18T10:38:48.036Z</time></trkpt><trkpt lat="43.22898" lon="12.8402883"><ele>1136.0</ele><time>2026-04-18T10:38:49.036Z</time></trkpt><trkpt lat="43.2290217" lon="12.84019"><ele>1137.0</ele><time>2026-04-18T10:38:50.036Z</time></trkpt><trkpt lat="43.2290633" lon="12.840085"><ele>1137.0</ele><time>2026-04-18T10:38:51.036Z</time></trkpt><trkpt lat="43.2290983" lon="12.8399867"><ele>1137.0</ele><time>2026-04-18T10:38:52.036Z</time></trkpt><trkpt lat="43.2291383" lon="12.8398817"><ele>1137.0</ele><time>2026-04-18T10:38:53.036Z</time></trkpt><trkpt lat="43.2291783" lon="12.839785"><ele>1137.0</ele><time>2026-04-18T10:38:54.036Z</time></trkpt><trkpt lat="43.2292167" lon="12.8396933"><ele>1137.0</ele><time>2026-04-18T10:38:55.036Z</time></trkpt><trkpt lat="43.229255" lon="12.8396217"><ele>1137.0</ele><time>2026-04-18T10:38:56.036Z</time></trkpt><trkpt lat="43.2292967" lon="12.83955"><ele>1137.0</ele><time>2026-04-18T10:38:57.036Z</time></trkpt><trkpt lat="43.2293483" lon="12.83949"><ele>1137.0</ele><time>2026-04-18T10:38:58.036Z</time></trkpt><trkpt lat="43.229415" lon="12.8394333"><ele>1137.0</ele><time>2026-04-18T10:38:59.037Z</time></trkpt><trkpt lat="43.2294667" lon="12.8393833"><ele>1137.0</ele><time>2026-04-18T10:39:00.036Z</time></trkpt><trkpt lat="43.2295967" lon="12.8392933"><ele>1137.0</ele><time>2026-04-18T10:39:02.036Z</time></trkpt><trkpt lat="43.2296833" lon="12.8392517"><ele>1137.0</ele><time>2026-04-18T10:39:03.036Z</time></trkpt><trkpt lat="43.229775" lon="12.8392033"><ele>1138.5</ele><time>2026-04-18T10:39:04.037Z</time></trkpt><trkpt lat="43.2298583" lon="12.8391583"><ele>1140.0</ele><time>2026-04-18T10:39:05.036Z</time></trkpt><trkpt lat="43.22994" lon="12.83911"><ele>1141.5</ele><time>2026-04-18T10:39:06.036Z</time></trkpt><trkpt lat="43.2300117" lon="12.83905"><ele>1143.0</ele><time>2026-04-18T10:39:07.036Z</time></trkpt><trkpt lat="43.2300867" lon="12.8389883"><ele>1144.5</ele><time>2026-04-18T10:39:08.036Z</time></trkpt><trkpt lat="43.23015" lon="12.83892"><ele>1146.0</ele><time>2026-04-18T10:39:09.036Z</time></trkpt><trkpt lat="43.2302133" lon="12.8388367"><ele>1146.0</ele><time>2026-04-18T10:39:10.037Z</time></trkpt><trkpt lat="43.2302767" lon="12.83875"><ele>1146.0</ele><time>2026-04-18T10:39:11.036Z</time></trkpt><trkpt lat="43.2303317" lon="12.83867"><ele>1146.0</ele><time>2026-04-18T10:39:12.036Z</time></trkpt><trkpt lat="43.2303883" lon="12.8385833"><ele>1146.0</ele><time>2026-04-18T10:39:13.037Z</time></trkpt><trkpt lat="43.23044" lon="12.8384967"><ele>1146.0</ele><time>2026-04-18T10:39:14.036Z</time></trkpt><trkpt lat="43.2304933" lon="12.838405"><ele>1146.0</ele><time>2026-04-18T10:39:15.036Z</time></trkpt><trkpt lat="43.230545" lon="12.8383133"><ele>1146.6666666666667</ele><time>2026-04-18T10:39:16.036Z</time></trkpt><trkpt lat="43.2305917" lon="12.8382267"><ele>1147.3333333333333</ele><time>2026-04-18T10:39:17.036Z</time></trkpt><trkpt lat="43.2306367" lon="12.8381417"><ele>1148.0</ele><time>2026-04-18T10:39:18.036Z</time></trkpt><trkpt lat="43.2306833" lon="12.8380583"><ele>1148.6666666666665</ele><time>2026-04-18T10:39:19.036Z</time></trkpt><trkpt lat="43.23073" lon="12.837975"><ele>1149.3333333333333</ele><time>2026-04-18T10:39:20.036Z</time></trkpt><trkpt lat="43.2307817" lon="12.8378867"><ele>1150.0</ele><time>2026-04-18T10:39:21.036Z</time></trkpt><trkpt lat="43.2308383" lon="12.8377983"><ele>1150.0</ele><time>2026-04-18T10:39:22.036Z</time></trkpt><trkpt lat="43.2308933" lon="12.83771"><ele>1150.0</ele><time>2026-04-18T10:39:23.036Z</time></trkpt><trkpt lat="43.2309467" lon="12.837625"><ele>1150.0</ele><time>2026-04-18T10:39:24.036Z</time></trkpt><trkpt lat="43.231" lon="12.8375367"><ele>1150.0</ele><time>2026-04-18T10:39:25.036Z</time></trkpt><trkpt lat="43.2310533" lon="12.8374533"><ele>1150.0</ele><time>2026-04-18T10:39:26.036Z</time></trkpt><trkpt lat="43.2311067" lon="12.837365"><ele>1150.0</ele><time>2026-04-18T10:39:27.037Z</time></trkpt><trkpt lat="43.23115" lon="12.8372733"><ele>1155.1666666666665</ele><time>2026-04-18T10:39:28.036Z</time></trkpt><trkpt lat="43.2311983" lon="12.8371783"><ele>1160.3333333333333</ele><time>2026-04-18T10:39:29.036Z</time></trkpt><trkpt lat="43.231245" lon="12.8370817"><ele>1165.5</ele><time>2026-04-18T10:39:30.036Z</time></trkpt><trkpt lat="43.231295" lon="12.836985"><ele>1170.6666666666667</ele><time>2026-04-18T10:39:31.037Z</time></trkpt><trkpt lat="43.231335" lon="12.8368983"><ele>1175.8333333333335</ele><time>2026-04-18T10:39:32.036Z</time></trkpt><trkpt lat="43.2313667" lon="12.8368067"><ele>1181.0</ele><time>2026-04-18T10:39:33.036Z</time></trkpt><trkpt lat="43.2313967" lon="12.8366933"><ele>1178.0</ele><time>2026-04-18T10:39:34.037Z</time></trkpt><trkpt lat="43.231425" lon="12.836575"><ele>1175.0</ele><time>2026-04-18T10:39:35.036Z</time></trkpt><trkpt lat="43.2314533" lon="12.8364567"><ele>1172.0</ele><time>2026-04-18T10:39:36.036Z</time></trkpt><trkpt lat="43.2314817" lon="12.8363317"><ele>1169.0</ele><time>2026-04-18T10:39:37.037Z</time></trkpt><trkpt lat="43.23151" lon="12.8362117"><ele>1166.0</ele><time>2026-04-18T10:39:38.036Z</time></trkpt><trkpt lat="43.2315367" lon="12.8360867"><ele>1170.2</ele><time>2026-04-18T10:39:39.036Z</time></trkpt><trkpt lat="43.231565" lon="12.8359667"><ele>1174.3999999999999</ele><time>2026-04-18T10:39:40.037Z</time></trkpt><trkpt lat="43.231595" lon="12.8358467"><ele>1178.6</ele><time>2026-04-18T10:39:41.036Z</time></trkpt><trkpt lat="43.231635" lon="12.8357333"><ele>1182.8</ele><time>2026-04-18T10:39:42.037Z</time></trkpt><trkpt lat="43.2316733" lon="12.8356183"><ele>1187.0</ele><time>2026-04-18T10:39:43.036Z</time></trkpt><trkpt lat="43.231715" lon="12.83551"><ele>1187.0</ele><time>2026-04-18T10:39:44.037Z</time></trkpt><trkpt lat="43.231755" lon="12.83539"><ele>1187.0</ele><time>2026-04-18T10:39:45.036Z</time></trkpt><trkpt lat="43.2318017" lon="12.8352633"><ele>1187.0</ele><time>2026-04-18T10:39:46.036Z</time></trkpt><trkpt lat="43.23185" lon="12.8351467"><ele>1187.0</ele><time>2026-04-18T10:39:47.036Z</time></trkpt><trkpt lat="43.2319033" lon="12.83503"><ele>1187.0</ele><time>2026-04-18T10:39:48.037Z</time></trkpt><trkpt lat="43.2319717" lon="12.8349217"><ele>1185.8</ele><time>2026-04-18T10:39:49.036Z</time></trkpt><trkpt lat="43.2320383" lon="12.834825"><ele>1184.6</ele><time>2026-04-18T10:39:50.036Z</time></trkpt><trkpt lat="43.23211" lon="12.83474"><ele>1183.3999999999999</ele><time>2026-04-18T10:39:51.036Z</time></trkpt><trkpt lat="43.2321833" lon="12.8346583"><ele>1182.2</ele><time>2026-04-18T10:39:52.036Z</time></trkpt><trkpt lat="43.23227" lon="12.8345917"><ele>1181.0</ele><time>2026-04-18T10:39:53.036Z</time></trkpt><trkpt lat="43.2323533" lon="12.83453"><ele>1181.0</ele><time>2026-04-18T10:39:54.036Z</time></trkpt><trkpt lat="43.2324467" lon="12.83447"><ele>1181.0</ele><time>2026-04-18T10:39:55.036Z</time></trkpt><trkpt lat="43.232535" lon="12.83442"><ele>1181.0</ele><time>2026-04-18T10:39:56.036Z</time></trkpt><trkpt lat="43.23263" lon="12.834375"><ele>1181.0</ele><time>2026-04-18T10:39:57.036Z</time></trkpt><trkpt lat="43.2327183" lon="12.83434"><ele>1181.0</ele><time>2026-04-18T10:39:58.036Z</time></trkpt><trkpt lat="43.2328" lon="12.8342967"><ele>1184.6666666666667</ele><time>2026-04-18T10:39:59.036Z</time></trkpt><trkpt lat="43.2328717" lon="12.8342517"><ele>1188.3333333333335</ele><time>2026-04-18T10:40:00.036Z</time></trkpt><trkpt lat="43.23294" lon="12.8342033"><ele>1192.0</ele><time>2026-04-18T10:40:01.036Z</time></trkpt><trkpt lat="43.2329983" lon="12.8341367"><ele>1195.6666666666667</ele><time>2026-04-18T10:40:02.036Z</time></trkpt><trkpt lat="43.2330567" lon="12.834065"><ele>1199.3333333333333</ele><time>2026-04-18T10:40:03.036Z</time></trkpt><trkpt lat="43.2331183" lon="12.8339917"><ele>1203.0</ele><time>2026-04-18T10:40:04.036Z</time></trkpt><trkpt lat="43.2331833" lon="12.8339083"><ele>1203.0</ele><time>2026-04-18T10:40:05.036Z</time></trkpt><trkpt lat="43.233245" lon="12.8338183"><ele>1203.0</ele><time>2026-04-18T10:40:06.036Z</time></trkpt><trkpt lat="43.2333067" lon="12.8337417"><ele>1203.0</ele><time>2026-04-18T10:40:07.036Z</time></trkpt><trkpt lat="43.2333767" lon="12.8336633"><ele>1203.0</ele><time>2026-04-18T10:40:08.037Z</time></trkpt><trkpt lat="43.2334333" lon="12.8336067"><ele>1203.0</ele><time>2026-04-18T10:40:09.036Z</time></trkpt><trkpt lat="43.233485" lon="12.8335467"><ele>1203.0</ele><time>2026-04-18T10:40:10.036Z</time></trkpt><trkpt lat="43.2335417" lon="12.8334783"><ele>1209.1666666666667</ele><time>2026-04-18T10:40:11.036Z</time></trkpt><trkpt lat="43.2336067" lon="12.83341"><ele>1215.3333333333333</ele><time>2026-04-18T10:40:12.037Z</time></trkpt><trkpt lat="43.23366" lon="12.8333367"><ele>1221.5</ele><time>2026-04-18T10:40:13.037Z</time></trkpt><trkpt lat="43.2337167" lon="12.833265"><ele>1227.6666666666665</ele><time>2026-04-18T10:40:14.037Z</time></trkpt><trkpt lat="43.2337717" lon="12.8331867"><ele>1233.8333333333333</ele><time>2026-04-18T10:40:15.036Z</time></trkpt><trkpt lat="43.23383" lon="12.8330967"><ele>1240.0</ele><time>2026-04-18T10:40:16.036Z</time></trkpt><trkpt lat="43.2338867" lon="12.8330117"><ele>1240.0</ele><time>2026-04-18T10:40:17.037Z</time></trkpt><trkpt lat="43.23395" lon="12.83294"><ele>1240.0</ele><time>2026-04-18T10:40:18.036Z</time></trkpt><trkpt lat="43.2340117" lon="12.8328783"><ele>1240.0</ele><time>2026-04-18T10:40:19.036Z</time></trkpt><trkpt lat="43.23407" lon="12.8328333"><ele>1240.0</ele><time>2026-04-18T10:40:20.036Z</time></trkpt><trkpt lat="43.234135" lon="12.8328"><ele>1240.0</ele><time>2026-04-18T10:40:21.037Z</time></trkpt><trkpt lat="43.234205" lon="12.8327817"><ele>1240.0</ele><time>2026-04-18T10:40:22.037Z</time></trkpt><trkpt lat="43.2342917" lon="12.8327683"><ele>1236.8</ele><time>2026-04-18T10:40:23.037Z</time></trkpt><trkpt lat="43.2343833" lon="12.8327583"><ele>1233.6</ele><time>2026-04-18T10:40:24.036Z</time></trkpt><trkpt lat="43.2344683" lon="12.83275"><ele>1230.4</ele><time>2026-04-18T10:40:25.036Z</time></trkpt><trkpt lat="43.2345633" lon="12.832745"><ele>1227.2</ele><time>2026-04-18T10:40:26.036Z</time></trkpt><trkpt lat="43.2346733" lon="12.8327283"><ele>1224.0</ele><time>2026-04-18T10:40:27.037Z</time></trkpt><trkpt lat="43.2347833" lon="12.8327133"><ele>1222.8</ele><time>2026-04-18T10:40:28.036Z</time></trkpt><trkpt lat="43.2348833" lon="12.8327017"><ele>1221.6000000000001</ele><time>2026-04-18T10:40:29.036Z</time></trkpt><trkpt lat="43.2349817" lon="12.8326883"><ele>1220.4</ele><time>2026-04-18T10:40:30.036Z</time></trkpt><trkpt lat="43.2350883" lon="12.83268"><ele>1219.2</ele><time>2026-04-18T10:40:31.037Z</time></trkpt><trkpt lat="43.2351967" lon="12.8326533"><ele>1218.0</ele><time>2026-04-18T10:40:32.036Z</time></trkpt><trkpt lat="43.2352967" lon="12.8326367"><ele>1222.2</ele><time>2026-04-18T10:40:33.036Z</time></trkpt><trkpt lat="43.2353917" lon="12.832615"><ele>1226.4</ele><time>2026-04-18T10:40:34.036Z</time></trkpt><trkpt lat="43.235495" lon="12.8326"><ele>1230.6000000000001</ele><time>2026-04-18T10:40:35.036Z</time></trkpt><trkpt lat="43.235595" lon="12.8325833"><ele>1234.8</ele><time>2026-04-18T10:40:36.036Z</time></trkpt><trkpt lat="43.2356917" lon="12.8325667"><ele>1239.0</ele><time>2026-04-18T10:40:37.037Z</time></trkpt><trkpt lat="43.235785" lon="12.8325567"><ele>1240.6000000000001</ele><time>2026-04-18T10:40:38.036Z</time></trkpt><trkpt lat="43.2358817" lon="12.8325383"><ele>1242.2</ele><time>2026-04-18T10:40:39.037Z</time></trkpt><trkpt lat="43.2359783" lon="12.8325217"><ele>1243.8000000000002</ele><time>2026-04-18T10:40:40.034Z</time></trkpt><trkpt lat="43.2360733" lon="12.83251"><ele>1245.4</ele><time>2026-04-18T10:40:41.037Z</time></trkpt><trkpt lat="43.2361717" lon="12.8325"><ele>1247.0</ele><time>2026-04-18T10:40:42.036Z</time></trkpt><trkpt lat="43.2362667" lon="12.8324867"><ele>1247.0</ele><time>2026-04-18T10:40:43.036Z</time></trkpt><trkpt lat="43.2363567" lon="12.8324733"><ele>1247.0</ele><time>2026-04-18T10:40:44.036Z</time></trkpt><trkpt lat="43.23645" lon="12.8324483"><ele>1247.0</ele><time>2026-04-18T10:40:45.036Z</time></trkpt><trkpt lat="43.2365433" lon="12.8324283"><ele>1247.0</ele><time>2026-04-18T10:40:46.036Z</time></trkpt><trkpt lat="43.23663" lon="12.8324117"><ele>1247.0</ele><time>2026-04-18T10:40:47.036Z</time></trkpt><trkpt lat="43.2367167" lon="12.8323983"><ele>1248.0</ele><time>2026-04-18T10:40:48.036Z</time></trkpt><trkpt lat="43.2368067" lon="12.8323867"><ele>1249.0</ele><time>2026-04-18T10:40:49.037Z</time></trkpt><trkpt lat="43.236905" lon="12.8323817"><ele>1250.0</ele><time>2026-04-18T10:40:50.037Z</time></trkpt><trkpt lat="43.2369983" lon="12.8323833"><ele>1251.0</ele><time>2026-04-18T10:40:51.036Z</time></trkpt><trkpt lat="43.2370883" lon="12.8324"><ele>1252.0</ele><time>2026-04-18T10:40:52.036Z</time></trkpt><trkpt lat="43.2371717" lon="12.8324183"><ele>1252.0</ele><time>2026-04-18T10:40:53.036Z</time></trkpt><trkpt lat="43.2372733" lon="12.8324617"><ele>1252.0</ele><time>2026-04-18T10:40:55.036Z</time></trkpt><trkpt lat="43.2373467" lon="12.8325083"><ele>1252.0</ele><time>2026-04-18T10:40:57.036Z</time></trkpt><trkpt lat="43.2374533" lon="12.83257"><ele>1252.0</ele><time>2026-04-18T10:40:59.036Z</time></trkpt><trkpt lat="43.2375183" lon="12.8326033"><ele>1252.0</ele><time>2026-04-18T10:41:00.036Z</time></trkpt><trkpt lat="43.23758" lon="12.832645"><ele>1252.0</ele><time>2026-04-18T10:41:01.036Z</time></trkpt><trkpt lat="43.2376683" lon="12.832695"><ele>1252.0</ele><time>2026-04-18T10:41:03.036Z</time></trkpt><trkpt lat="43.2377233" lon="12.83265"><ele>1252.0</ele><time>2026-04-18T10:41:06.036Z</time></trkpt><trkpt lat="43.237665" lon="12.8325883"><ele>1252.0</ele><time>2026-04-18T10:41:09.036Z</time></trkpt><trkpt lat="43.237575" lon="12.8326417"><ele>1252.0</ele><time>2026-04-18T10:43:19.037Z</time></trkpt><trkpt lat="43.237495" lon="12.8326367"><ele>1252.0</ele><time>2026-04-18T10:43:21.036Z</time></trkpt><trkpt lat="43.237395" lon="12.8325983"><ele>1252.0</ele><time>2026-04-18T10:43:23.037Z</time></trkpt><trkpt lat="43.2372667" lon="12.832545"><ele>1252.0</ele><time>2026-04-18T10:43:25.037Z</time></trkpt><trkpt lat="43.2371783" lon="12.832515"><ele>1252.0</ele><time>2026-04-18T10:43:26.036Z</time></trkpt><trkpt lat="43.237095" lon="12.8324717"><ele>1252.0</ele><time>2026-04-18T10:43:27.036Z</time></trkpt><trkpt lat="43.23701" lon="12.832445"><ele>1252.0</ele><time>2026-04-18T10:43:28.037Z</time></trkpt><trkpt lat="43.2369283" lon="12.8324367"><ele>1252.0</ele><time>2026-04-18T10:43:29.037Z</time></trkpt><trkpt lat="43.236845" lon="12.8324367"><ele>1252.0</ele><time>2026-04-18T10:43:30.036Z</time></trkpt><trkpt lat="43.2367683" lon="12.8324283"><ele>1252.0</ele><time>2026-04-18T10:43:31.036Z</time></trkpt><trkpt lat="43.2366983" lon="12.8324283"><ele>1252.0</ele><time>2026-04-18T10:43:32.037Z</time></trkpt><trkpt lat="43.2366333" lon="12.832435"><ele>1252.0</ele><time>2026-04-18T10:43:33.037Z</time></trkpt><trkpt lat="43.2365183" lon="12.8324467"><ele>1252.0</ele><time>2026-04-18T10:43:35.036Z</time></trkpt><trkpt lat="43.23642" lon="12.83244"><ele>1252.0</ele><time>2026-04-18T10:43:37.036Z</time></trkpt><trkpt lat="43.2363217" lon="12.8324017"><ele>1251.0</ele><time>2026-04-18T10:43:39.036Z</time></trkpt><trkpt lat="43.236215" lon="12.8323567"><ele>1250.0</ele><time>2026-04-18T10:43:41.036Z</time></trkpt><trkpt lat="43.2361467" lon="12.8323533"><ele>1249.0</ele><time>2026-04-18T10:43:42.036Z</time></trkpt><trkpt lat="43.2360733" lon="12.83235"><ele>1248.0</ele><time>2026-04-18T10:43:43.036Z</time></trkpt><trkpt lat="43.2359483" lon="12.8323217"><ele>1247.0</ele><time>2026-04-18T10:43:45.036Z</time></trkpt><trkpt lat="43.2358367" lon="12.8322617"><ele>1247.0</ele><time>2026-04-18T10:43:47.037Z</time></trkpt><trkpt lat="43.2357767" lon="12.8322233"><ele>1247.0</ele><time>2026-04-18T10:43:48.036Z</time></trkpt><trkpt lat="43.23572" lon="12.832185"><ele>1247.0</ele><time>2026-04-18T10:43:49.036Z</time></trkpt><trkpt lat="43.2356533" lon="12.8321417"><ele>1247.0</ele><time>2026-04-18T10:43:50.036Z</time></trkpt><trkpt lat="43.235585" lon="12.8321017"><ele>1247.0</ele><time>2026-04-18T10:43:51.036Z</time></trkpt><trkpt lat="43.23552" lon="12.8320633"><ele>1247.0</ele><time>2026-04-18T10:43:52.037Z</time></trkpt><trkpt lat="43.2354583" lon="12.8320217"><ele>1247.0</ele><time>2026-04-18T10:43:53.036Z</time></trkpt><trkpt lat="43.2353933" lon="12.8319767"><ele>1245.6666666666667</ele><time>2026-04-18T10:43:54.036Z</time></trkpt><trkpt lat="43.235325" lon="12.8319283"><ele>1244.3333333333335</ele><time>2026-04-18T10:43:55.036Z</time></trkpt><trkpt lat="43.2352583" lon="12.831895"><ele>1243.0</ele><time>2026-04-18T10:43:56.036Z</time></trkpt><trkpt lat="43.23519" lon="12.8318767"><ele>1241.6666666666667</ele><time>2026-04-18T10:43:57.036Z</time></trkpt><trkpt lat="43.23507" lon="12.8318317"><ele>1240.3333333333333</ele><time>2026-04-18T10:43:59.036Z</time></trkpt><trkpt lat="43.2350017" lon="12.8318033"><ele>1239.0</ele><time>2026-04-18T10:44:00.036Z</time></trkpt><trkpt lat="43.2349317" lon="12.8317817"><ele>1241.8333333333333</ele><time>2026-04-18T10:44:01.036Z</time></trkpt><trkpt lat="43.234855" lon="12.83175"><ele>1244.6666666666667</ele><time>2026-04-18T10:44:02.036Z</time></trkpt><trkpt lat="43.2347783" lon="12.8317233"><ele>1247.5</ele><time>2026-04-18T10:44:03.036Z</time></trkpt><trkpt lat="43.2347083" lon="12.8317067"><ele>1250.3333333333335</ele><time>2026-04-18T10:44:04.036Z</time></trkpt><trkpt lat="43.2346333" lon="12.83169"><ele>1253.1666666666667</ele><time>2026-04-18T10:44:05.036Z</time></trkpt><trkpt lat="43.234565" lon="12.8316667"><ele>1256.0</ele><time>2026-04-18T10:44:06.037Z</time></trkpt><trkpt lat="43.2344917" lon="12.8316317"><ele>1255.9999999999998</ele><time>2026-04-18T10:44:07.036Z</time></trkpt><trkpt lat="43.2344217" lon="12.8315883"><ele>1256.0</ele><time>2026-04-18T10:44:08.036Z</time></trkpt><trkpt lat="43.234355" lon="12.8315467"><ele>1256.0</ele><time>2026-04-18T10:44:09.036Z</time></trkpt><trkpt lat="43.2342867" lon="12.8315117"><ele>1256.0</ele><time>2026-04-18T10:44:10.036Z</time></trkpt><trkpt lat="43.2342217" lon="12.8314817"><ele>1256.0</ele><time>2026-04-18T10:44:11.036Z</time></trkpt><trkpt lat="43.2341567" lon="12.8314533"><ele>1255.9999999999998</ele><time>2026-04-18T10:44:12.037Z</time></trkpt><trkpt lat="43.2340883" lon="12.8314267"><ele>1256.0</ele><time>2026-04-18T10:44:13.036Z</time></trkpt><trkpt lat="43.2340183" lon="12.8313933"><ele>1256.5714285714284</ele><time>2026-04-18T10:44:14.036Z</time></trkpt><trkpt lat="43.2339483" lon="12.8313567"><ele>1257.142857142857</ele><time>2026-04-18T10:44:15.037Z</time></trkpt><trkpt lat="43.2338767" lon="12.8313267"><ele>1257.7142857142858</ele><time>2026-04-18T10:44:16.035Z</time></trkpt><trkpt lat="43.23381" lon="12.831295"><ele>1258.2857142857142</ele><time>2026-04-18T10:44:17.035Z</time></trkpt><trkpt lat="43.2337333" lon="12.831275"><ele>1258.857142857143</ele><time>2026-04-18T10:44:18.036Z</time></trkpt><trkpt lat="43.2336567" lon="12.8312583"><ele>1259.4285714285713</ele><time>2026-04-18T10:44:19.035Z</time></trkpt><trkpt lat="43.233585" lon="12.8312467"><ele>1260.0</ele><time>2026-04-18T10:44:20.035Z</time></trkpt><trkpt lat="43.2335133" lon="12.8312467"><ele>1260.0</ele><time>2026-04-18T10:44:21.035Z</time></trkpt><trkpt lat="43.2334417" lon="12.8312583"><ele>1260.0</ele><time>2026-04-18T10:44:22.035Z</time></trkpt><trkpt lat="43.2333667" lon="12.8312767"><ele>1260.0</ele><time>2026-04-18T10:44:23.035Z</time></trkpt><trkpt lat="43.2332933" lon="12.831285"><ele>1260.0</ele><time>2026-04-18T10:44:24.035Z</time></trkpt><trkpt lat="43.23323" lon="12.831295"><ele>1260.0</ele><time>2026-04-18T10:44:25.035Z</time></trkpt><trkpt lat="43.233105" lon="12.83127"><ele>1260.0</ele><time>2026-04-18T10:44:27.035Z</time></trkpt><trkpt lat="43.233045" lon="12.8312367"><ele>1262.0</ele><time>2026-04-18T10:44:28.035Z</time></trkpt><trkpt lat="43.23297" lon="12.8312017"><ele>1264.0</ele><time>2026-04-18T10:44:29.035Z</time></trkpt><trkpt lat="43.23288" lon="12.8311617"><ele>1266.0</ele><time>2026-04-18T10:44:30.035Z</time></trkpt><trkpt lat="43.2327983" lon="12.8311267"><ele>1268.0</ele><time>2026-04-18T10:44:31.036Z</time></trkpt><trkpt lat="43.23273" lon="12.8310983"><ele>1270.0</ele><time>2026-04-18T10:44:32.035Z</time></trkpt><trkpt lat="43.2326267" lon="12.8310517"><ele>1272.0</ele><time>2026-04-18T10:44:34.036Z</time></trkpt><trkpt lat="43.23256" lon="12.830965"><ele>1272.0</ele><time>2026-04-18T10:44:36.035Z</time></trkpt><trkpt lat="43.232525" lon="12.8308533"><ele>1272.0</ele><time>2026-04-18T10:44:38.035Z</time></trkpt><trkpt lat="43.2325033" lon="12.83074"><ele>1272.0</ele><time>2026-04-18T10:44:40.035Z</time></trkpt><trkpt lat="43.232505" lon="12.8306517"><ele>1272.0</ele><time>2026-04-18T10:44:42.035Z</time></trkpt><trkpt lat="43.232525" lon="12.83053"><ele>1272.0</ele><time>2026-04-18T10:44:44.035Z</time></trkpt><trkpt lat="43.2325583" lon="12.83036"><ele>1272.0</ele><time>2026-04-18T10:44:46.035Z</time></trkpt><trkpt lat="43.23258" lon="12.8302667"><ele>1272.0</ele><time>2026-04-18T10:44:47.036Z</time></trkpt><trkpt lat="43.2326033" lon="12.830175"><ele>1272.0</ele><time>2026-04-18T10:44:48.035Z</time></trkpt><trkpt lat="43.2326317" lon="12.8300867"><ele>1272.0</ele><time>2026-04-18T10:44:49.035Z</time></trkpt><trkpt lat="43.2326633" lon="12.8300033"><ele>1272.0</ele><time>2026-04-18T10:44:50.035Z</time></trkpt><trkpt lat="43.2326967" lon="12.8299183"><ele>1272.0</ele><time>2026-04-18T10:44:51.035Z</time></trkpt><trkpt lat="43.2327533" lon="12.8297833"><ele>1272.8333333333333</ele><time>2026-04-18T10:44:53.036Z</time></trkpt><trkpt lat="43.2327583" lon="12.8296917"><ele>1273.6666666666667</ele><time>2026-04-18T10:44:55.035Z</time></trkpt><trkpt lat="43.232675" lon="12.829705"><ele>1274.5</ele><time>2026-04-18T10:44:58.036Z</time></trkpt><trkpt lat="43.2326367" lon="12.82983"><ele>1275.3333333333335</ele><time>2026-04-18T10:45:00.035Z</time></trkpt><trkpt lat="43.23265" lon="12.8299233"><ele>1276.1666666666667</ele><time>2026-04-18T10:45:02.035Z</time></trkpt><trkpt lat="43.2327167" lon="12.82994"><ele>1277.0</ele><time>2026-04-18T10:45:41.036Z</time></trkpt><trkpt lat="43.2327633" lon="12.829875"><ele>1277.0</ele><time>2026-04-18T10:45:43.035Z</time></trkpt><trkpt lat="43.2327983" lon="12.8297317"><ele>1277.0</ele><time>2026-04-18T10:45:45.036Z</time></trkpt><trkpt lat="43.2328317" lon="12.829635"><ele>1277.0</ele><time>2026-04-18T10:45:46.035Z</time></trkpt><trkpt lat="43.2328667" lon="12.8295217"><ele>1277.0</ele><time>2026-04-18T10:45:47.035Z</time></trkpt><trkpt lat="43.2329083" lon="12.82942"><ele>1277.0</ele><time>2026-04-18T10:45:48.036Z</time></trkpt><trkpt lat="43.2329467" lon="12.8293267"><ele>1277.0</ele><time>2026-04-18T10:45:49.036Z</time></trkpt><trkpt lat="43.2329783" lon="12.8292267"><ele>1277.1666666666667</ele><time>2026-04-18T10:45:50.036Z</time></trkpt><trkpt lat="43.2330017" lon="12.8291317"><ele>1277.3333333333335</ele><time>2026-04-18T10:45:51.035Z</time></trkpt><trkpt lat="43.2330383" lon="12.82904"><ele>1277.5</ele><time>2026-04-18T10:45:52.035Z</time></trkpt><trkpt lat="43.23308" lon="12.8289517"><ele>1277.6666666666667</ele><time>2026-04-18T10:45:53.035Z</time></trkpt><trkpt lat="43.2331133" lon="12.8288567"><ele>1277.8333333333333</ele><time>2026-04-18T10:45:54.036Z</time></trkpt><trkpt lat="43.23315" lon="12.8287583"><ele>1278.0</ele><time>2026-04-18T10:45:55.035Z</time></trkpt><trkpt lat="43.2331867" lon="12.8286567"><ele>1280.0</ele><time>2026-04-18T10:45:56.036Z</time></trkpt><trkpt lat="43.233225" lon="12.82856"><ele>1282.0</ele><time>2026-04-18T10:45:57.035Z</time></trkpt><trkpt lat="43.233265" lon="12.8284767"><ele>1284.0</ele><time>2026-04-18T10:45:58.035Z</time></trkpt><trkpt lat="43.2333" lon="12.828385"><ele>1286.0</ele><time>2026-04-18T10:45:59.035Z</time></trkpt><trkpt lat="43.2333333" lon="12.8283"><ele>1288.0</ele><time>2026-04-18T10:46:00.035Z</time></trkpt><trkpt lat="43.2333533" lon="12.8282083"><ele>1290.0</ele><time>2026-04-18T10:46:01.036Z</time></trkpt><trkpt lat="43.2333817" lon="12.8280467"><ele>1290.5</ele><time>2026-04-18T10:46:03.035Z</time></trkpt><trkpt lat="43.2333967" lon="12.827875"><ele>1291.0</ele><time>2026-04-18T10:46:05.036Z</time></trkpt><trkpt lat="43.2334133" lon="12.827775"><ele>1291.5</ele><time>2026-04-18T10:46:06.035Z</time></trkpt><trkpt lat="43.2334267" lon="12.8276817"><ele>1292.0</ele><time>2026-04-18T10:46:07.036Z</time></trkpt><trkpt lat="43.2334433" lon="12.8275917"><ele>1292.5</ele><time>2026-04-18T10:46:08.035Z</time></trkpt><trkpt lat="43.23345" lon="12.8274967"><ele>1293.0</ele><time>2026-04-18T10:46:09.035Z</time></trkpt><trkpt lat="43.2334567" lon="12.8273983"><ele>1293.857142857143</ele><time>2026-04-18T10:46:10.035Z</time></trkpt><trkpt lat="43.2334717" lon="12.8273017"><ele>1294.7142857142858</ele><time>2026-04-18T10:46:11.035Z</time></trkpt><trkpt lat="43.2334833" lon="12.8272017"><ele>1295.5714285714287</ele><time>2026-04-18T10:46:12.035Z</time></trkpt><trkpt lat="43.2335017" lon="12.8271117"><ele>1296.4285714285716</ele><time>2026-04-18T10:46:13.035Z</time></trkpt><trkpt lat="43.233525" lon="12.8270133"><ele>1297.2857142857142</ele><time>2026-04-18T10:46:14.035Z</time></trkpt><trkpt lat="43.23355" lon="12.8269117"><ele>1298.1428571428573</ele><time>2026-04-18T10:46:15.035Z</time></trkpt><trkpt lat="43.2335733" lon="12.8268083"><ele>1299.0</ele><time>2026-04-18T10:46:16.035Z</time></trkpt><trkpt lat="43.2335983" lon="12.82671"><ele>1299.5</ele><time>2026-04-18T10:46:17.035Z</time></trkpt><trkpt lat="43.2336233" lon="12.8266117"><ele>1300.0</ele><time>2026-04-18T10:46:18.035Z</time></trkpt><trkpt lat="43.233645" lon="12.826525"><ele>1300.5</ele><time>2026-04-18T10:46:19.036Z</time></trkpt><trkpt lat="43.2336583" lon="12.8264283"><ele>1301.0</ele><time>2026-04-18T10:46:20.035Z</time></trkpt><trkpt lat="43.2337067" lon="12.8262933"><ele>1301.5</ele><time>2026-04-18T10:46:22.035Z</time></trkpt><trkpt lat="43.2337583" lon="12.8261583"><ele>1302.0</ele><time>2026-04-18T10:46:24.035Z</time></trkpt><trkpt lat="43.233815" lon="12.82603"><ele>1303.0</ele><time>2026-04-18T10:46:26.035Z</time></trkpt><trkpt lat="43.233865" lon="12.8258717"><ele>1304.0</ele><time>2026-04-18T10:46:28.035Z</time></trkpt><trkpt lat="43.2339033" lon="12.8256917"><ele>1305.0</ele><time>2026-04-18T10:46:30.035Z</time></trkpt><trkpt lat="43.23392" lon="12.8255933"><ele>1306.0</ele><time>2026-04-18T10:46:31.035Z</time></trkpt><trkpt lat="43.2339367" lon="12.8255033"><ele>1307.0</ele><time>2026-04-18T10:46:32.035Z</time></trkpt><trkpt lat="43.2339583" lon="12.8254183"><ele>1311.0</ele><time>2026-04-18T10:46:33.036Z</time></trkpt><trkpt lat="43.233985" lon="12.82534"><ele>1315.0</ele><time>2026-04-18T10:46:34.035Z</time></trkpt><trkpt lat="43.23405" lon="12.82522"><ele>1319.0</ele><time>2026-04-18T10:46:36.035Z</time></trkpt><trkpt lat="43.23414" lon="12.8251633"><ele>1323.0</ele><time>2026-04-18T10:46:38.035Z</time></trkpt><trkpt lat="43.2342283" lon="12.82515"><ele>1327.0</ele><time>2026-04-18T10:46:40.035Z</time></trkpt><trkpt lat="43.2343367" lon="12.8251567"><ele>1327.0</ele><time>2026-04-18T10:46:42.035Z</time></trkpt><trkpt lat="43.2344633" lon="12.825185"><ele>1327.0</ele><time>2026-04-18T10:46:44.035Z</time></trkpt><trkpt lat="43.2345267" lon="12.8252083"><ele>1327.0</ele><time>2026-04-18T10:46:45.035Z</time></trkpt><trkpt lat="43.2346317" lon="12.82528"><ele>1327.0</ele><time>2026-04-18T10:46:47.036Z</time></trkpt><trkpt lat="43.2347133" lon="12.8253467"><ele>1327.0</ele><time>2026-04-18T10:46:49.035Z</time></trkpt><trkpt lat="43.234805" lon="12.825415"><ele>1328.5</ele><time>2026-04-18T10:46:51.035Z</time></trkpt><trkpt lat="43.2349083" lon="12.8254983"><ele>1330.0</ele><time>2026-04-18T10:46:53.035Z</time></trkpt><trkpt lat="43.2350117" lon="12.8255583"><ele>1331.5</ele><time>2026-04-18T10:46:55.035Z</time></trkpt><trkpt lat="43.2351267" lon="12.8256117"><ele>1333.0</ele><time>2026-04-18T10:46:57.035Z</time></trkpt><trkpt lat="43.235245" lon="12.8256483"><ele>1333.0</ele><time>2026-04-18T10:46:59.035Z</time></trkpt><trkpt lat="43.2353617" lon="12.825695"><ele>1333.0</ele><time>2026-04-18T10:47:01.035Z</time></trkpt><trkpt lat="43.235475" lon="12.8257417"><ele>1333.0</ele><time>2026-04-18T10:47:03.036Z</time></trkpt><trkpt lat="43.2355383" lon="12.8257583"><ele>1333.0</ele><time>2026-04-18T10:47:04.035Z</time></trkpt><trkpt lat="43.23566" lon="12.8258167"><ele>1333.0</ele><time>2026-04-18T10:47:06.035Z</time></trkpt><trkpt lat="43.2357333" lon="12.8258517"><ele>1333.9999999999998</ele><time>2026-04-18T10:47:07.035Z</time></trkpt><trkpt lat="43.2358017" lon="12.8258833"><ele>1335.0</ele><time>2026-04-18T10:47:08.035Z</time></trkpt><trkpt lat="43.2358717" lon="12.82591"><ele>1336.0</ele><time>2026-04-18T10:47:09.035Z</time></trkpt><trkpt lat="43.2359417" lon="12.8259367"><ele>1337.0</ele><time>2026-04-18T10:47:10.035Z</time></trkpt><trkpt lat="43.2360033" lon="12.825965"><ele>1338.0</ele><time>2026-04-18T10:47:11.036Z</time></trkpt><trkpt lat="43.2360667" lon="12.8259933"><ele>1338.9999999999998</ele><time>2026-04-18T10:47:12.035Z</time></trkpt><trkpt lat="43.2361317" lon="12.82602"><ele>1340.0</ele><time>2026-04-18T10:47:13.035Z</time></trkpt><trkpt lat="43.2362367" lon="12.8260783"><ele>1342.0</ele><time>2026-04-18T10:47:15.036Z</time></trkpt><trkpt lat="43.2363533" lon="12.826165"><ele>1344.0</ele><time>2026-04-18T10:47:17.036Z</time></trkpt><trkpt lat="43.2364133" lon="12.8262083"><ele>1346.0</ele><time>2026-04-18T10:47:18.035Z</time></trkpt><trkpt lat="43.2364733" lon="12.8262533"><ele>1348.0</ele><time>2026-04-18T10:47:19.035Z</time></trkpt><trkpt lat="43.2365383" lon="12.8262917"><ele>1350.0</ele><time>2026-04-18T10:47:20.035Z</time></trkpt><trkpt lat="43.2366067" lon="12.8263267"><ele>1352.0</ele><time>2026-04-18T10:47:21.036Z</time></trkpt><trkpt lat="43.23667" lon="12.82636"><ele>1352.5714285714287</ele><time>2026-04-18T10:47:22.035Z</time></trkpt><trkpt lat="43.23673" lon="12.8263883"><ele>1353.142857142857</ele><time>2026-04-18T10:47:23.035Z</time></trkpt><trkpt lat="43.2367967" lon="12.8264133"><ele>1353.7142857142858</ele><time>2026-04-18T10:47:24.035Z</time></trkpt><trkpt lat="43.236865" lon="12.8264467"><ele>1354.2857142857142</ele><time>2026-04-18T10:47:25.035Z</time></trkpt><trkpt lat="43.2369367" lon="12.8264833"><ele>1354.857142857143</ele><time>2026-04-18T10:47:26.035Z</time></trkpt><trkpt lat="43.2370067" lon="12.82652"><ele>1355.4285714285713</ele><time>2026-04-18T10:47:27.035Z</time></trkpt><trkpt lat="43.2370733" lon="12.8265533"><ele>1356.0</ele><time>2026-04-18T10:47:28.035Z</time></trkpt><trkpt lat="43.23714" lon="12.8265833"><ele>1356.0</ele><time>2026-04-18T10:47:29.035Z</time></trkpt><trkpt lat="43.2372083" lon="12.82662"><ele>1356.0</ele><time>2026-04-18T10:47:30.035Z</time></trkpt><trkpt lat="43.2372733" lon="12.8266567"><ele>1356.0</ele><time>2026-04-18T10:47:31.035Z</time></trkpt><trkpt lat="43.2373383" lon="12.8266967"><ele>1356.0</ele><time>2026-04-18T10:47:32.035Z</time></trkpt><trkpt lat="43.23745" lon="12.82675"><ele>1356.0</ele><time>2026-04-18T10:47:34.035Z</time></trkpt><trkpt lat="43.2375517" lon="12.8268083"><ele>1356.0</ele><time>2026-04-18T10:47:36.035Z</time></trkpt><trkpt lat="43.23761" lon="12.8268417"><ele>1357.3333333333333</ele><time>2026-04-18T10:47:37.036Z</time></trkpt><trkpt lat="43.2377167" lon="12.826905"><ele>1358.6666666666667</ele><time>2026-04-18T10:47:39.035Z</time></trkpt><trkpt lat="43.23778" lon="12.82694"><ele>1360.0</ele><time>2026-04-18T10:47:40.035Z</time></trkpt><trkpt lat="43.2378417" lon="12.8269733"><ele>1361.3333333333335</ele><time>2026-04-18T10:47:41.035Z</time></trkpt><trkpt lat="43.2379117" lon="12.8270083"><ele>1362.6666666666667</ele><time>2026-04-18T10:47:42.035Z</time></trkpt><trkpt lat="43.2379817" lon="12.8270433"><ele>1364.0</ele><time>2026-04-18T10:47:43.036Z</time></trkpt><trkpt lat="43.2380533" lon="12.8270817"><ele>1364.0</ele><time>2026-04-18T10:47:44.035Z</time></trkpt><trkpt lat="43.2381267" lon="12.8271233"><ele>1364.0</ele><time>2026-04-18T10:47:45.036Z</time></trkpt><trkpt lat="43.238195" lon="12.8271617"><ele>1364.0</ele><time>2026-04-18T10:47:46.035Z</time></trkpt><trkpt lat="43.2382617" lon="12.8271983"><ele>1364.0</ele><time>2026-04-18T10:47:47.035Z</time></trkpt><trkpt lat="43.2383833" lon="12.8272633"><ele>1364.0</ele><time>2026-04-18T10:47:49.035Z</time></trkpt><trkpt lat="43.2384967" lon="12.82729"><ele>1364.6666666666667</ele><time>2026-04-18T10:47:51.035Z</time></trkpt><trkpt lat="43.2385683" lon="12.8273017"><ele>1365.3333333333335</ele><time>2026-04-18T10:47:53.035Z</time></trkpt><trkpt lat="43.2386483" lon="12.8273483"><ele>1366.0</ele><time>2026-04-18T10:47:55.035Z</time></trkpt><trkpt lat="43.23875" lon="12.82744"><ele>1366.6666666666667</ele><time>2026-04-18T10:47:57.035Z</time></trkpt><trkpt lat="43.238815" lon="12.8274967"><ele>1367.3333333333333</ele><time>2026-04-18T10:47:58.036Z</time></trkpt><trkpt lat="43.238875" lon="12.8275633"><ele>1368.0</ele><time>2026-04-18T10:47:59.035Z</time></trkpt><trkpt lat="43.2389367" lon="12.8276317"><ele>1369.7142857142856</ele><time>2026-04-18T10:48:00.035Z</time></trkpt><trkpt lat="43.2389933" lon="12.827705"><ele>1371.4285714285713</ele><time>2026-04-18T10:48:01.036Z</time></trkpt><trkpt lat="43.2390383" lon="12.8277717"><ele>1373.142857142857</ele><time>2026-04-18T10:48:02.035Z</time></trkpt><trkpt lat="43.23909" lon="12.8278417"><ele>1374.8571428571427</ele><time>2026-04-18T10:48:03.036Z</time></trkpt><trkpt lat="43.239145" lon="12.8279117"><ele>1376.5714285714284</ele><time>2026-04-18T10:48:04.035Z</time></trkpt><trkpt lat="43.2392" lon="12.82798"><ele>1378.2857142857142</ele><time>2026-04-18T10:48:05.036Z</time></trkpt><trkpt lat="43.239245" lon="12.8280483"><ele>1380.0</ele><time>2026-04-18T10:48:06.035Z</time></trkpt><trkpt lat="43.2392867" lon="12.8281267"><ele>1380.0</ele><time>2026-04-18T10:48:07.035Z</time></trkpt><trkpt lat="43.239325" lon="12.828205"><ele>1380.0</ele><time>2026-04-18T10:48:08.036Z</time></trkpt><trkpt lat="43.23937" lon="12.8282867"><ele>1380.0</ele><time>2026-04-18T10:48:09.035Z</time></trkpt><trkpt lat="43.2394083" lon="12.8283617"><ele>1380.0</ele><time>2026-04-18T10:48:10.035Z</time></trkpt><trkpt lat="43.2394533" lon="12.8284333"><ele>1380.0</ele><time>2026-04-18T10:48:11.035Z</time></trkpt><trkpt lat="43.2395067" lon="12.8284917"><ele>1380.0</ele><time>2026-04-18T10:48:12.035Z</time></trkpt><trkpt lat="43.239565" lon="12.82854"><ele>1380.0</ele><time>2026-04-18T10:48:13.035Z</time></trkpt><trkpt lat="43.239625" lon="12.82858"><ele>1379.5</ele><time>2026-04-18T10:48:14.036Z</time></trkpt><trkpt lat="43.2396883" lon="12.82861"><ele>1379.0</ele><time>2026-04-18T10:48:15.035Z</time></trkpt><trkpt lat="43.2397517" lon="12.8286317"><ele>1378.5</ele><time>2026-04-18T10:48:16.035Z</time></trkpt><trkpt lat="43.2398217" lon="12.828645"><ele>1378.0</ele><time>2026-04-18T10:48:17.036Z</time></trkpt><trkpt lat="43.2398917" lon="12.8286517"><ele>1377.5</ele><time>2026-04-18T10:48:18.036Z</time></trkpt><trkpt lat="43.2400167" lon="12.82863"><ele>1377.0</ele><time>2026-04-18T10:48:20.036Z</time></trkpt><trkpt lat="43.2401133" lon="12.8285667"><ele>1378.6</ele><time>2026-04-18T10:48:22.035Z</time></trkpt><trkpt lat="43.2401733" lon="12.8284733"><ele>1380.1999999999998</ele><time>2026-04-18T10:48:24.036Z</time></trkpt><trkpt lat="43.240225" lon="12.8283167"><ele>1381.8</ele><time>2026-04-18T10:48:26.035Z</time></trkpt><trkpt lat="43.24025" lon="12.82822"><ele>1383.4</ele><time>2026-04-18T10:48:27.035Z</time></trkpt><trkpt lat="43.2402733" lon="12.828115"><ele>1385.0</ele><time>2026-04-18T10:48:28.035Z</time></trkpt><trkpt lat="43.2402917" lon="12.8279967"><ele>1385.0</ele><time>2026-04-18T10:48:29.035Z</time></trkpt><trkpt lat="43.2403117" lon="12.8278667"><ele>1385.0</ele><time>2026-04-18T10:48:30.035Z</time></trkpt><trkpt lat="43.2403267" lon="12.8277433"><ele>1385.0</ele><time>2026-04-18T10:48:31.035Z</time></trkpt><trkpt lat="43.2403467" lon="12.827625"><ele>1385.0</ele><time>2026-04-18T10:48:32.035Z</time></trkpt><trkpt lat="43.2403683" lon="12.8275033"><ele>1385.0</ele><time>2026-04-18T10:48:33.035Z</time></trkpt><trkpt lat="43.24039" lon="12.82738"><ele>1385.0</ele><time>2026-04-18T10:48:34.036Z</time></trkpt><trkpt lat="43.24041" lon="12.8272667"><ele>1385.0</ele><time>2026-04-18T10:48:35.036Z</time></trkpt><trkpt lat="43.2404217" lon="12.8271433"><ele>1385.0</ele><time>2026-04-18T10:48:36.035Z</time></trkpt><trkpt lat="43.2404333" lon="12.8270217"><ele>1385.0</ele><time>2026-04-18T10:48:37.035Z</time></trkpt><trkpt lat="43.2404533" lon="12.8269083"><ele>1385.0</ele><time>2026-04-18T10:48:38.035Z</time></trkpt><trkpt lat="43.240475" lon="12.826795"><ele>1385.0</ele><time>2026-04-18T10:48:39.035Z</time></trkpt><trkpt lat="43.2405017" lon="12.8266783"><ele>1385.0</ele><time>2026-04-18T10:48:40.036Z</time></trkpt><trkpt lat="43.2405233" lon="12.8265617"><ele>1385.0</ele><time>2026-04-18T10:48:41.035Z</time></trkpt><trkpt lat="43.2405433" lon="12.8264433"><ele>1385.0</ele><time>2026-04-18T10:48:42.036Z</time></trkpt><trkpt lat="43.240565" lon="12.82633"><ele>1385.0</ele><time>2026-04-18T10:48:43.035Z</time></trkpt><trkpt lat="43.24058" lon="12.8262233"><ele>1385.0</ele><time>2026-04-18T10:48:44.035Z</time></trkpt><trkpt lat="43.2405967" lon="12.8261267"><ele>1385.0</ele><time>2026-04-18T10:48:45.035Z</time></trkpt><trkpt lat="43.240605" lon="12.8260333"><ele>1385.8333333333335</ele><time>2026-04-18T10:48:46.035Z</time></trkpt><trkpt lat="43.24061" lon="12.8259367"><ele>1386.6666666666667</ele><time>2026-04-18T10:48:47.035Z</time></trkpt><trkpt lat="43.24061" lon="12.8258483"><ele>1387.5</ele><time>2026-04-18T10:48:48.036Z</time></trkpt><trkpt lat="43.2405933" lon="12.8257533"><ele>1388.3333333333333</ele><time>2026-04-18T10:48:49.036Z</time></trkpt><trkpt lat="43.2405667" lon="12.82566"><ele>1389.1666666666665</ele><time>2026-04-18T10:48:50.036Z</time></trkpt><trkpt lat="43.2405383" lon="12.8255783"><ele>1390.0</ele><time>2026-04-18T10:48:51.035Z</time></trkpt><trkpt lat="43.2405117" lon="12.825435"><ele>1390.0</ele><time>2026-04-18T10:48:53.035Z</time></trkpt><trkpt lat="43.2405" lon="12.8252917"><ele>1390.0</ele><time>2026-04-18T10:48:55.035Z</time></trkpt><trkpt lat="43.2405067" lon="12.8251367"><ele>1390.0</ele><time>2026-04-18T10:48:57.035Z</time></trkpt><trkpt lat="43.2405217" lon="12.8250517"><ele>1390.0</ele><time>2026-04-18T10:48:58.035Z</time></trkpt><trkpt lat="43.2405433" lon="12.8249567"><ele>1390.0</ele><time>2026-04-18T10:48:59.035Z</time></trkpt><trkpt lat="43.240565" lon="12.824865"><ele>1390.0</ele><time>2026-04-18T10:49:00.036Z</time></trkpt><trkpt lat="43.2405817" lon="12.8247117"><ele>1389.8333333333333</ele><time>2026-04-18T10:49:02.035Z</time></trkpt><trkpt lat="43.24059" lon="12.824615"><ele>1389.6666666666665</ele><time>2026-04-18T10:49:04.035Z</time></trkpt><trkpt lat="43.240625" lon="12.8245283"><ele>1389.5</ele><time>2026-04-18T10:49:55.035Z</time></trkpt><trkpt lat="43.240645" lon="12.8244383"><ele>1389.3333333333333</ele><time>2026-04-18T10:49:57.034Z</time></trkpt><trkpt lat="43.2406733" lon="12.8243133"><ele>1389.1666666666667</ele><time>2026-04-18T10:50:00.034Z</time></trkpt><trkpt lat="43.2407117" lon="12.8242017"><ele>1389.0</ele><time>2026-04-18T10:50:03.034Z</time></trkpt><trkpt lat="43.24075" lon="12.824095"><ele>1389.6666666666667</ele><time>2026-04-18T10:50:06.034Z</time></trkpt><trkpt lat="43.2407883" lon="12.824025"><ele>1390.3333333333333</ele><time>2026-04-18T10:50:08.034Z</time></trkpt><trkpt lat="43.240835" lon="12.823955"><ele>1391.0</ele><time>2026-04-18T10:50:10.034Z</time></trkpt><trkpt lat="43.24091" lon="12.823875"><ele>1391.6666666666665</ele><time>2026-04-18T10:50:12.034Z</time></trkpt><trkpt lat="43.2409967" lon="12.8237833"><ele>1392.3333333333333</ele><time>2026-04-18T10:50:14.034Z</time></trkpt><trkpt lat="43.2410517" lon="12.82373"><ele>1393.0</ele><time>2026-04-18T10:50:15.034Z</time></trkpt><trkpt lat="43.241105" lon="12.8236667"><ele>1393.0</ele><time>2026-04-18T10:50:16.034Z</time></trkpt><trkpt lat="43.241155" lon="12.8236133"><ele>1393.0</ele><time>2026-04-18T10:50:17.034Z</time></trkpt><trkpt lat="43.2412517" lon="12.8235167"><ele>1393.0</ele><time>2026-04-18T10:50:19.034Z</time></trkpt><trkpt lat="43.2413" lon="12.8234033"><ele>1393.0</ele><time>2026-04-18T10:50:21.034Z</time></trkpt><trkpt lat="43.24133" lon="12.8232983"><ele>1393.0</ele><time>2026-04-18T10:50:23.034Z</time></trkpt><trkpt lat="43.2413583" lon="12.8232"><ele>1393.0</ele><time>2026-04-18T10:50:25.035Z</time></trkpt><trkpt lat="43.2413883" lon="12.8230983"><ele>1393.3333333333333</ele><time>2026-04-18T10:50:27.034Z</time></trkpt><trkpt lat="43.241435" lon="12.8229917"><ele>1393.6666666666665</ele><time>2026-04-18T10:50:29.034Z</time></trkpt><trkpt lat="43.2414833" lon="12.822885"><ele>1394.0</ele><time>2026-04-18T10:50:31.035Z</time></trkpt><trkpt lat="43.2415217" lon="12.822775"><ele>1394.3333333333333</ele><time>2026-04-18T10:50:33.034Z</time></trkpt><trkpt lat="43.2415717" lon="12.8226483"><ele>1394.6666666666667</ele><time>2026-04-18T10:50:35.035Z</time></trkpt><trkpt lat="43.2415983" lon="12.82256"><ele>1395.0</ele><time>2026-04-18T10:50:36.034Z</time></trkpt><trkpt lat="43.2416267" lon="12.82248"><ele>1392.8</ele><time>2026-04-18T10:50:37.034Z</time></trkpt><trkpt lat="43.2416683" lon="12.822335"><ele>1390.6</ele><time>2026-04-18T10:50:39.035Z</time></trkpt><trkpt lat="43.2417133" lon="12.8222117"><ele>1388.4</ele><time>2026-04-18T10:50:41.034Z</time></trkpt><trkpt lat="43.2417583" lon="12.8220917"><ele>1386.2</ele><time>2026-04-18T10:50:43.035Z</time></trkpt><trkpt lat="43.241795" lon="12.821965"><ele>1384.0</ele><time>2026-04-18T10:50:45.035Z</time></trkpt><trkpt lat="43.2418367" lon="12.8218367"><ele>1381.8000000000002</ele><time>2026-04-18T10:50:47.034Z</time></trkpt><trkpt lat="43.2418783" lon="12.8217017"><ele>1379.6000000000001</ele><time>2026-04-18T10:50:49.035Z</time></trkpt><trkpt lat="43.2419083" lon="12.8215517"><ele>1377.4</ele><time>2026-04-18T10:50:51.034Z</time></trkpt><trkpt lat="43.2419317" lon="12.821405"><ele>1375.2</ele><time>2026-04-18T10:50:53.034Z</time></trkpt><trkpt lat="43.241935" lon="12.8212433"><ele>1373.0</ele><time>2026-04-18T10:50:55.034Z</time></trkpt><trkpt lat="43.2419467" lon="12.8210817"><ele>1371.4</ele><time>2026-04-18T10:50:57.034Z</time></trkpt><trkpt lat="43.241955" lon="12.8209183"><ele>1369.8000000000002</ele><time>2026-04-18T10:50:59.034Z</time></trkpt><trkpt lat="43.2419533" lon="12.8207717"><ele>1368.2</ele><time>2026-04-18T10:51:01.034Z</time></trkpt><trkpt lat="43.2419567" lon="12.8206367"><ele>1366.6</ele><time>2026-04-18T10:51:03.034Z</time></trkpt><trkpt lat="43.2419617" lon="12.8204917"><ele>1365.0</ele><time>2026-04-18T10:51:05.034Z</time></trkpt><trkpt lat="43.2419617" lon="12.820345"><ele>1365.0</ele><time>2026-04-18T10:51:07.034Z</time></trkpt><trkpt lat="43.241955" lon="12.8201967"><ele>1365.0</ele><time>2026-04-18T10:51:09.034Z</time></trkpt><trkpt lat="43.2419583" lon="12.8200567"><ele>1365.0</ele><time>2026-04-18T10:51:11.034Z</time></trkpt><trkpt lat="43.241945" lon="12.8199"><ele>1365.0</ele><time>2026-04-18T10:51:13.035Z</time></trkpt><trkpt lat="43.2419333" lon="12.81976"><ele>1365.0</ele><time>2026-04-18T10:51:15.034Z</time></trkpt><trkpt lat="43.2419317" lon="12.819625"><ele>1363.8</ele><time>2026-04-18T10:51:17.034Z</time></trkpt><trkpt lat="43.24191" lon="12.8194867"><ele>1362.6</ele><time>2026-04-18T10:51:19.035Z</time></trkpt><trkpt lat="43.2418867" lon="12.8193983"><ele>1361.4</ele><time>2026-04-18T10:51:20.034Z</time></trkpt><trkpt lat="43.241835" lon="12.81926"><ele>1360.2</ele><time>2026-04-18T10:51:22.034Z</time></trkpt><trkpt lat="43.2417783" lon="12.8191267"><ele>1359.0</ele><time>2026-04-18T10:51:24.034Z</time></trkpt><trkpt lat="43.24172" lon="12.8189783"><ele>1358.4</ele><time>2026-04-18T10:51:26.034Z</time></trkpt><trkpt lat="43.2416667" lon="12.8188417"><ele>1357.8000000000002</ele><time>2026-04-18T10:51:28.034Z</time></trkpt><trkpt lat="43.2416233" lon="12.8187083"><ele>1357.1999999999998</ele><time>2026-04-18T10:51:30.035Z</time></trkpt><trkpt lat="43.2415917" lon="12.8185667"><ele>1356.6</ele><time>2026-04-18T10:51:32.034Z</time></trkpt><trkpt lat="43.2415517" lon="12.81841"><ele>1356.0</ele><time>2026-04-18T10:51:34.034Z</time></trkpt><trkpt lat="43.2414983" lon="12.81825"><ele>1351.8333333333333</ele><time>2026-04-18T10:51:36.034Z</time></trkpt><trkpt lat="43.241465" lon="12.81817"><ele>1347.6666666666667</ele><time>2026-04-18T10:51:37.034Z</time></trkpt><trkpt lat="43.2414317" lon="12.8180883"><ele>1343.5</ele><time>2026-04-18T10:51:38.034Z</time></trkpt><trkpt lat="43.2413967" lon="12.81801"><ele>1339.3333333333335</ele><time>2026-04-18T10:51:39.034Z</time></trkpt><trkpt lat="43.2413233" lon="12.8178683"><ele>1335.1666666666667</ele><time>2026-04-18T10:51:41.034Z</time></trkpt><trkpt lat="43.2412867" lon="12.8177967"><ele>1331.0</ele><time>2026-04-18T10:51:42.034Z</time></trkpt><trkpt lat="43.2412533" lon="12.8177233"><ele>1331.0</ele><time>2026-04-18T10:51:43.034Z</time></trkpt><trkpt lat="43.24122" lon="12.8176467"><ele>1331.0</ele><time>2026-04-18T10:51:44.034Z</time></trkpt><trkpt lat="43.241185" lon="12.8175717"><ele>1331.0</ele><time>2026-04-18T10:51:45.034Z</time></trkpt><trkpt lat="43.2411217" lon="12.8174167"><ele>1331.0</ele><time>2026-04-18T10:51:47.034Z</time></trkpt><trkpt lat="43.2410833" lon="12.81733"><ele>1331.0</ele><time>2026-04-18T10:51:48.034Z</time></trkpt><trkpt lat="43.2410433" lon="12.8172367"><ele>1331.0</ele><time>2026-04-18T10:51:49.034Z</time></trkpt><trkpt lat="43.2410017" lon="12.8171533"><ele>1331.0</ele><time>2026-04-18T10:51:50.034Z</time></trkpt><trkpt lat="43.2409617" lon="12.8170733"><ele>1331.0</ele><time>2026-04-18T10:51:51.034Z</time></trkpt><trkpt lat="43.2409217" lon="12.8169933"><ele>1331.0</ele><time>2026-04-18T10:51:52.035Z</time></trkpt><trkpt lat="43.2408833" lon="12.816915"><ele>1331.0</ele><time>2026-04-18T10:51:53.034Z</time></trkpt><trkpt lat="43.2408117" lon="12.8167767"><ele>1331.0</ele><time>2026-04-18T10:51:55.035Z</time></trkpt><trkpt lat="43.24074" lon="12.8166417"><ele>1331.8</ele><time>2026-04-18T10:51:57.034Z</time></trkpt><trkpt lat="43.2406717" lon="12.816515"><ele>1332.6</ele><time>2026-04-18T10:51:59.034Z</time></trkpt><trkpt lat="43.2406317" lon="12.816445"><ele>1333.4</ele><time>2026-04-18T10:52:00.034Z</time></trkpt><trkpt lat="43.24056" lon="12.81632"><ele>1334.2</ele><time>2026-04-18T10:52:02.034Z</time></trkpt><trkpt lat="43.24049" lon="12.8161883"><ele>1335.0</ele><time>2026-04-18T10:52:04.034Z</time></trkpt><trkpt lat="43.24042" lon="12.81607"><ele>1334.0</ele><time>2026-04-18T10:52:06.034Z</time></trkpt><trkpt lat="43.24036" lon="12.8159467"><ele>1333.0</ele><time>2026-04-18T10:52:08.034Z</time></trkpt><trkpt lat="43.2403117" lon="12.8158117"><ele>1332.0</ele><time>2026-04-18T10:52:10.034Z</time></trkpt><trkpt lat="43.24026" lon="12.8156683"><ele>1331.0</ele><time>2026-04-18T10:52:12.034Z</time></trkpt><trkpt lat="43.2402267" lon="12.81559"><ele>1330.0</ele><time>2026-04-18T10:52:13.034Z</time></trkpt><trkpt lat="43.2401883" lon="12.815505"><ele>1330.0</ele><time>2026-04-18T10:52:14.034Z</time></trkpt><trkpt lat="43.24015" lon="12.815425"><ele>1330.0</ele><time>2026-04-18T10:52:15.034Z</time></trkpt><trkpt lat="43.2401133" lon="12.8153533"><ele>1330.0</ele><time>2026-04-18T10:52:16.034Z</time></trkpt><trkpt lat="43.2400733" lon="12.815285"><ele>1330.0</ele><time>2026-04-18T10:52:17.034Z</time></trkpt><trkpt lat="43.2399983" lon="12.8151633"><ele>1330.0</ele><time>2026-04-18T10:52:19.034Z</time></trkpt><trkpt lat="43.2399133" lon="12.8150483"><ele>1330.0</ele><time>2026-04-18T10:52:21.034Z</time></trkpt><trkpt lat="43.2398383" lon="12.8149567"><ele>1328.0</ele><time>2026-04-18T10:52:23.035Z</time></trkpt><trkpt lat="43.2397717" lon="12.8148783"><ele>1326.0</ele><time>2026-04-18T10:52:25.034Z</time></trkpt><trkpt lat="43.2397067" lon="12.81479"><ele>1324.0</ele><time>2026-04-18T10:52:27.034Z</time></trkpt><trkpt lat="43.2396467" lon="12.8147033"><ele>1322.0</ele><time>2026-04-18T10:52:29.034Z</time></trkpt><trkpt lat="43.2395833" lon="12.8146283"><ele>1320.0</ele><time>2026-04-18T10:52:32.034Z</time></trkpt><trkpt lat="43.23954" lon="12.8145517"><ele>1318.0</ele><time>2026-04-18T11:08:57.031Z</time></trkpt><trkpt lat="43.2395583" lon="12.814445"><ele>1318.0</ele><time>2026-04-18T11:09:01.031Z</time></trkpt><trkpt lat="43.2396167" lon="12.8144867"><ele>1318.0</ele><time>2026-04-18T11:09:04.031Z</time></trkpt><trkpt lat="43.239615" lon="12.81458"><ele>1318.0</ele><time>2026-04-18T11:09:06.031Z</time></trkpt><trkpt lat="43.2396367" lon="12.8147067"><ele>1318.0</ele><time>2026-04-18T11:09:09.031Z</time></trkpt><trkpt lat="43.2396883" lon="12.8147783"><ele>1318.0</ele><time>2026-04-18T11:09:11.031Z</time></trkpt><trkpt lat="43.2397417" lon="12.81485"><ele>1318.0</ele><time>2026-04-18T11:09:13.031Z</time></trkpt><trkpt lat="43.239805" lon="12.81493"><ele>1320.4</ele><time>2026-04-18T11:09:15.031Z</time></trkpt><trkpt lat="43.2398667" lon="12.8150217"><ele>1322.8000000000002</ele><time>2026-04-18T11:09:17.031Z</time></trkpt><trkpt lat="43.2399183" lon="12.81508"><ele>1325.2</ele><time>2026-04-18T11:09:19.031Z</time></trkpt><trkpt lat="43.239985" lon="12.8151383"><ele>1327.6</ele><time>2026-04-18T11:09:22.031Z</time></trkpt><trkpt lat="43.2400817" lon="12.81529"><ele>1330.0</ele><time>2026-04-18T11:09:54.031Z</time></trkpt><trkpt lat="43.2401417" lon="12.815395"><ele>1330.0</ele><time>2026-04-18T11:09:56.032Z</time></trkpt><trkpt lat="43.2401917" lon="12.815525"><ele>1330.0</ele><time>2026-04-18T11:09:58.031Z</time></trkpt><trkpt lat="43.2402483" lon="12.815665"><ele>1330.0</ele><time>2026-04-18T11:10:00.031Z</time></trkpt><trkpt lat="43.2403117" lon="12.81582"><ele>1330.0</ele><time>2026-04-18T11:10:02.031Z</time></trkpt><trkpt lat="43.2403517" lon="12.8158983"><ele>1330.0</ele><time>2026-04-18T11:10:03.031Z</time></trkpt><trkpt lat="43.2403917" lon="12.8159783"><ele>1330.7142857142858</ele><time>2026-04-18T11:10:04.031Z</time></trkpt><trkpt lat="43.2404267" lon="12.81606"><ele>1331.4285714285716</ele><time>2026-04-18T11:10:05.031Z</time></trkpt><trkpt lat="43.2404633" lon="12.8161383"><ele>1332.142857142857</ele><time>2026-04-18T11:10:06.031Z</time></trkpt><trkpt lat="43.2404983" lon="12.8162217"><ele>1332.857142857143</ele><time>2026-04-18T11:10:07.031Z</time></trkpt><trkpt lat="43.2405367" lon="12.8162983"><ele>1333.5714285714287</ele><time>2026-04-18T11:10:08.031Z</time></trkpt><trkpt lat="43.2405833" lon="12.8163733"><ele>1334.2857142857142</ele><time>2026-04-18T11:10:09.032Z</time></trkpt><trkpt lat="43.2406317" lon="12.8164483"><ele>1335.0</ele><time>2026-04-18T11:10:10.031Z</time></trkpt><trkpt lat="43.24068" lon="12.8165233"><ele>1335.0</ele><time>2026-04-18T11:10:11.031Z</time></trkpt><trkpt lat="43.2407283" lon="12.816605"><ele>1335.0</ele><time>2026-04-18T11:10:12.032Z</time></trkpt><trkpt lat="43.24078" lon="12.81668"><ele>1335.0</ele><time>2026-04-18T11:10:13.031Z</time></trkpt><trkpt lat="43.2408317" lon="12.8167617"><ele>1335.0</ele><time>2026-04-18T11:10:14.031Z</time></trkpt><trkpt lat="43.2408817" lon="12.816855"><ele>1335.0</ele><time>2026-04-18T11:10:15.031Z</time></trkpt><trkpt lat="43.2409333" lon="12.8169517"><ele>1335.0</ele><time>2026-04-18T11:10:16.031Z</time></trkpt><trkpt lat="43.2409833" lon="12.8170533"><ele>1334.3333333333333</ele><time>2026-04-18T11:10:17.031Z</time></trkpt><trkpt lat="43.2410217" lon="12.817145"><ele>1333.6666666666667</ele><time>2026-04-18T11:10:18.031Z</time></trkpt><trkpt lat="43.241065" lon="12.8172283"><ele>1333.0</ele><time>2026-04-18T11:10:19.031Z</time></trkpt><trkpt lat="43.2411067" lon="12.8173233"><ele>1332.3333333333335</ele><time>2026-04-18T11:10:20.031Z</time></trkpt><trkpt lat="43.24115" lon="12.81741"><ele>1331.6666666666667</ele><time>2026-04-18T11:10:21.031Z</time></trkpt><trkpt lat="43.241195" lon="12.81751"><ele>1331.0</ele><time>2026-04-18T11:10:22.032Z</time></trkpt><trkpt lat="43.241235" lon="12.8176117"><ele>1331.0</ele><time>2026-04-18T11:10:23.031Z</time></trkpt><trkpt lat="43.2412717" lon="12.81772"><ele>1331.0</ele><time>2026-04-18T11:10:24.031Z</time></trkpt><trkpt lat="43.2413117" lon="12.8178217"><ele>1331.0</ele><time>2026-04-18T11:10:25.031Z</time></trkpt><trkpt lat="43.2413533" lon="12.8179217"><ele>1331.0</ele><time>2026-04-18T11:10:26.032Z</time></trkpt><trkpt lat="43.2413967" lon="12.8180183"><ele>1331.0</ele><time>2026-04-18T11:10:27.031Z</time></trkpt><trkpt lat="43.2414383" lon="12.818105"><ele>1331.0</ele><time>2026-04-18T11:10:28.032Z</time></trkpt><trkpt lat="43.2414817" lon="12.8181917"><ele>1334.5</ele><time>2026-04-18T11:10:29.031Z</time></trkpt><trkpt lat="43.2415217" lon="12.8182933"><ele>1338.0</ele><time>2026-04-18T11:10:30.032Z</time></trkpt><trkpt lat="43.2415633" lon="12.8183933"><ele>1341.5</ele><time>2026-04-18T11:10:31.032Z</time></trkpt><trkpt lat="43.241595" lon="12.8184967"><ele>1345.0</ele><time>2026-04-18T11:10:32.031Z</time></trkpt><trkpt lat="43.24162" lon="12.8185983"><ele>1348.5</ele><time>2026-04-18T11:10:33.031Z</time></trkpt><trkpt lat="43.2416433" lon="12.8187"><ele>1352.0</ele><time>2026-04-18T11:10:34.031Z</time></trkpt><trkpt lat="43.2416717" lon="12.8188"><ele>1352.6666666666667</ele><time>2026-04-18T11:10:35.032Z</time></trkpt><trkpt lat="43.2416983" lon="12.8188933"><ele>1353.3333333333335</ele><time>2026-04-18T11:10:36.031Z</time></trkpt><trkpt lat="43.2417533" lon="12.8190517"><ele>1354.0</ele><time>2026-04-18T11:10:38.031Z</time></trkpt><trkpt lat="43.2417883" lon="12.8191333"><ele>1354.6666666666667</ele><time>2026-04-18T11:10:39.032Z</time></trkpt><trkpt lat="43.2418317" lon="12.81922"><ele>1355.3333333333333</ele><time>2026-04-18T11:10:40.031Z</time></trkpt><trkpt lat="43.2418667" lon="12.819305"><ele>1356.0</ele><time>2026-04-18T11:10:41.031Z</time></trkpt><trkpt lat="43.2418967" lon="12.8194017"><ele>1356.5</ele><time>2026-04-18T11:10:42.031Z</time></trkpt><trkpt lat="43.2419233" lon="12.8195033"><ele>1357.0</ele><time>2026-04-18T11:10:43.031Z</time></trkpt><trkpt lat="43.2419483" lon="12.819605"><ele>1357.5</ele><time>2026-04-18T11:10:44.032Z</time></trkpt><trkpt lat="43.2419633" lon="12.8196967"><ele>1358.0</ele><time>2026-04-18T11:10:45.031Z</time></trkpt><trkpt lat="43.2420083" lon="12.8198283"><ele>1358.5</ele><time>2026-04-18T11:10:47.031Z</time></trkpt><trkpt lat="43.2420717" lon="12.819835"><ele>1359.0</ele><time>2026-04-18T11:10:49.031Z</time></trkpt><trkpt lat="43.2420933" lon="12.8197517"><ele>1359.0</ele><time>2026-04-18T11:10:51.031Z</time></trkpt><trkpt lat="43.24208" lon="12.819595"><ele>1359.0</ele><time>2026-04-18T11:10:53.031Z</time></trkpt><trkpt lat="43.24207" lon="12.8195017"><ele>1359.0</ele><time>2026-04-18T11:10:54.031Z</time></trkpt><trkpt lat="43.24206" lon="12.8193983"><ele>1359.0</ele><time>2026-04-18T11:10:55.031Z</time></trkpt><trkpt lat="43.2420467" lon="12.8192933"><ele>1359.0</ele><time>2026-04-18T11:10:56.031Z</time></trkpt><trkpt lat="43.2420417" lon="12.8191833"><ele>1359.0</ele><time>2026-04-18T11:10:57.031Z</time></trkpt><trkpt lat="43.24203" lon="12.8190617"><ele>1358.5714285714287</ele><time>2026-04-18T11:10:58.031Z</time></trkpt><trkpt lat="43.2420183" lon="12.818945"><ele>1358.142857142857</ele><time>2026-04-18T11:10:59.031Z</time></trkpt><trkpt lat="43.2420033" lon="12.8188317"><ele>1357.7142857142858</ele><time>2026-04-18T11:11:00.031Z</time></trkpt><trkpt lat="43.2419917" lon="12.8187333"><ele>1357.2857142857142</ele><time>2026-04-18T11:11:01.031Z</time></trkpt><trkpt lat="43.241975" lon="12.8186383"><ele>1356.857142857143</ele><time>2026-04-18T11:11:02.031Z</time></trkpt><trkpt lat="43.2419583" lon="12.8185533"><ele>1356.4285714285713</ele><time>2026-04-18T11:11:03.032Z</time></trkpt><trkpt lat="43.2419433" lon="12.818465"><ele>1356.0</ele><time>2026-04-18T11:11:04.032Z</time></trkpt><trkpt lat="43.241925" lon="12.8183817"><ele>1355.3333333333333</ele><time>2026-04-18T11:11:05.031Z</time></trkpt><trkpt lat="43.2418983" lon="12.8182183"><ele>1354.6666666666667</ele><time>2026-04-18T11:11:07.031Z</time></trkpt><trkpt lat="43.2418733" lon="12.818055"><ele>1354.0</ele><time>2026-04-18T11:11:09.031Z</time></trkpt><trkpt lat="43.2418617" lon="12.81797"><ele>1353.3333333333335</ele><time>2026-04-18T11:11:10.031Z</time></trkpt><trkpt lat="43.2418467" lon="12.8178817"><ele>1352.6666666666667</ele><time>2026-04-18T11:11:11.032Z</time></trkpt><trkpt lat="43.2418283" lon="12.8177867"><ele>1352.0</ele><time>2026-04-18T11:11:12.031Z</time></trkpt><trkpt lat="43.241805" lon="12.8176867"><ele>1348.8333333333335</ele><time>2026-04-18T11:11:13.031Z</time></trkpt><trkpt lat="43.2417733" lon="12.81759"><ele>1345.6666666666667</ele><time>2026-04-18T11:11:14.031Z</time></trkpt><trkpt lat="43.2417333" lon="12.8174883"><ele>1342.5</ele><time>2026-04-18T11:11:15.031Z</time></trkpt><trkpt lat="43.2416917" lon="12.8174017"><ele>1339.3333333333333</ele><time>2026-04-18T11:11:16.031Z</time></trkpt><trkpt lat="43.2416517" lon="12.8173333"><ele>1336.1666666666665</ele><time>2026-04-18T11:11:17.031Z</time></trkpt><trkpt lat="43.24158" lon="12.8171983"><ele>1333.0</ele><time>2026-04-18T11:11:19.032Z</time></trkpt><trkpt lat="43.2415483" lon="12.817115"><ele>1333.0</ele><time>2026-04-18T11:11:20.032Z</time></trkpt><trkpt lat="43.2415217" lon="12.8170283"><ele>1333.0</ele><time>2026-04-18T11:11:21.031Z</time></trkpt><trkpt lat="43.2415" lon="12.81693"><ele>1333.0</ele><time>2026-04-18T11:11:22.031Z</time></trkpt><trkpt lat="43.2414683" lon="12.81682"><ele>1333.0</ele><time>2026-04-18T11:11:23.031Z</time></trkpt><trkpt lat="43.2414317" lon="12.8167033"><ele>1333.0</ele><time>2026-04-18T11:11:24.031Z</time></trkpt><trkpt lat="43.2413883" lon="12.8165783"><ele>1333.0</ele><time>2026-04-18T11:11:25.032Z</time></trkpt><trkpt lat="43.2413467" lon="12.8164583"><ele>1333.3333333333333</ele><time>2026-04-18T11:11:26.031Z</time></trkpt><trkpt lat="43.2413133" lon="12.816345"><ele>1333.6666666666665</ele><time>2026-04-18T11:11:27.031Z</time></trkpt><trkpt lat="43.241275" lon="12.8162383"><ele>1334.0</ele><time>2026-04-18T11:11:28.031Z</time></trkpt><trkpt lat="43.241235" lon="12.8161333"><ele>1334.3333333333333</ele><time>2026-04-18T11:11:29.031Z</time></trkpt><trkpt lat="43.2411967" lon="12.8160233"><ele>1334.6666666666667</ele><time>2026-04-18T11:11:30.032Z</time></trkpt><trkpt lat="43.24116" lon="12.815925"><ele>1335.0</ele><time>2026-04-18T11:11:31.031Z</time></trkpt><trkpt lat="43.2411183" lon="12.815825"><ele>1333.1666666666667</ele><time>2026-04-18T11:11:32.031Z</time></trkpt><trkpt lat="43.24108" lon="12.8157367"><ele>1331.3333333333333</ele><time>2026-04-18T11:11:33.031Z</time></trkpt><trkpt lat="43.241045" lon="12.8156517"><ele>1329.5</ele><time>2026-04-18T11:11:34.031Z</time></trkpt><trkpt lat="43.2410083" lon="12.8155767"><ele>1327.6666666666665</ele><time>2026-04-18T11:11:35.031Z</time></trkpt><trkpt lat="43.240975" lon="12.8154983"><ele>1325.8333333333333</ele><time>2026-04-18T11:11:36.032Z</time></trkpt><trkpt lat="43.2409533" lon="12.8154133"><ele>1324.0</ele><time>2026-04-18T11:11:37.031Z</time></trkpt><trkpt lat="43.2409483" lon="12.8152533"><ele>1322.5</ele><time>2026-04-18T11:11:39.031Z</time></trkpt><trkpt lat="43.240965" lon="12.81511"><ele>1321.0</ele><time>2026-04-18T11:11:41.031Z</time></trkpt><trkpt lat="43.2409983" lon="12.8149633"><ele>1319.5</ele><time>2026-04-18T11:11:43.031Z</time></trkpt><trkpt lat="43.2410217" lon="12.8148817"><ele>1318.0</ele><time>2026-04-18T11:11:44.031Z</time></trkpt><trkpt lat="43.2410483" lon="12.8147917"><ele>1316.5</ele><time>2026-04-18T11:11:45.031Z</time></trkpt><trkpt lat="43.241085" lon="12.81471"><ele>1315.0</ele><time>2026-04-18T11:11:46.031Z</time></trkpt><trkpt lat="43.2411317" lon="12.8146283"><ele>1315.0</ele><time>2026-04-18T11:11:47.031Z</time></trkpt><trkpt lat="43.2411783" lon="12.8145383"><ele>1315.0</ele><time>2026-04-18T11:11:48.032Z</time></trkpt><trkpt lat="43.2412267" lon="12.8144383"><ele>1315.0</ele><time>2026-04-18T11:11:49.031Z</time></trkpt><trkpt lat="43.2412733" lon="12.8143367"><ele>1315.0</ele><time>2026-04-18T11:11:50.031Z</time></trkpt><trkpt lat="43.2413083" lon="12.81424"><ele>1315.0</ele><time>2026-04-18T11:11:51.032Z</time></trkpt><trkpt lat="43.2413433" lon="12.81414"><ele>1315.0</ele><time>2026-04-18T11:11:52.031Z</time></trkpt><trkpt lat="43.241375" lon="12.81404"><ele>1313.3333333333333</ele><time>2026-04-18T11:11:53.031Z</time></trkpt><trkpt lat="43.2414133" lon="12.8139567"><ele>1311.6666666666665</ele><time>2026-04-18T11:11:54.031Z</time></trkpt><trkpt lat="43.24145" lon="12.813875"><ele>1310.0</ele><time>2026-04-18T11:11:55.031Z</time></trkpt><trkpt lat="43.2414867" lon="12.8137917"><ele>1308.3333333333333</ele><time>2026-04-18T11:11:56.031Z</time></trkpt><trkpt lat="43.2415283" lon="12.8137167"><ele>1306.6666666666667</ele><time>2026-04-18T11:11:57.031Z</time></trkpt><trkpt lat="43.2415683" lon="12.813645"><ele>1305.0</ele><time>2026-04-18T11:11:58.031Z</time></trkpt><trkpt lat="43.24164" lon="12.8135067"><ele>1301.6666666666667</ele><time>2026-04-18T11:12:00.032Z</time></trkpt><trkpt lat="43.2416917" lon="12.81343"><ele>1298.3333333333333</ele><time>2026-04-18T11:12:02.031Z</time></trkpt><trkpt lat="43.2417617" lon="12.813425"><ele>1295.0</ele><time>2026-04-18T11:12:04.031Z</time></trkpt><trkpt lat="43.2417883" lon="12.81353"><ele>1291.6666666666665</ele><time>2026-04-18T11:12:07.031Z</time></trkpt><trkpt lat="43.2417467" lon="12.81366"><ele>1288.3333333333333</ele><time>2026-04-18T11:12:09.031Z</time></trkpt><trkpt lat="43.2417183" lon="12.8137567"><ele>1285.0</ele><time>2026-04-18T11:12:10.031Z</time></trkpt><trkpt lat="43.2416967" lon="12.8138467"><ele>1284.8333333333333</ele><time>2026-04-18T11:12:11.031Z</time></trkpt><trkpt lat="43.2416783" lon="12.8139317"><ele>1284.6666666666665</ele><time>2026-04-18T11:12:12.031Z</time></trkpt><trkpt lat="43.2416217" lon="12.81409"><ele>1284.5</ele><time>2026-04-18T11:12:14.032Z</time></trkpt><trkpt lat="43.2415767" lon="12.8142417"><ele>1284.3333333333333</ele><time>2026-04-18T11:12:16.031Z</time></trkpt><trkpt lat="43.2415483" lon="12.81432"><ele>1284.1666666666667</ele><time>2026-04-18T11:12:17.031Z</time></trkpt><trkpt lat="43.241515" lon="12.8143967"><ele>1284.0</ele><time>2026-04-18T11:12:18.031Z</time></trkpt><trkpt lat="43.241485" lon="12.814475"><ele>1290.2</ele><time>2026-04-18T11:12:19.032Z</time></trkpt><trkpt lat="43.24145" lon="12.8145583"><ele>1296.4</ele><time>2026-04-18T11:12:20.031Z</time></trkpt><trkpt lat="43.2414233" lon="12.8146367"><ele>1302.6</ele><time>2026-04-18T11:12:21.032Z</time></trkpt><trkpt lat="43.2413883" lon="12.8147967"><ele>1308.8</ele><time>2026-04-18T11:12:23.031Z</time></trkpt><trkpt lat="43.2413867" lon="12.8149467"><ele>1315.0</ele><time>2026-04-18T11:12:25.031Z</time></trkpt><trkpt lat="43.241445" lon="12.8150967"><ele>1312.0</ele><time>2026-04-18T11:12:27.031Z</time></trkpt><trkpt lat="43.2415467" lon="12.8152333"><ele>1309.0</ele><time>2026-04-18T11:12:29.032Z</time></trkpt><trkpt lat="43.2416117" lon="12.8153033"><ele>1306.0</ele><time>2026-04-18T11:12:30.031Z</time></trkpt><trkpt lat="43.2416783" lon="12.8153667"><ele>1303.0</ele><time>2026-04-18T11:12:31.031Z</time></trkpt><trkpt lat="43.2417483" lon="12.8154317"><ele>1300.0</ele><time>2026-04-18T11:12:32.031Z</time></trkpt><trkpt lat="43.241825" lon="12.8154933"><ele>1300.0</ele><time>2026-04-18T11:12:33.031Z</time></trkpt><trkpt lat="43.2419" lon="12.81556"><ele>1300.0</ele><time>2026-04-18T11:12:34.031Z</time></trkpt><trkpt lat="43.2419783" lon="12.8156283"><ele>1300.0</ele><time>2026-04-18T11:12:35.031Z</time></trkpt><trkpt lat="43.2420583" lon="12.815695"><ele>1300.0</ele><time>2026-04-18T11:12:36.031Z</time></trkpt><trkpt lat="43.2421433" lon="12.8157683"><ele>1300.0</ele><time>2026-04-18T11:12:37.031Z</time></trkpt><trkpt lat="43.24223" lon="12.8158517"><ele>1299.0</ele><time>2026-04-18T11:12:38.032Z</time></trkpt><trkpt lat="43.242315" lon="12.815915"><ele>1298.0</ele><time>2026-04-18T11:12:39.031Z</time></trkpt><trkpt lat="43.24241" lon="12.8159767"><ele>1297.0</ele><time>2026-04-18T11:12:40.031Z</time></trkpt><trkpt lat="43.242495" lon="12.8160267"><ele>1296.0</ele><time>2026-04-18T11:12:41.031Z</time></trkpt><trkpt lat="43.242575" lon="12.816085"><ele>1295.0</ele><time>2026-04-18T11:12:42.031Z</time></trkpt><trkpt lat="43.24267" lon="12.8161367"><ele>1295.0</ele><time>2026-04-18T11:12:43.031Z</time></trkpt><trkpt lat="43.2427633" lon="12.8161983"><ele>1295.0</ele><time>2026-04-18T11:12:44.032Z</time></trkpt><trkpt lat="43.24285" lon="12.8162667"><ele>1295.0</ele><time>2026-04-18T11:12:45.032Z</time></trkpt><trkpt lat="43.24293" lon="12.8163417"><ele>1295.0</ele><time>2026-04-18T11:12:46.031Z</time></trkpt><trkpt lat="43.242995" lon="12.816425"><ele>1295.0</ele><time>2026-04-18T11:12:47.031Z</time></trkpt><trkpt lat="43.2430583" lon="12.8165067"><ele>1295.0</ele><time>2026-04-18T11:12:48.031Z</time></trkpt><trkpt lat="43.24311" lon="12.8165783"><ele>1295.0</ele><time>2026-04-18T11:12:49.031Z</time></trkpt><trkpt lat="43.2431617" lon="12.816635"><ele>1295.0</ele><time>2026-04-18T11:12:50.031Z</time></trkpt><trkpt lat="43.2432567" lon="12.816655"><ele>1295.0</ele><time>2026-04-18T11:12:52.031Z</time></trkpt><trkpt lat="43.24332" lon="12.8165567"><ele>1295.0</ele><time>2026-04-18T11:12:54.031Z</time></trkpt><trkpt lat="43.24329" lon="12.8163933"><ele>1295.0</ele><time>2026-04-18T11:12:56.031Z</time></trkpt><trkpt lat="43.2432383" lon="12.8163133"><ele>1295.0</ele><time>2026-04-18T11:12:57.032Z</time></trkpt><trkpt lat="43.24318" lon="12.81622"><ele>1295.0</ele><time>2026-04-18T11:12:58.031Z</time></trkpt><trkpt lat="43.2431067" lon="12.81612"><ele>1295.0</ele><time>2026-04-18T11:12:59.032Z</time></trkpt><trkpt lat="43.2430333" lon="12.8160217"><ele>1295.0</ele><time>2026-04-18T11:13:00.031Z</time></trkpt><trkpt lat="43.2429583" lon="12.8159267"><ele>1290.2</ele><time>2026-04-18T11:13:01.032Z</time></trkpt><trkpt lat="43.24289" lon="12.81583"><ele>1285.4</ele><time>2026-04-18T11:13:02.032Z</time></trkpt><trkpt lat="43.2428167" lon="12.8157267"><ele>1280.6</ele><time>2026-04-18T11:13:03.031Z</time></trkpt><trkpt lat="43.24274" lon="12.8156233"><ele>1275.8</ele><time>2026-04-18T11:13:04.031Z</time></trkpt><trkpt lat="43.2426633" lon="12.8155183"><ele>1271.0</ele><time>2026-04-18T11:13:05.031Z</time></trkpt><trkpt lat="43.2425883" lon="12.8154183"><ele>1271.0</ele><time>2026-04-18T11:13:06.032Z</time></trkpt><trkpt lat="43.2425217" lon="12.8153283"><ele>1271.0</ele><time>2026-04-18T11:13:07.031Z</time></trkpt><trkpt lat="43.2424617" lon="12.8152417"><ele>1271.0</ele><time>2026-04-18T11:13:08.031Z</time></trkpt><trkpt lat="43.242405" lon="12.815155"><ele>1271.0</ele><time>2026-04-18T11:13:09.031Z</time></trkpt><trkpt lat="43.24236" lon="12.8150667"><ele>1271.0</ele><time>2026-04-18T11:13:10.031Z</time></trkpt><trkpt lat="43.2423283" lon="12.8149717"><ele>1271.0</ele><time>2026-04-18T11:13:11.031Z</time></trkpt><trkpt lat="43.242325" lon="12.81488"><ele>1267.0</ele><time>2026-04-18T11:13:12.031Z</time></trkpt><trkpt lat="43.2423433" lon="12.8147933"><ele>1263.0</ele><time>2026-04-18T11:13:13.031Z</time></trkpt><trkpt lat="43.242375" lon="12.8147017"><ele>1259.0</ele><time>2026-04-18T11:13:14.031Z</time></trkpt><trkpt lat="43.242425" lon="12.8146083"><ele>1255.0</ele><time>2026-04-18T11:13:15.031Z</time></trkpt><trkpt lat="43.2424967" lon="12.8145233"><ele>1251.0</ele><time>2026-04-18T11:13:16.031Z</time></trkpt><trkpt lat="43.2425583" lon="12.8144383"><ele>1247.0</ele><time>2026-04-18T11:13:17.031Z</time></trkpt><trkpt lat="43.24262" lon="12.8143517"><ele>1247.6</ele><time>2026-04-18T11:13:18.031Z</time></trkpt><trkpt lat="43.24269" lon="12.8142617"><ele>1248.2</ele><time>2026-04-18T11:13:19.031Z</time></trkpt><trkpt lat="43.2427533" lon="12.814175"><ele>1248.8</ele><time>2026-04-18T11:13:20.032Z</time></trkpt><trkpt lat="43.2428183" lon="12.8140867"><ele>1249.4</ele><time>2026-04-18T11:13:21.031Z</time></trkpt><trkpt lat="43.2428833" lon="12.8139833"><ele>1250.0</ele><time>2026-04-18T11:13:22.032Z</time></trkpt><trkpt lat="43.2429433" lon="12.813875"><ele>1250.0</ele><time>2026-04-18T11:13:23.031Z</time></trkpt><trkpt lat="43.243005" lon="12.8137683"><ele>1250.0</ele><time>2026-04-18T11:13:24.031Z</time></trkpt><trkpt lat="43.2430617" lon="12.81366"><ele>1250.0</ele><time>2026-04-18T11:13:25.031Z</time></trkpt><trkpt lat="43.2431117" lon="12.8135567"><ele>1250.0</ele><time>2026-04-18T11:13:26.031Z</time></trkpt><trkpt lat="43.24316" lon="12.813455"><ele>1250.0</ele><time>2026-04-18T11:13:27.031Z</time></trkpt><trkpt lat="43.2432017" lon="12.81335"><ele>1245.4</ele><time>2026-04-18T11:13:28.032Z</time></trkpt><trkpt lat="43.2432433" lon="12.8132417"><ele>1240.8</ele><time>2026-04-18T11:13:29.032Z</time></trkpt><trkpt lat="43.2432883" lon="12.81313"><ele>1236.2</ele><time>2026-04-18T11:13:30.032Z</time></trkpt><trkpt lat="43.2433267" lon="12.813015"><ele>1231.6</ele><time>2026-04-18T11:13:31.03Z</time></trkpt><trkpt lat="43.2433817" lon="12.8129083"><ele>1227.0</ele><time>2026-04-18T11:13:32.03Z</time></trkpt><trkpt lat="43.2434483" lon="12.8128017"><ele>1227.0</ele><time>2026-04-18T11:13:33.03Z</time></trkpt><trkpt lat="43.243525" lon="12.8127083"><ele>1227.0</ele><time>2026-04-18T11:13:34.03Z</time></trkpt><trkpt lat="43.2436083" lon="12.8126283"><ele>1227.0</ele><time>2026-04-18T11:13:35.031Z</time></trkpt><trkpt lat="43.2436867" lon="12.8125483"><ele>1227.0</ele><time>2026-04-18T11:13:36.03Z</time></trkpt><trkpt lat="43.24376" lon="12.812475"><ele>1227.0</ele><time>2026-04-18T11:13:37.03Z</time></trkpt><trkpt lat="43.2438383" lon="12.812405"><ele>1229.8</ele><time>2026-04-18T11:13:38.03Z</time></trkpt><trkpt lat="43.243915" lon="12.8123333"><ele>1232.6</ele><time>2026-04-18T11:13:39.03Z</time></trkpt><trkpt lat="43.2439933" lon="12.812265"><ele>1235.3999999999999</ele><time>2026-04-18T11:13:40.03Z</time></trkpt><trkpt lat="43.244075" lon="12.8121933"><ele>1238.2</ele><time>2026-04-18T11:13:41.03Z</time></trkpt><trkpt lat="43.2441567" lon="12.8121233"><ele>1241.0</ele><time>2026-04-18T11:13:42.031Z</time></trkpt><trkpt lat="43.2442367" lon="12.8120567"><ele>1238.2</ele><time>2026-04-18T11:13:43.03Z</time></trkpt><trkpt lat="43.2443117" lon="12.81199"><ele>1235.3999999999999</ele><time>2026-04-18T11:13:44.031Z</time></trkpt><trkpt lat="43.2443917" lon="12.8119167"><ele>1232.6</ele><time>2026-04-18T11:13:45.03Z</time></trkpt><trkpt lat="43.244475" lon="12.81184"><ele>1229.8</ele><time>2026-04-18T11:13:46.03Z</time></trkpt><trkpt lat="43.2445533" lon="12.8117683"><ele>1227.0</ele><time>2026-04-18T11:13:47.03Z</time></trkpt><trkpt lat="43.2446333" lon="12.8117"><ele>1227.0</ele><time>2026-04-18T11:13:48.031Z</time></trkpt><trkpt lat="43.2447133" lon="12.8116267"><ele>1227.0</ele><time>2026-04-18T11:13:49.03Z</time></trkpt><trkpt lat="43.2448033" lon="12.81154"><ele>1227.0</ele><time>2026-04-18T11:13:50.03Z</time></trkpt><trkpt lat="43.2448917" lon="12.8114617"><ele>1227.0</ele><time>2026-04-18T11:13:51.03Z</time></trkpt><trkpt lat="43.24497" lon="12.8113833"><ele>1227.0</ele><time>2026-04-18T11:13:52.031Z</time></trkpt><trkpt lat="43.2450383" lon="12.8112917"><ele>1222.0</ele><time>2026-04-18T11:13:53.031Z</time></trkpt><trkpt lat="43.2450683" lon="12.811205"><ele>1217.0</ele><time>2026-04-18T11:13:54.03Z</time></trkpt><trkpt lat="43.2451183" lon="12.8110767"><ele>1212.0</ele><time>2026-04-18T11:13:55.031Z</time></trkpt><trkpt lat="43.2451517" lon="12.81095"><ele>1207.0</ele><time>2026-04-18T11:13:56.03Z</time></trkpt><trkpt lat="43.2451717" lon="12.81082"><ele>1202.0</ele><time>2026-04-18T11:13:57.03Z</time></trkpt><trkpt lat="43.2451733" lon="12.8106933"><ele>1202.0</ele><time>2026-04-18T11:13:58.03Z</time></trkpt><trkpt lat="43.24517" lon="12.8105683"><ele>1202.0</ele><time>2026-04-18T11:13:59.03Z</time></trkpt><trkpt lat="43.245165" lon="12.8104433"><ele>1202.0</ele><time>2026-04-18T11:14:00.03Z</time></trkpt><trkpt lat="43.2451567" lon="12.8103167"><ele>1202.0</ele><time>2026-04-18T11:14:01.03Z</time></trkpt><trkpt lat="43.2451367" lon="12.8101983"><ele>1202.0</ele><time>2026-04-18T11:14:02.03Z</time></trkpt><trkpt lat="43.2451167" lon="12.8100733"><ele>1200.4</ele><time>2026-04-18T11:14:03.03Z</time></trkpt><trkpt lat="43.245095" lon="12.809945"><ele>1198.8000000000002</ele><time>2026-04-18T11:14:04.03Z</time></trkpt><trkpt lat="43.2450767" lon="12.8098233"><ele>1197.2</ele><time>2026-04-18T11:14:05.03Z</time></trkpt><trkpt lat="43.2450567" lon="12.8096967"><ele>1195.6000000000001</ele><time>2026-04-18T11:14:06.03Z</time></trkpt><trkpt lat="43.24504" lon="12.8095683"><ele>1194.0</ele><time>2026-04-18T11:14:07.03Z</time></trkpt><trkpt lat="43.2450267" lon="12.8094383"><ele>1191.6000000000001</ele><time>2026-04-18T11:14:08.03Z</time></trkpt><trkpt lat="43.2450033" lon="12.8093167"><ele>1189.2</ele><time>2026-04-18T11:14:09.03Z</time></trkpt><trkpt lat="43.2449783" lon="12.8091833"><ele>1186.8000000000002</ele><time>2026-04-18T11:14:10.031Z</time></trkpt><trkpt lat="43.2449583" lon="12.80905"><ele>1184.4</ele><time>2026-04-18T11:14:11.03Z</time></trkpt><trkpt lat="43.2449333" lon="12.8089183"><ele>1182.0</ele><time>2026-04-18T11:14:12.03Z</time></trkpt><trkpt lat="43.2449083" lon="12.8087883"><ele>1182.0</ele><time>2026-04-18T11:14:13.03Z</time></trkpt><trkpt lat="43.2448817" lon="12.80866"><ele>1182.0</ele><time>2026-04-18T11:14:14.03Z</time></trkpt><trkpt lat="43.2448633" lon="12.8085367"><ele>1182.0</ele><time>2026-04-18T11:14:15.03Z</time></trkpt><trkpt lat="43.2448483" lon="12.808405"><ele>1182.0</ele><time>2026-04-18T11:14:16.031Z</time></trkpt><trkpt lat="43.24483" lon="12.8082767"><ele>1182.0</ele><time>2026-04-18T11:14:17.03Z</time></trkpt><trkpt lat="43.244815" lon="12.8081517"><ele>1181.0</ele><time>2026-04-18T11:14:18.03Z</time></trkpt><trkpt lat="43.2448067" lon="12.808025"><ele>1180.0</ele><time>2026-04-18T11:14:19.03Z</time></trkpt><trkpt lat="43.244815" lon="12.8079017"><ele>1179.0</ele><time>2026-04-18T11:14:20.03Z</time></trkpt><trkpt lat="43.24484" lon="12.8077883"><ele>1178.0</ele><time>2026-04-18T11:14:21.03Z</time></trkpt><trkpt lat="43.24487" lon="12.80767"><ele>1177.0</ele><time>2026-04-18T11:14:22.03Z</time></trkpt><trkpt lat="43.2449033" lon="12.80756"><ele>1176.0</ele><time>2026-04-18T11:14:23.03Z</time></trkpt><trkpt lat="43.2449333" lon="12.8074467"><ele>1176.0</ele><time>2026-04-18T11:14:24.03Z</time></trkpt><trkpt lat="43.2449617" lon="12.807335"><ele>1176.0</ele><time>2026-04-18T11:14:25.03Z</time></trkpt><trkpt lat="43.2449883" lon="12.8072217"><ele>1176.0</ele><time>2026-04-18T11:14:26.03Z</time></trkpt><trkpt lat="43.2450117" lon="12.80711"><ele>1176.0</ele><time>2026-04-18T11:14:27.03Z</time></trkpt><trkpt lat="43.2450283" lon="12.8070083"><ele>1176.0</ele><time>2026-04-18T11:14:28.03Z</time></trkpt><trkpt lat="43.2450383" lon="12.8069067"><ele>1176.0</ele><time>2026-04-18T11:14:29.03Z</time></trkpt><trkpt lat="43.2450267" lon="12.806805"><ele>1175.0</ele><time>2026-04-18T11:14:30.03Z</time></trkpt><trkpt lat="43.2449983" lon="12.8067017"><ele>1174.0</ele><time>2026-04-18T11:14:31.03Z</time></trkpt><trkpt lat="43.2449533" lon="12.8066117"><ele>1173.0</ele><time>2026-04-18T11:14:32.031Z</time></trkpt><trkpt lat="43.244895" lon="12.806535"><ele>1172.0</ele><time>2026-04-18T11:14:33.03Z</time></trkpt><trkpt lat="43.2448283" lon="12.8064633"><ele>1171.0</ele><time>2026-04-18T11:14:34.03Z</time></trkpt><trkpt lat="43.244755" lon="12.8063917"><ele>1170.0</ele><time>2026-04-18T11:14:35.03Z</time></trkpt><trkpt lat="43.2446767" lon="12.8063217"><ele>1170.0</ele><time>2026-04-18T11:14:36.03Z</time></trkpt><trkpt lat="43.2445933" lon="12.806265"><ele>1170.0</ele><time>2026-04-18T11:14:37.03Z</time></trkpt><trkpt lat="43.2445067" lon="12.8062167"><ele>1170.0</ele><time>2026-04-18T11:14:38.03Z</time></trkpt><trkpt lat="43.2444233" lon="12.80616"><ele>1170.0</ele><time>2026-04-18T11:14:39.03Z</time></trkpt><trkpt lat="43.2443417" lon="12.8061033"><ele>1170.0</ele><time>2026-04-18T11:14:40.03Z</time></trkpt><trkpt lat="43.2442567" lon="12.8060467"><ele>1167.0</ele><time>2026-04-18T11:14:41.03Z</time></trkpt><trkpt lat="43.2441717" lon="12.8059833"><ele>1164.0</ele><time>2026-04-18T11:14:42.03Z</time></trkpt><trkpt lat="43.2440833" lon="12.8059367"><ele>1161.0</ele><time>2026-04-18T11:14:43.03Z</time></trkpt><trkpt lat="43.2439933" lon="12.8058867"><ele>1158.0</ele><time>2026-04-18T11:14:44.03Z</time></trkpt><trkpt lat="43.2439067" lon="12.80584"><ele>1155.0</ele><time>2026-04-18T11:14:45.03Z</time></trkpt><trkpt lat="43.243815" lon="12.8058"><ele>1154.0</ele><time>2026-04-18T11:14:46.03Z</time></trkpt><trkpt lat="43.2437233" lon="12.8057733"><ele>1153.0</ele><time>2026-04-18T11:14:47.03Z</time></trkpt><trkpt lat="43.24363" lon="12.8057517"><ele>1152.0</ele><time>2026-04-18T11:14:48.031Z</time></trkpt><trkpt lat="43.24354" lon="12.80573"><ele>1151.0</ele><time>2026-04-18T11:14:49.03Z</time></trkpt><trkpt lat="43.2434467" lon="12.8057083"><ele>1150.0</ele><time>2026-04-18T11:14:50.03Z</time></trkpt><trkpt lat="43.243355" lon="12.8056883"><ele>1150.0</ele><time>2026-04-18T11:14:51.03Z</time></trkpt><trkpt lat="43.2432617" lon="12.8056833"><ele>1150.0</ele><time>2026-04-18T11:14:52.03Z</time></trkpt><trkpt lat="43.2431733" lon="12.80569"><ele>1150.0</ele><time>2026-04-18T11:14:53.03Z</time></trkpt><trkpt lat="43.2430833" lon="12.8057017"><ele>1150.0</ele><time>2026-04-18T11:14:54.03Z</time></trkpt><trkpt lat="43.242995" lon="12.80573"><ele>1150.0</ele><time>2026-04-18T11:14:55.03Z</time></trkpt><trkpt lat="43.242915" lon="12.8057717"><ele>1150.0</ele><time>2026-04-18T11:14:56.03Z</time></trkpt><trkpt lat="43.2428367" lon="12.8058233"><ele>1148.4</ele><time>2026-04-18T11:14:57.031Z</time></trkpt><trkpt lat="43.242765" lon="12.80587"><ele>1146.8</ele><time>2026-04-18T11:14:58.03Z</time></trkpt><trkpt lat="43.2427" lon="12.805915"><ele>1145.2</ele><time>2026-04-18T11:14:59.03Z</time></trkpt><trkpt lat="43.2426317" lon="12.8059467"><ele>1143.6</ele><time>2026-04-18T11:15:00.03Z</time></trkpt><trkpt lat="43.24252" lon="12.805945"><ele>1142.0</ele><time>2026-04-18T11:15:02.03Z</time></trkpt><trkpt lat="43.2424583" lon="12.805805"><ele>1142.0</ele><time>2026-04-18T11:15:04.03Z</time></trkpt><trkpt lat="43.24247" lon="12.8057067"><ele>1142.0</ele><time>2026-04-18T11:15:05.03Z</time></trkpt><trkpt lat="43.2425083" lon="12.8056183"><ele>1142.0</ele><time>2026-04-18T11:15:06.03Z</time></trkpt><trkpt lat="43.2425733" lon="12.80554"><ele>1142.0</ele><time>2026-04-18T11:15:07.03Z</time></trkpt><trkpt lat="43.2426533" lon="12.8054583"><ele>1142.0</ele><time>2026-04-18T11:15:08.03Z</time></trkpt><trkpt lat="43.2427433" lon="12.8053783"><ele>1142.0</ele><time>2026-04-18T11:15:09.031Z</time></trkpt><trkpt lat="43.2428317" lon="12.8053"><ele>1142.0</ele><time>2026-04-18T11:15:10.03Z</time></trkpt><trkpt lat="43.242925" lon="12.805225"><ele>1142.0</ele><time>2026-04-18T11:15:11.03Z</time></trkpt><trkpt lat="43.2430233" lon="12.8051583"><ele>1142.0</ele><time>2026-04-18T11:15:12.03Z</time></trkpt><trkpt lat="43.2431233" lon="12.80509"><ele>1142.0</ele><time>2026-04-18T11:15:13.031Z</time></trkpt><trkpt lat="43.2432233" lon="12.80502"><ele>1142.0</ele><time>2026-04-18T11:15:14.03Z</time></trkpt><trkpt lat="43.2433217" lon="12.8049633"><ele>1140.8</ele><time>2026-04-18T11:15:15.03Z</time></trkpt><trkpt lat="43.24342" lon="12.8049"><ele>1139.6</ele><time>2026-04-18T11:15:16.03Z</time></trkpt><trkpt lat="43.243515" lon="12.8048417"><ele>1138.3999999999999</ele><time>2026-04-18T11:15:17.03Z</time></trkpt><trkpt lat="43.2436167" lon="12.80478"><ele>1137.2</ele><time>2026-04-18T11:15:18.031Z</time></trkpt><trkpt lat="43.2437233" lon="12.8047217"><ele>1136.0</ele><time>2026-04-18T11:15:19.03Z</time></trkpt><trkpt lat="43.24383" lon="12.8046667"><ele>1136.0</ele><time>2026-04-18T11:15:20.03Z</time></trkpt><trkpt lat="43.2439383" lon="12.804615"><ele>1136.0</ele><time>2026-04-18T11:15:21.031Z</time></trkpt><trkpt lat="43.244045" lon="12.804565"><ele>1136.0</ele><time>2026-04-18T11:15:22.03Z</time></trkpt><trkpt lat="43.24415" lon="12.804505"><ele>1136.0</ele><time>2026-04-18T11:15:23.03Z</time></trkpt><trkpt lat="43.244255" lon="12.804445"><ele>1136.3999999999999</ele><time>2026-04-18T11:15:24.03Z</time></trkpt><trkpt lat="43.24436" lon="12.80439"><ele>1136.8</ele><time>2026-04-18T11:15:25.03Z</time></trkpt><trkpt lat="43.2444633" lon="12.8043317"><ele>1137.1999999999998</ele><time>2026-04-18T11:15:26.03Z</time></trkpt><trkpt lat="43.2445683" lon="12.80428"><ele>1137.6</ele><time>2026-04-18T11:15:27.03Z</time></trkpt><trkpt lat="43.2446683" lon="12.804225"><ele>1138.0</ele><time>2026-04-18T11:15:28.03Z</time></trkpt><trkpt lat="43.24477" lon="12.80418"><ele>1135.2</ele><time>2026-04-18T11:15:29.03Z</time></trkpt><trkpt lat="43.2448683" lon="12.8041367"><ele>1132.4</ele><time>2026-04-18T11:15:30.031Z</time></trkpt><trkpt lat="43.24497" lon="12.8041017"><ele>1129.6000000000001</ele><time>2026-04-18T11:15:31.031Z</time></trkpt><trkpt lat="43.245075" lon="12.8040633"><ele>1126.8</ele><time>2026-04-18T11:15:32.03Z</time></trkpt><trkpt lat="43.24518" lon="12.8040267"><ele>1124.0</ele><time>2026-04-18T11:15:33.03Z</time></trkpt><trkpt lat="43.2452883" lon="12.80399"><ele>1124.0</ele><time>2026-04-18T11:15:34.03Z</time></trkpt><trkpt lat="43.24539" lon="12.8039467"><ele>1124.0</ele><time>2026-04-18T11:15:35.03Z</time></trkpt><trkpt lat="43.2454967" lon="12.8039033"><ele>1124.0</ele><time>2026-04-18T11:15:36.03Z</time></trkpt><trkpt lat="43.2456033" lon="12.8038617"><ele>1124.0</ele><time>2026-04-18T11:15:37.03Z</time></trkpt><trkpt lat="43.2457017" lon="12.8038283"><ele>1124.0</ele><time>2026-04-18T11:15:38.03Z</time></trkpt><trkpt lat="43.245805" lon="12.803795"><ele>1125.4</ele><time>2026-04-18T11:15:39.031Z</time></trkpt><trkpt lat="43.24591" lon="12.80376"><ele>1126.8000000000002</ele><time>2026-04-18T11:15:40.03Z</time></trkpt><trkpt lat="43.2460133" lon="12.8037267"><ele>1128.1999999999998</ele><time>2026-04-18T11:15:41.03Z</time></trkpt><trkpt lat="43.2461133" lon="12.8036933"><ele>1129.6</ele><time>2026-04-18T11:15:42.03Z</time></trkpt><trkpt lat="43.2462183" lon="12.8036617"><ele>1131.0</ele><time>2026-04-18T11:15:43.031Z</time></trkpt><trkpt lat="43.246325" lon="12.8036317"><ele>1131.0</ele><time>2026-04-18T11:15:44.03Z</time></trkpt><trkpt lat="43.24643" lon="12.803605"><ele>1131.0</ele><time>2026-04-18T11:15:45.031Z</time></trkpt><trkpt lat="43.2465383" lon="12.8035867"><ele>1131.0</ele><time>2026-04-18T11:15:46.03Z</time></trkpt><trkpt lat="43.2466483" lon="12.8035733"><ele>1131.0</ele><time>2026-04-18T11:15:47.031Z</time></trkpt><trkpt lat="43.2467617" lon="12.80357"><ele>1131.0</ele><time>2026-04-18T11:15:48.03Z</time></trkpt><trkpt lat="43.24687" lon="12.803565"><ele>1131.2</ele><time>2026-04-18T11:15:49.03Z</time></trkpt><trkpt lat="43.246985" lon="12.80355"><ele>1131.3999999999999</ele><time>2026-04-18T11:15:50.03Z</time></trkpt><trkpt lat="43.2470983" lon="12.8035483"><ele>1131.6</ele><time>2026-04-18T11:15:51.03Z</time></trkpt><trkpt lat="43.2472017" lon="12.80356"><ele>1131.8</ele><time>2026-04-18T11:15:52.03Z</time></trkpt><trkpt lat="43.2473083" lon="12.803565"><ele>1132.0</ele><time>2026-04-18T11:15:53.03Z</time></trkpt><trkpt lat="43.2474183" lon="12.803565"><ele>1130.0</ele><time>2026-04-18T11:15:54.03Z</time></trkpt><trkpt lat="43.2475367" lon="12.8035733"><ele>1128.0</ele><time>2026-04-18T11:15:55.03Z</time></trkpt><trkpt lat="43.2476517" lon="12.8035867"><ele>1126.0</ele><time>2026-04-18T11:15:56.03Z</time></trkpt><trkpt lat="43.2477667" lon="12.8036033"><ele>1124.0</ele><time>2026-04-18T11:15:57.03Z</time></trkpt><trkpt lat="43.247885" lon="12.8036167"><ele>1124.0</ele><time>2026-04-18T11:15:58.03Z</time></trkpt><trkpt lat="43.247995" lon="12.80363"><ele>1124.0</ele><time>2026-04-18T11:15:59.031Z</time></trkpt><trkpt lat="43.2481117" lon="12.8036517"><ele>1124.0</ele><time>2026-04-18T11:16:00.031Z</time></trkpt><trkpt lat="43.2482233" lon="12.8036733"><ele>1124.0</ele><time>2026-04-18T11:16:01.031Z</time></trkpt><trkpt lat="43.2483383" lon="12.803695"><ele>1121.8</ele><time>2026-04-18T11:16:02.03Z</time></trkpt><trkpt lat="43.24845" lon="12.803715"><ele>1119.6000000000001</ele><time>2026-04-18T11:16:03.03Z</time></trkpt><trkpt lat="43.2485617" lon="12.8037317"><ele>1117.4</ele><time>2026-04-18T11:16:04.03Z</time></trkpt><trkpt lat="43.2486717" lon="12.803745"><ele>1115.2</ele><time>2026-04-18T11:16:05.03Z</time></trkpt><trkpt lat="43.2487817" lon="12.80376"><ele>1113.0</ele><time>2026-04-18T11:16:06.03Z</time></trkpt><trkpt lat="43.248895" lon="12.803785"><ele>1110.5</ele><time>2026-04-18T11:16:07.03Z</time></trkpt><trkpt lat="43.249015" lon="12.8038083"><ele>1108.0</ele><time>2026-04-18T11:16:08.03Z</time></trkpt><trkpt lat="43.24913" lon="12.8038383"><ele>1105.5</ele><time>2026-04-18T11:16:09.03Z</time></trkpt><trkpt lat="43.2492433" lon="12.8038717"><ele>1103.0</ele><time>2026-04-18T11:16:10.03Z</time></trkpt><trkpt lat="43.2493517" lon="12.8039133"><ele>1103.0</ele><time>2026-04-18T11:16:11.03Z</time></trkpt><trkpt lat="43.2494617" lon="12.8039583"><ele>1103.0</ele><time>2026-04-18T11:16:12.03Z</time></trkpt><trkpt lat="43.2495667" lon="12.8040083"><ele>1103.0</ele><time>2026-04-18T11:16:13.03Z</time></trkpt><trkpt lat="43.249675" lon="12.804065"><ele>1103.0</ele><time>2026-04-18T11:16:14.03Z</time></trkpt><trkpt lat="43.24978" lon="12.8041317"><ele>1103.6</ele><time>2026-04-18T11:16:15.03Z</time></trkpt><trkpt lat="43.249875" lon="12.8041983"><ele>1104.1999999999998</ele><time>2026-04-18T11:16:16.03Z</time></trkpt><trkpt lat="43.24998" lon="12.8042667"><ele>1104.8</ele><time>2026-04-18T11:16:17.03Z</time></trkpt><trkpt lat="43.2500817" lon="12.8043283"><ele>1105.3999999999999</ele><time>2026-04-18T11:16:18.03Z</time></trkpt><trkpt lat="43.25018" lon="12.8043967"><ele>1106.0</ele><time>2026-04-18T11:16:19.03Z</time></trkpt><trkpt lat="43.2502767" lon="12.8044567"><ele>1106.0</ele><time>2026-04-18T11:16:20.03Z</time></trkpt><trkpt lat="43.2503667" lon="12.80452"><ele>1106.0</ele><time>2026-04-18T11:16:21.03Z</time></trkpt><trkpt lat="43.25045" lon="12.8045717"><ele>1106.0</ele><time>2026-04-18T11:16:22.03Z</time></trkpt><trkpt lat="43.2505183" lon="12.80463"><ele>1106.0</ele><time>2026-04-18T11:16:23.03Z</time></trkpt><trkpt lat="43.2505817" lon="12.8046967"><ele>1106.0</ele><time>2026-04-18T11:16:24.03Z</time></trkpt><trkpt lat="43.250635" lon="12.8047817"><ele>1106.0</ele><time>2026-04-18T11:16:25.031Z</time></trkpt><trkpt lat="43.2506783" lon="12.8048817"><ele>1104.8</ele><time>2026-04-18T11:16:26.031Z</time></trkpt><trkpt lat="43.2507233" lon="12.8049983"><ele>1103.6</ele><time>2026-04-18T11:16:27.03Z</time></trkpt><trkpt lat="43.2507733" lon="12.8051267"><ele>1102.4</ele><time>2026-04-18T11:16:28.031Z</time></trkpt><trkpt lat="43.25083" lon="12.80527"><ele>1101.2</ele><time>2026-04-18T11:16:29.03Z</time></trkpt><trkpt lat="43.250895" lon="12.8054217"><ele>1100.0</ele><time>2026-04-18T11:16:30.03Z</time></trkpt><trkpt lat="43.2509717" lon="12.8056017"><ele>1100.0</ele><time>2026-04-18T11:16:31.03Z</time></trkpt><trkpt lat="43.2510517" lon="12.805775"><ele>1100.0</ele><time>2026-04-18T11:16:32.03Z</time></trkpt><trkpt lat="43.2511233" lon="12.80594"><ele>1100.0</ele><time>2026-04-18T11:16:33.03Z</time></trkpt><trkpt lat="43.2511917" lon="12.8060983"><ele>1100.0</ele><time>2026-04-18T11:16:34.031Z</time></trkpt><trkpt lat="43.251255" lon="12.8062567"><ele>1103.25</ele><time>2026-04-18T11:16:35.03Z</time></trkpt><trkpt lat="43.2513167" lon="12.80641"><ele>1106.5</ele><time>2026-04-18T11:16:36.03Z</time></trkpt><trkpt lat="43.2513867" lon="12.80656"><ele>1109.75</ele><time>2026-04-18T11:16:37.03Z</time></trkpt><trkpt lat="43.2514567" lon="12.8067133"><ele>1113.0</ele><time>2026-04-18T11:16:38.03Z</time></trkpt><trkpt lat="43.25153" lon="12.8068617"><ele>1105.75</ele><time>2026-04-18T11:16:39.03Z</time></trkpt><trkpt lat="43.2516033" lon="12.8070117"><ele>1098.5</ele><time>2026-04-18T11:16:40.03Z</time></trkpt><trkpt lat="43.2516683" lon="12.8071633"><ele>1091.25</ele><time>2026-04-18T11:16:41.031Z</time></trkpt><trkpt lat="43.251745" lon="12.8073033"><ele>1084.0</ele><time>2026-04-18T11:16:42.03Z</time></trkpt><trkpt lat="43.2518217" lon="12.8074433"><ele>1084.0</ele><time>2026-04-18T11:16:43.03Z</time></trkpt><trkpt lat="43.2518933" lon="12.8075783"><ele>1084.0</ele><time>2026-04-18T11:16:44.03Z</time></trkpt><trkpt lat="43.2519667" lon="12.8077133"><ele>1084.0</ele><time>2026-04-18T11:16:45.03Z</time></trkpt><trkpt lat="43.25204" lon="12.8078433"><ele>1084.0</ele><time>2026-04-18T11:16:46.03Z</time></trkpt><trkpt lat="43.2521117" lon="12.8079717"><ele>1083.5</ele><time>2026-04-18T11:16:47.03Z</time></trkpt><trkpt lat="43.2521733" lon="12.8081033"><ele>1083.0</ele><time>2026-04-18T11:16:48.03Z</time></trkpt><trkpt lat="43.2522333" lon="12.8082383"><ele>1082.5</ele><time>2026-04-18T11:16:49.031Z</time></trkpt><trkpt lat="43.2522983" lon="12.80837"><ele>1082.0</ele><time>2026-04-18T11:16:50.03Z</time></trkpt><trkpt lat="43.2523633" lon="12.8085083"><ele>1079.5</ele><time>2026-04-18T11:16:51.03Z</time></trkpt><trkpt lat="43.252425" lon="12.808645"><ele>1077.0</ele><time>2026-04-18T11:16:52.031Z</time></trkpt><trkpt lat="43.252495" lon="12.8087783"><ele>1074.5</ele><time>2026-04-18T11:16:53.03Z</time></trkpt><trkpt lat="43.2525633" lon="12.8089133"><ele>1072.0</ele><time>2026-04-18T11:16:54.031Z</time></trkpt><trkpt lat="43.2526267" lon="12.80904"><ele>1072.0</ele><time>2026-04-18T11:16:55.03Z</time></trkpt><trkpt lat="43.252685" lon="12.8091717"><ele>1072.0</ele><time>2026-04-18T11:16:56.03Z</time></trkpt><trkpt lat="43.2527383" lon="12.809305"><ele>1072.0</ele><time>2026-04-18T11:16:57.03Z</time></trkpt><trkpt lat="43.2527867" lon="12.8094333"><ele>1072.0</ele><time>2026-04-18T11:16:58.03Z</time></trkpt><trkpt lat="43.252835" lon="12.80957"><ele>1072.0</ele><time>2026-04-18T11:16:59.031Z</time></trkpt><trkpt lat="43.2528833" lon="12.809705"><ele>1071.5</ele><time>2026-04-18T11:17:00.03Z</time></trkpt><trkpt lat="43.2529383" lon="12.80984"><ele>1071.0</ele><time>2026-04-18T11:17:01.03Z</time></trkpt><trkpt lat="43.253" lon="12.8099817"><ele>1070.5</ele><time>2026-04-18T11:17:02.03Z</time></trkpt><trkpt lat="43.2530633" lon="12.810115"><ele>1070.0</ele><time>2026-04-18T11:17:03.03Z</time></trkpt><trkpt lat="43.25313" lon="12.8102383"><ele>1070.0</ele><time>2026-04-18T11:17:04.031Z</time></trkpt><trkpt lat="43.2532083" lon="12.81035"><ele>1070.0</ele><time>2026-04-18T11:17:05.03Z</time></trkpt><trkpt lat="43.2532967" lon="12.81046"><ele>1070.0</ele><time>2026-04-18T11:17:06.03Z</time></trkpt><trkpt lat="43.2533833" lon="12.8105617"><ele>1070.0</ele><time>2026-04-18T11:17:07.03Z</time></trkpt><trkpt lat="43.2534783" lon="12.8106583"><ele>1070.0</ele><time>2026-04-18T11:17:08.03Z</time></trkpt><trkpt lat="43.2535683" lon="12.810755"><ele>1070.0</ele><time>2026-04-18T11:17:09.03Z</time></trkpt><trkpt lat="43.2536517" lon="12.8108567"><ele>1070.0</ele><time>2026-04-18T11:17:10.03Z</time></trkpt><trkpt lat="43.2537383" lon="12.8109417"><ele>1070.0</ele><time>2026-04-18T11:17:11.03Z</time></trkpt><trkpt lat="43.253825" lon="12.8110433"><ele>1070.0</ele><time>2026-04-18T11:17:12.031Z</time></trkpt><trkpt lat="43.25391" lon="12.8111383"><ele>1067.5</ele><time>2026-04-18T11:17:13.03Z</time></trkpt><trkpt lat="43.2539967" lon="12.8112333"><ele>1065.0</ele><time>2026-04-18T11:17:14.03Z</time></trkpt><trkpt lat="43.2540917" lon="12.81133"><ele>1062.5</ele><time>2026-04-18T11:17:15.03Z</time></trkpt><trkpt lat="43.2541933" lon="12.8114167"><ele>1060.0</ele><time>2026-04-18T11:17:16.03Z</time></trkpt><trkpt lat="43.2543017" lon="12.8115017"><ele>1060.0</ele><time>2026-04-18T11:17:17.03Z</time></trkpt><trkpt lat="43.254405" lon="12.8115867"><ele>1060.0</ele><time>2026-04-18T11:17:18.03Z</time></trkpt><trkpt lat="43.2545033" lon="12.811665"><ele>1060.0</ele><time>2026-04-18T11:17:19.03Z</time></trkpt><trkpt lat="43.2545933" lon="12.8117217"><ele>1060.0</ele><time>2026-04-18T11:17:20.031Z</time></trkpt><trkpt lat="43.2546817" lon="12.8117767"><ele>1060.0</ele><time>2026-04-18T11:17:21.03Z</time></trkpt><trkpt lat="43.2547617" lon="12.8118317"><ele>1057.4285714285713</ele><time>2026-04-18T11:17:22.03Z</time></trkpt><trkpt lat="43.2548383" lon="12.81189"><ele>1054.857142857143</ele><time>2026-04-18T11:17:23.031Z</time></trkpt><trkpt lat="43.25491" lon="12.8119433"><ele>1052.2857142857142</ele><time>2026-04-18T11:17:24.03Z</time></trkpt><trkpt lat="43.2549767" lon="12.8119983"><ele>1049.7142857142858</ele><time>2026-04-18T11:17:25.03Z</time></trkpt><trkpt lat="43.2550317" lon="12.8120533"><ele>1047.142857142857</ele><time>2026-04-18T11:17:26.03Z</time></trkpt><trkpt lat="43.2550867" lon="12.8121067"><ele>1044.5714285714284</ele><time>2026-04-18T11:17:27.03Z</time></trkpt><trkpt lat="43.25514" lon="12.8121567"><ele>1042.0</ele><time>2026-04-18T11:17:28.03Z</time></trkpt><trkpt lat="43.2552" lon="12.8122117"><ele>1042.0</ele><time>2026-04-18T11:17:29.03Z</time></trkpt><trkpt lat="43.2552617" lon="12.812245"><ele>1042.0</ele><time>2026-04-18T11:17:30.03Z</time></trkpt><trkpt lat="43.2553467" lon="12.8122983"><ele>1042.0</ele><time>2026-04-18T11:17:32.03Z</time></trkpt><trkpt lat="43.2554317" lon="12.812285"><ele>1042.0</ele><time>2026-04-18T11:17:34.03Z</time></trkpt><trkpt lat="43.2555017" lon="12.8122683"><ele>1042.0</ele><time>2026-04-18T11:17:36.031Z</time></trkpt><trkpt lat="43.2555783" lon="12.81231"><ele>1042.0</ele><time>2026-04-18T11:17:39.03Z</time></trkpt><trkpt lat="43.2555667" lon="12.8124067"><ele>1042.0</ele><time>2026-04-18T11:17:43.03Z</time></trkpt><trkpt lat="43.2555" lon="12.812385"><ele>1042.0</ele><time>2026-04-18T11:17:46.03Z</time></trkpt><trkpt lat="43.2554233" lon="12.8123567"><ele>1042.0</ele><time>2026-04-18T11:18:51.03Z</time></trkpt><trkpt lat="43.2554733" lon="12.8124617"><ele>1042.0</ele><time>2026-04-18T11:18:56.029Z</time></trkpt><trkpt lat="43.2555383" lon="12.812495"><ele>1042.0</ele><time>2026-04-18T11:18:57.029Z</time></trkpt><trkpt lat="43.255645" lon="12.8125517"><ele>1042.0</ele><time>2026-04-18T11:18:59.03Z</time></trkpt><trkpt lat="43.2557517" lon="12.812635"><ele>1040.0</ele><time>2026-04-18T11:19:01.029Z</time></trkpt><trkpt lat="43.2558133" lon="12.81269"><ele>1038.0</ele><time>2026-04-18T11:19:02.029Z</time></trkpt><trkpt lat="43.25589" lon="12.8127617"><ele>1036.0</ele><time>2026-04-18T11:19:03.029Z</time></trkpt><trkpt lat="43.2559783" lon="12.8128433"><ele>1034.0</ele><time>2026-04-18T11:19:04.029Z</time></trkpt><trkpt lat="43.2560767" lon="12.8129383"><ele>1032.0</ele><time>2026-04-18T11:19:05.029Z</time></trkpt><trkpt lat="43.25617" lon="12.8130383"><ele>1032.0</ele><time>2026-04-18T11:19:06.03Z</time></trkpt><trkpt lat="43.25627" lon="12.8131283"><ele>1032.0</ele><time>2026-04-18T11:19:07.029Z</time></trkpt><trkpt lat="43.256365" lon="12.8132233"><ele>1032.0</ele><time>2026-04-18T11:19:08.029Z</time></trkpt><trkpt lat="43.2564583" lon="12.813325"><ele>1032.0</ele><time>2026-04-18T11:19:09.03Z</time></trkpt><trkpt lat="43.256555" lon="12.8134183"><ele>1030.0</ele><time>2026-04-18T11:19:10.029Z</time></trkpt><trkpt lat="43.2566483" lon="12.8135017"><ele>1028.0</ele><time>2026-04-18T11:19:11.029Z</time></trkpt><trkpt lat="43.2567567" lon="12.8135983"><ele>1026.0</ele><time>2026-04-18T11:19:12.03Z</time></trkpt><trkpt lat="43.2568533" lon="12.8136867"><ele>1024.0</ele><time>2026-04-18T11:19:13.029Z</time></trkpt><trkpt lat="43.2569533" lon="12.8137833"><ele>1024.0</ele><time>2026-04-18T11:19:14.03Z</time></trkpt><trkpt lat="43.2570483" lon="12.8138817"><ele>1024.0</ele><time>2026-04-18T11:19:15.029Z</time></trkpt><trkpt lat="43.2571417" lon="12.81397"><ele>1024.0</ele><time>2026-04-18T11:19:16.03Z</time></trkpt><trkpt lat="43.2572367" lon="12.8140567"><ele>1024.0</ele><time>2026-04-18T11:19:17.029Z</time></trkpt><trkpt lat="43.2573333" lon="12.8141583"><ele>1023.25</ele><time>2026-04-18T11:19:18.03Z</time></trkpt><trkpt lat="43.25743" lon="12.814245"><ele>1022.5</ele><time>2026-04-18T11:19:19.03Z</time></trkpt><trkpt lat="43.257535" lon="12.814325"><ele>1021.75</ele><time>2026-04-18T11:19:20.029Z</time></trkpt><trkpt lat="43.2576267" lon="12.8144183"><ele>1021.0</ele><time>2026-04-18T11:19:21.029Z</time></trkpt><trkpt lat="43.25772" lon="12.8145017"><ele>1019.5999999999999</ele><time>2026-04-18T11:19:22.03Z</time></trkpt><trkpt lat="43.2578083" lon="12.814575"><ele>1018.1999999999999</ele><time>2026-04-18T11:19:23.029Z</time></trkpt><trkpt lat="43.2579017" lon="12.8146267"><ele>1016.8000000000001</ele><time>2026-04-18T11:19:24.029Z</time></trkpt><trkpt lat="43.257995" lon="12.8146717"><ele>1015.4000000000001</ele><time>2026-04-18T11:19:25.03Z</time></trkpt><trkpt lat="43.258095" lon="12.81471"><ele>1014.0</ele><time>2026-04-18T11:19:26.029Z</time></trkpt><trkpt lat="43.25819" lon="12.8147483"><ele>1012.0</ele><time>2026-04-18T11:19:27.029Z</time></trkpt><trkpt lat="43.258285" lon="12.814775"><ele>1010.0000000000001</ele><time>2026-04-18T11:19:28.029Z</time></trkpt><trkpt lat="43.2583767" lon="12.8148"><ele>1008.0000000000001</ele><time>2026-04-18T11:19:29.03Z</time></trkpt><trkpt lat="43.2584433" lon="12.8148183"><ele>1006.0</ele><time>2026-04-18T11:19:30.029Z</time></trkpt><trkpt lat="43.2585517" lon="12.8148483"><ele>1004.0</ele><time>2026-04-18T11:19:32.03Z</time></trkpt><trkpt lat="43.2586317" lon="12.8148733"><ele>1004.0000000000001</ele><time>2026-04-18T11:19:34.029Z</time></trkpt><trkpt lat="43.2587133" lon="12.8149"><ele>1004.0</ele><time>2026-04-18T11:19:38.029Z</time></trkpt><trkpt lat="43.258795" lon="12.8149167"><ele>1004.0</ele><time>2026-04-18T11:19:41.03Z</time></trkpt><trkpt lat="43.2588633" lon="12.81492"><ele>1004.0</ele><time>2026-04-18T11:19:43.03Z</time></trkpt><trkpt lat="43.2589467" lon="12.81493"><ele>1004.0000000000001</ele><time>2026-04-18T11:19:45.029Z</time></trkpt><trkpt lat="43.2590133" lon="12.814935"><ele>1004.0</ele><time>2026-04-18T11:19:47.029Z</time></trkpt><trkpt lat="43.259095" lon="12.814925"><ele>1004.3333333333334</ele><time>2026-04-18T11:19:50.03Z</time></trkpt><trkpt lat="43.259175" lon="12.8149017"><ele>1004.6666666666667</ele><time>2026-04-18T11:19:53.029Z</time></trkpt><trkpt lat="43.259185" lon="12.8147933"><ele>1005.0</ele><time>2026-04-18T11:20:19.03Z</time></trkpt><trkpt lat="43.2591433" lon="12.8147117"><ele>1005.3333333333333</ele><time>2026-04-18T11:20:23.029Z</time></trkpt><trkpt lat="43.2590983" lon="12.81464"><ele>1005.6666666666666</ele><time>2026-04-18T11:20:25.029Z</time></trkpt><trkpt lat="43.2590583" lon="12.81454"><ele>1006.0</ele><time>2026-04-18T11:20:27.029Z</time></trkpt><trkpt lat="43.2590133" lon="12.8144067"><ele>1006.8</ele><time>2026-04-18T11:20:29.029Z</time></trkpt><trkpt lat="43.2589467" lon="12.8142917"><ele>1007.5999999999999</ele><time>2026-04-18T11:20:31.029Z</time></trkpt><trkpt lat="43.2588933" lon="12.8141383"><ele>1008.4</ele><time>2026-04-18T11:20:33.029Z</time></trkpt><trkpt lat="43.258865" lon="12.814025"><ele>1009.2</ele><time>2026-04-18T11:20:34.029Z</time></trkpt><trkpt lat="43.2588367" lon="12.8138867"><ele>1010.0</ele><time>2026-04-18T11:20:35.029Z</time></trkpt><trkpt lat="43.2588117" lon="12.8137467"><ele>1010.0</ele><time>2026-04-18T11:20:36.029Z</time></trkpt><trkpt lat="43.25878" lon="12.8135967"><ele>1010.0</ele><time>2026-04-18T11:20:37.029Z</time></trkpt><trkpt lat="43.25875" lon="12.813415"><ele>1010.0</ele><time>2026-04-18T11:20:38.03Z</time></trkpt><trkpt lat="43.2587183" lon="12.8132367"><ele>1010.0</ele><time>2026-04-18T11:20:39.029Z</time></trkpt><trkpt lat="43.2586767" lon="12.8130517"><ele>1010.75</ele><time>2026-04-18T11:20:40.029Z</time></trkpt><trkpt lat="43.2586433" lon="12.8128867"><ele>1011.5</ele><time>2026-04-18T11:20:41.029Z</time></trkpt><trkpt lat="43.2586117" lon="12.8127217"><ele>1012.25</ele><time>2026-04-18T11:20:42.03Z</time></trkpt><trkpt lat="43.2585817" lon="12.8125617"><ele>1013.0</ele><time>2026-04-18T11:20:43.029Z</time></trkpt><trkpt lat="43.25856" lon="12.812415"><ele>1011.5999999999999</ele><time>2026-04-18T11:20:44.029Z</time></trkpt><trkpt lat="43.258535" lon="12.8122783"><ele>1010.1999999999999</ele><time>2026-04-18T11:20:45.029Z</time></trkpt><trkpt lat="43.2585067" lon="12.81214"><ele>1008.8</ele><time>2026-04-18T11:20:46.029Z</time></trkpt><trkpt lat="43.2584833" lon="12.811995"><ele>1007.4</ele><time>2026-04-18T11:20:47.029Z</time></trkpt><trkpt lat="43.258475" lon="12.8118367"><ele>1006.0</ele><time>2026-04-18T11:20:48.029Z</time></trkpt><trkpt lat="43.2584767" lon="12.8116583"><ele>1004.75</ele><time>2026-04-18T11:20:49.029Z</time></trkpt><trkpt lat="43.2584767" lon="12.8114917"><ele>1003.5</ele><time>2026-04-18T11:20:50.029Z</time></trkpt><trkpt lat="43.2584667" lon="12.8113217"><ele>1002.25</ele><time>2026-04-18T11:20:51.029Z</time></trkpt><trkpt lat="43.2584383" lon="12.8111533"><ele>1001.0</ele><time>2026-04-18T11:20:52.029Z</time></trkpt><trkpt lat="43.2584067" lon="12.8110017"><ele>1000.25</ele><time>2026-04-18T11:20:53.029Z</time></trkpt><trkpt lat="43.2583633" lon="12.8108583"><ele>999.5</ele><time>2026-04-18T11:20:54.029Z</time></trkpt><trkpt lat="43.2583083" lon="12.8107233"><ele>998.75</ele><time>2026-04-18T11:20:55.029Z</time></trkpt><trkpt lat="43.2582383" lon="12.8106017"><ele>998.0</ele><time>2026-04-18T11:20:56.029Z</time></trkpt><trkpt lat="43.2581617" lon="12.8104817"><ele>999.25</ele><time>2026-04-18T11:20:57.029Z</time></trkpt><trkpt lat="43.2580667" lon="12.810355"><ele>1000.5</ele><time>2026-04-18T11:20:58.029Z</time></trkpt><trkpt lat="43.25795" lon="12.8102283"><ele>1001.75</ele><time>2026-04-18T11:20:59.029Z</time></trkpt><trkpt lat="43.25782" lon="12.8101117"><ele>1003.0</ele><time>2026-04-18T11:21:00.029Z</time></trkpt><trkpt lat="43.2576767" lon="12.8100067"><ele>1001.0</ele><time>2026-04-18T11:21:01.029Z</time></trkpt><trkpt lat="43.2575383" lon="12.8099067"><ele>999.0</ele><time>2026-04-18T11:21:02.029Z</time></trkpt><trkpt lat="43.2573983" lon="12.8098"><ele>997.0</ele><time>2026-04-18T11:21:03.029Z</time></trkpt><trkpt lat="43.2572567" lon="12.8096933"><ele>997.0</ele><time>2026-04-18T11:21:04.029Z</time></trkpt><trkpt lat="43.25712" lon="12.809585"><ele>997.0</ele><time>2026-04-18T11:21:05.029Z</time></trkpt><trkpt lat="43.2569783" lon="12.8094717"><ele>997.0</ele><time>2026-04-18T11:21:06.029Z</time></trkpt><trkpt lat="43.2568417" lon="12.80936"><ele>992.0</ele><time>2026-04-18T11:21:07.029Z</time></trkpt><trkpt lat="43.2567017" lon="12.80925"><ele>987.0</ele><time>2026-04-18T11:21:08.029Z</time></trkpt><trkpt lat="43.2565633" lon="12.8091333"><ele>982.0</ele><time>2026-04-18T11:21:09.029Z</time></trkpt><trkpt lat="43.2564267" lon="12.8090067"><ele>982.0</ele><time>2026-04-18T11:21:10.029Z</time></trkpt><trkpt lat="43.25629" lon="12.8088867"><ele>982.0</ele><time>2026-04-18T11:21:11.029Z</time></trkpt><trkpt lat="43.2561517" lon="12.8087617"><ele>982.0</ele><time>2026-04-18T11:21:12.029Z</time></trkpt><trkpt lat="43.256015" lon="12.8086383"><ele>982.0</ele><time>2026-04-18T11:21:13.029Z</time></trkpt><trkpt lat="43.2558767" lon="12.808515"><ele>982.0</ele><time>2026-04-18T11:21:14.029Z</time></trkpt><trkpt lat="43.2557383" lon="12.808395"><ele>982.0</ele><time>2026-04-18T11:21:15.03Z</time></trkpt><trkpt lat="43.255605" lon="12.8082733"><ele>981.0</ele><time>2026-04-18T11:21:16.029Z</time></trkpt><trkpt lat="43.2554733" lon="12.8081467"><ele>980.0</ele><time>2026-04-18T11:21:17.029Z</time></trkpt><trkpt lat="43.25534" lon="12.8080167"><ele>979.0</ele><time>2026-04-18T11:21:18.029Z</time></trkpt><trkpt lat="43.2552133" lon="12.80789"><ele>979.0</ele><time>2026-04-18T11:21:19.03Z</time></trkpt><trkpt lat="43.2550917" lon="12.8077667"><ele>979.0</ele><time>2026-04-18T11:21:20.029Z</time></trkpt><trkpt lat="43.2549683" lon="12.8076483"><ele>979.0</ele><time>2026-04-18T11:21:21.029Z</time></trkpt><trkpt lat="43.2548483" lon="12.80752"><ele>977.0</ele><time>2026-04-18T11:21:22.029Z</time></trkpt><trkpt lat="43.254735" lon="12.80739"><ele>975.0</ele><time>2026-04-18T11:21:23.029Z</time></trkpt><trkpt lat="43.2546183" lon="12.8072667"><ele>973.0</ele><time>2026-04-18T11:21:24.03Z</time></trkpt><trkpt lat="43.254505" lon="12.8071467"><ele>971.0</ele><time>2026-04-18T11:21:25.029Z</time></trkpt><trkpt lat="43.2543883" lon="12.8070167"><ele>971.0</ele><time>2026-04-18T11:21:26.029Z</time></trkpt><trkpt lat="43.2542733" lon="12.8068833"><ele>971.0</ele><time>2026-04-18T11:21:27.029Z</time></trkpt><trkpt lat="43.2541617" lon="12.8067433"><ele>971.0</ele><time>2026-04-18T11:21:28.029Z</time></trkpt><trkpt lat="43.2540483" lon="12.8066067"><ele>973.75</ele><time>2026-04-18T11:21:29.029Z</time></trkpt><trkpt lat="43.2539367" lon="12.8064667"><ele>976.5</ele><time>2026-04-18T11:21:30.029Z</time></trkpt><trkpt lat="43.2538283" lon="12.8063233"><ele>979.25</ele><time>2026-04-18T11:21:31.03Z</time></trkpt><trkpt lat="43.253735" lon="12.806175"><ele>982.0</ele><time>2026-04-18T11:21:32.03Z</time></trkpt><trkpt lat="43.2536383" lon="12.806035"><ele>974.75</ele><time>2026-04-18T11:21:33.03Z</time></trkpt><trkpt lat="43.253545" lon="12.8058967"><ele>967.5</ele><time>2026-04-18T11:21:34.029Z</time></trkpt><trkpt lat="43.2534533" lon="12.8057583"><ele>960.25</ele><time>2026-04-18T11:21:35.029Z</time></trkpt><trkpt lat="43.25337" lon="12.8056017"><ele>953.0</ele><time>2026-04-18T11:21:36.03Z</time></trkpt><trkpt lat="43.25329" lon="12.80544"><ele>953.0</ele><time>2026-04-18T11:21:37.029Z</time></trkpt><trkpt lat="43.253215" lon="12.80527"><ele>953.0</ele><time>2026-04-18T11:21:38.029Z</time></trkpt><trkpt lat="43.2531583" lon="12.8050833"><ele>953.0</ele><time>2026-04-18T11:21:39.029Z</time></trkpt><trkpt lat="43.2530983" lon="12.8049117"><ele>953.0</ele><time>2026-04-18T11:21:40.029Z</time></trkpt><trkpt lat="43.2530383" lon="12.804745"><ele>952.75</ele><time>2026-04-18T11:21:41.029Z</time></trkpt><trkpt lat="43.25298" lon="12.804565"><ele>952.5</ele><time>2026-04-18T11:21:42.03Z</time></trkpt><trkpt lat="43.2529167" lon="12.8043817"><ele>952.25</ele><time>2026-04-18T11:21:43.029Z</time></trkpt><trkpt lat="43.2528567" lon="12.8041983"><ele>952.0</ele><time>2026-04-18T11:21:44.03Z</time></trkpt><trkpt lat="43.2527983" lon="12.8040167"><ele>952.0</ele><time>2026-04-18T11:21:45.029Z</time></trkpt><trkpt lat="43.2527467" lon="12.8038417"><ele>952.0</ele><time>2026-04-18T11:21:46.029Z</time></trkpt><trkpt lat="43.2527017" lon="12.8036517"><ele>952.0</ele><time>2026-04-18T11:21:47.029Z</time></trkpt><trkpt lat="43.2526567" lon="12.8034433"><ele>952.0</ele><time>2026-04-18T11:21:48.029Z</time></trkpt><trkpt lat="43.2526133" lon="12.80323"><ele>945.0</ele><time>2026-04-18T11:21:49.03Z</time></trkpt><trkpt lat="43.2525683" lon="12.8030217"><ele>938.0</ele><time>2026-04-18T11:21:50.029Z</time></trkpt><trkpt lat="43.252525" lon="12.802815"><ele>931.0</ele><time>2026-04-18T11:21:51.03Z</time></trkpt><trkpt lat="43.2524883" lon="12.802615"><ele>926.75</ele><time>2026-04-18T11:21:52.029Z</time></trkpt><trkpt lat="43.2524467" lon="12.8024233"><ele>922.5</ele><time>2026-04-18T11:21:53.029Z</time></trkpt><trkpt lat="43.252395" lon="12.8022417"><ele>918.25</ele><time>2026-04-18T11:21:54.03Z</time></trkpt><trkpt lat="43.2523483" lon="12.8020567"><ele>914.0</ele><time>2026-04-18T11:21:55.029Z</time></trkpt><trkpt lat="43.252295" lon="12.8018767"><ele>923.25</ele><time>2026-04-18T11:21:56.029Z</time></trkpt><trkpt lat="43.2522633" lon="12.80169"><ele>932.5</ele><time>2026-04-18T11:21:57.029Z</time></trkpt><trkpt lat="43.2522467" lon="12.8014983"><ele>941.75</ele><time>2026-04-18T11:21:58.03Z</time></trkpt><trkpt lat="43.25223" lon="12.80129"><ele>951.0</ele><time>2026-04-18T11:21:59.029Z</time></trkpt><trkpt lat="43.2522217" lon="12.8010933"><ele>950.3333333333333</ele><time>2026-04-18T11:22:00.029Z</time></trkpt><trkpt lat="43.25222" lon="12.800885"><ele>949.6666666666666</ele><time>2026-04-18T11:22:01.029Z</time></trkpt><trkpt lat="43.2522117" lon="12.8006667"><ele>949.0</ele><time>2026-04-18T11:22:02.029Z</time></trkpt><trkpt lat="43.252205" lon="12.8004517"><ele>949.0</ele><time>2026-04-18T11:22:03.029Z</time></trkpt><trkpt lat="43.2522" lon="12.800245"><ele>949.0</ele><time>2026-04-18T11:22:04.029Z</time></trkpt><trkpt lat="43.2521883" lon="12.8000467"><ele>949.0</ele><time>2026-04-18T11:22:05.03Z</time></trkpt><trkpt lat="43.25219" lon="12.79984"><ele>949.0</ele><time>2026-04-18T11:22:06.029Z</time></trkpt><trkpt lat="43.2522117" lon="12.7996217"><ele>946.6666666666666</ele><time>2026-04-18T11:22:07.029Z</time></trkpt><trkpt lat="43.2522483" lon="12.7994017"><ele>944.3333333333333</ele><time>2026-04-18T11:22:08.029Z</time></trkpt><trkpt lat="43.2522767" lon="12.7991917"><ele>942.0</ele><time>2026-04-18T11:22:09.029Z</time></trkpt><trkpt lat="43.252305" lon="12.7989933"><ele>934.5</ele><time>2026-04-18T11:22:10.029Z</time></trkpt><trkpt lat="43.2523233" lon="12.7987933"><ele>927.0</ele><time>2026-04-18T11:22:11.029Z</time></trkpt><trkpt lat="43.2523083" lon="12.7986233"><ele>919.5</ele><time>2026-04-18T11:22:12.03Z</time></trkpt><trkpt lat="43.252255" lon="12.79845"><ele>912.0</ele><time>2026-04-18T11:22:13.029Z</time></trkpt><trkpt lat="43.25218" lon="12.7983067"><ele>912.0</ele><time>2026-04-18T11:22:14.029Z</time></trkpt><trkpt lat="43.2520817" lon="12.7981933"><ele>912.0</ele><time>2026-04-18T11:22:15.029Z</time></trkpt><trkpt lat="43.2519683" lon="12.79806"><ele>912.0</ele><time>2026-04-18T11:22:16.029Z</time></trkpt><trkpt lat="43.2518383" lon="12.7979233"><ele>912.0</ele><time>2026-04-18T11:22:17.029Z</time></trkpt><trkpt lat="43.2517067" lon="12.79778"><ele>915.0</ele><time>2026-04-18T11:22:18.029Z</time></trkpt><trkpt lat="43.251575" lon="12.7976417"><ele>918.0</ele><time>2026-04-18T11:22:19.029Z</time></trkpt><trkpt lat="43.2514567" lon="12.7975033"><ele>921.0</ele><time>2026-04-18T11:22:20.029Z</time></trkpt><trkpt lat="43.2513617" lon="12.797345"><ele>921.0</ele><time>2026-04-18T11:22:21.029Z</time></trkpt><trkpt lat="43.2512833" lon="12.7971733"><ele>921.0</ele><time>2026-04-18T11:22:22.029Z</time></trkpt><trkpt lat="43.251225" lon="12.7969983"><ele>921.0</ele><time>2026-04-18T11:22:23.029Z</time></trkpt><trkpt lat="43.2511833" lon="12.7968117"><ele>921.0</ele><time>2026-04-18T11:22:24.03Z</time></trkpt><trkpt lat="43.2511383" lon="12.7966267"><ele>916.0</ele><time>2026-04-18T11:22:25.029Z</time></trkpt><trkpt lat="43.2511083" lon="12.7964533"><ele>911.0</ele><time>2026-04-18T11:22:26.029Z</time></trkpt><trkpt lat="43.2510817" lon="12.79628"><ele>906.0</ele><time>2026-04-18T11:22:27.03Z</time></trkpt><trkpt lat="43.2510517" lon="12.7961183"><ele>901.0</ele><time>2026-04-18T11:22:28.029Z</time></trkpt><trkpt lat="43.2510067" lon="12.7959783"><ele>896.5</ele><time>2026-04-18T11:22:29.029Z</time></trkpt><trkpt lat="43.250945" lon="12.7958567"><ele>892.0</ele><time>2026-04-18T11:22:30.03Z</time></trkpt><trkpt lat="43.2508633" lon="12.7957383"><ele>887.5</ele><time>2026-04-18T11:22:31.03Z</time></trkpt><trkpt lat="43.2507617" lon="12.7956083"><ele>883.0</ele><time>2026-04-18T11:22:32.029Z</time></trkpt><trkpt lat="43.2506483" lon="12.7954883"><ele>881.25</ele><time>2026-04-18T11:22:33.029Z</time></trkpt><trkpt lat="43.2505367" lon="12.7953633"><ele>879.5</ele><time>2026-04-18T11:22:34.029Z</time></trkpt><trkpt lat="43.250415" lon="12.7952517"><ele>877.75</ele><time>2026-04-18T11:22:35.029Z</time></trkpt><trkpt lat="43.2502933" lon="12.7951417"><ele>876.0</ele><time>2026-04-18T11:22:36.029Z</time></trkpt><trkpt lat="43.2501717" lon="12.795045"><ele>876.0</ele><time>2026-04-18T11:22:37.029Z</time></trkpt><trkpt lat="43.2500483" lon="12.7949433"><ele>876.0</ele><time>2026-04-18T11:22:38.03Z</time></trkpt><trkpt lat="43.2499183" lon="12.79485"><ele>876.0</ele><time>2026-04-18T11:22:39.029Z</time></trkpt><trkpt lat="43.2497917" lon="12.7947583"><ele>876.0</ele><time>2026-04-18T11:22:40.029Z</time></trkpt><trkpt lat="43.2496617" lon="12.79467"><ele>877.0</ele><time>2026-04-18T11:22:41.029Z</time></trkpt><trkpt lat="43.2495283" lon="12.7945883"><ele>878.0</ele><time>2026-04-18T11:22:42.029Z</time></trkpt><trkpt lat="43.2493983" lon="12.79452"><ele>879.0</ele><time>2026-04-18T11:22:43.03Z</time></trkpt><trkpt lat="43.24927" lon="12.79446"><ele>880.0</ele><time>2026-04-18T11:22:44.029Z</time></trkpt><trkpt lat="43.2491283" lon="12.7944133"><ele>880.0</ele><time>2026-04-18T11:22:45.029Z</time></trkpt><trkpt lat="43.249005" lon="12.7943833"><ele>880.0</ele><time>2026-04-18T11:22:46.029Z</time></trkpt><trkpt lat="43.2488983" lon="12.79437"><ele>880.0</ele><time>2026-04-18T11:22:47.029Z</time></trkpt><trkpt lat="43.2488017" lon="12.7943633"><ele>880.0</ele><time>2026-04-18T11:22:48.029Z</time></trkpt><trkpt lat="43.248715" lon="12.79435"><ele>880.0</ele><time>2026-04-18T11:22:49.029Z</time></trkpt><trkpt lat="43.2486417" lon="12.7943267"><ele>875.9999999999999</ele><time>2026-04-18T11:22:50.029Z</time></trkpt><trkpt lat="43.24858" lon="12.7942833"><ele>872.0</ele><time>2026-04-18T11:22:51.029Z</time></trkpt><trkpt lat="43.2485267" lon="12.7941333"><ele>868.0</ele><time>2026-04-18T11:22:53.029Z</time></trkpt><trkpt lat="43.248565" lon="12.7940567"><ele>864.0</ele><time>2026-04-18T11:22:54.029Z</time></trkpt><trkpt lat="43.2486167" lon="12.7940033"><ele>859.9999999999999</ele><time>2026-04-18T11:22:55.029Z</time></trkpt><trkpt lat="43.248695" lon="12.7939717"><ele>856.0</ele><time>2026-04-18T11:22:56.029Z</time></trkpt><trkpt lat="43.2487917" lon="12.7939483"><ele>856.0</ele><time>2026-04-18T11:22:57.029Z</time></trkpt><trkpt lat="43.2489067" lon="12.79392"><ele>856.0</ele><time>2026-04-18T11:22:58.029Z</time></trkpt><trkpt lat="43.24904" lon="12.7938833"><ele>856.0</ele><time>2026-04-18T11:22:59.029Z</time></trkpt><trkpt lat="43.249165" lon="12.7938433"><ele>856.0</ele><time>2026-04-18T11:23:00.029Z</time></trkpt><trkpt lat="43.2492833" lon="12.7938033"><ele>857.0</ele><time>2026-04-18T11:23:01.029Z</time></trkpt><trkpt lat="43.2494183" lon="12.793775"><ele>858.0</ele><time>2026-04-18T11:23:02.03Z</time></trkpt><trkpt lat="43.2495483" lon="12.79375"><ele>859.0</ele><time>2026-04-18T11:23:03.029Z</time></trkpt><trkpt lat="43.2496717" lon="12.79372"><ele>860.0</ele><time>2026-04-18T11:23:04.029Z</time></trkpt><trkpt lat="43.2497883" lon="12.7936983"><ele>859.0</ele><time>2026-04-18T11:23:05.029Z</time></trkpt><trkpt lat="43.249905" lon="12.7936783"><ele>858.0</ele><time>2026-04-18T11:23:06.029Z</time></trkpt><trkpt lat="43.2500217" lon="12.7936667"><ele>857.0</ele><time>2026-04-18T11:23:07.029Z</time></trkpt><trkpt lat="43.25015" lon="12.7936667"><ele>856.0</ele><time>2026-04-18T11:23:08.03Z</time></trkpt><trkpt lat="43.2502733" lon="12.7936667"><ele>856.0</ele><time>2026-04-18T11:23:09.029Z</time></trkpt><trkpt lat="43.2503933" lon="12.79367"><ele>856.0</ele><time>2026-04-18T11:23:10.029Z</time></trkpt><trkpt lat="43.2505217" lon="12.7936717"><ele>856.0</ele><time>2026-04-18T11:23:11.029Z</time></trkpt><trkpt lat="43.2506383" lon="12.7936667"><ele>856.0</ele><time>2026-04-18T11:23:12.029Z</time></trkpt><trkpt lat="43.2507617" lon="12.7936467"><ele>853.5</ele><time>2026-04-18T11:23:13.03Z</time></trkpt><trkpt lat="43.25088" lon="12.7936283"><ele>851.0</ele><time>2026-04-18T11:23:14.029Z</time></trkpt><trkpt lat="43.250995" lon="12.7936233"><ele>848.5</ele><time>2026-04-18T11:23:15.029Z</time></trkpt><trkpt lat="43.25111" lon="12.79363"><ele>846.0</ele><time>2026-04-18T11:23:16.029Z</time></trkpt><trkpt lat="43.2512167" lon="12.793635"><ele>846.0</ele><time>2026-04-18T11:23:17.029Z</time></trkpt><trkpt lat="43.2513333" lon="12.7936633"><ele>846.0</ele><time>2026-04-18T11:23:18.03Z</time></trkpt><trkpt lat="43.2514417" lon="12.7937083"><ele>846.0</ele><time>2026-04-18T11:23:19.029Z</time></trkpt><trkpt lat="43.2515433" lon="12.7937667"><ele>846.0</ele><time>2026-04-18T11:23:20.03Z</time></trkpt><trkpt lat="43.2516333" lon="12.7938317"><ele>846.0</ele><time>2026-04-18T11:23:21.029Z</time></trkpt><trkpt lat="43.2517233" lon="12.7939067"><ele>842.8333333333334</ele><time>2026-04-18T11:23:22.029Z</time></trkpt><trkpt lat="43.2517917" lon="12.793995"><ele>839.6666666666667</ele><time>2026-04-18T11:23:23.029Z</time></trkpt><trkpt lat="43.25186" lon="12.79406"><ele>836.5</ele><time>2026-04-18T11:23:24.03Z</time></trkpt><trkpt lat="43.2519267" lon="12.7941"><ele>833.3333333333334</ele><time>2026-04-18T11:23:25.029Z</time></trkpt><trkpt lat="43.2519967" lon="12.7940617"><ele>830.1666666666667</ele><time>2026-04-18T11:23:26.029Z</time></trkpt><trkpt lat="43.2520583" lon="12.793985"><ele>827.0</ele><time>2026-04-18T11:23:27.03Z</time></trkpt><trkpt lat="43.2520783" lon="12.7939017"><ele>827.0</ele><time>2026-04-18T11:23:28.029Z</time></trkpt><trkpt lat="43.2520483" lon="12.793785"><ele>827.0</ele><time>2026-04-18T11:23:29.03Z</time></trkpt><trkpt lat="43.2519967" lon="12.7936533"><ele>827.0</ele><time>2026-04-18T11:23:30.029Z</time></trkpt><trkpt lat="43.251915" lon="12.7935183"><ele>827.0</ele><time>2026-04-18T11:23:31.03Z</time></trkpt><trkpt lat="43.25183" lon="12.7933767"><ele>823.5</ele><time>2026-04-18T11:23:32.029Z</time></trkpt><trkpt lat="43.2517433" lon="12.793235"><ele>820.0</ele><time>2026-04-18T11:23:33.03Z</time></trkpt><trkpt lat="43.2516567" lon="12.79309"><ele>816.5</ele><time>2026-04-18T11:23:34.029Z</time></trkpt><trkpt lat="43.2515767" lon="12.7929617"><ele>813.0</ele><time>2026-04-18T11:23:35.029Z</time></trkpt><trkpt lat="43.2515017" lon="12.7928317"><ele>811.75</ele><time>2026-04-18T11:23:36.029Z</time></trkpt><trkpt lat="43.2514233" lon="12.7926983"><ele>810.5</ele><time>2026-04-18T11:23:37.029Z</time></trkpt><trkpt lat="43.2513333" lon="12.7925667"><ele>809.25</ele><time>2026-04-18T11:23:38.029Z</time></trkpt><trkpt lat="43.2512533" lon="12.79243"><ele>808.0</ele><time>2026-04-18T11:23:39.029Z</time></trkpt><trkpt lat="43.2511683" lon="12.7922917"><ele>808.0</ele><time>2026-04-18T11:23:40.029Z</time></trkpt><trkpt lat="43.2510883" lon="12.7921567"><ele>808.0</ele><time>2026-04-18T11:23:41.029Z</time></trkpt><trkpt lat="43.2509983" lon="12.7920283"><ele>808.0</ele><time>2026-04-18T11:23:42.03Z</time></trkpt><trkpt lat="43.2509167" lon="12.7919083"><ele>808.0</ele><time>2026-04-18T11:23:43.03Z</time></trkpt><trkpt lat="43.2508183" lon="12.7918083"><ele>805.25</ele><time>2026-04-18T11:23:44.029Z</time></trkpt><trkpt lat="43.25071" lon="12.7917167"><ele>802.5</ele><time>2026-04-18T11:23:45.029Z</time></trkpt><trkpt lat="43.2506017" lon="12.7916367"><ele>799.75</ele><time>2026-04-18T11:23:46.029Z</time></trkpt><trkpt lat="43.2504933" lon="12.7915533"><ele>797.0</ele><time>2026-04-18T11:23:47.03Z</time></trkpt><trkpt lat="43.25038" lon="12.7914833"><ele>796.5</ele><time>2026-04-18T11:23:48.029Z</time></trkpt><trkpt lat="43.25026" lon="12.791405"><ele>796.0</ele><time>2026-04-18T11:23:49.029Z</time></trkpt><trkpt lat="43.2501417" lon="12.7913333"><ele>795.5</ele><time>2026-04-18T11:23:50.029Z</time></trkpt><trkpt lat="43.2500317" lon="12.7912617"><ele>795.0</ele><time>2026-04-18T11:23:51.029Z</time></trkpt><trkpt lat="43.2499217" lon="12.7912117"><ele>795.0</ele><time>2026-04-18T11:23:52.029Z</time></trkpt><trkpt lat="43.2498033" lon="12.79116"><ele>795.0</ele><time>2026-04-18T11:23:53.03Z</time></trkpt><trkpt lat="43.2496833" lon="12.79112"><ele>795.0</ele><time>2026-04-18T11:23:54.029Z</time></trkpt><trkpt lat="43.249575" lon="12.7910783"><ele>795.0</ele><time>2026-04-18T11:23:55.028Z</time></trkpt><trkpt lat="43.2494517" lon="12.7910383"><ele>788.5</ele><time>2026-04-18T11:23:56.029Z</time></trkpt><trkpt lat="43.2493283" lon="12.7910017"><ele>782.0</ele><time>2026-04-18T11:23:57.028Z</time></trkpt><trkpt lat="43.24921" lon="12.7909717"><ele>775.5</ele><time>2026-04-18T11:23:58.028Z</time></trkpt><trkpt lat="43.2490917" lon="12.7909267"><ele>769.0</ele><time>2026-04-18T11:23:59.028Z</time></trkpt><trkpt lat="43.248975" lon="12.790885"><ele>768.0</ele><time>2026-04-18T11:24:00.029Z</time></trkpt><trkpt lat="43.248855" lon="12.79085"><ele>767.0</ele><time>2026-04-18T11:24:01.028Z</time></trkpt><trkpt lat="43.2487367" lon="12.790805"><ele>766.0</ele><time>2026-04-18T11:24:02.028Z</time></trkpt><trkpt lat="43.24862" lon="12.7907717"><ele>765.0</ele><time>2026-04-18T11:24:03.028Z</time></trkpt><trkpt lat="43.2485033" lon="12.7907317"><ele>765.0</ele><time>2026-04-18T11:24:04.028Z</time></trkpt><trkpt lat="43.2483817" lon="12.79069"><ele>765.0</ele><time>2026-04-18T11:24:05.028Z</time></trkpt><trkpt lat="43.24826" lon="12.7906583"><ele>765.0</ele><time>2026-04-18T11:24:06.028Z</time></trkpt><trkpt lat="43.2481417" lon="12.7906417"><ele>765.0</ele><time>2026-04-18T11:24:07.028Z</time></trkpt><trkpt lat="43.2480217" lon="12.79062"><ele>764.0</ele><time>2026-04-18T11:24:08.028Z</time></trkpt><trkpt lat="43.2478967" lon="12.7905933"><ele>763.0</ele><time>2026-04-18T11:24:09.028Z</time></trkpt><trkpt lat="43.2477667" lon="12.7905683"><ele>762.0</ele><time>2026-04-18T11:24:10.029Z</time></trkpt><trkpt lat="43.24764" lon="12.7905367"><ele>761.0</ele><time>2026-04-18T11:24:11.028Z</time></trkpt><trkpt lat="43.2475067" lon="12.7905117"><ele>761.0</ele><time>2026-04-18T11:24:12.028Z</time></trkpt><trkpt lat="43.2473667" lon="12.7904867"><ele>761.0</ele><time>2026-04-18T11:24:13.028Z</time></trkpt><trkpt lat="43.2472267" lon="12.79046"><ele>761.0</ele><time>2026-04-18T11:24:14.029Z</time></trkpt><trkpt lat="43.2470867" lon="12.7904317"><ele>761.0</ele><time>2026-04-18T11:24:15.028Z</time></trkpt><trkpt lat="43.2469383" lon="12.7904017"><ele>760.0</ele><time>2026-04-18T11:24:16.028Z</time></trkpt><trkpt lat="43.246785" lon="12.7903617"><ele>759.0</ele><time>2026-04-18T11:24:17.028Z</time></trkpt><trkpt lat="43.2466333" lon="12.7903333"><ele>758.0</ele><time>2026-04-18T11:24:18.028Z</time></trkpt><trkpt lat="43.246475" lon="12.7903183"><ele>755.6666666666666</ele><time>2026-04-18T11:24:19.028Z</time></trkpt><trkpt lat="43.2463233" lon="12.79029"><ele>753.3333333333334</ele><time>2026-04-18T11:24:20.028Z</time></trkpt><trkpt lat="43.2461633" lon="12.7902733"><ele>751.0</ele><time>2026-04-18T11:24:21.028Z</time></trkpt><trkpt lat="43.2460017" lon="12.790255"><ele>751.0</ele><time>2026-04-18T11:24:22.028Z</time></trkpt><trkpt lat="43.2458383" lon="12.7902417"><ele>751.0</ele><time>2026-04-18T11:24:23.028Z</time></trkpt><trkpt lat="43.2456833" lon="12.7902317"><ele>751.0</ele><time>2026-04-18T11:24:24.028Z</time></trkpt><trkpt lat="43.24553" lon="12.79022"><ele>751.5</ele><time>2026-04-18T11:24:25.029Z</time></trkpt><trkpt lat="43.245385" lon="12.7902117"><ele>752.0</ele><time>2026-04-18T11:24:26.028Z</time></trkpt><trkpt lat="43.2452433" lon="12.7902033"><ele>752.5</ele><time>2026-04-18T11:24:27.028Z</time></trkpt><trkpt lat="43.2451033" lon="12.79019"><ele>753.0</ele><time>2026-04-18T11:24:28.028Z</time></trkpt><trkpt lat="43.244965" lon="12.790175"><ele>746.5</ele><time>2026-04-18T11:24:29.028Z</time></trkpt><trkpt lat="43.24483" lon="12.790165"><ele>740.0</ele><time>2026-04-18T11:24:30.028Z</time></trkpt><trkpt lat="43.2447" lon="12.79016"><ele>733.5</ele><time>2026-04-18T11:24:31.028Z</time></trkpt><trkpt lat="43.2445717" lon="12.79016"><ele>727.0</ele><time>2026-04-18T11:24:32.029Z</time></trkpt><trkpt lat="43.244445" lon="12.7901517"><ele>727.25</ele><time>2026-04-18T11:24:33.028Z</time></trkpt><trkpt lat="43.2443067" lon="12.7901483"><ele>727.5</ele><time>2026-04-18T11:24:34.028Z</time></trkpt><trkpt lat="43.2441633" lon="12.7901467"><ele>727.75</ele><time>2026-04-18T11:24:35.028Z</time></trkpt><trkpt lat="43.2440233" lon="12.79014"><ele>728.0</ele><time>2026-04-18T11:24:36.028Z</time></trkpt><trkpt lat="43.2438867" lon="12.79014"><ele>728.0</ele><time>2026-04-18T11:24:37.028Z</time></trkpt><trkpt lat="43.2437583" lon="12.7901333"><ele>728.0</ele><time>2026-04-18T11:24:38.029Z</time></trkpt><trkpt lat="43.2436233" lon="12.7901067"><ele>728.0</ele><time>2026-04-18T11:24:39.028Z</time></trkpt><trkpt lat="43.2434917" lon="12.79006"><ele>728.0</ele><time>2026-04-18T11:24:40.029Z</time></trkpt><trkpt lat="43.24336" lon="12.789995"><ele>728.0</ele><time>2026-04-18T11:24:41.028Z</time></trkpt><trkpt lat="43.2432333" lon="12.7899183"><ele>728.0</ele><time>2026-04-18T11:24:42.028Z</time></trkpt><trkpt lat="43.2431033" lon="12.78983"><ele>728.0</ele><time>2026-04-18T11:24:43.028Z</time></trkpt><trkpt lat="43.2429983" lon="12.789715"><ele>728.0</ele><time>2026-04-18T11:24:44.029Z</time></trkpt><trkpt lat="43.2428833" lon="12.7895617"><ele>725.6666666666666</ele><time>2026-04-18T11:24:45.028Z</time></trkpt><trkpt lat="43.2427867" lon="12.7893933"><ele>723.3333333333334</ele><time>2026-04-18T11:24:46.028Z</time></trkpt><trkpt lat="43.2426833" lon="12.789225"><ele>721.0</ele><time>2026-04-18T11:24:47.028Z</time></trkpt><trkpt lat="43.2425833" lon="12.7890583"><ele>718.25</ele><time>2026-04-18T11:24:48.029Z</time></trkpt><trkpt lat="43.2424933" lon="12.7888867"><ele>715.5</ele><time>2026-04-18T11:24:49.028Z</time></trkpt><trkpt lat="43.2424" lon="12.7887267"><ele>712.75</ele><time>2026-04-18T11:24:50.029Z</time></trkpt><trkpt lat="43.2423183" lon="12.7885733"><ele>710.0</ele><time>2026-04-18T11:24:51.028Z</time></trkpt><trkpt lat="43.2422517" lon="12.788425"><ele>708.0</ele><time>2026-04-18T11:24:52.028Z</time></trkpt><trkpt lat="43.2421967" lon="12.7883033"><ele>706.0</ele><time>2026-04-18T11:24:53.028Z</time></trkpt><trkpt lat="43.242185" lon="12.78819"><ele>704.0</ele><time>2026-04-18T11:24:54.028Z</time></trkpt><trkpt lat="43.2422083" lon="12.7880717"><ele>702.0</ele><time>2026-04-18T11:24:55.028Z</time></trkpt><trkpt lat="43.2422767" lon="12.7879817"><ele>700.0</ele><time>2026-04-18T11:24:56.029Z</time></trkpt><trkpt lat="43.2423617" lon="12.7879133"><ele>700.0</ele><time>2026-04-18T11:24:57.028Z</time></trkpt><trkpt lat="43.24246" lon="12.7879033"><ele>700.0</ele><time>2026-04-18T11:24:58.028Z</time></trkpt><trkpt lat="43.2425583" lon="12.7879417"><ele>700.0</ele><time>2026-04-18T11:24:59.028Z</time></trkpt><trkpt lat="43.24265" lon="12.7880233"><ele>700.0</ele><time>2026-04-18T11:25:00.028Z</time></trkpt><trkpt lat="43.2427267" lon="12.7881417"><ele>700.0</ele><time>2026-04-18T11:25:01.028Z</time></trkpt><trkpt lat="43.2427917" lon="12.7882883"><ele>700.0</ele><time>2026-04-18T11:25:02.028Z</time></trkpt><trkpt lat="43.242845" lon="12.7884483"><ele>700.0</ele><time>2026-04-18T11:25:03.028Z</time></trkpt><trkpt lat="43.2428933" lon="12.7885983"><ele>700.0</ele><time>2026-04-18T11:25:04.028Z</time></trkpt><trkpt lat="43.24296" lon="12.788725"><ele>700.0</ele><time>2026-04-18T11:25:05.029Z</time></trkpt><trkpt lat="43.2430383" lon="12.7888333"><ele>700.8</ele><time>2026-04-18T11:25:06.028Z</time></trkpt><trkpt lat="43.24312" lon="12.7889083"><ele>701.6</ele><time>2026-04-18T11:25:07.028Z</time></trkpt><trkpt lat="43.2432117" lon="12.78897"><ele>702.4000000000001</ele><time>2026-04-18T11:25:08.028Z</time></trkpt><trkpt lat="43.2433033" lon="12.789035"><ele>703.2</ele><time>2026-04-18T11:25:09.029Z</time></trkpt><trkpt lat="43.24339" lon="12.7891017"><ele>704.0</ele><time>2026-04-18T11:25:10.028Z</time></trkpt><trkpt lat="43.2434767" lon="12.7891433"><ele>704.0</ele><time>2026-04-18T11:25:11.028Z</time></trkpt><trkpt lat="43.2435633" lon="12.789165"><ele>704.0</ele><time>2026-04-18T11:25:12.029Z</time></trkpt><trkpt lat="43.243655" lon="12.7891533"><ele>704.0</ele><time>2026-04-18T11:25:13.028Z</time></trkpt><trkpt lat="43.2437233" lon="12.78913"><ele>704.0</ele><time>2026-04-18T11:25:14.028Z</time></trkpt><trkpt lat="43.2437683" lon="12.78897"><ele>704.0</ele><time>2026-04-18T11:25:16.028Z</time></trkpt><trkpt lat="43.2436883" lon="12.78885"><ele>704.0</ele><time>2026-04-18T11:25:17.028Z</time></trkpt><trkpt lat="43.2435967" lon="12.7887733"><ele>704.0</ele><time>2026-04-18T11:25:18.028Z</time></trkpt><trkpt lat="43.24348" lon="12.7887133"><ele>704.0</ele><time>2026-04-18T11:25:19.028Z</time></trkpt><trkpt lat="43.2433533" lon="12.7886467"><ele>704.0</ele><time>2026-04-18T11:25:20.029Z</time></trkpt><trkpt lat="43.2432433" lon="12.7885667"><ele>703.0</ele><time>2026-04-18T11:25:21.029Z</time></trkpt><trkpt lat="43.243155" lon="12.7884517"><ele>702.0</ele><time>2026-04-18T11:25:22.028Z</time></trkpt><trkpt lat="43.2430983" lon="12.7883117"><ele>701.0</ele><time>2026-04-18T11:25:23.029Z</time></trkpt><trkpt lat="43.2430717" lon="12.7881467"><ele>700.0</ele><time>2026-04-18T11:25:24.029Z</time></trkpt><trkpt lat="43.24307" lon="12.78799"><ele>700.0</ele><time>2026-04-18T11:25:25.028Z</time></trkpt><trkpt lat="43.2430583" lon="12.7878333"><ele>700.0</ele><time>2026-04-18T11:25:26.028Z</time></trkpt><trkpt lat="43.2430267" lon="12.7876867"><ele>700.0</ele><time>2026-04-18T11:25:27.028Z</time></trkpt><trkpt lat="43.2429633" lon="12.7875417"><ele>700.0</ele><time>2026-04-18T11:25:28.028Z</time></trkpt><trkpt lat="43.24288" lon="12.787395"><ele>696.0</ele><time>2026-04-18T11:25:29.028Z</time></trkpt><trkpt lat="43.24279" lon="12.7872667"><ele>692.0</ele><time>2026-04-18T11:25:30.028Z</time></trkpt><trkpt lat="43.2426933" lon="12.7871417"><ele>688.0</ele><time>2026-04-18T11:25:31.028Z</time></trkpt><trkpt lat="43.242605" lon="12.7870117"><ele>684.0</ele><time>2026-04-18T11:25:32.028Z</time></trkpt><trkpt lat="43.242525" lon="12.786875"><ele>678.5</ele><time>2026-04-18T11:25:33.028Z</time></trkpt><trkpt lat="43.2424667" lon="12.7867267"><ele>673.0</ele><time>2026-04-18T11:25:34.028Z</time></trkpt><trkpt lat="43.2424083" lon="12.7865733"><ele>667.5</ele><time>2026-04-18T11:25:35.028Z</time></trkpt><trkpt lat="43.24236" lon="12.786425"><ele>662.0</ele><time>2026-04-18T11:25:36.029Z</time></trkpt><trkpt lat="43.2423067" lon="12.7862917"><ele>663.0</ele><time>2026-04-18T11:25:37.028Z</time></trkpt><trkpt lat="43.24225" lon="12.786175"><ele>664.0</ele><time>2026-04-18T11:25:38.028Z</time></trkpt><trkpt lat="43.2421917" lon="12.7860917"><ele>665.0</ele><time>2026-04-18T11:25:39.028Z</time></trkpt><trkpt lat="43.242115" lon="12.786055"><ele>666.0</ele><time>2026-04-18T11:25:40.028Z</time></trkpt><trkpt lat="43.2420417" lon="12.7860683"><ele>667.0</ele><time>2026-04-18T11:25:41.029Z</time></trkpt><trkpt lat="43.24198" lon="12.7861567"><ele>668.0</ele><time>2026-04-18T11:25:42.028Z</time></trkpt><trkpt lat="43.2419333" lon="12.7862617"><ele>668.0</ele><time>2026-04-18T11:25:43.028Z</time></trkpt><trkpt lat="43.2418817" lon="12.7863617"><ele>668.0</ele><time>2026-04-18T11:25:44.028Z</time></trkpt><trkpt lat="43.2418083" lon="12.786455"><ele>668.0</ele><time>2026-04-18T11:25:45.028Z</time></trkpt><trkpt lat="43.241695" lon="12.7865217"><ele>668.0</ele><time>2026-04-18T11:25:46.028Z</time></trkpt><trkpt lat="43.24157" lon="12.7865617"><ele>668.0</ele><time>2026-04-18T11:25:47.028Z</time></trkpt><trkpt lat="43.2414433" lon="12.78659"><ele>664.25</ele><time>2026-04-18T11:25:48.029Z</time></trkpt><trkpt lat="43.2413233" lon="12.7865983"><ele>660.5</ele><time>2026-04-18T11:25:49.028Z</time></trkpt><trkpt lat="43.2412083" lon="12.78659"><ele>656.75</ele><time>2026-04-18T11:25:50.028Z</time></trkpt><trkpt lat="43.2410933" lon="12.78655"><ele>653.0</ele><time>2026-04-18T11:25:51.029Z</time></trkpt><trkpt lat="43.24099" lon="12.786515"><ele>653.0</ele><time>2026-04-18T11:25:52.028Z</time></trkpt><trkpt lat="43.2408783" lon="12.78648"><ele>653.0</ele><time>2026-04-18T11:25:53.028Z</time></trkpt><trkpt lat="43.240775" lon="12.78646"><ele>653.0</ele><time>2026-04-18T11:25:54.028Z</time></trkpt><trkpt lat="43.2406817" lon="12.78645"><ele>653.0</ele><time>2026-04-18T11:25:55.028Z</time></trkpt><trkpt lat="43.2406" lon="12.7864183"><ele>653.0</ele><time>2026-04-18T11:25:56.029Z</time></trkpt><trkpt lat="43.2405317" lon="12.7863783"><ele>653.0000000000001</ele><time>2026-04-18T11:25:57.028Z</time></trkpt><trkpt lat="43.2404783" lon="12.7863067"><ele>653.0</ele><time>2026-04-18T11:25:58.028Z</time></trkpt><trkpt lat="43.2404617" lon="12.7862067"><ele>653.0</ele><time>2026-04-18T11:25:59.028Z</time></trkpt><trkpt lat="43.2404767" lon="12.786105"><ele>653.0</ele><time>2026-04-18T11:26:00.028Z</time></trkpt><trkpt lat="43.2405383" lon="12.7860283"><ele>653.0</ele><time>2026-04-18T11:26:01.028Z</time></trkpt><trkpt lat="43.2406033" lon="12.785995"><ele>653.0000000000001</ele><time>2026-04-18T11:26:02.028Z</time></trkpt><trkpt lat="43.24067" lon="12.7859983"><ele>653.0</ele><time>2026-04-18T11:26:03.028Z</time></trkpt><trkpt lat="43.2407583" lon="12.7860233"><ele>653.0</ele><time>2026-04-18T11:26:04.029Z</time></trkpt><trkpt lat="43.2408683" lon="12.7860667"><ele>653.0</ele><time>2026-04-18T11:26:05.028Z</time></trkpt><trkpt lat="43.2409733" lon="12.786105"><ele>653.0</ele><time>2026-04-18T11:26:06.028Z</time></trkpt><trkpt lat="43.241075" lon="12.786115"><ele>653.0</ele><time>2026-04-18T11:26:07.029Z</time></trkpt><trkpt lat="43.24118" lon="12.7861017"><ele>653.0</ele><time>2026-04-18T11:26:08.028Z</time></trkpt><trkpt lat="43.241275" lon="12.786025"><ele>652.5999999999999</ele><time>2026-04-18T11:26:09.028Z</time></trkpt><trkpt lat="43.241355" lon="12.7859183"><ele>652.1999999999999</ele><time>2026-04-18T11:26:10.029Z</time></trkpt><trkpt lat="43.2414217" lon="12.7858033"><ele>651.8</ele><time>2026-04-18T11:26:11.028Z</time></trkpt><trkpt lat="43.2414717" lon="12.7856767"><ele>651.4</ele><time>2026-04-18T11:26:12.028Z</time></trkpt><trkpt lat="43.241515" lon="12.785555"><ele>651.0</ele><time>2026-04-18T11:26:13.028Z</time></trkpt><trkpt lat="43.241515" lon="12.7854167"><ele>651.0</ele><time>2026-04-18T11:26:14.029Z</time></trkpt><trkpt lat="43.2414917" lon="12.78527"><ele>651.0</ele><time>2026-04-18T11:26:15.028Z</time></trkpt><trkpt lat="43.2414517" lon="12.7851283"><ele>651.0</ele><time>2026-04-18T11:26:16.028Z</time></trkpt><trkpt lat="43.2414167" lon="12.78497"><ele>651.0</ele><time>2026-04-18T11:26:17.028Z</time></trkpt><trkpt lat="43.2413983" lon="12.78481"><ele>645.0</ele><time>2026-04-18T11:26:18.028Z</time></trkpt><trkpt lat="43.2413983" lon="12.7846467"><ele>639.0</ele><time>2026-04-18T11:26:19.028Z</time></trkpt><trkpt lat="43.2414033" lon="12.7844917"><ele>633.0</ele><time>2026-04-18T11:26:20.028Z</time></trkpt><trkpt lat="43.2414267" lon="12.784345"><ele>627.0</ele><time>2026-04-18T11:26:21.028Z</time></trkpt><trkpt lat="43.24149" lon="12.7842217"><ele>627.0</ele><time>2026-04-18T11:26:22.028Z</time></trkpt><trkpt lat="43.2415567" lon="12.7841317"><ele>627.0</ele><time>2026-04-18T11:26:23.028Z</time></trkpt><trkpt lat="43.2416183" lon="12.7840517"><ele>627.0</ele><time>2026-04-18T11:26:24.029Z</time></trkpt><trkpt lat="43.241655" lon="12.78396"><ele>627.0</ele><time>2026-04-18T11:26:25.029Z</time></trkpt><trkpt lat="43.2416617" lon="12.783865"><ele>627.0</ele><time>2026-04-18T11:26:26.028Z</time></trkpt><trkpt lat="43.241625" lon="12.7837733"><ele>627.0</ele><time>2026-04-18T11:26:27.028Z</time></trkpt><trkpt lat="43.2415633" lon="12.7837"><ele>627.0</ele><time>2026-04-18T11:26:28.028Z</time></trkpt><trkpt lat="43.2414933" lon="12.7836533"><ele>627.0</ele><time>2026-04-18T11:26:29.028Z</time></trkpt><trkpt lat="43.2414183" lon="12.7836467"><ele>627.0</ele><time>2026-04-18T11:26:30.028Z</time></trkpt><trkpt lat="43.2413333" lon="12.7837017"><ele>627.0</ele><time>2026-04-18T11:26:31.028Z</time></trkpt><trkpt lat="43.2412667" lon="12.7837933"><ele>627.0</ele><time>2026-04-18T11:26:32.028Z</time></trkpt><trkpt lat="43.2412117" lon="12.78392"><ele>627.0</ele><time>2026-04-18T11:26:33.028Z</time></trkpt><trkpt lat="43.2411733" lon="12.78407"><ele>626.0</ele><time>2026-04-18T11:26:34.029Z</time></trkpt><trkpt lat="43.2411317" lon="12.784215"><ele>625.0</ele><time>2026-04-18T11:26:35.028Z</time></trkpt><trkpt lat="43.241085" lon="12.7843567"><ele>624.0</ele><time>2026-04-18T11:26:36.028Z</time></trkpt><trkpt lat="43.241035" lon="12.7844867"><ele>623.0</ele><time>2026-04-18T11:26:37.028Z</time></trkpt><trkpt lat="43.2409867" lon="12.784615"><ele>622.0</ele><time>2026-04-18T11:26:38.029Z</time></trkpt><trkpt lat="43.2409417" lon="12.784745"><ele>622.0</ele><time>2026-04-18T11:26:39.028Z</time></trkpt><trkpt lat="43.2408933" lon="12.7848567"><ele>622.0</ele><time>2026-04-18T11:26:40.028Z</time></trkpt><trkpt lat="43.2408483" lon="12.784945"><ele>622.0</ele><time>2026-04-18T11:26:41.028Z</time></trkpt><trkpt lat="43.2407917" lon="12.785005"><ele>622.0</ele><time>2026-04-18T11:26:42.028Z</time></trkpt><trkpt lat="43.24072" lon="12.7850283"><ele>622.0</ele><time>2026-04-18T11:26:43.028Z</time></trkpt><trkpt lat="43.2406233" lon="12.785"><ele>622.0</ele><time>2026-04-18T11:26:44.028Z</time></trkpt><trkpt lat="43.2405317" lon="12.7849567"><ele>619.75</ele><time>2026-04-18T11:26:45.028Z</time></trkpt><trkpt lat="43.240415" lon="12.78489"><ele>617.5</ele><time>2026-04-18T11:26:46.028Z</time></trkpt><trkpt lat="43.24031" lon="12.7848033"><ele>615.25</ele><time>2026-04-18T11:26:47.028Z</time></trkpt><trkpt lat="43.2402133" lon="12.78472"><ele>613.0</ele><time>2026-04-18T11:26:48.028Z</time></trkpt><trkpt lat="43.2401183" lon="12.7846367"><ele>613.0</ele><time>2026-04-18T11:26:49.029Z</time></trkpt><trkpt lat="43.2400267" lon="12.7845583"><ele>613.0</ele><time>2026-04-18T11:26:50.028Z</time></trkpt><trkpt lat="43.2399317" lon="12.784485"><ele>613.0</ele><time>2026-04-18T11:26:51.029Z</time></trkpt><trkpt lat="43.2398383" lon="12.7844217"><ele>613.0</ele><time>2026-04-18T11:26:52.028Z</time></trkpt><trkpt lat="43.2397483" lon="12.7843683"><ele>613.0</ele><time>2026-04-18T11:26:53.028Z</time></trkpt><trkpt lat="43.239655" lon="12.7843283"><ele>610.0</ele><time>2026-04-18T11:26:54.028Z</time></trkpt><trkpt lat="43.2395633" lon="12.7843"><ele>607.0</ele><time>2026-04-18T11:26:55.028Z</time></trkpt><trkpt lat="43.2394567" lon="12.7843033"><ele>604.0</ele><time>2026-04-18T11:26:56.028Z</time></trkpt><trkpt lat="43.239355" lon="12.7843317"><ele>601.0</ele><time>2026-04-18T11:26:57.028Z</time></trkpt><trkpt lat="43.23926" lon="12.7843833"><ele>598.0</ele><time>2026-04-18T11:26:58.029Z</time></trkpt><trkpt lat="43.2391717" lon="12.7844533"><ele>598.0</ele><time>2026-04-18T11:26:59.028Z</time></trkpt><trkpt lat="43.2390967" lon="12.784545"><ele>598.0</ele><time>2026-04-18T11:27:00.028Z</time></trkpt><trkpt lat="43.2390367" lon="12.7846667"><ele>598.0</ele><time>2026-04-18T11:27:01.028Z</time></trkpt><trkpt lat="43.2389783" lon="12.7848117"><ele>598.0</ele><time>2026-04-18T11:27:02.028Z</time></trkpt><trkpt lat="43.23893" lon="12.7849633"><ele>598.0</ele><time>2026-04-18T11:27:03.028Z</time></trkpt><trkpt lat="43.2388667" lon="12.78509"><ele>596.5</ele><time>2026-04-18T11:27:04.028Z</time></trkpt><trkpt lat="43.2387967" lon="12.78521"><ele>595.0</ele><time>2026-04-18T11:27:05.028Z</time></trkpt><trkpt lat="43.2387033" lon="12.7853317"><ele>593.5</ele><time>2026-04-18T11:27:06.028Z</time></trkpt><trkpt lat="43.2385983" lon="12.78543"><ele>592.0</ele><time>2026-04-18T11:27:07.028Z</time></trkpt><trkpt lat="43.2384817" lon="12.7855267"><ele>592.0</ele><time>2026-04-18T11:27:08.028Z</time></trkpt><trkpt lat="43.2383533" lon="12.7856067"><ele>592.0</ele><time>2026-04-18T11:27:09.029Z</time></trkpt><trkpt lat="43.238235" lon="12.785655"><ele>592.0</ele><time>2026-04-18T11:27:10.028Z</time></trkpt><trkpt lat="43.2381033" lon="12.7857033"><ele>592.0</ele><time>2026-04-18T11:27:11.028Z</time></trkpt><trkpt lat="43.2379633" lon="12.7857317"><ele>591.6666666666667</ele><time>2026-04-18T11:27:12.028Z</time></trkpt><trkpt lat="43.2378167" lon="12.7857467"><ele>591.3333333333334</ele><time>2026-04-18T11:27:13.029Z</time></trkpt><trkpt lat="43.237665" lon="12.78577"><ele>591.0</ele><time>2026-04-18T11:27:14.028Z</time></trkpt><trkpt lat="43.2375" lon="12.785795"><ele>591.0</ele><time>2026-04-18T11:27:15.028Z</time></trkpt><trkpt lat="43.2373233" lon="12.7858233"><ele>591.0</ele><time>2026-04-18T11:27:16.028Z</time></trkpt><trkpt lat="43.2371483" lon="12.7858583"><ele>591.0</ele><time>2026-04-18T11:27:17.028Z</time></trkpt><trkpt lat="43.2369717" lon="12.7858917"><ele>591.3333333333334</ele><time>2026-04-18T11:27:18.028Z</time></trkpt><trkpt lat="43.2368017" lon="12.7859217"><ele>591.6666666666667</ele><time>2026-04-18T11:27:19.029Z</time></trkpt><trkpt lat="43.2366467" lon="12.7859517"><ele>592.0</ele><time>2026-04-18T11:27:20.029Z</time></trkpt><trkpt lat="43.2364967" lon="12.7859767"><ele>592.25</ele><time>2026-04-18T11:27:21.028Z</time></trkpt><trkpt lat="43.236355" lon="12.786"><ele>592.5</ele><time>2026-04-18T11:27:22.028Z</time></trkpt><trkpt lat="43.236225" lon="12.7860267"><ele>592.75</ele><time>2026-04-18T11:27:23.028Z</time></trkpt><trkpt lat="43.23611" lon="12.78605"><ele>593.0</ele><time>2026-04-18T11:27:24.029Z</time></trkpt><trkpt lat="43.2360067" lon="12.7860833"><ele>593.0</ele><time>2026-04-18T11:27:25.028Z</time></trkpt><trkpt lat="43.2359283" lon="12.7861233"><ele>593.0</ele><time>2026-04-18T11:27:26.028Z</time></trkpt><trkpt lat="43.23586" lon="12.7862017"><ele>593.0</ele><time>2026-04-18T11:27:27.028Z</time></trkpt><trkpt lat="43.2358167" lon="12.786315"><ele>593.0</ele><time>2026-04-18T11:27:28.028Z</time></trkpt><trkpt lat="43.235785" lon="12.7864467"><ele>593.0</ele><time>2026-04-18T11:27:29.028Z</time></trkpt><trkpt lat="43.23577" lon="12.7866"><ele>593.0</ele><time>2026-04-18T11:27:30.029Z</time></trkpt><trkpt lat="43.2357617" lon="12.7867533"><ele>593.0</ele><time>2026-04-18T11:27:31.028Z</time></trkpt><trkpt lat="43.2357533" lon="12.7868933"><ele>593.0</ele><time>2026-04-18T11:27:32.029Z</time></trkpt><trkpt lat="43.2357517" lon="12.7870417"><ele>593.0</ele><time>2026-04-18T11:27:33.029Z</time></trkpt><trkpt lat="43.235745" lon="12.7871933"><ele>593.0</ele><time>2026-04-18T11:27:34.028Z</time></trkpt><trkpt lat="43.2357333" lon="12.7873433"><ele>592.4</ele><time>2026-04-18T11:27:35.028Z</time></trkpt><trkpt lat="43.2357033" lon="12.787485"><ele>591.8</ele><time>2026-04-18T11:27:36.028Z</time></trkpt><trkpt lat="43.2356633" lon="12.7876217"><ele>591.2</ele><time>2026-04-18T11:27:37.028Z</time></trkpt><trkpt lat="43.2356067" lon="12.7877533"><ele>590.6</ele><time>2026-04-18T11:27:38.028Z</time></trkpt><trkpt lat="43.2355433" lon="12.7878817"><ele>590.0</ele><time>2026-04-18T11:27:39.028Z</time></trkpt><trkpt lat="43.235475" lon="12.7880117"><ele>588.2</ele><time>2026-04-18T11:27:40.029Z</time></trkpt><trkpt lat="43.2354033" lon="12.7881317"><ele>586.4</ele><time>2026-04-18T11:27:41.028Z</time></trkpt><trkpt lat="43.2353417" lon="12.78824"><ele>584.6</ele><time>2026-04-18T11:27:42.029Z</time></trkpt><trkpt lat="43.2352767" lon="12.788345"><ele>582.8</ele><time>2026-04-18T11:27:43.028Z</time></trkpt><trkpt lat="43.2352067" lon="12.7884467"><ele>581.0</ele><time>2026-04-18T11:27:44.028Z</time></trkpt><trkpt lat="43.235135" lon="12.788525"><ele>581.0</ele><time>2026-04-18T11:27:45.028Z</time></trkpt><trkpt lat="43.2350483" lon="12.7885817"><ele>581.0</ele><time>2026-04-18T11:27:46.028Z</time></trkpt><trkpt lat="43.2349667" lon="12.78863"><ele>581.0</ele><time>2026-04-18T11:27:47.028Z</time></trkpt><trkpt lat="43.23488" lon="12.7886833"><ele>581.0</ele><time>2026-04-18T11:27:48.028Z</time></trkpt><trkpt lat="43.2347817" lon="12.788735"><ele>581.0</ele><time>2026-04-18T11:27:49.028Z</time></trkpt><trkpt lat="43.2346833" lon="12.78876"><ele>578.6</ele><time>2026-04-18T11:27:50.029Z</time></trkpt><trkpt lat="43.23458" lon="12.7887817"><ele>576.2</ele><time>2026-04-18T11:27:51.029Z</time></trkpt><trkpt lat="43.234485" lon="12.7888183"><ele>573.8</ele><time>2026-04-18T11:27:52.029Z</time></trkpt><trkpt lat="43.23439" lon="12.7888533"><ele>571.4</ele><time>2026-04-18T11:27:53.028Z</time></trkpt><trkpt lat="43.2342917" lon="12.7888933"><ele>569.0</ele><time>2026-04-18T11:27:54.029Z</time></trkpt><trkpt lat="43.2341983" lon="12.788925"><ele>569.0</ele><time>2026-04-18T11:27:55.028Z</time></trkpt><trkpt lat="43.2341083" lon="12.788955"><ele>569.0</ele><time>2026-04-18T11:27:56.029Z</time></trkpt><trkpt lat="43.2340183" lon="12.7889867"><ele>569.0</ele><time>2026-04-18T11:27:57.028Z</time></trkpt><trkpt lat="43.2339383" lon="12.7890133"><ele>569.0</ele><time>2026-04-18T11:27:58.028Z</time></trkpt><trkpt lat="43.2338433" lon="12.78903"><ele>569.0</ele><time>2026-04-18T11:28:00.028Z</time></trkpt><trkpt lat="43.2337833" lon="12.7889767"><ele>569.0</ele><time>2026-04-18T11:28:03.028Z</time></trkpt><trkpt lat="43.2337667" lon="12.788885"><ele>567.6</ele><time>2026-04-18T11:28:05.028Z</time></trkpt><trkpt lat="43.2337717" lon="12.7887483"><ele>566.2</ele><time>2026-04-18T11:28:07.028Z</time></trkpt><trkpt lat="43.2337867" lon="12.7886"><ele>564.8000000000001</ele><time>2026-04-18T11:28:09.028Z</time></trkpt><trkpt lat="43.233785" lon="12.7884317"><ele>563.4</ele><time>2026-04-18T11:28:11.029Z</time></trkpt><trkpt lat="43.2337817" lon="12.7883417"><ele>562.0</ele><time>2026-04-18T11:28:12.028Z</time></trkpt><trkpt lat="43.23378" lon="12.788245"><ele>562.0</ele><time>2026-04-18T11:28:13.028Z</time></trkpt><trkpt lat="43.2337867" lon="12.7881533"><ele>562.0</ele><time>2026-04-18T11:28:14.029Z</time></trkpt><trkpt lat="43.2337717" lon="12.7880617"><ele>562.0</ele><time>2026-04-18T11:28:15.028Z</time></trkpt><trkpt lat="43.2337117" lon="12.7879133"><ele>562.0</ele><time>2026-04-18T11:28:17.028Z</time></trkpt><trkpt lat="43.2336867" lon="12.7878217"><ele>562.0</ele><time>2026-04-18T11:28:18.029Z</time></trkpt><trkpt lat="43.2336683" lon="12.7877233"><ele>562.0</ele><time>2026-04-18T11:28:19.028Z</time></trkpt><trkpt lat="43.2336567" lon="12.7876233"><ele>561.1428571428572</ele><time>2026-04-18T11:28:20.028Z</time></trkpt><trkpt lat="43.233645" lon="12.7875233"><ele>560.2857142857143</ele><time>2026-04-18T11:28:21.028Z</time></trkpt><trkpt lat="43.2336383" lon="12.7874283"><ele>559.4285714285714</ele><time>2026-04-18T11:28:22.028Z</time></trkpt><trkpt lat="43.23363" lon="12.78734"><ele>558.5714285714287</ele><time>2026-04-18T11:28:23.028Z</time></trkpt><trkpt lat="43.2336267" lon="12.7872433"><ele>557.7142857142858</ele><time>2026-04-18T11:28:24.028Z</time></trkpt><trkpt lat="43.233615" lon="12.7871383"><ele>556.8571428571429</ele><time>2026-04-18T11:28:25.028Z</time></trkpt><trkpt lat="43.2336117" lon="12.7870333"><ele>556.0</ele><time>2026-04-18T11:28:26.029Z</time></trkpt><trkpt lat="43.2336" lon="12.78692"><ele>554.8333333333334</ele><time>2026-04-18T11:28:27.028Z</time></trkpt><trkpt lat="43.2335883" lon="12.78682"><ele>553.6666666666667</ele><time>2026-04-18T11:28:28.028Z</time></trkpt><trkpt lat="43.2335617" lon="12.78672"><ele>552.5</ele><time>2026-04-18T11:28:29.028Z</time></trkpt><trkpt lat="43.233525" lon="12.7866167"><ele>551.3333333333334</ele><time>2026-04-18T11:28:30.029Z</time></trkpt><trkpt lat="43.2334883" lon="12.7865233"><ele>550.1666666666666</ele><time>2026-04-18T11:28:31.028Z</time></trkpt><trkpt lat="43.2334533" lon="12.7864183"><ele>549.0</ele><time>2026-04-18T11:28:32.029Z</time></trkpt><trkpt lat="43.2334083" lon="12.78632"><ele>549.0</ele><time>2026-04-18T11:28:33.028Z</time></trkpt><trkpt lat="43.233365" lon="12.7862367"><ele>549.0</ele><time>2026-04-18T11:28:34.028Z</time></trkpt><trkpt lat="43.2333117" lon="12.7861333"><ele>549.0</ele><time>2026-04-18T11:28:35.028Z</time></trkpt><trkpt lat="43.2332533" lon="12.7860483"><ele>549.0</ele><time>2026-04-18T11:28:36.028Z</time></trkpt><trkpt lat="43.233205" lon="12.7859667"><ele>549.0</ele><time>2026-04-18T11:28:37.028Z</time></trkpt><trkpt lat="43.2331467" lon="12.7858867"><ele>549.0</ele><time>2026-04-18T11:28:38.029Z</time></trkpt><trkpt lat="43.233095" lon="12.7858133"><ele>547.8</ele><time>2026-04-18T11:28:39.028Z</time></trkpt><trkpt lat="43.2330483" lon="12.7857417"><ele>546.5999999999999</ele><time>2026-04-18T11:28:40.028Z</time></trkpt><trkpt lat="43.2329733" lon="12.7856167"><ele>545.4</ele><time>2026-04-18T11:28:42.028Z</time></trkpt><trkpt lat="43.2329033" lon="12.78552"><ele>544.1999999999999</ele><time>2026-04-18T11:28:44.029Z</time></trkpt><trkpt lat="43.23282" lon="12.7854067"><ele>543.0</ele><time>2026-04-18T11:28:46.028Z</time></trkpt><trkpt lat="43.23278" lon="12.7853383"><ele>543.0</ele><time>2026-04-18T11:28:47.029Z</time></trkpt><trkpt lat="43.23272" lon="12.7852317"><ele>543.0</ele><time>2026-04-18T11:28:49.027Z</time></trkpt><trkpt lat="43.2326883" lon="12.7851217"><ele>543.0</ele><time>2026-04-18T11:28:53.027Z</time></trkpt><trkpt lat="43.2326433" lon="12.7850433"><ele>543.0</ele><time>2026-04-18T11:28:56.027Z</time></trkpt><trkpt lat="43.2325667" lon="12.7849683"><ele>543.0</ele><time>2026-04-18T11:28:59.027Z</time></trkpt><trkpt lat="43.23247" lon="12.78489"><ele>542.1666666666666</ele><time>2026-04-18T11:29:01.027Z</time></trkpt><trkpt lat="43.23237" lon="12.7847917"><ele>541.3333333333334</ele><time>2026-04-18T11:29:03.027Z</time></trkpt><trkpt lat="43.232325" lon="12.78472"><ele>540.5</ele><time>2026-04-18T11:29:04.028Z</time></trkpt><trkpt lat="43.2322767" lon="12.7846583"><ele>539.6666666666667</ele><time>2026-04-18T11:29:05.027Z</time></trkpt><trkpt lat="43.2322233" lon="12.7845983"><ele>538.8333333333334</ele><time>2026-04-18T11:29:06.027Z</time></trkpt><trkpt lat="43.2321667" lon="12.78455"><ele>538.0</ele><time>2026-04-18T11:29:07.027Z</time></trkpt><trkpt lat="43.2320833" lon="12.7844367"><ele>535.6</ele><time>2026-04-18T11:29:09.027Z</time></trkpt><trkpt lat="43.2320017" lon="12.7843267"><ele>533.1999999999999</ele><time>2026-04-18T11:29:11.027Z</time></trkpt><trkpt lat="43.2319133" lon="12.78419"><ele>530.8</ele><time>2026-04-18T11:29:13.027Z</time></trkpt><trkpt lat="43.2318733" lon="12.784115"><ele>528.4</ele><time>2026-04-18T11:29:14.028Z</time></trkpt><trkpt lat="43.2318333" lon="12.7840267"><ele>526.0</ele><time>2026-04-18T11:29:15.027Z</time></trkpt><trkpt lat="43.23178" lon="12.7839583"><ele>526.0</ele><time>2026-04-18T11:29:16.028Z</time></trkpt><trkpt lat="43.2317233" lon="12.7838883"><ele>526.0</ele><time>2026-04-18T11:29:17.027Z</time></trkpt><trkpt lat="43.2316767" lon="12.7838083"><ele>526.0</ele><time>2026-04-18T11:29:18.028Z</time></trkpt><trkpt lat="43.2316433" lon="12.7837333"><ele>526.0</ele><time>2026-04-18T11:29:19.027Z</time></trkpt><trkpt lat="43.23159" lon="12.78365"><ele>526.0</ele><time>2026-04-18T11:29:21.028Z</time></trkpt><trkpt lat="43.2315383" lon="12.7835317"><ele>526.0</ele><time>2026-04-18T11:29:30.028Z</time></trkpt><trkpt lat="43.2314733" lon="12.7833867"><ele>527.0</ele><time>2026-04-18T11:29:32.027Z</time></trkpt><trkpt lat="43.2314383" lon="12.7833067"><ele>528.0</ele><time>2026-04-18T11:29:33.027Z</time></trkpt><trkpt lat="43.2314133" lon="12.7832267"><ele>529.0</ele><time>2026-04-18T11:29:34.027Z</time></trkpt><trkpt lat="43.2313717" lon="12.7830933"><ele>530.0</ele><time>2026-04-18T11:29:36.027Z</time></trkpt><trkpt lat="43.2313417" lon="12.7830067"><ele>531.0</ele><time>2026-04-18T11:29:38.028Z</time></trkpt><trkpt lat="43.23131" lon="12.7829183"><ele>532.0</ele><time>2026-04-18T11:29:40.027Z</time></trkpt><trkpt lat="43.2312767" lon="12.7827967"><ele>530.6</ele><time>2026-04-18T11:29:42.028Z</time></trkpt><trkpt lat="43.23124" lon="12.7826367"><ele>529.2</ele><time>2026-04-18T11:29:44.027Z</time></trkpt><trkpt lat="43.2311917" lon="12.7824783"><ele>527.8</ele><time>2026-04-18T11:29:46.027Z</time></trkpt><trkpt lat="43.2311667" lon="12.7823967"><ele>526.4</ele><time>2026-04-18T11:29:47.027Z</time></trkpt><trkpt lat="43.2311383" lon="12.7823167"><ele>525.0</ele><time>2026-04-18T11:29:48.027Z</time></trkpt><trkpt lat="43.2310783" lon="12.782195"><ele>525.0</ele><time>2026-04-18T11:29:50.027Z</time></trkpt><trkpt lat="43.23098" lon="12.7821483"><ele>525.0</ele><time>2026-04-18T11:29:52.027Z</time></trkpt><trkpt lat="43.23088" lon="12.78216"><ele>525.0</ele><time>2026-04-18T11:29:54.027Z</time></trkpt><trkpt lat="43.2308217" lon="12.7822233"><ele>525.0</ele><time>2026-04-18T11:29:56.027Z</time></trkpt><trkpt lat="43.2307867" lon="12.7823117"><ele>525.0</ele><time>2026-04-18T11:29:59.027Z</time></trkpt><trkpt lat="43.230775" lon="12.782415"><ele>525.0</ele><time>2026-04-18T11:30:01.028Z</time></trkpt><trkpt lat="43.23077" lon="12.7825417"><ele>525.0</ele><time>2026-04-18T11:30:03.027Z</time></trkpt><trkpt lat="43.230745" lon="12.782675"><ele>525.0</ele><time>2026-04-18T11:30:05.027Z</time></trkpt><trkpt lat="43.2307317" lon="12.7827967"><ele>525.0</ele><time>2026-04-18T11:30:07.027Z</time></trkpt><trkpt lat="43.2307367" lon="12.782915"><ele>525.0</ele><time>2026-04-18T11:30:09.028Z</time></trkpt><trkpt lat="43.2307633" lon="12.7830317"><ele>525.0</ele><time>2026-04-18T11:30:11.028Z</time></trkpt><trkpt lat="43.2307733" lon="12.7831417"><ele>525.0</ele><time>2026-04-18T11:30:13.027Z</time></trkpt><trkpt lat="43.23077" lon="12.7832433"><ele>526.1666666666666</ele><time>2026-04-18T11:30:16.027Z</time></trkpt><trkpt lat="43.23085" lon="12.78331"><ele>527.3333333333334</ele><time>2026-04-18T11:32:32.027Z</time></trkpt><trkpt lat="43.2308767" lon="12.7834333"><ele>528.5</ele><time>2026-04-18T11:32:35.027Z</time></trkpt><trkpt lat="43.23089" lon="12.7835467"><ele>529.6666666666667</ele><time>2026-04-18T11:32:37.028Z</time></trkpt><trkpt lat="43.2309067" lon="12.78364"><ele>530.8333333333334</ele><time>2026-04-18T11:32:39.027Z</time></trkpt><trkpt lat="43.2309367" lon="12.7837533"><ele>532.0</ele><time>2026-04-18T11:32:42.027Z</time></trkpt><trkpt lat="43.2309583" lon="12.7838467"><ele>532.6666666666667</ele><time>2026-04-18T11:32:44.027Z</time></trkpt><trkpt lat="43.2309833" lon="12.7839517"><ele>533.3333333333334</ele><time>2026-04-18T11:32:46.027Z</time></trkpt><trkpt lat="43.2310133" lon="12.7840467"><ele>534.0</ele><time>2026-04-18T11:32:48.027Z</time></trkpt><trkpt lat="43.2310367" lon="12.78416"><ele>534.6666666666666</ele><time>2026-04-18T11:32:50.027Z</time></trkpt><trkpt lat="43.23105" lon="12.7842567"><ele>535.3333333333333</ele><time>2026-04-18T11:32:52.027Z</time></trkpt><trkpt lat="43.2310667" lon="12.784355"><ele>536.0</ele><time>2026-04-18T11:32:54.027Z</time></trkpt><trkpt lat="43.2310917" lon="12.7844367"><ele>536.0</ele><time>2026-04-18T11:32:56.027Z</time></trkpt><trkpt lat="43.231095" lon="12.7845283"><ele>536.0</ele><time>2026-04-18T11:32:58.027Z</time></trkpt><trkpt lat="43.2311" lon="12.7846267"><ele>536.0</ele><time>2026-04-18T11:33:02.027Z</time></trkpt><trkpt lat="43.2311283" lon="12.78471"><ele>536.0</ele><time>2026-04-18T11:33:06.028Z</time></trkpt><trkpt lat="43.2311667" lon="12.784805"><ele>536.0</ele><time>2026-04-18T11:33:11.027Z</time></trkpt><trkpt lat="43.231185" lon="12.7848883"><ele>536.0</ele><time>2026-04-18T11:33:23.028Z</time></trkpt><trkpt lat="43.2312133" lon="12.7849783"><ele>536.0</ele><time>2026-04-18T11:33:27.027Z</time></trkpt><trkpt lat="43.2312867" lon="12.784965"><ele>536.0</ele><time>2026-04-18T11:33:31.027Z</time></trkpt><trkpt lat="43.2313633" lon="12.784975"><ele>536.0</ele><time>2026-04-18T11:33:34.027Z</time></trkpt><trkpt lat="43.231435" lon="12.78499"><ele>536.0</ele><time>2026-04-18T11:33:37.027Z</time></trkpt><trkpt lat="43.2315217" lon="12.7850033"><ele>536.0</ele><time>2026-04-18T11:33:40.027Z</time></trkpt><trkpt lat="43.2316033" lon="12.7850117"><ele>536.0</ele><time>2026-04-18T11:33:42.027Z</time></trkpt><trkpt lat="43.2316667" lon="12.7850267"><ele>536.0</ele><time>2026-04-18T11:33:44.026Z</time></trkpt><trkpt lat="43.23176" lon="12.78507"><ele>536.3333333333333</ele><time>2026-04-18T11:33:45.026Z</time></trkpt><trkpt lat="43.23183" lon="12.7851533"><ele>536.6666666666666</ele><time>2026-04-18T11:33:48.026Z</time></trkpt><trkpt lat="43.23189" lon="12.7852167"><ele>537.0</ele><time>2026-04-18T11:33:50.027Z</time></trkpt><trkpt lat="43.2319717" lon="12.7852933"><ele>537.3333333333334</ele><time>2026-04-18T11:33:52.027Z</time></trkpt><trkpt lat="43.232035" lon="12.7853433"><ele>537.6666666666667</ele><time>2026-04-18T11:33:54.026Z</time></trkpt><trkpt lat="43.232115" lon="12.7853867"><ele>538.0</ele><time>2026-04-18T11:33:58.026Z</time></trkpt><trkpt lat="43.2322" lon="12.7853783"><ele>538.8333333333334</ele><time>2026-04-18T11:34:00.026Z</time></trkpt><trkpt lat="43.2322767" lon="12.7853517"><ele>539.6666666666667</ele><time>2026-04-18T11:34:02.026Z</time></trkpt><trkpt lat="43.2323917" lon="12.7852967"><ele>540.5</ele><time>2026-04-18T11:34:04.026Z</time></trkpt><trkpt lat="43.232475" lon="12.7852433"><ele>541.3333333333334</ele><time>2026-04-18T11:34:05.026Z</time></trkpt><trkpt lat="43.232535" lon="12.7851917"><ele>542.1666666666666</ele><time>2026-04-18T11:34:06.026Z</time></trkpt><trkpt lat="43.2325883" lon="12.7851317"><ele>543.0</ele><time>2026-04-18T11:34:07.026Z</time></trkpt><trkpt lat="43.2326417" lon="12.7850583"><ele>540.8333333333334</ele><time>2026-04-18T11:34:08.027Z</time></trkpt><trkpt lat="43.2327" lon="12.7849667"><ele>538.6666666666666</ele><time>2026-04-18T11:34:09.027Z</time></trkpt><trkpt lat="43.2327417" lon="12.7848667"><ele>536.5</ele><time>2026-04-18T11:34:10.026Z</time></trkpt><trkpt lat="43.2327783" lon="12.7847667"><ele>534.3333333333333</ele><time>2026-04-18T11:34:11.026Z</time></trkpt><trkpt lat="43.232805" lon="12.7846617"><ele>532.1666666666666</ele><time>2026-04-18T11:34:12.027Z</time></trkpt><trkpt lat="43.2328333" lon="12.784555"><ele>530.0</ele><time>2026-04-18T11:34:13.026Z</time></trkpt><trkpt lat="43.23286" lon="12.7844417"><ele>528.8333333333333</ele><time>2026-04-18T11:34:14.026Z</time></trkpt><trkpt lat="43.2328917" lon="12.784335"><ele>527.6666666666666</ele><time>2026-04-18T11:34:15.026Z</time></trkpt><trkpt lat="43.2329183" lon="12.7842233"><ele>526.5</ele><time>2026-04-18T11:34:16.026Z</time></trkpt><trkpt lat="43.2329483" lon="12.7841167"><ele>525.3333333333334</ele><time>2026-04-18T11:34:17.026Z</time></trkpt><trkpt lat="43.232975" lon="12.7840133"><ele>524.1666666666667</ele><time>2026-04-18T11:34:18.026Z</time></trkpt><trkpt lat="43.2330017" lon="12.7839183"><ele>523.0</ele><time>2026-04-18T11:34:19.026Z</time></trkpt><trkpt lat="43.2330283" lon="12.7838233"><ele>522.9999999999999</ele><time>2026-04-18T11:34:20.026Z</time></trkpt><trkpt lat="43.233055" lon="12.783735"><ele>523.0</ele><time>2026-04-18T11:34:21.026Z</time></trkpt><trkpt lat="43.23308" lon="12.783645"><ele>523.0</ele><time>2026-04-18T11:34:22.026Z</time></trkpt><trkpt lat="43.2331067" lon="12.7835533"><ele>523.0</ele><time>2026-04-18T11:34:23.026Z</time></trkpt><trkpt lat="43.2331433" lon="12.7834567"><ele>523.0</ele><time>2026-04-18T11:34:24.026Z</time></trkpt><trkpt lat="43.2331733" lon="12.78336"><ele>522.9999999999999</ele><time>2026-04-18T11:34:25.027Z</time></trkpt><trkpt lat="43.2331983" lon="12.7832633"><ele>523.0</ele><time>2026-04-18T11:34:26.026Z</time></trkpt><trkpt lat="43.2332267" lon="12.7831683"><ele>523.3333333333334</ele><time>2026-04-18T11:34:27.026Z</time></trkpt><trkpt lat="43.2332567" lon="12.7830717"><ele>523.6666666666667</ele><time>2026-04-18T11:34:28.026Z</time></trkpt><trkpt lat="43.2332867" lon="12.7829767"><ele>524.0</ele><time>2026-04-18T11:34:29.026Z</time></trkpt><trkpt lat="43.23333" lon="12.7828883"><ele>524.3333333333334</ele><time>2026-04-18T11:34:30.026Z</time></trkpt><trkpt lat="43.233375" lon="12.7828033"><ele>524.6666666666666</ele><time>2026-04-18T11:34:31.026Z</time></trkpt><trkpt lat="43.2334217" lon="12.782725"><ele>525.0</ele><time>2026-04-18T11:34:32.026Z</time></trkpt><trkpt lat="43.23347" lon="12.782655"><ele>523.0</ele><time>2026-04-18T11:34:33.027Z</time></trkpt><trkpt lat="43.2335183" lon="12.7825933"><ele>521.0</ele><time>2026-04-18T11:34:34.027Z</time></trkpt><trkpt lat="43.2336083" lon="12.7825267"><ele>519.0</ele><time>2026-04-18T11:34:36.027Z</time></trkpt><trkpt lat="43.233665" lon="12.782445"><ele>517.0</ele><time>2026-04-18T11:34:39.026Z</time></trkpt><trkpt lat="43.233725" lon="12.7824"><ele>515.0</ele><time>2026-04-18T11:34:41.026Z</time></trkpt><trkpt lat="43.2337917" lon="12.7823667"><ele>513.0</ele><time>2026-04-18T11:34:43.027Z</time></trkpt><trkpt lat="43.2338617" lon="12.782375"><ele>513.0</ele><time>2026-04-18T11:34:46.026Z</time></trkpt><trkpt lat="43.2339417" lon="12.7822467"><ele>513.0</ele><time>2026-04-18T11:37:03.027Z</time></trkpt><trkpt lat="43.2340067" lon="12.782215"><ele>513.0</ele><time>2026-04-18T11:37:05.026Z</time></trkpt><trkpt lat="43.234005" lon="12.782105"><ele>513.0</ele><time>2026-04-18T11:37:09.026Z</time></trkpt><trkpt lat="43.2339467" lon="12.782015"><ele>513.0</ele><time>2026-04-18T11:37:11.026Z</time></trkpt><trkpt lat="43.2338717" lon="12.78192"><ele>513.0</ele><time>2026-04-18T11:37:13.026Z</time></trkpt><trkpt lat="43.233765" lon="12.7818617"><ele>513.0</ele><time>2026-04-18T11:37:15.026Z</time></trkpt><trkpt lat="43.2336983" lon="12.7818583"><ele>513.0</ele><time>2026-04-18T11:37:16.026Z</time></trkpt><trkpt lat="43.2336317" lon="12.781865"><ele>513.0</ele><time>2026-04-18T11:37:17.027Z</time></trkpt><trkpt lat="43.233555" lon="12.7818817"><ele>513.0</ele><time>2026-04-18T11:37:18.027Z</time></trkpt><trkpt lat="43.2334767" lon="12.7819083"><ele>513.0</ele><time>2026-04-18T11:37:19.026Z</time></trkpt><trkpt lat="43.2333983" lon="12.78195"><ele>513.0</ele><time>2026-04-18T11:37:20.026Z</time></trkpt><trkpt lat="43.2333183" lon="12.781985"><ele>513.0</ele><time>2026-04-18T11:37:21.026Z</time></trkpt><trkpt lat="43.233235" lon="12.7820133"><ele>513.0</ele><time>2026-04-18T11:37:22.026Z</time></trkpt><trkpt lat="43.23315" lon="12.7820483"><ele>513.0</ele><time>2026-04-18T11:37:23.026Z</time></trkpt><trkpt lat="43.233065" lon="12.7820783"><ele>513.0</ele><time>2026-04-18T11:37:24.026Z</time></trkpt><trkpt lat="43.2329917" lon="12.7821317"><ele>513.0</ele><time>2026-04-18T11:37:25.026Z</time></trkpt><trkpt lat="43.232915" lon="12.7821683"><ele>511.8333333333333</ele><time>2026-04-18T11:37:26.027Z</time></trkpt><trkpt lat="43.2328467" lon="12.7822083"><ele>510.66666666666663</ele><time>2026-04-18T11:37:27.026Z</time></trkpt><trkpt lat="43.232775" lon="12.78227"><ele>509.5</ele><time>2026-04-18T11:37:28.027Z</time></trkpt><trkpt lat="43.2327067" lon="12.782325"><ele>508.3333333333333</ele><time>2026-04-18T11:37:29.026Z</time></trkpt><trkpt lat="43.232625" lon="12.7823933"><ele>507.16666666666663</ele><time>2026-04-18T11:37:30.026Z</time></trkpt><trkpt lat="43.232545" lon="12.7824317"><ele>506.0</ele><time>2026-04-18T11:37:31.026Z</time></trkpt><trkpt lat="43.23247" lon="12.7824683"><ele>505.99999999999994</ele><time>2026-04-18T11:37:32.026Z</time></trkpt><trkpt lat="43.2324" lon="12.7825183"><ele>506.0</ele><time>2026-04-18T11:37:33.027Z</time></trkpt><trkpt lat="43.2323417" lon="12.7825533"><ele>506.0</ele><time>2026-04-18T11:37:34.026Z</time></trkpt><trkpt lat="43.2322583" lon="12.7825583"><ele>506.0</ele><time>2026-04-18T11:37:36.026Z</time></trkpt><trkpt lat="43.232195" lon="12.7824733"><ele>505.99999999999994</ele><time>2026-04-18T11:37:39.026Z</time></trkpt><trkpt lat="43.2321783" lon="12.7823567"><ele>506.0</ele><time>2026-04-18T11:37:41.026Z</time></trkpt><trkpt lat="43.2321983" lon="12.7822067"><ele>505.99999999999994</ele><time>2026-04-18T11:37:43.026Z</time></trkpt><trkpt lat="43.2322283" lon="12.78213"><ele>506.0</ele><time>2026-04-18T11:37:44.026Z</time></trkpt><trkpt lat="43.2322783" lon="12.782065"><ele>506.0</ele><time>2026-04-18T11:37:45.026Z</time></trkpt><trkpt lat="43.2323417" lon="12.782005"><ele>506.0</ele><time>2026-04-18T11:37:46.026Z</time></trkpt><trkpt lat="43.23241" lon="12.78194"><ele>505.99999999999994</ele><time>2026-04-18T11:37:47.026Z</time></trkpt><trkpt lat="43.2324967" lon="12.7818683"><ele>506.0</ele><time>2026-04-18T11:37:48.026Z</time></trkpt><trkpt lat="43.2325933" lon="12.7817867"><ele>504.4</ele><time>2026-04-18T11:37:49.026Z</time></trkpt><trkpt lat="43.2326883" lon="12.7817067"><ele>502.8</ele><time>2026-04-18T11:37:50.027Z</time></trkpt><trkpt lat="43.2327833" lon="12.78163"><ele>501.19999999999993</ele><time>2026-04-18T11:37:51.026Z</time></trkpt><trkpt lat="43.2328733" lon="12.7815517"><ele>499.59999999999997</ele><time>2026-04-18T11:37:52.026Z</time></trkpt><trkpt lat="43.232965" lon="12.78148"><ele>498.0</ele><time>2026-04-18T11:37:53.027Z</time></trkpt><trkpt lat="43.2330533" lon="12.7813983"><ele>498.0</ele><time>2026-04-18T11:37:54.026Z</time></trkpt><trkpt lat="43.2331367" lon="12.781315"><ele>497.99999999999994</ele><time>2026-04-18T11:37:55.026Z</time></trkpt><trkpt lat="43.2332183" lon="12.78124"><ele>497.99999999999994</ele><time>2026-04-18T11:37:56.027Z</time></trkpt><trkpt lat="43.2333017" lon="12.781155"><ele>498.0</ele><time>2026-04-18T11:37:57.026Z</time></trkpt><trkpt lat="43.233385" lon="12.7810767"><ele>498.0</ele><time>2026-04-18T11:37:58.026Z</time></trkpt><trkpt lat="43.2334617" lon="12.7810133"><ele>497.0</ele><time>2026-04-18T11:37:59.026Z</time></trkpt><trkpt lat="43.2335383" lon="12.7809417"><ele>496.0</ele><time>2026-04-18T11:38:00.026Z</time></trkpt><trkpt lat="43.2336217" lon="12.7808717"><ele>495.0</ele><time>2026-04-18T11:38:01.026Z</time></trkpt><trkpt lat="43.2336967" lon="12.7808083"><ele>494.0</ele><time>2026-04-18T11:38:02.027Z</time></trkpt><trkpt lat="43.2337617" lon="12.7807367"><ele>493.0</ele><time>2026-04-18T11:38:03.026Z</time></trkpt><trkpt lat="43.2338233" lon="12.78067"><ele>492.0</ele><time>2026-04-18T11:38:04.026Z</time></trkpt><trkpt lat="43.2338983" lon="12.780535"><ele>492.0</ele><time>2026-04-18T11:38:06.026Z</time></trkpt><trkpt lat="43.23389" lon="12.78037"><ele>492.0</ele><time>2026-04-18T11:38:08.026Z</time></trkpt><trkpt lat="43.2338783" lon="12.7802633"><ele>492.0</ele><time>2026-04-18T11:38:09.026Z</time></trkpt><trkpt lat="43.233865" lon="12.78015"><ele>492.0</ele><time>2026-04-18T11:38:10.026Z</time></trkpt><trkpt lat="43.23386" lon="12.78003"><ele>492.0</ele><time>2026-04-18T11:38:11.026Z</time></trkpt><trkpt lat="43.2338567" lon="12.7799217"><ele>492.0</ele><time>2026-04-18T11:38:12.026Z</time></trkpt><trkpt lat="43.2338567" lon="12.7798133"><ele>490.8571428571429</ele><time>2026-04-18T11:38:13.026Z</time></trkpt><trkpt lat="43.2338483" lon="12.7797067"><ele>489.7142857142857</ele><time>2026-04-18T11:38:14.026Z</time></trkpt><trkpt lat="43.233845" lon="12.7796017"><ele>488.57142857142856</ele><time>2026-04-18T11:38:15.026Z</time></trkpt><trkpt lat="43.2338383" lon="12.7795067"><ele>487.42857142857144</ele><time>2026-04-18T11:38:16.026Z</time></trkpt><trkpt lat="43.23383" lon="12.779405"><ele>486.2857142857142</ele><time>2026-04-18T11:38:17.026Z</time></trkpt><trkpt lat="43.2338233" lon="12.7793017"><ele>485.1428571428571</ele><time>2026-04-18T11:38:18.027Z</time></trkpt><trkpt lat="43.2338217" lon="12.7792033"><ele>484.0</ele><time>2026-04-18T11:38:19.026Z</time></trkpt><trkpt lat="43.2338217" lon="12.77911"><ele>483.2857142857143</ele><time>2026-04-18T11:38:20.026Z</time></trkpt><trkpt lat="43.2338167" lon="12.7790233"><ele>482.57142857142856</ele><time>2026-04-18T11:38:21.027Z</time></trkpt><trkpt lat="43.2338133" lon="12.7789283"><ele>481.85714285714283</ele><time>2026-04-18T11:38:22.026Z</time></trkpt><trkpt lat="43.2338083" lon="12.77883"><ele>481.1428571428571</ele><time>2026-04-18T11:38:23.026Z</time></trkpt><trkpt lat="43.23381" lon="12.7787283"><ele>480.42857142857144</ele><time>2026-04-18T11:38:24.026Z</time></trkpt><trkpt lat="43.2338" lon="12.778635"><ele>479.71428571428567</ele><time>2026-04-18T11:38:25.027Z</time></trkpt><trkpt lat="43.2337967" lon="12.7785433"><ele>479.0</ele><time>2026-04-18T11:38:26.026Z</time></trkpt><trkpt lat="43.2337867" lon="12.7784483"><ele>478.8333333333333</ele><time>2026-04-18T11:38:27.026Z</time></trkpt><trkpt lat="43.2337717" lon="12.7783533"><ele>478.66666666666663</ele><time>2026-04-18T11:38:28.026Z</time></trkpt><trkpt lat="43.2337583" lon="12.7781917"><ele>478.5</ele><time>2026-04-18T11:38:30.027Z</time></trkpt><trkpt lat="43.233765" lon="12.7780833"><ele>478.33333333333337</ele><time>2026-04-18T11:38:32.026Z</time></trkpt><trkpt lat="43.2337817" lon="12.7779883"><ele>478.1666666666667</ele><time>2026-04-18T11:38:35.026Z</time></trkpt><trkpt lat="43.233805" lon="12.7778883"><ele>478.0</ele><time>2026-04-18T11:38:38.025Z</time></trkpt><trkpt lat="43.233845" lon="12.7777767"><ele>477.59999999999997</ele><time>2026-04-18T11:38:40.026Z</time></trkpt><trkpt lat="43.23392" lon="12.7776683"><ele>477.19999999999993</ele><time>2026-04-18T11:38:42.026Z</time></trkpt><trkpt lat="43.2340233" lon="12.7775917"><ele>476.8</ele><time>2026-04-18T11:38:44.026Z</time></trkpt><trkpt lat="43.23408" lon="12.777545"><ele>476.4</ele><time>2026-04-18T11:38:45.025Z</time></trkpt><trkpt lat="43.234185" lon="12.7774767"><ele>476.0</ele><time>2026-04-18T11:38:47.025Z</time></trkpt><trkpt lat="43.234275" lon="12.7774333"><ele>475.8333333333333</ele><time>2026-04-18T11:38:49.025Z</time></trkpt><trkpt lat="43.2343317" lon="12.777505"><ele>475.66666666666663</ele><time>2026-04-18T11:38:52.025Z</time></trkpt><trkpt lat="43.2342933" lon="12.77758"><ele>475.5</ele><time>2026-04-18T11:38:54.025Z</time></trkpt><trkpt lat="43.23417" lon="12.7776283"><ele>475.33333333333337</ele><time>2026-04-18T11:38:56.025Z</time></trkpt><trkpt lat="43.2341083" lon="12.7776567"><ele>475.1666666666667</ele><time>2026-04-18T11:38:57.025Z</time></trkpt><trkpt lat="43.2340217" lon="12.7777433"><ele>475.0</ele><time>2026-04-18T11:38:59.025Z</time></trkpt><trkpt lat="43.2339683" lon="12.7778617"><ele>475.6</ele><time>2026-04-18T11:39:01.025Z</time></trkpt><trkpt lat="43.2339217" lon="12.7780017"><ele>476.2</ele><time>2026-04-18T11:39:03.025Z</time></trkpt><trkpt lat="43.2339" lon="12.7781517"><ele>476.79999999999995</ele><time>2026-04-18T11:39:05.025Z</time></trkpt><trkpt lat="43.2339017" lon="12.7782783"><ele>477.4</ele><time>2026-04-18T11:39:07.026Z</time></trkpt><trkpt lat="43.2338983" lon="12.7783683"><ele>478.0</ele><time>2026-04-18T11:39:10.025Z</time></trkpt><trkpt lat="43.2339817" lon="12.7783417"><ele>478.0</ele><time>2026-04-18T11:39:43.025Z</time></trkpt><trkpt lat="43.2340667" lon="12.7783267"><ele>478.0</ele><time>2026-04-18T11:39:45.025Z</time></trkpt><trkpt lat="43.234125" lon="12.7782767"><ele>478.0</ele><time>2026-04-18T11:39:47.026Z</time></trkpt><trkpt lat="43.2341683" lon="12.7781817"><ele>478.0</ele><time>2026-04-18T11:39:49.026Z</time></trkpt><trkpt lat="43.23417" lon="12.77808"><ele>478.0</ele><time>2026-04-18T11:39:51.025Z</time></trkpt><trkpt lat="43.23416" lon="12.7779867"><ele>478.0</ele><time>2026-04-18T11:39:53.025Z</time></trkpt></trkseg><trkseg><trkpt lat="43.2341419" lon="12.7779135"><ele>478.00000000000006</ele><time>2026-04-18T12:36:27Z</time></trkpt><trkpt lat="43.23408" lon="12.777835"><ele>478.0</ele><time>2026-04-18T12:37:54.993Z</time></trkpt><trkpt lat="43.23401" lon="12.7778017"><ele>478.0</ele><time>2026-04-18T12:37:58.993Z</time></trkpt><trkpt lat="43.2339567" lon="12.7778683"><ele>478.0</ele><time>2026-04-18T12:38:00.993Z</time></trkpt><trkpt lat="43.233915" lon="12.7780033"><ele>478.00000000000006</ele><time>2026-04-18T12:38:02.993Z</time></trkpt><trkpt lat="43.2339033" lon="12.7780883"><ele>478.0</ele><time>2026-04-18T12:38:03.993Z</time></trkpt><trkpt lat="43.2339" lon="12.77818"><ele>478.00000000000006</ele><time>2026-04-18T12:38:04.993Z</time></trkpt><trkpt lat="43.2339" lon="12.7782717"><ele>478.0</ele><time>2026-04-18T12:38:05.993Z</time></trkpt><trkpt lat="43.2339067" lon="12.7783583"><ele>478.0</ele><time>2026-04-18T12:38:06.993Z</time></trkpt><trkpt lat="43.2339267" lon="12.778535"><ele>478.0</ele><time>2026-04-18T12:38:08.993Z</time></trkpt><trkpt lat="43.2339317" lon="12.7786383"><ele>478.00000000000006</ele><time>2026-04-18T12:38:09.993Z</time></trkpt><trkpt lat="43.2339383" lon="12.77875"><ele>478.0</ele><time>2026-04-18T12:38:10.993Z</time></trkpt><trkpt lat="43.2339383" lon="12.778845"><ele>478.1666666666667</ele><time>2026-04-18T12:38:11.993Z</time></trkpt><trkpt lat="43.2339267" lon="12.7789733"><ele>478.33333333333337</ele><time>2026-04-18T12:38:13.993Z</time></trkpt><trkpt lat="43.2338633" lon="12.7790183"><ele>478.5</ele><time>2026-04-18T12:38:15.993Z</time></trkpt><trkpt lat="43.2338067" lon="12.7789"><ele>478.66666666666663</ele><time>2026-04-18T12:38:18.993Z</time></trkpt><trkpt lat="43.2338017" lon="12.77881"><ele>478.8333333333333</ele><time>2026-04-18T12:38:19.993Z</time></trkpt><trkpt lat="43.2338017" lon="12.7786967"><ele>479.0</ele><time>2026-04-18T12:38:20.993Z</time></trkpt><trkpt lat="43.23379" lon="12.77857"><ele>478.8333333333333</ele><time>2026-04-18T12:38:21.993Z</time></trkpt><trkpt lat="43.2337767" lon="12.7784417"><ele>478.66666666666663</ele><time>2026-04-18T12:38:22.993Z</time></trkpt><trkpt lat="43.2337633" lon="12.7783183"><ele>478.5</ele><time>2026-04-18T12:38:23.993Z</time></trkpt><trkpt lat="43.233755" lon="12.7782033"><ele>478.33333333333337</ele><time>2026-04-18T12:38:24.993Z</time></trkpt><trkpt lat="43.233755" lon="12.77811"><ele>478.1666666666667</ele><time>2026-04-18T12:38:25.993Z</time></trkpt><trkpt lat="43.233765" lon="12.7779833"><ele>478.0</ele><time>2026-04-18T12:38:27.993Z</time></trkpt><trkpt lat="43.2337867" lon="12.7778683"><ele>478.0</ele><time>2026-04-18T12:38:31.993Z</time></trkpt><trkpt lat="43.2337617" lon="12.7777467"><ele>477.99999999999994</ele><time>2026-04-18T12:38:33.993Z</time></trkpt><trkpt lat="43.2336883" lon="12.777665"><ele>477.99999999999994</ele><time>2026-04-18T12:38:35.993Z</time></trkpt><trkpt lat="43.2335833" lon="12.7777183"><ele>478.0</ele><time>2026-04-18T12:38:37.993Z</time></trkpt><trkpt lat="43.2335333" lon="12.7777867"><ele>478.0</ele><time>2026-04-18T12:38:38.993Z</time></trkpt><trkpt lat="43.2334767" lon="12.77787"><ele>478.0</ele><time>2026-04-18T12:38:39.993Z</time></trkpt><trkpt lat="43.23341" lon="12.7779567"><ele>477.99999999999994</ele><time>2026-04-18T12:38:40.993Z</time></trkpt><trkpt lat="43.2333283" lon="12.7780283"><ele>477.99999999999994</ele><time>2026-04-18T12:38:41.993Z</time></trkpt><trkpt lat="43.2332417" lon="12.778085"><ele>478.0</ele><time>2026-04-18T12:38:42.993Z</time></trkpt><trkpt lat="43.233145" lon="12.7781483"><ele>478.0</ele><time>2026-04-18T12:38:43.993Z</time></trkpt><trkpt lat="43.2330567" lon="12.7782133"><ele>478.2</ele><time>2026-04-18T12:38:44.993Z</time></trkpt><trkpt lat="43.2329767" lon="12.7782767"><ele>478.4</ele><time>2026-04-18T12:38:45.993Z</time></trkpt><trkpt lat="43.2328967" lon="12.778325"><ele>478.59999999999997</ele><time>2026-04-18T12:38:46.993Z</time></trkpt><trkpt lat="43.2328083" lon="12.7783783"><ele>478.79999999999995</ele><time>2026-04-18T12:38:47.993Z</time></trkpt><trkpt lat="43.2327033" lon="12.77843"><ele>479.0</ele><time>2026-04-18T12:38:48.993Z</time></trkpt><trkpt lat="43.2325917" lon="12.7784733"><ele>479.0</ele><time>2026-04-18T12:38:49.993Z</time></trkpt><trkpt lat="43.2324617" lon="12.778505"><ele>479.0</ele><time>2026-04-18T12:38:50.993Z</time></trkpt><trkpt lat="43.2323117" lon="12.7785233"><ele>479.0</ele><time>2026-04-18T12:38:51.992Z</time></trkpt><trkpt lat="43.2321717" lon="12.7785267"><ele>479.0</ele><time>2026-04-18T12:38:52.993Z</time></trkpt><trkpt lat="43.2320333" lon="12.7785383"><ele>479.75</ele><time>2026-04-18T12:38:53.993Z</time></trkpt><trkpt lat="43.2319017" lon="12.7785517"><ele>480.5</ele><time>2026-04-18T12:38:54.993Z</time></trkpt><trkpt lat="43.2317767" lon="12.7785683"><ele>481.25</ele><time>2026-04-18T12:38:55.993Z</time></trkpt><trkpt lat="43.2316533" lon="12.778595"><ele>482.0</ele><time>2026-04-18T12:38:56.993Z</time></trkpt><trkpt lat="43.231525" lon="12.77864"><ele>482.75</ele><time>2026-04-18T12:38:57.993Z</time></trkpt><trkpt lat="43.2314067" lon="12.7787133"><ele>483.5</ele><time>2026-04-18T12:38:58.993Z</time></trkpt><trkpt lat="43.231295" lon="12.7787833"><ele>484.25</ele><time>2026-04-18T12:38:59.993Z</time></trkpt><trkpt lat="43.2311917" lon="12.778845"><ele>485.0</ele><time>2026-04-18T12:39:00.993Z</time></trkpt><trkpt lat="43.2310917" lon="12.7789"><ele>485.0</ele><time>2026-04-18T12:39:01.993Z</time></trkpt><trkpt lat="43.2309883" lon="12.7789633"><ele>485.0</ele><time>2026-04-18T12:39:02.993Z</time></trkpt><trkpt lat="43.2308833" lon="12.77904"><ele>485.0</ele><time>2026-04-18T12:39:03.993Z</time></trkpt><trkpt lat="43.2307717" lon="12.7791233"><ele>485.0</ele><time>2026-04-18T12:39:04.993Z</time></trkpt><trkpt lat="43.230645" lon="12.7791867"><ele>485.25</ele><time>2026-04-18T12:39:05.993Z</time></trkpt><trkpt lat="43.23052" lon="12.77926"><ele>485.5</ele><time>2026-04-18T12:39:06.993Z</time></trkpt><trkpt lat="43.2303933" lon="12.7793367"><ele>485.75</ele><time>2026-04-18T12:39:07.993Z</time></trkpt><trkpt lat="43.2302733" lon="12.77941"><ele>486.0</ele><time>2026-04-18T12:39:08.993Z</time></trkpt><trkpt lat="43.23015" lon="12.7794867"><ele>487.0</ele><time>2026-04-18T12:39:09.993Z</time></trkpt><trkpt lat="43.230025" lon="12.7795617"><ele>488.0</ele><time>2026-04-18T12:39:10.993Z</time></trkpt><trkpt lat="43.2298967" lon="12.7796383"><ele>489.0</ele><time>2026-04-18T12:39:11.993Z</time></trkpt><trkpt lat="43.2297667" lon="12.77974"><ele>490.0</ele><time>2026-04-18T12:39:12.993Z</time></trkpt><trkpt lat="43.22965" lon="12.77986"><ele>490.0</ele><time>2026-04-18T12:39:13.993Z</time></trkpt><trkpt lat="43.2295367" lon="12.7799967"><ele>490.0</ele><time>2026-04-18T12:39:14.993Z</time></trkpt><trkpt lat="43.229425" lon="12.7801433"><ele>490.0</ele><time>2026-04-18T12:39:15.993Z</time></trkpt><trkpt lat="43.22931" lon="12.7802933"><ele>490.33333333333337</ele><time>2026-04-18T12:39:16.993Z</time></trkpt><trkpt lat="43.2291967" lon="12.7804383"><ele>490.66666666666663</ele><time>2026-04-18T12:39:17.993Z</time></trkpt><trkpt lat="43.229085" lon="12.7805883"><ele>491.0</ele><time>2026-04-18T12:39:18.993Z</time></trkpt><trkpt lat="43.2288383" lon="12.7808817"><ele>495.66666666666663</ele><time>2026-04-18T12:39:20.993Z</time></trkpt><trkpt lat="43.228715" lon="12.78103"><ele>500.33333333333337</ele><time>2026-04-18T12:39:21.993Z</time></trkpt><trkpt lat="43.22859" lon="12.7811717"><ele>505.0</ele><time>2026-04-18T12:39:22.993Z</time></trkpt><trkpt lat="43.2284683" lon="12.7813133"><ele>505.0</ele><time>2026-04-18T12:39:23.993Z</time></trkpt><trkpt lat="43.22834" lon="12.7814433"><ele>505.0</ele><time>2026-04-18T12:39:24.993Z</time></trkpt><trkpt lat="43.2282083" lon="12.78157"><ele>505.0</ele><time>2026-04-18T12:39:25.993Z</time></trkpt><trkpt lat="43.2280717" lon="12.7816767"><ele>508.6666666666667</ele><time>2026-04-18T12:39:26.993Z</time></trkpt><trkpt lat="43.2279367" lon="12.7817833"><ele>512.3333333333334</ele><time>2026-04-18T12:39:27.993Z</time></trkpt><trkpt lat="43.2277967" lon="12.7818883"><ele>516.0</ele><time>2026-04-18T12:39:28.993Z</time></trkpt><trkpt lat="43.22766" lon="12.781995"><ele>516.3333333333334</ele><time>2026-04-18T12:39:29.993Z</time></trkpt><trkpt lat="43.2275233" lon="12.78211"><ele>516.6666666666667</ele><time>2026-04-18T12:39:30.993Z</time></trkpt><trkpt lat="43.2273967" lon="12.782245"><ele>517.0</ele><time>2026-04-18T12:39:31.993Z</time></trkpt><trkpt lat="43.2272833" lon="12.782395"><ele>516.5</ele><time>2026-04-18T12:39:32.993Z</time></trkpt><trkpt lat="43.2271783" lon="12.78255"><ele>516.0</ele><time>2026-04-18T12:39:33.993Z</time></trkpt><trkpt lat="43.2270867" lon="12.7827067"><ele>515.5</ele><time>2026-04-18T12:39:34.993Z</time></trkpt><trkpt lat="43.227005" lon="12.7828533"><ele>515.0</ele><time>2026-04-18T12:39:35.993Z</time></trkpt><trkpt lat="43.22691" lon="12.7829833"><ele>516.0</ele><time>2026-04-18T12:39:36.993Z</time></trkpt><trkpt lat="43.2268167" lon="12.7831133"><ele>517.0</ele><time>2026-04-18T12:39:37.993Z</time></trkpt><trkpt lat="43.2267333" lon="12.7832517"><ele>518.0</ele><time>2026-04-18T12:39:38.993Z</time></trkpt><trkpt lat="43.22665" lon="12.7833983"><ele>519.0</ele><time>2026-04-18T12:39:39.993Z</time></trkpt><trkpt lat="43.2265667" lon="12.7835517"><ele>519.25</ele><time>2026-04-18T12:39:40.993Z</time></trkpt><trkpt lat="43.2264967" lon="12.7837183"><ele>519.5</ele><time>2026-04-18T12:39:41.993Z</time></trkpt><trkpt lat="43.22644" lon="12.783905"><ele>519.75</ele><time>2026-04-18T12:39:42.993Z</time></trkpt><trkpt lat="43.226385" lon="12.7840917"><ele>520.0</ele><time>2026-04-18T12:39:43.993Z</time></trkpt><trkpt lat="43.226325" lon="12.7842767"><ele>519.3333333333334</ele><time>2026-04-18T12:39:44.993Z</time></trkpt><trkpt lat="43.22625" lon="12.7844583"><ele>518.6666666666666</ele><time>2026-04-18T12:39:45.993Z</time></trkpt><trkpt lat="43.2261733" lon="12.7846317"><ele>518.0</ele><time>2026-04-18T12:39:46.993Z</time></trkpt><trkpt lat="43.2260817" lon="12.784795"><ele>518.0</ele><time>2026-04-18T12:39:47.993Z</time></trkpt><trkpt lat="43.2259717" lon="12.78493"><ele>518.0</ele><time>2026-04-18T12:39:48.993Z</time></trkpt><trkpt lat="43.2258433" lon="12.7850433"><ele>518.0</ele><time>2026-04-18T12:39:49.993Z</time></trkpt><trkpt lat="43.2257017" lon="12.785115"><ele>517.3333333333333</ele><time>2026-04-18T12:39:50.993Z</time></trkpt><trkpt lat="43.2255517" lon="12.7851683"><ele>516.6666666666666</ele><time>2026-04-18T12:39:51.993Z</time></trkpt><trkpt lat="43.2253917" lon="12.7852267"><ele>516.0</ele><time>2026-04-18T12:39:52.993Z</time></trkpt><trkpt lat="43.225235" lon="12.7852717"><ele>516.5</ele><time>2026-04-18T12:39:53.993Z</time></trkpt><trkpt lat="43.22509" lon="12.7853117"><ele>517.0</ele><time>2026-04-18T12:39:54.993Z</time></trkpt><trkpt lat="43.224945" lon="12.7853467"><ele>517.5</ele><time>2026-04-18T12:39:55.993Z</time></trkpt><trkpt lat="43.2248083" lon="12.7853833"><ele>518.0</ele><time>2026-04-18T12:39:56.993Z</time></trkpt><trkpt lat="43.224665" lon="12.78542"><ele>518.0</ele><time>2026-04-18T12:39:57.993Z</time></trkpt><trkpt lat="43.2245183" lon="12.785445"><ele>518.0</ele><time>2026-04-18T12:39:58.993Z</time></trkpt><trkpt lat="43.224375" lon="12.7854633"><ele>518.0</ele><time>2026-04-18T12:39:59.993Z</time></trkpt><trkpt lat="43.2242267" lon="12.7854733"><ele>518.0</ele><time>2026-04-18T12:40:00.993Z</time></trkpt><trkpt lat="43.224065" lon="12.78549"><ele>516.0</ele><time>2026-04-18T12:40:01.993Z</time></trkpt><trkpt lat="43.22391" lon="12.785505"><ele>514.0</ele><time>2026-04-18T12:40:02.993Z</time></trkpt><trkpt lat="43.2237483" lon="12.7855217"><ele>512.0</ele><time>2026-04-18T12:40:03.993Z</time></trkpt><trkpt lat="43.223585" lon="12.7855333"><ele>512.0</ele><time>2026-04-18T12:40:04.993Z</time></trkpt><trkpt lat="43.2234133" lon="12.7855467"><ele>512.0</ele><time>2026-04-18T12:40:05.993Z</time></trkpt><trkpt lat="43.2232467" lon="12.78556"><ele>512.0</ele><time>2026-04-18T12:40:06.993Z</time></trkpt><trkpt lat="43.2230833" lon="12.7855767"><ele>511.3333333333333</ele><time>2026-04-18T12:40:07.993Z</time></trkpt><trkpt lat="43.22292" lon="12.7856"><ele>510.66666666666663</ele><time>2026-04-18T12:40:08.993Z</time></trkpt><trkpt lat="43.2227467" lon="12.7856167"><ele>510.0</ele><time>2026-04-18T12:40:09.993Z</time></trkpt><trkpt lat="43.2225817" lon="12.78564"><ele>510.0</ele><time>2026-04-18T12:40:10.993Z</time></trkpt><trkpt lat="43.2224117" lon="12.7856517"><ele>510.0</ele><time>2026-04-18T12:40:11.993Z</time></trkpt><trkpt lat="43.22224" lon="12.78566"><ele>510.0</ele><time>2026-04-18T12:40:12.993Z</time></trkpt><trkpt lat="43.2220617" lon="12.7856767"><ele>509.66666666666663</ele><time>2026-04-18T12:40:13.993Z</time></trkpt><trkpt lat="43.2218783" lon="12.7857067"><ele>509.3333333333333</ele><time>2026-04-18T12:40:14.993Z</time></trkpt><trkpt lat="43.2217017" lon="12.7857283"><ele>509.0</ele><time>2026-04-18T12:40:15.993Z</time></trkpt><trkpt lat="43.2215367" lon="12.785775"><ele>509.3333333333333</ele><time>2026-04-18T12:40:16.993Z</time></trkpt><trkpt lat="43.2213767" lon="12.7858367"><ele>509.66666666666663</ele><time>2026-04-18T12:40:17.993Z</time></trkpt><trkpt lat="43.2212233" lon="12.7858817"><ele>510.0</ele><time>2026-04-18T12:40:18.993Z</time></trkpt><trkpt lat="43.2210517" lon="12.7858933"><ele>510.0</ele><time>2026-04-18T12:40:19.993Z</time></trkpt><trkpt lat="43.22088" lon="12.785875"><ele>510.0</ele><time>2026-04-18T12:40:20.993Z</time></trkpt><trkpt lat="43.22071" lon="12.78585"><ele>510.0</ele><time>2026-04-18T12:40:21.993Z</time></trkpt><trkpt lat="43.2205367" lon="12.7858267"><ele>509.66666666666663</ele><time>2026-04-18T12:40:22.993Z</time></trkpt><trkpt lat="43.2203617" lon="12.785825"><ele>509.3333333333333</ele><time>2026-04-18T12:40:23.993Z</time></trkpt><trkpt lat="43.2201883" lon="12.7858367"><ele>509.0</ele><time>2026-04-18T12:40:24.993Z</time></trkpt><trkpt lat="43.2200183" lon="12.785845"><ele>509.0</ele><time>2026-04-18T12:40:25.993Z</time></trkpt><trkpt lat="43.21985" lon="12.78586"><ele>509.0</ele><time>2026-04-18T12:40:26.993Z</time></trkpt><trkpt lat="43.2196767" lon="12.7858717"><ele>509.0</ele><time>2026-04-18T12:40:27.993Z</time></trkpt><trkpt lat="43.2195067" lon="12.7858833"><ele>509.0</ele><time>2026-04-18T12:40:28.993Z</time></trkpt><trkpt lat="43.2193383" lon="12.7859067"><ele>509.0</ele><time>2026-04-18T12:40:29.993Z</time></trkpt><trkpt lat="43.2191667" lon="12.7859217"><ele>509.0</ele><time>2026-04-18T12:40:30.993Z</time></trkpt><trkpt lat="43.2189983" lon="12.7859317"><ele>510.0</ele><time>2026-04-18T12:40:31.993Z</time></trkpt><trkpt lat="43.2188233" lon="12.7859283"><ele>511.0</ele><time>2026-04-18T12:40:32.993Z</time></trkpt><trkpt lat="43.2186467" lon="12.7859317"><ele>512.0</ele><time>2026-04-18T12:40:33.993Z</time></trkpt><trkpt lat="43.2184683" lon="12.7859483"><ele>512.0</ele><time>2026-04-18T12:40:34.993Z</time></trkpt><trkpt lat="43.21829" lon="12.7859633"><ele>512.0</ele><time>2026-04-18T12:40:35.993Z</time></trkpt><trkpt lat="43.2181133" lon="12.78598"><ele>512.0</ele><time>2026-04-18T12:40:36.993Z</time></trkpt><trkpt lat="43.2179333" lon="12.78599"><ele>511.3333333333333</ele><time>2026-04-18T12:40:37.993Z</time></trkpt><trkpt lat="43.2177567" lon="12.7860083"><ele>510.66666666666663</ele><time>2026-04-18T12:40:38.993Z</time></trkpt><trkpt lat="43.2175783" lon="12.786025"><ele>510.0</ele><time>2026-04-18T12:40:39.993Z</time></trkpt><trkpt lat="43.217395" lon="12.78604"><ele>511.33333333333337</ele><time>2026-04-18T12:40:40.993Z</time></trkpt><trkpt lat="43.21722" lon="12.7860533"><ele>512.6666666666667</ele><time>2026-04-18T12:40:41.993Z</time></trkpt><trkpt lat="43.2170383" lon="12.7860683"><ele>514.0</ele><time>2026-04-18T12:40:42.993Z</time></trkpt><trkpt lat="43.2168583" lon="12.7860933"><ele>514.0</ele><time>2026-04-18T12:40:43.993Z</time></trkpt><trkpt lat="43.2166783" lon="12.78611"><ele>514.0</ele><time>2026-04-18T12:40:44.993Z</time></trkpt><trkpt lat="43.2164983" lon="12.7861217"><ele>514.0</ele><time>2026-04-18T12:40:45.993Z</time></trkpt><trkpt lat="43.2163183" lon="12.7861333"><ele>513.3333333333334</ele><time>2026-04-18T12:40:46.993Z</time></trkpt><trkpt lat="43.2161417" lon="12.7861433"><ele>512.6666666666666</ele><time>2026-04-18T12:40:47.993Z</time></trkpt><trkpt lat="43.2159617" lon="12.786155"><ele>512.0</ele><time>2026-04-18T12:40:48.993Z</time></trkpt><trkpt lat="43.2157783" lon="12.78616"><ele>512.3333333333333</ele><time>2026-04-18T12:40:49.993Z</time></trkpt><trkpt lat="43.215595" lon="12.78618"><ele>512.6666666666666</ele><time>2026-04-18T12:40:50.993Z</time></trkpt><trkpt lat="43.215415" lon="12.7861967"><ele>513.0</ele><time>2026-04-18T12:40:51.993Z</time></trkpt><trkpt lat="43.215235" lon="12.78621"><ele>513.0</ele><time>2026-04-18T12:40:52.993Z</time></trkpt><trkpt lat="43.2150483" lon="12.786225"><ele>513.0</ele><time>2026-04-18T12:40:53.993Z</time></trkpt><trkpt lat="43.2148633" lon="12.786235"><ele>513.0</ele><time>2026-04-18T12:40:54.993Z</time></trkpt><trkpt lat="43.2146733" lon="12.7862467"><ele>513.6666666666666</ele><time>2026-04-18T12:40:55.993Z</time></trkpt><trkpt lat="43.2144883" lon="12.7862583"><ele>514.3333333333333</ele><time>2026-04-18T12:40:56.993Z</time></trkpt><trkpt lat="43.2142983" lon="12.786275"><ele>515.0</ele><time>2026-04-18T12:40:57.993Z</time></trkpt><trkpt lat="43.21411" lon="12.7862933"><ele>515.3333333333333</ele><time>2026-04-18T12:40:58.993Z</time></trkpt><trkpt lat="43.2139167" lon="12.7863083"><ele>515.6666666666666</ele><time>2026-04-18T12:40:59.993Z</time></trkpt><trkpt lat="43.2137267" lon="12.7863167"><ele>516.0</ele><time>2026-04-18T12:41:00.993Z</time></trkpt><trkpt lat="43.213535" lon="12.7863333"><ele>516.0</ele><time>2026-04-18T12:41:01.992Z</time></trkpt><trkpt lat="43.2133483" lon="12.7863433"><ele>516.0</ele><time>2026-04-18T12:41:02.992Z</time></trkpt><trkpt lat="43.213165" lon="12.78636"><ele>516.0</ele><time>2026-04-18T12:41:03.992Z</time></trkpt><trkpt lat="43.2129817" lon="12.7863733"><ele>516.3333333333334</ele><time>2026-04-18T12:41:04.992Z</time></trkpt><trkpt lat="43.2127983" lon="12.7863917"><ele>516.6666666666667</ele><time>2026-04-18T12:41:05.992Z</time></trkpt><trkpt lat="43.21262" lon="12.78641"><ele>517.0</ele><time>2026-04-18T12:41:06.992Z</time></trkpt><trkpt lat="43.2124383" lon="12.786415"><ele>518.0</ele><time>2026-04-18T12:41:07.992Z</time></trkpt><trkpt lat="43.2122633" lon="12.7864383"><ele>519.0</ele><time>2026-04-18T12:41:08.992Z</time></trkpt><trkpt lat="43.212085" lon="12.7864517"><ele>520.0</ele><time>2026-04-18T12:41:09.992Z</time></trkpt><trkpt lat="43.211905" lon="12.7864633"><ele>520.0</ele><time>2026-04-18T12:41:10.992Z</time></trkpt><trkpt lat="43.2117283" lon="12.7864767"><ele>520.0</ele><time>2026-04-18T12:41:11.992Z</time></trkpt><trkpt lat="43.2115483" lon="12.7864867"><ele>520.0</ele><time>2026-04-18T12:41:12.992Z</time></trkpt><trkpt lat="43.21137" lon="12.7865"><ele>521.3333333333334</ele><time>2026-04-18T12:41:13.992Z</time></trkpt><trkpt lat="43.2112017" lon="12.7865183"><ele>522.6666666666666</ele><time>2026-04-18T12:41:14.992Z</time></trkpt><trkpt lat="43.2110483" lon="12.78654"><ele>524.0</ele><time>2026-04-18T12:41:15.992Z</time></trkpt><trkpt lat="43.2109083" lon="12.7865667"><ele>524.0</ele><time>2026-04-18T12:41:16.992Z</time></trkpt><trkpt lat="43.2107883" lon="12.7866117"><ele>524.0</ele><time>2026-04-18T12:41:17.992Z</time></trkpt><trkpt lat="43.21068" lon="12.7866733"><ele>524.0</ele><time>2026-04-18T12:41:18.992Z</time></trkpt><trkpt lat="43.2105783" lon="12.7867133"><ele>524.0</ele><time>2026-04-18T12:41:19.992Z</time></trkpt><trkpt lat="43.2104933" lon="12.7867117"><ele>524.0</ele><time>2026-04-18T12:41:20.992Z</time></trkpt><trkpt lat="43.2104067" lon="12.7866767"><ele>524.8333333333333</ele><time>2026-04-18T12:41:21.992Z</time></trkpt><trkpt lat="43.2103183" lon="12.7866567"><ele>525.6666666666666</ele><time>2026-04-18T12:41:22.992Z</time></trkpt><trkpt lat="43.2102383" lon="12.78667"><ele>526.5</ele><time>2026-04-18T12:41:23.992Z</time></trkpt><trkpt lat="43.2101633" lon="12.786715"><ele>527.3333333333334</ele><time>2026-04-18T12:41:24.992Z</time></trkpt><trkpt lat="43.2100733" lon="12.7867617"><ele>528.1666666666667</ele><time>2026-04-18T12:41:25.992Z</time></trkpt><trkpt lat="43.209975" lon="12.7867633"><ele>529.0</ele><time>2026-04-18T12:41:26.992Z</time></trkpt><trkpt lat="43.20987" lon="12.7867267"><ele>529.5</ele><time>2026-04-18T12:41:27.992Z</time></trkpt><trkpt lat="43.2097567" lon="12.7866867"><ele>530.0</ele><time>2026-04-18T12:41:28.992Z</time></trkpt><trkpt lat="43.2096317" lon="12.78667"><ele>530.5</ele><time>2026-04-18T12:41:29.992Z</time></trkpt><trkpt lat="43.209485" lon="12.7866717"><ele>531.0</ele><time>2026-04-18T12:41:30.992Z</time></trkpt><trkpt lat="43.2093217" lon="12.7866883"><ele>531.0</ele><time>2026-04-18T12:41:31.992Z</time></trkpt><trkpt lat="43.2091533" lon="12.7867133"><ele>531.0</ele><time>2026-04-18T12:41:32.992Z</time></trkpt><trkpt lat="43.2089883" lon="12.786725"><ele>531.0</ele><time>2026-04-18T12:41:33.992Z</time></trkpt><trkpt lat="43.2088267" lon="12.7867283"><ele>530.3333333333334</ele><time>2026-04-18T12:41:34.992Z</time></trkpt><trkpt lat="43.2086517" lon="12.78673"><ele>529.6666666666667</ele><time>2026-04-18T12:41:35.992Z</time></trkpt><trkpt lat="43.2084817" lon="12.7867133"><ele>529.0</ele><time>2026-04-18T12:41:36.992Z</time></trkpt><trkpt lat="43.208315" lon="12.7866983"><ele>529.0</ele><time>2026-04-18T12:41:37.992Z</time></trkpt><trkpt lat="43.20816" lon="12.7866867"><ele>529.0</ele><time>2026-04-18T12:41:38.992Z</time></trkpt><trkpt lat="43.2080117" lon="12.786675"><ele>529.0</ele><time>2026-04-18T12:41:39.992Z</time></trkpt><trkpt lat="43.2078633" lon="12.78667"><ele>528.25</ele><time>2026-04-18T12:41:40.992Z</time></trkpt><trkpt lat="43.20772" lon="12.7866467"><ele>527.5</ele><time>2026-04-18T12:41:41.992Z</time></trkpt><trkpt lat="43.2075783" lon="12.7866433"><ele>526.75</ele><time>2026-04-18T12:41:42.992Z</time></trkpt><trkpt lat="43.2074417" lon="12.78664"><ele>526.0</ele><time>2026-04-18T12:41:43.992Z</time></trkpt><trkpt lat="43.2073117" lon="12.786625"><ele>525.75</ele><time>2026-04-18T12:41:44.992Z</time></trkpt><trkpt lat="43.2071733" lon="12.78661"><ele>525.5</ele><time>2026-04-18T12:41:45.992Z</time></trkpt><trkpt lat="43.207035" lon="12.78659"><ele>525.25</ele><time>2026-04-18T12:41:46.992Z</time></trkpt><trkpt lat="43.2068983" lon="12.7865783"><ele>525.0</ele><time>2026-04-18T12:41:47.992Z</time></trkpt><trkpt lat="43.20676" lon="12.7865533"><ele>525.0</ele><time>2026-04-18T12:41:48.992Z</time></trkpt><trkpt lat="43.2066183" lon="12.786535"><ele>525.0</ele><time>2026-04-18T12:41:49.992Z</time></trkpt><trkpt lat="43.2064683" lon="12.7865117"><ele>525.0</ele><time>2026-04-18T12:41:50.992Z</time></trkpt><trkpt lat="43.206315" lon="12.786495"><ele>525.0</ele><time>2026-04-18T12:41:51.992Z</time></trkpt><trkpt lat="43.2061567" lon="12.7864733"><ele>523.3333333333334</ele><time>2026-04-18T12:41:52.992Z</time></trkpt><trkpt lat="43.2060067" lon="12.7864567"><ele>521.6666666666667</ele><time>2026-04-18T12:41:53.992Z</time></trkpt><trkpt lat="43.2058417" lon="12.786435"><ele>520.0</ele><time>2026-04-18T12:41:54.992Z</time></trkpt><trkpt lat="43.2056783" lon="12.7864167"><ele>517.3333333333334</ele><time>2026-04-18T12:41:55.992Z</time></trkpt><trkpt lat="43.2055133" lon="12.7863967"><ele>514.6666666666666</ele><time>2026-04-18T12:41:56.992Z</time></trkpt><trkpt lat="43.2053417" lon="12.78637"><ele>512.0</ele><time>2026-04-18T12:41:57.992Z</time></trkpt><trkpt lat="43.2051633" lon="12.7863467"><ele>512.0</ele><time>2026-04-18T12:41:58.992Z</time></trkpt><trkpt lat="43.2049767" lon="12.7863283"><ele>512.0</ele><time>2026-04-18T12:41:59.992Z</time></trkpt><trkpt lat="43.20478" lon="12.7863067"><ele>512.0</ele><time>2026-04-18T12:42:00.992Z</time></trkpt><trkpt lat="43.2045817" lon="12.786285"><ele>510.0</ele><time>2026-04-18T12:42:01.992Z</time></trkpt><trkpt lat="43.2043783" lon="12.786265"><ele>508.0</ele><time>2026-04-18T12:42:02.992Z</time></trkpt><trkpt lat="43.2041817" lon="12.7862467"><ele>506.0</ele><time>2026-04-18T12:42:03.992Z</time></trkpt><trkpt lat="43.20398" lon="12.7862267"><ele>504.66666666666663</ele><time>2026-04-18T12:42:04.992Z</time></trkpt><trkpt lat="43.2037833" lon="12.78621"><ele>503.33333333333337</ele><time>2026-04-18T12:42:05.992Z</time></trkpt><trkpt lat="43.2035883" lon="12.7861883"><ele>502.0</ele><time>2026-04-18T12:42:06.992Z</time></trkpt><trkpt lat="43.20339" lon="12.7861733"><ele>502.0</ele><time>2026-04-18T12:42:07.992Z</time></trkpt><trkpt lat="43.2032" lon="12.78615"><ele>502.0</ele><time>2026-04-18T12:42:08.992Z</time></trkpt><trkpt lat="43.2030067" lon="12.7861283"><ele>502.0</ele><time>2026-04-18T12:42:09.992Z</time></trkpt><trkpt lat="43.20282" lon="12.786115"><ele>502.0</ele><time>2026-04-18T12:42:10.992Z</time></trkpt><trkpt lat="43.202625" lon="12.7860983"><ele>502.0</ele><time>2026-04-18T12:42:11.992Z</time></trkpt><trkpt lat="43.2024317" lon="12.7860767"><ele>502.0</ele><time>2026-04-18T12:42:12.992Z</time></trkpt><trkpt lat="43.2022367" lon="12.7860483"><ele>502.0</ele><time>2026-04-18T12:42:13.992Z</time></trkpt><trkpt lat="43.2020467" lon="12.786025"><ele>502.0</ele><time>2026-04-18T12:42:14.992Z</time></trkpt><trkpt lat="43.201855" lon="12.785995"><ele>502.0</ele><time>2026-04-18T12:42:15.992Z</time></trkpt><trkpt lat="43.2016633" lon="12.7859717"><ele>501.6666666666667</ele><time>2026-04-18T12:42:16.992Z</time></trkpt><trkpt lat="43.201475" lon="12.7859567"><ele>501.33333333333337</ele><time>2026-04-18T12:42:17.992Z</time></trkpt><trkpt lat="43.2012817" lon="12.785935"><ele>501.0</ele><time>2026-04-18T12:42:18.992Z</time></trkpt><trkpt lat="43.2010933" lon="12.7859067"><ele>501.0</ele><time>2026-04-18T12:42:19.992Z</time></trkpt><trkpt lat="43.2009" lon="12.7858817"><ele>501.0</ele><time>2026-04-18T12:42:20.992Z</time></trkpt><trkpt lat="43.2007067" lon="12.7858433"><ele>501.0</ele><time>2026-04-18T12:42:21.992Z</time></trkpt><trkpt lat="43.200505" lon="12.7858217"><ele>502.0</ele><time>2026-04-18T12:42:22.992Z</time></trkpt><trkpt lat="43.200305" lon="12.78579"><ele>503.0</ele><time>2026-04-18T12:42:23.992Z</time></trkpt><trkpt lat="43.2001017" lon="12.7857567"><ele>504.0</ele><time>2026-04-18T12:42:24.992Z</time></trkpt><trkpt lat="43.19989" lon="12.7857183"><ele>506.0</ele><time>2026-04-18T12:42:25.992Z</time></trkpt><trkpt lat="43.199665" lon="12.7856833"><ele>508.0</ele><time>2026-04-18T12:42:26.992Z</time></trkpt><trkpt lat="43.19944" lon="12.7856533"><ele>508.0</ele><time>2026-04-18T12:42:27.992Z</time></trkpt><trkpt lat="43.1992167" lon="12.7856233"><ele>508.0</ele><time>2026-04-18T12:42:28.992Z</time></trkpt><trkpt lat="43.19899" lon="12.7855967"><ele>510.5</ele><time>2026-04-18T12:42:29.992Z</time></trkpt><trkpt lat="43.1987667" lon="12.78557"><ele>513.0</ele><time>2026-04-18T12:42:30.992Z</time></trkpt><trkpt lat="43.1985383" lon="12.7855433"><ele>513.0</ele><time>2026-04-18T12:42:31.992Z</time></trkpt><trkpt lat="43.1983133" lon="12.78552"><ele>513.0</ele><time>2026-04-18T12:42:32.992Z</time></trkpt><trkpt lat="43.1980883" lon="12.7855"><ele>515.0</ele><time>2026-04-18T12:42:33.992Z</time></trkpt><trkpt lat="43.1978583" lon="12.7854733"><ele>517.0</ele><time>2026-04-18T12:42:34.992Z</time></trkpt><trkpt lat="43.19763" lon="12.78545"><ele>517.0</ele><time>2026-04-18T12:42:35.992Z</time></trkpt><trkpt lat="43.1974033" lon="12.78543"><ele>517.0</ele><time>2026-04-18T12:42:36.992Z</time></trkpt><trkpt lat="43.1971783" lon="12.785405"><ele>516.5</ele><time>2026-04-18T12:42:37.992Z</time></trkpt><trkpt lat="43.1969533" lon="12.7853733"><ele>516.0</ele><time>2026-04-18T12:42:38.992Z</time></trkpt><trkpt lat="43.1967267" lon="12.7853433"><ele>517.0</ele><time>2026-04-18T12:42:39.992Z</time></trkpt><trkpt lat="43.1964967" lon="12.785325"><ele>518.0</ele><time>2026-04-18T12:42:40.992Z</time></trkpt><trkpt lat="43.196265" lon="12.7852967"><ele>518.0</ele><time>2026-04-18T12:42:41.992Z</time></trkpt><trkpt lat="43.1960417" lon="12.78527"><ele>518.0</ele><time>2026-04-18T12:42:42.992Z</time></trkpt><trkpt lat="43.1958183" lon="12.7852417"><ele>518.0</ele><time>2026-04-18T12:42:43.992Z</time></trkpt><trkpt lat="43.1955933" lon="12.7852133"><ele>516.5</ele><time>2026-04-18T12:42:44.992Z</time></trkpt><trkpt lat="43.1953683" lon="12.7851733"><ele>515.0</ele><time>2026-04-18T12:42:45.992Z</time></trkpt><trkpt lat="43.1951433" lon="12.78515"><ele>515.0</ele><time>2026-04-18T12:42:46.991Z</time></trkpt><trkpt lat="43.194915" lon="12.7851233"><ele>515.0</ele><time>2026-04-18T12:42:47.992Z</time></trkpt><trkpt lat="43.19468" lon="12.7850967"><ele>515.5</ele><time>2026-04-18T12:42:48.992Z</time></trkpt><trkpt lat="43.1944483" lon="12.78507"><ele>516.0</ele><time>2026-04-18T12:42:49.992Z</time></trkpt><trkpt lat="43.19422" lon="12.7850433"><ele>515.0</ele><time>2026-04-18T12:42:50.992Z</time></trkpt><trkpt lat="43.19399" lon="12.78502"><ele>514.0</ele><time>2026-04-18T12:42:51.992Z</time></trkpt><trkpt lat="43.1937567" lon="12.7849983"><ele>514.0</ele><time>2026-04-18T12:42:52.992Z</time></trkpt><trkpt lat="43.19352" lon="12.784995"><ele>514.0</ele><time>2026-04-18T12:42:53.992Z</time></trkpt><trkpt lat="43.1932767" lon="12.784995"><ele>514.0</ele><time>2026-04-18T12:42:54.992Z</time></trkpt><trkpt lat="43.193035" lon="12.785"><ele>514.0</ele><time>2026-04-18T12:42:55.992Z</time></trkpt><trkpt lat="43.19279" lon="12.7850017"><ele>514.0</ele><time>2026-04-18T12:42:56.992Z</time></trkpt><trkpt lat="43.1925517" lon="12.7850017"><ele>514.0</ele><time>2026-04-18T12:42:57.992Z</time></trkpt><trkpt lat="43.1923133" lon="12.7849983"><ele>512.5</ele><time>2026-04-18T12:42:58.992Z</time></trkpt><trkpt lat="43.19207" lon="12.7849967"><ele>511.0</ele><time>2026-04-18T12:42:59.992Z</time></trkpt><trkpt lat="43.191825" lon="12.7849933"><ele>511.0</ele><time>2026-04-18T12:43:00.992Z</time></trkpt><trkpt lat="43.1915867" lon="12.78499"><ele>511.0</ele><time>2026-04-18T12:43:01.992Z</time></trkpt><trkpt lat="43.1913467" lon="12.7849883"><ele>509.5</ele><time>2026-04-18T12:43:02.992Z</time></trkpt><trkpt lat="43.1911" lon="12.7849833"><ele>508.0</ele><time>2026-04-18T12:43:03.992Z</time></trkpt><trkpt lat="43.1908583" lon="12.7849833"><ele>507.0</ele><time>2026-04-18T12:43:04.992Z</time></trkpt><trkpt lat="43.190625" lon="12.7849817"><ele>506.0</ele><time>2026-04-18T12:43:05.992Z</time></trkpt><trkpt lat="43.1903967" lon="12.78498"><ele>506.0</ele><time>2026-04-18T12:43:06.992Z</time></trkpt><trkpt lat="43.19018" lon="12.784985"><ele>506.0</ele><time>2026-04-18T12:43:07.992Z</time></trkpt><trkpt lat="43.189975" lon="12.78499"><ele>506.0</ele><time>2026-04-18T12:43:08.992Z</time></trkpt><trkpt lat="43.1897683" lon="12.7849883"><ele>504.66666666666663</ele><time>2026-04-18T12:43:09.992Z</time></trkpt><trkpt lat="43.189565" lon="12.7849867"><ele>503.33333333333337</ele><time>2026-04-18T12:43:10.992Z</time></trkpt><trkpt lat="43.1893583" lon="12.78499"><ele>502.0</ele><time>2026-04-18T12:43:11.992Z</time></trkpt><trkpt lat="43.1891467" lon="12.7850017"><ele>501.33333333333337</ele><time>2026-04-18T12:43:12.992Z</time></trkpt><trkpt lat="43.18893" lon="12.7849967"><ele>500.66666666666663</ele><time>2026-04-18T12:43:13.992Z</time></trkpt><trkpt lat="43.188715" lon="12.7849883"><ele>500.0</ele><time>2026-04-18T12:43:14.992Z</time></trkpt><trkpt lat="43.188495" lon="12.78497"><ele>500.0</ele><time>2026-04-18T12:43:15.992Z</time></trkpt><trkpt lat="43.1882683" lon="12.784945"><ele>500.0</ele><time>2026-04-18T12:43:16.992Z</time></trkpt><trkpt lat="43.1880417" lon="12.784925"><ele>498.0</ele><time>2026-04-18T12:43:17.992Z</time></trkpt><trkpt lat="43.1878083" lon="12.7848983"><ele>496.0</ele><time>2026-04-18T12:43:18.992Z</time></trkpt><trkpt lat="43.1875767" lon="12.784875"><ele>495.5</ele><time>2026-04-18T12:43:19.992Z</time></trkpt><trkpt lat="43.18734" lon="12.7848633"><ele>495.0</ele><time>2026-04-18T12:43:20.992Z</time></trkpt><trkpt lat="43.187105" lon="12.7848517"><ele>495.0</ele><time>2026-04-18T12:43:21.992Z</time></trkpt><trkpt lat="43.1868733" lon="12.784855"><ele>495.0</ele><time>2026-04-18T12:43:22.992Z</time></trkpt><trkpt lat="43.18664" lon="12.7848617"><ele>494.5</ele><time>2026-04-18T12:43:23.992Z</time></trkpt><trkpt lat="43.1864067" lon="12.784865"><ele>494.0</ele><time>2026-04-18T12:43:24.992Z</time></trkpt><trkpt lat="43.1861733" lon="12.7848767"><ele>494.0</ele><time>2026-04-18T12:43:25.992Z</time></trkpt><trkpt lat="43.185935" lon="12.784875"><ele>494.0</ele><time>2026-04-18T12:43:26.992Z</time></trkpt><trkpt lat="43.1857017" lon="12.7848767"><ele>491.0</ele><time>2026-04-18T12:43:27.992Z</time></trkpt><trkpt lat="43.18547" lon="12.784875"><ele>488.0</ele><time>2026-04-18T12:43:28.992Z</time></trkpt><trkpt lat="43.1852383" lon="12.7848767"><ele>488.0</ele><time>2026-04-18T12:43:29.992Z</time></trkpt><trkpt lat="43.1850083" lon="12.7848817"><ele>488.0</ele><time>2026-04-18T12:43:30.992Z</time></trkpt><trkpt lat="43.1847783" lon="12.7848817"><ele>488.5</ele><time>2026-04-18T12:43:31.992Z</time></trkpt><trkpt lat="43.1845433" lon="12.7848817"><ele>489.0</ele><time>2026-04-18T12:43:32.992Z</time></trkpt><trkpt lat="43.184315" lon="12.7848817"><ele>489.0</ele><time>2026-04-18T12:43:33.992Z</time></trkpt><trkpt lat="43.18408" lon="12.7848817"><ele>489.0</ele><time>2026-04-18T12:43:34.992Z</time></trkpt><trkpt lat="43.1838483" lon="12.7848917"><ele>487.5</ele><time>2026-04-18T12:43:35.992Z</time></trkpt><trkpt lat="43.1836167" lon="12.784895"><ele>486.0</ele><time>2026-04-18T12:43:36.992Z</time></trkpt><trkpt lat="43.1833933" lon="12.7848933"><ele>486.0</ele><time>2026-04-18T12:43:37.992Z</time></trkpt><trkpt lat="43.1831867" lon="12.7848933"><ele>486.0</ele><time>2026-04-18T12:43:38.992Z</time></trkpt><trkpt lat="43.1829867" lon="12.7848917"><ele>486.0</ele><time>2026-04-18T12:43:39.992Z</time></trkpt><trkpt lat="43.1827883" lon="12.7849033"><ele>486.0</ele><time>2026-04-18T12:43:40.992Z</time></trkpt><trkpt lat="43.1825933" lon="12.7849"><ele>486.0</ele><time>2026-04-18T12:43:41.992Z</time></trkpt><trkpt lat="43.1824" lon="12.7849033"><ele>486.0</ele><time>2026-04-18T12:43:42.992Z</time></trkpt><trkpt lat="43.1822083" lon="12.7849133"><ele>486.0</ele><time>2026-04-18T12:43:43.992Z</time></trkpt><trkpt lat="43.1820133" lon="12.7849133"><ele>486.0</ele><time>2026-04-18T12:43:44.992Z</time></trkpt><trkpt lat="43.18181" lon="12.7849133"><ele>486.0</ele><time>2026-04-18T12:43:45.992Z</time></trkpt><trkpt lat="43.1816133" lon="12.7849167"><ele>484.0</ele><time>2026-04-18T12:43:46.992Z</time></trkpt><trkpt lat="43.181395" lon="12.7849283"><ele>482.0</ele><time>2026-04-18T12:43:47.992Z</time></trkpt><trkpt lat="43.1811583" lon="12.7849333"><ele>482.0</ele><time>2026-04-18T12:43:48.992Z</time></trkpt><trkpt lat="43.180905" lon="12.7849483"><ele>482.0</ele><time>2026-04-18T12:43:49.992Z</time></trkpt><trkpt lat="43.1806383" lon="12.7849517"><ele>481.5</ele><time>2026-04-18T12:43:50.992Z</time></trkpt><trkpt lat="43.1803617" lon="12.784935"><ele>481.0</ele><time>2026-04-18T12:43:51.992Z</time></trkpt><trkpt lat="43.1800917" lon="12.784915"><ele>480.0</ele><time>2026-04-18T12:43:52.992Z</time></trkpt><trkpt lat="43.1798267" lon="12.7849017"><ele>479.0</ele><time>2026-04-18T12:43:53.992Z</time></trkpt><trkpt lat="43.1795717" lon="12.7848967"><ele>479.0</ele><time>2026-04-18T12:43:54.992Z</time></trkpt><trkpt lat="43.1793283" lon="12.7848983"><ele>479.0</ele><time>2026-04-18T12:43:55.989Z</time></trkpt><trkpt lat="43.1790883" lon="12.7848933"><ele>479.5</ele><time>2026-04-18T12:43:56.992Z</time></trkpt><trkpt lat="43.1788583" lon="12.7848933"><ele>480.0</ele><time>2026-04-18T12:43:57.992Z</time></trkpt><trkpt lat="43.1786367" lon="12.784895"><ele>480.0</ele><time>2026-04-18T12:43:58.992Z</time></trkpt><trkpt lat="43.1784233" lon="12.784885"><ele>480.0</ele><time>2026-04-18T12:43:59.992Z</time></trkpt><trkpt lat="43.178215" lon="12.7848867"><ele>480.0</ele><time>2026-04-18T12:44:00.992Z</time></trkpt><trkpt lat="43.178015" lon="12.78488"><ele>480.0</ele><time>2026-04-18T12:44:01.992Z</time></trkpt><trkpt lat="43.1778233" lon="12.7848783"><ele>480.0</ele><time>2026-04-18T12:44:02.992Z</time></trkpt><trkpt lat="43.1776433" lon="12.7848733"><ele>480.0</ele><time>2026-04-18T12:44:03.992Z</time></trkpt><trkpt lat="43.1774633" lon="12.78487"><ele>481.66666666666663</ele><time>2026-04-18T12:44:04.992Z</time></trkpt><trkpt lat="43.17729" lon="12.7848467"><ele>483.3333333333333</ele><time>2026-04-18T12:44:05.992Z</time></trkpt><trkpt lat="43.17711" lon="12.784805"><ele>485.0</ele><time>2026-04-18T12:44:06.992Z</time></trkpt><trkpt lat="43.17693" lon="12.784735"><ele>485.0</ele><time>2026-04-18T12:44:07.992Z</time></trkpt><trkpt lat="43.1767533" lon="12.784665"><ele>485.0</ele><time>2026-04-18T12:44:08.992Z</time></trkpt><trkpt lat="43.1765817" lon="12.7845967"><ele>485.0</ele><time>2026-04-18T12:44:09.992Z</time></trkpt><trkpt lat="43.1764167" lon="12.78455"><ele>485.0</ele><time>2026-04-18T12:44:10.992Z</time></trkpt><trkpt lat="43.1762517" lon="12.784515"><ele>485.0</ele><time>2026-04-18T12:44:11.992Z</time></trkpt><trkpt lat="43.1760867" lon="12.78453"><ele>485.0</ele><time>2026-04-18T12:44:12.992Z</time></trkpt><trkpt lat="43.1759167" lon="12.7845583"><ele>485.0</ele><time>2026-04-18T12:44:13.992Z</time></trkpt><trkpt lat="43.1757517" lon="12.7845933"><ele>485.0</ele><time>2026-04-18T12:44:14.992Z</time></trkpt><trkpt lat="43.1755883" lon="12.7846367"><ele>485.0</ele><time>2026-04-18T12:44:15.992Z</time></trkpt><trkpt lat="43.1754367" lon="12.78468"><ele>484.5</ele><time>2026-04-18T12:44:16.992Z</time></trkpt><trkpt lat="43.1752933" lon="12.7847367"><ele>484.0</ele><time>2026-04-18T12:44:17.992Z</time></trkpt><trkpt lat="43.1751617" lon="12.78482"><ele>483.5</ele><time>2026-04-18T12:44:18.992Z</time></trkpt><trkpt lat="43.175045" lon="12.7849517"><ele>483.0</ele><time>2026-04-18T12:44:19.992Z</time></trkpt><trkpt lat="43.1749317" lon="12.7851167"><ele>483.33333333333337</ele><time>2026-04-18T12:44:20.992Z</time></trkpt><trkpt lat="43.1748217" lon="12.7853033"><ele>483.6666666666667</ele><time>2026-04-18T12:44:21.992Z</time></trkpt><trkpt lat="43.1747133" lon="12.785505"><ele>484.0</ele><time>2026-04-18T12:44:22.992Z</time></trkpt><trkpt lat="43.1746033" lon="12.7856917"><ele>484.0</ele><time>2026-04-18T12:44:23.992Z</time></trkpt><trkpt lat="43.1744933" lon="12.78585"><ele>484.0</ele><time>2026-04-18T12:44:24.992Z</time></trkpt><trkpt lat="43.174375" lon="12.785985"><ele>484.0</ele><time>2026-04-18T12:44:25.991Z</time></trkpt><trkpt lat="43.1742433" lon="12.7860817"><ele>484.6666666666667</ele><time>2026-04-18T12:44:26.991Z</time></trkpt><trkpt lat="43.1740883" lon="12.7861617"><ele>485.33333333333337</ele><time>2026-04-18T12:44:27.991Z</time></trkpt><trkpt lat="43.1739233" lon="12.786245"><ele>486.0</ele><time>2026-04-18T12:44:28.991Z</time></trkpt><trkpt lat="43.1737483" lon="12.7863267"><ele>486.0</ele><time>2026-04-18T12:44:29.991Z</time></trkpt><trkpt lat="43.1735633" lon="12.7864117"><ele>486.0</ele><time>2026-04-18T12:44:30.991Z</time></trkpt><trkpt lat="43.1733783" lon="12.7865033"><ele>486.0</ele><time>2026-04-18T12:44:31.991Z</time></trkpt><trkpt lat="43.1731967" lon="12.7866"><ele>486.0</ele><time>2026-04-18T12:44:32.991Z</time></trkpt><trkpt lat="43.1730167" lon="12.7867017"><ele>486.0</ele><time>2026-04-18T12:44:33.991Z</time></trkpt><trkpt lat="43.1728317" lon="12.7868017"><ele>486.0</ele><time>2026-04-18T12:44:34.991Z</time></trkpt><trkpt lat="43.17264" lon="12.7868933"><ele>486.33333333333337</ele><time>2026-04-18T12:44:35.991Z</time></trkpt><trkpt lat="43.1724483" lon="12.786985"><ele>486.6666666666667</ele><time>2026-04-18T12:44:36.991Z</time></trkpt><trkpt lat="43.1722533" lon="12.7870783"><ele>487.0</ele><time>2026-04-18T12:44:37.991Z</time></trkpt><trkpt lat="43.17206" lon="12.7871683"><ele>487.0</ele><time>2026-04-18T12:44:38.991Z</time></trkpt><trkpt lat="43.1718667" lon="12.787265"><ele>487.0</ele><time>2026-04-18T12:44:39.991Z</time></trkpt><trkpt lat="43.1716783" lon="12.7873583"><ele>487.0</ele><time>2026-04-18T12:44:40.991Z</time></trkpt><trkpt lat="43.1714883" lon="12.7874567"><ele>486.6666666666667</ele><time>2026-04-18T12:44:41.991Z</time></trkpt><trkpt lat="43.1712867" lon="12.7875567"><ele>486.33333333333337</ele><time>2026-04-18T12:44:42.991Z</time></trkpt><trkpt lat="43.1710917" lon="12.7876483"><ele>486.0</ele><time>2026-04-18T12:44:43.991Z</time></trkpt><trkpt lat="43.1708933" lon="12.7877417"><ele>486.0</ele><time>2026-04-18T12:44:44.991Z</time></trkpt><trkpt lat="43.1706983" lon="12.7878417"><ele>486.0</ele><time>2026-04-18T12:44:45.991Z</time></trkpt><trkpt lat="43.1705033" lon="12.78794"><ele>486.0</ele><time>2026-04-18T12:44:46.991Z</time></trkpt><trkpt lat="43.1703017" lon="12.7880433"><ele>485.0</ele><time>2026-04-18T12:44:47.991Z</time></trkpt><trkpt lat="43.170105" lon="12.7881467"><ele>484.0</ele><time>2026-04-18T12:44:48.991Z</time></trkpt><trkpt lat="43.1699033" lon="12.7882533"><ele>483.0</ele><time>2026-04-18T12:44:49.991Z</time></trkpt><trkpt lat="43.1697067" lon="12.7883617"><ele>483.33333333333337</ele><time>2026-04-18T12:44:50.991Z</time></trkpt><trkpt lat="43.1694967" lon="12.78846"><ele>483.6666666666667</ele><time>2026-04-18T12:44:51.991Z</time></trkpt><trkpt lat="43.1692917" lon="12.78856"><ele>484.0</ele><time>2026-04-18T12:44:52.991Z</time></trkpt><trkpt lat="43.1690883" lon="12.788665"><ele>483.0</ele><time>2026-04-18T12:44:53.991Z</time></trkpt><trkpt lat="43.1688867" lon="12.78877"><ele>482.0</ele><time>2026-04-18T12:44:54.991Z</time></trkpt><trkpt lat="43.1686867" lon="12.78887"><ele>481.0</ele><time>2026-04-18T12:44:55.991Z</time></trkpt><trkpt lat="43.1684883" lon="12.7889683"><ele>481.0</ele><time>2026-04-18T12:44:56.991Z</time></trkpt><trkpt lat="43.1682867" lon="12.7890683"><ele>481.0</ele><time>2026-04-18T12:44:57.991Z</time></trkpt><trkpt lat="43.168085" lon="12.78917"><ele>481.0</ele><time>2026-04-18T12:44:58.991Z</time></trkpt><trkpt lat="43.167885" lon="12.7892733"><ele>482.33333333333337</ele><time>2026-04-18T12:44:59.991Z</time></trkpt><trkpt lat="43.167685" lon="12.7893717"><ele>483.66666666666663</ele><time>2026-04-18T12:45:00.991Z</time></trkpt><trkpt lat="43.1674867" lon="12.7894667"><ele>485.0</ele><time>2026-04-18T12:45:01.991Z</time></trkpt><trkpt lat="43.1672867" lon="12.789565"><ele>485.66666666666663</ele><time>2026-04-18T12:45:02.991Z</time></trkpt><trkpt lat="43.16709" lon="12.7896633"><ele>486.33333333333337</ele><time>2026-04-18T12:45:03.991Z</time></trkpt><trkpt lat="43.1669017" lon="12.7897633"><ele>487.0</ele><time>2026-04-18T12:45:04.991Z</time></trkpt><trkpt lat="43.1667067" lon="12.7898633"><ele>487.33333333333337</ele><time>2026-04-18T12:45:05.991Z</time></trkpt><trkpt lat="43.1665133" lon="12.789955"><ele>487.66666666666663</ele><time>2026-04-18T12:45:06.991Z</time></trkpt><trkpt lat="43.16632" lon="12.79005"><ele>488.0</ele><time>2026-04-18T12:45:07.991Z</time></trkpt><trkpt lat="43.1661283" lon="12.7901417"><ele>489.0</ele><time>2026-04-18T12:45:08.991Z</time></trkpt><trkpt lat="43.1659383" lon="12.7902333"><ele>490.0</ele><time>2026-04-18T12:45:09.991Z</time></trkpt><trkpt lat="43.1657483" lon="12.790325"><ele>491.0</ele><time>2026-04-18T12:45:10.991Z</time></trkpt><trkpt lat="43.1655567" lon="12.7904217"><ele>491.0</ele><time>2026-04-18T12:45:11.991Z</time></trkpt><trkpt lat="43.1653717" lon="12.7905183"><ele>491.0</ele><time>2026-04-18T12:45:12.991Z</time></trkpt><trkpt lat="43.1651833" lon="12.7906183"><ele>491.0</ele><time>2026-04-18T12:45:13.991Z</time></trkpt><trkpt lat="43.1649967" lon="12.7907167"><ele>491.0</ele><time>2026-04-18T12:45:14.991Z</time></trkpt><trkpt lat="43.1648167" lon="12.79082"><ele>491.0</ele><time>2026-04-18T12:45:15.991Z</time></trkpt><trkpt lat="43.16463" lon="12.79092"><ele>491.0</ele><time>2026-04-18T12:45:16.991Z</time></trkpt><trkpt lat="43.16444" lon="12.791015"><ele>491.0</ele><time>2026-04-18T12:45:17.991Z</time></trkpt><trkpt lat="43.164245" lon="12.7911067"><ele>491.0</ele><time>2026-04-18T12:45:18.991Z</time></trkpt><trkpt lat="43.1640517" lon="12.7912017"><ele>491.0</ele><time>2026-04-18T12:45:19.991Z</time></trkpt><trkpt lat="43.163855" lon="12.7913"><ele>491.0</ele><time>2026-04-18T12:45:20.991Z</time></trkpt><trkpt lat="43.1636567" lon="12.7913933"><ele>491.0</ele><time>2026-04-18T12:45:21.991Z</time></trkpt><trkpt lat="43.16346" lon="12.79149"><ele>491.0</ele><time>2026-04-18T12:45:22.991Z</time></trkpt><trkpt lat="43.1632667" lon="12.7915833"><ele>490.66666666666663</ele><time>2026-04-18T12:45:23.991Z</time></trkpt><trkpt lat="43.16307" lon="12.7916833"><ele>490.33333333333337</ele><time>2026-04-18T12:45:24.991Z</time></trkpt><trkpt lat="43.16287" lon="12.7917883"><ele>490.0</ele><time>2026-04-18T12:45:25.991Z</time></trkpt><trkpt lat="43.1626767" lon="12.7919117"><ele>489.6666666666667</ele><time>2026-04-18T12:45:26.991Z</time></trkpt><trkpt lat="43.1624933" lon="12.79204"><ele>489.33333333333337</ele><time>2026-04-18T12:45:27.991Z</time></trkpt><trkpt lat="43.1623033" lon="12.79217"><ele>489.0</ele><time>2026-04-18T12:45:28.991Z</time></trkpt><trkpt lat="43.16212" lon="12.792305"><ele>489.0</ele><time>2026-04-18T12:45:29.991Z</time></trkpt><trkpt lat="43.16193" lon="12.7924333"><ele>489.0</ele><time>2026-04-18T12:45:30.991Z</time></trkpt><trkpt lat="43.1617383" lon="12.792565"><ele>489.0</ele><time>2026-04-18T12:45:31.991Z</time></trkpt><trkpt lat="43.1615433" lon="12.7926917"><ele>489.0</ele><time>2026-04-18T12:45:32.991Z</time></trkpt><trkpt lat="43.1613617" lon="12.7928167"><ele>489.0</ele><time>2026-04-18T12:45:33.991Z</time></trkpt><trkpt lat="43.1611733" lon="12.79294"><ele>489.0</ele><time>2026-04-18T12:45:34.991Z</time></trkpt><trkpt lat="43.1609867" lon="12.7930667"><ele>489.0</ele><time>2026-04-18T12:45:35.991Z</time></trkpt><trkpt lat="43.1607983" lon="12.7931933"><ele>489.0</ele><time>2026-04-18T12:45:36.991Z</time></trkpt><trkpt lat="43.1606183" lon="12.7933233"><ele>489.0</ele><time>2026-04-18T12:45:37.991Z</time></trkpt><trkpt lat="43.1604233" lon="12.7934517"><ele>490.33333333333337</ele><time>2026-04-18T12:45:38.991Z</time></trkpt><trkpt lat="43.1602317" lon="12.7935783"><ele>491.6666666666667</ele><time>2026-04-18T12:45:39.991Z</time></trkpt><trkpt lat="43.1600367" lon="12.7937083"><ele>493.0</ele><time>2026-04-18T12:45:40.991Z</time></trkpt><trkpt lat="43.159845" lon="12.7938317"><ele>493.6666666666667</ele><time>2026-04-18T12:45:41.991Z</time></trkpt><trkpt lat="43.15966" lon="12.7939533"><ele>494.33333333333337</ele><time>2026-04-18T12:45:42.991Z</time></trkpt><trkpt lat="43.1594833" lon="12.7940767"><ele>495.0</ele><time>2026-04-18T12:45:43.991Z</time></trkpt><trkpt lat="43.1593167" lon="12.794195"><ele>495.0</ele><time>2026-04-18T12:45:44.991Z</time></trkpt><trkpt lat="43.1591467" lon="12.7943017"><ele>495.0</ele><time>2026-04-18T12:45:45.991Z</time></trkpt><trkpt lat="43.1589817" lon="12.7943983"><ele>495.0</ele><time>2026-04-18T12:45:46.991Z</time></trkpt><trkpt lat="43.1588233" lon="12.7944917"><ele>495.33333333333337</ele><time>2026-04-18T12:45:47.991Z</time></trkpt><trkpt lat="43.158655" lon="12.794575"><ele>495.6666666666667</ele><time>2026-04-18T12:45:48.991Z</time></trkpt><trkpt lat="43.15848" lon="12.7946467"><ele>496.0</ele><time>2026-04-18T12:45:49.991Z</time></trkpt><trkpt lat="43.1582983" lon="12.794695"><ele>495.0</ele><time>2026-04-18T12:45:50.991Z</time></trkpt><trkpt lat="43.1581133" lon="12.79475"><ele>494.0</ele><time>2026-04-18T12:45:51.991Z</time></trkpt><trkpt lat="43.1579233" lon="12.79481"><ele>493.0</ele><time>2026-04-18T12:45:52.991Z</time></trkpt><trkpt lat="43.157735" lon="12.794865"><ele>493.0</ele><time>2026-04-18T12:45:53.991Z</time></trkpt><trkpt lat="43.1575483" lon="12.7949233"><ele>493.0</ele><time>2026-04-18T12:45:54.991Z</time></trkpt><trkpt lat="43.1573533" lon="12.7949767"><ele>493.0</ele><time>2026-04-18T12:45:55.991Z</time></trkpt><trkpt lat="43.1571633" lon="12.7950283"><ele>492.6666666666667</ele><time>2026-04-18T12:45:56.991Z</time></trkpt><trkpt lat="43.1569733" lon="12.7950783"><ele>492.33333333333337</ele><time>2026-04-18T12:45:57.99Z</time></trkpt><trkpt lat="43.1567783" lon="12.7951267"><ele>492.0</ele><time>2026-04-18T12:45:58.991Z</time></trkpt><trkpt lat="43.1565917" lon="12.795165"><ele>493.66666666666663</ele><time>2026-04-18T12:45:59.991Z</time></trkpt><trkpt lat="43.1564083" lon="12.7952117"><ele>495.3333333333333</ele><time>2026-04-18T12:46:00.991Z</time></trkpt><trkpt lat="43.1562383" lon="12.79527"><ele>497.0</ele><time>2026-04-18T12:46:01.991Z</time></trkpt><trkpt lat="43.1560667" lon="12.7953233"><ele>497.0</ele><time>2026-04-18T12:46:02.991Z</time></trkpt><trkpt lat="43.1558867" lon="12.79538"><ele>497.0</ele><time>2026-04-18T12:46:03.991Z</time></trkpt><trkpt lat="43.15571" lon="12.7954433"><ele>497.0</ele><time>2026-04-18T12:46:04.991Z</time></trkpt><trkpt lat="43.15553" lon="12.7955033"><ele>495.0</ele><time>2026-04-18T12:46:05.991Z</time></trkpt><trkpt lat="43.1553433" lon="12.7955567"><ele>493.0</ele><time>2026-04-18T12:46:06.991Z</time></trkpt><trkpt lat="43.1551567" lon="12.79561"><ele>491.0</ele><time>2026-04-18T12:46:07.991Z</time></trkpt><trkpt lat="43.15497" lon="12.79567"><ele>492.3333333333333</ele><time>2026-04-18T12:46:08.991Z</time></trkpt><trkpt lat="43.1547783" lon="12.7957217"><ele>493.66666666666663</ele><time>2026-04-18T12:46:09.991Z</time></trkpt><trkpt lat="43.15459" lon="12.7957683"><ele>495.0</ele><time>2026-04-18T12:46:10.991Z</time></trkpt><trkpt lat="43.1544033" lon="12.7958"><ele>495.0</ele><time>2026-04-18T12:46:11.991Z</time></trkpt><trkpt lat="43.1542167" lon="12.79582"><ele>495.0</ele><time>2026-04-18T12:46:12.991Z</time></trkpt><trkpt lat="43.154025" lon="12.7958283"><ele>495.0</ele><time>2026-04-18T12:46:13.991Z</time></trkpt><trkpt lat="43.1538317" lon="12.795825"><ele>498.33333333333337</ele><time>2026-04-18T12:46:14.991Z</time></trkpt><trkpt lat="43.1536417" lon="12.79581"><ele>501.6666666666667</ele><time>2026-04-18T12:46:15.991Z</time></trkpt><trkpt lat="43.153445" lon="12.7957867"><ele>505.0</ele><time>2026-04-18T12:46:16.991Z</time></trkpt><trkpt lat="43.1532617" lon="12.79576"><ele>508.0</ele><time>2026-04-18T12:46:17.991Z</time></trkpt><trkpt lat="43.1530983" lon="12.7957483"><ele>511.0</ele><time>2026-04-18T12:46:18.991Z</time></trkpt><trkpt lat="43.1529433" lon="12.7957383"><ele>514.0</ele><time>2026-04-18T12:46:19.991Z</time></trkpt><trkpt lat="43.152805" lon="12.795735"><ele>514.0</ele><time>2026-04-18T12:46:20.991Z</time></trkpt><trkpt lat="43.1526617" lon="12.7957333"><ele>514.0</ele><time>2026-04-18T12:46:21.991Z</time></trkpt><trkpt lat="43.15252" lon="12.7957417"><ele>514.0</ele><time>2026-04-18T12:46:22.991Z</time></trkpt><trkpt lat="43.1523817" lon="12.7957617"><ele>514.0</ele><time>2026-04-18T12:46:23.991Z</time></trkpt><trkpt lat="43.152255" lon="12.7957733"><ele>512.0</ele><time>2026-04-18T12:46:24.991Z</time></trkpt><trkpt lat="43.1521233" lon="12.7958067"><ele>510.0</ele><time>2026-04-18T12:46:25.991Z</time></trkpt><trkpt lat="43.1520067" lon="12.7958583"><ele>508.0</ele><time>2026-04-18T12:46:26.991Z</time></trkpt><trkpt lat="43.1518967" lon="12.7959233"><ele>506.0</ele><time>2026-04-18T12:46:27.991Z</time></trkpt><trkpt lat="43.15178" lon="12.7959817"><ele>506.5</ele><time>2026-04-18T12:46:28.991Z</time></trkpt><trkpt lat="43.1516633" lon="12.7960267"><ele>507.0</ele><time>2026-04-18T12:46:29.991Z</time></trkpt><trkpt lat="43.1515483" lon="12.7960567"><ele>507.5</ele><time>2026-04-18T12:46:30.991Z</time></trkpt><trkpt lat="43.151415" lon="12.7960633"><ele>508.0</ele><time>2026-04-18T12:46:31.991Z</time></trkpt><trkpt lat="43.1512733" lon="12.796055"><ele>508.0</ele><time>2026-04-18T12:46:32.991Z</time></trkpt><trkpt lat="43.151125" lon="12.7960283"><ele>508.0</ele><time>2026-04-18T12:46:33.991Z</time></trkpt><trkpt lat="43.1509883" lon="12.796"><ele>508.0</ele><time>2026-04-18T12:46:34.991Z</time></trkpt><trkpt lat="43.1508783" lon="12.7959767"><ele>508.0</ele><time>2026-04-18T12:46:35.991Z</time></trkpt><trkpt lat="43.15079" lon="12.7959583"><ele>507.00000000000006</ele><time>2026-04-18T12:46:36.991Z</time></trkpt><trkpt lat="43.1507137" lon="12.7959411"><ele>506.0</ele><time>2026-04-18T12:46:37.991Z</time></trkpt><trkpt lat="43.150649" lon="12.795926"><ele>505.0</ele><time>2026-04-18T12:46:38.991Z</time></trkpt><trkpt lat="43.1505864" lon="12.7959054"><ele>504.0</ele><time>2026-04-18T12:46:39.991Z</time></trkpt><trkpt lat="43.1505153" lon="12.7958859"><ele>503.00000000000006</ele><time>2026-04-18T12:46:40.991Z</time></trkpt><trkpt lat="43.1504232" lon="12.7958637"><ele>502.0</ele><time>2026-04-18T12:46:41.991Z</time></trkpt><trkpt lat="43.1503145" lon="12.7958397"><ele>501.25</ele><time>2026-04-18T12:46:42.991Z</time></trkpt><trkpt lat="43.1501942" lon="12.7958157"><ele>500.5</ele><time>2026-04-18T12:46:43.991Z</time></trkpt><trkpt lat="43.150053" lon="12.7957868"><ele>499.75</ele><time>2026-04-18T12:46:44.991Z</time></trkpt><trkpt lat="43.1499029" lon="12.7957552"><ele>499.0</ele><time>2026-04-18T12:46:45.991Z</time></trkpt><trkpt lat="43.1497519" lon="12.7957211"><ele>498.33333333333337</ele><time>2026-04-18T12:46:46.991Z</time></trkpt><trkpt lat="43.1495935" lon="12.7956893"><ele>497.66666666666663</ele><time>2026-04-18T12:46:47.991Z</time></trkpt><trkpt lat="43.1494222" lon="12.7956594"><ele>497.0</ele><time>2026-04-18T12:46:48.991Z</time></trkpt><trkpt lat="43.1492482" lon="12.7956279"><ele>497.0</ele><time>2026-04-18T12:46:49.991Z</time></trkpt><trkpt lat="43.1490764" lon="12.7955976"><ele>497.0</ele><time>2026-04-18T12:46:50.991Z</time></trkpt><trkpt lat="43.1489119" lon="12.7955746"><ele>497.0</ele><time>2026-04-18T12:46:51.991Z</time></trkpt><trkpt lat="43.1487612" lon="12.7955562"><ele>498.0</ele><time>2026-04-18T12:46:52.991Z</time></trkpt><trkpt lat="43.1486206" lon="12.7955086"><ele>499.0</ele><time>2026-04-18T12:46:53.991Z</time></trkpt><trkpt lat="43.1484873" lon="12.7954186"><ele>500.0</ele><time>2026-04-18T12:46:54.991Z</time></trkpt><trkpt lat="43.1483572" lon="12.7952994"><ele>500.0</ele><time>2026-04-18T12:46:55.991Z</time></trkpt><trkpt lat="43.1482289" lon="12.7951556"><ele>500.0</ele><time>2026-04-18T12:46:56.991Z</time></trkpt><trkpt lat="43.1480988" lon="12.7949843"><ele>500.0</ele><time>2026-04-18T12:46:57.991Z</time></trkpt><trkpt lat="43.1479674" lon="12.7948059"><ele>500.0</ele><time>2026-04-18T12:46:58.991Z</time></trkpt><trkpt lat="43.1478394" lon="12.7946268"><ele>500.0</ele><time>2026-04-18T12:46:59.991Z</time></trkpt><trkpt lat="43.1477102" lon="12.7944394"><ele>500.0</ele><time>2026-04-18T12:47:00.991Z</time></trkpt><trkpt lat="43.1475764" lon="12.7942389"><ele>498.3333333333333</ele><time>2026-04-18T12:47:01.991Z</time></trkpt><trkpt lat="43.1474333" lon="12.7940244"><ele>496.66666666666663</ele><time>2026-04-18T12:47:02.991Z</time></trkpt><trkpt lat="43.1472955" lon="12.7938209"><ele>495.0</ele><time>2026-04-18T12:47:03.991Z</time></trkpt><trkpt lat="43.1471684" lon="12.7936375"><ele>496.66666666666663</ele><time>2026-04-18T12:47:04.991Z</time></trkpt><trkpt lat="43.1470399" lon="12.7934849"><ele>498.3333333333333</ele><time>2026-04-18T12:47:05.991Z</time></trkpt><trkpt lat="43.1469026" lon="12.7933662"><ele>500.0</ele><time>2026-04-18T12:47:06.991Z</time></trkpt><trkpt lat="43.1467534" lon="12.7932883"><ele>500.0</ele><time>2026-04-18T12:47:07.991Z</time></trkpt><trkpt lat="43.1465956" lon="12.7932336"><ele>500.0</ele><time>2026-04-18T12:47:08.991Z</time></trkpt><trkpt lat="43.1464285" lon="12.7932044"><ele>500.0</ele><time>2026-04-18T12:47:09.991Z</time></trkpt><trkpt lat="43.146255" lon="12.79319"><ele>499.3333333333333</ele><time>2026-04-18T12:47:10.991Z</time></trkpt><trkpt lat="43.1460883" lon="12.7931817"><ele>498.66666666666663</ele><time>2026-04-18T12:47:11.991Z</time></trkpt><trkpt lat="43.1459233" lon="12.7932033"><ele>498.0</ele><time>2026-04-18T12:47:12.991Z</time></trkpt><trkpt lat="43.1457733" lon="12.7932467"><ele>496.33333333333337</ele><time>2026-04-18T12:47:13.991Z</time></trkpt><trkpt lat="43.1456283" lon="12.7933317"><ele>494.6666666666667</ele><time>2026-04-18T12:47:14.991Z</time></trkpt><trkpt lat="43.145495" lon="12.79345"><ele>493.0</ele><time>2026-04-18T12:47:15.991Z</time></trkpt><trkpt lat="43.1453667" lon="12.7935967"><ele>493.0</ele><time>2026-04-18T12:47:16.991Z</time></trkpt><trkpt lat="43.1452383" lon="12.7937583"><ele>493.0</ele><time>2026-04-18T12:47:17.991Z</time></trkpt><trkpt lat="43.145125" lon="12.793925"><ele>493.0</ele><time>2026-04-18T12:47:18.991Z</time></trkpt><trkpt lat="43.1450067" lon="12.7940817"><ele>493.0</ele><time>2026-04-18T12:47:19.991Z</time></trkpt><trkpt lat="43.1448917" lon="12.7942267"><ele>493.0</ele><time>2026-04-18T12:47:20.991Z</time></trkpt><trkpt lat="43.1447817" lon="12.7943483"><ele>493.0</ele><time>2026-04-18T12:47:21.991Z</time></trkpt><trkpt lat="43.1446617" lon="12.7944367"><ele>493.0</ele><time>2026-04-18T12:47:22.991Z</time></trkpt><trkpt lat="43.144525" lon="12.7944833"><ele>493.33333333333337</ele><time>2026-04-18T12:47:23.991Z</time></trkpt><trkpt lat="43.1443867" lon="12.7945"><ele>493.66666666666663</ele><time>2026-04-18T12:47:24.991Z</time></trkpt><trkpt lat="43.1442367" lon="12.794495"><ele>494.0</ele><time>2026-04-18T12:47:25.991Z</time></trkpt><trkpt lat="43.1440733" lon="12.794475"><ele>492.66666666666663</ele><time>2026-04-18T12:47:26.991Z</time></trkpt><trkpt lat="43.1439117" lon="12.7944417"><ele>491.33333333333337</ele><time>2026-04-18T12:47:27.991Z</time></trkpt><trkpt lat="43.1437617" lon="12.794385"><ele>490.0</ele><time>2026-04-18T12:47:28.991Z</time></trkpt><trkpt lat="43.1436217" lon="12.7943067"><ele>487.6666666666667</ele><time>2026-04-18T12:47:29.991Z</time></trkpt><trkpt lat="43.1434817" lon="12.79422"><ele>485.33333333333337</ele><time>2026-04-18T12:47:30.991Z</time></trkpt><trkpt lat="43.143345" lon="12.79411"><ele>483.0</ele><time>2026-04-18T12:47:31.991Z</time></trkpt><trkpt lat="43.1432083" lon="12.7940117"><ele>480.0</ele><time>2026-04-18T12:47:32.991Z</time></trkpt><trkpt lat="43.1430783" lon="12.7939167"><ele>477.0</ele><time>2026-04-18T12:47:33.991Z</time></trkpt><trkpt lat="43.1429317" lon="12.79385"><ele>474.0</ele><time>2026-04-18T12:47:34.991Z</time></trkpt><trkpt lat="43.1427817" lon="12.7938017"><ele>474.0</ele><time>2026-04-18T12:47:35.991Z</time></trkpt><trkpt lat="43.1426283" lon="12.7937633"><ele>474.0</ele><time>2026-04-18T12:47:36.991Z</time></trkpt><trkpt lat="43.1424667" lon="12.7937183"><ele>474.0</ele><time>2026-04-18T12:47:37.991Z</time></trkpt><trkpt lat="43.1423067" lon="12.79367"><ele>472.0</ele><time>2026-04-18T12:47:38.991Z</time></trkpt><trkpt lat="43.1421383" lon="12.7936217"><ele>470.0</ele><time>2026-04-18T12:47:39.991Z</time></trkpt><trkpt lat="43.1419683" lon="12.7935783"><ele>468.0</ele><time>2026-04-18T12:47:40.991Z</time></trkpt><trkpt lat="43.1417917" lon="12.7935317"><ele>466.66666666666663</ele><time>2026-04-18T12:47:41.991Z</time></trkpt><trkpt lat="43.141615" lon="12.7934967"><ele>465.3333333333333</ele><time>2026-04-18T12:47:42.991Z</time></trkpt><trkpt lat="43.1414383" lon="12.7934483"><ele>464.0</ele><time>2026-04-18T12:47:43.991Z</time></trkpt><trkpt lat="43.1412617" lon="12.793405"><ele>463.0</ele><time>2026-04-18T12:47:44.991Z</time></trkpt><trkpt lat="43.14109" lon="12.7933617"><ele>462.0</ele><time>2026-04-18T12:47:45.991Z</time></trkpt><trkpt lat="43.1409217" lon="12.7933183"><ele>461.0</ele><time>2026-04-18T12:47:46.991Z</time></trkpt><trkpt lat="43.1407483" lon="12.7932817"><ele>460.66666666666663</ele><time>2026-04-18T12:47:47.991Z</time></trkpt><trkpt lat="43.1405783" lon="12.7932467"><ele>460.33333333333337</ele><time>2026-04-18T12:47:48.991Z</time></trkpt><trkpt lat="43.14041" lon="12.793205"><ele>460.0</ele><time>2026-04-18T12:47:49.991Z</time></trkpt><trkpt lat="43.1402417" lon="12.79316"><ele>460.0</ele><time>2026-04-18T12:47:50.991Z</time></trkpt><trkpt lat="43.140075" lon="12.79311"><ele>460.0</ele><time>2026-04-18T12:47:51.991Z</time></trkpt><trkpt lat="43.1399017" lon="12.7930567"><ele>460.0</ele><time>2026-04-18T12:47:52.991Z</time></trkpt><trkpt lat="43.139735" lon="12.792985"><ele>461.6666666666667</ele><time>2026-04-18T12:47:53.991Z</time></trkpt><trkpt lat="43.1395767" lon="12.7928917"><ele>463.33333333333337</ele><time>2026-04-18T12:47:54.991Z</time></trkpt><trkpt lat="43.1394283" lon="12.7927717"><ele>465.0</ele><time>2026-04-18T12:47:55.991Z</time></trkpt><trkpt lat="43.139295" lon="12.7926283"><ele>465.0</ele><time>2026-04-18T12:47:56.991Z</time></trkpt><trkpt lat="43.139175" lon="12.792465"><ele>465.0</ele><time>2026-04-18T12:47:57.991Z</time></trkpt><trkpt lat="43.1390617" lon="12.7922883"><ele>465.0</ele><time>2026-04-18T12:47:58.991Z</time></trkpt><trkpt lat="43.1389433" lon="12.792105"><ele>470.0</ele><time>2026-04-18T12:47:59.991Z</time></trkpt><trkpt lat="43.138815" lon="12.7919133"><ele>475.0</ele><time>2026-04-18T12:48:00.991Z</time></trkpt><trkpt lat="43.1386833" lon="12.79173"><ele>480.0</ele><time>2026-04-18T12:48:01.991Z</time></trkpt><trkpt lat="43.13856" lon="12.7915533"><ele>480.0</ele><time>2026-04-18T12:48:02.991Z</time></trkpt><trkpt lat="43.138435" lon="12.7913833"><ele>480.0</ele><time>2026-04-18T12:48:03.991Z</time></trkpt><trkpt lat="43.13831" lon="12.7912283"><ele>480.0</ele><time>2026-04-18T12:48:04.991Z</time></trkpt><trkpt lat="43.1381917" lon="12.791095"><ele>480.75</ele><time>2026-04-18T12:48:05.991Z</time></trkpt><trkpt lat="43.1380817" lon="12.790985"><ele>481.5</ele><time>2026-04-18T12:48:06.991Z</time></trkpt><trkpt lat="43.1379683" lon="12.7909183"><ele>482.25</ele><time>2026-04-18T12:48:07.991Z</time></trkpt><trkpt lat="43.1378517" lon="12.7909"><ele>483.0</ele><time>2026-04-18T12:48:08.991Z</time></trkpt><trkpt lat="43.13774" lon="12.7909017"><ele>483.0</ele><time>2026-04-18T12:48:09.991Z</time></trkpt><trkpt lat="43.1376233" lon="12.790905"><ele>483.0</ele><time>2026-04-18T12:48:10.991Z</time></trkpt><trkpt lat="43.1375" lon="12.7909217"><ele>483.0</ele><time>2026-04-18T12:48:11.991Z</time></trkpt><trkpt lat="43.1373783" lon="12.7909467"><ele>483.0</ele><time>2026-04-18T12:48:12.991Z</time></trkpt><trkpt lat="43.1372433" lon="12.7909767"><ele>482.25</ele><time>2026-04-18T12:48:13.991Z</time></trkpt><trkpt lat="43.1371117" lon="12.79102"><ele>481.5</ele><time>2026-04-18T12:48:14.991Z</time></trkpt><trkpt lat="43.1369867" lon="12.7910817"><ele>480.75</ele><time>2026-04-18T12:48:15.991Z</time></trkpt><trkpt lat="43.136865" lon="12.79115"><ele>480.0</ele><time>2026-04-18T12:48:16.99Z</time></trkpt><trkpt lat="43.136745" lon="12.7912183"><ele>480.0</ele><time>2026-04-18T12:48:17.99Z</time></trkpt><trkpt lat="43.136625" lon="12.7912817"><ele>480.0</ele><time>2026-04-18T12:48:18.99Z</time></trkpt><trkpt lat="43.1365133" lon="12.7913467"><ele>480.0</ele><time>2026-04-18T12:48:19.99Z</time></trkpt><trkpt lat="43.1363983" lon="12.7914117"><ele>480.0</ele><time>2026-04-18T12:48:20.99Z</time></trkpt><trkpt lat="43.1362833" lon="12.7914717"><ele>478.25</ele><time>2026-04-18T12:48:21.99Z</time></trkpt><trkpt lat="43.1361617" lon="12.79153"><ele>476.5</ele><time>2026-04-18T12:48:22.99Z</time></trkpt><trkpt lat="43.1360483" lon="12.7915683"><ele>474.75</ele><time>2026-04-18T12:48:23.99Z</time></trkpt><trkpt lat="43.1359367" lon="12.7915867"><ele>473.0</ele><time>2026-04-18T12:48:24.99Z</time></trkpt><trkpt lat="43.135815" lon="12.7915467"><ele>475.5</ele><time>2026-04-18T12:48:25.99Z</time></trkpt><trkpt lat="43.1356917" lon="12.7914717"><ele>478.0</ele><time>2026-04-18T12:48:26.99Z</time></trkpt><trkpt lat="43.1355683" lon="12.7913783"><ele>480.5</ele><time>2026-04-18T12:48:27.99Z</time></trkpt><trkpt lat="43.135435" lon="12.7912817"><ele>483.0</ele><time>2026-04-18T12:48:28.99Z</time></trkpt><trkpt lat="43.1352867" lon="12.7911767"><ele>483.0</ele><time>2026-04-18T12:48:29.99Z</time></trkpt><trkpt lat="43.13513" lon="12.7910567"><ele>483.0</ele><time>2026-04-18T12:48:30.99Z</time></trkpt><trkpt lat="43.1349667" lon="12.7909417"><ele>483.0</ele><time>2026-04-18T12:48:31.99Z</time></trkpt><trkpt lat="43.1348083" lon="12.7908317"><ele>483.66666666666663</ele><time>2026-04-18T12:48:32.99Z</time></trkpt><trkpt lat="43.1346533" lon="12.7907233"><ele>484.3333333333333</ele><time>2026-04-18T12:48:33.99Z</time></trkpt><trkpt lat="43.134495" lon="12.7906067"><ele>485.0</ele><time>2026-04-18T12:48:34.99Z</time></trkpt><trkpt lat="43.13433" lon="12.7904733"><ele>485.0</ele><time>2026-04-18T12:48:35.99Z</time></trkpt><trkpt lat="43.1341533" lon="12.790345"><ele>485.0</ele><time>2026-04-18T12:48:36.99Z</time></trkpt><trkpt lat="43.1339717" lon="12.7902117"><ele>485.0</ele><time>2026-04-18T12:48:37.99Z</time></trkpt><trkpt lat="43.1337983" lon="12.790085"><ele>486.3333333333333</ele><time>2026-04-18T12:48:38.99Z</time></trkpt><trkpt lat="43.133645" lon="12.7899717"><ele>487.66666666666663</ele><time>2026-04-18T12:48:39.99Z</time></trkpt><trkpt lat="43.1334917" lon="12.7898717"><ele>489.0</ele><time>2026-04-18T12:48:40.99Z</time></trkpt><trkpt lat="43.1333483" lon="12.7898067"><ele>490.5</ele><time>2026-04-18T12:48:41.99Z</time></trkpt><trkpt lat="43.133205" lon="12.7897883"><ele>492.0</ele><time>2026-04-18T12:48:42.99Z</time></trkpt><trkpt lat="43.1330583" lon="12.7898017"><ele>493.5</ele><time>2026-04-18T12:48:43.99Z</time></trkpt><trkpt lat="43.1329067" lon="12.789825"><ele>495.0</ele><time>2026-04-18T12:48:44.99Z</time></trkpt><trkpt lat="43.132745" lon="12.789855"><ele>495.0</ele><time>2026-04-18T12:48:45.99Z</time></trkpt><trkpt lat="43.1325767" lon="12.7899067"><ele>495.0</ele><time>2026-04-18T12:48:46.99Z</time></trkpt><trkpt lat="43.13241" lon="12.78996"><ele>495.0</ele><time>2026-04-18T12:48:47.99Z</time></trkpt><trkpt lat="43.13225" lon="12.7900083"><ele>496.0</ele><time>2026-04-18T12:48:48.99Z</time></trkpt><trkpt lat="43.1320933" lon="12.79006"><ele>497.0</ele><time>2026-04-18T12:48:49.99Z</time></trkpt><trkpt lat="43.1319383" lon="12.79011"><ele>498.0</ele><time>2026-04-18T12:48:50.99Z</time></trkpt><trkpt lat="43.1317917" lon="12.7901617"><ele>497.75</ele><time>2026-04-18T12:48:51.989Z</time></trkpt><trkpt lat="43.13166" lon="12.79021"><ele>497.5</ele><time>2026-04-18T12:48:52.99Z</time></trkpt><trkpt lat="43.1315317" lon="12.7902717"><ele>497.25</ele><time>2026-04-18T12:48:53.99Z</time></trkpt><trkpt lat="43.1314233" lon="12.7903583"><ele>497.0</ele><time>2026-04-18T12:48:54.99Z</time></trkpt><trkpt lat="43.1313283" lon="12.7904683"><ele>497.0</ele><time>2026-04-18T12:48:55.99Z</time></trkpt><trkpt lat="43.13125" lon="12.7905967"><ele>497.0</ele><time>2026-04-18T12:48:56.99Z</time></trkpt><trkpt lat="43.13117" lon="12.7907233"><ele>497.0</ele><time>2026-04-18T12:48:57.99Z</time></trkpt><trkpt lat="43.1310867" lon="12.7908433"><ele>497.0</ele><time>2026-04-18T12:48:58.99Z</time></trkpt><trkpt lat="43.1310083" lon="12.7909683"><ele>496.5</ele><time>2026-04-18T12:48:59.99Z</time></trkpt><trkpt lat="43.1309083" lon="12.791085"><ele>496.0</ele><time>2026-04-18T12:49:00.99Z</time></trkpt><trkpt lat="43.1307933" lon="12.7911967"><ele>495.5</ele><time>2026-04-18T12:49:01.99Z</time></trkpt><trkpt lat="43.13067" lon="12.7912933"><ele>495.0</ele><time>2026-04-18T12:49:02.99Z</time></trkpt><trkpt lat="43.13054" lon="12.791375"><ele>495.0</ele><time>2026-04-18T12:49:03.99Z</time></trkpt><trkpt lat="43.130395" lon="12.7914417"><ele>495.0</ele><time>2026-04-18T12:49:04.99Z</time></trkpt><trkpt lat="43.1302433" lon="12.79149"><ele>495.0</ele><time>2026-04-18T12:49:05.99Z</time></trkpt><trkpt lat="43.1300867" lon="12.791505"><ele>495.0</ele><time>2026-04-18T12:49:06.99Z</time></trkpt><trkpt lat="43.1299217" lon="12.791515"><ele>495.0</ele><time>2026-04-18T12:49:07.99Z</time></trkpt><trkpt lat="43.1297517" lon="12.79153"><ele>495.0</ele><time>2026-04-18T12:49:08.99Z</time></trkpt><trkpt lat="43.12958" lon="12.79157"><ele>495.33333333333337</ele><time>2026-04-18T12:49:09.99Z</time></trkpt><trkpt lat="43.129415" lon="12.7916283"><ele>495.6666666666667</ele><time>2026-04-18T12:49:10.99Z</time></trkpt><trkpt lat="43.1292467" lon="12.7916933"><ele>496.0</ele><time>2026-04-18T12:49:11.99Z</time></trkpt><trkpt lat="43.12908" lon="12.7917433"><ele>496.0</ele><time>2026-04-18T12:49:12.99Z</time></trkpt><trkpt lat="43.1289033" lon="12.7917883"><ele>496.0</ele><time>2026-04-18T12:49:13.99Z</time></trkpt><trkpt lat="43.1287183" lon="12.7918117"><ele>496.0</ele><time>2026-04-18T12:49:14.99Z</time></trkpt><trkpt lat="43.12853" lon="12.7918283"><ele>499.0</ele><time>2026-04-18T12:49:15.99Z</time></trkpt><trkpt lat="43.128355" lon="12.7918417"><ele>502.0</ele><time>2026-04-18T12:49:16.99Z</time></trkpt><trkpt lat="43.12819" lon="12.7918483"><ele>505.0</ele><time>2026-04-18T12:49:17.99Z</time></trkpt><trkpt lat="43.1280367" lon="12.7918517"><ele>505.0</ele><time>2026-04-18T12:49:18.99Z</time></trkpt><trkpt lat="43.1278883" lon="12.7918533"><ele>505.0</ele><time>2026-04-18T12:49:19.99Z</time></trkpt><trkpt lat="43.1277417" lon="12.7918667"><ele>505.0</ele><time>2026-04-18T12:49:20.99Z</time></trkpt><trkpt lat="43.1276" lon="12.7918933"><ele>505.0</ele><time>2026-04-18T12:49:21.99Z</time></trkpt><trkpt lat="43.12745" lon="12.7919333"><ele>503.33333333333337</ele><time>2026-04-18T12:49:22.99Z</time></trkpt><trkpt lat="43.1272983" lon="12.791975"><ele>501.66666666666663</ele><time>2026-04-18T12:49:23.99Z</time></trkpt><trkpt lat="43.1271467" lon="12.7920183"><ele>500.0</ele><time>2026-04-18T12:49:24.99Z</time></trkpt><trkpt lat="43.1269967" lon="12.7920483"><ele>500.0</ele><time>2026-04-18T12:49:25.99Z</time></trkpt><trkpt lat="43.126855" lon="12.7920683"><ele>500.0</ele><time>2026-04-18T12:49:26.99Z</time></trkpt><trkpt lat="43.1267267" lon="12.7920833"><ele>500.0</ele><time>2026-04-18T12:49:27.99Z</time></trkpt><trkpt lat="43.1266017" lon="12.7920933"><ele>500.0</ele><time>2026-04-18T12:49:28.99Z</time></trkpt><trkpt lat="43.12648" lon="12.79209"><ele>499.8</ele><time>2026-04-18T12:49:29.99Z</time></trkpt><trkpt lat="43.1263767" lon="12.7920667"><ele>499.6</ele><time>2026-04-18T12:49:30.99Z</time></trkpt><trkpt lat="43.1262783" lon="12.79202"><ele>499.4</ele><time>2026-04-18T12:49:31.99Z</time></trkpt><trkpt lat="43.12619" lon="12.791945"><ele>499.2</ele><time>2026-04-18T12:49:32.99Z</time></trkpt><trkpt lat="43.1261" lon="12.791865"><ele>499.0</ele><time>2026-04-18T12:49:33.99Z</time></trkpt><trkpt lat="43.1260167" lon="12.7917817"><ele>499.00000000000006</ele><time>2026-04-18T12:49:34.99Z</time></trkpt><trkpt lat="43.125945" lon="12.7917033"><ele>499.0</ele><time>2026-04-18T12:49:35.99Z</time></trkpt><trkpt lat="43.1258783" lon="12.7916383"><ele>499.0</ele><time>2026-04-18T12:49:36.99Z</time></trkpt><trkpt lat="43.125815" lon="12.79158"><ele>499.0</ele><time>2026-04-18T12:49:37.99Z</time></trkpt><trkpt lat="43.1257567" lon="12.7915167"><ele>499.00000000000006</ele><time>2026-04-18T12:49:38.99Z</time></trkpt><trkpt lat="43.1257033" lon="12.7914467"><ele>499.0</ele><time>2026-04-18T12:49:39.99Z</time></trkpt><trkpt lat="43.1256483" lon="12.7913783"><ele>499.28571428571433</ele><time>2026-04-18T12:49:40.99Z</time></trkpt><trkpt lat="43.125595" lon="12.7913133"><ele>499.57142857142856</ele><time>2026-04-18T12:49:41.99Z</time></trkpt><trkpt lat="43.12555" lon="12.79125"><ele>499.8571428571429</ele><time>2026-04-18T12:49:42.99Z</time></trkpt><trkpt lat="43.125475" lon="12.7911633"><ele>500.14285714285717</ele><time>2026-04-18T12:49:44.99Z</time></trkpt><trkpt lat="43.1254617" lon="12.7912667"><ele>500.42857142857144</ele><time>2026-04-18T12:49:48.99Z</time></trkpt><trkpt lat="43.1255083" lon="12.791325"><ele>500.7142857142857</ele><time>2026-04-18T12:49:49.99Z</time></trkpt><trkpt lat="43.1255633" lon="12.7913833"><ele>501.0</ele><time>2026-04-18T12:49:50.99Z</time></trkpt><trkpt lat="43.1256217" lon="12.791445"><ele>501.0</ele><time>2026-04-18T12:49:51.99Z</time></trkpt><trkpt lat="43.12568" lon="12.7915083"><ele>501.0</ele><time>2026-04-18T12:49:52.99Z</time></trkpt><trkpt lat="43.1257233" lon="12.7915817"><ele>501.0</ele><time>2026-04-18T12:49:53.99Z</time></trkpt><trkpt lat="43.1257567" lon="12.79173"><ele>501.0</ele><time>2026-04-18T12:49:55.99Z</time></trkpt><trkpt lat="43.125705" lon="12.791865"><ele>501.0</ele><time>2026-04-18T12:49:57.99Z</time></trkpt><trkpt lat="43.1255833" lon="12.79193"><ele>501.0</ele><time>2026-04-18T12:49:59.99Z</time></trkpt><trkpt lat="43.1254933" lon="12.79192"><ele>501.0</ele><time>2026-04-18T12:50:00.99Z</time></trkpt><trkpt lat="43.12539" lon="12.7918867"><ele>501.0</ele><time>2026-04-18T12:50:01.99Z</time></trkpt><trkpt lat="43.1252817" lon="12.7918583"><ele>501.0</ele><time>2026-04-18T12:50:02.99Z</time></trkpt><trkpt lat="43.1251667" lon="12.791835"><ele>501.0</ele><time>2026-04-18T12:50:03.99Z</time></trkpt><trkpt lat="43.1250333" lon="12.79183"><ele>504.5</ele><time>2026-04-18T12:50:04.99Z</time></trkpt><trkpt lat="43.1248867" lon="12.7918417"><ele>508.0</ele><time>2026-04-18T12:50:05.99Z</time></trkpt><trkpt lat="43.12474" lon="12.7918617"><ele>511.5</ele><time>2026-04-18T12:50:06.99Z</time></trkpt><trkpt lat="43.1245917" lon="12.7918867"><ele>515.0</ele><time>2026-04-18T12:50:07.99Z</time></trkpt><trkpt lat="43.1244367" lon="12.79192"><ele>515.0</ele><time>2026-04-18T12:50:08.989Z</time></trkpt><trkpt lat="43.1242733" lon="12.7919467"><ele>515.0</ele><time>2026-04-18T12:50:09.99Z</time></trkpt><trkpt lat="43.1241" lon="12.79198"><ele>515.0</ele><time>2026-04-18T12:50:10.99Z</time></trkpt><trkpt lat="43.123925" lon="12.7920233"><ele>517.0</ele><time>2026-04-18T12:50:11.99Z</time></trkpt><trkpt lat="43.1237633" lon="12.7920817"><ele>519.0</ele><time>2026-04-18T12:50:12.99Z</time></trkpt><trkpt lat="43.1236033" lon="12.7921567"><ele>521.0</ele><time>2026-04-18T12:50:13.99Z</time></trkpt><trkpt lat="43.1234467" lon="12.792245"><ele>521.0</ele><time>2026-04-18T12:50:14.99Z</time></trkpt><trkpt lat="43.1232817" lon="12.7923233"><ele>521.0</ele><time>2026-04-18T12:50:15.99Z</time></trkpt><trkpt lat="43.1231183" lon="12.7923983"><ele>521.0</ele><time>2026-04-18T12:50:16.99Z</time></trkpt><trkpt lat="43.1229517" lon="12.7924783"><ele>521.3333333333333</ele><time>2026-04-18T12:50:17.99Z</time></trkpt><trkpt lat="43.12279" lon="12.7925517"><ele>521.6666666666666</ele><time>2026-04-18T12:50:18.99Z</time></trkpt><trkpt lat="43.12262" lon="12.792625"><ele>522.0</ele><time>2026-04-18T12:50:19.99Z</time></trkpt><trkpt lat="43.12245" lon="12.7927"><ele>525.0</ele><time>2026-04-18T12:50:20.99Z</time></trkpt><trkpt lat="43.12228" lon="12.792775"><ele>528.0</ele><time>2026-04-18T12:50:21.99Z</time></trkpt><trkpt lat="43.12211" lon="12.7928433"><ele>531.0</ele><time>2026-04-18T12:50:22.99Z</time></trkpt><trkpt lat="43.12194" lon="12.79291"><ele>531.0</ele><time>2026-04-18T12:50:23.99Z</time></trkpt><trkpt lat="43.12177" lon="12.79297"><ele>531.0</ele><time>2026-04-18T12:50:24.99Z</time></trkpt><trkpt lat="43.1216017" lon="12.7930183"><ele>531.0</ele><time>2026-04-18T12:50:25.99Z</time></trkpt><trkpt lat="43.1214367" lon="12.7930633"><ele>532.3333333333334</ele><time>2026-04-18T12:50:26.99Z</time></trkpt><trkpt lat="43.121285" lon="12.79308"><ele>533.6666666666667</ele><time>2026-04-18T12:50:27.99Z</time></trkpt><trkpt lat="43.121135" lon="12.7930717"><ele>535.0</ele><time>2026-04-18T12:50:28.99Z</time></trkpt><trkpt lat="43.1209883" lon="12.793045"><ele>535.0</ele><time>2026-04-18T12:50:29.99Z</time></trkpt><trkpt lat="43.12084" lon="12.7929733"><ele>535.0</ele><time>2026-04-18T12:50:30.99Z</time></trkpt><trkpt lat="43.1206933" lon="12.79287"><ele>535.0</ele><time>2026-04-18T12:50:31.99Z</time></trkpt><trkpt lat="43.1205567" lon="12.7927617"><ele>535.0</ele><time>2026-04-18T12:50:32.99Z</time></trkpt><trkpt lat="43.1204167" lon="12.7926567"><ele>535.0</ele><time>2026-04-18T12:50:33.99Z</time></trkpt><trkpt lat="43.1202833" lon="12.7925483"><ele>535.0</ele><time>2026-04-18T12:50:34.99Z</time></trkpt><trkpt lat="43.1201483" lon="12.7924333"><ele>535.0</ele><time>2026-04-18T12:50:35.99Z</time></trkpt><trkpt lat="43.1200117" lon="12.7923283"><ele>535.0</ele><time>2026-04-18T12:50:36.99Z</time></trkpt><trkpt lat="43.1198817" lon="12.792235"><ele>535.0</ele><time>2026-04-18T12:50:37.99Z</time></trkpt><trkpt lat="43.1197717" lon="12.7921467"><ele>535.0</ele><time>2026-04-18T12:50:38.99Z</time></trkpt><trkpt lat="43.119665" lon="12.7920633"><ele>536.0</ele><time>2026-04-18T12:50:39.99Z</time></trkpt><trkpt lat="43.1195733" lon="12.7919883"><ele>537.0</ele><time>2026-04-18T12:50:40.99Z</time></trkpt><trkpt lat="43.119495" lon="12.7919067"><ele>538.0</ele><time>2026-04-18T12:50:41.99Z</time></trkpt><trkpt lat="43.11944" lon="12.791805"><ele>539.0</ele><time>2026-04-18T12:50:42.99Z</time></trkpt><trkpt lat="43.119405" lon="12.7916717"><ele>540.0</ele><time>2026-04-18T12:50:43.99Z</time></trkpt><trkpt lat="43.1193767" lon="12.7915367"><ele>540.0</ele><time>2026-04-18T12:50:44.99Z</time></trkpt><trkpt lat="43.1193533" lon="12.7914033"><ele>540.0</ele><time>2026-04-18T12:50:45.99Z</time></trkpt><trkpt lat="43.1193217" lon="12.791285"><ele>540.0</ele><time>2026-04-18T12:50:46.99Z</time></trkpt><trkpt lat="43.1192817" lon="12.791185"><ele>540.0</ele><time>2026-04-18T12:50:47.99Z</time></trkpt><trkpt lat="43.1192233" lon="12.7911317"><ele>540.0</ele><time>2026-04-18T12:50:48.99Z</time></trkpt><trkpt lat="43.1191417" lon="12.791115"><ele>540.0</ele><time>2026-04-18T12:50:49.99Z</time></trkpt><trkpt lat="43.1190333" lon="12.7911183"><ele>538.5</ele><time>2026-04-18T12:50:50.99Z</time></trkpt><trkpt lat="43.1189033" lon="12.7911233"><ele>537.0</ele><time>2026-04-18T12:50:51.99Z</time></trkpt><trkpt lat="43.11877" lon="12.7911117"><ele>535.5</ele><time>2026-04-18T12:50:52.99Z</time></trkpt><trkpt lat="43.1186433" lon="12.7910933"><ele>534.0</ele><time>2026-04-18T12:50:53.99Z</time></trkpt><trkpt lat="43.118515" lon="12.791065"><ele>534.0</ele><time>2026-04-18T12:50:54.99Z</time></trkpt><trkpt lat="43.1183917" lon="12.79102"><ele>534.0</ele><time>2026-04-18T12:50:55.99Z</time></trkpt><trkpt lat="43.1182633" lon="12.79098"><ele>534.0</ele><time>2026-04-18T12:50:56.99Z</time></trkpt><trkpt lat="43.1181333" lon="12.790935"><ele>534.0</ele><time>2026-04-18T12:50:57.99Z</time></trkpt><trkpt lat="43.1180017" lon="12.79089"><ele>529.75</ele><time>2026-04-18T12:50:58.99Z</time></trkpt><trkpt lat="43.1178733" lon="12.7908417"><ele>525.5</ele><time>2026-04-18T12:50:59.99Z</time></trkpt><trkpt lat="43.1177417" lon="12.7907967"><ele>521.25</ele><time>2026-04-18T12:51:00.99Z</time></trkpt><trkpt lat="43.1176183" lon="12.79075"><ele>517.0</ele><time>2026-04-18T12:51:01.99Z</time></trkpt><trkpt lat="43.1175133" lon="12.7906883"><ele>514.75</ele><time>2026-04-18T12:51:02.99Z</time></trkpt><trkpt lat="43.1173933" lon="12.7906083"><ele>512.5</ele><time>2026-04-18T12:51:03.99Z</time></trkpt><trkpt lat="43.1172867" lon="12.7905167"><ele>510.25</ele><time>2026-04-18T12:51:04.99Z</time></trkpt><trkpt lat="43.1171983" lon="12.79042"><ele>508.0</ele><time>2026-04-18T12:51:05.99Z</time></trkpt><trkpt lat="43.1171067" lon="12.7903033"><ele>508.0</ele><time>2026-04-18T12:51:06.99Z</time></trkpt><trkpt lat="43.117015" lon="12.790215"><ele>507.99999999999994</ele><time>2026-04-18T12:51:07.99Z</time></trkpt><trkpt lat="43.1169133" lon="12.7901533"><ele>507.99999999999994</ele><time>2026-04-18T12:51:08.99Z</time></trkpt><trkpt lat="43.1168083" lon="12.7900983"><ele>508.0</ele><time>2026-04-18T12:51:09.99Z</time></trkpt><trkpt lat="43.1167017" lon="12.7900583"><ele>508.0</ele><time>2026-04-18T12:51:10.99Z</time></trkpt><trkpt lat="43.11659" lon="12.79003"><ele>506.5</ele><time>2026-04-18T12:51:11.99Z</time></trkpt><trkpt lat="43.1164717" lon="12.7900083"><ele>505.0</ele><time>2026-04-18T12:51:12.99Z</time></trkpt><trkpt lat="43.1163483" lon="12.7899767"><ele>503.5</ele><time>2026-04-18T12:51:13.99Z</time></trkpt><trkpt lat="43.11624" lon="12.7899317"><ele>502.0</ele><time>2026-04-18T12:51:14.99Z</time></trkpt><trkpt lat="43.1161333" lon="12.78989"><ele>502.0</ele><time>2026-04-18T12:51:15.99Z</time></trkpt><trkpt lat="43.116035" lon="12.789835"><ele>502.00000000000006</ele><time>2026-04-18T12:51:16.99Z</time></trkpt><trkpt lat="43.1159483" lon="12.7897833"><ele>502.00000000000006</ele><time>2026-04-18T12:51:17.99Z</time></trkpt><trkpt lat="43.11587" lon="12.7897217"><ele>502.0</ele><time>2026-04-18T12:51:18.99Z</time></trkpt><trkpt lat="43.1157917" lon="12.78966"><ele>502.0</ele><time>2026-04-18T12:51:19.99Z</time></trkpt><trkpt lat="43.1157217" lon="12.78959"><ele>500.8</ele><time>2026-04-18T12:51:20.99Z</time></trkpt><trkpt lat="43.11566" lon="12.7895"><ele>499.6</ele><time>2026-04-18T12:51:21.99Z</time></trkpt><trkpt lat="43.1156067" lon="12.7894017"><ele>498.40000000000003</ele><time>2026-04-18T12:51:22.99Z</time></trkpt><trkpt lat="43.115565" lon="12.789295"><ele>497.20000000000005</ele><time>2026-04-18T12:51:23.99Z</time></trkpt><trkpt lat="43.115525" lon="12.7891733"><ele>496.0</ele><time>2026-04-18T12:51:24.99Z</time></trkpt><trkpt lat="43.1154867" lon="12.7890417"><ele>496.00000000000006</ele><time>2026-04-18T12:51:25.99Z</time></trkpt><trkpt lat="43.115455" lon="12.7889017"><ele>496.0</ele><time>2026-04-18T12:51:26.99Z</time></trkpt><trkpt lat="43.115425" lon="12.78878"><ele>496.0</ele><time>2026-04-18T12:51:27.99Z</time></trkpt><trkpt lat="43.1153983" lon="12.788665"><ele>496.0</ele><time>2026-04-18T12:51:28.99Z</time></trkpt><trkpt lat="43.1153733" lon="12.788565"><ele>496.00000000000006</ele><time>2026-04-18T12:51:29.99Z</time></trkpt><trkpt lat="43.1153267" lon="12.7884733"><ele>496.0</ele><time>2026-04-18T12:51:30.99Z</time></trkpt><trkpt lat="43.11527" lon="12.7883867"><ele>496.6</ele><time>2026-04-18T12:51:31.99Z</time></trkpt><trkpt lat="43.1151967" lon="12.7883167"><ele>497.20000000000005</ele><time>2026-04-18T12:51:32.99Z</time></trkpt><trkpt lat="43.115115" lon="12.7882567"><ele>497.79999999999995</ele><time>2026-04-18T12:51:33.99Z</time></trkpt><trkpt lat="43.11503" lon="12.788225"><ele>498.4</ele><time>2026-04-18T12:51:34.99Z</time></trkpt><trkpt lat="43.11494" lon="12.7881983"><ele>499.0</ele><time>2026-04-18T12:51:35.99Z</time></trkpt><trkpt lat="43.1148483" lon="12.788185"><ele>499.0</ele><time>2026-04-18T12:51:36.99Z</time></trkpt><trkpt lat="43.1147483" lon="12.788175"><ele>499.0</ele><time>2026-04-18T12:51:37.99Z</time></trkpt><trkpt lat="43.1146567" lon="12.7881583"><ele>499.0</ele><time>2026-04-18T12:51:38.99Z</time></trkpt><trkpt lat="43.1145683" lon="12.7881767"><ele>499.0</ele><time>2026-04-18T12:51:39.99Z</time></trkpt><trkpt lat="43.1144783" lon="12.7881967"><ele>499.0</ele><time>2026-04-18T12:51:40.99Z</time></trkpt><trkpt lat="43.114385" lon="12.7882133"><ele>499.00000000000006</ele><time>2026-04-18T12:51:41.99Z</time></trkpt><trkpt lat="43.114295" lon="12.78824"><ele>499.0</ele><time>2026-04-18T12:51:42.99Z</time></trkpt><trkpt lat="43.1142117" lon="12.7882567"><ele>499.0</ele><time>2026-04-18T12:51:43.99Z</time></trkpt><trkpt lat="43.1141333" lon="12.788285"><ele>499.0</ele><time>2026-04-18T12:51:44.99Z</time></trkpt><trkpt lat="43.1140517" lon="12.788295"><ele>499.00000000000006</ele><time>2026-04-18T12:51:45.99Z</time></trkpt><trkpt lat="43.1139767" lon="12.788285"><ele>499.0</ele><time>2026-04-18T12:51:46.99Z</time></trkpt><trkpt lat="43.1139117" lon="12.7882633"><ele>498.57142857142867</ele><time>2026-04-18T12:51:47.99Z</time></trkpt><trkpt lat="43.1138383" lon="12.7882133"><ele>498.14285714285717</ele><time>2026-04-18T12:51:48.99Z</time></trkpt><trkpt lat="43.1137867" lon="12.7881483"><ele>497.7142857142858</ele><time>2026-04-18T12:51:49.99Z</time></trkpt><trkpt lat="43.113745" lon="12.7880783"><ele>497.28571428571433</ele><time>2026-04-18T12:51:50.99Z</time></trkpt><trkpt lat="43.1136983" lon="12.78801"><ele>496.8571428571429</ele><time>2026-04-18T12:51:51.99Z</time></trkpt><trkpt lat="43.1136633" lon="12.7879383"><ele>496.42857142857144</ele><time>2026-04-18T12:51:52.99Z</time></trkpt><trkpt lat="43.1136067" lon="12.7878583"><ele>496.0</ele><time>2026-04-18T12:51:54.99Z</time></trkpt><trkpt lat="43.113585" lon="12.7879767"><ele>496.0</ele><time>2026-04-18T12:51:58.99Z</time></trkpt><trkpt lat="43.1136083" lon="12.788105"><ele>496.0</ele><time>2026-04-18T12:52:00.99Z</time></trkpt><trkpt lat="43.11362" lon="12.7882667"><ele>496.0</ele><time>2026-04-18T12:52:02.99Z</time></trkpt><trkpt lat="43.1136467" lon="12.7884133"><ele>496.0</ele><time>2026-04-18T12:52:04.99Z</time></trkpt><trkpt lat="43.1136633" lon="12.7885233"><ele>496.0</ele><time>2026-04-18T12:52:06.99Z</time></trkpt><trkpt lat="43.113585" lon="12.7886067"><ele>497.33333333333337</ele><time>2026-04-18T12:52:09.99Z</time></trkpt><trkpt lat="43.1135217" lon="12.7886217"><ele>498.6666666666667</ele><time>2026-04-18T12:52:10.99Z</time></trkpt><trkpt lat="43.113455" lon="12.7886333"><ele>500.0</ele><time>2026-04-18T12:52:11.99Z</time></trkpt><trkpt lat="43.113335" lon="12.78867"><ele>501.33333333333337</ele><time>2026-04-18T12:52:13.99Z</time></trkpt><trkpt lat="43.113215" lon="12.7886933"><ele>502.6666666666667</ele><time>2026-04-18T12:52:15.99Z</time></trkpt><trkpt lat="43.1131467" lon="12.7886917"><ele>504.0</ele><time>2026-04-18T12:52:16.99Z</time></trkpt><trkpt lat="43.1130733" lon="12.78869"><ele>504.57142857142856</ele><time>2026-04-18T12:52:17.99Z</time></trkpt><trkpt lat="43.113005" lon="12.78869"><ele>505.1428571428571</ele><time>2026-04-18T12:52:18.99Z</time></trkpt><trkpt lat="43.1129317" lon="12.7886833"><ele>505.7142857142857</ele><time>2026-04-18T12:52:19.989Z</time></trkpt><trkpt lat="43.1128617" lon="12.7886717"><ele>506.2857142857143</ele><time>2026-04-18T12:52:20.989Z</time></trkpt><trkpt lat="43.1127883" lon="12.7886617"><ele>506.85714285714283</ele><time>2026-04-18T12:52:21.989Z</time></trkpt><trkpt lat="43.1127167" lon="12.7886417"><ele>507.42857142857144</ele><time>2026-04-18T12:52:22.989Z</time></trkpt><trkpt lat="43.112645" lon="12.7886133"><ele>508.0</ele><time>2026-04-18T12:52:23.989Z</time></trkpt><trkpt lat="43.1125733" lon="12.788585"><ele>508.0</ele><time>2026-04-18T12:52:24.989Z</time></trkpt><trkpt lat="43.1125133" lon="12.7885583"><ele>507.99999999999994</ele><time>2026-04-18T12:52:25.989Z</time></trkpt><trkpt lat="43.1124083" lon="12.788495"><ele>507.99999999999994</ele><time>2026-04-18T12:52:27.989Z</time></trkpt><trkpt lat="43.1123067" lon="12.7884333"><ele>508.0</ele><time>2026-04-18T12:52:29.989Z</time></trkpt><trkpt lat="43.1121967" lon="12.7883767"><ele>508.0</ele><time>2026-04-18T12:52:31.989Z</time></trkpt><trkpt lat="43.112105" lon="12.788325"><ele>505.0</ele><time>2026-04-18T12:52:33.989Z</time></trkpt><trkpt lat="43.1120417" lon="12.788305"><ele>502.0</ele><time>2026-04-18T12:52:34.989Z</time></trkpt><trkpt lat="43.1119733" lon="12.788275"><ele>499.0</ele><time>2026-04-18T12:52:35.989Z</time></trkpt><trkpt lat="43.1119133" lon="12.7882417"><ele>496.0</ele><time>2026-04-18T12:52:36.989Z</time></trkpt><trkpt lat="43.1118417" lon="12.7882"><ele>493.0</ele><time>2026-04-18T12:52:37.989Z</time></trkpt><trkpt lat="43.11177" lon="12.78816"><ele>490.0</ele><time>2026-04-18T12:52:38.989Z</time></trkpt><trkpt lat="43.1116967" lon="12.788135"><ele>487.0</ele><time>2026-04-18T12:52:39.989Z</time></trkpt><trkpt lat="43.1116183" lon="12.7881133"><ele>486.6666666666667</ele><time>2026-04-18T12:52:40.989Z</time></trkpt><trkpt lat="43.1115367" lon="12.78809"><ele>486.33333333333337</ele><time>2026-04-18T12:52:41.989Z</time></trkpt><trkpt lat="43.1114567" lon="12.7880667"><ele>486.0</ele><time>2026-04-18T12:52:42.989Z</time></trkpt><trkpt lat="43.111375" lon="12.7880483"><ele>485.66666666666663</ele><time>2026-04-18T12:52:43.989Z</time></trkpt><trkpt lat="43.1112967" lon="12.7880183"><ele>485.3333333333333</ele><time>2026-04-18T12:52:44.989Z</time></trkpt><trkpt lat="43.1112167" lon="12.787995"><ele>485.0</ele><time>2026-04-18T12:52:45.989Z</time></trkpt><trkpt lat="43.1111333" lon="12.7879717"><ele>484.99999999999994</ele><time>2026-04-18T12:52:46.989Z</time></trkpt><trkpt lat="43.111055" lon="12.7879617"><ele>485.0</ele><time>2026-04-18T12:52:47.989Z</time></trkpt><trkpt lat="43.1109783" lon="12.7879417"><ele>485.0</ele><time>2026-04-18T12:52:48.989Z</time></trkpt><trkpt lat="43.1109033" lon="12.7879267"><ele>485.0</ele><time>2026-04-18T12:52:49.989Z</time></trkpt><trkpt lat="43.110825" lon="12.7879133"><ele>484.99999999999994</ele><time>2026-04-18T12:52:50.989Z</time></trkpt><trkpt lat="43.1107483" lon="12.7879017"><ele>485.0</ele><time>2026-04-18T12:52:51.989Z</time></trkpt><trkpt lat="43.1106683" lon="12.7878967"><ele>481.66666666666663</ele><time>2026-04-18T12:52:52.989Z</time></trkpt><trkpt lat="43.1105917" lon="12.7879"><ele>478.3333333333333</ele><time>2026-04-18T12:52:53.989Z</time></trkpt><trkpt lat="43.11051" lon="12.787915"><ele>475.0</ele><time>2026-04-18T12:52:54.989Z</time></trkpt><trkpt lat="43.110435" lon="12.7879483"><ele>471.66666666666663</ele><time>2026-04-18T12:52:55.989Z</time></trkpt><trkpt lat="43.1103633" lon="12.7879883"><ele>468.3333333333333</ele><time>2026-04-18T12:52:56.989Z</time></trkpt><trkpt lat="43.110295" lon="12.7880267"><ele>465.0</ele><time>2026-04-18T12:52:57.989Z</time></trkpt><trkpt lat="43.1102283" lon="12.788055"><ele>465.0</ele><time>2026-04-18T12:52:58.989Z</time></trkpt><trkpt lat="43.1101633" lon="12.7880867"><ele>465.0</ele><time>2026-04-18T12:52:59.989Z</time></trkpt><trkpt lat="43.1101" lon="12.78812"><ele>465.0</ele><time>2026-04-18T12:53:00.989Z</time></trkpt><trkpt lat="43.11003" lon="12.78815"><ele>465.0</ele><time>2026-04-18T12:53:01.989Z</time></trkpt><trkpt lat="43.1099567" lon="12.7881767"><ele>465.0</ele><time>2026-04-18T12:53:02.989Z</time></trkpt><trkpt lat="43.1098917" lon="12.7882"><ele>465.0</ele><time>2026-04-18T12:53:03.989Z</time></trkpt><trkpt lat="43.1098217" lon="12.788225"><ele>465.0</ele><time>2026-04-18T12:53:04.989Z</time></trkpt><trkpt lat="43.109755" lon="12.7882417"><ele>462.0</ele><time>2026-04-18T12:53:05.989Z</time></trkpt><trkpt lat="43.1096833" lon="12.78826"><ele>459.0</ele><time>2026-04-18T12:53:06.989Z</time></trkpt><trkpt lat="43.1096133" lon="12.7882833"><ele>456.0</ele><time>2026-04-18T12:53:07.989Z</time></trkpt><trkpt lat="43.1095467" lon="12.788305"><ele>453.0</ele><time>2026-04-18T12:53:08.989Z</time></trkpt><trkpt lat="43.1094667" lon="12.7883267"><ele>450.0</ele><time>2026-04-18T12:53:09.989Z</time></trkpt><trkpt lat="43.1093817" lon="12.7883417"><ele>447.0</ele><time>2026-04-18T12:53:10.989Z</time></trkpt><trkpt lat="43.1093" lon="12.7883533"><ele>447.0</ele><time>2026-04-18T12:53:11.989Z</time></trkpt><trkpt lat="43.1092183" lon="12.7883633"><ele>447.0</ele><time>2026-04-18T12:53:12.989Z</time></trkpt><trkpt lat="43.1091333" lon="12.7883733"><ele>447.0</ele><time>2026-04-18T12:53:13.989Z</time></trkpt><trkpt lat="43.1090517" lon="12.7883767"><ele>447.0</ele><time>2026-04-18T12:53:14.989Z</time></trkpt><trkpt lat="43.1089767" lon="12.7883733"><ele>447.0</ele><time>2026-04-18T12:53:15.989Z</time></trkpt><trkpt lat="43.1089033" lon="12.7883683"><ele>447.0</ele><time>2026-04-18T12:53:16.989Z</time></trkpt><trkpt lat="43.10884" lon="12.78837"><ele>445.0</ele><time>2026-04-18T12:53:17.989Z</time></trkpt><trkpt lat="43.108775" lon="12.788375"><ele>443.0</ele><time>2026-04-18T12:53:18.989Z</time></trkpt><trkpt lat="43.1086683" lon="12.78842"><ele>441.0</ele><time>2026-04-18T12:53:20.989Z</time></trkpt><trkpt lat="43.1086017" lon="12.7884933"><ele>439.0</ele><time>2026-04-18T12:53:22.989Z</time></trkpt><trkpt lat="43.108565" lon="12.7885733"><ele>437.0</ele><time>2026-04-18T12:53:25.989Z</time></trkpt><trkpt lat="43.1085017" lon="12.788495"><ele>435.0</ele><time>2026-04-18T12:53:29.989Z</time></trkpt><trkpt lat="43.1084867" lon="12.7883783"><ele>435.14285714285717</ele><time>2026-04-18T12:53:31.989Z</time></trkpt><trkpt lat="43.108455" lon="12.78829"><ele>435.2857142857143</ele><time>2026-04-18T12:53:33.989Z</time></trkpt><trkpt lat="43.1083917" lon="12.788195"><ele>435.42857142857144</ele><time>2026-04-18T12:53:35.989Z</time></trkpt><trkpt lat="43.1083433" lon="12.7881367"><ele>435.57142857142856</ele><time>2026-04-18T12:53:36.989Z</time></trkpt><trkpt lat="43.1082917" lon="12.7880767"><ele>435.7142857142857</ele><time>2026-04-18T12:53:37.989Z</time></trkpt><trkpt lat="43.1082383" lon="12.7880117"><ele>435.8571428571429</ele><time>2026-04-18T12:53:38.989Z</time></trkpt><trkpt lat="43.1081867" lon="12.787945"><ele>436.0</ele><time>2026-04-18T12:53:39.989Z</time></trkpt><trkpt lat="43.108135" lon="12.78787"><ele>436.00000000000006</ele><time>2026-04-18T12:53:40.989Z</time></trkpt><trkpt lat="43.1080767" lon="12.787795"><ele>436.0</ele><time>2026-04-18T12:53:41.989Z</time></trkpt><trkpt lat="43.1080217" lon="12.7877167"><ele>436.0</ele><time>2026-04-18T12:53:42.989Z</time></trkpt><trkpt lat="43.1079633" lon="12.7876467"><ele>436.0</ele><time>2026-04-18T12:53:43.989Z</time></trkpt><trkpt lat="43.1079" lon="12.7875867"><ele>436.00000000000006</ele><time>2026-04-18T12:53:44.989Z</time></trkpt><trkpt lat="43.10784" lon="12.7875217"><ele>436.0</ele><time>2026-04-18T12:53:45.989Z</time></trkpt><trkpt lat="43.1077867" lon="12.7874567"><ele>435.42857142857144</ele><time>2026-04-18T12:53:46.989Z</time></trkpt><trkpt lat="43.1077383" lon="12.7873883"><ele>434.8571428571429</ele><time>2026-04-18T12:53:47.989Z</time></trkpt><trkpt lat="43.1076867" lon="12.787315"><ele>434.2857142857143</ele><time>2026-04-18T12:53:48.989Z</time></trkpt><trkpt lat="43.107635" lon="12.7872483"><ele>433.7142857142857</ele><time>2026-04-18T12:53:49.989Z</time></trkpt><trkpt lat="43.1075883" lon="12.7871817"><ele>433.1428571428571</ele><time>2026-04-18T12:53:50.989Z</time></trkpt><trkpt lat="43.1075367" lon="12.7871183"><ele>432.57142857142856</ele><time>2026-04-18T12:53:51.989Z</time></trkpt><trkpt lat="43.1074867" lon="12.78706"><ele>432.0</ele><time>2026-04-18T12:53:52.989Z</time></trkpt><trkpt lat="43.107395" lon="12.786965"><ele>432.0</ele><time>2026-04-18T12:53:54.989Z</time></trkpt><trkpt lat="43.1073383" lon="12.7868783"><ele>432.00000000000006</ele><time>2026-04-18T12:53:56.989Z</time></trkpt><trkpt lat="43.10731" lon="12.7867867"><ele>432.00000000000006</ele><time>2026-04-18T12:53:58.989Z</time></trkpt><trkpt lat="43.10732" lon="12.7866517"><ele>432.0</ele><time>2026-04-18T12:54:00.989Z</time></trkpt><trkpt lat="43.1073817" lon="12.78654"><ele>432.0</ele><time>2026-04-18T12:54:02.989Z</time></trkpt><trkpt lat="43.107445" lon="12.7863833"><ele>432.3333333333333</ele><time>2026-04-18T12:54:04.989Z</time></trkpt><trkpt lat="43.10746" lon="12.78628"><ele>432.66666666666663</ele><time>2026-04-18T12:54:05.989Z</time></trkpt><trkpt lat="43.1074567" lon="12.7861767"><ele>433.0</ele><time>2026-04-18T12:54:06.989Z</time></trkpt><trkpt lat="43.10744" lon="12.7860767"><ele>433.3333333333333</ele><time>2026-04-18T12:54:07.989Z</time></trkpt><trkpt lat="43.1074033" lon="12.7859667"><ele>433.66666666666663</ele><time>2026-04-18T12:54:08.989Z</time></trkpt><trkpt lat="43.1073667" lon="12.7858683"><ele>434.0</ele><time>2026-04-18T12:54:09.989Z</time></trkpt><trkpt lat="43.10733" lon="12.7857833"><ele>434.0</ele><time>2026-04-18T12:54:10.989Z</time></trkpt><trkpt lat="43.10729" lon="12.7857133"><ele>434.0</ele><time>2026-04-18T12:54:11.989Z</time></trkpt><trkpt lat="43.1072283" lon="12.785565"><ele>434.0</ele><time>2026-04-18T12:54:13.989Z</time></trkpt><trkpt lat="43.1072083" lon="12.7854733"><ele>434.0</ele><time>2026-04-18T12:54:14.989Z</time></trkpt><trkpt lat="43.1071983" lon="12.7853833"><ele>434.0</ele><time>2026-04-18T12:54:15.989Z</time></trkpt><trkpt lat="43.1071883" lon="12.78521"><ele>433.2857142857143</ele><time>2026-04-18T12:54:17.989Z</time></trkpt><trkpt lat="43.10718" lon="12.78512"><ele>432.57142857142856</ele><time>2026-04-18T12:54:18.989Z</time></trkpt><trkpt lat="43.1071733" lon="12.7850267"><ele>431.8571428571429</ele><time>2026-04-18T12:54:19.989Z</time></trkpt><trkpt lat="43.1071583" lon="12.7849383"><ele>431.1428571428571</ele><time>2026-04-18T12:54:20.989Z</time></trkpt><trkpt lat="43.1071417" lon="12.7848383"><ele>430.42857142857144</ele><time>2026-04-18T12:54:21.989Z</time></trkpt><trkpt lat="43.1071183" lon="12.7847333"><ele>429.7142857142857</ele><time>2026-04-18T12:54:22.989Z</time></trkpt><trkpt lat="43.1070867" lon="12.78463"><ele>429.0</ele><time>2026-04-18T12:54:23.989Z</time></trkpt><trkpt lat="43.107055" lon="12.7845383"><ele>429.0</ele><time>2026-04-18T12:54:24.989Z</time></trkpt><trkpt lat="43.1070167" lon="12.7844517"><ele>429.0</ele><time>2026-04-18T12:54:25.989Z</time></trkpt><trkpt lat="43.1069733" lon="12.7843583"><ele>429.0</ele><time>2026-04-18T12:54:26.989Z</time></trkpt><trkpt lat="43.10693" lon="12.7842533"><ele>429.0</ele><time>2026-04-18T12:54:27.989Z</time></trkpt><trkpt lat="43.10689" lon="12.784155"><ele>429.0</ele><time>2026-04-18T12:54:28.989Z</time></trkpt><trkpt lat="43.10684" lon="12.784075"><ele>429.0</ele><time>2026-04-18T12:54:29.989Z</time></trkpt><trkpt lat="43.1067733" lon="12.7840033"><ele>428.2</ele><time>2026-04-18T12:54:30.989Z</time></trkpt><trkpt lat="43.1067017" lon="12.78394"><ele>427.4</ele><time>2026-04-18T12:54:31.989Z</time></trkpt><trkpt lat="43.1066133" lon="12.78388"><ele>426.6</ele><time>2026-04-18T12:54:32.989Z</time></trkpt><trkpt lat="43.10652" lon="12.7838217"><ele>425.8</ele><time>2026-04-18T12:54:33.989Z</time></trkpt><trkpt lat="43.1064283" lon="12.783755"><ele>425.0</ele><time>2026-04-18T12:54:34.989Z</time></trkpt><trkpt lat="43.10633" lon="12.7836867"><ele>425.0</ele><time>2026-04-18T12:54:35.989Z</time></trkpt><trkpt lat="43.1062417" lon="12.7836267"><ele>425.0</ele><time>2026-04-18T12:54:36.989Z</time></trkpt><trkpt lat="43.1061533" lon="12.7835683"><ele>425.0</ele><time>2026-04-18T12:54:37.989Z</time></trkpt><trkpt lat="43.10607" lon="12.7835083"><ele>425.0</ele><time>2026-04-18T12:54:38.989Z</time></trkpt><trkpt lat="43.1059917" lon="12.7834433"><ele>425.0</ele><time>2026-04-18T12:54:39.989Z</time></trkpt><trkpt lat="43.1059367" lon="12.783355"><ele>424.8</ele><time>2026-04-18T12:54:40.989Z</time></trkpt><trkpt lat="43.1058983" lon="12.7832583"><ele>424.6</ele><time>2026-04-18T12:54:41.989Z</time></trkpt><trkpt lat="43.105885" lon="12.78313"><ele>424.4</ele><time>2026-04-18T12:54:42.989Z</time></trkpt><trkpt lat="43.10588" lon="12.7829983"><ele>424.2</ele><time>2026-04-18T12:54:43.989Z</time></trkpt><trkpt lat="43.1058733" lon="12.782865"><ele>424.0</ele><time>2026-04-18T12:54:44.989Z</time></trkpt><trkpt lat="43.105865" lon="12.7827283"><ele>425.2</ele><time>2026-04-18T12:54:45.989Z</time></trkpt><trkpt lat="43.105855" lon="12.7825967"><ele>426.4</ele><time>2026-04-18T12:54:46.989Z</time></trkpt><trkpt lat="43.105845" lon="12.7824667"><ele>427.6</ele><time>2026-04-18T12:54:47.989Z</time></trkpt><trkpt lat="43.1058333" lon="12.782335"><ele>428.8</ele><time>2026-04-18T12:54:48.989Z</time></trkpt><trkpt lat="43.1058233" lon="12.78221"><ele>430.0</ele><time>2026-04-18T12:54:49.989Z</time></trkpt><trkpt lat="43.10581" lon="12.7820783"><ele>430.0</ele><time>2026-04-18T12:54:50.989Z</time></trkpt><trkpt lat="43.1057983" lon="12.7819417"><ele>430.0</ele><time>2026-04-18T12:54:51.989Z</time></trkpt><trkpt lat="43.1057767" lon="12.7818017"><ele>430.0</ele><time>2026-04-18T12:54:52.989Z</time></trkpt><trkpt lat="43.1057417" lon="12.7816683"><ele>430.0</ele><time>2026-04-18T12:54:53.989Z</time></trkpt><trkpt lat="43.1057002" lon="12.7815451"><ele>430.0</ele><time>2026-04-18T12:54:54.989Z</time></trkpt><trkpt lat="43.1056481" lon="12.781435"><ele>429.00000000000006</ele><time>2026-04-18T12:54:55.989Z</time></trkpt><trkpt lat="43.1055797" lon="12.7813465"><ele>428.0</ele><time>2026-04-18T12:54:56.989Z</time></trkpt><trkpt lat="43.1055175" lon="12.7812661"><ele>427.0</ele><time>2026-04-18T12:54:57.989Z</time></trkpt><trkpt lat="43.10546" lon="12.78119"><ele>426.0</ele><time>2026-04-18T12:54:58.989Z</time></trkpt><trkpt lat="43.1054167" lon="12.78111"><ele>425.00000000000006</ele><time>2026-04-18T12:54:59.989Z</time></trkpt><trkpt lat="43.1053617" lon="12.7809817"><ele>424.0</ele><time>2026-04-18T12:55:01.989Z</time></trkpt><trkpt lat="43.1053067" lon="12.7808983"><ele>424.0</ele><time>2026-04-18T12:55:04.989Z</time></trkpt><trkpt lat="43.1052117" lon="12.7807733"><ele>424.0</ele><time>2026-04-18T12:55:06.989Z</time></trkpt><trkpt lat="43.10514" lon="12.7807017"><ele>424.0</ele><time>2026-04-18T12:55:07.989Z</time></trkpt><trkpt lat="43.1050583" lon="12.780635"><ele>424.0</ele><time>2026-04-18T12:55:08.989Z</time></trkpt><trkpt lat="43.1049567" lon="12.7805833"><ele>424.0</ele><time>2026-04-18T12:55:09.989Z</time></trkpt><trkpt lat="43.104845" lon="12.7805267"><ele>422.75</ele><time>2026-04-18T12:55:10.989Z</time></trkpt><trkpt lat="43.1047317" lon="12.78047"><ele>421.5</ele><time>2026-04-18T12:55:11.989Z</time></trkpt><trkpt lat="43.1046133" lon="12.7804217"><ele>420.25</ele><time>2026-04-18T12:55:12.989Z</time></trkpt><trkpt lat="43.104485" lon="12.7803667"><ele>419.0</ele><time>2026-04-18T12:55:13.989Z</time></trkpt><trkpt lat="43.1043533" lon="12.7803267"><ele>419.0</ele><time>2026-04-18T12:55:14.989Z</time></trkpt><trkpt lat="43.1042267" lon="12.7802867"><ele>419.0</ele><time>2026-04-18T12:55:15.989Z</time></trkpt><trkpt lat="43.104105" lon="12.7802483"><ele>419.0</ele><time>2026-04-18T12:55:16.989Z</time></trkpt><trkpt lat="43.1039933" lon="12.7802"><ele>419.0</ele><time>2026-04-18T12:55:17.989Z</time></trkpt><trkpt lat="43.1038883" lon="12.780135"><ele>418.25</ele><time>2026-04-18T12:55:18.989Z</time></trkpt><trkpt lat="43.10379" lon="12.7800533"><ele>417.5</ele><time>2026-04-18T12:55:19.989Z</time></trkpt><trkpt lat="43.1037" lon="12.7799483"><ele>416.75</ele><time>2026-04-18T12:55:20.989Z</time></trkpt><trkpt lat="43.1036083" lon="12.7798233"><ele>416.0</ele><time>2026-04-18T12:55:21.989Z</time></trkpt><trkpt lat="43.1035117" lon="12.7796867"><ele>416.0</ele><time>2026-04-18T12:55:22.989Z</time></trkpt><trkpt lat="43.10341" lon="12.779545"><ele>416.0</ele><time>2026-04-18T12:55:23.989Z</time></trkpt><trkpt lat="43.1033033" lon="12.7794067"><ele>416.0</ele><time>2026-04-18T12:55:24.989Z</time></trkpt><trkpt lat="43.1032" lon="12.7792683"><ele>416.0</ele><time>2026-04-18T12:55:25.989Z</time></trkpt><trkpt lat="43.1030967" lon="12.779125"><ele>413.3333333333333</ele><time>2026-04-18T12:55:26.989Z</time></trkpt><trkpt lat="43.10299" lon="12.7789817"><ele>410.66666666666663</ele><time>2026-04-18T12:55:27.989Z</time></trkpt><trkpt lat="43.1028767" lon="12.7788267"><ele>408.0</ele><time>2026-04-18T12:55:28.989Z</time></trkpt><trkpt lat="43.10276" lon="12.7786783"><ele>408.0</ele><time>2026-04-18T12:55:29.989Z</time></trkpt><trkpt lat="43.10265" lon="12.778525"><ele>408.0</ele><time>2026-04-18T12:55:30.989Z</time></trkpt><trkpt lat="43.10254" lon="12.7783683"><ele>408.0</ele><time>2026-04-18T12:55:31.989Z</time></trkpt><trkpt lat="43.1024333" lon="12.7782217"><ele>407.0</ele><time>2026-04-18T12:55:32.989Z</time></trkpt><trkpt lat="43.1023217" lon="12.7780733"><ele>406.0</ele><time>2026-04-18T12:55:33.989Z</time></trkpt><trkpt lat="43.1022133" lon="12.7779167"><ele>405.0</ele><time>2026-04-18T12:55:34.989Z</time></trkpt><trkpt lat="43.102105" lon="12.7777617"><ele>406.0</ele><time>2026-04-18T12:55:35.989Z</time></trkpt><trkpt lat="43.1019917" lon="12.777595"><ele>407.0</ele><time>2026-04-18T12:55:36.989Z</time></trkpt><trkpt lat="43.1018833" lon="12.7774283"><ele>408.0</ele><time>2026-04-18T12:55:37.989Z</time></trkpt><trkpt lat="43.1017683" lon="12.7772717"><ele>408.0</ele><time>2026-04-18T12:55:38.989Z</time></trkpt><trkpt lat="43.1016533" lon="12.77711"><ele>408.0</ele><time>2026-04-18T12:55:39.989Z</time></trkpt><trkpt lat="43.101545" lon="12.776945"><ele>408.0</ele><time>2026-04-18T12:55:40.989Z</time></trkpt><trkpt lat="43.1014283" lon="12.77678"><ele>407.66666666666663</ele><time>2026-04-18T12:55:41.989Z</time></trkpt><trkpt lat="43.1013133" lon="12.776615"><ele>407.3333333333333</ele><time>2026-04-18T12:55:42.989Z</time></trkpt><trkpt lat="43.1012017" lon="12.776455"><ele>407.0</ele><time>2026-04-18T12:55:43.989Z</time></trkpt><trkpt lat="43.1010883" lon="12.7762883"><ele>407.0</ele><time>2026-04-18T12:55:44.989Z</time></trkpt><trkpt lat="43.100975" lon="12.776115"><ele>407.0</ele><time>2026-04-18T12:55:45.989Z</time></trkpt><trkpt lat="43.1008633" lon="12.775955"><ele>407.0</ele><time>2026-04-18T12:55:46.989Z</time></trkpt><trkpt lat="43.100755" lon="12.7757867"><ele>406.0</ele><time>2026-04-18T12:55:47.989Z</time></trkpt><trkpt lat="43.1006533" lon="12.775605"><ele>405.0</ele><time>2026-04-18T12:55:48.989Z</time></trkpt><trkpt lat="43.1005717" lon="12.7753917"><ele>404.0</ele><time>2026-04-18T12:55:49.989Z</time></trkpt><trkpt lat="43.1004983" lon="12.7751633"><ele>407.66666666666663</ele><time>2026-04-18T12:55:50.989Z</time></trkpt><trkpt lat="43.100415" lon="12.774935"><ele>411.33333333333337</ele><time>2026-04-18T12:55:51.989Z</time></trkpt><trkpt lat="43.1003083" lon="12.7746867"><ele>415.0</ele><time>2026-04-18T12:55:52.989Z</time></trkpt><trkpt lat="43.1002067" lon="12.7744483"><ele>414.0</ele><time>2026-04-18T12:55:53.989Z</time></trkpt><trkpt lat="43.10011" lon="12.7742333"><ele>413.0</ele><time>2026-04-18T12:55:54.989Z</time></trkpt><trkpt lat="43.1000067" lon="12.7740233"><ele>412.0</ele><time>2026-04-18T12:55:55.989Z</time></trkpt><trkpt lat="43.0999017" lon="12.7738167"><ele>412.0</ele><time>2026-04-18T12:55:56.989Z</time></trkpt><trkpt lat="43.0998117" lon="12.7735983"><ele>412.0</ele><time>2026-04-18T12:55:57.989Z</time></trkpt><trkpt lat="43.0997433" lon="12.7733733"><ele>412.0</ele><time>2026-04-18T12:55:58.989Z</time></trkpt><trkpt lat="43.0997" lon="12.773145"><ele>408.6666666666667</ele><time>2026-04-18T12:55:59.989Z</time></trkpt><trkpt lat="43.0996733" lon="12.7729233"><ele>405.33333333333337</ele><time>2026-04-18T12:56:00.989Z</time></trkpt><trkpt lat="43.09965" lon="12.7726833"><ele>402.0</ele><time>2026-04-18T12:56:01.989Z</time></trkpt><trkpt lat="43.0996167" lon="12.77244"><ele>401.0</ele><time>2026-04-18T12:56:02.989Z</time></trkpt><trkpt lat="43.0995783" lon="12.772195"><ele>400.0</ele><time>2026-04-18T12:56:03.989Z</time></trkpt><trkpt lat="43.0995267" lon="12.771935"><ele>399.0</ele><time>2026-04-18T12:56:04.989Z</time></trkpt><trkpt lat="43.099485" lon="12.771675"><ele>399.0</ele><time>2026-04-18T12:56:05.989Z</time></trkpt><trkpt lat="43.0994383" lon="12.7714217"><ele>399.0</ele><time>2026-04-18T12:56:06.989Z</time></trkpt><trkpt lat="43.0993983" lon="12.7711683"><ele>399.0</ele><time>2026-04-18T12:56:07.989Z</time></trkpt><trkpt lat="43.099355" lon="12.7709117"><ele>399.0</ele><time>2026-04-18T12:56:08.989Z</time></trkpt><trkpt lat="43.099315" lon="12.7706533"><ele>399.0</ele><time>2026-04-18T12:56:09.989Z</time></trkpt><trkpt lat="43.09927" lon="12.77039"><ele>399.0</ele><time>2026-04-18T12:56:10.989Z</time></trkpt><trkpt lat="43.0992233" lon="12.7701417"><ele>399.0</ele><time>2026-04-18T12:56:11.989Z</time></trkpt><trkpt lat="43.0991767" lon="12.7699017"><ele>399.0</ele><time>2026-04-18T12:56:12.989Z</time></trkpt><trkpt lat="43.0991267" lon="12.7696717"><ele>399.0</ele><time>2026-04-18T12:56:13.989Z</time></trkpt><trkpt lat="43.0990683" lon="12.7694567"><ele>398.75</ele><time>2026-04-18T12:56:14.989Z</time></trkpt><trkpt lat="43.099005" lon="12.769255"><ele>398.5</ele><time>2026-04-18T12:56:15.989Z</time></trkpt><trkpt lat="43.098945" lon="12.769065"><ele>398.25</ele><time>2026-04-18T12:56:16.989Z</time></trkpt><trkpt lat="43.09888" lon="12.7688983"><ele>398.0</ele><time>2026-04-18T12:56:17.989Z</time></trkpt><trkpt lat="43.0987933" lon="12.7687533"><ele>398.0</ele><time>2026-04-18T12:56:18.989Z</time></trkpt><trkpt lat="43.09869" lon="12.7686433"><ele>398.0</ele><time>2026-04-18T12:56:19.989Z</time></trkpt><trkpt lat="43.098595" lon="12.7685383"><ele>398.0</ele><time>2026-04-18T12:56:20.989Z</time></trkpt><trkpt lat="43.09851" lon="12.7684383"><ele>398.0</ele><time>2026-04-18T12:56:21.989Z</time></trkpt><trkpt lat="43.0984383" lon="12.7683617"><ele>397.49999999999994</ele><time>2026-04-18T12:56:22.989Z</time></trkpt><trkpt lat="43.09838" lon="12.76828"><ele>397.0</ele><time>2026-04-18T12:56:23.989Z</time></trkpt><trkpt lat="43.09833" lon="12.768205"><ele>396.5</ele><time>2026-04-18T12:56:24.989Z</time></trkpt><trkpt lat="43.0982783" lon="12.7681317"><ele>396.0</ele><time>2026-04-18T12:56:25.989Z</time></trkpt><trkpt lat="43.0982233" lon="12.7680583"><ele>395.49999999999994</ele><time>2026-04-18T12:56:26.989Z</time></trkpt><trkpt lat="43.0981633" lon="12.7679833"><ele>395.0</ele><time>2026-04-18T12:56:27.989Z</time></trkpt><trkpt lat="43.0980983" lon="12.7679017"><ele>394.6</ele><time>2026-04-18T12:56:28.989Z</time></trkpt><trkpt lat="43.0980267" lon="12.767825"><ele>394.2</ele><time>2026-04-18T12:56:29.989Z</time></trkpt><trkpt lat="43.0979417" lon="12.7677383"><ele>393.79999999999995</ele><time>2026-04-18T12:56:30.989Z</time></trkpt><trkpt lat="43.0978483" lon="12.767635"><ele>393.4</ele><time>2026-04-18T12:56:31.989Z</time></trkpt><trkpt lat="43.097755" lon="12.767525"><ele>393.0</ele><time>2026-04-18T12:56:32.989Z</time></trkpt><trkpt lat="43.0976583" lon="12.7674217"><ele>392.5</ele><time>2026-04-18T12:56:33.988Z</time></trkpt><trkpt lat="43.09755" lon="12.767315"><ele>392.0</ele><time>2026-04-18T12:56:34.988Z</time></trkpt><trkpt lat="43.09745" lon="12.7671983"><ele>391.5</ele><time>2026-04-18T12:56:35.988Z</time></trkpt><trkpt lat="43.097335" lon="12.7670833"><ele>391.0</ele><time>2026-04-18T12:56:36.988Z</time></trkpt><trkpt lat="43.09722" lon="12.76696"><ele>390.33333333333337</ele><time>2026-04-18T12:56:37.988Z</time></trkpt><trkpt lat="43.09709" lon="12.7668233"><ele>389.66666666666663</ele><time>2026-04-18T12:56:38.988Z</time></trkpt><trkpt lat="43.096965" lon="12.7666967"><ele>389.0</ele><time>2026-04-18T12:56:39.988Z</time></trkpt><trkpt lat="43.0968367" lon="12.7665733"><ele>389.0</ele><time>2026-04-18T12:56:40.988Z</time></trkpt><trkpt lat="43.0967067" lon="12.7664733"><ele>389.0</ele><time>2026-04-18T12:56:41.988Z</time></trkpt><trkpt lat="43.096575" lon="12.7663867"><ele>389.0</ele><time>2026-04-18T12:56:42.988Z</time></trkpt><trkpt lat="43.09644" lon="12.7663117"><ele>389.0</ele><time>2026-04-18T12:56:43.988Z</time></trkpt><trkpt lat="43.0963133" lon="12.7662617"><ele>389.0</ele><time>2026-04-18T12:56:44.988Z</time></trkpt><trkpt lat="43.09619" lon="12.7662183"><ele>389.0</ele><time>2026-04-18T12:56:45.988Z</time></trkpt><trkpt lat="43.0960817" lon="12.76616"><ele>389.0</ele><time>2026-04-18T12:56:46.988Z</time></trkpt><trkpt lat="43.0959867" lon="12.7661033"><ele>389.0</ele><time>2026-04-18T12:56:47.988Z</time></trkpt><trkpt lat="43.0958983" lon="12.766055"><ele>389.0</ele><time>2026-04-18T12:56:48.988Z</time></trkpt><trkpt lat="43.0958183" lon="12.7660283"><ele>389.0</ele><time>2026-04-18T12:56:49.988Z</time></trkpt><trkpt lat="43.0957383" lon="12.7660483"><ele>389.0</ele><time>2026-04-18T12:56:50.988Z</time></trkpt><trkpt lat="43.095665" lon="12.7661033"><ele>389.0</ele><time>2026-04-18T12:56:51.988Z</time></trkpt><trkpt lat="43.09559" lon="12.766175"><ele>389.0</ele><time>2026-04-18T12:56:52.988Z</time></trkpt><trkpt lat="43.0955033" lon="12.7662433"><ele>389.0</ele><time>2026-04-18T12:56:53.988Z</time></trkpt><trkpt lat="43.0953983" lon="12.766295"><ele>389.0</ele><time>2026-04-18T12:56:54.988Z</time></trkpt><trkpt lat="43.095295" lon="12.76633"><ele>389.0</ele><time>2026-04-18T12:56:55.988Z</time></trkpt><trkpt lat="43.095195" lon="12.7663517"><ele>389.0</ele><time>2026-04-18T12:56:56.988Z</time></trkpt><trkpt lat="43.0950933" lon="12.7663567"><ele>389.0</ele><time>2026-04-18T12:56:57.988Z</time></trkpt><trkpt lat="43.0949983" lon="12.766325"><ele>389.0</ele><time>2026-04-18T12:56:58.988Z</time></trkpt><trkpt lat="43.0948883" lon="12.7662683"><ele>388.75</ele><time>2026-04-18T12:56:59.988Z</time></trkpt><trkpt lat="43.0947833" lon="12.76621"><ele>388.5</ele><time>2026-04-18T12:57:00.988Z</time></trkpt><trkpt lat="43.094685" lon="12.7661483"><ele>388.25</ele><time>2026-04-18T12:57:01.988Z</time></trkpt><trkpt lat="43.0945817" lon="12.76608"><ele>388.0</ele><time>2026-04-18T12:57:02.988Z</time></trkpt><trkpt lat="43.0944683" lon="12.7660033"><ele>388.25</ele><time>2026-04-18T12:57:03.988Z</time></trkpt><trkpt lat="43.0943533" lon="12.76593"><ele>388.5</ele><time>2026-04-18T12:57:04.988Z</time></trkpt><trkpt lat="43.0942467" lon="12.7658617"><ele>388.75</ele><time>2026-04-18T12:57:05.988Z</time></trkpt><trkpt lat="43.0941367" lon="12.765795"><ele>389.0</ele><time>2026-04-18T12:57:06.988Z</time></trkpt><trkpt lat="43.0940267" lon="12.76572"><ele>389.0</ele><time>2026-04-18T12:57:07.988Z</time></trkpt><trkpt lat="43.0939183" lon="12.76565"><ele>389.0</ele><time>2026-04-18T12:57:08.988Z</time></trkpt><trkpt lat="43.093815" lon="12.7655783"><ele>389.0</ele><time>2026-04-18T12:57:09.988Z</time></trkpt><trkpt lat="43.0937" lon="12.765505"><ele>389.0</ele><time>2026-04-18T12:57:10.988Z</time></trkpt><trkpt lat="43.093575" lon="12.7654417"><ele>389.0</ele><time>2026-04-18T12:57:11.988Z</time></trkpt><trkpt lat="43.0934483" lon="12.7654033"><ele>389.0</ele><time>2026-04-18T12:57:12.988Z</time></trkpt><trkpt lat="43.09334" lon="12.7653617"><ele>389.0</ele><time>2026-04-18T12:57:13.988Z</time></trkpt><trkpt lat="43.0932367" lon="12.7653267"><ele>389.0</ele><time>2026-04-18T12:57:14.988Z</time></trkpt><trkpt lat="43.093135" lon="12.7652783"><ele>388.6</ele><time>2026-04-18T12:57:15.988Z</time></trkpt><trkpt lat="43.0930383" lon="12.7652367"><ele>388.2</ele><time>2026-04-18T12:57:16.988Z</time></trkpt><trkpt lat="43.0929433" lon="12.7651983"><ele>387.8</ele><time>2026-04-18T12:57:17.988Z</time></trkpt><trkpt lat="43.092855" lon="12.7651217"><ele>387.40000000000003</ele><time>2026-04-18T12:57:18.988Z</time></trkpt><trkpt lat="43.09277" lon="12.765025"><ele>387.0</ele><time>2026-04-18T12:57:19.988Z</time></trkpt><trkpt lat="43.0926733" lon="12.76492"><ele>387.0</ele><time>2026-04-18T12:57:20.988Z</time></trkpt><trkpt lat="43.092565" lon="12.7648017"><ele>387.0</ele><time>2026-04-18T12:57:21.988Z</time></trkpt><trkpt lat="43.092455" lon="12.7646817"><ele>387.0</ele><time>2026-04-18T12:57:22.988Z</time></trkpt><trkpt lat="43.0923417" lon="12.7645633"><ele>387.0</ele><time>2026-04-18T12:57:23.988Z</time></trkpt><trkpt lat="43.09223" lon="12.7644483"><ele>386.5</ele><time>2026-04-18T12:57:24.988Z</time></trkpt><trkpt lat="43.0921117" lon="12.76433"><ele>386.0</ele><time>2026-04-18T12:57:25.988Z</time></trkpt><trkpt lat="43.091985" lon="12.7642283"><ele>385.5</ele><time>2026-04-18T12:57:26.988Z</time></trkpt><trkpt lat="43.0918633" lon="12.7641233"><ele>385.0</ele><time>2026-04-18T12:57:27.988Z</time></trkpt><trkpt lat="43.091745" lon="12.76402"><ele>385.0</ele><time>2026-04-18T12:57:28.988Z</time></trkpt><trkpt lat="43.0916283" lon="12.763925"><ele>385.0</ele><time>2026-04-18T12:57:29.988Z</time></trkpt><trkpt lat="43.0915167" lon="12.7638517"><ele>385.0</ele><time>2026-04-18T12:57:30.988Z</time></trkpt><trkpt lat="43.0914067" lon="12.7637833"><ele>385.0</ele><time>2026-04-18T12:57:31.988Z</time></trkpt><trkpt lat="43.0913067" lon="12.76375"><ele>385.2</ele><time>2026-04-18T12:57:32.988Z</time></trkpt><trkpt lat="43.09121" lon="12.7637367"><ele>385.4</ele><time>2026-04-18T12:57:33.988Z</time></trkpt><trkpt lat="43.091115" lon="12.76373"><ele>385.6</ele><time>2026-04-18T12:57:34.988Z</time></trkpt><trkpt lat="43.0910133" lon="12.763735"><ele>385.8</ele><time>2026-04-18T12:57:35.988Z</time></trkpt><trkpt lat="43.090895" lon="12.763755"><ele>386.0</ele><time>2026-04-18T12:57:36.988Z</time></trkpt><trkpt lat="43.0907683" lon="12.7637783"><ele>385.75</ele><time>2026-04-18T12:57:37.988Z</time></trkpt><trkpt lat="43.0906283" lon="12.7637983"><ele>385.5</ele><time>2026-04-18T12:57:38.988Z</time></trkpt><trkpt lat="43.0904883" lon="12.7638217"><ele>385.25</ele><time>2026-04-18T12:57:39.988Z</time></trkpt><trkpt lat="43.0903417" lon="12.7638483"><ele>385.0</ele><time>2026-04-18T12:57:40.988Z</time></trkpt><trkpt lat="43.0901817" lon="12.7638717"><ele>385.0</ele><time>2026-04-18T12:57:41.988Z</time></trkpt><trkpt lat="43.09002" lon="12.7638967"><ele>385.0</ele><time>2026-04-18T12:57:42.988Z</time></trkpt><trkpt lat="43.089855" lon="12.7639167"><ele>385.0</ele><time>2026-04-18T12:57:43.988Z</time></trkpt><trkpt lat="43.0896967" lon="12.76394"><ele>385.33333333333337</ele><time>2026-04-18T12:57:44.988Z</time></trkpt><trkpt lat="43.0895333" lon="12.7639583"><ele>385.66666666666663</ele><time>2026-04-18T12:57:45.988Z</time></trkpt><trkpt lat="43.08937" lon="12.76398"><ele>386.0</ele><time>2026-04-18T12:57:46.988Z</time></trkpt><trkpt lat="43.0892" lon="12.7639967"><ele>385.66666666666663</ele><time>2026-04-18T12:57:47.988Z</time></trkpt><trkpt lat="43.089035" lon="12.76401"><ele>385.33333333333337</ele><time>2026-04-18T12:57:48.988Z</time></trkpt><trkpt lat="43.0888733" lon="12.76402"><ele>385.0</ele><time>2026-04-18T12:57:49.988Z</time></trkpt><trkpt lat="43.0887083" lon="12.7640133"><ele>385.0</ele><time>2026-04-18T12:57:50.988Z</time></trkpt><trkpt lat="43.0885467" lon="12.763975"><ele>385.0</ele><time>2026-04-18T12:57:51.988Z</time></trkpt><trkpt lat="43.0883867" lon="12.7639317"><ele>385.0</ele><time>2026-04-18T12:57:52.988Z</time></trkpt><trkpt lat="43.0882333" lon="12.7638667"><ele>384.0</ele><time>2026-04-18T12:57:53.988Z</time></trkpt><trkpt lat="43.08808" lon="12.7637817"><ele>383.0</ele><time>2026-04-18T12:57:54.988Z</time></trkpt><trkpt lat="43.0879283" lon="12.76369"><ele>382.0</ele><time>2026-04-18T12:57:55.988Z</time></trkpt><trkpt lat="43.0877783" lon="12.7635967"><ele>382.3333333333333</ele><time>2026-04-18T12:57:56.988Z</time></trkpt><trkpt lat="43.08763" lon="12.76351"><ele>382.6666666666667</ele><time>2026-04-18T12:57:57.988Z</time></trkpt><trkpt lat="43.0874683" lon="12.7634483"><ele>383.0</ele><time>2026-04-18T12:57:58.988Z</time></trkpt><trkpt lat="43.0873033" lon="12.763425"><ele>383.25</ele><time>2026-04-18T12:57:59.988Z</time></trkpt><trkpt lat="43.0871433" lon="12.7634183"><ele>383.5</ele><time>2026-04-18T12:58:00.988Z</time></trkpt><trkpt lat="43.0869933" lon="12.7634217"><ele>383.75</ele><time>2026-04-18T12:58:01.988Z</time></trkpt><trkpt lat="43.0868667" lon="12.76342"><ele>384.0</ele><time>2026-04-18T12:58:02.988Z</time></trkpt><trkpt lat="43.08675" lon="12.76342"><ele>384.0</ele><time>2026-04-18T12:58:03.988Z</time></trkpt><trkpt lat="43.0866383" lon="12.7634167"><ele>384.0</ele><time>2026-04-18T12:58:04.988Z</time></trkpt><trkpt lat="43.086535" lon="12.7634133"><ele>384.0</ele><time>2026-04-18T12:58:05.988Z</time></trkpt><trkpt lat="43.0864333" lon="12.76342"><ele>384.0</ele><time>2026-04-18T12:58:06.988Z</time></trkpt><trkpt lat="43.086325" lon="12.7634233"><ele>384.0</ele><time>2026-04-18T12:58:07.988Z</time></trkpt><trkpt lat="43.0862117" lon="12.76342"><ele>383.0</ele><time>2026-04-18T12:58:08.988Z</time></trkpt><trkpt lat="43.0861017" lon="12.7634317"><ele>382.0</ele><time>2026-04-18T12:58:09.988Z</time></trkpt><trkpt lat="43.0859883" lon="12.7634683"><ele>381.0</ele><time>2026-04-18T12:58:10.988Z</time></trkpt><trkpt lat="43.0858683" lon="12.7635367"><ele>380.0</ele><time>2026-04-18T12:58:11.988Z</time></trkpt><trkpt lat="43.0857567" lon="12.7636417"><ele>383.6666666666667</ele><time>2026-04-18T12:58:12.988Z</time></trkpt><trkpt lat="43.0856217" lon="12.763765"><ele>387.33333333333337</ele><time>2026-04-18T12:58:13.988Z</time></trkpt><trkpt lat="43.08547" lon="12.7639017"><ele>391.0</ele><time>2026-04-18T12:58:14.988Z</time></trkpt><trkpt lat="43.085325" lon="12.7640417"><ele>391.0</ele><time>2026-04-18T12:58:15.988Z</time></trkpt><trkpt lat="43.0851783" lon="12.764185"><ele>391.0</ele><time>2026-04-18T12:58:16.988Z</time></trkpt><trkpt lat="43.08505" lon="12.76431"><ele>391.0</ele><time>2026-04-18T12:58:17.988Z</time></trkpt><trkpt lat="43.08492" lon="12.7644267"><ele>388.75</ele><time>2026-04-18T12:58:18.988Z</time></trkpt><trkpt lat="43.0848017" lon="12.7645317"><ele>386.5</ele><time>2026-04-18T12:58:19.988Z</time></trkpt><trkpt lat="43.08469" lon="12.7646033"><ele>384.25</ele><time>2026-04-18T12:58:20.988Z</time></trkpt><trkpt lat="43.0845783" lon="12.7646367"><ele>382.0</ele><time>2026-04-18T12:58:21.988Z</time></trkpt><trkpt lat="43.08446" lon="12.7646333"><ele>382.0</ele><time>2026-04-18T12:58:22.988Z</time></trkpt><trkpt lat="43.0843267" lon="12.76459"><ele>382.0</ele><time>2026-04-18T12:58:23.988Z</time></trkpt><trkpt lat="43.0841783" lon="12.76451"><ele>382.0</ele><time>2026-04-18T12:58:24.988Z</time></trkpt><trkpt lat="43.0840167" lon="12.7644167"><ele>381.3333333333333</ele><time>2026-04-18T12:58:25.988Z</time></trkpt><trkpt lat="43.0838567" lon="12.7643217"><ele>380.6666666666667</ele><time>2026-04-18T12:58:26.988Z</time></trkpt><trkpt lat="43.0837083" lon="12.7642183"><ele>380.0</ele><time>2026-04-18T12:58:27.988Z</time></trkpt><trkpt lat="43.08356" lon="12.7641233"><ele>380.0</ele><time>2026-04-18T12:58:28.988Z</time></trkpt><trkpt lat="43.0834067" lon="12.7640333"><ele>380.0</ele><time>2026-04-18T12:58:29.988Z</time></trkpt><trkpt lat="43.0832583" lon="12.7639583"><ele>380.0</ele><time>2026-04-18T12:58:30.988Z</time></trkpt><trkpt lat="43.0831167" lon="12.7638717"><ele>380.0</ele><time>2026-04-18T12:58:31.988Z</time></trkpt><trkpt lat="43.0829817" lon="12.7637967"><ele>380.0</ele><time>2026-04-18T12:58:32.988Z</time></trkpt><trkpt lat="43.082855" lon="12.763725"><ele>380.0</ele><time>2026-04-18T12:58:33.988Z</time></trkpt><trkpt lat="43.082735" lon="12.7636583"><ele>380.0</ele><time>2026-04-18T12:58:34.988Z</time></trkpt><trkpt lat="43.082635" lon="12.7635717"><ele>380.25</ele><time>2026-04-18T12:58:35.988Z</time></trkpt><trkpt lat="43.08254" lon="12.7634617"><ele>380.5</ele><time>2026-04-18T12:58:36.988Z</time></trkpt><trkpt lat="43.08246" lon="12.763325"><ele>380.75</ele><time>2026-04-18T12:58:37.988Z</time></trkpt><trkpt lat="43.08239" lon="12.7631783"><ele>381.0</ele><time>2026-04-18T12:58:38.988Z</time></trkpt><trkpt lat="43.08232" lon="12.7630117"><ele>381.0</ele><time>2026-04-18T12:58:39.988Z</time></trkpt><trkpt lat="43.082245" lon="12.76287"><ele>381.0</ele><time>2026-04-18T12:58:40.988Z</time></trkpt><trkpt lat="43.08218" lon="12.7627233"><ele>381.0</ele><time>2026-04-18T12:58:41.988Z</time></trkpt><trkpt lat="43.082075" lon="12.7626183"><ele>381.0</ele><time>2026-04-18T12:58:42.988Z</time></trkpt><trkpt lat="43.08195" lon="12.7625567"><ele>381.3333333333333</ele><time>2026-04-18T12:58:43.988Z</time></trkpt><trkpt lat="43.0818" lon="12.7625417"><ele>381.66666666666663</ele><time>2026-04-18T12:58:44.988Z</time></trkpt><trkpt lat="43.08163" lon="12.762555"><ele>382.0</ele><time>2026-04-18T12:58:45.988Z</time></trkpt><trkpt lat="43.0814617" lon="12.7625717"><ele>382.0</ele><time>2026-04-18T12:58:46.988Z</time></trkpt><trkpt lat="43.0812883" lon="12.762575"><ele>382.0</ele><time>2026-04-18T12:58:47.988Z</time></trkpt><trkpt lat="43.081125" lon="12.762575"><ele>382.0</ele><time>2026-04-18T12:58:48.988Z</time></trkpt><trkpt lat="43.0809717" lon="12.7625717"><ele>382.0</ele><time>2026-04-18T12:58:49.988Z</time></trkpt><trkpt lat="43.0808233" lon="12.76256"><ele>382.0</ele><time>2026-04-18T12:58:50.988Z</time></trkpt><trkpt lat="43.0806633" lon="12.7625183"><ele>382.0</ele><time>2026-04-18T12:58:51.988Z</time></trkpt><trkpt lat="43.0804933" lon="12.76247"><ele>381.3333333333333</ele><time>2026-04-18T12:58:52.988Z</time></trkpt><trkpt lat="43.0803183" lon="12.7624217"><ele>380.6666666666667</ele><time>2026-04-18T12:58:53.988Z</time></trkpt><trkpt lat="43.0801417" lon="12.76237"><ele>380.0</ele><time>2026-04-18T12:58:54.988Z</time></trkpt><trkpt lat="43.0799667" lon="12.7623067"><ele>378.6666666666667</ele><time>2026-04-18T12:58:55.988Z</time></trkpt><trkpt lat="43.0797867" lon="12.762225"><ele>377.3333333333333</ele><time>2026-04-18T12:58:56.988Z</time></trkpt><trkpt lat="43.0796" lon="12.7621367"><ele>376.0</ele><time>2026-04-18T12:58:57.988Z</time></trkpt><trkpt lat="43.079415" lon="12.762045"><ele>376.0</ele><time>2026-04-18T12:58:58.988Z</time></trkpt><trkpt lat="43.0792283" lon="12.7619567"><ele>376.0</ele><time>2026-04-18T12:58:59.988Z</time></trkpt><trkpt lat="43.079045" lon="12.761865"><ele>376.0</ele><time>2026-04-18T12:59:00.988Z</time></trkpt><trkpt lat="43.0788583" lon="12.76177"><ele>377.66666666666663</ele><time>2026-04-18T12:59:01.988Z</time></trkpt><trkpt lat="43.0786733" lon="12.761675"><ele>379.3333333333333</ele><time>2026-04-18T12:59:02.988Z</time></trkpt><trkpt lat="43.0784817" lon="12.7615867"><ele>381.0</ele><time>2026-04-18T12:59:03.988Z</time></trkpt><trkpt lat="43.078295" lon="12.761505"><ele>379.6666666666667</ele><time>2026-04-18T12:59:04.988Z</time></trkpt><trkpt lat="43.078115" lon="12.761425"><ele>378.33333333333337</ele><time>2026-04-18T12:59:05.988Z</time></trkpt><trkpt lat="43.0779417" lon="12.7613383"><ele>377.0</ele><time>2026-04-18T12:59:06.988Z</time></trkpt><trkpt lat="43.077765" lon="12.7612433"><ele>377.0</ele><time>2026-04-18T12:59:07.988Z</time></trkpt><trkpt lat="43.0775883" lon="12.761155"><ele>377.0</ele><time>2026-04-18T12:59:08.988Z</time></trkpt><trkpt lat="43.0774183" lon="12.7610783"><ele>377.0</ele><time>2026-04-18T12:59:09.988Z</time></trkpt><trkpt lat="43.0772617" lon="12.761"><ele>378.33333333333337</ele><time>2026-04-18T12:59:10.988Z</time></trkpt><trkpt lat="43.0770983" lon="12.7609217"><ele>379.6666666666667</ele><time>2026-04-18T12:59:11.988Z</time></trkpt><trkpt lat="43.076935" lon="12.7608333"><ele>381.0</ele><time>2026-04-18T12:59:12.988Z</time></trkpt><trkpt lat="43.0767683" lon="12.7607433"><ele>380.6666666666667</ele><time>2026-04-18T12:59:13.988Z</time></trkpt><trkpt lat="43.0765983" lon="12.7606517"><ele>380.33333333333337</ele><time>2026-04-18T12:59:14.988Z</time></trkpt><trkpt lat="43.0764367" lon="12.7605617"><ele>380.0</ele><time>2026-04-18T12:59:15.988Z</time></trkpt><trkpt lat="43.0762733" lon="12.7604767"><ele>380.0</ele><time>2026-04-18T12:59:16.988Z</time></trkpt><trkpt lat="43.076105" lon="12.7604017"><ele>380.0</ele><time>2026-04-18T12:59:17.988Z</time></trkpt><trkpt lat="43.075935" lon="12.7603333"><ele>380.0</ele><time>2026-04-18T12:59:18.988Z</time></trkpt><trkpt lat="43.07576" lon="12.7602933"><ele>381.0</ele><time>2026-04-18T12:59:19.988Z</time></trkpt><trkpt lat="43.0755883" lon="12.76027"><ele>382.0</ele><time>2026-04-18T12:59:20.988Z</time></trkpt><trkpt lat="43.0754083" lon="12.7602667"><ele>383.0</ele><time>2026-04-18T12:59:21.988Z</time></trkpt><trkpt lat="43.0752267" lon="12.76027"><ele>383.0</ele><time>2026-04-18T12:59:22.988Z</time></trkpt><trkpt lat="43.07505" lon="12.7602917"><ele>383.0</ele><time>2026-04-18T12:59:23.988Z</time></trkpt><trkpt lat="43.0748733" lon="12.7603467"><ele>383.0</ele><time>2026-04-18T12:59:24.988Z</time></trkpt><trkpt lat="43.0747067" lon="12.760435"><ele>385.0</ele><time>2026-04-18T12:59:25.988Z</time></trkpt><trkpt lat="43.0745567" lon="12.7605217"><ele>387.0</ele><time>2026-04-18T12:59:26.988Z</time></trkpt><trkpt lat="43.0744083" lon="12.7606117"><ele>389.0</ele><time>2026-04-18T12:59:27.988Z</time></trkpt><trkpt lat="43.07425" lon="12.7606667"><ele>390.0</ele><time>2026-04-18T12:59:28.988Z</time></trkpt><trkpt lat="43.07409" lon="12.7607"><ele>391.0</ele><time>2026-04-18T12:59:29.988Z</time></trkpt><trkpt lat="43.0739267" lon="12.7607217"><ele>392.0</ele><time>2026-04-18T12:59:30.988Z</time></trkpt><trkpt lat="43.073755" lon="12.7607783"><ele>392.0</ele><time>2026-04-18T12:59:31.988Z</time></trkpt><trkpt lat="43.073595" lon="12.7608567"><ele>392.0</ele><time>2026-04-18T12:59:32.988Z</time></trkpt><trkpt lat="43.0734367" lon="12.760945"><ele>392.0</ele><time>2026-04-18T12:59:33.988Z</time></trkpt><trkpt lat="43.0732733" lon="12.7610333"><ele>388.66666666666663</ele><time>2026-04-18T12:59:34.988Z</time></trkpt><trkpt lat="43.0731267" lon="12.76113"><ele>385.3333333333333</ele><time>2026-04-18T12:59:35.988Z</time></trkpt><trkpt lat="43.0729883" lon="12.7612217"><ele>382.0</ele><time>2026-04-18T12:59:36.988Z</time></trkpt><trkpt lat="43.072865" lon="12.761315"><ele>382.0</ele><time>2026-04-18T12:59:37.988Z</time></trkpt><trkpt lat="43.0727433" lon="12.7614"><ele>382.0</ele><time>2026-04-18T12:59:38.988Z</time></trkpt><trkpt lat="43.0726317" lon="12.7614767"><ele>382.0</ele><time>2026-04-18T12:59:39.988Z</time></trkpt><trkpt lat="43.0725183" lon="12.761555"><ele>382.0</ele><time>2026-04-18T12:59:40.988Z</time></trkpt><trkpt lat="43.0724117" lon="12.761635"><ele>381.6</ele><time>2026-04-18T12:59:41.988Z</time></trkpt><trkpt lat="43.0723033" lon="12.7617167"><ele>381.20000000000005</ele><time>2026-04-18T12:59:42.988Z</time></trkpt><trkpt lat="43.0722017" lon="12.7617883"><ele>380.8</ele><time>2026-04-18T12:59:43.988Z</time></trkpt><trkpt lat="43.072105" lon="12.76185"><ele>380.4</ele><time>2026-04-18T12:59:44.988Z</time></trkpt><trkpt lat="43.072015" lon="12.7619233"><ele>380.0</ele><time>2026-04-18T12:59:45.988Z</time></trkpt><trkpt lat="43.0719317" lon="12.7619817"><ele>379.0</ele><time>2026-04-18T12:59:46.988Z</time></trkpt><trkpt lat="43.0718483" lon="12.7620217"><ele>378.0</ele><time>2026-04-18T12:59:47.988Z</time></trkpt><trkpt lat="43.071765" lon="12.76202"><ele>377.0</ele><time>2026-04-18T12:59:48.988Z</time></trkpt><trkpt lat="43.071685" lon="12.7619783"><ele>376.0</ele><time>2026-04-18T12:59:49.988Z</time></trkpt><trkpt lat="43.0716267" lon="12.761885"><ele>375.0</ele><time>2026-04-18T12:59:50.988Z</time></trkpt><trkpt lat="43.0715967" lon="12.7617483"><ele>376.0</ele><time>2026-04-18T12:59:51.988Z</time></trkpt><trkpt lat="43.0716083" lon="12.76161"><ele>377.0</ele><time>2026-04-18T12:59:52.988Z</time></trkpt><trkpt lat="43.07166" lon="12.761475"><ele>378.0</ele><time>2026-04-18T12:59:53.988Z</time></trkpt><trkpt lat="43.0717183" lon="12.7613417"><ele>379.0</ele><time>2026-04-18T12:59:54.988Z</time></trkpt><trkpt lat="43.0717767" lon="12.7611967"><ele>380.0</ele><time>2026-04-18T12:59:55.988Z</time></trkpt><trkpt lat="43.0718267" lon="12.7610583"><ele>379.6</ele><time>2026-04-18T12:59:56.988Z</time></trkpt><trkpt lat="43.0718783" lon="12.760925"><ele>379.2</ele><time>2026-04-18T12:59:57.988Z</time></trkpt><trkpt lat="43.0719317" lon="12.7607867"><ele>378.79999999999995</ele><time>2026-04-18T12:59:58.988Z</time></trkpt><trkpt lat="43.0719767" lon="12.7606783"><ele>378.4</ele><time>2026-04-18T12:59:59.988Z</time></trkpt><trkpt lat="43.0720117" lon="12.7605817"><ele>378.0</ele><time>2026-04-18T13:00:00.988Z</time></trkpt><trkpt lat="43.0720367" lon="12.7604883"><ele>378.0</ele><time>2026-04-18T13:00:01.988Z</time></trkpt><trkpt lat="43.0720433" lon="12.76039"><ele>378.0</ele><time>2026-04-18T13:00:02.988Z</time></trkpt><trkpt lat="43.07203" lon="12.7603033"><ele>378.0</ele><time>2026-04-18T13:00:03.988Z</time></trkpt><trkpt lat="43.0719883" lon="12.7602333"><ele>378.0</ele><time>2026-04-18T13:00:04.988Z</time></trkpt><trkpt lat="43.07193" lon="12.7601733"><ele>378.0</ele><time>2026-04-18T13:00:05.988Z</time></trkpt><trkpt lat="43.0718433" lon="12.7601283"><ele>378.0</ele><time>2026-04-18T13:00:06.988Z</time></trkpt><trkpt lat="43.0717483" lon="12.7600967"><ele>377.75</ele><time>2026-04-18T13:00:07.988Z</time></trkpt><trkpt lat="43.0716283" lon="12.76007"><ele>377.5</ele><time>2026-04-18T13:00:08.988Z</time></trkpt><trkpt lat="43.0715133" lon="12.7600383"><ele>377.25</ele><time>2026-04-18T13:00:09.988Z</time></trkpt><trkpt lat="43.071385" lon="12.7599983"><ele>377.0</ele><time>2026-04-18T13:00:10.988Z</time></trkpt><trkpt lat="43.071245" lon="12.75996"><ele>377.25</ele><time>2026-04-18T13:00:11.988Z</time></trkpt><trkpt lat="43.0711067" lon="12.7599233"><ele>377.5</ele><time>2026-04-18T13:00:12.988Z</time></trkpt><trkpt lat="43.0709833" lon="12.7598917"><ele>377.75</ele><time>2026-04-18T13:00:13.988Z</time></trkpt><trkpt lat="43.07086" lon="12.7598567"><ele>378.0</ele><time>2026-04-18T13:00:14.988Z</time></trkpt><trkpt lat="43.0707417" lon="12.7598267"><ele>378.0</ele><time>2026-04-18T13:00:15.988Z</time></trkpt><trkpt lat="43.0706283" lon="12.759805"><ele>378.0</ele><time>2026-04-18T13:00:16.988Z</time></trkpt><trkpt lat="43.0705167" lon="12.75979"><ele>378.0</ele><time>2026-04-18T13:00:17.988Z</time></trkpt><trkpt lat="43.0704017" lon="12.759775"><ele>378.0</ele><time>2026-04-18T13:00:18.988Z</time></trkpt><trkpt lat="43.070295" lon="12.7597367"><ele>378.0</ele><time>2026-04-18T13:00:19.988Z</time></trkpt><trkpt lat="43.0701883" lon="12.759685"><ele>378.0</ele><time>2026-04-18T13:00:20.988Z</time></trkpt><trkpt lat="43.070085" lon="12.75962"><ele>378.0</ele><time>2026-04-18T13:00:21.988Z</time></trkpt><trkpt lat="43.06998" lon="12.759535"><ele>378.0</ele><time>2026-04-18T13:00:22.988Z</time></trkpt><trkpt lat="43.0698833" lon="12.7594467"><ele>378.0</ele><time>2026-04-18T13:00:23.988Z</time></trkpt><trkpt lat="43.06978" lon="12.75935"><ele>378.0</ele><time>2026-04-18T13:00:24.988Z</time></trkpt><trkpt lat="43.0696767" lon="12.7592533"><ele>378.0</ele><time>2026-04-18T13:00:25.988Z</time></trkpt><trkpt lat="43.0695733" lon="12.759155"><ele>378.0</ele><time>2026-04-18T13:00:26.988Z</time></trkpt><trkpt lat="43.069475" lon="12.75905"><ele>378.0</ele><time>2026-04-18T13:00:27.988Z</time></trkpt><trkpt lat="43.069365" lon="12.75894"><ele>378.0</ele><time>2026-04-18T13:00:28.988Z</time></trkpt><trkpt lat="43.0692467" lon="12.75882"><ele>378.0</ele><time>2026-04-18T13:00:29.988Z</time></trkpt><trkpt lat="43.0691067" lon="12.75869"><ele>380.33333333333337</ele><time>2026-04-18T13:00:30.988Z</time></trkpt><trkpt lat="43.068955" lon="12.75858"><ele>382.6666666666667</ele><time>2026-04-18T13:00:31.988Z</time></trkpt><trkpt lat="43.0688033" lon="12.758475"><ele>385.0</ele><time>2026-04-18T13:00:32.988Z</time></trkpt><trkpt lat="43.06864" lon="12.75837"><ele>385.0</ele><time>2026-04-18T13:00:33.988Z</time></trkpt><trkpt lat="43.0684617" lon="12.7582733"><ele>385.0</ele><time>2026-04-18T13:00:34.988Z</time></trkpt><trkpt lat="43.0682783" lon="12.758195"><ele>385.0</ele><time>2026-04-18T13:00:35.988Z</time></trkpt><trkpt lat="43.0680883" lon="12.7581183"><ele>380.6666666666667</ele><time>2026-04-18T13:00:36.988Z</time></trkpt><trkpt lat="43.0679067" lon="12.7580417"><ele>376.33333333333337</ele><time>2026-04-18T13:00:37.988Z</time></trkpt><trkpt lat="43.0677367" lon="12.7579783"><ele>372.0</ele><time>2026-04-18T13:00:38.988Z</time></trkpt><trkpt lat="43.0675817" lon="12.757915"><ele>371.3333333333333</ele><time>2026-04-18T13:00:39.988Z</time></trkpt><trkpt lat="43.0674383" lon="12.757835"><ele>370.66666666666663</ele><time>2026-04-18T13:00:40.988Z</time></trkpt><trkpt lat="43.0673033" lon="12.7577317"><ele>370.0</ele><time>2026-04-18T13:00:41.988Z</time></trkpt><trkpt lat="43.06718" lon="12.7575933"><ele>370.0</ele><time>2026-04-18T13:00:42.988Z</time></trkpt><trkpt lat="43.06707" lon="12.7574267"><ele>370.0</ele><time>2026-04-18T13:00:43.988Z</time></trkpt><trkpt lat="43.0669717" lon="12.75725"><ele>370.0</ele><time>2026-04-18T13:00:44.988Z</time></trkpt><trkpt lat="43.06688" lon="12.75708"><ele>370.0</ele><time>2026-04-18T13:00:45.988Z</time></trkpt><trkpt lat="43.0667917" lon="12.756915"><ele>370.0</ele><time>2026-04-18T13:00:46.988Z</time></trkpt><trkpt lat="43.0666883" lon="12.756765"><ele>370.0</ele><time>2026-04-18T13:00:47.988Z</time></trkpt><trkpt lat="43.0665717" lon="12.75665"><ele>370.0</ele><time>2026-04-18T13:00:48.988Z</time></trkpt><trkpt lat="43.06644" lon="12.75656"><ele>369.75</ele><time>2026-04-18T13:00:49.988Z</time></trkpt><trkpt lat="43.066305" lon="12.7564917"><ele>369.5</ele><time>2026-04-18T13:00:50.988Z</time></trkpt><trkpt lat="43.0661667" lon="12.75645"><ele>369.25</ele><time>2026-04-18T13:00:51.988Z</time></trkpt><trkpt lat="43.0660233" lon="12.7564117"><ele>369.0</ele><time>2026-04-18T13:00:52.988Z</time></trkpt><trkpt lat="43.06589" lon="12.75637"><ele>368.5</ele><time>2026-04-18T13:00:53.988Z</time></trkpt><trkpt lat="43.0657467" lon="12.75632"><ele>368.0</ele><time>2026-04-18T13:00:54.988Z</time></trkpt><trkpt lat="43.0656067" lon="12.7562667"><ele>367.5</ele><time>2026-04-18T13:00:55.988Z</time></trkpt><trkpt lat="43.065465" lon="12.7562117"><ele>367.0</ele><time>2026-04-18T13:00:56.988Z</time></trkpt><trkpt lat="43.0653183" lon="12.7561433"><ele>367.0</ele><time>2026-04-18T13:00:57.988Z</time></trkpt><trkpt lat="43.0651817" lon="12.7560817"><ele>367.0</ele><time>2026-04-18T13:00:58.988Z</time></trkpt><trkpt lat="43.0650383" lon="12.756035"><ele>367.0</ele><time>2026-04-18T13:00:59.988Z</time></trkpt><trkpt lat="43.0648833" lon="12.75599"><ele>368.66666666666663</ele><time>2026-04-18T13:01:00.988Z</time></trkpt><trkpt lat="43.0647267" lon="12.75594"><ele>370.3333333333333</ele><time>2026-04-18T13:01:01.988Z</time></trkpt><trkpt lat="43.064565" lon="12.7558983"><ele>372.0</ele><time>2026-04-18T13:01:02.988Z</time></trkpt><trkpt lat="43.0644" lon="12.7558817"><ele>372.0</ele><time>2026-04-18T13:01:03.988Z</time></trkpt><trkpt lat="43.0642333" lon="12.755865"><ele>372.0</ele><time>2026-04-18T13:01:04.988Z</time></trkpt><trkpt lat="43.064065" lon="12.7558517"><ele>372.0</ele><time>2026-04-18T13:01:05.988Z</time></trkpt><trkpt lat="43.0638967" lon="12.7558383"><ele>371.0</ele><time>2026-04-18T13:01:06.988Z</time></trkpt><trkpt lat="43.0637217" lon="12.755835"><ele>370.0</ele><time>2026-04-18T13:01:07.988Z</time></trkpt><trkpt lat="43.0635467" lon="12.75584"><ele>369.0</ele><time>2026-04-18T13:01:08.988Z</time></trkpt><trkpt lat="43.063355" lon="12.7558367"><ele>368.6666666666667</ele><time>2026-04-18T13:01:09.987Z</time></trkpt><trkpt lat="43.06316" lon="12.7558317"><ele>368.33333333333337</ele><time>2026-04-18T13:01:10.987Z</time></trkpt><trkpt lat="43.0629783" lon="12.7558283"><ele>368.0</ele><time>2026-04-18T13:01:11.987Z</time></trkpt><trkpt lat="43.0628017" lon="12.755815"><ele>368.0</ele><time>2026-04-18T13:01:12.987Z</time></trkpt><trkpt lat="43.06264" lon="12.7558033"><ele>368.0</ele><time>2026-04-18T13:01:13.987Z</time></trkpt><trkpt lat="43.0624867" lon="12.755775"><ele>368.0</ele><time>2026-04-18T13:01:14.987Z</time></trkpt><trkpt lat="43.0623383" lon="12.75573"><ele>367.33333333333337</ele><time>2026-04-18T13:01:15.987Z</time></trkpt><trkpt lat="43.0621867" lon="12.7556733"><ele>366.6666666666667</ele><time>2026-04-18T13:01:16.987Z</time></trkpt><trkpt lat="43.0620383" lon="12.7555917"><ele>366.0</ele><time>2026-04-18T13:01:17.987Z</time></trkpt><trkpt lat="43.0618833" lon="12.7555067"><ele>366.0</ele><time>2026-04-18T13:01:18.987Z</time></trkpt><trkpt lat="43.0617267" lon="12.7554267"><ele>366.0</ele><time>2026-04-18T13:01:19.987Z</time></trkpt><trkpt lat="43.0615683" lon="12.7553433"><ele>366.0</ele><time>2026-04-18T13:01:20.987Z</time></trkpt><trkpt lat="43.06141" lon="12.7552567"><ele>366.6666666666667</ele><time>2026-04-18T13:01:21.987Z</time></trkpt><trkpt lat="43.0612517" lon="12.7551717"><ele>367.33333333333337</ele><time>2026-04-18T13:01:22.987Z</time></trkpt><trkpt lat="43.0610933" lon="12.75507"><ele>368.0</ele><time>2026-04-18T13:01:23.987Z</time></trkpt><trkpt lat="43.0609383" lon="12.7549683"><ele>365.6666666666667</ele><time>2026-04-18T13:01:24.987Z</time></trkpt><trkpt lat="43.0607783" lon="12.75486"><ele>363.3333333333333</ele><time>2026-04-18T13:01:25.987Z</time></trkpt><trkpt lat="43.0606133" lon="12.754755"><ele>361.0</ele><time>2026-04-18T13:01:26.987Z</time></trkpt><trkpt lat="43.0604583" lon="12.7546617"><ele>361.0</ele><time>2026-04-18T13:01:27.987Z</time></trkpt><trkpt lat="43.0603067" lon="12.7545717"><ele>361.0</ele><time>2026-04-18T13:01:28.987Z</time></trkpt><trkpt lat="43.0601783" lon="12.7544817"><ele>361.0</ele><time>2026-04-18T13:01:29.987Z</time></trkpt><trkpt lat="43.0600483" lon="12.7544183"><ele>361.0</ele><time>2026-04-18T13:01:30.987Z</time></trkpt><trkpt lat="43.05991" lon="12.7543833"><ele>361.75</ele><time>2026-04-18T13:01:31.987Z</time></trkpt><trkpt lat="43.0597817" lon="12.7543717"><ele>362.5</ele><time>2026-04-18T13:01:32.987Z</time></trkpt><trkpt lat="43.0596483" lon="12.7543817"><ele>363.25</ele><time>2026-04-18T13:01:33.987Z</time></trkpt><trkpt lat="43.0595133" lon="12.7543883"><ele>364.0</ele><time>2026-04-18T13:01:34.987Z</time></trkpt><trkpt lat="43.05938" lon="12.7544067"><ele>364.0</ele><time>2026-04-18T13:01:35.987Z</time></trkpt><trkpt lat="43.0592533" lon="12.75442"><ele>364.0</ele><time>2026-04-18T13:01:36.987Z</time></trkpt><trkpt lat="43.0591233" lon="12.75444"><ele>364.0</ele><time>2026-04-18T13:01:37.987Z</time></trkpt><trkpt lat="43.0589917" lon="12.7544567"><ele>364.0</ele><time>2026-04-18T13:01:38.987Z</time></trkpt><trkpt lat="43.0588583" lon="12.7544883"><ele>363.75</ele><time>2026-04-18T13:01:39.987Z</time></trkpt><trkpt lat="43.058725" lon="12.7545"><ele>363.5</ele><time>2026-04-18T13:01:40.987Z</time></trkpt><trkpt lat="43.058585" lon="12.7545183"><ele>363.25</ele><time>2026-04-18T13:01:41.987Z</time></trkpt><trkpt lat="43.0584583" lon="12.7545333"><ele>363.0</ele><time>2026-04-18T13:01:42.987Z</time></trkpt><trkpt lat="43.0583383" lon="12.754545"><ele>362.5</ele><time>2026-04-18T13:01:43.987Z</time></trkpt><trkpt lat="43.058215" lon="12.7545583"><ele>362.0</ele><time>2026-04-18T13:01:44.987Z</time></trkpt><trkpt lat="43.0581" lon="12.7545717"><ele>361.5</ele><time>2026-04-18T13:01:45.987Z</time></trkpt><trkpt lat="43.0579933" lon="12.75458"><ele>361.0</ele><time>2026-04-18T13:01:46.987Z</time></trkpt><trkpt lat="43.0578883" lon="12.7545817"><ele>361.0</ele><time>2026-04-18T13:01:47.987Z</time></trkpt><trkpt lat="43.057785" lon="12.7546017"><ele>361.0</ele><time>2026-04-18T13:01:48.987Z</time></trkpt><trkpt lat="43.057675" lon="12.754625"><ele>361.0</ele><time>2026-04-18T13:01:49.987Z</time></trkpt><trkpt lat="43.0575633" lon="12.7546517"><ele>361.0</ele><time>2026-04-18T13:01:50.987Z</time></trkpt><trkpt lat="43.0574467" lon="12.7546833"><ele>361.0</ele><time>2026-04-18T13:01:51.987Z</time></trkpt><trkpt lat="43.05733" lon="12.7547"><ele>360.8333333333333</ele><time>2026-04-18T13:01:52.987Z</time></trkpt><trkpt lat="43.05722" lon="12.75472"><ele>360.66666666666663</ele><time>2026-04-18T13:01:53.987Z</time></trkpt><trkpt lat="43.05712" lon="12.754735"><ele>360.5</ele><time>2026-04-18T13:01:54.987Z</time></trkpt><trkpt lat="43.0570317" lon="12.7547633"><ele>360.3333333333333</ele><time>2026-04-18T13:01:55.987Z</time></trkpt><trkpt lat="43.0569683" lon="12.7547983"><ele>360.1666666666667</ele><time>2026-04-18T13:01:56.987Z</time></trkpt><trkpt lat="43.0569033" lon="12.7548133"><ele>360.0</ele><time>2026-04-18T13:01:57.987Z</time></trkpt><trkpt lat="43.05681" lon="12.75482"><ele>360.0</ele><time>2026-04-18T13:01:59.987Z</time></trkpt><trkpt lat="43.0567717" lon="12.75475"><ele>360.0</ele><time>2026-04-18T13:02:01.987Z</time></trkpt><trkpt lat="43.05677" lon="12.7545933"><ele>360.0</ele><time>2026-04-18T13:02:03.987Z</time></trkpt><trkpt lat="43.0567833" lon="12.75449"><ele>360.0</ele><time>2026-04-18T13:02:04.987Z</time></trkpt><trkpt lat="43.0567833" lon="12.7543817"><ele>360.0</ele><time>2026-04-18T13:02:05.987Z</time></trkpt><trkpt lat="43.0567917" lon="12.7542683"><ele>360.0</ele><time>2026-04-18T13:02:06.987Z</time></trkpt><trkpt lat="43.056805" lon="12.7541283"><ele>360.4</ele><time>2026-04-18T13:02:07.987Z</time></trkpt><trkpt lat="43.0568083" lon="12.75399"><ele>360.8</ele><time>2026-04-18T13:02:08.987Z</time></trkpt><trkpt lat="43.0568217" lon="12.7538583"><ele>361.20000000000005</ele><time>2026-04-18T13:02:09.987Z</time></trkpt><trkpt lat="43.056835" lon="12.7537217"><ele>361.6</ele><time>2026-04-18T13:02:10.987Z</time></trkpt><trkpt lat="43.0568467" lon="12.7535817"><ele>362.0</ele><time>2026-04-18T13:02:11.987Z</time></trkpt><trkpt lat="43.0568617" lon="12.753445"><ele>362.6</ele><time>2026-04-18T13:02:12.987Z</time></trkpt><trkpt lat="43.0568567" lon="12.7533117"><ele>363.20000000000005</ele><time>2026-04-18T13:02:13.987Z</time></trkpt><trkpt lat="43.0568317" lon="12.7531917"><ele>363.8</ele><time>2026-04-18T13:02:14.987Z</time></trkpt><trkpt lat="43.0568017" lon="12.7530733"><ele>364.4</ele><time>2026-04-18T13:02:15.987Z</time></trkpt><trkpt lat="43.0567783" lon="12.7529517"><ele>365.0</ele><time>2026-04-18T13:02:16.987Z</time></trkpt><trkpt lat="43.056755" lon="12.752825"><ele>367.0</ele><time>2026-04-18T13:02:17.987Z</time></trkpt><trkpt lat="43.0567383" lon="12.752685"><ele>369.0</ele><time>2026-04-18T13:02:18.987Z</time></trkpt><trkpt lat="43.0567267" lon="12.752555"><ele>371.0</ele><time>2026-04-18T13:02:19.987Z</time></trkpt><trkpt lat="43.0567083" lon="12.752425"><ele>373.0</ele><time>2026-04-18T13:02:20.987Z</time></trkpt><trkpt lat="43.056685" lon="12.7522917"><ele>375.0</ele><time>2026-04-18T13:02:21.987Z</time></trkpt><trkpt lat="43.0566633" lon="12.7521533"><ele>375.0</ele><time>2026-04-18T13:02:22.987Z</time></trkpt><trkpt lat="43.0566483" lon="12.7520317"><ele>375.0</ele><time>2026-04-18T13:02:23.987Z</time></trkpt><trkpt lat="43.05664" lon="12.7519167"><ele>375.0</ele><time>2026-04-18T13:02:24.987Z</time></trkpt><trkpt lat="43.05664" lon="12.7518083"><ele>375.0</ele><time>2026-04-18T13:02:25.987Z</time></trkpt><trkpt lat="43.0566483" lon="12.751705"><ele>375.0</ele><time>2026-04-18T13:02:26.987Z</time></trkpt><trkpt lat="43.0566467" lon="12.7515983"><ele>375.0</ele><time>2026-04-18T13:02:27.987Z</time></trkpt><trkpt lat="43.0566367" lon="12.75148"><ele>376.4</ele><time>2026-04-18T13:02:28.987Z</time></trkpt><trkpt lat="43.056625" lon="12.7513533"><ele>377.8</ele><time>2026-04-18T13:02:29.987Z</time></trkpt><trkpt lat="43.056605" lon="12.7512283"><ele>379.20000000000005</ele><time>2026-04-18T13:02:30.987Z</time></trkpt><trkpt lat="43.0565933" lon="12.7511083"><ele>380.6</ele><time>2026-04-18T13:02:31.987Z</time></trkpt><trkpt lat="43.0565767" lon="12.750985"><ele>382.0</ele><time>2026-04-18T13:02:32.987Z</time></trkpt><trkpt lat="43.05656" lon="12.7508583"><ele>379.8333333333333</ele><time>2026-04-18T13:02:33.987Z</time></trkpt><trkpt lat="43.0565417" lon="12.75074"><ele>377.66666666666663</ele><time>2026-04-18T13:02:34.987Z</time></trkpt><trkpt lat="43.0565217" lon="12.7506217"><ele>375.5</ele><time>2026-04-18T13:02:35.987Z</time></trkpt><trkpt lat="43.0565017" lon="12.750505"><ele>373.3333333333333</ele><time>2026-04-18T13:02:36.987Z</time></trkpt><trkpt lat="43.0564867" lon="12.75039"><ele>371.1666666666667</ele><time>2026-04-18T13:02:37.987Z</time></trkpt><trkpt lat="43.056465" lon="12.7502683"><ele>369.0</ele><time>2026-04-18T13:02:38.987Z</time></trkpt><trkpt lat="43.0564383" lon="12.7501517"><ele>369.0</ele><time>2026-04-18T13:02:39.987Z</time></trkpt><trkpt lat="43.056405" lon="12.75003"><ele>369.0</ele><time>2026-04-18T13:02:40.987Z</time></trkpt><trkpt lat="43.056375" lon="12.749895"><ele>369.0</ele><time>2026-04-18T13:02:41.987Z</time></trkpt><trkpt lat="43.056345" lon="12.7497467"><ele>369.0</ele><time>2026-04-18T13:02:42.987Z</time></trkpt><trkpt lat="43.0563067" lon="12.7496017"><ele>369.0</ele><time>2026-04-18T13:02:43.987Z</time></trkpt><trkpt lat="43.05626" lon="12.74945"><ele>369.79999999999995</ele><time>2026-04-18T13:02:44.987Z</time></trkpt><trkpt lat="43.05621" lon="12.7493167"><ele>370.59999999999997</ele><time>2026-04-18T13:02:45.987Z</time></trkpt><trkpt lat="43.0561667" lon="12.74919"><ele>371.4</ele><time>2026-04-18T13:02:46.987Z</time></trkpt><trkpt lat="43.056125" lon="12.749065"><ele>372.2</ele><time>2026-04-18T13:02:47.987Z</time></trkpt><trkpt lat="43.05609" lon="12.7489333"><ele>373.0</ele><time>2026-04-18T13:02:48.987Z</time></trkpt><trkpt lat="43.05606" lon="12.7488033"><ele>373.0</ele><time>2026-04-18T13:02:49.987Z</time></trkpt><trkpt lat="43.0560317" lon="12.7486717"><ele>373.0</ele><time>2026-04-18T13:02:50.987Z</time></trkpt><trkpt lat="43.0560083" lon="12.7485367"><ele>373.0</ele><time>2026-04-18T13:02:51.987Z</time></trkpt><trkpt lat="43.055995" lon="12.7483967"><ele>373.0</ele><time>2026-04-18T13:02:52.987Z</time></trkpt><trkpt lat="43.05598" lon="12.748255"><ele>373.0</ele><time>2026-04-18T13:02:53.987Z</time></trkpt><trkpt lat="43.0559733" lon="12.7481067"><ele>373.5</ele><time>2026-04-18T13:02:54.987Z</time></trkpt><trkpt lat="43.0559683" lon="12.7479517"><ele>374.0</ele><time>2026-04-18T13:02:55.987Z</time></trkpt><trkpt lat="43.0559483" lon="12.7477867"><ele>374.5</ele><time>2026-04-18T13:02:56.987Z</time></trkpt><trkpt lat="43.0559167" lon="12.74763"><ele>375.0</ele><time>2026-04-18T13:02:57.987Z</time></trkpt><trkpt lat="43.0558883" lon="12.74747"><ele>376.4</ele><time>2026-04-18T13:02:58.987Z</time></trkpt><trkpt lat="43.0558683" lon="12.74732"><ele>377.8</ele><time>2026-04-18T13:02:59.987Z</time></trkpt><trkpt lat="43.0558667" lon="12.74717"><ele>379.20000000000005</ele><time>2026-04-18T13:03:00.987Z</time></trkpt><trkpt lat="43.0558683" lon="12.7470117"><ele>380.6</ele><time>2026-04-18T13:03:01.987Z</time></trkpt><trkpt lat="43.05586" lon="12.74686"><ele>382.0</ele><time>2026-04-18T13:03:02.987Z</time></trkpt><trkpt lat="43.055835" lon="12.7467117"><ele>382.75</ele><time>2026-04-18T13:03:03.987Z</time></trkpt><trkpt lat="43.0558017" lon="12.7465633"><ele>383.5</ele><time>2026-04-18T13:03:04.987Z</time></trkpt><trkpt lat="43.0557583" lon="12.7464167"><ele>384.25</ele><time>2026-04-18T13:03:05.987Z</time></trkpt><trkpt lat="43.05572" lon="12.746265"><ele>385.0</ele><time>2026-04-18T13:03:06.987Z</time></trkpt><trkpt lat="43.0556933" lon="12.7461283"><ele>385.2</ele><time>2026-04-18T13:03:07.987Z</time></trkpt><trkpt lat="43.0556617" lon="12.7459967"><ele>385.4</ele><time>2026-04-18T13:03:08.987Z</time></trkpt><trkpt lat="43.0556333" lon="12.7458533"><ele>385.6</ele><time>2026-04-18T13:03:09.987Z</time></trkpt><trkpt lat="43.0556117" lon="12.74572"><ele>385.8</ele><time>2026-04-18T13:03:10.987Z</time></trkpt><trkpt lat="43.0555867" lon="12.7455867"><ele>386.0</ele><time>2026-04-18T13:03:11.987Z</time></trkpt><trkpt lat="43.0555567" lon="12.74546"><ele>386.0</ele><time>2026-04-18T13:03:12.987Z</time></trkpt><trkpt lat="43.0555233" lon="12.745335"><ele>386.0</ele><time>2026-04-18T13:03:13.987Z</time></trkpt><trkpt lat="43.05549" lon="12.7452033"><ele>386.0</ele><time>2026-04-18T13:03:14.987Z</time></trkpt><trkpt lat="43.05547" lon="12.7450817"><ele>386.0</ele><time>2026-04-18T13:03:15.987Z</time></trkpt><trkpt lat="43.055455" lon="12.7449533"><ele>386.0</ele><time>2026-04-18T13:03:16.987Z</time></trkpt><trkpt lat="43.0554467" lon="12.7448117"><ele>385.4</ele><time>2026-04-18T13:03:17.987Z</time></trkpt><trkpt lat="43.0554383" lon="12.744665"><ele>384.8</ele><time>2026-04-18T13:03:18.987Z</time></trkpt><trkpt lat="43.05544" lon="12.7445183"><ele>384.2</ele><time>2026-04-18T13:03:19.987Z</time></trkpt><trkpt lat="43.0554467" lon="12.7443667"><ele>383.59999999999997</ele><time>2026-04-18T13:03:20.987Z</time></trkpt><trkpt lat="43.0554617" lon="12.744215"><ele>383.0</ele><time>2026-04-18T13:03:21.987Z</time></trkpt><trkpt lat="43.0555" lon="12.7440733"><ele>384.2</ele><time>2026-04-18T13:03:22.987Z</time></trkpt><trkpt lat="43.0555467" lon="12.74394"><ele>385.4</ele><time>2026-04-18T13:03:23.987Z</time></trkpt><trkpt lat="43.0555983" lon="12.7438117"><ele>386.59999999999997</ele><time>2026-04-18T13:03:24.987Z</time></trkpt><trkpt lat="43.05563" lon="12.743675"><ele>387.79999999999995</ele><time>2026-04-18T13:03:25.987Z</time></trkpt><trkpt lat="43.0556267" lon="12.7435383"><ele>389.0</ele><time>2026-04-18T13:03:26.987Z</time></trkpt><trkpt lat="43.0555883" lon="12.7433917"><ele>389.75</ele><time>2026-04-18T13:03:27.987Z</time></trkpt><trkpt lat="43.0555233" lon="12.7432517"><ele>390.5</ele><time>2026-04-18T13:03:28.987Z</time></trkpt><trkpt lat="43.0554533" lon="12.7431083"><ele>391.25</ele><time>2026-04-18T13:03:29.987Z</time></trkpt><trkpt lat="43.055385" lon="12.74296"><ele>392.0</ele><time>2026-04-18T13:03:30.987Z</time></trkpt><trkpt lat="43.0553283" lon="12.7428133"><ele>392.75</ele><time>2026-04-18T13:03:31.987Z</time></trkpt><trkpt lat="43.0552733" lon="12.7426617"><ele>393.5</ele><time>2026-04-18T13:03:32.987Z</time></trkpt><trkpt lat="43.0552217" lon="12.742505"><ele>394.25</ele><time>2026-04-18T13:03:33.987Z</time></trkpt><trkpt lat="43.05518" lon="12.74234"><ele>395.0</ele><time>2026-04-18T13:03:34.987Z</time></trkpt><trkpt lat="43.0551383" lon="12.7421833"><ele>395.0</ele><time>2026-04-18T13:03:35.987Z</time></trkpt><trkpt lat="43.055105" lon="12.742015"><ele>395.0</ele><time>2026-04-18T13:03:36.987Z</time></trkpt><trkpt lat="43.0550783" lon="12.7418683"><ele>395.0</ele><time>2026-04-18T13:03:37.987Z</time></trkpt><trkpt lat="43.0550717" lon="12.74172"><ele>395.0</ele><time>2026-04-18T13:03:38.987Z</time></trkpt><trkpt lat="43.0550717" lon="12.7415817"><ele>395.0</ele><time>2026-04-18T13:03:39.987Z</time></trkpt><trkpt lat="43.0550867" lon="12.7414433"><ele>395.0</ele><time>2026-04-18T13:03:40.987Z</time></trkpt><trkpt lat="43.055105" lon="12.7413067"><ele>395.0</ele><time>2026-04-18T13:03:41.987Z</time></trkpt><trkpt lat="43.055115" lon="12.7411733"><ele>395.0</ele><time>2026-04-18T13:03:42.987Z</time></trkpt><trkpt lat="43.0551217" lon="12.7410367"><ele>395.0</ele><time>2026-04-18T13:03:43.987Z</time></trkpt><trkpt lat="43.0551267" lon="12.7409"><ele>395.0</ele><time>2026-04-18T13:03:44.987Z</time></trkpt><trkpt lat="43.0551183" lon="12.7407683"><ele>395.4</ele><time>2026-04-18T13:03:45.987Z</time></trkpt><trkpt lat="43.0551117" lon="12.740635"><ele>395.8</ele><time>2026-04-18T13:03:46.987Z</time></trkpt><trkpt lat="43.05511" lon="12.7404967"><ele>396.20000000000005</ele><time>2026-04-18T13:03:47.987Z</time></trkpt><trkpt lat="43.05511" lon="12.7403567"><ele>396.6</ele><time>2026-04-18T13:03:48.987Z</time></trkpt><trkpt lat="43.0551" lon="12.7402217"><ele>397.0</ele><time>2026-04-18T13:03:49.987Z</time></trkpt><trkpt lat="43.0550817" lon="12.7400883"><ele>398.0</ele><time>2026-04-18T13:03:50.987Z</time></trkpt><trkpt lat="43.0550483" lon="12.7399567"><ele>399.0</ele><time>2026-04-18T13:03:51.987Z</time></trkpt><trkpt lat="43.0550033" lon="12.739825"><ele>400.0</ele><time>2026-04-18T13:03:52.987Z</time></trkpt><trkpt lat="43.0549517" lon="12.7397017"><ele>401.0</ele><time>2026-04-18T13:03:53.987Z</time></trkpt><trkpt lat="43.054885" lon="12.739595"><ele>402.0</ele><time>2026-04-18T13:03:54.987Z</time></trkpt><trkpt lat="43.0548033" lon="12.739495"><ele>403.20000000000005</ele><time>2026-04-18T13:03:55.987Z</time></trkpt><trkpt lat="43.05473" lon="12.7394133"><ele>404.4</ele><time>2026-04-18T13:03:56.987Z</time></trkpt><trkpt lat="43.0546617" lon="12.7393167"><ele>405.6</ele><time>2026-04-18T13:03:57.987Z</time></trkpt><trkpt lat="43.0546017" lon="12.73923"><ele>406.79999999999995</ele><time>2026-04-18T13:03:58.987Z</time></trkpt><trkpt lat="43.05455" lon="12.73912"><ele>408.0</ele><time>2026-04-18T13:03:59.987Z</time></trkpt><trkpt lat="43.0545183" lon="12.739"><ele>408.0</ele><time>2026-04-18T13:04:00.987Z</time></trkpt><trkpt lat="43.0545083" lon="12.73887"><ele>408.0</ele><time>2026-04-18T13:04:01.987Z</time></trkpt><trkpt lat="43.0545" lon="12.73875"><ele>408.0</ele><time>2026-04-18T13:04:02.987Z</time></trkpt><trkpt lat="43.054485" lon="12.7386367"><ele>408.0</ele><time>2026-04-18T13:04:03.987Z</time></trkpt><trkpt lat="43.0544667" lon="12.7385167"><ele>408.0</ele><time>2026-04-18T13:04:04.987Z</time></trkpt><trkpt lat="43.0544467" lon="12.7384017"><ele>408.0</ele><time>2026-04-18T13:04:05.987Z</time></trkpt><trkpt lat="43.0544117" lon="12.7382867"><ele>407.2</ele><time>2026-04-18T13:04:06.987Z</time></trkpt><trkpt lat="43.054365" lon="12.7381717"><ele>406.4</ele><time>2026-04-18T13:04:07.987Z</time></trkpt><trkpt lat="43.0543" lon="12.738075"><ele>405.59999999999997</ele><time>2026-04-18T13:04:08.987Z</time></trkpt><trkpt lat="43.0542233" lon="12.7379933"><ele>404.79999999999995</ele><time>2026-04-18T13:04:09.987Z</time></trkpt><trkpt lat="43.0541567" lon="12.7379083"><ele>404.0</ele><time>2026-04-18T13:04:10.987Z</time></trkpt><trkpt lat="43.0541067" lon="12.7378117"><ele>406.6</ele><time>2026-04-18T13:04:11.987Z</time></trkpt><trkpt lat="43.0540683" lon="12.7377167"><ele>409.2</ele><time>2026-04-18T13:04:12.987Z</time></trkpt><trkpt lat="43.0540567" lon="12.737595"><ele>411.8</ele><time>2026-04-18T13:04:13.987Z</time></trkpt><trkpt lat="43.0540617" lon="12.737465"><ele>414.40000000000003</ele><time>2026-04-18T13:04:14.987Z</time></trkpt><trkpt lat="43.0540783" lon="12.7373267"><ele>417.0</ele><time>2026-04-18T13:04:15.987Z</time></trkpt><trkpt lat="43.0541017" lon="12.7371983"><ele>416.0</ele><time>2026-04-18T13:04:16.987Z</time></trkpt><trkpt lat="43.0541233" lon="12.7370633"><ele>415.0</ele><time>2026-04-18T13:04:17.987Z</time></trkpt><trkpt lat="43.0541383" lon="12.7369067"><ele>414.0</ele><time>2026-04-18T13:04:18.987Z</time></trkpt><trkpt lat="43.05415" lon="12.7367433"><ele>413.0</ele><time>2026-04-18T13:04:19.987Z</time></trkpt><trkpt lat="43.05415" lon="12.7365817"><ele>413.0</ele><time>2026-04-18T13:04:20.987Z</time></trkpt><trkpt lat="43.054155" lon="12.7364267"><ele>413.0</ele><time>2026-04-18T13:04:21.987Z</time></trkpt><trkpt lat="43.054155" lon="12.73628"><ele>413.0</ele><time>2026-04-18T13:04:22.987Z</time></trkpt><trkpt lat="43.054145" lon="12.7361267"><ele>413.0</ele><time>2026-04-18T13:04:23.987Z</time></trkpt><trkpt lat="43.0541217" lon="12.73598"><ele>413.0</ele><time>2026-04-18T13:04:24.987Z</time></trkpt><trkpt lat="43.0540767" lon="12.7358417"><ele>414.25</ele><time>2026-04-18T13:04:25.987Z</time></trkpt><trkpt lat="43.0540167" lon="12.7357033"><ele>415.5</ele><time>2026-04-18T13:04:26.987Z</time></trkpt><trkpt lat="43.0539467" lon="12.7355717"><ele>416.75</ele><time>2026-04-18T13:04:27.987Z</time></trkpt><trkpt lat="43.0538717" lon="12.735445"><ele>418.0</ele><time>2026-04-18T13:04:28.987Z</time></trkpt><trkpt lat="43.0537983" lon="12.7353183"><ele>419.25</ele><time>2026-04-18T13:04:29.987Z</time></trkpt><trkpt lat="43.0537317" lon="12.7351917"><ele>420.5</ele><time>2026-04-18T13:04:30.987Z</time></trkpt><trkpt lat="43.053675" lon="12.7350533"><ele>421.75</ele><time>2026-04-18T13:04:31.987Z</time></trkpt><trkpt lat="43.0536267" lon="12.7349033"><ele>423.0</ele><time>2026-04-18T13:04:32.987Z</time></trkpt><trkpt lat="43.0535867" lon="12.7347483"><ele>423.0</ele><time>2026-04-18T13:04:33.987Z</time></trkpt><trkpt lat="43.053545" lon="12.7345883"><ele>423.0</ele><time>2026-04-18T13:04:34.987Z</time></trkpt><trkpt lat="43.0535067" lon="12.7344283"><ele>423.0</ele><time>2026-04-18T13:04:35.987Z</time></trkpt><trkpt lat="43.0534783" lon="12.7342817"><ele>423.0</ele><time>2026-04-18T13:04:36.987Z</time></trkpt><trkpt lat="43.0534567" lon="12.7341333"><ele>423.0</ele><time>2026-04-18T13:04:37.987Z</time></trkpt><trkpt lat="43.0534383" lon="12.7339717"><ele>423.0</ele><time>2026-04-18T13:04:38.987Z</time></trkpt><trkpt lat="43.05342" lon="12.7338033"><ele>423.0</ele><time>2026-04-18T13:04:39.987Z</time></trkpt><trkpt lat="43.0534" lon="12.7336283"><ele>423.0</ele><time>2026-04-18T13:04:40.987Z</time></trkpt><trkpt lat="43.0533817" lon="12.7334517"><ele>423.0</ele><time>2026-04-18T13:04:41.987Z</time></trkpt><trkpt lat="43.0533683" lon="12.7332783"><ele>423.0</ele><time>2026-04-18T13:04:42.987Z</time></trkpt><trkpt lat="43.0533617" lon="12.7331067"><ele>423.0</ele><time>2026-04-18T13:04:43.987Z</time></trkpt><trkpt lat="43.0533567" lon="12.732935"><ele>423.0</ele><time>2026-04-18T13:04:44.987Z</time></trkpt><trkpt lat="43.0533417" lon="12.7327767"><ele>423.0</ele><time>2026-04-18T13:04:45.987Z</time></trkpt><trkpt lat="43.0533167" lon="12.7326217"><ele>423.0</ele><time>2026-04-18T13:04:46.987Z</time></trkpt><trkpt lat="43.053285" lon="12.732465"><ele>423.0</ele><time>2026-04-18T13:04:47.987Z</time></trkpt><trkpt lat="43.053255" lon="12.7323083"><ele>423.0</ele><time>2026-04-18T13:04:48.987Z</time></trkpt><trkpt lat="43.0532383" lon="12.7321417"><ele>426.25</ele><time>2026-04-18T13:04:49.987Z</time></trkpt><trkpt lat="43.05323" lon="12.7319767"><ele>429.5</ele><time>2026-04-18T13:04:50.987Z</time></trkpt><trkpt lat="43.0532333" lon="12.73181"><ele>432.75</ele><time>2026-04-18T13:04:51.987Z</time></trkpt><trkpt lat="43.0532383" lon="12.7316467"><ele>436.0</ele><time>2026-04-18T13:04:52.987Z</time></trkpt><trkpt lat="43.0532467" lon="12.7314967"><ele>436.00000000000006</ele><time>2026-04-18T13:04:53.987Z</time></trkpt><trkpt lat="43.0532483" lon="12.7313617"><ele>436.0</ele><time>2026-04-18T13:04:54.987Z</time></trkpt><trkpt lat="43.0532517" lon="12.7312383"><ele>436.0</ele><time>2026-04-18T13:04:55.987Z</time></trkpt><trkpt lat="43.0532717" lon="12.7311383"><ele>436.0</ele><time>2026-04-18T13:04:56.987Z</time></trkpt><trkpt lat="43.05331" lon="12.7310383"><ele>436.00000000000006</ele><time>2026-04-18T13:04:57.987Z</time></trkpt><trkpt lat="43.0533467" lon="12.7309367"><ele>436.0</ele><time>2026-04-18T13:04:58.987Z</time></trkpt><trkpt lat="43.0533633" lon="12.730825"><ele>436.00000000000006</ele><time>2026-04-18T13:04:59.987Z</time></trkpt><trkpt lat="43.05337" lon="12.73071"><ele>436.0</ele><time>2026-04-18T13:05:00.987Z</time></trkpt><trkpt lat="43.05336" lon="12.730605"><ele>436.0</ele><time>2026-04-18T13:05:01.987Z</time></trkpt><trkpt lat="43.0533317" lon="12.7305033"><ele>436.0</ele><time>2026-04-18T13:05:02.987Z</time></trkpt><trkpt lat="43.053275" lon="12.73041"><ele>436.00000000000006</ele><time>2026-04-18T13:05:03.987Z</time></trkpt><trkpt lat="43.0532233" lon="12.7303217"><ele>436.0</ele><time>2026-04-18T13:05:04.987Z</time></trkpt><trkpt lat="43.0531633" lon="12.730225"><ele>435.6</ele><time>2026-04-18T13:05:05.987Z</time></trkpt><trkpt lat="43.0531117" lon="12.7301117"><ele>435.20000000000005</ele><time>2026-04-18T13:05:06.987Z</time></trkpt><trkpt lat="43.053085" lon="12.72998"><ele>434.79999999999995</ele><time>2026-04-18T13:05:07.987Z</time></trkpt><trkpt lat="43.0530783" lon="12.729845"><ele>434.4</ele><time>2026-04-18T13:05:08.987Z</time></trkpt><trkpt lat="43.053085" lon="12.7297017"><ele>434.0</ele><time>2026-04-18T13:05:09.987Z</time></trkpt><trkpt lat="43.0530917" lon="12.7295517"><ele>433.99999999999994</ele><time>2026-04-18T13:05:10.987Z</time></trkpt><trkpt lat="43.053115" lon="12.72942"><ele>434.0</ele><time>2026-04-18T13:05:11.987Z</time></trkpt><trkpt lat="43.0531383" lon="12.72931"><ele>434.0</ele><time>2026-04-18T13:05:12.987Z</time></trkpt><trkpt lat="43.0531567" lon="12.7291867"><ele>434.0</ele><time>2026-04-18T13:05:13.987Z</time></trkpt><trkpt lat="43.0531617" lon="12.729065"><ele>433.99999999999994</ele><time>2026-04-18T13:05:14.987Z</time></trkpt><trkpt lat="43.0531467" lon="12.728965"><ele>434.0</ele><time>2026-04-18T13:05:15.987Z</time></trkpt><trkpt lat="43.0531233" lon="12.7288783"><ele>433.99999999999994</ele><time>2026-04-18T13:05:16.987Z</time></trkpt><trkpt lat="43.0530933" lon="12.7287933"><ele>434.0</ele><time>2026-04-18T13:05:17.987Z</time></trkpt><trkpt lat="43.05306" lon="12.7286983"><ele>434.0</ele><time>2026-04-18T13:05:18.987Z</time></trkpt><trkpt lat="43.0530217" lon="12.7285917"><ele>434.0</ele><time>2026-04-18T13:05:19.987Z</time></trkpt><trkpt lat="43.0529883" lon="12.728485"><ele>433.99999999999994</ele><time>2026-04-18T13:05:20.987Z</time></trkpt><trkpt lat="43.0529483" lon="12.7283883"><ele>434.0</ele><time>2026-04-18T13:05:21.987Z</time></trkpt><trkpt lat="43.0529" lon="12.7282867"><ele>433.66666666666663</ele><time>2026-04-18T13:05:22.987Z</time></trkpt><trkpt lat="43.05284" lon="12.7281967"><ele>433.3333333333333</ele><time>2026-04-18T13:05:23.987Z</time></trkpt><trkpt lat="43.0527683" lon="12.72812"><ele>433.0</ele><time>2026-04-18T13:05:24.987Z</time></trkpt><trkpt lat="43.0526883" lon="12.7280683"><ele>432.66666666666663</ele><time>2026-04-18T13:05:25.987Z</time></trkpt><trkpt lat="43.0526217" lon="12.7280283"><ele>432.3333333333333</ele><time>2026-04-18T13:05:26.987Z</time></trkpt><trkpt lat="43.0525667" lon="12.7279817"><ele>432.0</ele><time>2026-04-18T13:05:27.987Z</time></trkpt><trkpt lat="43.0525133" lon="12.7278433"><ele>432.0</ele><time>2026-04-18T13:05:29.987Z</time></trkpt><trkpt lat="43.0525183" lon="12.7277417"><ele>432.0</ele><time>2026-04-18T13:05:30.987Z</time></trkpt><trkpt lat="43.0525317" lon="12.7276283"><ele>432.0</ele><time>2026-04-18T13:05:31.987Z</time></trkpt><trkpt lat="43.0525417" lon="12.7275183"><ele>432.0</ele><time>2026-04-18T13:05:32.987Z</time></trkpt><trkpt lat="43.05254" lon="12.7274267"><ele>432.0</ele><time>2026-04-18T13:05:33.987Z</time></trkpt><trkpt lat="43.0524767" lon="12.727325"><ele>432.0</ele><time>2026-04-18T13:05:35.987Z</time></trkpt><trkpt lat="43.0523733" lon="12.7273817"><ele>434.40000000000003</ele><time>2026-04-18T13:05:37.987Z</time></trkpt><trkpt lat="43.05227" lon="12.7274367"><ele>436.80000000000007</ele><time>2026-04-18T13:05:39.987Z</time></trkpt><trkpt lat="43.052175" lon="12.7273367"><ele>439.2</ele><time>2026-04-18T13:05:41.987Z</time></trkpt><trkpt lat="43.05216" lon="12.72723"><ele>441.6</ele><time>2026-04-18T13:05:42.987Z</time></trkpt><trkpt lat="43.0521467" lon="12.72711"><ele>444.0</ele><time>2026-04-18T13:05:43.987Z</time></trkpt><trkpt lat="43.0521383" lon="12.7270083"><ele>444.0</ele><time>2026-04-18T13:05:44.987Z</time></trkpt><trkpt lat="43.05211" lon="12.72693"><ele>444.0</ele><time>2026-04-18T13:05:45.987Z</time></trkpt><trkpt lat="43.051995" lon="12.7268833"><ele>444.0</ele><time>2026-04-18T13:05:47.987Z</time></trkpt><trkpt lat="43.051935" lon="12.7269183"><ele>444.0</ele><time>2026-04-18T13:05:48.987Z</time></trkpt><trkpt lat="43.051875" lon="12.7269733"><ele>444.0</ele><time>2026-04-18T13:05:49.986Z</time></trkpt><trkpt lat="43.051805" lon="12.7270033"><ele>444.0</ele><time>2026-04-18T13:05:50.986Z</time></trkpt><trkpt lat="43.051735" lon="12.7269933"><ele>444.0</ele><time>2026-04-18T13:05:51.986Z</time></trkpt><trkpt lat="43.051665" lon="12.7269483"><ele>444.0</ele><time>2026-04-18T13:05:52.986Z</time></trkpt><trkpt lat="43.0515817" lon="12.7268767"><ele>444.0</ele><time>2026-04-18T13:05:53.986Z</time></trkpt><trkpt lat="43.05151" lon="12.72681"><ele>444.0</ele><time>2026-04-18T13:05:54.986Z</time></trkpt><trkpt lat="43.0514533" lon="12.7267583"><ele>444.0</ele><time>2026-04-18T13:05:55.986Z</time></trkpt><trkpt lat="43.0513917" lon="12.72664"><ele>444.0</ele><time>2026-04-18T13:05:57.986Z</time></trkpt><trkpt lat="43.0514417" lon="12.726515"><ele>445.6666666666667</ele><time>2026-04-18T13:05:59.986Z</time></trkpt><trkpt lat="43.051505" lon="12.7264783"><ele>447.33333333333337</ele><time>2026-04-18T13:06:00.986Z</time></trkpt><trkpt lat="43.05158" lon="12.7264667"><ele>449.0</ele><time>2026-04-18T13:06:01.986Z</time></trkpt><trkpt lat="43.0516667" lon="12.72644"><ele>450.6666666666667</ele><time>2026-04-18T13:06:02.986Z</time></trkpt><trkpt lat="43.0517567" lon="12.72638"><ele>452.33333333333337</ele><time>2026-04-18T13:06:03.986Z</time></trkpt><trkpt lat="43.0518417" lon="12.7262833"><ele>454.0</ele><time>2026-04-18T13:06:04.986Z</time></trkpt><trkpt lat="43.0519" lon="12.726165"><ele>458.79999999999995</ele><time>2026-04-18T13:06:05.986Z</time></trkpt><trkpt lat="43.0519433" lon="12.7260467"><ele>463.59999999999997</ele><time>2026-04-18T13:06:06.986Z</time></trkpt><trkpt lat="43.0519883" lon="12.7259283"><ele>468.4</ele><time>2026-04-18T13:06:07.986Z</time></trkpt><trkpt lat="43.0520433" lon="12.7258183"><ele>473.2</ele><time>2026-04-18T13:06:08.986Z</time></trkpt><trkpt lat="43.0521083" lon="12.725715"><ele>478.0</ele><time>2026-04-18T13:06:09.986Z</time></trkpt><trkpt lat="43.05217" lon="12.7256033"><ele>478.0</ele><time>2026-04-18T13:06:10.986Z</time></trkpt><trkpt lat="43.0522067" lon="12.72547"><ele>477.99999999999994</ele><time>2026-04-18T13:06:11.986Z</time></trkpt><trkpt lat="43.0522383" lon="12.725335"><ele>477.99999999999994</ele><time>2026-04-18T13:06:12.986Z</time></trkpt><trkpt lat="43.0522617" lon="12.725195"><ele>478.0</ele><time>2026-04-18T13:06:13.986Z</time></trkpt><trkpt lat="43.05229" lon="12.7250533"><ele>478.0</ele><time>2026-04-18T13:06:14.986Z</time></trkpt><trkpt lat="43.052325" lon="12.7249083"><ele>481.79999999999995</ele><time>2026-04-18T13:06:15.986Z</time></trkpt><trkpt lat="43.052355" lon="12.7247667"><ele>485.59999999999997</ele><time>2026-04-18T13:06:16.986Z</time></trkpt><trkpt lat="43.0523767" lon="12.7246217"><ele>489.40000000000003</ele><time>2026-04-18T13:06:17.986Z</time></trkpt><trkpt lat="43.0523967" lon="12.72448"><ele>493.20000000000005</ele><time>2026-04-18T13:06:18.986Z</time></trkpt><trkpt lat="43.0524183" lon="12.72436"><ele>497.0</ele><time>2026-04-18T13:06:19.986Z</time></trkpt><trkpt lat="43.05243" lon="12.72426"><ele>498.8</ele><time>2026-04-18T13:06:20.986Z</time></trkpt><trkpt lat="43.05245" lon="12.7241683"><ele>500.6</ele><time>2026-04-18T13:06:21.986Z</time></trkpt><trkpt lat="43.0524483" lon="12.7240117"><ele>502.40000000000003</ele><time>2026-04-18T13:06:23.986Z</time></trkpt><trkpt lat="43.0523533" lon="12.72392"><ele>504.20000000000005</ele><time>2026-04-18T13:06:25.986Z</time></trkpt><trkpt lat="43.0522367" lon="12.7239667"><ele>506.0</ele><time>2026-04-18T13:06:27.986Z</time></trkpt><trkpt lat="43.052175" lon="12.7240283"><ele>506.0</ele><time>2026-04-18T13:06:28.986Z</time></trkpt><trkpt lat="43.0521217" lon="12.724105"><ele>506.0</ele><time>2026-04-18T13:06:29.986Z</time></trkpt><trkpt lat="43.0520633" lon="12.7241967"><ele>506.0</ele><time>2026-04-18T13:06:30.986Z</time></trkpt><trkpt lat="43.0519983" lon="12.7243"><ele>506.0</ele><time>2026-04-18T13:06:31.986Z</time></trkpt><trkpt lat="43.05195" lon="12.72441"><ele>506.0</ele><time>2026-04-18T13:06:32.986Z</time></trkpt><trkpt lat="43.0519117" lon="12.7245317"><ele>504.49999999999994</ele><time>2026-04-18T13:06:33.986Z</time></trkpt><trkpt lat="43.051885" lon="12.724645"><ele>503.0</ele><time>2026-04-18T13:06:34.986Z</time></trkpt><trkpt lat="43.0518583" lon="12.724755"><ele>501.5</ele><time>2026-04-18T13:06:35.986Z</time></trkpt><trkpt lat="43.0518367" lon="12.7248683"><ele>500.0</ele><time>2026-04-18T13:06:36.986Z</time></trkpt><trkpt lat="43.0518083" lon="12.7249833"><ele>498.49999999999994</ele><time>2026-04-18T13:06:37.986Z</time></trkpt><trkpt lat="43.05178" lon="12.7250883"><ele>497.0</ele><time>2026-04-18T13:06:38.986Z</time></trkpt><trkpt lat="43.05173" lon="12.72518"><ele>495.16666666666663</ele><time>2026-04-18T13:06:39.986Z</time></trkpt><trkpt lat="43.05166" lon="12.7252467"><ele>493.3333333333333</ele><time>2026-04-18T13:06:40.986Z</time></trkpt><trkpt lat="43.0515717" lon="12.7252667"><ele>491.5</ele><time>2026-04-18T13:06:41.986Z</time></trkpt><trkpt lat="43.0514883" lon="12.7252617"><ele>489.66666666666663</ele><time>2026-04-18T13:06:42.986Z</time></trkpt><trkpt lat="43.0514017" lon="12.7252483"><ele>487.8333333333333</ele><time>2026-04-18T13:06:43.986Z</time></trkpt><trkpt lat="43.051305" lon="12.7252367"><ele>486.0</ele><time>2026-04-18T13:06:44.986Z</time></trkpt><trkpt lat="43.051205" lon="12.7252383"><ele>486.0</ele><time>2026-04-18T13:06:45.986Z</time></trkpt><trkpt lat="43.0511033" lon="12.7252383"><ele>486.0</ele><time>2026-04-18T13:06:46.986Z</time></trkpt><trkpt lat="43.0509983" lon="12.72523"><ele>486.0</ele><time>2026-04-18T13:06:47.986Z</time></trkpt><trkpt lat="43.0509017" lon="12.7252133"><ele>486.0</ele><time>2026-04-18T13:06:48.986Z</time></trkpt><trkpt lat="43.0508083" lon="12.7251667"><ele>486.0</ele><time>2026-04-18T13:06:49.986Z</time></trkpt><trkpt lat="43.0507267" lon="12.7251117"><ele>489.0</ele><time>2026-04-18T13:06:50.986Z</time></trkpt><trkpt lat="43.0506817" lon="12.72504"><ele>492.0</ele><time>2026-04-18T13:06:51.986Z</time></trkpt><trkpt lat="43.050685" lon="12.7249017"><ele>495.0</ele><time>2026-04-18T13:06:53.986Z</time></trkpt><trkpt lat="43.050805" lon="12.7248283"><ele>498.0</ele><time>2026-04-18T13:06:55.986Z</time></trkpt><trkpt lat="43.050885" lon="12.724805"><ele>501.0</ele><time>2026-04-18T13:06:56.986Z</time></trkpt><trkpt lat="43.0509683" lon="12.7247733"><ele>502.3333333333333</ele><time>2026-04-18T13:06:57.986Z</time></trkpt><trkpt lat="43.0510317" lon="12.7247067"><ele>503.66666666666663</ele><time>2026-04-18T13:06:58.986Z</time></trkpt><trkpt lat="43.0510783" lon="12.7246183"><ele>505.0</ele><time>2026-04-18T13:06:59.986Z</time></trkpt><trkpt lat="43.05111" lon="12.7245067"><ele>506.3333333333333</ele><time>2026-04-18T13:07:00.986Z</time></trkpt><trkpt lat="43.05113" lon="12.7243833"><ele>507.66666666666663</ele><time>2026-04-18T13:07:01.986Z</time></trkpt><trkpt lat="43.0511533" lon="12.7242533"><ele>509.0</ele><time>2026-04-18T13:07:02.986Z</time></trkpt><trkpt lat="43.0511717" lon="12.72413"><ele>511.79999999999995</ele><time>2026-04-18T13:07:03.986Z</time></trkpt><trkpt lat="43.051195" lon="12.72401"><ele>514.5999999999999</ele><time>2026-04-18T13:07:04.986Z</time></trkpt><trkpt lat="43.0512217" lon="12.7238933"><ele>517.4</ele><time>2026-04-18T13:07:05.986Z</time></trkpt><trkpt lat="43.05125" lon="12.7237733"><ele>520.1999999999999</ele><time>2026-04-18T13:07:06.986Z</time></trkpt><trkpt lat="43.0512633" lon="12.7236367"><ele>523.0</ele><time>2026-04-18T13:07:07.986Z</time></trkpt><trkpt lat="43.0512617" lon="12.7235"><ele>526.0</ele><time>2026-04-18T13:07:08.986Z</time></trkpt><trkpt lat="43.051245" lon="12.7233667"><ele>529.0</ele><time>2026-04-18T13:07:09.986Z</time></trkpt><trkpt lat="43.0512267" lon="12.7232283"><ele>532.0</ele><time>2026-04-18T13:07:10.986Z</time></trkpt><trkpt lat="43.051205" lon="12.7230883"><ele>535.0</ele><time>2026-04-18T13:07:11.986Z</time></trkpt><trkpt lat="43.0511933" lon="12.722945"><ele>538.0</ele><time>2026-04-18T13:07:12.986Z</time></trkpt><trkpt lat="43.051185" lon="12.722805"><ele>541.0</ele><time>2026-04-18T13:07:13.986Z</time></trkpt><trkpt lat="43.051185" lon="12.7226717"><ele>544.0</ele><time>2026-04-18T13:07:14.986Z</time></trkpt><trkpt lat="43.0511983" lon="12.7225233"><ele>547.0</ele><time>2026-04-18T13:07:15.986Z</time></trkpt><trkpt lat="43.0512217" lon="12.722385"><ele>550.0</ele><time>2026-04-18T13:07:16.986Z</time></trkpt><trkpt lat="43.0512517" lon="12.722265"><ele>553.0</ele><time>2026-04-18T13:07:17.986Z</time></trkpt><trkpt lat="43.0512733" lon="12.722145"><ele>553.0</ele><time>2026-04-18T13:07:18.986Z</time></trkpt><trkpt lat="43.051275" lon="12.7220233"><ele>553.0</ele><time>2026-04-18T13:07:19.986Z</time></trkpt><trkpt lat="43.0512633" lon="12.7218917"><ele>553.0</ele><time>2026-04-18T13:07:20.986Z</time></trkpt><trkpt lat="43.0512383" lon="12.7217533"><ele>553.0</ele><time>2026-04-18T13:07:21.986Z</time></trkpt><trkpt lat="43.0512167" lon="12.721605"><ele>553.0</ele><time>2026-04-18T13:07:22.986Z</time></trkpt><trkpt lat="43.051205" lon="12.7214567"><ele>553.6</ele><time>2026-04-18T13:07:23.986Z</time></trkpt><trkpt lat="43.0511983" lon="12.721305"><ele>554.1999999999999</ele><time>2026-04-18T13:07:24.986Z</time></trkpt><trkpt lat="43.0512017" lon="12.7211533"><ele>554.8</ele><time>2026-04-18T13:07:25.986Z</time></trkpt><trkpt lat="43.0512117" lon="12.7210083"><ele>555.4</ele><time>2026-04-18T13:07:26.986Z</time></trkpt><trkpt lat="43.0512233" lon="12.720865"><ele>556.0</ele><time>2026-04-18T13:07:27.986Z</time></trkpt><trkpt lat="43.0512417" lon="12.7207333"><ele>556.0</ele><time>2026-04-18T13:07:28.986Z</time></trkpt><trkpt lat="43.0512617" lon="12.7205983"><ele>556.0</ele><time>2026-04-18T13:07:29.986Z</time></trkpt><trkpt lat="43.051265" lon="12.7204767"><ele>556.0</ele><time>2026-04-18T13:07:30.986Z</time></trkpt><trkpt lat="43.05125" lon="12.7203867"><ele>556.0</ele><time>2026-04-18T13:07:31.986Z</time></trkpt><trkpt lat="43.0511683" lon="12.72026"><ele>556.0</ele><time>2026-04-18T13:07:33.986Z</time></trkpt><trkpt lat="43.0510933" lon="12.7202417"><ele>556.0</ele><time>2026-04-18T13:07:34.986Z</time></trkpt><trkpt lat="43.05101" lon="12.7202367"><ele>556.0</ele><time>2026-04-18T13:07:35.986Z</time></trkpt><trkpt lat="43.0509183" lon="12.7202283"><ele>556.0</ele><time>2026-04-18T13:07:36.986Z</time></trkpt><trkpt lat="43.0508217" lon="12.720225"><ele>556.0</ele><time>2026-04-18T13:07:37.986Z</time></trkpt><trkpt lat="43.0507133" lon="12.72023"><ele>556.0</ele><time>2026-04-18T13:07:38.986Z</time></trkpt><trkpt lat="43.0506033" lon="12.7202383"><ele>558.8</ele><time>2026-04-18T13:07:39.986Z</time></trkpt><trkpt lat="43.0505" lon="12.72025"><ele>561.6</ele><time>2026-04-18T13:07:40.986Z</time></trkpt><trkpt lat="43.0503917" lon="12.7202633"><ele>564.4</ele><time>2026-04-18T13:07:41.986Z</time></trkpt><trkpt lat="43.0502817" lon="12.720275"><ele>567.2</ele><time>2026-04-18T13:07:42.986Z</time></trkpt><trkpt lat="43.050175" lon="12.7202967"><ele>570.0</ele><time>2026-04-18T13:07:43.986Z</time></trkpt><trkpt lat="43.050065" lon="12.7203233"><ele>570.0</ele><time>2026-04-18T13:07:44.986Z</time></trkpt><trkpt lat="43.0499667" lon="12.720355"><ele>570.0</ele><time>2026-04-18T13:07:45.986Z</time></trkpt><trkpt lat="43.0498667" lon="12.7203933"><ele>570.0</ele><time>2026-04-18T13:07:46.986Z</time></trkpt><trkpt lat="43.0497717" lon="12.7204583"><ele>570.0</ele><time>2026-04-18T13:07:47.986Z</time></trkpt><trkpt lat="43.04968" lon="12.72053"><ele>570.0</ele><time>2026-04-18T13:07:48.986Z</time></trkpt><trkpt lat="43.0495917" lon="12.7206067"><ele>569.4</ele><time>2026-04-18T13:07:49.986Z</time></trkpt><trkpt lat="43.049495" lon="12.7206867"><ele>568.8</ele><time>2026-04-18T13:07:50.986Z</time></trkpt><trkpt lat="43.0494117" lon="12.7207717"><ele>568.2</ele><time>2026-04-18T13:07:51.986Z</time></trkpt><trkpt lat="43.0493217" lon="12.7208483"><ele>567.6</ele><time>2026-04-18T13:07:52.986Z</time></trkpt><trkpt lat="43.049245" lon="12.7209117"><ele>567.0</ele><time>2026-04-18T13:07:53.986Z</time></trkpt><trkpt lat="43.04917" lon="12.72097"><ele>567.0</ele><time>2026-04-18T13:07:54.986Z</time></trkpt><trkpt lat="43.0491067" lon="12.7210183"><ele>567.0</ele><time>2026-04-18T13:07:55.986Z</time></trkpt><trkpt lat="43.049035" lon="12.7210433"><ele>567.0</ele><time>2026-04-18T13:07:56.986Z</time></trkpt><trkpt lat="43.048965" lon="12.7210717"><ele>567.0</ele><time>2026-04-18T13:07:57.986Z</time></trkpt><trkpt lat="43.04889" lon="12.7210817"><ele>567.0</ele><time>2026-04-18T13:07:58.986Z</time></trkpt><trkpt lat="43.0488167" lon="12.7210733"><ele>567.0</ele><time>2026-04-18T13:07:59.986Z</time></trkpt><trkpt lat="43.048735" lon="12.7210583"><ele>568.3333333333334</ele><time>2026-04-18T13:08:00.986Z</time></trkpt><trkpt lat="43.048655" lon="12.7210383"><ele>569.6666666666666</ele><time>2026-04-18T13:08:01.986Z</time></trkpt><trkpt lat="43.0485717" lon="12.7210017"><ele>571.0</ele><time>2026-04-18T13:08:02.986Z</time></trkpt><trkpt lat="43.0484883" lon="12.7209617"><ele>572.3333333333333</ele><time>2026-04-18T13:08:03.986Z</time></trkpt><trkpt lat="43.0484083" lon="12.7209017"><ele>573.6666666666666</ele><time>2026-04-18T13:08:04.986Z</time></trkpt><trkpt lat="43.04833" lon="12.7208167"><ele>575.0</ele><time>2026-04-18T13:08:05.986Z</time></trkpt><trkpt lat="43.0482633" lon="12.720725"><ele>576.8</ele><time>2026-04-18T13:08:06.986Z</time></trkpt><trkpt lat="43.0481983" lon="12.7206317"><ele>578.6</ele><time>2026-04-18T13:08:07.986Z</time></trkpt><trkpt lat="43.048125" lon="12.7205583"><ele>580.4</ele><time>2026-04-18T13:08:08.986Z</time></trkpt><trkpt lat="43.04804" lon="12.7205267"><ele>582.2</ele><time>2026-04-18T13:08:09.986Z</time></trkpt><trkpt lat="43.0479367" lon="12.72052"><ele>584.0</ele><time>2026-04-18T13:08:10.986Z</time></trkpt><trkpt lat="43.0478167" lon="12.7205233"><ele>584.0</ele><time>2026-04-18T13:08:11.986Z</time></trkpt><trkpt lat="43.0476983" lon="12.72052"><ele>584.0</ele><time>2026-04-18T13:08:12.986Z</time></trkpt><trkpt lat="43.047585" lon="12.7205033"><ele>584.0</ele><time>2026-04-18T13:08:13.986Z</time></trkpt><trkpt lat="43.0474817" lon="12.7204733"><ele>584.0</ele><time>2026-04-18T13:08:14.986Z</time></trkpt><trkpt lat="43.0473833" lon="12.72043"><ele>584.0</ele><time>2026-04-18T13:08:15.986Z</time></trkpt><trkpt lat="43.04729" lon="12.7203667"><ele>585.8</ele><time>2026-04-18T13:08:16.986Z</time></trkpt><trkpt lat="43.047205" lon="12.72029"><ele>587.5999999999999</ele><time>2026-04-18T13:08:17.986Z</time></trkpt><trkpt lat="43.047135" lon="12.7202133"><ele>589.4</ele><time>2026-04-18T13:08:18.986Z</time></trkpt><trkpt lat="43.04706" lon="12.7201633"><ele>591.1999999999999</ele><time>2026-04-18T13:08:19.986Z</time></trkpt><trkpt lat="43.0469733" lon="12.72013"><ele>593.0</ele><time>2026-04-18T13:08:20.986Z</time></trkpt><trkpt lat="43.04688" lon="12.7201117"><ele>593.0</ele><time>2026-04-18T13:08:21.986Z</time></trkpt><trkpt lat="43.0467767" lon="12.720085"><ele>593.0</ele><time>2026-04-18T13:08:22.986Z</time></trkpt><trkpt lat="43.04667" lon="12.72005"><ele>593.0</ele><time>2026-04-18T13:08:23.986Z</time></trkpt><trkpt lat="43.046565" lon="12.7200117"><ele>593.0</ele><time>2026-04-18T13:08:24.986Z</time></trkpt><trkpt lat="43.0464733" lon="12.71997"><ele>593.0</ele><time>2026-04-18T13:08:25.986Z</time></trkpt><trkpt lat="43.04639" lon="12.7199383"><ele>594.6</ele><time>2026-04-18T13:08:26.986Z</time></trkpt><trkpt lat="43.0463067" lon="12.719925"><ele>596.1999999999999</ele><time>2026-04-18T13:08:27.986Z</time></trkpt><trkpt lat="43.046215" lon="12.7199317"><ele>597.8</ele><time>2026-04-18T13:08:28.986Z</time></trkpt><trkpt lat="43.0461233" lon="12.7199383"><ele>599.4</ele><time>2026-04-18T13:08:29.986Z</time></trkpt><trkpt lat="43.04603" lon="12.719925"><ele>601.0</ele><time>2026-04-18T13:08:30.986Z</time></trkpt><trkpt lat="43.0459267" lon="12.7198967"><ele>601.0</ele><time>2026-04-18T13:08:31.986Z</time></trkpt><trkpt lat="43.0458283" lon="12.7198667"><ele>601.0</ele><time>2026-04-18T13:08:32.986Z</time></trkpt><trkpt lat="43.0457267" lon="12.7198217"><ele>601.0</ele><time>2026-04-18T13:08:33.986Z</time></trkpt><trkpt lat="43.0456383" lon="12.7197733"><ele>601.0</ele><time>2026-04-18T13:08:34.986Z</time></trkpt><trkpt lat="43.04555" lon="12.7197267"><ele>601.0</ele><time>2026-04-18T13:08:35.986Z</time></trkpt><trkpt lat="43.0454633" lon="12.719675"><ele>599.2</ele><time>2026-04-18T13:08:36.986Z</time></trkpt><trkpt lat="43.0453817" lon="12.71962"><ele>597.4000000000001</ele><time>2026-04-18T13:08:37.986Z</time></trkpt><trkpt lat="43.045295" lon="12.7195533"><ele>595.6</ele><time>2026-04-18T13:08:38.986Z</time></trkpt><trkpt lat="43.0452083" lon="12.7194833"><ele>593.8000000000001</ele><time>2026-04-18T13:08:39.986Z</time></trkpt><trkpt lat="43.045125" lon="12.7194283"><ele>592.0</ele><time>2026-04-18T13:08:40.986Z</time></trkpt><trkpt lat="43.0450467" lon="12.7193667"><ele>592.0</ele><time>2026-04-18T13:08:41.986Z</time></trkpt><trkpt lat="43.044975" lon="12.719285"><ele>592.0</ele><time>2026-04-18T13:08:42.986Z</time></trkpt><trkpt lat="43.0449083" lon="12.7191933"><ele>592.0</ele><time>2026-04-18T13:08:43.986Z</time></trkpt><trkpt lat="43.04485" lon="12.7190867"><ele>592.0</ele><time>2026-04-18T13:08:44.986Z</time></trkpt><trkpt lat="43.0447867" lon="12.7189733"><ele>592.0</ele><time>2026-04-18T13:08:45.986Z</time></trkpt><trkpt lat="43.0447333" lon="12.71886"><ele>591.5</ele><time>2026-04-18T13:08:46.986Z</time></trkpt><trkpt lat="43.0446783" lon="12.7187617"><ele>591.0</ele><time>2026-04-18T13:08:47.986Z</time></trkpt><trkpt lat="43.0446183" lon="12.718675"><ele>590.5</ele><time>2026-04-18T13:08:48.986Z</time></trkpt><trkpt lat="43.044565" lon="12.7185967"><ele>590.0</ele><time>2026-04-18T13:08:49.986Z</time></trkpt><trkpt lat="43.0445083" lon="12.7185283"><ele>589.5</ele><time>2026-04-18T13:08:50.986Z</time></trkpt><trkpt lat="43.044445" lon="12.7184883"><ele>589.0</ele><time>2026-04-18T13:08:51.986Z</time></trkpt><trkpt lat="43.0443583" lon="12.7184733"><ele>589.0</ele><time>2026-04-18T13:08:52.986Z</time></trkpt><trkpt lat="43.0442567" lon="12.7184783"><ele>589.0</ele><time>2026-04-18T13:08:53.986Z</time></trkpt><trkpt lat="43.0441433" lon="12.718495"><ele>589.0</ele><time>2026-04-18T13:08:54.986Z</time></trkpt><trkpt lat="43.0440283" lon="12.7185033"><ele>589.0</ele><time>2026-04-18T13:08:55.986Z</time></trkpt><trkpt lat="43.043915" lon="12.718495"><ele>589.0</ele><time>2026-04-18T13:08:56.986Z</time></trkpt><trkpt lat="43.0438033" lon="12.7184717"><ele>588.2</ele><time>2026-04-18T13:08:57.986Z</time></trkpt><trkpt lat="43.0437033" lon="12.718435"><ele>587.4</ele><time>2026-04-18T13:08:58.986Z</time></trkpt><trkpt lat="43.0436117" lon="12.718405"><ele>586.6</ele><time>2026-04-18T13:08:59.986Z</time></trkpt><trkpt lat="43.0435233" lon="12.7183817"><ele>585.8</ele><time>2026-04-18T13:09:00.986Z</time></trkpt><trkpt lat="43.04344" lon="12.71839"><ele>585.0</ele><time>2026-04-18T13:09:01.986Z</time></trkpt><trkpt lat="43.043355" lon="12.7184217"><ele>586.0</ele><time>2026-04-18T13:09:02.986Z</time></trkpt><trkpt lat="43.0432733" lon="12.7184767"><ele>587.0</ele><time>2026-04-18T13:09:03.986Z</time></trkpt><trkpt lat="43.04319" lon="12.7185483"><ele>588.0</ele><time>2026-04-18T13:09:04.986Z</time></trkpt><trkpt lat="43.04311" lon="12.7186167"><ele>589.0</ele><time>2026-04-18T13:09:05.986Z</time></trkpt><trkpt lat="43.0430283" lon="12.718685"><ele>590.0</ele><time>2026-04-18T13:09:06.986Z</time></trkpt><trkpt lat="43.04295" lon="12.7187433"><ele>590.0</ele><time>2026-04-18T13:09:07.986Z</time></trkpt><trkpt lat="43.0428717" lon="12.7188183"><ele>590.0</ele><time>2026-04-18T13:09:08.986Z</time></trkpt><trkpt lat="43.0428033" lon="12.7189067"><ele>590.0</ele><time>2026-04-18T13:09:09.986Z</time></trkpt><trkpt lat="43.04276" lon="12.719015"><ele>590.0</ele><time>2026-04-18T13:09:10.986Z</time></trkpt><trkpt lat="43.0427183" lon="12.7191367"><ele>590.0</ele><time>2026-04-18T13:09:11.986Z</time></trkpt><trkpt lat="43.0426767" lon="12.719255"><ele>590.0</ele><time>2026-04-18T13:09:12.986Z</time></trkpt><trkpt lat="43.042635" lon="12.7193633"><ele>590.0</ele><time>2026-04-18T13:09:13.986Z</time></trkpt><trkpt lat="43.0425833" lon="12.719455"><ele>590.0</ele><time>2026-04-18T13:09:14.986Z</time></trkpt><trkpt lat="43.0425283" lon="12.719535"><ele>590.0</ele><time>2026-04-18T13:09:15.986Z</time></trkpt><trkpt lat="43.04247" lon="12.719605"><ele>590.0</ele><time>2026-04-18T13:09:16.986Z</time></trkpt><trkpt lat="43.042415" lon="12.7196583"><ele>590.0</ele><time>2026-04-18T13:09:17.986Z</time></trkpt><trkpt lat="43.04234" lon="12.7196767"><ele>593.1666666666666</ele><time>2026-04-18T13:09:18.986Z</time></trkpt><trkpt lat="43.0422483" lon="12.7196667"><ele>596.3333333333333</ele><time>2026-04-18T13:09:19.986Z</time></trkpt><trkpt lat="43.04216" lon="12.71966"><ele>599.5</ele><time>2026-04-18T13:09:20.986Z</time></trkpt><trkpt lat="43.0420683" lon="12.719655"><ele>602.6666666666666</ele><time>2026-04-18T13:09:21.986Z</time></trkpt><trkpt lat="43.041975" lon="12.7196617"><ele>605.8333333333334</ele><time>2026-04-18T13:09:22.986Z</time></trkpt><trkpt lat="43.0418933" lon="12.7196717"><ele>609.0</ele><time>2026-04-18T13:09:23.986Z</time></trkpt><trkpt lat="43.04182" lon="12.7196917"><ele>609.0</ele><time>2026-04-18T13:09:24.986Z</time></trkpt><trkpt lat="43.0417" lon="12.719665"><ele>609.0</ele><time>2026-04-18T13:09:26.986Z</time></trkpt><trkpt lat="43.0416333" lon="12.7195383"><ele>609.0</ele><time>2026-04-18T13:09:28.986Z</time></trkpt><trkpt lat="43.041635" lon="12.719445"><ele>609.0</ele><time>2026-04-18T13:09:29.986Z</time></trkpt><trkpt lat="43.0416467" lon="12.7193467"><ele>609.0</ele><time>2026-04-18T13:09:30.986Z</time></trkpt><trkpt lat="43.0416517" lon="12.71922"><ele>607.6</ele><time>2026-04-18T13:09:31.986Z</time></trkpt><trkpt lat="43.041655" lon="12.7190767"><ele>606.2</ele><time>2026-04-18T13:09:32.986Z</time></trkpt><trkpt lat="43.04166" lon="12.7189233"><ele>604.8000000000001</ele><time>2026-04-18T13:09:33.986Z</time></trkpt><trkpt lat="43.041675" lon="12.7187867"><ele>603.4</ele><time>2026-04-18T13:09:34.986Z</time></trkpt><trkpt lat="43.0417083" lon="12.71867"><ele>602.0</ele><time>2026-04-18T13:09:35.986Z</time></trkpt><trkpt lat="43.0417467" lon="12.7185767"><ele>602.8333333333333</ele><time>2026-04-18T13:09:36.986Z</time></trkpt><trkpt lat="43.04178" lon="12.7184767"><ele>603.6666666666666</ele><time>2026-04-18T13:09:37.986Z</time></trkpt><trkpt lat="43.0418183" lon="12.7183683"><ele>604.5</ele><time>2026-04-18T13:09:38.986Z</time></trkpt><trkpt lat="43.0418417" lon="12.7182483"><ele>605.3333333333334</ele><time>2026-04-18T13:09:39.986Z</time></trkpt><trkpt lat="43.0418467" lon="12.71813"><ele>606.1666666666667</ele><time>2026-04-18T13:09:40.986Z</time></trkpt><trkpt lat="43.041825" lon="12.7180367"><ele>607.0</ele><time>2026-04-18T13:09:41.986Z</time></trkpt><trkpt lat="43.0417783" lon="12.7179533"><ele>607.0</ele><time>2026-04-18T13:09:42.986Z</time></trkpt><trkpt lat="43.0417217" lon="12.7178833"><ele>607.0</ele><time>2026-04-18T13:09:43.986Z</time></trkpt><trkpt lat="43.0416383" lon="12.7178283"><ele>607.0</ele><time>2026-04-18T13:09:44.986Z</time></trkpt><trkpt lat="43.0415433" lon="12.7177967"><ele>607.0</ele><time>2026-04-18T13:09:45.986Z</time></trkpt><trkpt lat="43.04144" lon="12.7178033"><ele>607.0</ele><time>2026-04-18T13:09:46.986Z</time></trkpt><trkpt lat="43.041345" lon="12.7178317"><ele>611.4</ele><time>2026-04-18T13:09:47.986Z</time></trkpt><trkpt lat="43.04125" lon="12.7178683"><ele>615.8000000000001</ele><time>2026-04-18T13:09:48.986Z</time></trkpt><trkpt lat="43.041145" lon="12.7179017"><ele>620.2</ele><time>2026-04-18T13:09:49.986Z</time></trkpt><trkpt lat="43.0410317" lon="12.7179183"><ele>624.6</ele><time>2026-04-18T13:09:50.986Z</time></trkpt><trkpt lat="43.0409267" lon="12.71791"><ele>629.0</ele><time>2026-04-18T13:09:51.986Z</time></trkpt><trkpt lat="43.040825" lon="12.7178767"><ele>632.6</ele><time>2026-04-18T13:09:52.986Z</time></trkpt><trkpt lat="43.0407367" lon="12.7178267"><ele>636.2</ele><time>2026-04-18T13:09:53.986Z</time></trkpt><trkpt lat="43.0406567" lon="12.7177883"><ele>639.8000000000001</ele><time>2026-04-18T13:09:54.986Z</time></trkpt><trkpt lat="43.0405733" lon="12.7177667"><ele>643.4</ele><time>2026-04-18T13:09:55.986Z</time></trkpt><trkpt lat="43.0404783" lon="12.717765"><ele>647.0</ele><time>2026-04-18T13:09:56.986Z</time></trkpt><trkpt lat="43.040385" lon="12.7177567"><ele>646.8</ele><time>2026-04-18T13:09:57.986Z</time></trkpt><trkpt lat="43.0402883" lon="12.717715"><ele>646.6</ele><time>2026-04-18T13:09:58.986Z</time></trkpt><trkpt lat="43.0401917" lon="12.717645"><ele>646.4</ele><time>2026-04-18T13:09:59.986Z</time></trkpt><trkpt lat="43.0401133" lon="12.7175883"><ele>646.1999999999999</ele><time>2026-04-18T13:10:00.986Z</time></trkpt><trkpt lat="43.0400317" lon="12.7175317"><ele>646.0</ele><time>2026-04-18T13:10:01.986Z</time></trkpt><trkpt lat="43.0399367" lon="12.71749"><ele>646.0</ele><time>2026-04-18T13:10:02.986Z</time></trkpt><trkpt lat="43.039835" lon="12.7174583"><ele>646.0</ele><time>2026-04-18T13:10:03.986Z</time></trkpt><trkpt lat="43.03974" lon="12.7174017"><ele>646.0</ele><time>2026-04-18T13:10:04.986Z</time></trkpt><trkpt lat="43.0396517" lon="12.71732"><ele>646.0</ele><time>2026-04-18T13:10:05.986Z</time></trkpt><trkpt lat="43.0395617" lon="12.7172183"><ele>646.0</ele><time>2026-04-18T13:10:06.986Z</time></trkpt><trkpt lat="43.0394783" lon="12.71711"><ele>646.0</ele><time>2026-04-18T13:10:07.986Z</time></trkpt><trkpt lat="43.0394017" lon="12.7169933"><ele>646.0</ele><time>2026-04-18T13:10:08.986Z</time></trkpt><trkpt lat="43.039325" lon="12.716885"><ele>646.0</ele><time>2026-04-18T13:10:09.986Z</time></trkpt><trkpt lat="43.0392433" lon="12.7167817"><ele>646.0</ele><time>2026-04-18T13:10:10.986Z</time></trkpt><trkpt lat="43.0391583" lon="12.7166933"><ele>646.0</ele><time>2026-04-18T13:10:11.986Z</time></trkpt><trkpt lat="43.0390767" lon="12.7166167"><ele>641.4</ele><time>2026-04-18T13:10:12.986Z</time></trkpt><trkpt lat="43.039" lon="12.7165517"><ele>636.8</ele><time>2026-04-18T13:10:13.986Z</time></trkpt><trkpt lat="43.03892" lon="12.71649"><ele>632.1999999999999</ele><time>2026-04-18T13:10:14.986Z</time></trkpt><trkpt lat="43.03883" lon="12.7164417"><ele>627.5999999999999</ele><time>2026-04-18T13:10:15.986Z</time></trkpt><trkpt lat="43.0387383" lon="12.7164117"><ele>623.0</ele><time>2026-04-18T13:10:16.986Z</time></trkpt><trkpt lat="43.0386517" lon="12.7163633"><ele>623.0</ele><time>2026-04-18T13:10:17.986Z</time></trkpt><trkpt lat="43.03858" lon="12.7162917"><ele>623.0</ele><time>2026-04-18T13:10:18.986Z</time></trkpt><trkpt lat="43.0385267" lon="12.7161883"><ele>623.0</ele><time>2026-04-18T13:10:19.986Z</time></trkpt><trkpt lat="43.038485" lon="12.7160667"><ele>623.0</ele><time>2026-04-18T13:10:20.986Z</time></trkpt><trkpt lat="43.038445" lon="12.7159317"><ele>623.0</ele><time>2026-04-18T13:10:21.986Z</time></trkpt><trkpt lat="43.0384167" lon="12.7157967"><ele>622.1666666666666</ele><time>2026-04-18T13:10:22.986Z</time></trkpt><trkpt lat="43.0383883" lon="12.7156717"><ele>621.3333333333333</ele><time>2026-04-18T13:10:23.986Z</time></trkpt><trkpt lat="43.0383633" lon="12.7155533"><ele>620.5</ele><time>2026-04-18T13:10:24.986Z</time></trkpt><trkpt lat="43.03834" lon="12.7154317"><ele>619.6666666666666</ele><time>2026-04-18T13:10:25.986Z</time></trkpt><trkpt lat="43.0383267" lon="12.7153183"><ele>618.8333333333334</ele><time>2026-04-18T13:10:26.986Z</time></trkpt><trkpt lat="43.0383333" lon="12.7152083"><ele>618.0</ele><time>2026-04-18T13:10:27.986Z</time></trkpt><trkpt lat="43.0383667" lon="12.7151067"><ele>618.0</ele><time>2026-04-18T13:10:28.986Z</time></trkpt><trkpt lat="43.0384233" lon="12.7150067"><ele>618.0</ele><time>2026-04-18T13:10:29.986Z</time></trkpt><trkpt lat="43.0384867" lon="12.7149"><ele>618.0</ele><time>2026-04-18T13:10:30.986Z</time></trkpt><trkpt lat="43.0385633" lon="12.7147967"><ele>618.0</ele><time>2026-04-18T13:10:31.986Z</time></trkpt><trkpt lat="43.03865" lon="12.7147183"><ele>618.0</ele><time>2026-04-18T13:10:32.986Z</time></trkpt><trkpt lat="43.0387383" lon="12.714645"><ele>618.0</ele><time>2026-04-18T13:10:33.986Z</time></trkpt><trkpt lat="43.0388233" lon="12.714575"><ele>618.0</ele><time>2026-04-18T13:10:34.985Z</time></trkpt><trkpt lat="43.0388983" lon="12.7144867"><ele>618.0</ele><time>2026-04-18T13:10:35.985Z</time></trkpt><trkpt lat="43.0389417" lon="12.7143867"><ele>618.0</ele><time>2026-04-18T13:10:36.985Z</time></trkpt><trkpt lat="43.03896" lon="12.714275"><ele>618.0</ele><time>2026-04-18T13:10:37.985Z</time></trkpt><trkpt lat="43.038955" lon="12.7141583"><ele>621.8</ele><time>2026-04-18T13:10:38.985Z</time></trkpt><trkpt lat="43.0389283" lon="12.7140417"><ele>625.5999999999999</ele><time>2026-04-18T13:10:39.985Z</time></trkpt><trkpt lat="43.038905" lon="12.7139117"><ele>629.4000000000001</ele><time>2026-04-18T13:10:40.985Z</time></trkpt><trkpt lat="43.0388967" lon="12.7137617"><ele>633.2</ele><time>2026-04-18T13:10:41.985Z</time></trkpt><trkpt lat="43.0388967" lon="12.7136183"><ele>637.0</ele><time>2026-04-18T13:10:42.985Z</time></trkpt><trkpt lat="43.03891" lon="12.7134767"><ele>637.5</ele><time>2026-04-18T13:10:43.985Z</time></trkpt><trkpt lat="43.0389167" lon="12.71335"><ele>638.0</ele><time>2026-04-18T13:10:44.985Z</time></trkpt><trkpt lat="43.0389217" lon="12.7132333"><ele>638.5</ele><time>2026-04-18T13:10:45.985Z</time></trkpt><trkpt lat="43.0389283" lon="12.7131317"><ele>639.0</ele><time>2026-04-18T13:10:46.985Z</time></trkpt><trkpt lat="43.0389117" lon="12.7130283"><ele>639.5</ele><time>2026-04-18T13:10:47.985Z</time></trkpt><trkpt lat="43.03888" lon="12.71293"><ele>640.0</ele><time>2026-04-18T13:10:48.985Z</time></trkpt><trkpt lat="43.0388317" lon="12.712845"><ele>640.0</ele><time>2026-04-18T13:10:49.985Z</time></trkpt><trkpt lat="43.0387733" lon="12.7127783"><ele>640.0</ele><time>2026-04-18T13:10:50.985Z</time></trkpt><trkpt lat="43.0387183" lon="12.712695"><ele>640.0</ele><time>2026-04-18T13:10:51.985Z</time></trkpt><trkpt lat="43.0386933" lon="12.7126133"><ele>640.0</ele><time>2026-04-18T13:10:52.985Z</time></trkpt><trkpt lat="43.038725" lon="12.71247"><ele>640.0</ele><time>2026-04-18T13:10:54.985Z</time></trkpt><trkpt lat="43.03882" lon="12.7123667"><ele>639.8333333333334</ele><time>2026-04-18T13:10:56.985Z</time></trkpt><trkpt lat="43.03887" lon="12.71231"><ele>639.6666666666667</ele><time>2026-04-18T13:10:57.985Z</time></trkpt><trkpt lat="43.0389217" lon="12.71226"><ele>639.5</ele><time>2026-04-18T13:10:58.985Z</time></trkpt><trkpt lat="43.038985" lon="12.712175"><ele>639.3333333333334</ele><time>2026-04-18T13:11:00.985Z</time></trkpt><trkpt lat="43.038985" lon="12.7120483"><ele>639.1666666666666</ele><time>2026-04-18T13:11:03.985Z</time></trkpt><trkpt lat="43.0388683" lon="12.7119933"><ele>639.0</ele><time>2026-04-18T13:11:05.985Z</time></trkpt><trkpt lat="43.0388" lon="12.7119817"><ele>639.0</ele><time>2026-04-18T13:11:06.985Z</time></trkpt><trkpt lat="43.0387183" lon="12.711965"><ele>639.0</ele><time>2026-04-18T13:11:07.985Z</time></trkpt><trkpt lat="43.03861" lon="12.7119467"><ele>639.0</ele><time>2026-04-18T13:11:08.985Z</time></trkpt><trkpt lat="43.0385" lon="12.7119417"><ele>639.0</ele><time>2026-04-18T13:11:09.985Z</time></trkpt><trkpt lat="43.03839" lon="12.711935"><ele>639.0</ele><time>2026-04-18T13:11:10.985Z</time></trkpt><trkpt lat="43.038275" lon="12.7119367"><ele>637.6</ele><time>2026-04-18T13:11:11.985Z</time></trkpt><trkpt lat="43.0381617" lon="12.7119433"><ele>636.2</ele><time>2026-04-18T13:11:12.985Z</time></trkpt><trkpt lat="43.03806" lon="12.711945"><ele>634.8000000000001</ele><time>2026-04-18T13:11:13.985Z</time></trkpt><trkpt lat="43.0379633" lon="12.7119267"><ele>633.4</ele><time>2026-04-18T13:11:14.985Z</time></trkpt><trkpt lat="43.0378783" lon="12.7119033"><ele>632.0</ele><time>2026-04-18T13:11:15.985Z</time></trkpt><trkpt lat="43.0377983" lon="12.7118817"><ele>632.2</ele><time>2026-04-18T13:11:16.985Z</time></trkpt><trkpt lat="43.0377183" lon="12.71185"><ele>632.4000000000001</ele><time>2026-04-18T13:11:17.985Z</time></trkpt><trkpt lat="43.037645" lon="12.7117933"><ele>632.5999999999999</ele><time>2026-04-18T13:11:18.985Z</time></trkpt><trkpt lat="43.0375633" lon="12.7117217"><ele>632.8</ele><time>2026-04-18T13:11:19.985Z</time></trkpt><trkpt lat="43.03749" lon="12.7116267"><ele>633.0</ele><time>2026-04-18T13:11:20.985Z</time></trkpt><trkpt lat="43.037425" lon="12.7115167"><ele>633.0</ele><time>2026-04-18T13:11:21.985Z</time></trkpt><trkpt lat="43.037365" lon="12.7113983"><ele>633.0</ele><time>2026-04-18T13:11:22.985Z</time></trkpt><trkpt lat="43.03732" lon="12.7112733"><ele>633.0</ele><time>2026-04-18T13:11:23.985Z</time></trkpt><trkpt lat="43.0372917" lon="12.7111533"><ele>633.0</ele><time>2026-04-18T13:11:24.985Z</time></trkpt><trkpt lat="43.037275" lon="12.71104"><ele>633.0</ele><time>2026-04-18T13:11:25.985Z</time></trkpt><trkpt lat="43.0372633" lon="12.7109317"><ele>638.4</ele><time>2026-04-18T13:11:26.985Z</time></trkpt><trkpt lat="43.0372533" lon="12.7108067"><ele>643.8</ele><time>2026-04-18T13:11:27.985Z</time></trkpt><trkpt lat="43.0372533" lon="12.710695"><ele>649.2</ele><time>2026-04-18T13:11:28.985Z</time></trkpt><trkpt lat="43.03724" lon="12.7105933"><ele>654.6</ele><time>2026-04-18T13:11:29.985Z</time></trkpt><trkpt lat="43.0371583" lon="12.7105283"><ele>660.0</ele><time>2026-04-18T13:11:31.985Z</time></trkpt><trkpt lat="43.0370583" lon="12.71061"><ele>660.0</ele><time>2026-04-18T13:11:33.985Z</time></trkpt><trkpt lat="43.0370083" lon="12.7106933"><ele>660.0</ele><time>2026-04-18T13:11:34.985Z</time></trkpt><trkpt lat="43.03695" lon="12.7107783"><ele>660.0</ele><time>2026-04-18T13:11:35.985Z</time></trkpt><trkpt lat="43.036885" lon="12.7108483"><ele>660.0</ele><time>2026-04-18T13:11:36.985Z</time></trkpt><trkpt lat="43.0368167" lon="12.710905"><ele>660.0</ele><time>2026-04-18T13:11:37.985Z</time></trkpt><trkpt lat="43.0367483" lon="12.71096"><ele>660.0</ele><time>2026-04-18T13:11:38.985Z</time></trkpt><trkpt lat="43.0366767" lon="12.7110167"><ele>659.0000000000001</ele><time>2026-04-18T13:11:39.985Z</time></trkpt><trkpt lat="43.0366067" lon="12.7110667"><ele>658.0</ele><time>2026-04-18T13:11:40.985Z</time></trkpt><trkpt lat="43.036545" lon="12.711115"><ele>657.0</ele><time>2026-04-18T13:11:41.985Z</time></trkpt><trkpt lat="43.0364817" lon="12.7111583"><ele>656.0</ele><time>2026-04-18T13:11:42.985Z</time></trkpt><trkpt lat="43.0364217" lon="12.7112"><ele>655.0</ele><time>2026-04-18T13:11:43.985Z</time></trkpt><trkpt lat="43.0363583" lon="12.7112367"><ele>654.0000000000001</ele><time>2026-04-18T13:11:44.985Z</time></trkpt><trkpt lat="43.03629" lon="12.7112533"><ele>653.0</ele><time>2026-04-18T13:11:45.985Z</time></trkpt><trkpt lat="43.0362217" lon="12.7112667"><ele>648.6</ele><time>2026-04-18T13:11:46.985Z</time></trkpt><trkpt lat="43.0361483" lon="12.7112567"><ele>644.1999999999999</ele><time>2026-04-18T13:11:47.985Z</time></trkpt><trkpt lat="43.03606" lon="12.71123"><ele>639.8</ele><time>2026-04-18T13:11:48.985Z</time></trkpt><trkpt lat="43.0359583" lon="12.7111833"><ele>635.4</ele><time>2026-04-18T13:11:49.985Z</time></trkpt><trkpt lat="43.0358517" lon="12.7111417"><ele>631.0</ele><time>2026-04-18T13:11:50.985Z</time></trkpt><trkpt lat="43.03575" lon="12.7111017"><ele>630.8333333333334</ele><time>2026-04-18T13:11:51.985Z</time></trkpt><trkpt lat="43.0356517" lon="12.7110617"><ele>630.6666666666667</ele><time>2026-04-18T13:11:52.985Z</time></trkpt><trkpt lat="43.035565" lon="12.7110183"><ele>630.5</ele><time>2026-04-18T13:11:53.985Z</time></trkpt><trkpt lat="43.0354833" lon="12.710975"><ele>630.3333333333334</ele><time>2026-04-18T13:11:54.985Z</time></trkpt><trkpt lat="43.0354117" lon="12.7109167"><ele>630.1666666666666</ele><time>2026-04-18T13:11:55.985Z</time></trkpt><trkpt lat="43.035355" lon="12.7108483"><ele>630.0</ele><time>2026-04-18T13:11:56.985Z</time></trkpt><trkpt lat="43.035305" lon="12.7107633"><ele>630.0</ele><time>2026-04-18T13:11:57.985Z</time></trkpt><trkpt lat="43.0352783" lon="12.710665"><ele>630.0</ele><time>2026-04-18T13:11:58.985Z</time></trkpt><trkpt lat="43.03527" lon="12.7105483"><ele>630.0</ele><time>2026-04-18T13:11:59.985Z</time></trkpt><trkpt lat="43.0352683" lon="12.71043"><ele>630.0</ele><time>2026-04-18T13:12:00.985Z</time></trkpt><trkpt lat="43.0352467" lon="12.7103267"><ele>630.0</ele><time>2026-04-18T13:12:01.985Z</time></trkpt><trkpt lat="43.0352033" lon="12.7102317"><ele>630.0</ele><time>2026-04-18T13:12:02.985Z</time></trkpt><trkpt lat="43.035145" lon="12.710155"><ele>633.8</ele><time>2026-04-18T13:12:03.985Z</time></trkpt><trkpt lat="43.03508" lon="12.7101017"><ele>637.6</ele><time>2026-04-18T13:12:04.985Z</time></trkpt><trkpt lat="43.0350017" lon="12.7100883"><ele>641.4000000000001</ele><time>2026-04-18T13:12:05.985Z</time></trkpt><trkpt lat="43.0349117" lon="12.7100917"><ele>645.2</ele><time>2026-04-18T13:12:06.985Z</time></trkpt><trkpt lat="43.0348117" lon="12.7101167"><ele>649.0</ele><time>2026-04-18T13:12:07.985Z</time></trkpt><trkpt lat="43.034705" lon="12.7101267"><ele>649.0</ele><time>2026-04-18T13:12:08.985Z</time></trkpt><trkpt lat="43.0345867" lon="12.710115"><ele>649.0</ele><time>2026-04-18T13:12:09.985Z</time></trkpt><trkpt lat="43.034465" lon="12.7100817"><ele>649.0</ele><time>2026-04-18T13:12:10.985Z</time></trkpt><trkpt lat="43.03435" lon="12.7100333"><ele>649.0</ele><time>2026-04-18T13:12:11.985Z</time></trkpt><trkpt lat="43.03423" lon="12.7099783"><ele>646.75</ele><time>2026-04-18T13:12:12.985Z</time></trkpt><trkpt lat="43.0341083" lon="12.70993"><ele>644.5</ele><time>2026-04-18T13:12:13.985Z</time></trkpt><trkpt lat="43.03399" lon="12.709895"><ele>642.25</ele><time>2026-04-18T13:12:14.985Z</time></trkpt><trkpt lat="43.03387" lon="12.7098667"><ele>640.0</ele><time>2026-04-18T13:12:15.985Z</time></trkpt><trkpt lat="43.0337533" lon="12.70983"><ele>640.0</ele><time>2026-04-18T13:12:16.985Z</time></trkpt><trkpt lat="43.0336383" lon="12.7097767"><ele>640.0</ele><time>2026-04-18T13:12:17.985Z</time></trkpt><trkpt lat="43.0335183" lon="12.7097233"><ele>640.0</ele><time>2026-04-18T13:12:18.985Z</time></trkpt><trkpt lat="43.0334017" lon="12.7096767"><ele>640.0</ele><time>2026-04-18T13:12:19.985Z</time></trkpt><trkpt lat="43.0332883" lon="12.7096283"><ele>637.5</ele><time>2026-04-18T13:12:20.985Z</time></trkpt><trkpt lat="43.0331783" lon="12.7095733"><ele>635.0</ele><time>2026-04-18T13:12:21.985Z</time></trkpt><trkpt lat="43.033065" lon="12.7095167"><ele>632.5</ele><time>2026-04-18T13:12:22.985Z</time></trkpt><trkpt lat="43.03295" lon="12.7094783"><ele>630.0</ele><time>2026-04-18T13:12:23.985Z</time></trkpt><trkpt lat="43.0328317" lon="12.7094433"><ele>635.0</ele><time>2026-04-18T13:12:24.985Z</time></trkpt><trkpt lat="43.0327217" lon="12.7094017"><ele>640.0</ele><time>2026-04-18T13:12:25.985Z</time></trkpt><trkpt lat="43.03261" lon="12.70936"><ele>645.0</ele><time>2026-04-18T13:12:26.985Z</time></trkpt><trkpt lat="43.0324867" lon="12.7093183"><ele>650.0</ele><time>2026-04-18T13:12:27.985Z</time></trkpt><trkpt lat="43.032365" lon="12.7092717"><ele>650.0</ele><time>2026-04-18T13:12:28.985Z</time></trkpt><trkpt lat="43.0322467" lon="12.7092183"><ele>650.0</ele><time>2026-04-18T13:12:29.985Z</time></trkpt><trkpt lat="43.0321367" lon="12.709165"><ele>650.0</ele><time>2026-04-18T13:12:30.985Z</time></trkpt><trkpt lat="43.0320267" lon="12.7091167"><ele>650.0</ele><time>2026-04-18T13:12:31.985Z</time></trkpt><trkpt lat="43.03191" lon="12.7090667"><ele>650.0</ele><time>2026-04-18T13:12:32.985Z</time></trkpt><trkpt lat="43.031795" lon="12.7090067"><ele>650.0</ele><time>2026-04-18T13:12:33.985Z</time></trkpt><trkpt lat="43.0316783" lon="12.708945"><ele>650.0</ele><time>2026-04-18T13:12:34.985Z</time></trkpt><trkpt lat="43.0315583" lon="12.7088733"><ele>650.0</ele><time>2026-04-18T13:12:35.985Z</time></trkpt><trkpt lat="43.03144" lon="12.7088167"><ele>646.5</ele><time>2026-04-18T13:12:36.985Z</time></trkpt><trkpt lat="43.031325" lon="12.708755"><ele>643.0</ele><time>2026-04-18T13:12:37.985Z</time></trkpt><trkpt lat="43.0312117" lon="12.708695"><ele>639.5</ele><time>2026-04-18T13:12:38.985Z</time></trkpt><trkpt lat="43.0311" lon="12.7086433"><ele>636.0</ele><time>2026-04-18T13:12:39.985Z</time></trkpt><trkpt lat="43.0309867" lon="12.7085817"><ele>638.0</ele><time>2026-04-18T13:12:40.985Z</time></trkpt><trkpt lat="43.0308717" lon="12.70852"><ele>640.0</ele><time>2026-04-18T13:12:41.985Z</time></trkpt><trkpt lat="43.0307633" lon="12.7084617"><ele>642.0</ele><time>2026-04-18T13:12:42.985Z</time></trkpt><trkpt lat="43.0306567" lon="12.7084117"><ele>644.0</ele><time>2026-04-18T13:12:43.985Z</time></trkpt><trkpt lat="43.0305617" lon="12.7083567"><ele>644.0</ele><time>2026-04-18T13:12:44.985Z</time></trkpt><trkpt lat="43.030475" lon="12.708295"><ele>644.0</ele><time>2026-04-18T13:12:45.985Z</time></trkpt><trkpt lat="43.03039" lon="12.70822"><ele>644.0</ele><time>2026-04-18T13:12:46.985Z</time></trkpt><trkpt lat="43.0303067" lon="12.7081283"><ele>644.0</ele><time>2026-04-18T13:12:47.985Z</time></trkpt><trkpt lat="43.0302283" lon="12.7080533"><ele>644.0</ele><time>2026-04-18T13:12:48.985Z</time></trkpt><trkpt lat="43.030145" lon="12.7079633"><ele>644.0</ele><time>2026-04-18T13:12:49.985Z</time></trkpt><trkpt lat="43.0300567" lon="12.7078817"><ele>644.0</ele><time>2026-04-18T13:12:50.985Z</time></trkpt><trkpt lat="43.0299683" lon="12.7078183"><ele>644.0</ele><time>2026-04-18T13:12:51.985Z</time></trkpt><trkpt lat="43.0298783" lon="12.707755"><ele>644.0</ele><time>2026-04-18T13:12:52.985Z</time></trkpt><trkpt lat="43.0297867" lon="12.7076867"><ele>644.0</ele><time>2026-04-18T13:12:53.985Z</time></trkpt><trkpt lat="43.029695" lon="12.707615"><ele>647.0</ele><time>2026-04-18T13:12:54.985Z</time></trkpt><trkpt lat="43.0295917" lon="12.7075433"><ele>650.0</ele><time>2026-04-18T13:12:55.985Z</time></trkpt><trkpt lat="43.0294817" lon="12.7074667"><ele>653.0</ele><time>2026-04-18T13:12:56.985Z</time></trkpt><trkpt lat="43.02937" lon="12.7073983"><ele>656.0</ele><time>2026-04-18T13:12:57.985Z</time></trkpt><trkpt lat="43.0292683" lon="12.7073217"><ele>656.0</ele><time>2026-04-18T13:12:58.985Z</time></trkpt><trkpt lat="43.0291767" lon="12.70725"><ele>656.0</ele><time>2026-04-18T13:12:59.985Z</time></trkpt><trkpt lat="43.0290917" lon="12.7071883"><ele>656.0</ele><time>2026-04-18T13:13:00.985Z</time></trkpt><trkpt lat="43.0290167" lon="12.70714"><ele>656.0</ele><time>2026-04-18T13:13:01.985Z</time></trkpt><trkpt lat="43.0289433" lon="12.7070833"><ele>656.0</ele><time>2026-04-18T13:13:02.985Z</time></trkpt><trkpt lat="43.0288667" lon="12.7070333"><ele>657.5</ele><time>2026-04-18T13:13:03.985Z</time></trkpt><trkpt lat="43.0287933" lon="12.706995"><ele>659.0</ele><time>2026-04-18T13:13:04.985Z</time></trkpt><trkpt lat="43.0287183" lon="12.7069567"><ele>660.5</ele><time>2026-04-18T13:13:05.985Z</time></trkpt><trkpt lat="43.0286467" lon="12.7069217"><ele>662.0</ele><time>2026-04-18T13:13:06.985Z</time></trkpt><trkpt lat="43.028575" lon="12.7068867"><ele>663.5</ele><time>2026-04-18T13:13:07.985Z</time></trkpt><trkpt lat="43.0285033" lon="12.7068483"><ele>665.0</ele><time>2026-04-18T13:13:08.985Z</time></trkpt><trkpt lat="43.0284333" lon="12.706815"><ele>665.0</ele><time>2026-04-18T13:13:09.985Z</time></trkpt><trkpt lat="43.0283533" lon="12.7067767"><ele>665.0</ele><time>2026-04-18T13:13:10.985Z</time></trkpt><trkpt lat="43.0282683" lon="12.7067333"><ele>665.0</ele><time>2026-04-18T13:13:11.985Z</time></trkpt><trkpt lat="43.0281783" lon="12.70669"><ele>665.0</ele><time>2026-04-18T13:13:12.985Z</time></trkpt><trkpt lat="43.0280933" lon="12.706645"><ele>665.0</ele><time>2026-04-18T13:13:13.985Z</time></trkpt><trkpt lat="43.02801" lon="12.7065867"><ele>659.6</ele><time>2026-04-18T13:13:14.985Z</time></trkpt><trkpt lat="43.0279283" lon="12.7065183"><ele>654.2</ele><time>2026-04-18T13:13:15.985Z</time></trkpt><trkpt lat="43.027845" lon="12.7064417"><ele>648.8</ele><time>2026-04-18T13:13:16.985Z</time></trkpt><trkpt lat="43.0277733" lon="12.706365"><ele>643.4</ele><time>2026-04-18T13:13:17.985Z</time></trkpt><trkpt lat="43.0276983" lon="12.70629"><ele>638.0</ele><time>2026-04-18T13:13:18.985Z</time></trkpt><trkpt lat="43.0276117" lon="12.7062333"><ele>638.0</ele><time>2026-04-18T13:13:19.985Z</time></trkpt><trkpt lat="43.0275183" lon="12.7061933"><ele>638.0</ele><time>2026-04-18T13:13:20.985Z</time></trkpt><trkpt lat="43.0274233" lon="12.706165"><ele>638.0</ele><time>2026-04-18T13:13:21.985Z</time></trkpt><trkpt lat="43.02733" lon="12.7061533"><ele>638.0</ele><time>2026-04-18T13:13:22.985Z</time></trkpt><trkpt lat="43.02723" lon="12.7061533"><ele>638.0</ele><time>2026-04-18T13:13:23.985Z</time></trkpt><trkpt lat="43.0271333" lon="12.7061517"><ele>634.6</ele><time>2026-04-18T13:13:24.985Z</time></trkpt><trkpt lat="43.0270433" lon="12.7061317"><ele>631.1999999999999</ele><time>2026-04-18T13:13:25.985Z</time></trkpt><trkpt lat="43.02696" lon="12.7060817"><ele>627.8</ele><time>2026-04-18T13:13:26.985Z</time></trkpt><trkpt lat="43.0268733" lon="12.70603"><ele>624.4</ele><time>2026-04-18T13:13:27.985Z</time></trkpt><trkpt lat="43.0267883" lon="12.7059833"><ele>621.0</ele><time>2026-04-18T13:13:28.985Z</time></trkpt><trkpt lat="43.0267083" lon="12.70595"><ele>627.1666666666666</ele><time>2026-04-18T13:13:29.985Z</time></trkpt><trkpt lat="43.0266183" lon="12.7059217"><ele>633.3333333333334</ele><time>2026-04-18T13:13:30.985Z</time></trkpt><trkpt lat="43.0265333" lon="12.705905"><ele>639.5</ele><time>2026-04-18T13:13:31.985Z</time></trkpt><trkpt lat="43.0264483" lon="12.7059167"><ele>645.6666666666667</ele><time>2026-04-18T13:13:32.985Z</time></trkpt><trkpt lat="43.0263617" lon="12.705945"><ele>651.8333333333334</ele><time>2026-04-18T13:13:33.985Z</time></trkpt><trkpt lat="43.0262767" lon="12.7059917"><ele>658.0</ele><time>2026-04-18T13:13:34.985Z</time></trkpt><trkpt lat="43.0261883" lon="12.7060417"><ele>649.1999999999999</ele><time>2026-04-18T13:13:35.985Z</time></trkpt><trkpt lat="43.0260967" lon="12.7060833"><ele>640.4</ele><time>2026-04-18T13:13:36.985Z</time></trkpt><trkpt lat="43.0259967" lon="12.7061067"><ele>631.5999999999999</ele><time>2026-04-18T13:13:37.985Z</time></trkpt><trkpt lat="43.0258933" lon="12.70612"><ele>622.8</ele><time>2026-04-18T13:13:38.985Z</time></trkpt><trkpt lat="43.0257833" lon="12.7061233"><ele>614.0</ele><time>2026-04-18T13:13:39.985Z</time></trkpt><trkpt lat="43.0256733" lon="12.70612"><ele>610.75</ele><time>2026-04-18T13:13:40.985Z</time></trkpt><trkpt lat="43.02556" lon="12.7061133"><ele>607.5</ele><time>2026-04-18T13:13:41.985Z</time></trkpt><trkpt lat="43.025445" lon="12.7061"><ele>604.25</ele><time>2026-04-18T13:13:42.985Z</time></trkpt><trkpt lat="43.0253283" lon="12.706075"><ele>601.0</ele><time>2026-04-18T13:13:43.985Z</time></trkpt><trkpt lat="43.02522" lon="12.7060467"><ele>603.2</ele><time>2026-04-18T13:13:44.985Z</time></trkpt><trkpt lat="43.02511" lon="12.706015"><ele>605.4000000000001</ele><time>2026-04-18T13:13:45.985Z</time></trkpt><trkpt lat="43.0249983" lon="12.70598"><ele>607.6</ele><time>2026-04-18T13:13:46.985Z</time></trkpt><trkpt lat="43.0248933" lon="12.7059467"><ele>609.8000000000001</ele><time>2026-04-18T13:13:47.985Z</time></trkpt><trkpt lat="43.0247983" lon="12.7059167"><ele>612.0</ele><time>2026-04-18T13:13:48.985Z</time></trkpt><trkpt lat="43.0247033" lon="12.7058867"><ele>612.0</ele><time>2026-04-18T13:13:49.985Z</time></trkpt><trkpt lat="43.0246133" lon="12.7058483"><ele>612.0</ele><time>2026-04-18T13:13:50.985Z</time></trkpt><trkpt lat="43.0245217" lon="12.7057917"><ele>612.0</ele><time>2026-04-18T13:13:51.985Z</time></trkpt><trkpt lat="43.02445" lon="12.7057117"><ele>612.0</ele><time>2026-04-18T13:13:52.985Z</time></trkpt><trkpt lat="43.024395" lon="12.70561"><ele>612.0</ele><time>2026-04-18T13:13:53.985Z</time></trkpt><trkpt lat="43.0243417" lon="12.7054983"><ele>612.0</ele><time>2026-04-18T13:13:54.985Z</time></trkpt><trkpt lat="43.0243" lon="12.7053733"><ele>612.0</ele><time>2026-04-18T13:13:55.985Z</time></trkpt><trkpt lat="43.0242617" lon="12.7052483"><ele>612.0</ele><time>2026-04-18T13:13:56.985Z</time></trkpt><trkpt lat="43.0242283" lon="12.7051167"><ele>612.0</ele><time>2026-04-18T13:13:57.985Z</time></trkpt><trkpt lat="43.0241917" lon="12.7049883"><ele>612.0</ele><time>2026-04-18T13:13:58.985Z</time></trkpt><trkpt lat="43.024155" lon="12.7048667"><ele>607.0</ele><time>2026-04-18T13:13:59.985Z</time></trkpt><trkpt lat="43.0241183" lon="12.7047433"><ele>602.0</ele><time>2026-04-18T13:14:00.985Z</time></trkpt><trkpt lat="43.0240783" lon="12.70463"><ele>597.0</ele><time>2026-04-18T13:14:01.985Z</time></trkpt><trkpt lat="43.0240417" lon="12.704505"><ele>592.0</ele><time>2026-04-18T13:14:02.985Z</time></trkpt><trkpt lat="43.02401" lon="12.70438"><ele>587.0</ele><time>2026-04-18T13:14:03.985Z</time></trkpt><trkpt lat="43.0239833" lon="12.7042567"><ele>587.0</ele><time>2026-04-18T13:14:04.985Z</time></trkpt><trkpt lat="43.0239667" lon="12.70413"><ele>587.0</ele><time>2026-04-18T13:14:05.985Z</time></trkpt><trkpt lat="43.0239583" lon="12.7040017"><ele>587.0</ele><time>2026-04-18T13:14:06.985Z</time></trkpt><trkpt lat="43.02394" lon="12.703865"><ele>587.0</ele><time>2026-04-18T13:14:07.985Z</time></trkpt><trkpt lat="43.023925" lon="12.703735"><ele>587.0</ele><time>2026-04-18T13:14:08.985Z</time></trkpt><trkpt lat="43.0239117" lon="12.70361"><ele>587.4</ele><time>2026-04-18T13:14:09.985Z</time></trkpt><trkpt lat="43.0238917" lon="12.70348"><ele>587.8000000000001</ele><time>2026-04-18T13:14:10.985Z</time></trkpt><trkpt lat="43.0238733" lon="12.7033517"><ele>588.2</ele><time>2026-04-18T13:14:11.985Z</time></trkpt><trkpt lat="43.0238533" lon="12.7032333"><ele>588.6</ele><time>2026-04-18T13:14:12.985Z</time></trkpt><trkpt lat="43.0238333" lon="12.7031067"><ele>589.0</ele><time>2026-04-18T13:14:13.985Z</time></trkpt><trkpt lat="43.0238183" lon="12.7029867"><ele>589.0</ele><time>2026-04-18T13:14:14.985Z</time></trkpt><trkpt lat="43.02381" lon="12.70286"><ele>589.0</ele><time>2026-04-18T13:14:15.985Z</time></trkpt><trkpt lat="43.023805" lon="12.7027233"><ele>589.0</ele><time>2026-04-18T13:14:16.985Z</time></trkpt><trkpt lat="43.023805" lon="12.70259"><ele>589.0</ele><time>2026-04-18T13:14:17.985Z</time></trkpt><trkpt lat="43.0238" lon="12.70246"><ele>589.0</ele><time>2026-04-18T13:14:18.985Z</time></trkpt><trkpt lat="43.02379" lon="12.7023333"><ele>590.6</ele><time>2026-04-18T13:14:19.985Z</time></trkpt><trkpt lat="43.0237683" lon="12.7022033"><ele>592.2</ele><time>2026-04-18T13:14:20.985Z</time></trkpt><trkpt lat="43.023745" lon="12.7020767"><ele>593.8000000000001</ele><time>2026-04-18T13:14:21.985Z</time></trkpt><trkpt lat="43.023725" lon="12.70195"><ele>595.4</ele><time>2026-04-18T13:14:22.985Z</time></trkpt><trkpt lat="43.023705" lon="12.7018267"><ele>597.0</ele><time>2026-04-18T13:14:23.985Z</time></trkpt><trkpt lat="43.0236783" lon="12.7017067"><ele>599.3333333333334</ele><time>2026-04-18T13:14:24.985Z</time></trkpt><trkpt lat="43.0236483" lon="12.7015967"><ele>601.6666666666666</ele><time>2026-04-18T13:14:25.985Z</time></trkpt><trkpt lat="43.0236217" lon="12.7014817"><ele>604.0</ele><time>2026-04-18T13:14:26.985Z</time></trkpt><trkpt lat="43.0235933" lon="12.7013767"><ele>606.3333333333333</ele><time>2026-04-18T13:14:27.985Z</time></trkpt><trkpt lat="43.0235783" lon="12.7012833"><ele>608.6666666666666</ele><time>2026-04-18T13:14:28.985Z</time></trkpt><trkpt lat="43.0235267" lon="12.7011717"><ele>611.0</ele><time>2026-04-18T13:14:30.985Z</time></trkpt><trkpt lat="43.023435" lon="12.7011217"><ele>611.0</ele><time>2026-04-18T13:14:32.985Z</time></trkpt><trkpt lat="43.0233333" lon="12.701185"><ele>611.0</ele><time>2026-04-18T13:14:34.985Z</time></trkpt><trkpt lat="43.0232783" lon="12.701265"><ele>611.0</ele><time>2026-04-18T13:14:35.985Z</time></trkpt><trkpt lat="43.0232367" lon="12.7013617"><ele>611.0</ele><time>2026-04-18T13:14:36.985Z</time></trkpt><trkpt lat="43.0232067" lon="12.7014717"><ele>611.0</ele><time>2026-04-18T13:14:37.985Z</time></trkpt><trkpt lat="43.0231733" lon="12.7015867"><ele>608.6</ele><time>2026-04-18T13:14:38.985Z</time></trkpt><trkpt lat="43.0231233" lon="12.7017"><ele>606.2</ele><time>2026-04-18T13:14:39.985Z</time></trkpt><trkpt lat="43.0230583" lon="12.7018017"><ele>603.8</ele><time>2026-04-18T13:14:40.985Z</time></trkpt><trkpt lat="43.0229917" lon="12.7018917"><ele>601.4</ele><time>2026-04-18T13:14:41.985Z</time></trkpt><trkpt lat="43.022915" lon="12.7019783"><ele>599.0</ele><time>2026-04-18T13:14:42.985Z</time></trkpt><trkpt lat="43.02283" lon="12.702075"><ele>599.0</ele><time>2026-04-18T13:14:43.985Z</time></trkpt><trkpt lat="43.022745" lon="12.702165"><ele>599.0</ele><time>2026-04-18T13:14:44.985Z</time></trkpt><trkpt lat="43.02266" lon="12.7022467"><ele>599.0</ele><time>2026-04-18T13:14:45.985Z</time></trkpt><trkpt lat="43.02258" lon="12.7023233"><ele>599.0</ele><time>2026-04-18T13:14:46.985Z</time></trkpt><trkpt lat="43.0224917" lon="12.7023933"><ele>599.0</ele><time>2026-04-18T13:14:47.985Z</time></trkpt><trkpt lat="43.0224067" lon="12.7024767"><ele>598.6</ele><time>2026-04-18T13:14:48.985Z</time></trkpt><trkpt lat="43.0223117" lon="12.7025433"><ele>598.2</ele><time>2026-04-18T13:14:49.985Z</time></trkpt><trkpt lat="43.022225" lon="12.7026083"><ele>597.8000000000001</ele><time>2026-04-18T13:14:50.985Z</time></trkpt><trkpt lat="43.0221483" lon="12.70267"><ele>597.4</ele><time>2026-04-18T13:14:51.985Z</time></trkpt><trkpt lat="43.0220817" lon="12.70273"><ele>597.0</ele><time>2026-04-18T13:14:52.985Z</time></trkpt><trkpt lat="43.0220183" lon="12.7027867"><ele>597.0</ele><time>2026-04-18T13:14:53.985Z</time></trkpt><trkpt lat="43.0219617" lon="12.702835"><ele>597.0</ele><time>2026-04-18T13:14:54.985Z</time></trkpt><trkpt lat="43.021895" lon="12.7028683"><ele>597.0</ele><time>2026-04-18T13:14:56.985Z</time></trkpt><trkpt lat="43.0218633" lon="12.7027767"><ele>597.0</ele><time>2026-04-18T13:15:01.985Z</time></trkpt><trkpt lat="43.0219083" lon="12.7027017"><ele>597.0</ele><time>2026-04-18T13:15:03.985Z</time></trkpt><trkpt lat="43.022" lon="12.7025917"><ele>597.0</ele><time>2026-04-18T13:15:05.985Z</time></trkpt><trkpt lat="43.0220533" lon="12.7025383"><ele>597.0</ele><time>2026-04-18T13:15:06.985Z</time></trkpt><trkpt lat="43.0221483" lon="12.7024167"><ele>597.0</ele><time>2026-04-18T13:15:08.985Z</time></trkpt><trkpt lat="43.0222033" lon="12.70234"><ele>597.0</ele><time>2026-04-18T13:15:09.985Z</time></trkpt><trkpt lat="43.0222683" lon="12.70226"><ele>597.0</ele><time>2026-04-18T13:15:10.985Z</time></trkpt><trkpt lat="43.022335" lon="12.7021767"><ele>597.0</ele><time>2026-04-18T13:15:11.985Z</time></trkpt><trkpt lat="43.0224083" lon="12.70209"><ele>597.0</ele><time>2026-04-18T13:15:12.985Z</time></trkpt><trkpt lat="43.0224783" lon="12.702005"><ele>597.0</ele><time>2026-04-18T13:15:13.985Z</time></trkpt><trkpt lat="43.0225467" lon="12.7019133"><ele>597.0</ele><time>2026-04-18T13:15:14.985Z</time></trkpt><trkpt lat="43.022615" lon="12.7018267"><ele>597.0</ele><time>2026-04-18T13:15:15.984Z</time></trkpt><trkpt lat="43.0226883" lon="12.7017367"><ele>597.0</ele><time>2026-04-18T13:15:16.984Z</time></trkpt><trkpt lat="43.0227633" lon="12.7016467"><ele>603.75</ele><time>2026-04-18T13:15:17.984Z</time></trkpt><trkpt lat="43.0228783" lon="12.7015017"><ele>610.5</ele><time>2026-04-18T13:15:19.984Z</time></trkpt><trkpt lat="43.0229117" lon="12.7013733"><ele>617.25</ele><time>2026-04-18T13:15:21.984Z</time></trkpt><trkpt lat="43.02283" lon="12.701305"><ele>624.0</ele><time>2026-04-18T13:15:23.984Z</time></trkpt><trkpt lat="43.0226983" lon="12.7013417"><ele>624.0</ele><time>2026-04-18T13:15:25.984Z</time></trkpt><trkpt lat="43.0226133" lon="12.7013917"><ele>624.0</ele><time>2026-04-18T13:15:26.984Z</time></trkpt><trkpt lat="43.0225267" lon="12.70144"><ele>624.0</ele><time>2026-04-18T13:15:27.984Z</time></trkpt><trkpt lat="43.0224267" lon="12.7014783"><ele>624.0</ele><time>2026-04-18T13:15:28.984Z</time></trkpt><trkpt lat="43.022335" lon="12.7015083"><ele>624.0</ele><time>2026-04-18T13:15:29.984Z</time></trkpt><trkpt lat="43.0222517" lon="12.7015067"><ele>622.8333333333334</ele><time>2026-04-18T13:15:30.984Z</time></trkpt><trkpt lat="43.0221733" lon="12.701445"><ele>621.6666666666666</ele><time>2026-04-18T13:15:31.984Z</time></trkpt><trkpt lat="43.0221067" lon="12.7013717"><ele>620.5</ele><time>2026-04-18T13:15:32.984Z</time></trkpt><trkpt lat="43.022055" lon="12.7012917"><ele>619.3333333333333</ele><time>2026-04-18T13:15:33.984Z</time></trkpt><trkpt lat="43.0220217" lon="12.7011967"><ele>618.1666666666666</ele><time>2026-04-18T13:15:34.984Z</time></trkpt><trkpt lat="43.02202" lon="12.701105"><ele>617.0</ele><time>2026-04-18T13:15:35.984Z</time></trkpt><trkpt lat="43.022115" lon="12.701005"><ele>617.0</ele><time>2026-04-18T13:15:37.984Z</time></trkpt><trkpt lat="43.0221933" lon="12.70099"><ele>617.0</ele><time>2026-04-18T13:15:38.984Z</time></trkpt><trkpt lat="43.0222833" lon="12.7009767"><ele>617.0</ele><time>2026-04-18T13:15:39.984Z</time></trkpt><trkpt lat="43.0223817" lon="12.700965"><ele>617.0</ele><time>2026-04-18T13:15:40.984Z</time></trkpt><trkpt lat="43.0224767" lon="12.700965"><ele>617.0</ele><time>2026-04-18T13:15:41.984Z</time></trkpt><trkpt lat="43.02257" lon="12.7009567"><ele>619.8333333333333</ele><time>2026-04-18T13:15:42.984Z</time></trkpt><trkpt lat="43.0226433" lon="12.7009417"><ele>622.6666666666666</ele><time>2026-04-18T13:15:43.984Z</time></trkpt><trkpt lat="43.0227283" lon="12.7008467"><ele>625.5</ele><time>2026-04-18T13:15:45.984Z</time></trkpt><trkpt lat="43.0227067" lon="12.7007033"><ele>628.3333333333334</ele><time>2026-04-18T13:15:47.984Z</time></trkpt><trkpt lat="43.0226517" lon="12.7006483"><ele>631.1666666666667</ele><time>2026-04-18T13:15:48.984Z</time></trkpt><trkpt lat="43.0225883" lon="12.7006367"><ele>634.0</ele><time>2026-04-18T13:15:49.984Z</time></trkpt><trkpt lat="43.022515" lon="12.700655"><ele>630.6</ele><time>2026-04-18T13:15:50.984Z</time></trkpt><trkpt lat="43.0224317" lon="12.7006717"><ele>627.2</ele><time>2026-04-18T13:15:51.984Z</time></trkpt><trkpt lat="43.0223483" lon="12.7006567"><ele>623.8000000000001</ele><time>2026-04-18T13:15:52.984Z</time></trkpt><trkpt lat="43.0222633" lon="12.700605"><ele>620.4</ele><time>2026-04-18T13:15:53.984Z</time></trkpt><trkpt lat="43.02218" lon="12.7005333"><ele>617.0</ele><time>2026-04-18T13:15:54.984Z</time></trkpt><trkpt lat="43.0220933" lon="12.7004483"><ele>617.0</ele><time>2026-04-18T13:15:55.984Z</time></trkpt><trkpt lat="43.0220117" lon="12.7003517"><ele>617.0</ele><time>2026-04-18T13:15:56.984Z</time></trkpt><trkpt lat="43.021925" lon="12.7002567"><ele>617.0</ele><time>2026-04-18T13:15:57.984Z</time></trkpt><trkpt lat="43.0218383" lon="12.700185"><ele>617.0</ele><time>2026-04-18T13:15:58.984Z</time></trkpt><trkpt lat="43.021765" lon="12.7001267"><ele>617.0</ele><time>2026-04-18T13:15:59.984Z</time></trkpt><trkpt lat="43.021705" lon="12.7000867"><ele>620.3333333333333</ele><time>2026-04-18T13:16:00.984Z</time></trkpt><trkpt lat="43.021665" lon="12.699965"><ele>623.6666666666666</ele><time>2026-04-18T13:16:02.984Z</time></trkpt><trkpt lat="43.0217417" lon="12.6998683"><ele>627.0</ele><time>2026-04-18T13:16:04.984Z</time></trkpt><trkpt lat="43.02181" lon="12.699875"><ele>630.3333333333334</ele><time>2026-04-18T13:16:05.984Z</time></trkpt><trkpt lat="43.0218917" lon="12.6999117"><ele>633.6666666666667</ele><time>2026-04-18T13:16:06.984Z</time></trkpt><trkpt lat="43.0219783" lon="12.6999567"><ele>637.0</ele><time>2026-04-18T13:16:07.984Z</time></trkpt><trkpt lat="43.0220833" lon="12.7000083"><ele>637.0</ele><time>2026-04-18T13:16:08.984Z</time></trkpt><trkpt lat="43.022185" lon="12.7000467"><ele>637.0</ele><time>2026-04-18T13:16:09.984Z</time></trkpt><trkpt lat="43.022275" lon="12.700065"><ele>637.0</ele><time>2026-04-18T13:16:10.984Z</time></trkpt><trkpt lat="43.0223483" lon="12.700055"><ele>637.0</ele><time>2026-04-18T13:16:11.984Z</time></trkpt><trkpt lat="43.02241" lon="12.70002"><ele>637.0</ele><time>2026-04-18T13:16:12.984Z</time></trkpt><trkpt lat="43.0224383" lon="12.699875"><ele>637.0</ele><time>2026-04-18T13:16:14.984Z</time></trkpt><trkpt lat="43.02233" lon="12.699765"><ele>637.0</ele><time>2026-04-18T13:16:16.984Z</time></trkpt><trkpt lat="43.0222367" lon="12.6997233"><ele>637.0</ele><time>2026-04-18T13:16:17.984Z</time></trkpt><trkpt lat="43.0221383" lon="12.6996767"><ele>637.0</ele><time>2026-04-18T13:16:18.984Z</time></trkpt><trkpt lat="43.02204" lon="12.69962"><ele>637.0</ele><time>2026-04-18T13:16:19.984Z</time></trkpt><trkpt lat="43.0219417" lon="12.69956"><ele>637.0</ele><time>2026-04-18T13:16:20.984Z</time></trkpt><trkpt lat="43.0218433" lon="12.6995017"><ele>637.0</ele><time>2026-04-18T13:16:21.984Z</time></trkpt><trkpt lat="43.02174" lon="12.6994333"><ele>637.0</ele><time>2026-04-18T13:16:22.984Z</time></trkpt><trkpt lat="43.0216417" lon="12.6993717"><ele>637.0</ele><time>2026-04-18T13:16:23.984Z</time></trkpt><trkpt lat="43.0215433" lon="12.6993167"><ele>637.0</ele><time>2026-04-18T13:16:24.984Z</time></trkpt><trkpt lat="43.0214533" lon="12.6992517"><ele>637.0</ele><time>2026-04-18T13:16:25.984Z</time></trkpt><trkpt lat="43.021375" lon="12.6991683"><ele>636.6666666666667</ele><time>2026-04-18T13:16:26.984Z</time></trkpt><trkpt lat="43.0213283" lon="12.6990633"><ele>636.3333333333334</ele><time>2026-04-18T13:16:27.984Z</time></trkpt><trkpt lat="43.0212917" lon="12.69894"><ele>636.0</ele><time>2026-04-18T13:16:28.984Z</time></trkpt><trkpt lat="43.021275" lon="12.6988217"><ele>635.6666666666666</ele><time>2026-04-18T13:16:29.984Z</time></trkpt><trkpt lat="43.0212783" lon="12.6986983"><ele>635.3333333333333</ele><time>2026-04-18T13:16:30.984Z</time></trkpt><trkpt lat="43.0213017" lon="12.698605"><ele>635.0</ele><time>2026-04-18T13:16:31.984Z</time></trkpt><trkpt lat="43.0213567" lon="12.698555"><ele>638.8</ele><time>2026-04-18T13:16:32.984Z</time></trkpt><trkpt lat="43.0214283" lon="12.6985317"><ele>642.6</ele><time>2026-04-18T13:16:33.984Z</time></trkpt><trkpt lat="43.0215167" lon="12.6985367"><ele>646.4000000000001</ele><time>2026-04-18T13:16:34.984Z</time></trkpt><trkpt lat="43.0216183" lon="12.6985467"><ele>650.2</ele><time>2026-04-18T13:16:35.984Z</time></trkpt><trkpt lat="43.0217333" lon="12.6985633"><ele>654.0</ele><time>2026-04-18T13:16:36.984Z</time></trkpt><trkpt lat="43.0218417" lon="12.6985817"><ele>656.0</ele><time>2026-04-18T13:16:37.984Z</time></trkpt><trkpt lat="43.0219567" lon="12.6985967"><ele>658.0</ele><time>2026-04-18T13:16:38.984Z</time></trkpt><trkpt lat="43.0220733" lon="12.6986083"><ele>660.0</ele><time>2026-04-18T13:16:39.984Z</time></trkpt><trkpt lat="43.0222033" lon="12.6986233"><ele>662.0</ele><time>2026-04-18T13:16:40.984Z</time></trkpt><trkpt lat="43.02234" lon="12.69863"><ele>665.25</ele><time>2026-04-18T13:16:41.984Z</time></trkpt><trkpt lat="43.0224833" lon="12.6986333"><ele>668.5</ele><time>2026-04-18T13:16:42.984Z</time></trkpt><trkpt lat="43.0226233" lon="12.6986133"><ele>671.75</ele><time>2026-04-18T13:16:43.984Z</time></trkpt><trkpt lat="43.02275" lon="12.6985767"><ele>675.0</ele><time>2026-04-18T13:16:44.984Z</time></trkpt><trkpt lat="43.0228517" lon="12.6985267"><ele>678.8</ele><time>2026-04-18T13:16:45.984Z</time></trkpt><trkpt lat="43.0229367" lon="12.6984667"><ele>682.6</ele><time>2026-04-18T13:16:46.984Z</time></trkpt><trkpt lat="43.023015" lon="12.698385"><ele>686.4000000000001</ele><time>2026-04-18T13:16:47.984Z</time></trkpt><trkpt lat="43.02309" lon="12.69829"><ele>690.2</ele><time>2026-04-18T13:16:48.984Z</time></trkpt><trkpt lat="43.02316" lon="12.69817"><ele>694.0</ele><time>2026-04-18T13:16:49.984Z</time></trkpt><trkpt lat="43.0232217" lon="12.6980483"><ele>694.0</ele><time>2026-04-18T13:16:50.984Z</time></trkpt><trkpt lat="43.02328" lon="12.6979167"><ele>694.0</ele><time>2026-04-18T13:16:51.984Z</time></trkpt><trkpt lat="43.0233283" lon="12.6977683"><ele>694.0</ele><time>2026-04-18T13:16:52.984Z</time></trkpt><trkpt lat="43.02337" lon="12.6976317"><ele>694.0</ele><time>2026-04-18T13:16:53.984Z</time></trkpt><trkpt lat="43.023405" lon="12.6975217"><ele>694.0</ele><time>2026-04-18T13:16:54.984Z</time></trkpt><trkpt lat="43.023425" lon="12.697435"><ele>697.3333333333334</ele><time>2026-04-18T13:16:55.984Z</time></trkpt><trkpt lat="43.0234033" lon="12.6973183"><ele>700.6666666666667</ele><time>2026-04-18T13:16:57.984Z</time></trkpt><trkpt lat="43.023315" lon="12.6973033"><ele>704.0</ele><time>2026-04-18T13:16:59.984Z</time></trkpt><trkpt lat="43.0232517" lon="12.6973567"><ele>707.3333333333334</ele><time>2026-04-18T13:17:00.984Z</time></trkpt><trkpt lat="43.0231917" lon="12.69744"><ele>710.6666666666666</ele><time>2026-04-18T13:17:01.984Z</time></trkpt><trkpt lat="43.0231233" lon="12.697525"><ele>714.0</ele><time>2026-04-18T13:17:02.984Z</time></trkpt><trkpt lat="43.0230417" lon="12.6976"><ele>714.6</ele><time>2026-04-18T13:17:03.984Z</time></trkpt><trkpt lat="43.0229433" lon="12.697655"><ele>715.2</ele><time>2026-04-18T13:17:04.984Z</time></trkpt><trkpt lat="43.0228483" lon="12.6976767"><ele>715.8000000000001</ele><time>2026-04-18T13:17:05.984Z</time></trkpt><trkpt lat="43.02277" lon="12.6976967"><ele>716.4000000000001</ele><time>2026-04-18T13:17:06.984Z</time></trkpt><trkpt lat="43.0226617" lon="12.69765"><ele>717.0</ele><time>2026-04-18T13:17:08.984Z</time></trkpt><trkpt lat="43.0226517" lon="12.6975083"><ele>717.0</ele><time>2026-04-18T13:17:10.984Z</time></trkpt><trkpt lat="43.0227667" lon="12.6974183"><ele>717.0</ele><time>2026-04-18T13:17:12.984Z</time></trkpt><trkpt lat="43.0228517" lon="12.6973917"><ele>717.0</ele><time>2026-04-18T13:17:13.984Z</time></trkpt><trkpt lat="43.0229383" lon="12.6973467"><ele>717.0</ele><time>2026-04-18T13:17:14.984Z</time></trkpt><trkpt lat="43.0230267" lon="12.697285"><ele>717.0</ele><time>2026-04-18T13:17:15.984Z</time></trkpt><trkpt lat="43.0231033" lon="12.6972167"><ele>717.0</ele><time>2026-04-18T13:17:16.984Z</time></trkpt><trkpt lat="43.023165" lon="12.69715"><ele>717.0</ele><time>2026-04-18T13:17:17.984Z</time></trkpt><trkpt lat="43.0232283" lon="12.697025"><ele>717.0</ele><time>2026-04-18T13:17:19.984Z</time></trkpt><trkpt lat="43.0232017" lon="12.6969117"><ele>717.0</ele><time>2026-04-18T13:17:21.984Z</time></trkpt><trkpt lat="43.0231167" lon="12.6969"><ele>717.0</ele><time>2026-04-18T13:17:23.984Z</time></trkpt><trkpt lat="43.0230483" lon="12.696945"><ele>717.0</ele><time>2026-04-18T13:17:24.984Z</time></trkpt><trkpt lat="43.022965" lon="12.6970133"><ele>717.0</ele><time>2026-04-18T13:17:25.984Z</time></trkpt><trkpt lat="43.0228733" lon="12.6970667"><ele>717.0</ele><time>2026-04-18T13:17:26.984Z</time></trkpt><trkpt lat="43.02277" lon="12.697095"><ele>717.0</ele><time>2026-04-18T13:17:27.984Z</time></trkpt><trkpt lat="43.02267" lon="12.6971017"><ele>717.0</ele><time>2026-04-18T13:17:28.984Z</time></trkpt><trkpt lat="43.0225717" lon="12.697085"><ele>717.0</ele><time>2026-04-18T13:17:29.984Z</time></trkpt><trkpt lat="43.0224767" lon="12.697045"><ele>715.0</ele><time>2026-04-18T13:17:30.984Z</time></trkpt><trkpt lat="43.0223817" lon="12.6970017"><ele>713.0</ele><time>2026-04-18T13:17:31.984Z</time></trkpt><trkpt lat="43.022275" lon="12.6969533"><ele>711.0</ele><time>2026-04-18T13:17:32.984Z</time></trkpt><trkpt lat="43.0221617" lon="12.6968933"><ele>709.0</ele><time>2026-04-18T13:17:33.984Z</time></trkpt><trkpt lat="43.0220433" lon="12.696825"><ele>708.0</ele><time>2026-04-18T13:17:34.984Z</time></trkpt><trkpt lat="43.02193" lon="12.6967567"><ele>707.0</ele><time>2026-04-18T13:17:35.984Z</time></trkpt><trkpt lat="43.0218317" lon="12.6966817"><ele>706.0</ele><time>2026-04-18T13:17:36.984Z</time></trkpt><trkpt lat="43.021745" lon="12.6966233"><ele>705.0</ele><time>2026-04-18T13:17:37.984Z</time></trkpt><trkpt lat="43.02168" lon="12.6965467"><ele>704.0</ele><time>2026-04-18T13:17:38.984Z</time></trkpt><trkpt lat="43.0216383" lon="12.696475"><ele>704.0</ele><time>2026-04-18T13:17:39.984Z</time></trkpt><trkpt lat="43.0216283" lon="12.6963867"><ele>704.0</ele><time>2026-04-18T13:17:40.984Z</time></trkpt><trkpt lat="43.02167" lon="12.6963183"><ele>704.0</ele><time>2026-04-18T13:17:41.984Z</time></trkpt><trkpt lat="43.0217317" lon="12.6962883"><ele>704.0</ele><time>2026-04-18T13:17:42.984Z</time></trkpt><trkpt lat="43.0218633" lon="12.6963533"><ele>704.0</ele><time>2026-04-18T13:17:44.984Z</time></trkpt><trkpt lat="43.0219383" lon="12.6964317"><ele>704.0</ele><time>2026-04-18T13:17:45.984Z</time></trkpt><trkpt lat="43.0220067" lon="12.6964983"><ele>708.1666666666666</ele><time>2026-04-18T13:17:46.984Z</time></trkpt><trkpt lat="43.0220667" lon="12.6965383"><ele>712.3333333333333</ele><time>2026-04-18T13:17:47.984Z</time></trkpt><trkpt lat="43.0221667" lon="12.6965383"><ele>716.5</ele><time>2026-04-18T13:17:49.984Z</time></trkpt><trkpt lat="43.022185" lon="12.6964017"><ele>720.6666666666666</ele><time>2026-04-18T13:17:51.984Z</time></trkpt><trkpt lat="43.0221517" lon="12.6963183"><ele>724.8333333333334</ele><time>2026-04-18T13:17:52.984Z</time></trkpt><trkpt lat="43.0220933" lon="12.6962467"><ele>729.0</ele><time>2026-04-18T13:17:53.984Z</time></trkpt><trkpt lat="43.0220217" lon="12.6961567"><ele>732.8000000000001</ele><time>2026-04-18T13:17:54.984Z</time></trkpt><trkpt lat="43.0219417" lon="12.6960533"><ele>736.6</ele><time>2026-04-18T13:17:55.984Z</time></trkpt><trkpt lat="43.0218667" lon="12.6959533"><ele>740.4</ele><time>2026-04-18T13:17:56.984Z</time></trkpt><trkpt lat="43.0218067" lon="12.6958533"><ele>744.2</ele><time>2026-04-18T13:17:57.984Z</time></trkpt><trkpt lat="43.021755" lon="12.6957267"><ele>748.0</ele><time>2026-04-18T13:17:58.984Z</time></trkpt><trkpt lat="43.02172" lon="12.69558"><ele>748.0</ele><time>2026-04-18T13:17:59.984Z</time></trkpt><trkpt lat="43.021695" lon="12.6954133"><ele>748.0</ele><time>2026-04-18T13:18:00.984Z</time></trkpt><trkpt lat="43.021685" lon="12.6952517"><ele>748.0</ele><time>2026-04-18T13:18:01.984Z</time></trkpt><trkpt lat="43.0216583" lon="12.6951283"><ele>748.0</ele><time>2026-04-18T13:18:02.984Z</time></trkpt><trkpt lat="43.0216167" lon="12.6950383"><ele>748.0</ele><time>2026-04-18T13:18:03.984Z</time></trkpt><trkpt lat="43.0215567" lon="12.6949817"><ele>749.2</ele><time>2026-04-18T13:18:04.984Z</time></trkpt><trkpt lat="43.0214633" lon="12.6949667"><ele>750.4</ele><time>2026-04-18T13:18:05.984Z</time></trkpt><trkpt lat="43.02136" lon="12.69496"><ele>751.6</ele><time>2026-04-18T13:18:06.984Z</time></trkpt><trkpt lat="43.0212517" lon="12.6949467"><ele>752.8000000000001</ele><time>2026-04-18T13:18:07.984Z</time></trkpt><trkpt lat="43.02114" lon="12.69493"><ele>754.0</ele><time>2026-04-18T13:18:08.984Z</time></trkpt><trkpt lat="43.0210183" lon="12.6948967"><ele>754.0</ele><time>2026-04-18T13:18:09.984Z</time></trkpt><trkpt lat="43.0209083" lon="12.694855"><ele>754.0</ele><time>2026-04-18T13:18:10.984Z</time></trkpt><trkpt lat="43.020805" lon="12.6948167"><ele>754.0</ele><time>2026-04-18T13:18:11.984Z</time></trkpt><trkpt lat="43.0207267" lon="12.6947767"><ele>754.0</ele><time>2026-04-18T13:18:12.984Z</time></trkpt><trkpt lat="43.02066" lon="12.6947383"><ele>754.0</ele><time>2026-04-18T13:18:13.984Z</time></trkpt><trkpt lat="43.0205883" lon="12.6946217"><ele>754.0</ele><time>2026-04-18T13:18:15.984Z</time></trkpt><trkpt lat="43.0206233" lon="12.694495"><ele>754.0</ele><time>2026-04-18T13:18:17.984Z</time></trkpt><trkpt lat="43.0206867" lon="12.6944917"><ele>754.0</ele><time>2026-04-18T13:18:18.983Z</time></trkpt><trkpt lat="43.020755" lon="12.694525"><ele>754.0</ele><time>2026-04-18T13:18:19.984Z</time></trkpt><trkpt lat="43.0208367" lon="12.6945733"><ele>754.0</ele><time>2026-04-18T13:18:20.984Z</time></trkpt><trkpt lat="43.020925" lon="12.6946183"><ele>754.0</ele><time>2026-04-18T13:18:21.984Z</time></trkpt><trkpt lat="43.0210083" lon="12.6946133"><ele>754.0</ele><time>2026-04-18T13:18:22.984Z</time></trkpt><trkpt lat="43.02108" lon="12.6945933"><ele>754.0</ele><time>2026-04-18T13:18:23.984Z</time></trkpt><trkpt lat="43.0211233" lon="12.6944433"><ele>754.0</ele><time>2026-04-18T13:18:25.984Z</time></trkpt><trkpt lat="43.0210167" lon="12.6943183"><ele>754.0</ele><time>2026-04-18T13:18:27.984Z</time></trkpt><trkpt lat="43.020925" lon="12.6942767"><ele>754.0</ele><time>2026-04-18T13:18:28.984Z</time></trkpt><trkpt lat="43.020825" lon="12.694245"><ele>757.2</ele><time>2026-04-18T13:18:29.984Z</time></trkpt><trkpt lat="43.0207267" lon="12.6942017"><ele>760.4000000000001</ele><time>2026-04-18T13:18:30.984Z</time></trkpt><trkpt lat="43.02063" lon="12.6941533"><ele>763.6</ele><time>2026-04-18T13:18:31.984Z</time></trkpt><trkpt lat="43.0205333" lon="12.6940933"><ele>766.8</ele><time>2026-04-18T13:18:32.984Z</time></trkpt><trkpt lat="43.020435" lon="12.69402"><ele>770.0</ele><time>2026-04-18T13:18:33.984Z</time></trkpt><trkpt lat="43.020345" lon="12.693935"><ele>770.0</ele><time>2026-04-18T13:18:34.984Z</time></trkpt><trkpt lat="43.02026" lon="12.693835"><ele>770.0</ele><time>2026-04-18T13:18:35.984Z</time></trkpt><trkpt lat="43.02018" lon="12.69373"><ele>770.0</ele><time>2026-04-18T13:18:36.984Z</time></trkpt><trkpt lat="43.0201067" lon="12.6936183"><ele>770.0</ele><time>2026-04-18T13:18:37.984Z</time></trkpt><trkpt lat="43.020035" lon="12.6935067"><ele>770.0</ele><time>2026-04-18T13:18:38.984Z</time></trkpt><trkpt lat="43.0199633" lon="12.6933833"><ele>769.0</ele><time>2026-04-18T13:18:39.984Z</time></trkpt><trkpt lat="43.0198917" lon="12.6932567"><ele>768.0</ele><time>2026-04-18T13:18:40.984Z</time></trkpt><trkpt lat="43.019825" lon="12.6931217"><ele>767.0</ele><time>2026-04-18T13:18:41.984Z</time></trkpt><trkpt lat="43.0197617" lon="12.692985"><ele>766.0</ele><time>2026-04-18T13:18:42.984Z</time></trkpt><trkpt lat="43.01971" lon="12.692835"><ele>769.8</ele><time>2026-04-18T13:18:43.984Z</time></trkpt><trkpt lat="43.0196633" lon="12.6926917"><ele>773.5999999999999</ele><time>2026-04-18T13:18:44.984Z</time></trkpt><trkpt lat="43.0196283" lon="12.6925433"><ele>777.4</ele><time>2026-04-18T13:18:45.984Z</time></trkpt><trkpt lat="43.019605" lon="12.6923917"><ele>781.2</ele><time>2026-04-18T13:18:46.984Z</time></trkpt><trkpt lat="43.0195817" lon="12.69226"><ele>785.0</ele><time>2026-04-18T13:18:47.984Z</time></trkpt><trkpt lat="43.0195633" lon="12.6921417"><ele>785.0</ele><time>2026-04-18T13:18:48.984Z</time></trkpt><trkpt lat="43.0195433" lon="12.69203"><ele>785.0</ele><time>2026-04-18T13:18:49.984Z</time></trkpt><trkpt lat="43.0195067" lon="12.6919417"><ele>785.0</ele><time>2026-04-18T13:18:50.984Z</time></trkpt><trkpt lat="43.0194567" lon="12.6918833"><ele>785.0</ele><time>2026-04-18T13:18:51.984Z</time></trkpt><trkpt lat="43.0193933" lon="12.6918483"><ele>785.0</ele><time>2026-04-18T13:18:52.984Z</time></trkpt><trkpt lat="43.0193167" lon="12.69183"><ele>785.0</ele><time>2026-04-18T13:18:53.984Z</time></trkpt><trkpt lat="43.0192383" lon="12.691825"><ele>785.0</ele><time>2026-04-18T13:18:54.984Z</time></trkpt><trkpt lat="43.0191517" lon="12.6918333"><ele>786.6666666666667</ele><time>2026-04-18T13:18:55.984Z</time></trkpt><trkpt lat="43.01907" lon="12.69182"><ele>788.3333333333334</ele><time>2026-04-18T13:18:56.984Z</time></trkpt><trkpt lat="43.0189967" lon="12.69178"><ele>790.0</ele><time>2026-04-18T13:18:57.984Z</time></trkpt><trkpt lat="43.0189317" lon="12.6917167"><ele>791.6666666666667</ele><time>2026-04-18T13:18:58.984Z</time></trkpt><trkpt lat="43.018875" lon="12.691635"><ele>793.3333333333334</ele><time>2026-04-18T13:18:59.984Z</time></trkpt><trkpt lat="43.0188233" lon="12.69153"><ele>795.0</ele><time>2026-04-18T13:19:00.984Z</time></trkpt><trkpt lat="43.0187817" lon="12.6914167"><ele>795.0</ele><time>2026-04-18T13:19:01.984Z</time></trkpt><trkpt lat="43.018745" lon="12.6913117"><ele>795.0</ele><time>2026-04-18T13:19:02.984Z</time></trkpt><trkpt lat="43.0187167" lon="12.691215"><ele>795.0</ele><time>2026-04-18T13:19:03.984Z</time></trkpt><trkpt lat="43.0186983" lon="12.69113"><ele>795.0</ele><time>2026-04-18T13:19:04.984Z</time></trkpt><trkpt lat="43.0186833" lon="12.69098"><ele>795.0</ele><time>2026-04-18T13:19:06.984Z</time></trkpt><trkpt lat="43.018715" lon="12.69087"><ele>795.0</ele><time>2026-04-18T13:19:08.984Z</time></trkpt><trkpt lat="43.0188117" lon="12.690835"><ele>796.3333333333334</ele><time>2026-04-18T13:19:10.984Z</time></trkpt><trkpt lat="43.018885" lon="12.69085"><ele>797.6666666666667</ele><time>2026-04-18T13:19:11.984Z</time></trkpt><trkpt lat="43.01896" lon="12.690885"><ele>799.0</ele><time>2026-04-18T13:19:12.984Z</time></trkpt><trkpt lat="43.0190283" lon="12.6909283"><ele>800.3333333333334</ele><time>2026-04-18T13:19:13.984Z</time></trkpt><trkpt lat="43.0191" lon="12.6909683"><ele>801.6666666666667</ele><time>2026-04-18T13:19:14.984Z</time></trkpt><trkpt lat="43.0191683" lon="12.6910083"><ele>803.0</ele><time>2026-04-18T13:19:15.984Z</time></trkpt><trkpt lat="43.01924" lon="12.6910367"><ele>803.2857142857142</ele><time>2026-04-18T13:19:16.984Z</time></trkpt><trkpt lat="43.0193133" lon="12.691065"><ele>803.5714285714286</ele><time>2026-04-18T13:19:17.984Z</time></trkpt><trkpt lat="43.019385" lon="12.69109"><ele>803.8571428571429</ele><time>2026-04-18T13:19:18.984Z</time></trkpt><trkpt lat="43.0194567" lon="12.69111"><ele>804.1428571428571</ele><time>2026-04-18T13:19:19.984Z</time></trkpt><trkpt lat="43.0195267" lon="12.6911283"><ele>804.4285714285714</ele><time>2026-04-18T13:19:20.984Z</time></trkpt><trkpt lat="43.0195917" lon="12.6911517"><ele>804.7142857142857</ele><time>2026-04-18T13:19:21.984Z</time></trkpt><trkpt lat="43.0196683" lon="12.691185"><ele>805.0</ele><time>2026-04-18T13:19:22.984Z</time></trkpt><trkpt lat="43.0197483" lon="12.691205"><ele>805.0</ele><time>2026-04-18T13:19:23.984Z</time></trkpt><trkpt lat="43.019825" lon="12.6912383"><ele>805.0</ele><time>2026-04-18T13:19:24.984Z</time></trkpt><trkpt lat="43.01991" lon="12.6912783"><ele>805.0</ele><time>2026-04-18T13:19:25.984Z</time></trkpt><trkpt lat="43.0199967" lon="12.691325"><ele>805.0</ele><time>2026-04-18T13:19:26.984Z</time></trkpt><trkpt lat="43.0200833" lon="12.691375"><ele>805.0</ele><time>2026-04-18T13:19:27.984Z</time></trkpt><trkpt lat="43.0201683" lon="12.6914267"><ele>807.6</ele><time>2026-04-18T13:19:28.984Z</time></trkpt><trkpt lat="43.02026" lon="12.6914717"><ele>810.2</ele><time>2026-04-18T13:19:29.984Z</time></trkpt><trkpt lat="43.0203533" lon="12.6915033"><ele>812.8</ele><time>2026-04-18T13:19:30.984Z</time></trkpt><trkpt lat="43.0204367" lon="12.6915433"><ele>815.4</ele><time>2026-04-18T13:19:31.984Z</time></trkpt><trkpt lat="43.0205283" lon="12.6915683"><ele>818.0</ele><time>2026-04-18T13:19:32.984Z</time></trkpt><trkpt lat="43.0206217" lon="12.6915767"><ele>818.0</ele><time>2026-04-18T13:19:33.984Z</time></trkpt><trkpt lat="43.0207167" lon="12.6915867"><ele>818.0</ele><time>2026-04-18T13:19:34.984Z</time></trkpt><trkpt lat="43.0208133" lon="12.6916067"><ele>818.0</ele><time>2026-04-18T13:19:35.984Z</time></trkpt><trkpt lat="43.0209133" lon="12.6916267"><ele>818.0</ele><time>2026-04-18T13:19:36.984Z</time></trkpt><trkpt lat="43.0210183" lon="12.6916533"><ele>818.0</ele><time>2026-04-18T13:19:37.984Z</time></trkpt><trkpt lat="43.02112" lon="12.691665"><ele>820.4</ele><time>2026-04-18T13:19:38.984Z</time></trkpt><trkpt lat="43.0212283" lon="12.6916817"><ele>822.8</ele><time>2026-04-18T13:19:39.984Z</time></trkpt><trkpt lat="43.021335" lon="12.69169"><ele>825.2</ele><time>2026-04-18T13:19:40.984Z</time></trkpt><trkpt lat="43.02145" lon="12.69171"><ele>827.6</ele><time>2026-04-18T13:19:41.984Z</time></trkpt><trkpt lat="43.0215633" lon="12.6917217"><ele>830.0</ele><time>2026-04-18T13:19:42.984Z</time></trkpt><trkpt lat="43.0216783" lon="12.6917333"><ele>832.0</ele><time>2026-04-18T13:19:43.984Z</time></trkpt><trkpt lat="43.0217883" lon="12.6917433"><ele>834.0</ele><time>2026-04-18T13:19:44.984Z</time></trkpt><trkpt lat="43.0218933" lon="12.691735"><ele>836.0</ele><time>2026-04-18T13:19:45.984Z</time></trkpt><trkpt lat="43.0219867" lon="12.69172"><ele>838.0</ele><time>2026-04-18T13:19:46.984Z</time></trkpt><trkpt lat="43.0220767" lon="12.69169"><ele>840.0</ele><time>2026-04-18T13:19:47.984Z</time></trkpt><trkpt lat="43.0221683" lon="12.6916533"><ele>840.0</ele><time>2026-04-18T13:19:48.984Z</time></trkpt><trkpt lat="43.0222567" lon="12.6916083"><ele>840.0</ele><time>2026-04-18T13:19:49.984Z</time></trkpt><trkpt lat="43.0223433" lon="12.691545"><ele>840.0</ele><time>2026-04-18T13:19:50.984Z</time></trkpt><trkpt lat="43.0224233" lon="12.691485"><ele>840.0</ele><time>2026-04-18T13:19:51.984Z</time></trkpt><trkpt lat="43.0225" lon="12.6914167"><ele>840.0</ele><time>2026-04-18T13:19:52.984Z</time></trkpt><trkpt lat="43.0225817" lon="12.6913467"><ele>839.8333333333334</ele><time>2026-04-18T13:19:53.984Z</time></trkpt><trkpt lat="43.02266" lon="12.6912883"><ele>839.6666666666667</ele><time>2026-04-18T13:19:54.984Z</time></trkpt><trkpt lat="43.02274" lon="12.6912467"><ele>839.5</ele><time>2026-04-18T13:19:55.984Z</time></trkpt><trkpt lat="43.02282" lon="12.6912217"><ele>839.3333333333334</ele><time>2026-04-18T13:19:56.984Z</time></trkpt><trkpt lat="43.0229017" lon="12.6912133"><ele>839.1666666666667</ele><time>2026-04-18T13:19:57.984Z</time></trkpt><trkpt lat="43.022985" lon="12.691225"><ele>839.0</ele><time>2026-04-18T13:19:58.984Z</time></trkpt><trkpt lat="43.0230683" lon="12.6912367"><ele>839.0</ele><time>2026-04-18T13:19:59.983Z</time></trkpt><trkpt lat="43.0231617" lon="12.6912583"><ele>839.0</ele><time>2026-04-18T13:20:00.983Z</time></trkpt><trkpt lat="43.02326" lon="12.6912833"><ele>839.0</ele><time>2026-04-18T13:20:01.983Z</time></trkpt><trkpt lat="43.0233667" lon="12.6913067"><ele>839.0</ele><time>2026-04-18T13:20:02.983Z</time></trkpt><trkpt lat="43.02347" lon="12.691315"><ele>839.0</ele><time>2026-04-18T13:20:03.983Z</time></trkpt><trkpt lat="43.02357" lon="12.6913333"><ele>839.8000000000001</ele><time>2026-04-18T13:20:04.983Z</time></trkpt><trkpt lat="43.023665" lon="12.691355"><ele>840.6</ele><time>2026-04-18T13:20:05.983Z</time></trkpt><trkpt lat="43.0237583" lon="12.6913717"><ele>841.4</ele><time>2026-04-18T13:20:06.983Z</time></trkpt><trkpt lat="43.0238583" lon="12.69138"><ele>842.2</ele><time>2026-04-18T13:20:07.983Z</time></trkpt><trkpt lat="43.0239617" lon="12.691385"><ele>843.0</ele><time>2026-04-18T13:20:08.983Z</time></trkpt><trkpt lat="43.0240617" lon="12.691395"><ele>844.0</ele><time>2026-04-18T13:20:09.983Z</time></trkpt><trkpt lat="43.0241633" lon="12.6914117"><ele>845.0</ele><time>2026-04-18T13:20:10.983Z</time></trkpt><trkpt lat="43.0242617" lon="12.6914233"><ele>846.0</ele><time>2026-04-18T13:20:11.983Z</time></trkpt><trkpt lat="43.0243683" lon="12.69144"><ele>847.0</ele><time>2026-04-18T13:20:12.983Z</time></trkpt><trkpt lat="43.024475" lon="12.6914567"><ele>848.0</ele><time>2026-04-18T13:20:13.983Z</time></trkpt><trkpt lat="43.024585" lon="12.6914833"><ele>848.0</ele><time>2026-04-18T13:20:14.983Z</time></trkpt><trkpt lat="43.02468" lon="12.6915133"><ele>848.0</ele><time>2026-04-18T13:20:15.983Z</time></trkpt><trkpt lat="43.0247717" lon="12.6915567"><ele>848.0</ele><time>2026-04-18T13:20:16.983Z</time></trkpt><trkpt lat="43.0248683" lon="12.6916117"><ele>848.0</ele><time>2026-04-18T13:20:17.983Z</time></trkpt><trkpt lat="43.024965" lon="12.6916817"><ele>848.0</ele><time>2026-04-18T13:20:18.983Z</time></trkpt><trkpt lat="43.0250583" lon="12.6917583"><ele>847.4</ele><time>2026-04-18T13:20:19.983Z</time></trkpt><trkpt lat="43.0251433" lon="12.691835"><ele>846.8</ele><time>2026-04-18T13:20:20.983Z</time></trkpt><trkpt lat="43.0252367" lon="12.6919133"><ele>846.2</ele><time>2026-04-18T13:20:21.983Z</time></trkpt><trkpt lat="43.0253233" lon="12.6919917"><ele>845.6</ele><time>2026-04-18T13:20:22.983Z</time></trkpt><trkpt lat="43.0254167" lon="12.69207"><ele>845.0</ele><time>2026-04-18T13:20:23.983Z</time></trkpt><trkpt lat="43.02551" lon="12.6921483"><ele>845.0</ele><time>2026-04-18T13:20:24.983Z</time></trkpt><trkpt lat="43.0256033" lon="12.6922333"><ele>845.0</ele><time>2026-04-18T13:20:25.983Z</time></trkpt><trkpt lat="43.02569" lon="12.69232"><ele>845.0</ele><time>2026-04-18T13:20:26.983Z</time></trkpt><trkpt lat="43.0257817" lon="12.6924017"><ele>845.0</ele><time>2026-04-18T13:20:27.983Z</time></trkpt><trkpt lat="43.0258567" lon="12.6924883"><ele>845.0</ele><time>2026-04-18T13:20:28.983Z</time></trkpt><trkpt lat="43.0259433" lon="12.69257"><ele>846.2</ele><time>2026-04-18T13:20:29.983Z</time></trkpt><trkpt lat="43.0260283" lon="12.6926467"><ele>847.4</ele><time>2026-04-18T13:20:30.983Z</time></trkpt><trkpt lat="43.0261117" lon="12.6927283"><ele>848.5999999999999</ele><time>2026-04-18T13:20:31.983Z</time></trkpt><trkpt lat="43.0262033" lon="12.692815"><ele>849.8</ele><time>2026-04-18T13:20:32.983Z</time></trkpt><trkpt lat="43.0262933" lon="12.692905"><ele>851.0</ele><time>2026-04-18T13:20:33.983Z</time></trkpt><trkpt lat="43.0263767" lon="12.6929933"><ele>851.0</ele><time>2026-04-18T13:20:34.983Z</time></trkpt><trkpt lat="43.0264567" lon="12.69308"><ele>851.0</ele><time>2026-04-18T13:20:35.983Z</time></trkpt><trkpt lat="43.0265467" lon="12.693165"><ele>851.0</ele><time>2026-04-18T13:20:36.983Z</time></trkpt><trkpt lat="43.02663" lon="12.6932517"><ele>851.0</ele><time>2026-04-18T13:20:37.983Z</time></trkpt><trkpt lat="43.0267083" lon="12.6933483"><ele>851.0</ele><time>2026-04-18T13:20:38.983Z</time></trkpt><trkpt lat="43.02677" lon="12.6934583"><ele>852.0</ele><time>2026-04-18T13:20:39.983Z</time></trkpt><trkpt lat="43.0268233" lon="12.6935667"><ele>853.0</ele><time>2026-04-18T13:20:40.983Z</time></trkpt><trkpt lat="43.0268833" lon="12.6936767"><ele>853.9999999999999</ele><time>2026-04-18T13:20:41.983Z</time></trkpt><trkpt lat="43.0269483" lon="12.6937817"><ele>855.0</ele><time>2026-04-18T13:20:42.983Z</time></trkpt><trkpt lat="43.027005" lon="12.6938833"><ele>856.0</ele><time>2026-04-18T13:20:43.983Z</time></trkpt><trkpt lat="43.0270517" lon="12.69399"><ele>856.0</ele><time>2026-04-18T13:20:44.983Z</time></trkpt><trkpt lat="43.0271033" lon="12.6941133"><ele>855.9999999999999</ele><time>2026-04-18T13:20:45.983Z</time></trkpt><trkpt lat="43.0271533" lon="12.694255"><ele>855.9999999999999</ele><time>2026-04-18T13:20:46.983Z</time></trkpt><trkpt lat="43.0271983" lon="12.6943967"><ele>856.0</ele><time>2026-04-18T13:20:47.983Z</time></trkpt><trkpt lat="43.027245" lon="12.694535"><ele>856.0</ele><time>2026-04-18T13:20:48.983Z</time></trkpt><trkpt lat="43.0272883" lon="12.6946667"><ele>854.1999999999999</ele><time>2026-04-18T13:20:49.983Z</time></trkpt><trkpt lat="43.0273317" lon="12.694795"><ele>852.3999999999999</ele><time>2026-04-18T13:20:50.983Z</time></trkpt><trkpt lat="43.027375" lon="12.69493"><ele>850.6</ele><time>2026-04-18T13:20:51.983Z</time></trkpt><trkpt lat="43.027425" lon="12.6950583"><ele>848.8</ele><time>2026-04-18T13:20:52.983Z</time></trkpt><trkpt lat="43.0274633" lon="12.6951867"><ele>847.0</ele><time>2026-04-18T13:20:53.983Z</time></trkpt><trkpt lat="43.0275033" lon="12.69531"><ele>853.0</ele><time>2026-04-18T13:20:54.983Z</time></trkpt><trkpt lat="43.02754" lon="12.695435"><ele>859.0</ele><time>2026-04-18T13:20:55.983Z</time></trkpt><trkpt lat="43.0275767" lon="12.6955617"><ele>865.0</ele><time>2026-04-18T13:20:56.983Z</time></trkpt><trkpt lat="43.02762" lon="12.695695"><ele>871.0</ele><time>2026-04-18T13:20:57.983Z</time></trkpt><trkpt lat="43.0276567" lon="12.69583"><ele>877.0</ele><time>2026-04-18T13:20:58.983Z</time></trkpt><trkpt lat="43.0277017" lon="12.695965"><ele>875.4000000000001</ele><time>2026-04-18T13:20:59.983Z</time></trkpt><trkpt lat="43.0277467" lon="12.6960967"><ele>873.8000000000001</ele><time>2026-04-18T13:21:00.983Z</time></trkpt><trkpt lat="43.0277917" lon="12.69623"><ele>872.2</ele><time>2026-04-18T13:21:01.983Z</time></trkpt><trkpt lat="43.0278367" lon="12.696365"><ele>870.6</ele><time>2026-04-18T13:21:02.983Z</time></trkpt><trkpt lat="43.0278833" lon="12.6964983"><ele>869.0</ele><time>2026-04-18T13:21:03.983Z</time></trkpt><trkpt lat="43.0279317" lon="12.69662"><ele>869.0</ele><time>2026-04-18T13:21:04.983Z</time></trkpt><trkpt lat="43.02798" lon="12.6967367"><ele>869.0000000000001</ele><time>2026-04-18T13:21:05.983Z</time></trkpt><trkpt lat="43.0280333" lon="12.6968533"><ele>869.0000000000001</ele><time>2026-04-18T13:21:06.983Z</time></trkpt><trkpt lat="43.0280883" lon="12.696975"><ele>869.0</ele><time>2026-04-18T13:21:07.983Z</time></trkpt><trkpt lat="43.028155" lon="12.6970883"><ele>869.0</ele><time>2026-04-18T13:21:08.983Z</time></trkpt><trkpt lat="43.02822" lon="12.6972"><ele>867.2</ele><time>2026-04-18T13:21:09.983Z</time></trkpt><trkpt lat="43.0282883" lon="12.697315"><ele>865.4000000000001</ele><time>2026-04-18T13:21:10.983Z</time></trkpt><trkpt lat="43.0283583" lon="12.6974267"><ele>863.6</ele><time>2026-04-18T13:21:11.983Z</time></trkpt><trkpt lat="43.0284283" lon="12.6975367"><ele>861.8</ele><time>2026-04-18T13:21:12.983Z</time></trkpt><trkpt lat="43.028495" lon="12.6976567"><ele>860.0</ele><time>2026-04-18T13:21:13.983Z</time></trkpt><trkpt lat="43.028555" lon="12.697775"><ele>866.8</ele><time>2026-04-18T13:21:14.983Z</time></trkpt><trkpt lat="43.0285917" lon="12.697895"><ele>873.6</ele><time>2026-04-18T13:21:15.983Z</time></trkpt><trkpt lat="43.028625" lon="12.6980233"><ele>880.4000000000001</ele><time>2026-04-18T13:21:16.983Z</time></trkpt><trkpt lat="43.0286567" lon="12.6981517"><ele>887.2</ele><time>2026-04-18T13:21:17.983Z</time></trkpt><trkpt lat="43.0286817" lon="12.6982833"><ele>894.0</ele><time>2026-04-18T13:21:18.983Z</time></trkpt><trkpt lat="43.0287" lon="12.6984217"><ele>894.0</ele><time>2026-04-18T13:21:19.983Z</time></trkpt><trkpt lat="43.0287167" lon="12.698555"><ele>894.0000000000001</ele><time>2026-04-18T13:21:20.983Z</time></trkpt><trkpt lat="43.0287267" lon="12.6986967"><ele>894.0000000000001</ele><time>2026-04-18T13:21:21.983Z</time></trkpt><trkpt lat="43.028735" lon="12.698845"><ele>894.0</ele><time>2026-04-18T13:21:22.983Z</time></trkpt><trkpt lat="43.0287367" lon="12.69899"><ele>894.0</ele><time>2026-04-18T13:21:23.983Z</time></trkpt><trkpt lat="43.0287383" lon="12.6991317"><ele>894.1666666666666</ele><time>2026-04-18T13:21:24.983Z</time></trkpt><trkpt lat="43.0287383" lon="12.6992433"><ele>894.3333333333333</ele><time>2026-04-18T13:21:25.983Z</time></trkpt><trkpt lat="43.0287333" lon="12.699335"><ele>894.5</ele><time>2026-04-18T13:21:26.983Z</time></trkpt><trkpt lat="43.028755" lon="12.6994567"><ele>894.6666666666666</ele><time>2026-04-18T13:21:28.983Z</time></trkpt><trkpt lat="43.028825" lon="12.6995033"><ele>894.8333333333333</ele><time>2026-04-18T13:21:30.983Z</time></trkpt><trkpt lat="43.0288983" lon="12.6994333"><ele>895.0</ele><time>2026-04-18T13:21:32.983Z</time></trkpt><trkpt lat="43.0289233" lon="12.6992767"><ele>894.9999999999999</ele><time>2026-04-18T13:21:34.983Z</time></trkpt><trkpt lat="43.0289433" lon="12.6991617"><ele>895.0</ele><time>2026-04-18T13:21:35.983Z</time></trkpt><trkpt lat="43.0289783" lon="12.6990567"><ele>895.0</ele><time>2026-04-18T13:21:36.983Z</time></trkpt><trkpt lat="43.029025" lon="12.6989517"><ele>895.0</ele><time>2026-04-18T13:21:37.983Z</time></trkpt><trkpt lat="43.0290783" lon="12.6988483"><ele>894.9999999999999</ele><time>2026-04-18T13:21:38.983Z</time></trkpt><trkpt lat="43.029145" lon="12.69876"><ele>895.0</ele><time>2026-04-18T13:21:39.983Z</time></trkpt><trkpt lat="43.0292017" lon="12.69868"><ele>899.3333333333333</ele><time>2026-04-18T13:21:40.983Z</time></trkpt><trkpt lat="43.02927" lon="12.6986233"><ele>903.6666666666666</ele><time>2026-04-18T13:21:41.983Z</time></trkpt><trkpt lat="43.0293467" lon="12.6985833"><ele>908.0</ele><time>2026-04-18T13:21:42.983Z</time></trkpt><trkpt lat="43.0294217" lon="12.6985683"><ele>912.3333333333333</ele><time>2026-04-18T13:21:43.983Z</time></trkpt><trkpt lat="43.0295" lon="12.6985617"><ele>916.6666666666666</ele><time>2026-04-18T13:21:44.983Z</time></trkpt><trkpt lat="43.029585" lon="12.6985783"><ele>921.0</ele><time>2026-04-18T13:21:45.983Z</time></trkpt><trkpt lat="43.0296583" lon="12.6986033"><ele>922.1666666666666</ele><time>2026-04-18T13:21:46.983Z</time></trkpt><trkpt lat="43.0297167" lon="12.6986483"><ele>923.3333333333333</ele><time>2026-04-18T13:21:47.983Z</time></trkpt><trkpt lat="43.029775" lon="12.6987083"><ele>924.5</ele><time>2026-04-18T13:21:48.983Z</time></trkpt><trkpt lat="43.029855" lon="12.698805"><ele>925.6666666666666</ele><time>2026-04-18T13:21:49.983Z</time></trkpt><trkpt lat="43.0299067" lon="12.6988667"><ele>926.8333333333333</ele><time>2026-04-18T13:21:50.983Z</time></trkpt><trkpt lat="43.0299617" lon="12.6989533"><ele>928.0</ele><time>2026-04-18T13:21:51.983Z</time></trkpt><trkpt lat="43.0300217" lon="12.699045"><ele>930.8</ele><time>2026-04-18T13:21:52.983Z</time></trkpt><trkpt lat="43.030085" lon="12.6991417"><ele>933.5999999999999</ele><time>2026-04-18T13:21:53.983Z</time></trkpt><trkpt lat="43.03015" lon="12.69925"><ele>936.4000000000001</ele><time>2026-04-18T13:21:54.983Z</time></trkpt><trkpt lat="43.03021" lon="12.6993567"><ele>939.2</ele><time>2026-04-18T13:21:55.983Z</time></trkpt><trkpt lat="43.0302817" lon="12.6994667"><ele>942.0</ele><time>2026-04-18T13:21:56.983Z</time></trkpt><trkpt lat="43.030355" lon="12.6995617"><ele>944.4000000000001</ele><time>2026-04-18T13:21:57.983Z</time></trkpt><trkpt lat="43.030435" lon="12.6996567"><ele>946.8000000000001</ele><time>2026-04-18T13:21:58.983Z</time></trkpt><trkpt lat="43.0305267" lon="12.6997567"><ele>949.2</ele><time>2026-04-18T13:21:59.983Z</time></trkpt><trkpt lat="43.0306167" lon="12.699845"><ele>951.6</ele><time>2026-04-18T13:22:00.983Z</time></trkpt><trkpt lat="43.0307083" lon="12.6999333"><ele>954.0</ele><time>2026-04-18T13:22:01.983Z</time></trkpt><trkpt lat="43.0308067" lon="12.7000167"><ele>954.8000000000001</ele><time>2026-04-18T13:22:02.983Z</time></trkpt><trkpt lat="43.0309017" lon="12.7000983"><ele>955.6000000000001</ele><time>2026-04-18T13:22:03.983Z</time></trkpt><trkpt lat="43.030995" lon="12.7001767"><ele>956.4</ele><time>2026-04-18T13:22:04.983Z</time></trkpt><trkpt lat="43.0310983" lon="12.7002467"><ele>957.2</ele><time>2026-04-18T13:22:05.983Z</time></trkpt><trkpt lat="43.0312" lon="12.7003067"><ele>958.0</ele><time>2026-04-18T13:22:06.983Z</time></trkpt><trkpt lat="43.0313017" lon="12.70036"><ele>960.8</ele><time>2026-04-18T13:22:07.983Z</time></trkpt><trkpt lat="43.0314083" lon="12.7004083"><ele>963.5999999999999</ele><time>2026-04-18T13:22:08.983Z</time></trkpt><trkpt lat="43.0315067" lon="12.7004567"><ele>966.4000000000001</ele><time>2026-04-18T13:22:09.983Z</time></trkpt><trkpt lat="43.031605" lon="12.7005167"><ele>969.2</ele><time>2026-04-18T13:22:10.983Z</time></trkpt><trkpt lat="43.0317017" lon="12.7005783"><ele>972.0</ele><time>2026-04-18T13:22:11.983Z</time></trkpt><trkpt lat="43.0318" lon="12.7006417"><ele>972.2</ele><time>2026-04-18T13:22:12.983Z</time></trkpt><trkpt lat="43.031895" lon="12.7007067"><ele>972.4000000000001</ele><time>2026-04-18T13:22:13.983Z</time></trkpt><trkpt lat="43.0319817" lon="12.7007617"><ele>972.5999999999999</ele><time>2026-04-18T13:22:14.983Z</time></trkpt><trkpt lat="43.032055" lon="12.7008183"><ele>972.8</ele><time>2026-04-18T13:22:15.983Z</time></trkpt><trkpt lat="43.0321167" lon="12.7008767"><ele>973.0</ele><time>2026-04-18T13:22:16.983Z</time></trkpt><trkpt lat="43.0322033" lon="12.7009617"><ele>972.9999999999999</ele><time>2026-04-18T13:22:18.983Z</time></trkpt><trkpt lat="43.0322567" lon="12.701025"><ele>973.0</ele><time>2026-04-18T13:22:20.983Z</time></trkpt><trkpt lat="43.0323117" lon="12.701115"><ele>973.0</ele><time>2026-04-18T13:22:23.983Z</time></trkpt><trkpt lat="43.032335" lon="12.70123"><ele>973.0</ele><time>2026-04-18T13:22:26.983Z</time></trkpt><trkpt lat="43.032295" lon="12.7012983"><ele>972.9999999999999</ele><time>2026-04-18T13:22:28.983Z</time></trkpt><trkpt lat="43.0322183" lon="12.7013183"><ele>973.0</ele><time>2026-04-18T13:22:30.983Z</time></trkpt><trkpt lat="43.0321383" lon="12.7013133"><ele>973.3333333333333</ele><time>2026-04-18T13:22:32.983Z</time></trkpt><trkpt lat="43.032055" lon="12.7013517"><ele>973.6666666666666</ele><time>2026-04-18T13:22:34.983Z</time></trkpt><trkpt lat="43.0319767" lon="12.7014033"><ele>974.0</ele><time>2026-04-18T13:22:36.983Z</time></trkpt><trkpt lat="43.0319133" lon="12.7014417"><ele>974.3333333333333</ele><time>2026-04-18T13:22:38.983Z</time></trkpt><trkpt lat="43.0318533" lon="12.7014917"><ele>974.6666666666666</ele><time>2026-04-18T13:22:40.983Z</time></trkpt><trkpt lat="43.0317883" lon="12.7015433"><ele>975.0</ele><time>2026-04-18T13:22:42.983Z</time></trkpt><trkpt lat="43.03172" lon="12.7015667"><ele>975.0</ele><time>2026-04-18T13:22:44.983Z</time></trkpt><trkpt lat="43.0316567" lon="12.7016083"><ele>974.9999999999999</ele><time>2026-04-18T13:22:46.983Z</time></trkpt><trkpt lat="43.03164" lon="12.7016967"><ele>975.0</ele><time>2026-04-18T13:22:49.983Z</time></trkpt><trkpt lat="43.0317133" lon="12.7017467"><ele>975.0</ele><time>2026-04-18T13:26:19.982Z</time></trkpt><trkpt lat="43.0317783" lon="12.7017117"><ele>974.9999999999999</ele><time>2026-04-18T13:26:23.982Z</time></trkpt><trkpt lat="43.03182" lon="12.701645"><ele>975.0</ele><time>2026-04-18T13:26:25.982Z</time></trkpt><trkpt lat="43.0318667" lon="12.70157"><ele>975.0</ele><time>2026-04-18T13:26:27.982Z</time></trkpt><trkpt lat="43.0319117" lon="12.7014917"><ele>975.0</ele><time>2026-04-18T13:26:29.982Z</time></trkpt><trkpt lat="43.0319533" lon="12.7014217"><ele>974.9999999999999</ele><time>2026-04-18T13:26:31.982Z</time></trkpt><trkpt lat="43.032005" lon="12.701345"><ele>975.0</ele><time>2026-04-18T13:26:33.982Z</time></trkpt><trkpt lat="43.032055" lon="12.701265"><ele>975.0</ele><time>2026-04-18T13:26:35.982Z</time></trkpt><trkpt lat="43.03211" lon="12.7011817"><ele>974.9999999999999</ele><time>2026-04-18T13:26:37.982Z</time></trkpt><trkpt lat="43.032155" lon="12.7011"><ele>975.0</ele><time>2026-04-18T13:26:39.982Z</time></trkpt><trkpt lat="43.0322117" lon="12.70104"><ele>975.0</ele><time>2026-04-18T13:26:41.982Z</time></trkpt><trkpt lat="43.0322933" lon="12.7010067"><ele>974.6</ele><time>2026-04-18T13:26:44.982Z</time></trkpt><trkpt lat="43.0323667" lon="12.7010067"><ele>974.2</ele><time>2026-04-18T13:26:46.982Z</time></trkpt><trkpt lat="43.0324483" lon="12.7009783"><ele>973.8</ele><time>2026-04-18T13:26:48.982Z</time></trkpt><trkpt lat="43.032515" lon="12.7008717"><ele>973.4</ele><time>2026-04-18T13:26:50.982Z</time></trkpt><trkpt lat="43.03254" lon="12.7007317"><ele>973.0</ele><time>2026-04-18T13:26:52.982Z</time></trkpt><trkpt lat="43.0325483" lon="12.7005683"><ele>973.9999999999999</ele><time>2026-04-18T13:26:54.982Z</time></trkpt><trkpt lat="43.03255" lon="12.7004717"><ele>975.0</ele><time>2026-04-18T13:26:55.982Z</time></trkpt><trkpt lat="43.0325517" lon="12.7003717"><ele>976.0</ele><time>2026-04-18T13:26:56.982Z</time></trkpt><trkpt lat="43.03256" lon="12.7002633"><ele>977.0</ele><time>2026-04-18T13:26:57.982Z</time></trkpt><trkpt lat="43.0325667" lon="12.700165"><ele>977.9999999999999</ele><time>2026-04-18T13:26:58.982Z</time></trkpt><trkpt lat="43.0325717" lon="12.7000583"><ele>979.0</ele><time>2026-04-18T13:26:59.982Z</time></trkpt><trkpt lat="43.0325783" lon="12.69995"><ele>978.9999999999999</ele><time>2026-04-18T13:27:00.982Z</time></trkpt><trkpt lat="43.0325867" lon="12.6998433"><ele>979.0</ele><time>2026-04-18T13:27:01.982Z</time></trkpt><trkpt lat="43.0325933" lon="12.6997367"><ele>979.0</ele><time>2026-04-18T13:27:02.982Z</time></trkpt><trkpt lat="43.0326033" lon="12.6996217"><ele>979.0</ele><time>2026-04-18T13:27:03.982Z</time></trkpt><trkpt lat="43.0326083" lon="12.699495"><ele>978.9999999999999</ele><time>2026-04-18T13:27:04.982Z</time></trkpt><trkpt lat="43.0326167" lon="12.6993617"><ele>979.0</ele><time>2026-04-18T13:27:05.982Z</time></trkpt><trkpt lat="43.0326283" lon="12.6992267"><ele>979.8000000000001</ele><time>2026-04-18T13:27:06.982Z</time></trkpt><trkpt lat="43.0326383" lon="12.699095"><ele>980.6000000000001</ele><time>2026-04-18T13:27:07.982Z</time></trkpt><trkpt lat="43.0326467" lon="12.6989583"><ele>981.4</ele><time>2026-04-18T13:27:08.982Z</time></trkpt><trkpt lat="43.0326517" lon="12.69882"><ele>982.2</ele><time>2026-04-18T13:27:09.982Z</time></trkpt><trkpt lat="43.0326633" lon="12.6986867"><ele>983.0</ele><time>2026-04-18T13:27:10.982Z</time></trkpt><trkpt lat="43.0326733" lon="12.698555"><ele>983.5999999999999</ele><time>2026-04-18T13:27:11.982Z</time></trkpt><trkpt lat="43.0326867" lon="12.69841"><ele>984.1999999999999</ele><time>2026-04-18T13:27:12.982Z</time></trkpt><trkpt lat="43.032695" lon="12.6982583"><ele>984.8</ele><time>2026-04-18T13:27:13.982Z</time></trkpt><trkpt lat="43.0327033" lon="12.6981117"><ele>985.4</ele><time>2026-04-18T13:27:14.982Z</time></trkpt><trkpt lat="43.0327117" lon="12.697965"><ele>986.0</ele><time>2026-04-18T13:27:15.982Z</time></trkpt><trkpt lat="43.0327167" lon="12.6978167"><ele>987.0</ele><time>2026-04-18T13:27:16.982Z</time></trkpt><trkpt lat="43.032725" lon="12.69767"><ele>987.9999999999999</ele><time>2026-04-18T13:27:17.982Z</time></trkpt><trkpt lat="43.0327333" lon="12.6975217"><ele>988.9999999999999</ele><time>2026-04-18T13:27:18.982Z</time></trkpt><trkpt lat="43.0327383" lon="12.6973717"><ele>990.0</ele><time>2026-04-18T13:27:19.982Z</time></trkpt><trkpt lat="43.0327433" lon="12.6972217"><ele>991.0</ele><time>2026-04-18T13:27:20.982Z</time></trkpt><trkpt lat="43.03275" lon="12.6970817"><ele>990.9999999999999</ele><time>2026-04-18T13:27:21.982Z</time></trkpt><trkpt lat="43.0327567" lon="12.6969533"><ele>991.0</ele><time>2026-04-18T13:27:22.982Z</time></trkpt><trkpt lat="43.032765" lon="12.6968333"><ele>991.0</ele><time>2026-04-18T13:27:23.982Z</time></trkpt><trkpt lat="43.03278" lon="12.6967133"><ele>991.0</ele><time>2026-04-18T13:27:24.982Z</time></trkpt><trkpt lat="43.0327967" lon="12.6965967"><ele>990.9999999999999</ele><time>2026-04-18T13:27:25.982Z</time></trkpt><trkpt lat="43.0328233" lon="12.6964817"><ele>991.0</ele><time>2026-04-18T13:27:26.982Z</time></trkpt><trkpt lat="43.0328533" lon="12.6963633"><ele>991.5999999999999</ele><time>2026-04-18T13:27:27.982Z</time></trkpt><trkpt lat="43.03289" lon="12.6962317"><ele>992.1999999999999</ele><time>2026-04-18T13:27:28.982Z</time></trkpt><trkpt lat="43.0329267" lon="12.696105"><ele>992.8000000000001</ele><time>2026-04-18T13:27:29.982Z</time></trkpt><trkpt lat="43.0329617" lon="12.6959833"><ele>993.4000000000001</ele><time>2026-04-18T13:27:30.982Z</time></trkpt><trkpt lat="43.0329983" lon="12.6958483"><ele>994.0</ele><time>2026-04-18T13:27:31.982Z</time></trkpt><trkpt lat="43.03304" lon="12.6957183"><ele>994.0</ele><time>2026-04-18T13:27:32.982Z</time></trkpt><trkpt lat="43.0330783" lon="12.6955867"><ele>994.0000000000001</ele><time>2026-04-18T13:27:33.982Z</time></trkpt><trkpt lat="43.0331167" lon="12.6954567"><ele>994.0000000000001</ele><time>2026-04-18T13:27:34.982Z</time></trkpt><trkpt lat="43.0331533" lon="12.695325"><ele>994.0</ele><time>2026-04-18T13:27:35.982Z</time></trkpt><trkpt lat="43.03319" lon="12.695195"><ele>994.0</ele><time>2026-04-18T13:27:36.982Z</time></trkpt><trkpt lat="43.033225" lon="12.69506"><ele>994.0</ele><time>2026-04-18T13:27:37.982Z</time></trkpt><trkpt lat="43.033265" lon="12.6949167"><ele>994.0000000000001</ele><time>2026-04-18T13:27:38.982Z</time></trkpt><trkpt lat="43.033305" lon="12.6947817"><ele>994.0000000000001</ele><time>2026-04-18T13:27:39.982Z</time></trkpt><trkpt lat="43.0333517" lon="12.694645"><ele>994.0</ele><time>2026-04-18T13:27:40.982Z</time></trkpt><trkpt lat="43.0333917" lon="12.694505"><ele>994.0</ele><time>2026-04-18T13:27:41.982Z</time></trkpt><trkpt lat="43.0334367" lon="12.6943783"><ele>998.0</ele><time>2026-04-18T13:27:42.982Z</time></trkpt><trkpt lat="43.0334817" lon="12.69424"><ele>1002.0000000000001</ele><time>2026-04-18T13:27:43.982Z</time></trkpt><trkpt lat="43.033525" lon="12.6941"><ele>1006.0000000000001</ele><time>2026-04-18T13:27:44.982Z</time></trkpt><trkpt lat="43.0335783" lon="12.6939683"><ele>1010.0</ele><time>2026-04-18T13:27:45.982Z</time></trkpt><trkpt lat="43.0336283" lon="12.693845"><ele>1014.0</ele><time>2026-04-18T13:27:46.982Z</time></trkpt><trkpt lat="43.03368" lon="12.69373"><ele>1014.0</ele><time>2026-04-18T13:27:47.982Z</time></trkpt><trkpt lat="43.0337333" lon="12.693615"><ele>1014.0000000000001</ele><time>2026-04-18T13:27:48.982Z</time></trkpt><trkpt lat="43.033795" lon="12.6935083"><ele>1014.0000000000001</ele><time>2026-04-18T13:27:49.982Z</time></trkpt><trkpt lat="43.0338517" lon="12.6933967"><ele>1014.0</ele><time>2026-04-18T13:27:50.982Z</time></trkpt><trkpt lat="43.03391" lon="12.6932883"><ele>1014.0</ele><time>2026-04-18T13:27:51.982Z</time></trkpt><trkpt lat="43.0339733" lon="12.6931933"><ele>1013.6</ele><time>2026-04-18T13:27:52.982Z</time></trkpt><trkpt lat="43.034035" lon="12.693085"><ele>1013.2</ele><time>2026-04-18T13:27:53.982Z</time></trkpt><trkpt lat="43.0340867" lon="12.69297"><ele>1012.8000000000001</ele><time>2026-04-18T13:27:54.982Z</time></trkpt><trkpt lat="43.0341233" lon="12.6928433"><ele>1012.4000000000001</ele><time>2026-04-18T13:27:55.982Z</time></trkpt><trkpt lat="43.0341467" lon="12.6927117"><ele>1012.0</ele><time>2026-04-18T13:27:56.982Z</time></trkpt><trkpt lat="43.0341483" lon="12.6925733"><ele>1011.8</ele><time>2026-04-18T13:27:57.982Z</time></trkpt><trkpt lat="43.034135" lon="12.6924267"><ele>1011.6</ele><time>2026-04-18T13:27:58.982Z</time></trkpt><trkpt lat="43.0341233" lon="12.6922867"><ele>1011.3999999999999</ele><time>2026-04-18T13:27:59.982Z</time></trkpt><trkpt lat="43.034115" lon="12.6921517"><ele>1011.1999999999999</ele><time>2026-04-18T13:28:00.982Z</time></trkpt><trkpt lat="43.0341117" lon="12.6920267"><ele>1011.0</ele><time>2026-04-18T13:28:01.982Z</time></trkpt><trkpt lat="43.0341067" lon="12.69189"><ele>1011.0</ele><time>2026-04-18T13:28:02.982Z</time></trkpt><trkpt lat="43.034105" lon="12.6917483"><ele>1010.9999999999999</ele><time>2026-04-18T13:28:03.982Z</time></trkpt><trkpt lat="43.034105" lon="12.6916017"><ele>1010.9999999999999</ele><time>2026-04-18T13:28:04.982Z</time></trkpt><trkpt lat="43.034105" lon="12.6914533"><ele>1011.0</ele><time>2026-04-18T13:28:05.982Z</time></trkpt><trkpt lat="43.03411" lon="12.6913067"><ele>1011.0</ele><time>2026-04-18T13:28:06.982Z</time></trkpt><trkpt lat="43.0341183" lon="12.69116"><ele>1011.8</ele><time>2026-04-18T13:28:07.982Z</time></trkpt><trkpt lat="43.0341267" lon="12.69101"><ele>1012.5999999999999</ele><time>2026-04-18T13:28:08.982Z</time></trkpt><trkpt lat="43.03414" lon="12.6908617"><ele>1013.4</ele><time>2026-04-18T13:28:09.982Z</time></trkpt><trkpt lat="43.0341567" lon="12.6907217"><ele>1014.2</ele><time>2026-04-18T13:28:10.982Z</time></trkpt><trkpt lat="43.0341767" lon="12.6905683"><ele>1015.0</ele><time>2026-04-18T13:28:11.982Z</time></trkpt><trkpt lat="43.0341933" lon="12.6904133"><ele>1021.0</ele><time>2026-04-18T13:28:12.982Z</time></trkpt><trkpt lat="43.034215" lon="12.6902617"><ele>1027.0</ele><time>2026-04-18T13:28:13.982Z</time></trkpt><trkpt lat="43.03424" lon="12.6901067"><ele>1033.0</ele><time>2026-04-18T13:28:14.982Z</time></trkpt><trkpt lat="43.0342617" lon="12.6899483"><ele>1039.0</ele><time>2026-04-18T13:28:15.982Z</time></trkpt><trkpt lat="43.034285" lon="12.689795"><ele>1039.0</ele><time>2026-04-18T13:28:16.982Z</time></trkpt><trkpt lat="43.0343117" lon="12.6896433"><ele>1039.0</ele><time>2026-04-18T13:28:17.982Z</time></trkpt><trkpt lat="43.0343383" lon="12.6894833"><ele>1039.0</ele><time>2026-04-18T13:28:18.982Z</time></trkpt><trkpt lat="43.03437" lon="12.6893217"><ele>1039.0</ele><time>2026-04-18T13:28:19.982Z</time></trkpt><trkpt lat="43.0343983" lon="12.6891667"><ele>1039.75</ele><time>2026-04-18T13:28:20.982Z</time></trkpt><trkpt lat="43.0344267" lon="12.689015"><ele>1040.5</ele><time>2026-04-18T13:28:21.982Z</time></trkpt><trkpt lat="43.0344483" lon="12.68886"><ele>1041.25</ele><time>2026-04-18T13:28:22.982Z</time></trkpt><trkpt lat="43.0344733" lon="12.6887117"><ele>1042.0</ele><time>2026-04-18T13:28:23.982Z</time></trkpt><trkpt lat="43.0345033" lon="12.6885683"><ele>1042.2</ele><time>2026-04-18T13:28:24.982Z</time></trkpt><trkpt lat="43.0345333" lon="12.688425"><ele>1042.4</ele><time>2026-04-18T13:28:25.982Z</time></trkpt><trkpt lat="43.0345533" lon="12.6882833"><ele>1042.6</ele><time>2026-04-18T13:28:26.982Z</time></trkpt><trkpt lat="43.034575" lon="12.6881433"><ele>1042.8</ele><time>2026-04-18T13:28:27.982Z</time></trkpt><trkpt lat="43.0346" lon="12.6880083"><ele>1043.0</ele><time>2026-04-18T13:28:28.982Z</time></trkpt><trkpt lat="43.0346267" lon="12.68786"><ele>1042.75</ele><time>2026-04-18T13:28:29.982Z</time></trkpt><trkpt lat="43.0346567" lon="12.68771"><ele>1042.5</ele><time>2026-04-18T13:28:30.982Z</time></trkpt><trkpt lat="43.0346883" lon="12.6875533"><ele>1042.25</ele><time>2026-04-18T13:28:31.982Z</time></trkpt><trkpt lat="43.0347217" lon="12.687405"><ele>1042.0</ele><time>2026-04-18T13:28:32.982Z</time></trkpt><trkpt lat="43.0347533" lon="12.687255"><ele>1042.0</ele><time>2026-04-18T13:28:33.982Z</time></trkpt><trkpt lat="43.03479" lon="12.6871067"><ele>1042.0</ele><time>2026-04-18T13:28:34.982Z</time></trkpt><trkpt lat="43.0348283" lon="12.6869583"><ele>1042.0</ele><time>2026-04-18T13:28:35.982Z</time></trkpt><trkpt lat="43.03487" lon="12.6868167"><ele>1042.0</ele><time>2026-04-18T13:28:36.982Z</time></trkpt><trkpt lat="43.0349067" lon="12.6866783"><ele>1042.0</ele><time>2026-04-18T13:28:37.982Z</time></trkpt><trkpt lat="43.0349417" lon="12.6865367"><ele>1047.25</ele><time>2026-04-18T13:28:38.982Z</time></trkpt><trkpt lat="43.0349833" lon="12.6863933"><ele>1052.5</ele><time>2026-04-18T13:28:39.982Z</time></trkpt><trkpt lat="43.0350217" lon="12.68625"><ele>1057.75</ele><time>2026-04-18T13:28:40.982Z</time></trkpt><trkpt lat="43.0350717" lon="12.686105"><ele>1063.0</ele><time>2026-04-18T13:28:41.982Z</time></trkpt><trkpt lat="43.035125" lon="12.6859583"><ele>1063.0</ele><time>2026-04-18T13:28:42.982Z</time></trkpt><trkpt lat="43.0351733" lon="12.6858233"><ele>1063.0</ele><time>2026-04-18T13:28:43.982Z</time></trkpt><trkpt lat="43.03522" lon="12.6857017"><ele>1063.0</ele><time>2026-04-18T13:28:44.982Z</time></trkpt><trkpt lat="43.03526" lon="12.6855967"><ele>1063.0</ele><time>2026-04-18T13:28:45.982Z</time></trkpt><trkpt lat="43.0352933" lon="12.6855067"><ele>1063.0</ele><time>2026-04-18T13:28:46.982Z</time></trkpt><trkpt lat="43.0353267" lon="12.68543"><ele>1063.0</ele><time>2026-04-18T13:28:47.982Z</time></trkpt><trkpt lat="43.0354033" lon="12.68532"><ele>1063.0</ele><time>2026-04-18T13:28:49.982Z</time></trkpt><trkpt lat="43.0354917" lon="12.6853067"><ele>1063.0</ele><time>2026-04-18T13:28:51.982Z</time></trkpt><trkpt lat="43.03555" lon="12.6854067"><ele>1063.0</ele><time>2026-04-18T13:28:53.982Z</time></trkpt><trkpt lat="43.03553" lon="12.6855717"><ele>1063.0</ele><time>2026-04-18T13:28:55.982Z</time></trkpt><trkpt lat="43.0354883" lon="12.6856683"><ele>1063.0</ele><time>2026-04-18T13:28:56.982Z</time></trkpt><trkpt lat="43.035445" lon="12.6857717"><ele>1063.0</ele><time>2026-04-18T13:28:57.982Z</time></trkpt><trkpt lat="43.0354067" lon="12.6858817"><ele>1063.0</ele><time>2026-04-18T13:28:58.982Z</time></trkpt><trkpt lat="43.0353767" lon="12.6859917"><ele>1063.0</ele><time>2026-04-18T13:28:59.982Z</time></trkpt><trkpt lat="43.0353533" lon="12.6860967"><ele>1063.0</ele><time>2026-04-18T13:29:00.982Z</time></trkpt><trkpt lat="43.03533" lon="12.6862133"><ele>1063.0</ele><time>2026-04-18T13:29:01.982Z</time></trkpt><trkpt lat="43.035315" lon="12.6863283"><ele>1063.0</ele><time>2026-04-18T13:29:02.982Z</time></trkpt><trkpt lat="43.0353167" lon="12.6864533"><ele>1064.2</ele><time>2026-04-18T13:29:03.982Z</time></trkpt><trkpt lat="43.03533" lon="12.6865817"><ele>1065.4</ele><time>2026-04-18T13:29:04.982Z</time></trkpt><trkpt lat="43.0353383" lon="12.6867167"><ele>1066.6000000000001</ele><time>2026-04-18T13:29:05.982Z</time></trkpt><trkpt lat="43.0353483" lon="12.68685"><ele>1067.8</ele><time>2026-04-18T13:29:06.982Z</time></trkpt><trkpt lat="43.0353617" lon="12.68699"><ele>1069.0</ele><time>2026-04-18T13:29:07.982Z</time></trkpt><trkpt lat="43.0353833" lon="12.6871333"><ele>1069.4</ele><time>2026-04-18T13:29:08.982Z</time></trkpt><trkpt lat="43.0354133" lon="12.687275"><ele>1069.8000000000002</ele><time>2026-04-18T13:29:09.982Z</time></trkpt><trkpt lat="43.0354383" lon="12.6874233"><ele>1070.1999999999998</ele><time>2026-04-18T13:29:10.982Z</time></trkpt><trkpt lat="43.035465" lon="12.6875733"><ele>1070.6</ele><time>2026-04-18T13:29:11.982Z</time></trkpt><trkpt lat="43.0354883" lon="12.6877167"><ele>1071.0</ele><time>2026-04-18T13:29:12.982Z</time></trkpt><trkpt lat="43.03551" lon="12.6878567"><ele>1071.0</ele><time>2026-04-18T13:29:13.982Z</time></trkpt><trkpt lat="43.03553" lon="12.6879933"><ele>1071.0</ele><time>2026-04-18T13:29:14.982Z</time></trkpt><trkpt lat="43.0355517" lon="12.688125"><ele>1071.0</ele><time>2026-04-18T13:29:15.982Z</time></trkpt><trkpt lat="43.0355717" lon="12.6882617"><ele>1071.0</ele><time>2026-04-18T13:29:16.982Z</time></trkpt><trkpt lat="43.0355917" lon="12.688405"><ele>1071.0</ele><time>2026-04-18T13:29:17.982Z</time></trkpt><trkpt lat="43.0356117" lon="12.6885433"><ele>1071.0</ele><time>2026-04-18T13:29:18.982Z</time></trkpt><trkpt lat="43.0356383" lon="12.6886783"><ele>1071.0</ele><time>2026-04-18T13:29:19.982Z</time></trkpt><trkpt lat="43.0356667" lon="12.688815"><ele>1071.0</ele><time>2026-04-18T13:29:20.982Z</time></trkpt><trkpt lat="43.035695" lon="12.68895"><ele>1071.0</ele><time>2026-04-18T13:29:21.982Z</time></trkpt><trkpt lat="43.0357317" lon="12.6890883"><ele>1071.0</ele><time>2026-04-18T13:29:22.982Z</time></trkpt><trkpt lat="43.03577" lon="12.6892283"><ele>1071.0</ele><time>2026-04-18T13:29:23.982Z</time></trkpt><trkpt lat="43.0358033" lon="12.689365"><ele>1071.0</ele><time>2026-04-18T13:29:24.982Z</time></trkpt><trkpt lat="43.0358417" lon="12.6895033"><ele>1071.0</ele><time>2026-04-18T13:29:25.982Z</time></trkpt><trkpt lat="43.035885" lon="12.68964"><ele>1071.0</ele><time>2026-04-18T13:29:26.982Z</time></trkpt><trkpt lat="43.03593" lon="12.6897783"><ele>1071.0</ele><time>2026-04-18T13:29:27.982Z</time></trkpt><trkpt lat="43.0359717" lon="12.6899133"><ele>1075.2</ele><time>2026-04-18T13:29:28.982Z</time></trkpt><trkpt lat="43.0360183" lon="12.6900517"><ele>1079.3999999999999</ele><time>2026-04-18T13:29:29.982Z</time></trkpt><trkpt lat="43.0360633" lon="12.6901833"><ele>1083.6</ele><time>2026-04-18T13:29:30.982Z</time></trkpt><trkpt lat="43.0361083" lon="12.6903117"><ele>1087.8</ele><time>2026-04-18T13:29:31.982Z</time></trkpt><trkpt lat="43.0361567" lon="12.6904383"><ele>1092.0</ele><time>2026-04-18T13:29:32.982Z</time></trkpt><trkpt lat="43.0362033" lon="12.6905617"><ele>1092.0</ele><time>2026-04-18T13:29:33.982Z</time></trkpt><trkpt lat="43.036245" lon="12.6906767"><ele>1092.0</ele><time>2026-04-18T13:29:34.982Z</time></trkpt><trkpt lat="43.03629" lon="12.690795"><ele>1092.0</ele><time>2026-04-18T13:29:35.982Z</time></trkpt><trkpt lat="43.036335" lon="12.6909167"><ele>1092.0</ele><time>2026-04-18T13:29:36.982Z</time></trkpt><trkpt lat="43.036385" lon="12.6910383"><ele>1092.0</ele><time>2026-04-18T13:29:37.982Z</time></trkpt><trkpt lat="43.0364367" lon="12.691165"><ele>1091.4</ele><time>2026-04-18T13:29:38.982Z</time></trkpt><trkpt lat="43.036485" lon="12.6912917"><ele>1090.8000000000002</ele><time>2026-04-18T13:29:39.982Z</time></trkpt><trkpt lat="43.036535" lon="12.6914183"><ele>1090.2</ele><time>2026-04-18T13:29:40.982Z</time></trkpt><trkpt lat="43.0365867" lon="12.6915517"><ele>1089.6000000000001</ele><time>2026-04-18T13:29:41.982Z</time></trkpt><trkpt lat="43.03664" lon="12.6916883"><ele>1089.0</ele><time>2026-04-18T13:29:42.982Z</time></trkpt><trkpt lat="43.0366933" lon="12.6918217"><ele>1092.2</ele><time>2026-04-18T13:29:43.982Z</time></trkpt><trkpt lat="43.0367483" lon="12.6919583"><ele>1095.4</ele><time>2026-04-18T13:29:44.982Z</time></trkpt><trkpt lat="43.0368033" lon="12.6920867"><ele>1098.6</ele><time>2026-04-18T13:29:45.982Z</time></trkpt><trkpt lat="43.0368633" lon="12.692215"><ele>1101.8</ele><time>2026-04-18T13:29:46.982Z</time></trkpt><trkpt lat="43.03693" lon="12.692335"><ele>1105.0</ele><time>2026-04-18T13:29:47.981Z</time></trkpt><trkpt lat="43.0369983" lon="12.69245"><ele>1105.0</ele><time>2026-04-18T13:29:48.981Z</time></trkpt><trkpt lat="43.037065" lon="12.69256"><ele>1105.0</ele><time>2026-04-18T13:29:49.981Z</time></trkpt><trkpt lat="43.0371367" lon="12.692665"><ele>1105.0</ele><time>2026-04-18T13:29:50.981Z</time></trkpt><trkpt lat="43.0372133" lon="12.69277"><ele>1105.0</ele><time>2026-04-18T13:29:51.981Z</time></trkpt><trkpt lat="43.037285" lon="12.6928767"><ele>1105.0</ele><time>2026-04-18T13:29:52.981Z</time></trkpt><trkpt lat="43.0373667" lon="12.69299"><ele>1104.5</ele><time>2026-04-18T13:29:53.981Z</time></trkpt><trkpt lat="43.0374417" lon="12.6931083"><ele>1104.0</ele><time>2026-04-18T13:29:54.981Z</time></trkpt><trkpt lat="43.03751" lon="12.6932183"><ele>1103.5</ele><time>2026-04-18T13:29:55.981Z</time></trkpt><trkpt lat="43.0375683" lon="12.6933117"><ele>1103.0</ele><time>2026-04-18T13:29:56.981Z</time></trkpt><trkpt lat="43.03762" lon="12.6933833"><ele>1102.5</ele><time>2026-04-18T13:29:57.981Z</time></trkpt><trkpt lat="43.03767" lon="12.69344"><ele>1102.0</ele><time>2026-04-18T13:29:58.981Z</time></trkpt><trkpt lat="43.0377717" lon="12.69353"><ele>1104.8</ele><time>2026-04-18T13:30:00.981Z</time></trkpt><trkpt lat="43.0378733" lon="12.6935367"><ele>1107.6</ele><time>2026-04-18T13:30:02.981Z</time></trkpt><trkpt lat="43.0379483" lon="12.6934517"><ele>1110.3999999999999</ele><time>2026-04-18T13:30:04.981Z</time></trkpt><trkpt lat="43.0379767" lon="12.69329"><ele>1113.2</ele><time>2026-04-18T13:30:06.981Z</time></trkpt><trkpt lat="43.0379783" lon="12.693185"><ele>1116.0</ele><time>2026-04-18T13:30:07.981Z</time></trkpt><trkpt lat="43.037975" lon="12.69307"><ele>1116.0</ele><time>2026-04-18T13:30:08.981Z</time></trkpt><trkpt lat="43.03797" lon="12.69296"><ele>1116.0</ele><time>2026-04-18T13:30:09.981Z</time></trkpt><trkpt lat="43.037965" lon="12.6928317"><ele>1116.0</ele><time>2026-04-18T13:30:10.981Z</time></trkpt><trkpt lat="43.0379667" lon="12.6926983"><ele>1116.0</ele><time>2026-04-18T13:30:11.981Z</time></trkpt><trkpt lat="43.0379633" lon="12.6925583"><ele>1116.0</ele><time>2026-04-18T13:30:12.981Z</time></trkpt><trkpt lat="43.0379583" lon="12.6924067"><ele>1117.0</ele><time>2026-04-18T13:30:13.981Z</time></trkpt><trkpt lat="43.037955" lon="12.6922567"><ele>1118.0</ele><time>2026-04-18T13:30:14.981Z</time></trkpt><trkpt lat="43.0379517" lon="12.692115"><ele>1119.0</ele><time>2026-04-18T13:30:15.981Z</time></trkpt><trkpt lat="43.03795" lon="12.6919733"><ele>1120.0</ele><time>2026-04-18T13:30:16.981Z</time></trkpt><trkpt lat="43.03794" lon="12.6918383"><ele>1121.0</ele><time>2026-04-18T13:30:17.981Z</time></trkpt><trkpt lat="43.0379333" lon="12.6917033"><ele>1121.8</ele><time>2026-04-18T13:30:18.981Z</time></trkpt><trkpt lat="43.0379317" lon="12.69156"><ele>1122.6</ele><time>2026-04-18T13:30:19.981Z</time></trkpt><trkpt lat="43.0379333" lon="12.6914083"><ele>1123.4</ele><time>2026-04-18T13:30:20.981Z</time></trkpt><trkpt lat="43.0379383" lon="12.6912567"><ele>1124.2</ele><time>2026-04-18T13:30:21.981Z</time></trkpt><trkpt lat="43.0379417" lon="12.6911083"><ele>1125.0</ele><time>2026-04-18T13:30:22.981Z</time></trkpt><trkpt lat="43.0379433" lon="12.6909583"><ele>1126.25</ele><time>2026-04-18T13:30:23.981Z</time></trkpt><trkpt lat="43.0379383" lon="12.6908067"><ele>1127.5</ele><time>2026-04-18T13:30:24.981Z</time></trkpt><trkpt lat="43.037935" lon="12.690655"><ele>1128.75</ele><time>2026-04-18T13:30:25.981Z</time></trkpt><trkpt lat="43.0379367" lon="12.6904967"><ele>1130.0</ele><time>2026-04-18T13:30:26.981Z</time></trkpt><trkpt lat="43.0379367" lon="12.6903417"><ele>1131.25</ele><time>2026-04-18T13:30:27.981Z</time></trkpt><trkpt lat="43.037935" lon="12.690185"><ele>1132.5</ele><time>2026-04-18T13:30:28.981Z</time></trkpt><trkpt lat="43.037935" lon="12.6900367"><ele>1133.75</ele><time>2026-04-18T13:30:29.981Z</time></trkpt><trkpt lat="43.037935" lon="12.6898817"><ele>1135.0</ele><time>2026-04-18T13:30:30.981Z</time></trkpt><trkpt lat="43.0379367" lon="12.6897217"><ele>1135.0</ele><time>2026-04-18T13:30:31.981Z</time></trkpt><trkpt lat="43.0379467" lon="12.6895633"><ele>1135.0</ele><time>2026-04-18T13:30:32.981Z</time></trkpt><trkpt lat="43.0379583" lon="12.6893983"><ele>1135.0</ele><time>2026-04-18T13:30:33.981Z</time></trkpt><trkpt lat="43.03797" lon="12.68924"><ele>1135.0</ele><time>2026-04-18T13:30:34.981Z</time></trkpt><trkpt lat="43.037985" lon="12.6890767"><ele>1135.4</ele><time>2026-04-18T13:30:35.981Z</time></trkpt><trkpt lat="43.038005" lon="12.6889183"><ele>1135.8</ele><time>2026-04-18T13:30:36.981Z</time></trkpt><trkpt lat="43.0380317" lon="12.6887667"><ele>1136.2</ele><time>2026-04-18T13:30:37.981Z</time></trkpt><trkpt lat="43.038055" lon="12.6886183"><ele>1136.6</ele><time>2026-04-18T13:30:38.981Z</time></trkpt><trkpt lat="43.0380817" lon="12.6884767"><ele>1137.0</ele><time>2026-04-18T13:30:39.981Z</time></trkpt><trkpt lat="43.0381133" lon="12.6883383"><ele>1137.0</ele><time>2026-04-18T13:30:40.981Z</time></trkpt><trkpt lat="43.03815" lon="12.6881883"><ele>1137.0</ele><time>2026-04-18T13:30:41.981Z</time></trkpt><trkpt lat="43.0381867" lon="12.6880283"><ele>1137.0</ele><time>2026-04-18T13:30:42.981Z</time></trkpt><trkpt lat="43.0382133" lon="12.6878717"><ele>1137.0</ele><time>2026-04-18T13:30:43.981Z</time></trkpt><trkpt lat="43.038245" lon="12.68771"><ele>1137.5</ele><time>2026-04-18T13:30:44.981Z</time></trkpt><trkpt lat="43.0382733" lon="12.6875467"><ele>1138.0</ele><time>2026-04-18T13:30:45.981Z</time></trkpt><trkpt lat="43.0383017" lon="12.6873833"><ele>1138.5</ele><time>2026-04-18T13:30:46.981Z</time></trkpt><trkpt lat="43.03833" lon="12.6872167"><ele>1139.0</ele><time>2026-04-18T13:30:47.981Z</time></trkpt><trkpt lat="43.0383633" lon="12.6870533"><ele>1144.0</ele><time>2026-04-18T13:30:48.981Z</time></trkpt><trkpt lat="43.038405" lon="12.686895"><ele>1149.0</ele><time>2026-04-18T13:30:49.981Z</time></trkpt><trkpt lat="43.0384533" lon="12.686745"><ele>1154.0</ele><time>2026-04-18T13:30:50.981Z</time></trkpt><trkpt lat="43.0385033" lon="12.6865883"><ele>1159.0</ele><time>2026-04-18T13:30:51.981Z</time></trkpt><trkpt lat="43.0385483" lon="12.68645"><ele>1159.0</ele><time>2026-04-18T13:30:52.981Z</time></trkpt><trkpt lat="43.0385933" lon="12.6863217"><ele>1159.0</ele><time>2026-04-18T13:30:53.981Z</time></trkpt><trkpt lat="43.038645" lon="12.6862083"><ele>1159.0</ele><time>2026-04-18T13:30:54.981Z</time></trkpt><trkpt lat="43.0387033" lon="12.686105"><ele>1159.0</ele><time>2026-04-18T13:30:55.981Z</time></trkpt><trkpt lat="43.0387717" lon="12.6860167"><ele>1159.0</ele><time>2026-04-18T13:30:56.981Z</time></trkpt><trkpt lat="43.03885" lon="12.6859383"><ele>1158.4</ele><time>2026-04-18T13:30:57.981Z</time></trkpt><trkpt lat="43.0389317" lon="12.685875"><ele>1157.8000000000002</ele><time>2026-04-18T13:30:58.981Z</time></trkpt><trkpt lat="43.039025" lon="12.685825"><ele>1157.1999999999998</ele><time>2026-04-18T13:30:59.981Z</time></trkpt><trkpt lat="43.0391167" lon="12.6857733"><ele>1156.6</ele><time>2026-04-18T13:31:00.981Z</time></trkpt><trkpt lat="43.0392167" lon="12.6857183"><ele>1156.0</ele><time>2026-04-18T13:31:01.981Z</time></trkpt><trkpt lat="43.03932" lon="12.6856633"><ele>1159.5</ele><time>2026-04-18T13:31:02.981Z</time></trkpt><trkpt lat="43.0394283" lon="12.6856033"><ele>1163.0</ele><time>2026-04-18T13:31:03.981Z</time></trkpt><trkpt lat="43.0395333" lon="12.6855417"><ele>1166.5</ele><time>2026-04-18T13:31:04.981Z</time></trkpt><trkpt lat="43.039645" lon="12.68548"><ele>1170.0</ele><time>2026-04-18T13:31:05.981Z</time></trkpt><trkpt lat="43.03975" lon="12.685415"><ele>1170.0</ele><time>2026-04-18T13:31:06.981Z</time></trkpt><trkpt lat="43.0398533" lon="12.6853517"><ele>1170.0</ele><time>2026-04-18T13:31:07.981Z</time></trkpt><trkpt lat="43.0399483" lon="12.6852783"><ele>1170.0</ele><time>2026-04-18T13:31:08.981Z</time></trkpt><trkpt lat="43.04003" lon="12.6851867"><ele>1170.0</ele><time>2026-04-18T13:31:09.981Z</time></trkpt><trkpt lat="43.0401033" lon="12.68508"><ele>1170.0</ele><time>2026-04-18T13:31:10.981Z</time></trkpt><trkpt lat="43.04017" lon="12.684955"><ele>1170.0</ele><time>2026-04-18T13:31:11.981Z</time></trkpt><trkpt lat="43.0402383" lon="12.6848183"><ele>1170.0</ele><time>2026-04-18T13:31:12.981Z</time></trkpt><trkpt lat="43.04031" lon="12.68468"><ele>1170.0</ele><time>2026-04-18T13:31:13.981Z</time></trkpt><trkpt lat="43.040385" lon="12.68454"><ele>1170.0</ele><time>2026-04-18T13:31:14.981Z</time></trkpt><trkpt lat="43.0404583" lon="12.6844083"><ele>1170.0</ele><time>2026-04-18T13:31:15.981Z</time></trkpt><trkpt lat="43.0405283" lon="12.6842867"><ele>1170.0</ele><time>2026-04-18T13:31:16.981Z</time></trkpt><trkpt lat="43.0406067" lon="12.6841717"><ele>1170.0</ele><time>2026-04-18T13:31:17.981Z</time></trkpt><trkpt lat="43.0406933" lon="12.6840617"><ele>1170.0</ele><time>2026-04-18T13:31:18.981Z</time></trkpt><trkpt lat="43.0407867" lon="12.6839567"><ele>1173.0</ele><time>2026-04-18T13:31:19.981Z</time></trkpt><trkpt lat="43.0408783" lon="12.6838617"><ele>1176.0</ele><time>2026-04-18T13:31:20.981Z</time></trkpt><trkpt lat="43.04097" lon="12.6837717"><ele>1179.0</ele><time>2026-04-18T13:31:21.981Z</time></trkpt><trkpt lat="43.0410667" lon="12.6836817"><ele>1182.0</ele><time>2026-04-18T13:31:22.981Z</time></trkpt><trkpt lat="43.0411583" lon="12.6835933"><ele>1182.0</ele><time>2026-04-18T13:31:23.981Z</time></trkpt><trkpt lat="43.0412533" lon="12.683505"><ele>1182.0</ele><time>2026-04-18T13:31:24.981Z</time></trkpt><trkpt lat="43.04135" lon="12.6834167"><ele>1182.0</ele><time>2026-04-18T13:31:25.981Z</time></trkpt><trkpt lat="43.0414417" lon="12.6833233"><ele>1182.0</ele><time>2026-04-18T13:31:26.981Z</time></trkpt><trkpt lat="43.041525" lon="12.6832233"><ele>1182.0</ele><time>2026-04-18T13:31:27.981Z</time></trkpt><trkpt lat="43.0416" lon="12.6831183"><ele>1182.0</ele><time>2026-04-18T13:31:28.981Z</time></trkpt><trkpt lat="43.0416683" lon="12.6829867"><ele>1182.0</ele><time>2026-04-18T13:31:29.981Z</time></trkpt><trkpt lat="43.041725" lon="12.6828433"><ele>1182.0</ele><time>2026-04-18T13:31:30.981Z</time></trkpt><trkpt lat="43.0417667" lon="12.682695"><ele>1185.0</ele><time>2026-04-18T13:31:31.981Z</time></trkpt><trkpt lat="43.0417983" lon="12.6825483"><ele>1188.0</ele><time>2026-04-18T13:31:32.981Z</time></trkpt><trkpt lat="43.0418283" lon="12.6824"><ele>1191.0</ele><time>2026-04-18T13:31:33.981Z</time></trkpt><trkpt lat="43.0418567" lon="12.6822483"><ele>1194.0</ele><time>2026-04-18T13:31:34.981Z</time></trkpt><trkpt lat="43.0418883" lon="12.6820967"><ele>1194.0</ele><time>2026-04-18T13:31:35.981Z</time></trkpt><trkpt lat="43.0419217" lon="12.6819433"><ele>1194.0</ele><time>2026-04-18T13:31:36.981Z</time></trkpt><trkpt lat="43.0419617" lon="12.6818033"><ele>1194.0</ele><time>2026-04-18T13:31:37.981Z</time></trkpt><trkpt lat="43.0420117" lon="12.681665"><ele>1194.0</ele><time>2026-04-18T13:31:38.981Z</time></trkpt><trkpt lat="43.0420717" lon="12.681535"><ele>1193.0</ele><time>2026-04-18T13:31:39.981Z</time></trkpt><trkpt lat="43.0421367" lon="12.6814083"><ele>1192.0</ele><time>2026-04-18T13:31:40.981Z</time></trkpt><trkpt lat="43.0422067" lon="12.681285"><ele>1191.0</ele><time>2026-04-18T13:31:41.981Z</time></trkpt><trkpt lat="43.042285" lon="12.6811667"><ele>1190.0</ele><time>2026-04-18T13:31:42.981Z</time></trkpt><trkpt lat="43.0423733" lon="12.6810617"><ele>1193.25</ele><time>2026-04-18T13:31:43.981Z</time></trkpt><trkpt lat="43.0424667" lon="12.6809633"><ele>1196.5</ele><time>2026-04-18T13:31:44.981Z</time></trkpt><trkpt lat="43.0425733" lon="12.6808783"><ele>1199.75</ele><time>2026-04-18T13:31:45.981Z</time></trkpt><trkpt lat="43.0426783" lon="12.6807917"><ele>1203.0</ele><time>2026-04-18T13:31:46.981Z</time></trkpt><trkpt lat="43.0427817" lon="12.6807133"><ele>1203.0</ele><time>2026-04-18T13:31:47.981Z</time></trkpt><trkpt lat="43.0428917" lon="12.6806433"><ele>1203.0</ele><time>2026-04-18T13:31:48.981Z</time></trkpt><trkpt lat="43.042995" lon="12.6805917"><ele>1203.0</ele><time>2026-04-18T13:31:49.981Z</time></trkpt><trkpt lat="43.0431017" lon="12.6805333"><ele>1203.0</ele><time>2026-04-18T13:31:50.981Z</time></trkpt><trkpt lat="43.0432083" lon="12.680485"><ele>1205.2</ele><time>2026-04-18T13:31:51.981Z</time></trkpt><trkpt lat="43.0433117" lon="12.6804383"><ele>1207.4</ele><time>2026-04-18T13:31:52.981Z</time></trkpt><trkpt lat="43.0434217" lon="12.6804083"><ele>1209.6000000000001</ele><time>2026-04-18T13:31:53.981Z</time></trkpt><trkpt lat="43.0435283" lon="12.6803967"><ele>1211.8</ele><time>2026-04-18T13:31:54.981Z</time></trkpt><trkpt lat="43.04364" lon="12.6803983"><ele>1214.0</ele><time>2026-04-18T13:31:55.981Z</time></trkpt><trkpt lat="43.043755" lon="12.6804067"><ele>1214.0</ele><time>2026-04-18T13:31:56.981Z</time></trkpt><trkpt lat="43.0438633" lon="12.6804133"><ele>1214.0</ele><time>2026-04-18T13:31:57.981Z</time></trkpt><trkpt lat="43.0439633" lon="12.68041"><ele>1214.0</ele><time>2026-04-18T13:31:58.981Z</time></trkpt><trkpt lat="43.0440567" lon="12.6803867"><ele>1214.0</ele><time>2026-04-18T13:31:59.981Z</time></trkpt><trkpt lat="43.0441467" lon="12.6803433"><ele>1214.0</ele><time>2026-04-18T13:32:00.981Z</time></trkpt><trkpt lat="43.044235" lon="12.680285"><ele>1215.4</ele><time>2026-04-18T13:32:01.981Z</time></trkpt><trkpt lat="43.0443183" lon="12.6802133"><ele>1216.8000000000002</ele><time>2026-04-18T13:32:02.981Z</time></trkpt><trkpt lat="43.0443967" lon="12.6801333"><ele>1218.1999999999998</ele><time>2026-04-18T13:32:03.981Z</time></trkpt><trkpt lat="43.0444717" lon="12.6800433"><ele>1219.6</ele><time>2026-04-18T13:32:04.981Z</time></trkpt><trkpt lat="43.04455" lon="12.6799617"><ele>1221.0</ele><time>2026-04-18T13:32:05.981Z</time></trkpt><trkpt lat="43.0446283" lon="12.679885"><ele>1221.0</ele><time>2026-04-18T13:32:06.981Z</time></trkpt><trkpt lat="43.04471" lon="12.67982"><ele>1221.0</ele><time>2026-04-18T13:32:07.981Z</time></trkpt><trkpt lat="43.0447867" lon="12.6797533"><ele>1221.0</ele><time>2026-04-18T13:32:08.981Z</time></trkpt><trkpt lat="43.044855" lon="12.6796817"><ele>1221.0</ele><time>2026-04-18T13:32:09.981Z</time></trkpt><trkpt lat="43.044915" lon="12.679585"><ele>1221.0</ele><time>2026-04-18T13:32:10.981Z</time></trkpt><trkpt lat="43.0449633" lon="12.6794733"><ele>1223.0</ele><time>2026-04-18T13:32:11.981Z</time></trkpt><trkpt lat="43.045005" lon="12.6793517"><ele>1225.0</ele><time>2026-04-18T13:32:12.981Z</time></trkpt><trkpt lat="43.0450383" lon="12.6792183"><ele>1227.0</ele><time>2026-04-18T13:32:13.981Z</time></trkpt><trkpt lat="43.0450683" lon="12.6790833"><ele>1229.0</ele><time>2026-04-18T13:32:14.981Z</time></trkpt><trkpt lat="43.0451033" lon="12.678955"><ele>1231.0</ele><time>2026-04-18T13:32:15.981Z</time></trkpt><trkpt lat="43.0451417" lon="12.6788283"><ele>1231.0</ele><time>2026-04-18T13:32:16.981Z</time></trkpt><trkpt lat="43.0451833" lon="12.678705"><ele>1231.0</ele><time>2026-04-18T13:32:17.981Z</time></trkpt><trkpt lat="43.0452267" lon="12.6785817"><ele>1231.0</ele><time>2026-04-18T13:32:18.981Z</time></trkpt><trkpt lat="43.0452783" lon="12.67846"><ele>1231.0</ele><time>2026-04-18T13:32:19.981Z</time></trkpt><trkpt lat="43.04534" lon="12.6783417"><ele>1231.0</ele><time>2026-04-18T13:32:20.981Z</time></trkpt><trkpt lat="43.045405" lon="12.6782267"><ele>1231.0</ele><time>2026-04-18T13:32:21.981Z</time></trkpt><trkpt lat="43.0454783" lon="12.67811"><ele>1231.0</ele><time>2026-04-18T13:32:22.981Z</time></trkpt><trkpt lat="43.0455633" lon="12.6779967"><ele>1231.0</ele><time>2026-04-18T13:32:23.981Z</time></trkpt><trkpt lat="43.0456467" lon="12.677885"><ele>1231.0</ele><time>2026-04-18T13:32:24.981Z</time></trkpt><trkpt lat="43.0457317" lon="12.6777717"><ele>1235.25</ele><time>2026-04-18T13:32:25.981Z</time></trkpt><trkpt lat="43.04582" lon="12.6776683"><ele>1239.5</ele><time>2026-04-18T13:32:26.981Z</time></trkpt><trkpt lat="43.0459017" lon="12.6775583"><ele>1243.75</ele><time>2026-04-18T13:32:27.981Z</time></trkpt><trkpt lat="43.04598" lon="12.6774467"><ele>1248.0</ele><time>2026-04-18T13:32:28.981Z</time></trkpt><trkpt lat="43.0460583" lon="12.67734"><ele>1248.0</ele><time>2026-04-18T13:32:29.981Z</time></trkpt><trkpt lat="43.0461367" lon="12.6772367"><ele>1248.0</ele><time>2026-04-18T13:32:30.981Z</time></trkpt><trkpt lat="43.0462217" lon="12.6771333"><ele>1248.0</ele><time>2026-04-18T13:32:31.981Z</time></trkpt><trkpt lat="43.0463033" lon="12.6770267"><ele>1248.0</ele><time>2026-04-18T13:32:32.981Z</time></trkpt><trkpt lat="43.046385" lon="12.67692"><ele>1248.0</ele><time>2026-04-18T13:32:33.981Z</time></trkpt><trkpt lat="43.0464683" lon="12.67681"><ele>1249.25</ele><time>2026-04-18T13:32:34.981Z</time></trkpt><trkpt lat="43.0465533" lon="12.6767017"><ele>1250.5</ele><time>2026-04-18T13:32:35.981Z</time></trkpt><trkpt lat="43.046635" lon="12.6765967"><ele>1251.75</ele><time>2026-04-18T13:32:36.981Z</time></trkpt><trkpt lat="43.0467267" lon="12.6764983"><ele>1253.0</ele><time>2026-04-18T13:32:37.981Z</time></trkpt><trkpt lat="43.0468267" lon="12.6764017"><ele>1253.0</ele><time>2026-04-18T13:32:38.981Z</time></trkpt><trkpt lat="43.0469317" lon="12.6763067"><ele>1253.0</ele><time>2026-04-18T13:32:39.981Z</time></trkpt><trkpt lat="43.0470217" lon="12.67622"><ele>1253.0</ele><time>2026-04-18T13:32:40.981Z</time></trkpt><trkpt lat="43.0471083" lon="12.6761433"><ele>1253.0</ele><time>2026-04-18T13:32:41.981Z</time></trkpt><trkpt lat="43.047195" lon="12.67607"><ele>1253.0</ele><time>2026-04-18T13:32:42.981Z</time></trkpt><trkpt lat="43.0472767" lon="12.676"><ele>1252.6</ele><time>2026-04-18T13:32:43.981Z</time></trkpt><trkpt lat="43.04736" lon="12.6759483"><ele>1252.1999999999998</ele><time>2026-04-18T13:32:44.981Z</time></trkpt><trkpt lat="43.0474533" lon="12.675915"><ele>1251.8</ele><time>2026-04-18T13:32:45.981Z</time></trkpt><trkpt lat="43.04755" lon="12.6759033"><ele>1251.3999999999999</ele><time>2026-04-18T13:32:46.981Z</time></trkpt><trkpt lat="43.0476517" lon="12.6758933"><ele>1251.0</ele><time>2026-04-18T13:32:47.981Z</time></trkpt><trkpt lat="43.0477567" lon="12.6758817"><ele>1251.0</ele><time>2026-04-18T13:32:48.981Z</time></trkpt><trkpt lat="43.0478633" lon="12.67586"><ele>1251.0</ele><time>2026-04-18T13:32:49.981Z</time></trkpt><trkpt lat="43.0479667" lon="12.6758233"><ele>1251.0</ele><time>2026-04-18T13:32:50.981Z</time></trkpt><trkpt lat="43.0480667" lon="12.67576"><ele>1251.0</ele><time>2026-04-18T13:32:51.981Z</time></trkpt><trkpt lat="43.0481567" lon="12.67569"><ele>1251.0</ele><time>2026-04-18T13:32:52.981Z</time></trkpt><trkpt lat="43.0482417" lon="12.6756067"><ele>1251.3999999999999</ele><time>2026-04-18T13:32:53.981Z</time></trkpt><trkpt lat="43.0483167" lon="12.67551"><ele>1251.8</ele><time>2026-04-18T13:32:54.981Z</time></trkpt><trkpt lat="43.0483917" lon="12.675415"><ele>1252.1999999999998</ele><time>2026-04-18T13:32:55.981Z</time></trkpt><trkpt lat="43.0484583" lon="12.67533"><ele>1252.6</ele><time>2026-04-18T13:32:56.981Z</time></trkpt><trkpt lat="43.0485183" lon="12.675255"><ele>1253.0</ele><time>2026-04-18T13:32:57.981Z</time></trkpt><trkpt lat="43.048585" lon="12.6752083"><ele>1253.0</ele><time>2026-04-18T13:32:58.981Z</time></trkpt><trkpt lat="43.048655" lon="12.6751783"><ele>1253.0</ele><time>2026-04-18T13:32:59.981Z</time></trkpt><trkpt lat="43.0487333" lon="12.67517"><ele>1253.0</ele><time>2026-04-18T13:33:00.981Z</time></trkpt><trkpt lat="43.04881" lon="12.675175"><ele>1253.0</ele><time>2026-04-18T13:33:01.981Z</time></trkpt><trkpt lat="43.0489" lon="12.6751833"><ele>1253.0</ele><time>2026-04-18T13:33:02.981Z</time></trkpt><trkpt lat="43.049" lon="12.6751883"><ele>1253.0</ele><time>2026-04-18T13:33:03.981Z</time></trkpt><trkpt lat="43.0490983" lon="12.6752017"><ele>1253.0</ele><time>2026-04-18T13:33:04.981Z</time></trkpt><trkpt lat="43.049195" lon="12.6752167"><ele>1253.0</ele><time>2026-04-18T13:33:05.981Z</time></trkpt><trkpt lat="43.0492917" lon="12.675245"><ele>1253.0</ele><time>2026-04-18T13:33:06.981Z</time></trkpt><trkpt lat="43.0493783" lon="12.675295"><ele>1253.0</ele><time>2026-04-18T13:33:07.981Z</time></trkpt><trkpt lat="43.0494483" lon="12.675355"><ele>1253.0</ele><time>2026-04-18T13:33:08.981Z</time></trkpt><trkpt lat="43.0495183" lon="12.6754283"><ele>1253.0</ele><time>2026-04-18T13:33:09.981Z</time></trkpt><trkpt lat="43.0495883" lon="12.6755083"><ele>1253.0</ele><time>2026-04-18T13:33:10.981Z</time></trkpt><trkpt lat="43.0496617" lon="12.6756033"><ele>1253.0</ele><time>2026-04-18T13:33:11.981Z</time></trkpt><trkpt lat="43.0497367" lon="12.6757"><ele>1253.0</ele><time>2026-04-18T13:33:12.981Z</time></trkpt><trkpt lat="43.0498133" lon="12.6757833"><ele>1253.0</ele><time>2026-04-18T13:33:13.981Z</time></trkpt><trkpt lat="43.04989" lon="12.6758533"><ele>1252.4</ele><time>2026-04-18T13:33:14.981Z</time></trkpt><trkpt lat="43.0499717" lon="12.6759133"><ele>1251.8</ele><time>2026-04-18T13:33:15.981Z</time></trkpt><trkpt lat="43.0500567" lon="12.67596"><ele>1251.2</ele><time>2026-04-18T13:33:16.981Z</time></trkpt><trkpt lat="43.050145" lon="12.6759983"><ele>1250.6</ele><time>2026-04-18T13:33:17.981Z</time></trkpt><trkpt lat="43.0502333" lon="12.6760333"><ele>1250.0</ele><time>2026-04-18T13:33:18.981Z</time></trkpt><trkpt lat="43.0503183" lon="12.6760717"><ele>1249.5</ele><time>2026-04-18T13:33:19.981Z</time></trkpt><trkpt lat="43.0503933" lon="12.6761117"><ele>1249.0</ele><time>2026-04-18T13:33:20.981Z</time></trkpt><trkpt lat="43.0504617" lon="12.676165"><ele>1248.5</ele><time>2026-04-18T13:33:21.981Z</time></trkpt><trkpt lat="43.0505233" lon="12.6762333"><ele>1248.0</ele><time>2026-04-18T13:33:22.981Z</time></trkpt><trkpt lat="43.0505916" lon="12.676308"><ele>1247.5</ele><time>2026-04-18T13:33:23.981Z</time></trkpt><trkpt lat="43.0506583" lon="12.6763878"><ele>1247.0</ele><time>2026-04-18T13:33:24.981Z</time></trkpt><trkpt lat="43.0507232" lon="12.6764719"><ele>1248.3333333333335</ele><time>2026-04-18T13:33:25.981Z</time></trkpt><trkpt lat="43.0507916" lon="12.6765505"><ele>1249.6666666666667</ele><time>2026-04-18T13:33:26.981Z</time></trkpt><trkpt lat="43.0508559" lon="12.6766302"><ele>1251.0</ele><time>2026-04-18T13:33:27.981Z</time></trkpt><trkpt lat="43.050919" lon="12.6767084"><ele>1252.3333333333333</ele><time>2026-04-18T13:33:28.981Z</time></trkpt><trkpt lat="43.0509813" lon="12.6767757"><ele>1253.6666666666665</ele><time>2026-04-18T13:33:29.981Z</time></trkpt><trkpt lat="43.0510436" lon="12.6768412"><ele>1255.0</ele><time>2026-04-18T13:33:30.981Z</time></trkpt><trkpt lat="43.0511057" lon="12.676903"><ele>1255.0</ele><time>2026-04-18T13:33:31.981Z</time></trkpt><trkpt lat="43.0511648" lon="12.6769525"><ele>1255.0</ele><time>2026-04-18T13:33:32.981Z</time></trkpt><trkpt lat="43.0512305" lon="12.6769844"><ele>1255.0</ele><time>2026-04-18T13:33:33.981Z</time></trkpt><trkpt lat="43.0512957" lon="12.6770015"><ele>1255.0</ele><time>2026-04-18T13:33:34.981Z</time></trkpt><trkpt lat="43.0513652" lon="12.6769971"><ele>1255.0</ele><time>2026-04-18T13:33:35.981Z</time></trkpt><trkpt lat="43.0514295" lon="12.6769786"><ele>1255.0</ele><time>2026-04-18T13:33:36.981Z</time></trkpt><trkpt lat="43.0515448" lon="12.6768965"><ele>1255.0</ele><time>2026-04-18T13:33:38.981Z</time></trkpt><trkpt lat="43.0516072" lon="12.6768254"><ele>1255.0</ele><time>2026-04-18T13:33:39.981Z</time></trkpt><trkpt lat="43.0516785" lon="12.6767337"><ele>1255.0</ele><time>2026-04-18T13:33:40.981Z</time></trkpt><trkpt lat="43.0517535" lon="12.6766403"><ele>1255.0</ele><time>2026-04-18T13:33:41.981Z</time></trkpt><trkpt lat="43.0518367" lon="12.6765441"><ele>1255.0</ele><time>2026-04-18T13:33:42.981Z</time></trkpt><trkpt lat="43.0519313" lon="12.6764411"><ele>1255.8</ele><time>2026-04-18T13:33:43.981Z</time></trkpt><trkpt lat="43.0520219" lon="12.6763412"><ele>1256.6</ele><time>2026-04-18T13:33:44.981Z</time></trkpt><trkpt lat="43.0521014" lon="12.6762465"><ele>1257.4</ele><time>2026-04-18T13:33:45.981Z</time></trkpt><trkpt lat="43.052176" lon="12.6761587"><ele>1258.2</ele><time>2026-04-18T13:33:46.981Z</time></trkpt><trkpt lat="43.0522541" lon="12.6760656"><ele>1259.0</ele><time>2026-04-18T13:33:47.981Z</time></trkpt><trkpt lat="43.0523347" lon="12.6759746"><ele>1260.8</ele><time>2026-04-18T13:33:48.981Z</time></trkpt><trkpt lat="43.0524141" lon="12.6758851"><ele>1262.6000000000001</ele><time>2026-04-18T13:33:49.981Z</time></trkpt><trkpt lat="43.0524907" lon="12.6758026"><ele>1264.4</ele><time>2026-04-18T13:33:50.981Z</time></trkpt><trkpt lat="43.052567" lon="12.6757169"><ele>1266.2</ele><time>2026-04-18T13:33:51.981Z</time></trkpt><trkpt lat="43.0526397" lon="12.675635"><ele>1268.0</ele><time>2026-04-18T13:33:52.981Z</time></trkpt><trkpt lat="43.052708" lon="12.6755628"><ele>1268.1666666666667</ele><time>2026-04-18T13:33:53.981Z</time></trkpt><trkpt lat="43.0527763" lon="12.6754866"><ele>1268.3333333333335</ele><time>2026-04-18T13:33:54.981Z</time></trkpt><trkpt lat="43.0528408" lon="12.6754006"><ele>1268.5</ele><time>2026-04-18T13:33:55.981Z</time></trkpt><trkpt lat="43.05289" lon="12.6753117"><ele>1268.6666666666667</ele><time>2026-04-18T13:33:56.981Z</time></trkpt><trkpt lat="43.0529283" lon="12.67522"><ele>1268.8333333333333</ele><time>2026-04-18T13:33:57.981Z</time></trkpt><trkpt lat="43.05296" lon="12.675115"><ele>1269.0</ele><time>2026-04-18T13:33:58.981Z</time></trkpt><trkpt lat="43.0529917" lon="12.67502"><ele>1268.6666666666667</ele><time>2026-04-18T13:33:59.981Z</time></trkpt><trkpt lat="43.0530233" lon="12.6749317"><ele>1268.3333333333333</ele><time>2026-04-18T13:34:00.981Z</time></trkpt><trkpt lat="43.053055" lon="12.6748517"><ele>1268.0</ele><time>2026-04-18T13:34:01.981Z</time></trkpt><trkpt lat="43.0530933" lon="12.6747717"><ele>1267.6666666666665</ele><time>2026-04-18T13:34:02.981Z</time></trkpt><trkpt lat="43.0531683" lon="12.6746583"><ele>1267.3333333333333</ele><time>2026-04-18T13:34:04.981Z</time></trkpt><trkpt lat="43.0532233" lon="12.6745967"><ele>1267.0</ele><time>2026-04-18T13:34:06.981Z</time></trkpt><trkpt lat="43.0533133" lon="12.6745983"><ele>1268.0</ele><time>2026-04-18T13:36:02.98Z</time></trkpt><trkpt lat="43.05339" lon="12.6746017"><ele>1269.0</ele><time>2026-04-18T13:36:11.98Z</time></trkpt><trkpt lat="43.0534767" lon="12.6746283"><ele>1270.0</ele><time>2026-04-18T13:36:14.98Z</time></trkpt><trkpt lat="43.053545" lon="12.674665"><ele>1271.0</ele><time>2026-04-18T13:36:16.98Z</time></trkpt><trkpt lat="43.0536283" lon="12.6747083"><ele>1272.0</ele><time>2026-04-18T13:36:18.98Z</time></trkpt><trkpt lat="43.05373" lon="12.6747583"><ele>1273.0</ele><time>2026-04-18T13:36:20.98Z</time></trkpt><trkpt lat="43.053835" lon="12.6748067"><ele>1273.0</ele><time>2026-04-18T13:36:22.98Z</time></trkpt><trkpt lat="43.05394" lon="12.674855"><ele>1273.0</ele><time>2026-04-18T13:36:24.98Z</time></trkpt><trkpt lat="43.0540483" lon="12.674885"><ele>1273.0</ele><time>2026-04-18T13:36:26.98Z</time></trkpt><trkpt lat="43.054155" lon="12.6749033"><ele>1273.0</ele><time>2026-04-18T13:36:28.98Z</time></trkpt><trkpt lat="43.0542633" lon="12.674925"><ele>1273.0</ele><time>2026-04-18T13:36:30.98Z</time></trkpt><trkpt lat="43.0543717" lon="12.67495"><ele>1271.4</ele><time>2026-04-18T13:36:32.98Z</time></trkpt><trkpt lat="43.0544783" lon="12.67497"><ele>1269.8</ele><time>2026-04-18T13:36:34.98Z</time></trkpt><trkpt lat="43.05458" lon="12.6749833"><ele>1268.2</ele><time>2026-04-18T13:36:36.98Z</time></trkpt><trkpt lat="43.0546783" lon="12.674995"><ele>1266.6</ele><time>2026-04-18T13:36:38.98Z</time></trkpt><trkpt lat="43.0547683" lon="12.67499"><ele>1265.0</ele><time>2026-04-18T13:36:40.98Z</time></trkpt><trkpt lat="43.0548733" lon="12.6749733"><ele>1263.6</ele><time>2026-04-18T13:36:42.98Z</time></trkpt><trkpt lat="43.05497" lon="12.6749117"><ele>1262.2</ele><time>2026-04-18T13:36:44.98Z</time></trkpt><trkpt lat="43.0550583" lon="12.6748167"><ele>1260.8</ele><time>2026-04-18T13:36:46.98Z</time></trkpt><trkpt lat="43.0551183" lon="12.6746967"><ele>1259.4</ele><time>2026-04-18T13:36:48.98Z</time></trkpt><trkpt lat="43.055155" lon="12.6745533"><ele>1258.0</ele><time>2026-04-18T13:36:50.98Z</time></trkpt><trkpt lat="43.055185" lon="12.6744083"><ele>1258.0</ele><time>2026-04-18T13:36:52.98Z</time></trkpt><trkpt lat="43.0552067" lon="12.674265"><ele>1258.0</ele><time>2026-04-18T13:36:54.98Z</time></trkpt><trkpt lat="43.0552283" lon="12.67411"><ele>1258.0</ele><time>2026-04-18T13:36:56.98Z</time></trkpt><trkpt lat="43.0552433" lon="12.6740233"><ele>1258.0</ele><time>2026-04-18T13:36:57.98Z</time></trkpt><trkpt lat="43.055255" lon="12.6739233"><ele>1258.0</ele><time>2026-04-18T13:36:58.98Z</time></trkpt><trkpt lat="43.05527" lon="12.673825"><ele>1258.0</ele><time>2026-04-18T13:36:59.98Z</time></trkpt><trkpt lat="43.05528" lon="12.6737333"><ele>1258.0</ele><time>2026-04-18T13:37:00.98Z</time></trkpt><trkpt lat="43.055295" lon="12.67364"><ele>1258.0</ele><time>2026-04-18T13:37:01.98Z</time></trkpt><trkpt lat="43.055315" lon="12.6735417"><ele>1258.0</ele><time>2026-04-18T13:37:02.98Z</time></trkpt><trkpt lat="43.0553333" lon="12.6734383"><ele>1258.0</ele><time>2026-04-18T13:37:03.98Z</time></trkpt><trkpt lat="43.055355" lon="12.6733367"><ele>1258.0</ele><time>2026-04-18T13:37:04.98Z</time></trkpt><trkpt lat="43.0553767" lon="12.673235"><ele>1258.0</ele><time>2026-04-18T13:37:05.98Z</time></trkpt><trkpt lat="43.055395" lon="12.67313"><ele>1258.0</ele><time>2026-04-18T13:37:06.98Z</time></trkpt><trkpt lat="43.0554183" lon="12.67303"><ele>1258.0</ele><time>2026-04-18T13:37:07.98Z</time></trkpt><trkpt lat="43.05544" lon="12.6729333"><ele>1258.0</ele><time>2026-04-18T13:37:08.98Z</time></trkpt><trkpt lat="43.0554617" lon="12.6728233"><ele>1258.0</ele><time>2026-04-18T13:37:09.98Z</time></trkpt><trkpt lat="43.0554883" lon="12.672715"><ele>1258.0</ele><time>2026-04-18T13:37:10.98Z</time></trkpt><trkpt lat="43.05551" lon="12.67261"><ele>1258.0</ele><time>2026-04-18T13:37:11.98Z</time></trkpt><trkpt lat="43.0555333" lon="12.6724933"><ele>1258.0</ele><time>2026-04-18T13:37:12.98Z</time></trkpt><trkpt lat="43.0555483" lon="12.6723717"><ele>1258.0</ele><time>2026-04-18T13:37:13.98Z</time></trkpt><trkpt lat="43.0555667" lon="12.672255"><ele>1258.0</ele><time>2026-04-18T13:37:14.98Z</time></trkpt><trkpt lat="43.0555883" lon="12.6721367"><ele>1258.0</ele><time>2026-04-18T13:37:15.98Z</time></trkpt><trkpt lat="43.05561" lon="12.6720233"><ele>1258.0</ele><time>2026-04-18T13:37:16.98Z</time></trkpt><trkpt lat="43.055635" lon="12.671905"><ele>1258.0</ele><time>2026-04-18T13:37:17.98Z</time></trkpt><trkpt lat="43.055655" lon="12.671795"><ele>1258.1666666666665</ele><time>2026-04-18T13:37:18.98Z</time></trkpt><trkpt lat="43.0556733" lon="12.6716833"><ele>1258.3333333333333</ele><time>2026-04-18T13:37:19.98Z</time></trkpt><trkpt lat="43.055695" lon="12.6715783"><ele>1258.5</ele><time>2026-04-18T13:37:20.98Z</time></trkpt><trkpt lat="43.0557183" lon="12.6714683"><ele>1258.6666666666667</ele><time>2026-04-18T13:37:21.98Z</time></trkpt><trkpt lat="43.0557433" lon="12.671365"><ele>1258.8333333333335</ele><time>2026-04-18T13:37:22.98Z</time></trkpt><trkpt lat="43.0557667" lon="12.67126"><ele>1259.0</ele><time>2026-04-18T13:37:23.98Z</time></trkpt><trkpt lat="43.0557867" lon="12.6711567"><ele>1260.5</ele><time>2026-04-18T13:37:24.98Z</time></trkpt><trkpt lat="43.0558033" lon="12.6710633"><ele>1262.0</ele><time>2026-04-18T13:37:25.98Z</time></trkpt><trkpt lat="43.0558183" lon="12.6709717"><ele>1263.5</ele><time>2026-04-18T13:37:26.98Z</time></trkpt><trkpt lat="43.05583" lon="12.6708833"><ele>1265.0</ele><time>2026-04-18T13:37:27.98Z</time></trkpt><trkpt lat="43.05584" lon="12.6707917"><ele>1266.5</ele><time>2026-04-18T13:37:28.98Z</time></trkpt><trkpt lat="43.0558483" lon="12.6706367"><ele>1268.0</ele><time>2026-04-18T13:37:30.98Z</time></trkpt><trkpt lat="43.0558517" lon="12.670515"><ele>1268.0</ele><time>2026-04-18T13:37:32.98Z</time></trkpt><trkpt lat="43.0558533" lon="12.670425"><ele>1268.0</ele><time>2026-04-18T13:37:35.98Z</time></trkpt><trkpt lat="43.0558483" lon="12.6703017"><ele>1268.0</ele><time>2026-04-18T13:37:38.98Z</time></trkpt><trkpt lat="43.055855" lon="12.670185"><ele>1268.0</ele><time>2026-04-18T13:37:40.98Z</time></trkpt><trkpt lat="43.0558617" lon="12.670065"><ele>1268.0</ele><time>2026-04-18T13:37:42.98Z</time></trkpt><trkpt lat="43.0558667" lon="12.6699283"><ele>1268.0</ele><time>2026-04-18T13:37:44.98Z</time></trkpt><trkpt lat="43.055875" lon="12.6697867"><ele>1267.3333333333335</ele><time>2026-04-18T13:37:46.98Z</time></trkpt><trkpt lat="43.05588" lon="12.6696233"><ele>1266.6666666666667</ele><time>2026-04-18T13:37:48.98Z</time></trkpt><trkpt lat="43.0558817" lon="12.6695267"><ele>1266.0</ele><time>2026-04-18T13:37:49.98Z</time></trkpt><trkpt lat="43.055885" lon="12.669425"><ele>1265.3333333333333</ele><time>2026-04-18T13:37:50.98Z</time></trkpt><trkpt lat="43.0558933" lon="12.6693217"><ele>1264.6666666666665</ele><time>2026-04-18T13:37:51.98Z</time></trkpt><trkpt lat="43.0558967" lon="12.6692067"><ele>1264.0</ele><time>2026-04-18T13:37:52.98Z</time></trkpt><trkpt lat="43.055905" lon="12.669095"><ele>1263.8333333333333</ele><time>2026-04-18T13:37:53.98Z</time></trkpt><trkpt lat="43.0559067" lon="12.668985"><ele>1263.6666666666665</ele><time>2026-04-18T13:37:54.98Z</time></trkpt><trkpt lat="43.0559167" lon="12.6688783"><ele>1263.5</ele><time>2026-04-18T13:37:55.98Z</time></trkpt><trkpt lat="43.055925" lon="12.66877"><ele>1263.3333333333333</ele><time>2026-04-18T13:37:56.98Z</time></trkpt><trkpt lat="43.0559333" lon="12.66866"><ele>1263.1666666666667</ele><time>2026-04-18T13:37:57.98Z</time></trkpt><trkpt lat="43.05595" lon="12.6685583"><ele>1263.0</ele><time>2026-04-18T13:37:58.98Z</time></trkpt><trkpt lat="43.0559667" lon="12.6684633"><ele>1262.7142857142856</ele><time>2026-04-18T13:37:59.98Z</time></trkpt><trkpt lat="43.0560017" lon="12.668385"><ele>1262.4285714285713</ele><time>2026-04-18T13:38:00.98Z</time></trkpt><trkpt lat="43.05606" lon="12.6683217"><ele>1262.142857142857</ele><time>2026-04-18T13:38:01.98Z</time></trkpt><trkpt lat="43.0561233" lon="12.6682917"><ele>1261.8571428571427</ele><time>2026-04-18T13:38:02.98Z</time></trkpt><trkpt lat="43.0561933" lon="12.66827"><ele>1261.5714285714284</ele><time>2026-04-18T13:38:03.98Z</time></trkpt><trkpt lat="43.0562683" lon="12.66827"><ele>1261.2857142857142</ele><time>2026-04-18T13:38:04.98Z</time></trkpt><trkpt lat="43.0563383" lon="12.66829"><ele>1261.0</ele><time>2026-04-18T13:38:05.98Z</time></trkpt><trkpt lat="43.0564083" lon="12.6683233"><ele>1261.0</ele><time>2026-04-18T13:38:06.98Z</time></trkpt><trkpt lat="43.0564783" lon="12.6683667"><ele>1261.0</ele><time>2026-04-18T13:38:07.98Z</time></trkpt><trkpt lat="43.0565433" lon="12.6684183"><ele>1261.0</ele><time>2026-04-18T13:38:08.98Z</time></trkpt><trkpt lat="43.05661" lon="12.6684617"><ele>1261.0</ele><time>2026-04-18T13:38:09.98Z</time></trkpt><trkpt lat="43.0566767" lon="12.668505"><ele>1261.0</ele><time>2026-04-18T13:38:10.98Z</time></trkpt><trkpt lat="43.05674" lon="12.6685483"><ele>1261.0</ele><time>2026-04-18T13:38:11.98Z</time></trkpt><trkpt lat="43.056805" lon="12.668595"><ele>1261.0</ele><time>2026-04-18T13:38:12.98Z</time></trkpt><trkpt lat="43.0568817" lon="12.66865"><ele>1262.8333333333333</ele><time>2026-04-18T13:38:13.98Z</time></trkpt><trkpt lat="43.05696" lon="12.6686967"><ele>1264.6666666666665</ele><time>2026-04-18T13:38:14.98Z</time></trkpt><trkpt lat="43.057035" lon="12.668735"><ele>1266.5</ele><time>2026-04-18T13:38:15.98Z</time></trkpt><trkpt lat="43.05711" lon="12.668775"><ele>1268.3333333333333</ele><time>2026-04-18T13:38:16.98Z</time></trkpt><trkpt lat="43.0571867" lon="12.6688217"><ele>1270.1666666666667</ele><time>2026-04-18T13:38:17.98Z</time></trkpt><trkpt lat="43.0572683" lon="12.6688733"><ele>1272.0</ele><time>2026-04-18T13:38:18.98Z</time></trkpt><trkpt lat="43.057345" lon="12.6689283"><ele>1272.0</ele><time>2026-04-18T13:38:19.98Z</time></trkpt><trkpt lat="43.0574283" lon="12.6689783"><ele>1272.0</ele><time>2026-04-18T13:38:20.98Z</time></trkpt><trkpt lat="43.0575117" lon="12.66903"><ele>1272.0</ele><time>2026-04-18T13:38:21.98Z</time></trkpt><trkpt lat="43.0575917" lon="12.6690867"><ele>1272.0</ele><time>2026-04-18T13:38:22.98Z</time></trkpt><trkpt lat="43.0576767" lon="12.6691417"><ele>1272.0</ele><time>2026-04-18T13:38:23.98Z</time></trkpt><trkpt lat="43.0577583" lon="12.6692017"><ele>1272.4</ele><time>2026-04-18T13:38:24.98Z</time></trkpt><trkpt lat="43.0578517" lon="12.6692533"><ele>1272.8000000000002</ele><time>2026-04-18T13:38:25.98Z</time></trkpt><trkpt lat="43.05794" lon="12.6693133"><ele>1273.2</ele><time>2026-04-18T13:38:26.98Z</time></trkpt><trkpt lat="43.0580283" lon="12.66937"><ele>1273.6000000000001</ele><time>2026-04-18T13:38:27.98Z</time></trkpt><trkpt lat="43.05812" lon="12.6694233"><ele>1274.0</ele><time>2026-04-18T13:38:28.98Z</time></trkpt><trkpt lat="43.0581983" lon="12.66947"><ele>1274.8333333333335</ele><time>2026-04-18T13:38:29.98Z</time></trkpt><trkpt lat="43.05827" lon="12.6695217"><ele>1275.6666666666667</ele><time>2026-04-18T13:38:30.98Z</time></trkpt><trkpt lat="43.0583367" lon="12.6695767"><ele>1276.5</ele><time>2026-04-18T13:38:31.98Z</time></trkpt><trkpt lat="43.0584017" lon="12.6696333"><ele>1277.3333333333333</ele><time>2026-04-18T13:38:32.98Z</time></trkpt><trkpt lat="43.0584733" lon="12.669695"><ele>1278.1666666666665</ele><time>2026-04-18T13:38:33.98Z</time></trkpt><trkpt lat="43.0585483" lon="12.6697733"><ele>1279.0</ele><time>2026-04-18T13:38:34.98Z</time></trkpt><trkpt lat="43.058615" lon="12.669865"><ele>1279.0</ele><time>2026-04-18T13:38:35.98Z</time></trkpt><trkpt lat="43.05867" lon="12.6699667"><ele>1279.0</ele><time>2026-04-18T13:38:36.98Z</time></trkpt><trkpt lat="43.0587217" lon="12.6700583"><ele>1279.0</ele><time>2026-04-18T13:38:37.98Z</time></trkpt><trkpt lat="43.0587733" lon="12.6701483"><ele>1279.0</ele><time>2026-04-18T13:38:38.98Z</time></trkpt><trkpt lat="43.0588217" lon="12.6702333"><ele>1279.0</ele><time>2026-04-18T13:38:39.98Z</time></trkpt><trkpt lat="43.05887" lon="12.6703167"><ele>1279.0</ele><time>2026-04-18T13:38:40.98Z</time></trkpt><trkpt lat="43.0589183" lon="12.6704017"><ele>1279.5</ele><time>2026-04-18T13:38:41.98Z</time></trkpt><trkpt lat="43.0589667" lon="12.6704833"><ele>1280.0</ele><time>2026-04-18T13:38:42.98Z</time></trkpt><trkpt lat="43.059015" lon="12.6705583"><ele>1280.5</ele><time>2026-04-18T13:38:43.98Z</time></trkpt><trkpt lat="43.0590633" lon="12.6706383"><ele>1281.0</ele><time>2026-04-18T13:38:44.98Z</time></trkpt><trkpt lat="43.05911" lon="12.67072"><ele>1281.5</ele><time>2026-04-18T13:38:45.98Z</time></trkpt><trkpt lat="43.0591583" lon="12.6707983"><ele>1282.0</ele><time>2026-04-18T13:38:46.98Z</time></trkpt><trkpt lat="43.059205" lon="12.6708867"><ele>1279.6666666666665</ele><time>2026-04-18T13:38:47.98Z</time></trkpt><trkpt lat="43.0592583" lon="12.670965"><ele>1277.3333333333333</ele><time>2026-04-18T13:38:48.98Z</time></trkpt><trkpt lat="43.059305" lon="12.671045"><ele>1275.0</ele><time>2026-04-18T13:38:49.98Z</time></trkpt><trkpt lat="43.059355" lon="12.67113"><ele>1272.6666666666667</ele><time>2026-04-18T13:38:50.98Z</time></trkpt><trkpt lat="43.0594017" lon="12.6712083"><ele>1270.3333333333335</ele><time>2026-04-18T13:38:51.98Z</time></trkpt><trkpt lat="43.05945" lon="12.67129"><ele>1268.0</ele><time>2026-04-18T13:38:52.98Z</time></trkpt><trkpt lat="43.0595017" lon="12.671375"><ele>1268.0</ele><time>2026-04-18T13:38:53.98Z</time></trkpt><trkpt lat="43.0595583" lon="12.6714583"><ele>1268.0</ele><time>2026-04-18T13:38:54.98Z</time></trkpt><trkpt lat="43.0596183" lon="12.67154"><ele>1268.0</ele><time>2026-04-18T13:38:55.98Z</time></trkpt><trkpt lat="43.05968" lon="12.6716233"><ele>1268.0</ele><time>2026-04-18T13:38:56.98Z</time></trkpt><trkpt lat="43.0597467" lon="12.6717033"><ele>1268.0</ele><time>2026-04-18T13:38:57.98Z</time></trkpt><trkpt lat="43.05981" lon="12.67177"><ele>1268.0</ele><time>2026-04-18T13:38:58.98Z</time></trkpt><trkpt lat="43.0598717" lon="12.67183"><ele>1268.0</ele><time>2026-04-18T13:38:59.98Z</time></trkpt><trkpt lat="43.0599267" lon="12.6718817"><ele>1268.0</ele><time>2026-04-18T13:39:00.98Z</time></trkpt><trkpt lat="43.0600283" lon="12.6719783"><ele>1268.0</ele><time>2026-04-18T13:39:02.98Z</time></trkpt><trkpt lat="43.06012" lon="12.67205"><ele>1268.0</ele><time>2026-04-18T13:39:04.98Z</time></trkpt><trkpt lat="43.0601917" lon="12.6720967"><ele>1268.0</ele><time>2026-04-18T13:39:06.98Z</time></trkpt><trkpt lat="43.06026" lon="12.6721417"><ele>1266.2</ele><time>2026-04-18T13:39:08.98Z</time></trkpt><trkpt lat="43.0603417" lon="12.672215"><ele>1264.4</ele><time>2026-04-18T13:39:10.98Z</time></trkpt><trkpt lat="43.06046" lon="12.67229"><ele>1262.6000000000001</ele><time>2026-04-18T13:39:12.98Z</time></trkpt><trkpt lat="43.060525" lon="12.6723283"><ele>1260.8</ele><time>2026-04-18T13:39:13.98Z</time></trkpt><trkpt lat="43.06059" lon="12.672375"><ele>1259.0</ele><time>2026-04-18T13:39:14.98Z</time></trkpt><trkpt lat="43.0606633" lon="12.6724267"><ele>1259.0</ele><time>2026-04-18T13:39:15.98Z</time></trkpt><trkpt lat="43.0607383" lon="12.6724783"><ele>1259.0</ele><time>2026-04-18T13:39:16.98Z</time></trkpt><trkpt lat="43.0608133" lon="12.672535"><ele>1259.0</ele><time>2026-04-18T13:39:17.98Z</time></trkpt><trkpt lat="43.0608833" lon="12.67259"><ele>1259.0</ele><time>2026-04-18T13:39:18.98Z</time></trkpt><trkpt lat="43.0609583" lon="12.67264"><ele>1259.0</ele><time>2026-04-18T13:39:19.98Z</time></trkpt><trkpt lat="43.0610283" lon="12.6726917"><ele>1259.0</ele><time>2026-04-18T13:39:20.98Z</time></trkpt><trkpt lat="43.0610983" lon="12.6727467"><ele>1259.8333333333335</ele><time>2026-04-18T13:39:21.98Z</time></trkpt><trkpt lat="43.0611733" lon="12.6728033"><ele>1260.6666666666667</ele><time>2026-04-18T13:39:22.98Z</time></trkpt><trkpt lat="43.0612467" lon="12.67286"><ele>1261.5</ele><time>2026-04-18T13:39:23.98Z</time></trkpt><trkpt lat="43.0613167" lon="12.6729133"><ele>1262.3333333333333</ele><time>2026-04-18T13:39:24.98Z</time></trkpt><trkpt lat="43.0613933" lon="12.672965"><ele>1263.1666666666665</ele><time>2026-04-18T13:39:25.98Z</time></trkpt><trkpt lat="43.0614733" lon="12.6730167"><ele>1264.0</ele><time>2026-04-18T13:39:26.98Z</time></trkpt><trkpt lat="43.061545" lon="12.67307"><ele>1264.0</ele><time>2026-04-18T13:39:27.98Z</time></trkpt><trkpt lat="43.0616217" lon="12.6731267"><ele>1264.0</ele><time>2026-04-18T13:39:28.98Z</time></trkpt><trkpt lat="43.0616967" lon="12.67318"><ele>1264.0</ele><time>2026-04-18T13:39:29.98Z</time></trkpt><trkpt lat="43.0617833" lon="12.6732333"><ele>1264.0</ele><time>2026-04-18T13:39:30.98Z</time></trkpt><trkpt lat="43.0618683" lon="12.6732833"><ele>1264.0</ele><time>2026-04-18T13:39:31.98Z</time></trkpt><trkpt lat="43.0619567" lon="12.6733317"><ele>1264.0</ele><time>2026-04-18T13:39:32.98Z</time></trkpt><trkpt lat="43.062045" lon="12.6733733"><ele>1264.0</ele><time>2026-04-18T13:39:33.98Z</time></trkpt><trkpt lat="43.06213" lon="12.6734067"><ele>1264.0</ele><time>2026-04-18T13:39:34.98Z</time></trkpt><trkpt lat="43.0622183" lon="12.673445"><ele>1264.0</ele><time>2026-04-18T13:39:35.98Z</time></trkpt><trkpt lat="43.0623033" lon="12.6734817"><ele>1264.0</ele><time>2026-04-18T13:39:36.98Z</time></trkpt><trkpt lat="43.06238" lon="12.6735167"><ele>1264.0</ele><time>2026-04-18T13:39:37.98Z</time></trkpt><trkpt lat="43.062465" lon="12.673555"><ele>1263.4</ele><time>2026-04-18T13:39:38.98Z</time></trkpt><trkpt lat="43.0625567" lon="12.673595"><ele>1262.8000000000002</ele><time>2026-04-18T13:39:39.98Z</time></trkpt><trkpt lat="43.062645" lon="12.6736317"><ele>1262.1999999999998</ele><time>2026-04-18T13:39:40.98Z</time></trkpt><trkpt lat="43.0627283" lon="12.6736717"><ele>1261.6</ele><time>2026-04-18T13:39:41.98Z</time></trkpt><trkpt lat="43.0628167" lon="12.67371"><ele>1261.0</ele><time>2026-04-18T13:39:42.98Z</time></trkpt><trkpt lat="43.0629083" lon="12.6737517"><ele>1261.0</ele><time>2026-04-18T13:39:43.98Z</time></trkpt><trkpt lat="43.063005" lon="12.6737883"><ele>1261.0</ele><time>2026-04-18T13:39:44.98Z</time></trkpt><trkpt lat="43.0631" lon="12.6738317"><ele>1261.0</ele><time>2026-04-18T13:39:45.98Z</time></trkpt><trkpt lat="43.0632017" lon="12.6738633"><ele>1261.0</ele><time>2026-04-18T13:39:46.98Z</time></trkpt><trkpt lat="43.0632933" lon="12.6738917"><ele>1261.0</ele><time>2026-04-18T13:39:47.98Z</time></trkpt><trkpt lat="43.0633867" lon="12.673905"><ele>1259.8</ele><time>2026-04-18T13:39:48.98Z</time></trkpt><trkpt lat="43.0634833" lon="12.6739067"><ele>1258.6</ele><time>2026-04-18T13:39:49.98Z</time></trkpt><trkpt lat="43.0635783" lon="12.6738883"><ele>1257.4</ele><time>2026-04-18T13:39:50.98Z</time></trkpt><trkpt lat="43.0636683" lon="12.6738767"><ele>1256.2</ele><time>2026-04-18T13:39:51.98Z</time></trkpt><trkpt lat="43.0637667" lon="12.6738717"><ele>1255.0</ele><time>2026-04-18T13:39:52.98Z</time></trkpt><trkpt lat="43.06387" lon="12.6738617"><ele>1255.0</ele><time>2026-04-18T13:39:53.98Z</time></trkpt><trkpt lat="43.0639667" lon="12.6738467"><ele>1255.0</ele><time>2026-04-18T13:39:54.98Z</time></trkpt><trkpt lat="43.0640633" lon="12.67383"><ele>1255.0</ele><time>2026-04-18T13:39:55.98Z</time></trkpt><trkpt lat="43.06416" lon="12.6738183"><ele>1255.0</ele><time>2026-04-18T13:39:56.98Z</time></trkpt><trkpt lat="43.064255" lon="12.6738033"><ele>1255.0</ele><time>2026-04-18T13:39:57.98Z</time></trkpt><trkpt lat="43.0643433" lon="12.673785"><ele>1254.8</ele><time>2026-04-18T13:39:58.98Z</time></trkpt><trkpt lat="43.0644317" lon="12.6737517"><ele>1254.6</ele><time>2026-04-18T13:39:59.98Z</time></trkpt><trkpt lat="43.06452" lon="12.67371"><ele>1254.4</ele><time>2026-04-18T13:40:00.98Z</time></trkpt><trkpt lat="43.0645933" lon="12.6736583"><ele>1254.2</ele><time>2026-04-18T13:40:01.98Z</time></trkpt><trkpt lat="43.0646717" lon="12.6735833"><ele>1254.0</ele><time>2026-04-18T13:40:02.98Z</time></trkpt><trkpt lat="43.0647383" lon="12.6735"><ele>1253.2</ele><time>2026-04-18T13:40:03.98Z</time></trkpt><trkpt lat="43.064795" lon="12.673405"><ele>1252.4</ele><time>2026-04-18T13:40:04.98Z</time></trkpt><trkpt lat="43.064855" lon="12.6733067"><ele>1251.6</ele><time>2026-04-18T13:40:05.98Z</time></trkpt><trkpt lat="43.0649183" lon="12.6732083"><ele>1250.8</ele><time>2026-04-18T13:40:06.98Z</time></trkpt><trkpt lat="43.064985" lon="12.6731183"><ele>1250.0</ele><time>2026-04-18T13:40:07.98Z</time></trkpt><trkpt lat="43.06505" lon="12.673025"><ele>1249.8</ele><time>2026-04-18T13:40:08.98Z</time></trkpt><trkpt lat="43.065115" lon="12.6729317"><ele>1249.6</ele><time>2026-04-18T13:40:09.98Z</time></trkpt><trkpt lat="43.065175" lon="12.6728367"><ele>1249.4</ele><time>2026-04-18T13:40:10.98Z</time></trkpt><trkpt lat="43.065235" lon="12.6727467"><ele>1249.2</ele><time>2026-04-18T13:40:11.98Z</time></trkpt><trkpt lat="43.0653" lon="12.6726483"><ele>1249.0</ele><time>2026-04-18T13:40:12.98Z</time></trkpt><trkpt lat="43.0653633" lon="12.6725533"><ele>1248.0</ele><time>2026-04-18T13:40:13.98Z</time></trkpt><trkpt lat="43.0654267" lon="12.6724667"><ele>1247.0</ele><time>2026-04-18T13:40:14.98Z</time></trkpt><trkpt lat="43.0654867" lon="12.6723767"><ele>1246.0</ele><time>2026-04-18T13:40:15.98Z</time></trkpt><trkpt lat="43.0655517" lon="12.6722817"><ele>1245.0</ele><time>2026-04-18T13:40:16.98Z</time></trkpt><trkpt lat="43.0656167" lon="12.6721817"><ele>1244.0</ele><time>2026-04-18T13:40:17.98Z</time></trkpt><trkpt lat="43.0656917" lon="12.6720833"><ele>1244.0</ele><time>2026-04-18T13:40:18.98Z</time></trkpt><trkpt lat="43.0657583" lon="12.6719833"><ele>1244.0</ele><time>2026-04-18T13:40:19.98Z</time></trkpt><trkpt lat="43.0658233" lon="12.6718867"><ele>1244.0</ele><time>2026-04-18T13:40:20.98Z</time></trkpt><trkpt lat="43.0658833" lon="12.6717917"><ele>1244.0</ele><time>2026-04-18T13:40:21.98Z</time></trkpt><trkpt lat="43.065945" lon="12.6716933"><ele>1244.0</ele><time>2026-04-18T13:40:22.98Z</time></trkpt><trkpt lat="43.066015" lon="12.671595"><ele>1243.2</ele><time>2026-04-18T13:40:23.98Z</time></trkpt><trkpt lat="43.066085" lon="12.671495"><ele>1242.4</ele><time>2026-04-18T13:40:24.98Z</time></trkpt><trkpt lat="43.0661583" lon="12.67139"><ele>1241.6</ele><time>2026-04-18T13:40:25.98Z</time></trkpt><trkpt lat="43.0662267" lon="12.6712883"><ele>1240.8</ele><time>2026-04-18T13:40:26.98Z</time></trkpt><trkpt lat="43.0663017" lon="12.671185"><ele>1240.0</ele><time>2026-04-18T13:40:27.98Z</time></trkpt><trkpt lat="43.066375" lon="12.6710783"><ele>1239.0</ele><time>2026-04-18T13:40:28.98Z</time></trkpt><trkpt lat="43.06645" lon="12.67097"><ele>1238.0</ele><time>2026-04-18T13:40:29.98Z</time></trkpt><trkpt lat="43.0665233" lon="12.6708667"><ele>1237.0</ele><time>2026-04-18T13:40:30.98Z</time></trkpt><trkpt lat="43.0665983" lon="12.6707567"><ele>1236.0</ele><time>2026-04-18T13:40:31.98Z</time></trkpt><trkpt lat="43.0666717" lon="12.6706467"><ele>1235.0</ele><time>2026-04-18T13:40:32.98Z</time></trkpt><trkpt lat="43.066755" lon="12.6705333"><ele>1235.0</ele><time>2026-04-18T13:40:33.98Z</time></trkpt><trkpt lat="43.066835" lon="12.6704183"><ele>1235.0</ele><time>2026-04-18T13:40:34.98Z</time></trkpt><trkpt lat="43.0669167" lon="12.6703067"><ele>1235.0</ele><time>2026-04-18T13:40:35.98Z</time></trkpt><trkpt lat="43.0670017" lon="12.67019"><ele>1235.0</ele><time>2026-04-18T13:40:36.98Z</time></trkpt><trkpt lat="43.0670833" lon="12.67007"><ele>1233.5</ele><time>2026-04-18T13:40:37.98Z</time></trkpt><trkpt lat="43.0671617" lon="12.6699533"><ele>1232.0</ele><time>2026-04-18T13:40:38.98Z</time></trkpt><trkpt lat="43.06724" lon="12.6698333"><ele>1230.5</ele><time>2026-04-18T13:40:39.98Z</time></trkpt><trkpt lat="43.0673167" lon="12.669715"><ele>1229.0</ele><time>2026-04-18T13:40:40.98Z</time></trkpt><trkpt lat="43.0673933" lon="12.6695983"><ele>1229.2</ele><time>2026-04-18T13:40:41.98Z</time></trkpt><trkpt lat="43.0674767" lon="12.6694833"><ele>1229.4</ele><time>2026-04-18T13:40:42.98Z</time></trkpt><trkpt lat="43.0675567" lon="12.6693667"><ele>1229.6</ele><time>2026-04-18T13:40:43.98Z</time></trkpt><trkpt lat="43.0676317" lon="12.669265"><ele>1229.8</ele><time>2026-04-18T13:40:44.98Z</time></trkpt><trkpt lat="43.0677083" lon="12.6691667"><ele>1230.0</ele><time>2026-04-18T13:40:45.98Z</time></trkpt><trkpt lat="43.06778" lon="12.6690633"><ele>1228.8</ele><time>2026-04-18T13:40:46.98Z</time></trkpt><trkpt lat="43.067845" lon="12.66896"><ele>1227.6</ele><time>2026-04-18T13:40:47.98Z</time></trkpt><trkpt lat="43.06792" lon="12.66884"><ele>1226.4</ele><time>2026-04-18T13:40:48.98Z</time></trkpt><trkpt lat="43.0679933" lon="12.6687333"><ele>1225.2</ele><time>2026-04-18T13:40:49.98Z</time></trkpt><trkpt lat="43.0680717" lon="12.6686467"><ele>1224.0</ele><time>2026-04-18T13:40:50.98Z</time></trkpt><trkpt lat="43.0681533" lon="12.6685917"><ele>1223.0</ele><time>2026-04-18T13:40:51.98Z</time></trkpt><trkpt lat="43.0682517" lon="12.668565"><ele>1222.0</ele><time>2026-04-18T13:40:52.98Z</time></trkpt><trkpt lat="43.068345" lon="12.668555"><ele>1221.0</ele><time>2026-04-18T13:40:53.98Z</time></trkpt><trkpt lat="43.0684433" lon="12.6685467"><ele>1220.0</ele><time>2026-04-18T13:40:54.98Z</time></trkpt><trkpt lat="43.068545" lon="12.6685367"><ele>1219.0</ele><time>2026-04-18T13:40:55.98Z</time></trkpt><trkpt lat="43.06865" lon="12.6685317"><ele>1219.0</ele><time>2026-04-18T13:40:56.98Z</time></trkpt><trkpt lat="43.0687533" lon="12.6685183"><ele>1219.0</ele><time>2026-04-18T13:40:57.98Z</time></trkpt><trkpt lat="43.068855" lon="12.6685017"><ele>1219.0</ele><time>2026-04-18T13:40:58.98Z</time></trkpt><trkpt lat="43.0689467" lon="12.6684933"><ele>1219.0</ele><time>2026-04-18T13:40:59.98Z</time></trkpt><trkpt lat="43.0690317" lon="12.6685"><ele>1219.0</ele><time>2026-04-18T13:41:00.98Z</time></trkpt><trkpt lat="43.0691117" lon="12.668535"><ele>1219.2</ele><time>2026-04-18T13:41:01.98Z</time></trkpt><trkpt lat="43.069185" lon="12.668595"><ele>1219.4</ele><time>2026-04-18T13:41:02.98Z</time></trkpt><trkpt lat="43.06926" lon="12.6686717"><ele>1219.6</ele><time>2026-04-18T13:41:03.98Z</time></trkpt><trkpt lat="43.0693383" lon="12.6687517"><ele>1219.8</ele><time>2026-04-18T13:41:04.98Z</time></trkpt><trkpt lat="43.0694233" lon="12.6688333"><ele>1220.0</ele><time>2026-04-18T13:41:05.98Z</time></trkpt><trkpt lat="43.0695067" lon="12.6689067"><ele>1220.8333333333335</ele><time>2026-04-18T13:41:06.98Z</time></trkpt><trkpt lat="43.069585" lon="12.66898"><ele>1221.6666666666667</ele><time>2026-04-18T13:41:07.98Z</time></trkpt><trkpt lat="43.0696533" lon="12.66906"><ele>1222.5</ele><time>2026-04-18T13:41:08.98Z</time></trkpt><trkpt lat="43.0697267" lon="12.669135"><ele>1223.3333333333333</ele><time>2026-04-18T13:41:09.98Z</time></trkpt><trkpt lat="43.0697917" lon="12.6692033"><ele>1224.1666666666665</ele><time>2026-04-18T13:41:10.98Z</time></trkpt><trkpt lat="43.0698533" lon="12.6692583"><ele>1225.0</ele><time>2026-04-18T13:41:11.98Z</time></trkpt><trkpt lat="43.06992" lon="12.669305"><ele>1223.1666666666665</ele><time>2026-04-18T13:41:12.98Z</time></trkpt><trkpt lat="43.0699867" lon="12.669335"><ele>1221.3333333333333</ele><time>2026-04-18T13:41:13.98Z</time></trkpt><trkpt lat="43.0700583" lon="12.6693567"><ele>1219.5</ele><time>2026-04-18T13:41:14.98Z</time></trkpt><trkpt lat="43.070125" lon="12.6693583"><ele>1217.6666666666667</ele><time>2026-04-18T13:41:15.98Z</time></trkpt><trkpt lat="43.070205" lon="12.6693333"><ele>1215.8333333333335</ele><time>2026-04-18T13:41:16.98Z</time></trkpt><trkpt lat="43.0702833" lon="12.6692883"><ele>1214.0</ele><time>2026-04-18T13:41:17.98Z</time></trkpt><trkpt lat="43.07035" lon="12.66923"><ele>1214.0</ele><time>2026-04-18T13:41:18.98Z</time></trkpt><trkpt lat="43.0704133" lon="12.6691617"><ele>1214.0</ele><time>2026-04-18T13:41:19.98Z</time></trkpt><trkpt lat="43.0704717" lon="12.669095"><ele>1214.0</ele><time>2026-04-18T13:41:20.98Z</time></trkpt><trkpt lat="43.0705333" lon="12.6690267"><ele>1214.0</ele><time>2026-04-18T13:41:21.979Z</time></trkpt><trkpt lat="43.0705967" lon="12.6689633"><ele>1214.0</ele><time>2026-04-18T13:41:22.979Z</time></trkpt><trkpt lat="43.0706617" lon="12.668905"><ele>1214.0</ele><time>2026-04-18T13:41:23.979Z</time></trkpt><trkpt lat="43.0707267" lon="12.668845"><ele>1212.0</ele><time>2026-04-18T13:41:24.979Z</time></trkpt><trkpt lat="43.0707883" lon="12.6687817"><ele>1210.0</ele><time>2026-04-18T13:41:25.979Z</time></trkpt><trkpt lat="43.070855" lon="12.6687183"><ele>1208.0</ele><time>2026-04-18T13:41:26.979Z</time></trkpt><trkpt lat="43.07091" lon="12.6686533"><ele>1206.0</ele><time>2026-04-18T13:41:27.979Z</time></trkpt><trkpt lat="43.07096" lon="12.668575"><ele>1204.0</ele><time>2026-04-18T13:41:28.979Z</time></trkpt><trkpt lat="43.0710017" lon="12.6684733"><ele>1202.0</ele><time>2026-04-18T13:41:29.979Z</time></trkpt><trkpt lat="43.0710267" lon="12.66836"><ele>1202.0</ele><time>2026-04-18T13:41:30.979Z</time></trkpt><trkpt lat="43.0710433" lon="12.6682467"><ele>1202.0</ele><time>2026-04-18T13:41:31.979Z</time></trkpt><trkpt lat="43.071055" lon="12.6681267"><ele>1202.0</ele><time>2026-04-18T13:41:32.979Z</time></trkpt><trkpt lat="43.0710583" lon="12.668005"><ele>1202.0</ele><time>2026-04-18T13:41:33.979Z</time></trkpt><trkpt lat="43.0710667" lon="12.66789"><ele>1202.0</ele><time>2026-04-18T13:41:34.979Z</time></trkpt><trkpt lat="43.071075" lon="12.667775"><ele>1202.0</ele><time>2026-04-18T13:41:35.979Z</time></trkpt><trkpt lat="43.0710867" lon="12.66766"><ele>1201.3333333333335</ele><time>2026-04-18T13:41:36.979Z</time></trkpt><trkpt lat="43.0711" lon="12.66754"><ele>1200.6666666666667</ele><time>2026-04-18T13:41:37.979Z</time></trkpt><trkpt lat="43.071115" lon="12.6674133"><ele>1200.0</ele><time>2026-04-18T13:41:38.979Z</time></trkpt><trkpt lat="43.071125" lon="12.6672917"><ele>1199.3333333333333</ele><time>2026-04-18T13:41:39.979Z</time></trkpt><trkpt lat="43.071135" lon="12.6671733"><ele>1198.6666666666665</ele><time>2026-04-18T13:41:40.979Z</time></trkpt><trkpt lat="43.0711433" lon="12.667055"><ele>1198.0</ele><time>2026-04-18T13:41:41.979Z</time></trkpt><trkpt lat="43.0711583" lon="12.6669383"><ele>1197.5</ele><time>2026-04-18T13:41:42.979Z</time></trkpt><trkpt lat="43.0711683" lon="12.6668233"><ele>1197.0</ele><time>2026-04-18T13:41:43.979Z</time></trkpt><trkpt lat="43.07118" lon="12.666705"><ele>1196.5</ele><time>2026-04-18T13:41:44.979Z</time></trkpt><trkpt lat="43.071195" lon="12.6665817"><ele>1196.0</ele><time>2026-04-18T13:41:45.979Z</time></trkpt><trkpt lat="43.0712017" lon="12.6664683"><ele>1195.5</ele><time>2026-04-18T13:41:46.979Z</time></trkpt><trkpt lat="43.0712183" lon="12.6663567"><ele>1195.0</ele><time>2026-04-18T13:41:47.979Z</time></trkpt><trkpt lat="43.07123" lon="12.6662483"><ele>1195.0</ele><time>2026-04-18T13:41:48.979Z</time></trkpt><trkpt lat="43.0712383" lon="12.6661433"><ele>1195.0</ele><time>2026-04-18T13:41:49.979Z</time></trkpt><trkpt lat="43.0712417" lon="12.6660267"><ele>1195.0</ele><time>2026-04-18T13:41:50.979Z</time></trkpt><trkpt lat="43.071235" lon="12.6659"><ele>1195.0</ele><time>2026-04-18T13:41:51.979Z</time></trkpt><trkpt lat="43.0712217" lon="12.66578"><ele>1195.0</ele><time>2026-04-18T13:41:52.979Z</time></trkpt><trkpt lat="43.0712067" lon="12.6656567"><ele>1195.0</ele><time>2026-04-18T13:41:53.979Z</time></trkpt><trkpt lat="43.07119" lon="12.665535"><ele>1194.1666666666665</ele><time>2026-04-18T13:41:54.979Z</time></trkpt><trkpt lat="43.0711767" lon="12.6654183"><ele>1193.3333333333333</ele><time>2026-04-18T13:41:55.979Z</time></trkpt><trkpt lat="43.071155" lon="12.66531"><ele>1192.5</ele><time>2026-04-18T13:41:56.979Z</time></trkpt><trkpt lat="43.071135" lon="12.6651967"><ele>1191.6666666666667</ele><time>2026-04-18T13:41:57.979Z</time></trkpt><trkpt lat="43.0711233" lon="12.6650833"><ele>1190.8333333333335</ele><time>2026-04-18T13:41:58.979Z</time></trkpt><trkpt lat="43.0711067" lon="12.6649717"><ele>1190.0</ele><time>2026-04-18T13:41:59.979Z</time></trkpt><trkpt lat="43.07109" lon="12.6648667"><ele>1188.5</ele><time>2026-04-18T13:42:00.979Z</time></trkpt><trkpt lat="43.0710717" lon="12.6647633"><ele>1187.0</ele><time>2026-04-18T13:42:01.979Z</time></trkpt><trkpt lat="43.0710533" lon="12.6646567"><ele>1185.5</ele><time>2026-04-18T13:42:02.979Z</time></trkpt><trkpt lat="43.0710367" lon="12.66455"><ele>1184.0</ele><time>2026-04-18T13:42:03.979Z</time></trkpt><trkpt lat="43.0710217" lon="12.664445"><ele>1182.5</ele><time>2026-04-18T13:42:04.979Z</time></trkpt><trkpt lat="43.071005" lon="12.66434"><ele>1181.0</ele><time>2026-04-18T13:42:05.979Z</time></trkpt><trkpt lat="43.0709833" lon="12.664235"><ele>1180.1666666666667</ele><time>2026-04-18T13:42:06.979Z</time></trkpt><trkpt lat="43.07096" lon="12.66413"><ele>1179.3333333333335</ele><time>2026-04-18T13:42:07.979Z</time></trkpt><trkpt lat="43.0709417" lon="12.6640283"><ele>1178.5</ele><time>2026-04-18T13:42:08.979Z</time></trkpt><trkpt lat="43.07093" lon="12.6639233"><ele>1177.6666666666667</ele><time>2026-04-18T13:42:09.979Z</time></trkpt><trkpt lat="43.0709133" lon="12.663825"><ele>1176.8333333333333</ele><time>2026-04-18T13:42:10.979Z</time></trkpt><trkpt lat="43.0709067" lon="12.6637283"><ele>1176.0</ele><time>2026-04-18T13:42:11.979Z</time></trkpt><trkpt lat="43.070915" lon="12.6636217"><ele>1175.1666666666667</ele><time>2026-04-18T13:42:12.979Z</time></trkpt><trkpt lat="43.0709317" lon="12.66352"><ele>1174.3333333333333</ele><time>2026-04-18T13:42:13.979Z</time></trkpt><trkpt lat="43.0709617" lon="12.6634167"><ele>1173.5</ele><time>2026-04-18T13:42:14.979Z</time></trkpt><trkpt lat="43.0710083" lon="12.6633233"><ele>1172.6666666666665</ele><time>2026-04-18T13:42:15.979Z</time></trkpt><trkpt lat="43.07106" lon="12.663215"><ele>1171.8333333333333</ele><time>2026-04-18T13:42:16.979Z</time></trkpt><trkpt lat="43.071115" lon="12.66311"><ele>1171.0</ele><time>2026-04-18T13:42:17.979Z</time></trkpt><trkpt lat="43.071165" lon="12.6630067"><ele>1171.0</ele><time>2026-04-18T13:42:18.979Z</time></trkpt><trkpt lat="43.0712083" lon="12.6629083"><ele>1171.0</ele><time>2026-04-18T13:42:19.979Z</time></trkpt><trkpt lat="43.071255" lon="12.6628233"><ele>1171.0</ele><time>2026-04-18T13:42:20.979Z</time></trkpt><trkpt lat="43.0713083" lon="12.6627367"><ele>1171.0</ele><time>2026-04-18T13:42:21.979Z</time></trkpt><trkpt lat="43.0713717" lon="12.6626617"><ele>1171.0</ele><time>2026-04-18T13:42:22.979Z</time></trkpt><trkpt lat="43.0714417" lon="12.6625983"><ele>1171.0</ele><time>2026-04-18T13:42:23.979Z</time></trkpt><trkpt lat="43.0715217" lon="12.6625533"><ele>1169.3999999999999</ele><time>2026-04-18T13:42:24.979Z</time></trkpt><trkpt lat="43.0716083" lon="12.662515"><ele>1167.8</ele><time>2026-04-18T13:42:25.979Z</time></trkpt><trkpt lat="43.0717033" lon="12.6624783"><ele>1166.1999999999998</ele><time>2026-04-18T13:42:26.979Z</time></trkpt><trkpt lat="43.0717983" lon="12.662455"><ele>1164.6</ele><time>2026-04-18T13:42:27.979Z</time></trkpt><trkpt lat="43.0718883" lon="12.6624283"><ele>1163.0</ele><time>2026-04-18T13:42:28.979Z</time></trkpt><trkpt lat="43.0719717" lon="12.662405"><ele>1163.0</ele><time>2026-04-18T13:42:29.979Z</time></trkpt><trkpt lat="43.0720567" lon="12.66237"><ele>1163.0</ele><time>2026-04-18T13:42:30.979Z</time></trkpt><trkpt lat="43.0721317" lon="12.6623417"><ele>1163.0</ele><time>2026-04-18T13:42:31.979Z</time></trkpt><trkpt lat="43.0722067" lon="12.6623117"><ele>1163.0</ele><time>2026-04-18T13:42:32.979Z</time></trkpt><trkpt lat="43.0722767" lon="12.662285"><ele>1163.0</ele><time>2026-04-18T13:42:33.979Z</time></trkpt><trkpt lat="43.0723517" lon="12.6622617"><ele>1163.0</ele><time>2026-04-18T13:42:34.979Z</time></trkpt><trkpt lat="43.072425" lon="12.6622667"><ele>1161.8333333333335</ele><time>2026-04-18T13:42:35.979Z</time></trkpt><trkpt lat="43.07249" lon="12.6622983"><ele>1160.6666666666667</ele><time>2026-04-18T13:42:36.979Z</time></trkpt><trkpt lat="43.072555" lon="12.6623483"><ele>1159.5</ele><time>2026-04-18T13:42:37.979Z</time></trkpt><trkpt lat="43.0726083" lon="12.6624183"><ele>1158.3333333333333</ele><time>2026-04-18T13:42:38.979Z</time></trkpt><trkpt lat="43.0726567" lon="12.66251"><ele>1157.1666666666665</ele><time>2026-04-18T13:42:39.979Z</time></trkpt><trkpt lat="43.0726917" lon="12.6626"><ele>1156.0</ele><time>2026-04-18T13:42:40.979Z</time></trkpt><trkpt lat="43.0727233" lon="12.6626967"><ele>1157.1666666666665</ele><time>2026-04-18T13:42:41.979Z</time></trkpt><trkpt lat="43.07276" lon="12.662795"><ele>1158.3333333333333</ele><time>2026-04-18T13:42:42.979Z</time></trkpt><trkpt lat="43.0727983" lon="12.66288"><ele>1159.5</ele><time>2026-04-18T13:42:43.979Z</time></trkpt><trkpt lat="43.0728333" lon="12.6629567"><ele>1160.6666666666667</ele><time>2026-04-18T13:42:44.979Z</time></trkpt><trkpt lat="43.0728717" lon="12.663025"><ele>1161.8333333333335</ele><time>2026-04-18T13:42:45.979Z</time></trkpt><trkpt lat="43.072965" lon="12.6631167"><ele>1163.0</ele><time>2026-04-18T13:42:47.979Z</time></trkpt><trkpt lat="43.0730683" lon="12.6631083"><ele>1163.0</ele><time>2026-04-18T13:42:49.979Z</time></trkpt><trkpt lat="43.0731217" lon="12.6629883"><ele>1163.0</ele><time>2026-04-18T13:42:51.979Z</time></trkpt><trkpt lat="43.0731233" lon="12.662895"><ele>1163.0</ele><time>2026-04-18T13:42:52.979Z</time></trkpt><trkpt lat="43.073115" lon="12.6627717"><ele>1163.0</ele><time>2026-04-18T13:42:53.979Z</time></trkpt><trkpt lat="43.0731033" lon="12.6626333"><ele>1163.0</ele><time>2026-04-18T13:42:54.979Z</time></trkpt><trkpt lat="43.0731033" lon="12.66249"><ele>1161.25</ele><time>2026-04-18T13:42:55.979Z</time></trkpt><trkpt lat="43.073105" lon="12.6623217"><ele>1159.5</ele><time>2026-04-18T13:42:56.979Z</time></trkpt><trkpt lat="43.07311" lon="12.66215"><ele>1157.75</ele><time>2026-04-18T13:42:57.979Z</time></trkpt><trkpt lat="43.07312" lon="12.6619883"><ele>1156.0</ele><time>2026-04-18T13:42:58.979Z</time></trkpt><trkpt lat="43.073125" lon="12.661835"><ele>1155.0</ele><time>2026-04-18T13:42:59.979Z</time></trkpt><trkpt lat="43.07313" lon="12.6616917"><ele>1154.0</ele><time>2026-04-18T13:43:00.979Z</time></trkpt><trkpt lat="43.0731283" lon="12.661545"><ele>1153.0</ele><time>2026-04-18T13:43:01.979Z</time></trkpt><trkpt lat="43.0731317" lon="12.6614033"><ele>1152.0</ele><time>2026-04-18T13:43:02.979Z</time></trkpt><trkpt lat="43.0731333" lon="12.6612667"><ele>1151.0</ele><time>2026-04-18T13:43:03.979Z</time></trkpt><trkpt lat="43.07313" lon="12.661135"><ele>1149.3999999999999</ele><time>2026-04-18T13:43:04.979Z</time></trkpt><trkpt lat="43.0731167" lon="12.661005"><ele>1147.8</ele><time>2026-04-18T13:43:05.979Z</time></trkpt><trkpt lat="43.0730833" lon="12.6608783"><ele>1146.1999999999998</ele><time>2026-04-18T13:43:06.979Z</time></trkpt><trkpt lat="43.07304" lon="12.6607683"><ele>1144.6</ele><time>2026-04-18T13:43:07.979Z</time></trkpt><trkpt lat="43.0729917" lon="12.6606583"><ele>1143.0</ele><time>2026-04-18T13:43:08.979Z</time></trkpt><trkpt lat="43.0729383" lon="12.66056"><ele>1143.0</ele><time>2026-04-18T13:43:09.979Z</time></trkpt><trkpt lat="43.0728867" lon="12.6604667"><ele>1143.0</ele><time>2026-04-18T13:43:10.979Z</time></trkpt><trkpt lat="43.07284" lon="12.6603617"><ele>1143.0</ele><time>2026-04-18T13:43:11.979Z</time></trkpt><trkpt lat="43.0727883" lon="12.66026"><ele>1143.0</ele><time>2026-04-18T13:43:12.979Z</time></trkpt><trkpt lat="43.0727367" lon="12.66016"><ele>1143.0</ele><time>2026-04-18T13:43:13.979Z</time></trkpt><trkpt lat="43.072685" lon="12.66005"><ele>1141.0</ele><time>2026-04-18T13:43:14.979Z</time></trkpt><trkpt lat="43.0726333" lon="12.6599517"><ele>1139.0</ele><time>2026-04-18T13:43:15.979Z</time></trkpt><trkpt lat="43.07257" lon="12.65987"><ele>1137.0</ele><time>2026-04-18T13:43:16.979Z</time></trkpt><trkpt lat="43.0724967" lon="12.6597883"><ele>1135.0</ele><time>2026-04-18T13:43:17.979Z</time></trkpt><trkpt lat="43.0724117" lon="12.659735"><ele>1133.0</ele><time>2026-04-18T13:43:18.979Z</time></trkpt><trkpt lat="43.0723233" lon="12.6596883"><ele>1133.0</ele><time>2026-04-18T13:43:19.979Z</time></trkpt><trkpt lat="43.0722333" lon="12.6596617"><ele>1133.0</ele><time>2026-04-18T13:43:20.979Z</time></trkpt><trkpt lat="43.07215" lon="12.659645"><ele>1133.0</ele><time>2026-04-18T13:43:21.979Z</time></trkpt><trkpt lat="43.0720667" lon="12.659635"><ele>1133.0</ele><time>2026-04-18T13:43:22.979Z</time></trkpt><trkpt lat="43.0719783" lon="12.6596217"><ele>1133.0</ele><time>2026-04-18T13:43:23.979Z</time></trkpt><trkpt lat="43.071905" lon="12.659605"><ele>1133.0</ele><time>2026-04-18T13:43:24.979Z</time></trkpt><trkpt lat="43.0718417" lon="12.6595833"><ele>1133.0</ele><time>2026-04-18T13:43:25.979Z</time></trkpt><trkpt lat="43.0717367" lon="12.659505"><ele>1133.0</ele><time>2026-04-18T13:43:27.979Z</time></trkpt><trkpt lat="43.0716867" lon="12.6593667"><ele>1133.0</ele><time>2026-04-18T13:43:29.979Z</time></trkpt><trkpt lat="43.071725" lon="12.6592283"><ele>1133.0</ele><time>2026-04-18T13:43:31.979Z</time></trkpt><trkpt lat="43.0717783" lon="12.6591567"><ele>1133.0</ele><time>2026-04-18T13:43:32.979Z</time></trkpt><trkpt lat="43.0718517" lon="12.659115"><ele>1130.8333333333335</ele><time>2026-04-18T13:43:33.979Z</time></trkpt><trkpt lat="43.0719283" lon="12.6590717"><ele>1128.6666666666667</ele><time>2026-04-18T13:43:34.979Z</time></trkpt><trkpt lat="43.0720017" lon="12.6590417"><ele>1126.5</ele><time>2026-04-18T13:43:35.979Z</time></trkpt><trkpt lat="43.072075" lon="12.6590083"><ele>1124.3333333333333</ele><time>2026-04-18T13:43:36.979Z</time></trkpt><trkpt lat="43.072145" lon="12.6589717"><ele>1122.1666666666665</ele><time>2026-04-18T13:43:37.979Z</time></trkpt><trkpt lat="43.0722183" lon="12.65894"><ele>1120.0</ele><time>2026-04-18T13:43:38.979Z</time></trkpt><trkpt lat="43.0722983" lon="12.6589217"><ele>1120.0</ele><time>2026-04-18T13:43:39.979Z</time></trkpt><trkpt lat="43.0723833" lon="12.658905"><ele>1120.0</ele><time>2026-04-18T13:43:40.979Z</time></trkpt><trkpt lat="43.07247" lon="12.658915"><ele>1120.0</ele><time>2026-04-18T13:43:41.979Z</time></trkpt><trkpt lat="43.0725517" lon="12.658935"><ele>1120.0</ele><time>2026-04-18T13:43:42.979Z</time></trkpt><trkpt lat="43.0726383" lon="12.6589683"><ele>1120.0</ele><time>2026-04-18T13:43:43.979Z</time></trkpt><trkpt lat="43.0727283" lon="12.65901"><ele>1120.0</ele><time>2026-04-18T13:43:44.979Z</time></trkpt><trkpt lat="43.0728167" lon="12.6590433"><ele>1119.6</ele><time>2026-04-18T13:43:45.979Z</time></trkpt><trkpt lat="43.072905" lon="12.65908"><ele>1119.2</ele><time>2026-04-18T13:43:46.979Z</time></trkpt><trkpt lat="43.0729983" lon="12.6591083"><ele>1118.8</ele><time>2026-04-18T13:43:47.979Z</time></trkpt><trkpt lat="43.07309" lon="12.6591467"><ele>1118.4</ele><time>2026-04-18T13:43:48.979Z</time></trkpt><trkpt lat="43.0731883" lon="12.6591817"><ele>1118.0</ele><time>2026-04-18T13:43:49.979Z</time></trkpt><trkpt lat="43.0732817" lon="12.6592217"><ele>1117.8</ele><time>2026-04-18T13:43:50.979Z</time></trkpt><trkpt lat="43.07337" lon="12.6592717"><ele>1117.6</ele><time>2026-04-18T13:43:51.979Z</time></trkpt><trkpt lat="43.0734583" lon="12.65933"><ele>1117.4</ele><time>2026-04-18T13:43:52.979Z</time></trkpt><trkpt lat="43.0735483" lon="12.6594033"><ele>1117.2</ele><time>2026-04-18T13:43:53.979Z</time></trkpt><trkpt lat="43.0736283" lon="12.65949"><ele>1117.0</ele><time>2026-04-18T13:43:54.979Z</time></trkpt><trkpt lat="43.0737" lon="12.6595883"><ele>1117.0</ele><time>2026-04-18T13:43:55.979Z</time></trkpt><trkpt lat="43.0737683" lon="12.65969"><ele>1117.0</ele><time>2026-04-18T13:43:56.979Z</time></trkpt><trkpt lat="43.0738267" lon="12.6597967"><ele>1117.0</ele><time>2026-04-18T13:43:57.979Z</time></trkpt><trkpt lat="43.0738783" lon="12.6599033"><ele>1117.0</ele><time>2026-04-18T13:43:58.979Z</time></trkpt><trkpt lat="43.0739267" lon="12.6600067"><ele>1117.0</ele><time>2026-04-18T13:43:59.979Z</time></trkpt><trkpt lat="43.0739733" lon="12.66011"><ele>1117.0</ele><time>2026-04-18T13:44:00.979Z</time></trkpt><trkpt lat="43.0740167" lon="12.6602033"><ele>1117.0</ele><time>2026-04-18T13:44:01.979Z</time></trkpt><trkpt lat="43.07406" lon="12.6602867"><ele>1117.0</ele><time>2026-04-18T13:44:02.979Z</time></trkpt><trkpt lat="43.0741283" lon="12.6604083"><ele>1117.0</ele><time>2026-04-18T13:44:04.979Z</time></trkpt><trkpt lat="43.074215" lon="12.6604117"><ele>1117.0</ele><time>2026-04-18T13:44:06.979Z</time></trkpt><trkpt lat="43.0742483" lon="12.6603033"><ele>1117.0</ele><time>2026-04-18T13:44:08.979Z</time></trkpt><trkpt lat="43.0741867" lon="12.6601383"><ele>1117.0</ele><time>2026-04-18T13:44:10.979Z</time></trkpt><trkpt lat="43.0741333" lon="12.6600217"><ele>1117.0</ele><time>2026-04-18T13:44:11.979Z</time></trkpt><trkpt lat="43.0740883" lon="12.6598917"><ele>1117.0</ele><time>2026-04-18T13:44:12.979Z</time></trkpt><trkpt lat="43.0740467" lon="12.65973"><ele>1117.0</ele><time>2026-04-18T13:44:13.979Z</time></trkpt><trkpt lat="43.074" lon="12.6595733"><ele>1114.25</ele><time>2026-04-18T13:44:14.979Z</time></trkpt><trkpt lat="43.07396" lon="12.6594183"><ele>1111.5</ele><time>2026-04-18T13:44:15.979Z</time></trkpt><trkpt lat="43.0739183" lon="12.659265"><ele>1108.75</ele><time>2026-04-18T13:44:16.979Z</time></trkpt><trkpt lat="43.073875" lon="12.65912"><ele>1106.0</ele><time>2026-04-18T13:44:17.979Z</time></trkpt><trkpt lat="43.0738333" lon="12.6589733"><ele>1106.0</ele><time>2026-04-18T13:44:18.979Z</time></trkpt><trkpt lat="43.0737917" lon="12.6588317"><ele>1106.0</ele><time>2026-04-18T13:44:19.979Z</time></trkpt><trkpt lat="43.073745" lon="12.658695"><ele>1106.0</ele><time>2026-04-18T13:44:20.979Z</time></trkpt><trkpt lat="43.0737017" lon="12.6585583"><ele>1106.0</ele><time>2026-04-18T13:44:21.979Z</time></trkpt><trkpt lat="43.0736667" lon="12.6584283"><ele>1106.0</ele><time>2026-04-18T13:44:22.979Z</time></trkpt><trkpt lat="43.0736283" lon="12.6582967"><ele>1104.2</ele><time>2026-04-18T13:44:23.979Z</time></trkpt><trkpt lat="43.0735917" lon="12.658165"><ele>1102.3999999999999</ele><time>2026-04-18T13:44:24.979Z</time></trkpt><trkpt lat="43.07355" lon="12.6580333"><ele>1100.6</ele><time>2026-04-18T13:44:25.979Z</time></trkpt><trkpt lat="43.0735083" lon="12.6579083"><ele>1098.8</ele><time>2026-04-18T13:44:26.979Z</time></trkpt><trkpt lat="43.0734667" lon="12.6577783"><ele>1097.0</ele><time>2026-04-18T13:44:27.979Z</time></trkpt><trkpt lat="43.07343" lon="12.6576567"><ele>1096.4</ele><time>2026-04-18T13:44:28.979Z</time></trkpt><trkpt lat="43.073395" lon="12.6575383"><ele>1095.8000000000002</ele><time>2026-04-18T13:44:29.979Z</time></trkpt><trkpt lat="43.0733567" lon="12.65741"><ele>1095.2</ele><time>2026-04-18T13:44:30.979Z</time></trkpt><trkpt lat="43.0733167" lon="12.6572917"><ele>1094.6000000000001</ele><time>2026-04-18T13:44:31.979Z</time></trkpt><trkpt lat="43.0732817" lon="12.6571717"><ele>1094.0</ele><time>2026-04-18T13:44:32.979Z</time></trkpt><trkpt lat="43.0732567" lon="12.6570533"><ele>1092.6666666666667</ele><time>2026-04-18T13:44:33.979Z</time></trkpt><trkpt lat="43.0732383" lon="12.6569417"><ele>1091.3333333333335</ele><time>2026-04-18T13:44:34.979Z</time></trkpt><trkpt lat="43.0732217" lon="12.6568233"><ele>1090.0</ele><time>2026-04-18T13:44:35.979Z</time></trkpt><trkpt lat="43.073215" lon="12.656705"><ele>1088.6666666666667</ele><time>2026-04-18T13:44:36.979Z</time></trkpt><trkpt lat="43.07321" lon="12.6565917"><ele>1087.3333333333333</ele><time>2026-04-18T13:44:37.979Z</time></trkpt><trkpt lat="43.0732133" lon="12.6564817"><ele>1086.0</ele><time>2026-04-18T13:44:38.979Z</time></trkpt><trkpt lat="43.0732117" lon="12.656365"><ele>1086.0</ele><time>2026-04-18T13:44:39.979Z</time></trkpt><trkpt lat="43.0732083" lon="12.6562467"><ele>1086.0</ele><time>2026-04-18T13:44:40.979Z</time></trkpt><trkpt lat="43.0731983" lon="12.6561467"><ele>1086.0</ele><time>2026-04-18T13:44:41.979Z</time></trkpt><trkpt lat="43.0731917" lon="12.6560467"><ele>1086.0</ele><time>2026-04-18T13:44:42.979Z</time></trkpt><trkpt lat="43.0731833" lon="12.6559383"><ele>1086.0</ele><time>2026-04-18T13:44:43.979Z</time></trkpt><trkpt lat="43.0731783" lon="12.6558333"><ele>1086.0</ele><time>2026-04-18T13:44:44.979Z</time></trkpt><trkpt lat="43.0731767" lon="12.6557217"><ele>1084.1666666666667</ele><time>2026-04-18T13:44:45.979Z</time></trkpt><trkpt lat="43.07318" lon="12.6556033"><ele>1082.3333333333333</ele><time>2026-04-18T13:44:46.979Z</time></trkpt><trkpt lat="43.0731817" lon="12.6554833"><ele>1080.5</ele><time>2026-04-18T13:44:47.979Z</time></trkpt><trkpt lat="43.073185" lon="12.655365"><ele>1078.6666666666665</ele><time>2026-04-18T13:44:48.979Z</time></trkpt><trkpt lat="43.0731867" lon="12.6552433"><ele>1076.8333333333333</ele><time>2026-04-18T13:44:49.979Z</time></trkpt><trkpt lat="43.0731933" lon="12.6551233"><ele>1075.0</ele><time>2026-04-18T13:44:50.979Z</time></trkpt><trkpt lat="43.0731917" lon="12.6550067"><ele>1073.7142857142858</ele><time>2026-04-18T13:44:51.979Z</time></trkpt><trkpt lat="43.073195" lon="12.6548883"><ele>1072.4285714285716</ele><time>2026-04-18T13:44:52.979Z</time></trkpt><trkpt lat="43.0731967" lon="12.6547783"><ele>1071.142857142857</ele><time>2026-04-18T13:44:53.979Z</time></trkpt><trkpt lat="43.0731917" lon="12.6546767"><ele>1069.857142857143</ele><time>2026-04-18T13:44:54.979Z</time></trkpt><trkpt lat="43.07319" lon="12.6545867"><ele>1068.5714285714284</ele><time>2026-04-18T13:44:55.979Z</time></trkpt><trkpt lat="43.07319" lon="12.6544917"><ele>1067.2857142857142</ele><time>2026-04-18T13:44:56.979Z</time></trkpt><trkpt lat="43.0731933" lon="12.6543983"><ele>1066.0</ele><time>2026-04-18T13:44:57.979Z</time></trkpt><trkpt lat="43.0731867" lon="12.6543017"><ele>1065.5714285714284</ele><time>2026-04-18T13:44:58.979Z</time></trkpt><trkpt lat="43.073175" lon="12.654205"><ele>1065.142857142857</ele><time>2026-04-18T13:44:59.979Z</time></trkpt><trkpt lat="43.07316" lon="12.6541033"><ele>1064.7142857142858</ele><time>2026-04-18T13:45:00.979Z</time></trkpt><trkpt lat="43.073145" lon="12.6540033"><ele>1064.2857142857142</ele><time>2026-04-18T13:45:01.979Z</time></trkpt><trkpt lat="43.0731067" lon="12.653925"><ele>1063.857142857143</ele><time>2026-04-18T13:45:02.979Z</time></trkpt><trkpt lat="43.07307" lon="12.6538517"><ele>1063.4285714285713</ele><time>2026-04-18T13:45:03.979Z</time></trkpt><trkpt lat="43.0730217" lon="12.6537817"><ele>1063.0</ele><time>2026-04-18T13:45:04.979Z</time></trkpt><trkpt lat="43.0729733" lon="12.6537117"><ele>1063.0</ele><time>2026-04-18T13:45:05.979Z</time></trkpt><trkpt lat="43.0729183" lon="12.6536567"><ele>1063.0</ele><time>2026-04-18T13:45:06.979Z</time></trkpt><trkpt lat="43.0728617" lon="12.6536067"><ele>1063.0</ele><time>2026-04-18T13:45:07.979Z</time></trkpt><trkpt lat="43.0727967" lon="12.6535717"><ele>1063.0</ele><time>2026-04-18T13:45:08.979Z</time></trkpt><trkpt lat="43.0727233" lon="12.653545"><ele>1063.0</ele><time>2026-04-18T13:45:09.979Z</time></trkpt><trkpt lat="43.07265" lon="12.6535233"><ele>1063.0</ele><time>2026-04-18T13:45:10.979Z</time></trkpt><trkpt lat="43.0725717" lon="12.6535"><ele>1063.0</ele><time>2026-04-18T13:45:11.979Z</time></trkpt><trkpt lat="43.072485" lon="12.6534783"><ele>1060.8</ele><time>2026-04-18T13:45:12.979Z</time></trkpt><trkpt lat="43.072395" lon="12.653445"><ele>1058.6</ele><time>2026-04-18T13:45:13.979Z</time></trkpt><trkpt lat="43.0723033" lon="12.6534167"><ele>1056.4</ele><time>2026-04-18T13:45:14.979Z</time></trkpt><trkpt lat="43.072205" lon="12.6533933"><ele>1054.2</ele><time>2026-04-18T13:45:15.979Z</time></trkpt><trkpt lat="43.07211" lon="12.65337"><ele>1052.0</ele><time>2026-04-18T13:45:16.979Z</time></trkpt><trkpt lat="43.0720117" lon="12.6533567"><ele>1052.0</ele><time>2026-04-18T13:45:17.979Z</time></trkpt><trkpt lat="43.071915" lon="12.6533567"><ele>1052.0</ele><time>2026-04-18T13:45:18.979Z</time></trkpt><trkpt lat="43.0718217" lon="12.6533633"><ele>1052.0</ele><time>2026-04-18T13:45:19.979Z</time></trkpt><trkpt lat="43.071735" lon="12.653375"><ele>1052.0</ele><time>2026-04-18T13:45:20.979Z</time></trkpt><trkpt lat="43.0716517" lon="12.6534017"><ele>1052.0</ele><time>2026-04-18T13:45:21.979Z</time></trkpt><trkpt lat="43.071565" lon="12.6534267"><ele>1053.5</ele><time>2026-04-18T13:45:22.979Z</time></trkpt><trkpt lat="43.0714817" lon="12.6534367"><ele>1055.0</ele><time>2026-04-18T13:45:23.979Z</time></trkpt><trkpt lat="43.0713967" lon="12.6534433"><ele>1056.5</ele><time>2026-04-18T13:45:24.979Z</time></trkpt><trkpt lat="43.0713033" lon="12.6534583"><ele>1058.0</ele><time>2026-04-18T13:45:25.979Z</time></trkpt><trkpt lat="43.0712083" lon="12.6534667"><ele>1059.5</ele><time>2026-04-18T13:45:26.979Z</time></trkpt><trkpt lat="43.0711217" lon="12.6534617"><ele>1061.0</ele><time>2026-04-18T13:45:27.979Z</time></trkpt><trkpt lat="43.0710367" lon="12.6534267"><ele>1061.0</ele><time>2026-04-18T13:45:28.979Z</time></trkpt><trkpt lat="43.0709717" lon="12.653365"><ele>1061.0</ele><time>2026-04-18T13:45:29.979Z</time></trkpt><trkpt lat="43.0709267" lon="12.6532933"><ele>1061.0</ele><time>2026-04-18T13:45:30.979Z</time></trkpt><trkpt lat="43.0708883" lon="12.6532133"><ele>1061.0</ele><time>2026-04-18T13:45:31.979Z</time></trkpt><trkpt lat="43.070855" lon="12.6531233"><ele>1061.0</ele><time>2026-04-18T13:45:32.979Z</time></trkpt><trkpt lat="43.070825" lon="12.6530183"><ele>1061.0</ele><time>2026-04-18T13:45:33.979Z</time></trkpt><trkpt lat="43.0707767" lon="12.652885"><ele>1068.5</ele><time>2026-04-18T13:45:34.979Z</time></trkpt><trkpt lat="43.0707433" lon="12.6527517"><ele>1076.0</ele><time>2026-04-18T13:45:35.979Z</time></trkpt><trkpt lat="43.070715" lon="12.65258"><ele>1083.5</ele><time>2026-04-18T13:45:36.979Z</time></trkpt><trkpt lat="43.0706967" lon="12.6523933"><ele>1091.0</ele><time>2026-04-18T13:45:37.979Z</time></trkpt><trkpt lat="43.0706783" lon="12.6522067"><ele>1091.0</ele><time>2026-04-18T13:45:38.979Z</time></trkpt><trkpt lat="43.0706383" lon="12.6520067"><ele>1091.0</ele><time>2026-04-18T13:45:39.979Z</time></trkpt><trkpt lat="43.0705817" lon="12.6517967"><ele>1091.0</ele><time>2026-04-18T13:45:40.979Z</time></trkpt><trkpt lat="43.0705133" lon="12.6515917"><ele>1088.5</ele><time>2026-04-18T13:45:41.979Z</time></trkpt><trkpt lat="43.0704417" lon="12.65141"><ele>1086.0</ele><time>2026-04-18T13:45:42.979Z</time></trkpt><trkpt lat="43.0703767" lon="12.65124"><ele>1083.5</ele><time>2026-04-18T13:45:43.979Z</time></trkpt><trkpt lat="43.070315" lon="12.65108"><ele>1081.0</ele><time>2026-04-18T13:45:44.979Z</time></trkpt><trkpt lat="43.07026" lon="12.650915"><ele>1078.75</ele><time>2026-04-18T13:45:45.979Z</time></trkpt><trkpt lat="43.070205" lon="12.650765"><ele>1076.5</ele><time>2026-04-18T13:45:46.979Z</time></trkpt><trkpt lat="43.07016" lon="12.6506167"><ele>1074.25</ele><time>2026-04-18T13:45:47.979Z</time></trkpt><trkpt lat="43.0701183" lon="12.6504783"><ele>1072.0</ele><time>2026-04-18T13:45:48.979Z</time></trkpt><trkpt lat="43.0700833" lon="12.65034"><ele>1071.8</ele><time>2026-04-18T13:45:49.979Z</time></trkpt><trkpt lat="43.0700383" lon="12.6502117"><ele>1071.6</ele><time>2026-04-18T13:45:50.979Z</time></trkpt><trkpt lat="43.069985" lon="12.65009"><ele>1071.3999999999999</ele><time>2026-04-18T13:45:51.979Z</time></trkpt><trkpt lat="43.0699317" lon="12.6499633"><ele>1071.2</ele><time>2026-04-18T13:45:52.979Z</time></trkpt><trkpt lat="43.0698633" lon="12.6498333"><ele>1071.0</ele><time>2026-04-18T13:45:53.979Z</time></trkpt><trkpt lat="43.0697883" lon="12.6496917"><ele>1071.0</ele><time>2026-04-18T13:45:54.979Z</time></trkpt><trkpt lat="43.0696983" lon="12.6495467"><ele>1071.0</ele><time>2026-04-18T13:45:55.979Z</time></trkpt><trkpt lat="43.0696017" lon="12.6494183"><ele>1071.0</ele><time>2026-04-18T13:45:56.979Z</time></trkpt><trkpt lat="43.0695133" lon="12.649285"><ele>1071.0</ele><time>2026-04-18T13:45:57.979Z</time></trkpt><trkpt lat="43.0694217" lon="12.6491567"><ele>1067.75</ele><time>2026-04-18T13:45:58.979Z</time></trkpt><trkpt lat="43.06933" lon="12.649025"><ele>1064.5</ele><time>2026-04-18T13:45:59.979Z</time></trkpt><trkpt lat="43.069235" lon="12.6489017"><ele>1061.25</ele><time>2026-04-18T13:46:00.979Z</time></trkpt><trkpt lat="43.0691417" lon="12.6487983"><ele>1058.0</ele><time>2026-04-18T13:46:01.979Z</time></trkpt><trkpt lat="43.06905" lon="12.6487083"><ele>1057.0</ele><time>2026-04-18T13:46:02.979Z</time></trkpt><trkpt lat="43.0689617" lon="12.6486417"><ele>1056.0</ele><time>2026-04-18T13:46:03.979Z</time></trkpt><trkpt lat="43.0688683" lon="12.6486067"><ele>1055.0</ele><time>2026-04-18T13:46:04.979Z</time></trkpt><trkpt lat="43.068775" lon="12.6485833"><ele>1054.0</ele><time>2026-04-18T13:46:05.979Z</time></trkpt><trkpt lat="43.0686783" lon="12.648585"><ele>1053.0</ele><time>2026-04-18T13:46:06.979Z</time></trkpt><trkpt lat="43.0685817" lon="12.6486"><ele>1053.0</ele><time>2026-04-18T13:46:07.979Z</time></trkpt><trkpt lat="43.06848" lon="12.6486283"><ele>1053.0</ele><time>2026-04-18T13:46:08.979Z</time></trkpt><trkpt lat="43.068375" lon="12.6486667"><ele>1053.0</ele><time>2026-04-18T13:46:09.979Z</time></trkpt><trkpt lat="43.0682767" lon="12.6487017"><ele>1053.0</ele><time>2026-04-18T13:46:10.979Z</time></trkpt><trkpt lat="43.0681817" lon="12.648745"><ele>1053.0</ele><time>2026-04-18T13:46:11.979Z</time></trkpt><trkpt lat="43.0680917" lon="12.6488"><ele>1050.0</ele><time>2026-04-18T13:46:12.979Z</time></trkpt><trkpt lat="43.0680017" lon="12.6488517"><ele>1047.0</ele><time>2026-04-18T13:46:13.979Z</time></trkpt><trkpt lat="43.0679133" lon="12.6489067"><ele>1044.0</ele><time>2026-04-18T13:46:14.979Z</time></trkpt><trkpt lat="43.06784" lon="12.648965"><ele>1041.0</ele><time>2026-04-18T13:46:15.979Z</time></trkpt><trkpt lat="43.0677733" lon="12.649045"><ele>1038.0</ele><time>2026-04-18T13:46:16.979Z</time></trkpt><trkpt lat="43.0677183" lon="12.6491533"><ele>1038.0</ele><time>2026-04-18T13:46:17.979Z</time></trkpt><trkpt lat="43.0676783" lon="12.649275"><ele>1038.0</ele><time>2026-04-18T13:46:18.979Z</time></trkpt><trkpt lat="43.067655" lon="12.6494017"><ele>1038.0</ele><time>2026-04-18T13:46:19.979Z</time></trkpt><trkpt lat="43.0676267" lon="12.649535"><ele>1038.0</ele><time>2026-04-18T13:46:20.979Z</time></trkpt><trkpt lat="43.0676033" lon="12.6496867"><ele>1038.0</ele><time>2026-04-18T13:46:21.979Z</time></trkpt><trkpt lat="43.067575" lon="12.649845"><ele>1037.8</ele><time>2026-04-18T13:46:22.979Z</time></trkpt><trkpt lat="43.0675483" lon="12.6499983"><ele>1037.6</ele><time>2026-04-18T13:46:23.979Z</time></trkpt><trkpt lat="43.0675283" lon="12.6501467"><ele>1037.4</ele><time>2026-04-18T13:46:24.979Z</time></trkpt><trkpt lat="43.0675117" lon="12.6502967"><ele>1037.2</ele><time>2026-04-18T13:46:25.979Z</time></trkpt><trkpt lat="43.0675017" lon="12.65044"><ele>1037.0</ele><time>2026-04-18T13:46:26.979Z</time></trkpt><trkpt lat="43.0674983" lon="12.6505867"><ele>1037.0</ele><time>2026-04-18T13:46:27.979Z</time></trkpt><trkpt lat="43.0675" lon="12.6507333"><ele>1037.0</ele><time>2026-04-18T13:46:28.979Z</time></trkpt><trkpt lat="43.0674967" lon="12.65088"><ele>1037.0</ele><time>2026-04-18T13:46:29.979Z</time></trkpt><trkpt lat="43.0674833" lon="12.6510267"><ele>1037.0</ele><time>2026-04-18T13:46:30.979Z</time></trkpt><trkpt lat="43.06746" lon="12.65117"><ele>1037.0</ele><time>2026-04-18T13:46:31.979Z</time></trkpt><trkpt lat="43.0674383" lon="12.6513083"><ele>1029.6</ele><time>2026-04-18T13:46:32.979Z</time></trkpt><trkpt lat="43.0674067" lon="12.6514467"><ele>1022.2</ele><time>2026-04-18T13:46:33.979Z</time></trkpt><trkpt lat="43.0673783" lon="12.6515833"><ele>1014.8</ele><time>2026-04-18T13:46:34.979Z</time></trkpt><trkpt lat="43.0673517" lon="12.6517167"><ele>1007.4</ele><time>2026-04-18T13:46:35.979Z</time></trkpt><trkpt lat="43.06733" lon="12.6518383"><ele>1000.0</ele><time>2026-04-18T13:46:36.979Z</time></trkpt><trkpt lat="43.0673067" lon="12.651935"><ele>1000.0</ele><time>2026-04-18T13:46:37.979Z</time></trkpt><trkpt lat="43.0672883" lon="12.6520217"><ele>1000.0</ele><time>2026-04-18T13:46:38.979Z</time></trkpt><trkpt lat="43.0672617" lon="12.6521583"><ele>1000.0</ele><time>2026-04-18T13:46:40.979Z</time></trkpt><trkpt lat="43.067205" lon="12.6522067"><ele>1000.0</ele><time>2026-04-18T13:46:42.979Z</time></trkpt><trkpt lat="43.0671433" lon="12.65212"><ele>1000.0</ele><time>2026-04-18T13:46:44.979Z</time></trkpt><trkpt lat="43.0671517" lon="12.6519183"><ele>1000.0</ele><time>2026-04-18T13:46:46.979Z</time></trkpt><trkpt lat="43.0671767" lon="12.6517783"><ele>1000.0</ele><time>2026-04-18T13:46:47.979Z</time></trkpt><trkpt lat="43.067205" lon="12.651625"><ele>1000.0</ele><time>2026-04-18T13:46:48.979Z</time></trkpt><trkpt lat="43.0672317" lon="12.65148"><ele>1000.0</ele><time>2026-04-18T13:46:49.979Z</time></trkpt><trkpt lat="43.0672567" lon="12.651325"><ele>1000.0</ele><time>2026-04-18T13:46:50.979Z</time></trkpt><trkpt lat="43.067275" lon="12.65117"><ele>998.2</ele><time>2026-04-18T13:46:51.979Z</time></trkpt><trkpt lat="43.0672867" lon="12.65102"><ele>996.4</ele><time>2026-04-18T13:46:52.979Z</time></trkpt><trkpt lat="43.0672783" lon="12.6508733"><ele>994.5999999999999</ele><time>2026-04-18T13:46:53.979Z</time></trkpt><trkpt lat="43.067255" lon="12.65073"><ele>992.8</ele><time>2026-04-18T13:46:54.979Z</time></trkpt><trkpt lat="43.0672167" lon="12.6505833"><ele>991.0</ele><time>2026-04-18T13:46:55.979Z</time></trkpt><trkpt lat="43.06718" lon="12.6504317"><ele>992.5</ele><time>2026-04-18T13:46:56.979Z</time></trkpt><trkpt lat="43.067145" lon="12.6502783"><ele>994.0</ele><time>2026-04-18T13:46:57.979Z</time></trkpt><trkpt lat="43.0671067" lon="12.6501283"><ele>995.5</ele><time>2026-04-18T13:46:58.979Z</time></trkpt><trkpt lat="43.06706" lon="12.6499717"><ele>997.0</ele><time>2026-04-18T13:46:59.979Z</time></trkpt><trkpt lat="43.0670083" lon="12.649815"><ele>997.0</ele><time>2026-04-18T13:47:00.979Z</time></trkpt><trkpt lat="43.0669583" lon="12.649675"><ele>997.0</ele><time>2026-04-18T13:47:01.979Z</time></trkpt><trkpt lat="43.0669033" lon="12.6495383"><ele>997.0</ele><time>2026-04-18T13:47:02.979Z</time></trkpt><trkpt lat="43.0668483" lon="12.6494"><ele>997.0</ele><time>2026-04-18T13:47:03.979Z</time></trkpt><trkpt lat="43.0667883" lon="12.64925"><ele>999.25</ele><time>2026-04-18T13:47:04.979Z</time></trkpt><trkpt lat="43.0667267" lon="12.64911"><ele>1001.5</ele><time>2026-04-18T13:47:05.979Z</time></trkpt><trkpt lat="43.0666617" lon="12.64897"><ele>1003.75</ele><time>2026-04-18T13:47:06.979Z</time></trkpt><trkpt lat="43.0666033" lon="12.6488333"><ele>1006.0</ele><time>2026-04-18T13:47:07.979Z</time></trkpt><trkpt lat="43.066545" lon="12.648685"><ele>997.5</ele><time>2026-04-18T13:47:08.979Z</time></trkpt><trkpt lat="43.0664933" lon="12.6485417"><ele>989.0</ele><time>2026-04-18T13:47:09.979Z</time></trkpt><trkpt lat="43.0664533" lon="12.6483867"><ele>980.5</ele><time>2026-04-18T13:47:10.979Z</time></trkpt><trkpt lat="43.0664283" lon="12.6482317"><ele>972.0</ele><time>2026-04-18T13:47:11.979Z</time></trkpt><trkpt lat="43.06642" lon="12.64807"><ele>972.0</ele><time>2026-04-18T13:47:12.979Z</time></trkpt><trkpt lat="43.066415" lon="12.6479067"><ele>972.0</ele><time>2026-04-18T13:47:13.979Z</time></trkpt><trkpt lat="43.0664183" lon="12.647745"><ele>972.0</ele><time>2026-04-18T13:47:14.979Z</time></trkpt><trkpt lat="43.0664083" lon="12.64758"><ele>972.0</ele><time>2026-04-18T13:47:15.979Z</time></trkpt><trkpt lat="43.066395" lon="12.6474217"><ele>972.4000000000001</ele><time>2026-04-18T13:47:16.979Z</time></trkpt><trkpt lat="43.0663817" lon="12.647255"><ele>972.8000000000001</ele><time>2026-04-18T13:47:17.979Z</time></trkpt><trkpt lat="43.0663583" lon="12.6471"><ele>973.2</ele><time>2026-04-18T13:47:18.979Z</time></trkpt><trkpt lat="43.0663283" lon="12.6469583"><ele>973.6</ele><time>2026-04-18T13:47:19.979Z</time></trkpt><trkpt lat="43.0663133" lon="12.6468283"><ele>974.0</ele><time>2026-04-18T13:47:20.979Z</time></trkpt><trkpt lat="43.0663067" lon="12.6467133"><ele>972.6</ele><time>2026-04-18T13:47:21.979Z</time></trkpt><trkpt lat="43.0663217" lon="12.646595"><ele>971.2</ele><time>2026-04-18T13:47:22.979Z</time></trkpt><trkpt lat="43.06636" lon="12.6464833"><ele>969.8000000000001</ele><time>2026-04-18T13:47:23.979Z</time></trkpt><trkpt lat="43.0664217" lon="12.6464017"><ele>968.4000000000001</ele><time>2026-04-18T13:47:24.979Z</time></trkpt><trkpt lat="43.0665033" lon="12.646335"><ele>967.0</ele><time>2026-04-18T13:47:25.979Z</time></trkpt><trkpt lat="43.0665867" lon="12.64628"><ele>969.0</ele><time>2026-04-18T13:47:26.979Z</time></trkpt><trkpt lat="43.06667" lon="12.64622"><ele>971.0</ele><time>2026-04-18T13:47:27.979Z</time></trkpt><trkpt lat="43.0667517" lon="12.6461417"><ele>973.0</ele><time>2026-04-18T13:47:28.978Z</time></trkpt><trkpt lat="43.06682" lon="12.64603"><ele>975.0</ele><time>2026-04-18T13:47:29.978Z</time></trkpt><trkpt lat="43.0668883" lon="12.64591"><ele>977.0</ele><time>2026-04-18T13:47:30.978Z</time></trkpt><trkpt lat="43.0669583" lon="12.6457983"><ele>977.0</ele><time>2026-04-18T13:47:31.978Z</time></trkpt><trkpt lat="43.0670383" lon="12.6456967"><ele>977.0</ele><time>2026-04-18T13:47:32.978Z</time></trkpt><trkpt lat="43.067115" lon="12.6456033"><ele>977.0</ele><time>2026-04-18T13:47:33.978Z</time></trkpt><trkpt lat="43.0672033" lon="12.6455217"><ele>977.0</ele><time>2026-04-18T13:47:34.978Z</time></trkpt><trkpt lat="43.0672983" lon="12.64545"><ele>977.0</ele><time>2026-04-18T13:47:35.978Z</time></trkpt><trkpt lat="43.0673883" lon="12.6453817"><ele>978.2</ele><time>2026-04-18T13:47:36.978Z</time></trkpt><trkpt lat="43.0674883" lon="12.645315"><ele>979.4000000000001</ele><time>2026-04-18T13:47:37.978Z</time></trkpt><trkpt lat="43.0675917" lon="12.6452517"><ele>980.5999999999999</ele><time>2026-04-18T13:47:38.978Z</time></trkpt><trkpt lat="43.0676817" lon="12.64519"><ele>981.8</ele><time>2026-04-18T13:47:39.978Z</time></trkpt><trkpt lat="43.06779" lon="12.6451283"><ele>983.0</ele><time>2026-04-18T13:47:40.978Z</time></trkpt><trkpt lat="43.0678917" lon="12.645075"><ele>979.5999999999999</ele><time>2026-04-18T13:47:41.978Z</time></trkpt><trkpt lat="43.0679983" lon="12.64502"><ele>976.1999999999999</ele><time>2026-04-18T13:47:42.978Z</time></trkpt><trkpt lat="43.0681" lon="12.6449533"><ele>972.8</ele><time>2026-04-18T13:47:43.978Z</time></trkpt><trkpt lat="43.0681883" lon="12.644885"><ele>969.4</ele><time>2026-04-18T13:47:44.978Z</time></trkpt><trkpt lat="43.068285" lon="12.6448117"><ele>966.0</ele><time>2026-04-18T13:47:45.978Z</time></trkpt><trkpt lat="43.0683783" lon="12.644735"><ele>966.0</ele><time>2026-04-18T13:47:46.978Z</time></trkpt><trkpt lat="43.06848" lon="12.6446733"><ele>966.0</ele><time>2026-04-18T13:47:47.978Z</time></trkpt><trkpt lat="43.0685867" lon="12.6446017"><ele>966.0</ele><time>2026-04-18T13:47:48.978Z</time></trkpt><trkpt lat="43.068695" lon="12.6445283"><ele>966.0</ele><time>2026-04-18T13:47:49.978Z</time></trkpt><trkpt lat="43.0688067" lon="12.6444617"><ele>961.25</ele><time>2026-04-18T13:47:50.978Z</time></trkpt><trkpt lat="43.0689167" lon="12.6443983"><ele>956.5</ele><time>2026-04-18T13:47:51.978Z</time></trkpt><trkpt lat="43.0690283" lon="12.64436"><ele>951.75</ele><time>2026-04-18T13:47:52.978Z</time></trkpt><trkpt lat="43.069145" lon="12.6443333"><ele>947.0</ele><time>2026-04-18T13:47:53.978Z</time></trkpt><trkpt lat="43.0692633" lon="12.6443133"><ele>947.0</ele><time>2026-04-18T13:47:54.978Z</time></trkpt><trkpt lat="43.06938" lon="12.6442967"><ele>947.0</ele><time>2026-04-18T13:47:55.978Z</time></trkpt><trkpt lat="43.0695033" lon="12.6442833"><ele>947.0</ele><time>2026-04-18T13:47:56.978Z</time></trkpt><trkpt lat="43.0696083" lon="12.64426"><ele>947.0</ele><time>2026-04-18T13:47:57.978Z</time></trkpt><trkpt lat="43.0697067" lon="12.6442433"><ele>947.0</ele><time>2026-04-18T13:47:58.978Z</time></trkpt><trkpt lat="43.0698083" lon="12.6442383"><ele>947.0</ele><time>2026-04-18T13:47:59.978Z</time></trkpt><trkpt lat="43.06991" lon="12.64424"><ele>947.0</ele><time>2026-04-18T13:48:00.978Z</time></trkpt><trkpt lat="43.07001" lon="12.644255"><ele>947.0</ele><time>2026-04-18T13:48:01.978Z</time></trkpt><trkpt lat="43.0701" lon="12.6442883"><ele>947.0</ele><time>2026-04-18T13:48:02.978Z</time></trkpt><trkpt lat="43.070185" lon="12.644345"><ele>947.0</ele><time>2026-04-18T13:48:03.978Z</time></trkpt><trkpt lat="43.07027" lon="12.64442"><ele>950.0</ele><time>2026-04-18T13:48:04.978Z</time></trkpt><trkpt lat="43.0703567" lon="12.6445083"><ele>953.0</ele><time>2026-04-18T13:48:05.978Z</time></trkpt><trkpt lat="43.0704367" lon="12.6445933"><ele>956.0</ele><time>2026-04-18T13:48:06.978Z</time></trkpt><trkpt lat="43.0705017" lon="12.6446767"><ele>959.0</ele><time>2026-04-18T13:48:07.978Z</time></trkpt><trkpt lat="43.0705517" lon="12.6447433"><ele>962.0</ele><time>2026-04-18T13:48:08.978Z</time></trkpt><trkpt lat="43.0706383" lon="12.6448383"><ele>962.0000000000001</ele><time>2026-04-18T13:48:10.978Z</time></trkpt><trkpt lat="43.07072" lon="12.6448383"><ele>962.0</ele><time>2026-04-18T13:48:12.978Z</time></trkpt><trkpt lat="43.0707783" lon="12.6447667"><ele>962.0</ele><time>2026-04-18T13:48:14.978Z</time></trkpt><trkpt lat="43.0707783" lon="12.6446533"><ele>962.0</ele><time>2026-04-18T13:48:16.978Z</time></trkpt><trkpt lat="43.0707417" lon="12.6445683"><ele>962.0000000000001</ele><time>2026-04-18T13:48:17.978Z</time></trkpt><trkpt lat="43.0706717" lon="12.6444233"><ele>962.0</ele><time>2026-04-18T13:48:18.978Z</time></trkpt><trkpt lat="43.0705917" lon="12.6442567"><ele>956.5</ele><time>2026-04-18T13:48:19.978Z</time></trkpt><trkpt lat="43.0705117" lon="12.6440817"><ele>951.0</ele><time>2026-04-18T13:48:20.978Z</time></trkpt><trkpt lat="43.0704367" lon="12.643935"><ele>945.5</ele><time>2026-04-18T13:48:21.978Z</time></trkpt><trkpt lat="43.0703483" lon="12.643795"><ele>940.0</ele><time>2026-04-18T13:48:22.978Z</time></trkpt><trkpt lat="43.070265" lon="12.643665"><ele>937.25</ele><time>2026-04-18T13:48:23.978Z</time></trkpt><trkpt lat="43.0701817" lon="12.6435233"><ele>934.5</ele><time>2026-04-18T13:48:24.978Z</time></trkpt><trkpt lat="43.0701017" lon="12.6433983"><ele>931.75</ele><time>2026-04-18T13:48:25.978Z</time></trkpt><trkpt lat="43.0700233" lon="12.6432617"><ele>929.0</ele><time>2026-04-18T13:48:26.978Z</time></trkpt><trkpt lat="43.06994" lon="12.6431317"><ele>929.0</ele><time>2026-04-18T13:48:27.978Z</time></trkpt><trkpt lat="43.069855" lon="12.6430017"><ele>929.0</ele><time>2026-04-18T13:48:28.978Z</time></trkpt><trkpt lat="43.069765" lon="12.6428767"><ele>929.0</ele><time>2026-04-18T13:48:29.978Z</time></trkpt><trkpt lat="43.0696817" lon="12.6427517"><ele>929.0</ele><time>2026-04-18T13:48:30.978Z</time></trkpt><trkpt lat="43.069605" lon="12.6426283"><ele>925.0</ele><time>2026-04-18T13:48:31.978Z</time></trkpt><trkpt lat="43.0695233" lon="12.6425083"><ele>921.0</ele><time>2026-04-18T13:48:32.978Z</time></trkpt><trkpt lat="43.0694333" lon="12.64239"><ele>917.0</ele><time>2026-04-18T13:48:33.978Z</time></trkpt><trkpt lat="43.0693517" lon="12.642265"><ele>913.0</ele><time>2026-04-18T13:48:34.978Z</time></trkpt><trkpt lat="43.069275" lon="12.6421417"><ele>913.0</ele><time>2026-04-18T13:48:35.978Z</time></trkpt><trkpt lat="43.0692" lon="12.6420367"><ele>913.0</ele><time>2026-04-18T13:48:36.978Z</time></trkpt><trkpt lat="43.069125" lon="12.6419417"><ele>913.0</ele><time>2026-04-18T13:48:37.978Z</time></trkpt><trkpt lat="43.069045" lon="12.6418917"><ele>913.0</ele><time>2026-04-18T13:48:38.978Z</time></trkpt><trkpt lat="43.0689483" lon="12.64187"><ele>913.0</ele><time>2026-04-18T13:48:39.978Z</time></trkpt><trkpt lat="43.06885" lon="12.6418817"><ele>909.2</ele><time>2026-04-18T13:48:40.978Z</time></trkpt><trkpt lat="43.0687483" lon="12.6419"><ele>905.4</ele><time>2026-04-18T13:48:41.978Z</time></trkpt><trkpt lat="43.0686383" lon="12.641915"><ele>901.6000000000001</ele><time>2026-04-18T13:48:42.978Z</time></trkpt><trkpt lat="43.0685283" lon="12.6419283"><ele>897.8000000000001</ele><time>2026-04-18T13:48:43.978Z</time></trkpt><trkpt lat="43.0684183" lon="12.6419233"><ele>894.0</ele><time>2026-04-18T13:48:44.978Z</time></trkpt><trkpt lat="43.0683083" lon="12.6419217"><ele>894.8000000000001</ele><time>2026-04-18T13:48:45.978Z</time></trkpt><trkpt lat="43.0682083" lon="12.6419283"><ele>895.6000000000001</ele><time>2026-04-18T13:48:46.978Z</time></trkpt><trkpt lat="43.068115" lon="12.6419467"><ele>896.4</ele><time>2026-04-18T13:48:47.978Z</time></trkpt><trkpt lat="43.0680183" lon="12.64199"><ele>897.2</ele><time>2026-04-18T13:48:48.978Z</time></trkpt><trkpt lat="43.067925" lon="12.6420517"><ele>898.0</ele><time>2026-04-18T13:48:49.978Z</time></trkpt><trkpt lat="43.06783" lon="12.642115"><ele>898.0</ele><time>2026-04-18T13:48:50.978Z</time></trkpt><trkpt lat="43.0677333" lon="12.6421717"><ele>898.0</ele><time>2026-04-18T13:48:51.978Z</time></trkpt><trkpt lat="43.0676317" lon="12.6421967"><ele>898.0</ele><time>2026-04-18T13:48:52.978Z</time></trkpt><trkpt lat="43.0675367" lon="12.6422283"><ele>898.0</ele><time>2026-04-18T13:48:53.978Z</time></trkpt><trkpt lat="43.0674383" lon="12.642245"><ele>898.0</ele><time>2026-04-18T13:48:54.978Z</time></trkpt><trkpt lat="43.067335" lon="12.6422583"><ele>896.5999999999999</ele><time>2026-04-18T13:48:55.978Z</time></trkpt><trkpt lat="43.067245" lon="12.642255"><ele>895.1999999999999</ele><time>2026-04-18T13:48:56.978Z</time></trkpt><trkpt lat="43.0671433" lon="12.6422583"><ele>893.8</ele><time>2026-04-18T13:48:57.978Z</time></trkpt><trkpt lat="43.0670367" lon="12.6422617"><ele>892.4</ele><time>2026-04-18T13:48:58.978Z</time></trkpt><trkpt lat="43.0669317" lon="12.642255"><ele>891.0</ele><time>2026-04-18T13:48:59.978Z</time></trkpt><trkpt lat="43.066825" lon="12.6422217"><ele>891.0</ele><time>2026-04-18T13:49:00.978Z</time></trkpt><trkpt lat="43.0667117" lon="12.6421783"><ele>891.0</ele><time>2026-04-18T13:49:01.978Z</time></trkpt><trkpt lat="43.0665983" lon="12.642145"><ele>891.0</ele><time>2026-04-18T13:49:02.978Z</time></trkpt><trkpt lat="43.06649" lon="12.6421217"><ele>891.0</ele><time>2026-04-18T13:49:03.978Z</time></trkpt><trkpt lat="43.0663717" lon="12.6421183"><ele>888.4</ele><time>2026-04-18T13:49:04.978Z</time></trkpt><trkpt lat="43.06626" lon="12.6421367"><ele>885.8</ele><time>2026-04-18T13:49:05.978Z</time></trkpt><trkpt lat="43.0661467" lon="12.6421633"><ele>883.1999999999999</ele><time>2026-04-18T13:49:06.978Z</time></trkpt><trkpt lat="43.0660383" lon="12.6422"><ele>880.5999999999999</ele><time>2026-04-18T13:49:07.978Z</time></trkpt><trkpt lat="43.0659433" lon="12.6422367"><ele>878.0</ele><time>2026-04-18T13:49:08.978Z</time></trkpt><trkpt lat="43.0658483" lon="12.6423017"><ele>876.2</ele><time>2026-04-18T13:49:09.978Z</time></trkpt><trkpt lat="43.0657583" lon="12.6423933"><ele>874.4</ele><time>2026-04-18T13:49:10.978Z</time></trkpt><trkpt lat="43.0656817" lon="12.6425033"><ele>872.6000000000001</ele><time>2026-04-18T13:49:11.978Z</time></trkpt><trkpt lat="43.0656083" lon="12.64262"><ele>870.8000000000001</ele><time>2026-04-18T13:49:12.978Z</time></trkpt><trkpt lat="43.0655283" lon="12.6427233"><ele>869.0</ele><time>2026-04-18T13:49:13.978Z</time></trkpt><trkpt lat="43.0654433" lon="12.6428167"><ele>869.0</ele><time>2026-04-18T13:49:14.978Z</time></trkpt><trkpt lat="43.0653567" lon="12.6429117"><ele>869.0000000000001</ele><time>2026-04-18T13:49:15.978Z</time></trkpt><trkpt lat="43.065265" lon="12.642995"><ele>869.0000000000001</ele><time>2026-04-18T13:49:16.978Z</time></trkpt><trkpt lat="43.0651667" lon="12.64307"><ele>869.0</ele><time>2026-04-18T13:49:17.978Z</time></trkpt><trkpt lat="43.0650617" lon="12.643135"><ele>869.0</ele><time>2026-04-18T13:49:18.978Z</time></trkpt><trkpt lat="43.0649583" lon="12.6431933"><ele>861.5</ele><time>2026-04-18T13:49:19.978Z</time></trkpt><trkpt lat="43.0648533" lon="12.643255"><ele>854.0</ele><time>2026-04-18T13:49:20.978Z</time></trkpt><trkpt lat="43.0647483" lon="12.6433233"><ele>846.5</ele><time>2026-04-18T13:49:21.978Z</time></trkpt><trkpt lat="43.0646483" lon="12.6433983"><ele>839.0</ele><time>2026-04-18T13:49:22.978Z</time></trkpt><trkpt lat="43.0645433" lon="12.6434733"><ele>839.0</ele><time>2026-04-18T13:49:23.978Z</time></trkpt><trkpt lat="43.0644433" lon="12.64356"><ele>839.0</ele><time>2026-04-18T13:49:24.978Z</time></trkpt><trkpt lat="43.0643517" lon="12.6436533"><ele>839.0</ele><time>2026-04-18T13:49:25.978Z</time></trkpt><trkpt lat="43.0642633" lon="12.6437483"><ele>839.0</ele><time>2026-04-18T13:49:26.978Z</time></trkpt><trkpt lat="43.0641767" lon="12.64385"><ele>836.0</ele><time>2026-04-18T13:49:27.978Z</time></trkpt><trkpt lat="43.064095" lon="12.6439617"><ele>833.0</ele><time>2026-04-18T13:49:28.978Z</time></trkpt><trkpt lat="43.064015" lon="12.64406"><ele>830.0</ele><time>2026-04-18T13:49:29.978Z</time></trkpt><trkpt lat="43.06395" lon="12.6441667"><ele>827.0</ele><time>2026-04-18T13:49:30.978Z</time></trkpt><trkpt lat="43.0638883" lon="12.6442617"><ele>824.0</ele><time>2026-04-18T13:49:31.978Z</time></trkpt><trkpt lat="43.063825" lon="12.6443417"><ele>824.0</ele><time>2026-04-18T13:49:32.978Z</time></trkpt><trkpt lat="43.0637533" lon="12.64441"><ele>824.0</ele><time>2026-04-18T13:49:33.978Z</time></trkpt><trkpt lat="43.063675" lon="12.64448"><ele>824.0</ele><time>2026-04-18T13:49:34.978Z</time></trkpt><trkpt lat="43.06358" lon="12.644535"><ele>824.0</ele><time>2026-04-18T13:49:35.978Z</time></trkpt><trkpt lat="43.06347" lon="12.6445983"><ele>824.0</ele><time>2026-04-18T13:49:36.978Z</time></trkpt><trkpt lat="43.0633617" lon="12.6446633"><ele>819.75</ele><time>2026-04-18T13:49:37.978Z</time></trkpt><trkpt lat="43.0632517" lon="12.6447217"><ele>815.5</ele><time>2026-04-18T13:49:38.978Z</time></trkpt><trkpt lat="43.063155" lon="12.6447817"><ele>811.25</ele><time>2026-04-18T13:49:39.978Z</time></trkpt><trkpt lat="43.0630483" lon="12.6448683"><ele>807.0</ele><time>2026-04-18T13:49:40.978Z</time></trkpt><trkpt lat="43.0629533" lon="12.64495"><ele>807.0</ele><time>2026-04-18T13:49:41.978Z</time></trkpt><trkpt lat="43.06286" lon="12.6450483"><ele>807.0</ele><time>2026-04-18T13:49:42.978Z</time></trkpt><trkpt lat="43.0627733" lon="12.6451583"><ele>807.0</ele><time>2026-04-18T13:49:43.978Z</time></trkpt><trkpt lat="43.0626983" lon="12.6452683"><ele>807.0</ele><time>2026-04-18T13:49:44.978Z</time></trkpt><trkpt lat="43.0626283" lon="12.6453717"><ele>807.0</ele><time>2026-04-18T13:49:45.978Z</time></trkpt><trkpt lat="43.0625667" lon="12.6454817"><ele>809.6666666666666</ele><time>2026-04-18T13:49:46.978Z</time></trkpt><trkpt lat="43.0625083" lon="12.64558"><ele>812.3333333333333</ele><time>2026-04-18T13:49:47.978Z</time></trkpt><trkpt lat="43.0624617" lon="12.6456817"><ele>815.0</ele><time>2026-04-18T13:49:48.978Z</time></trkpt><trkpt lat="43.06243" lon="12.6457867"><ele>817.6666666666666</ele><time>2026-04-18T13:49:49.978Z</time></trkpt><trkpt lat="43.0624167" lon="12.6458983"><ele>820.3333333333333</ele><time>2026-04-18T13:49:50.978Z</time></trkpt><trkpt lat="43.0624183" lon="12.6460283"><ele>823.0</ele><time>2026-04-18T13:49:51.978Z</time></trkpt><trkpt lat="43.0624233" lon="12.6461617"><ele>822.0</ele><time>2026-04-18T13:49:52.978Z</time></trkpt><trkpt lat="43.06244" lon="12.64628"><ele>821.0</ele><time>2026-04-18T13:49:53.978Z</time></trkpt><trkpt lat="43.0624633" lon="12.6463967"><ele>820.0</ele><time>2026-04-18T13:49:54.978Z</time></trkpt><trkpt lat="43.062495" lon="12.64652"><ele>819.0</ele><time>2026-04-18T13:49:55.978Z</time></trkpt><trkpt lat="43.0625167" lon="12.646645"><ele>818.0</ele><time>2026-04-18T13:49:56.978Z</time></trkpt><trkpt lat="43.0625283" lon="12.64677"><ele>818.0000000000001</ele><time>2026-04-18T13:49:57.978Z</time></trkpt><trkpt lat="43.0625367" lon="12.6468933"><ele>818.0</ele><time>2026-04-18T13:49:58.978Z</time></trkpt><trkpt lat="43.0625433" lon="12.6470167"><ele>818.0</ele><time>2026-04-18T13:49:59.978Z</time></trkpt><trkpt lat="43.0625467" lon="12.64713"><ele>818.0</ele><time>2026-04-18T13:50:00.978Z</time></trkpt><trkpt lat="43.0625417" lon="12.647235"><ele>818.0000000000001</ele><time>2026-04-18T13:50:01.978Z</time></trkpt><trkpt lat="43.06254" lon="12.6473217"><ele>818.0</ele><time>2026-04-18T13:50:02.978Z</time></trkpt><trkpt lat="43.0625317" lon="12.6474383"><ele>816.3333333333334</ele><time>2026-04-18T13:50:04.978Z</time></trkpt><trkpt lat="43.062525" lon="12.647525"><ele>814.6666666666667</ele><time>2026-04-18T13:50:07.978Z</time></trkpt><trkpt lat="43.0625467" lon="12.64764"><ele>813.0</ele><time>2026-04-18T13:50:11.978Z</time></trkpt><trkpt lat="43.0625783" lon="12.647735"><ele>811.3333333333333</ele><time>2026-04-18T13:50:13.978Z</time></trkpt><trkpt lat="43.0625917" lon="12.64784"><ele>809.6666666666666</ele><time>2026-04-18T13:50:15.978Z</time></trkpt><trkpt lat="43.062615" lon="12.64795"><ele>808.0</ele><time>2026-04-18T13:50:17.978Z</time></trkpt><trkpt lat="43.0626533" lon="12.6480767"><ele>805.6666666666666</ele><time>2026-04-18T13:50:19.978Z</time></trkpt><trkpt lat="43.0627233" lon="12.6482183"><ele>803.3333333333333</ele><time>2026-04-18T13:50:21.978Z</time></trkpt><trkpt lat="43.0627883" lon="12.6483083"><ele>801.0</ele><time>2026-04-18T13:50:23.978Z</time></trkpt><trkpt lat="43.0628367" lon="12.64837"><ele>798.6666666666667</ele><time>2026-04-18T13:50:25.978Z</time></trkpt><trkpt lat="43.0628783" lon="12.6484483"><ele>796.3333333333334</ele><time>2026-04-18T13:50:28.978Z</time></trkpt><trkpt lat="43.0629267" lon="12.6485317"><ele>794.0</ele><time>2026-04-18T13:50:31.978Z</time></trkpt><trkpt lat="43.062975" lon="12.6486467"><ele>790.5000000000001</ele><time>2026-04-18T13:50:33.978Z</time></trkpt><trkpt lat="43.0630017" lon="12.6487433"><ele>787.0</ele><time>2026-04-18T13:50:34.978Z</time></trkpt><trkpt lat="43.063025" lon="12.648855"><ele>783.5</ele><time>2026-04-18T13:50:35.978Z</time></trkpt><trkpt lat="43.063055" lon="12.64896"><ele>780.0</ele><time>2026-04-18T13:50:36.978Z</time></trkpt><trkpt lat="43.0630833" lon="12.6490617"><ele>776.5000000000001</ele><time>2026-04-18T13:50:37.978Z</time></trkpt><trkpt lat="43.063105" lon="12.6491483"><ele>773.0</ele><time>2026-04-18T13:50:38.978Z</time></trkpt><trkpt lat="43.0631433" lon="12.6492783"><ele>773.0000000000001</ele><time>2026-04-18T13:50:40.978Z</time></trkpt><trkpt lat="43.06316" lon="12.6493633"><ele>773.0</ele><time>2026-04-18T13:50:42.978Z</time></trkpt><trkpt lat="43.0630967" lon="12.6494083"><ele>773.0</ele><time>2026-04-18T13:50:46.978Z</time></trkpt><trkpt lat="43.0630267" lon="12.6492883"><ele>773.0</ele><time>2026-04-18T13:50:49.978Z</time></trkpt><trkpt lat="43.0629833" lon="12.6492183"><ele>773.0000000000001</ele><time>2026-04-18T13:50:50.978Z</time></trkpt><trkpt lat="43.0629417" lon="12.6491467"><ele>773.0</ele><time>2026-04-18T13:50:51.978Z</time></trkpt><trkpt lat="43.0628917" lon="12.64907"><ele>773.0000000000001</ele><time>2026-04-18T13:50:52.978Z</time></trkpt><trkpt lat="43.0628483" lon="12.648985"><ele>773.0</ele><time>2026-04-18T13:50:53.978Z</time></trkpt><trkpt lat="43.0627967" lon="12.6489017"><ele>773.0</ele><time>2026-04-18T13:50:54.978Z</time></trkpt><trkpt lat="43.0627483" lon="12.6488267"><ele>773.0</ele><time>2026-04-18T13:50:55.978Z</time></trkpt><trkpt lat="43.0626933" lon="12.6487483"><ele>773.0000000000001</ele><time>2026-04-18T13:50:56.978Z</time></trkpt><trkpt lat="43.0626267" lon="12.6486833"><ele>773.0</ele><time>2026-04-18T13:50:57.978Z</time></trkpt><trkpt lat="43.06256" lon="12.6486283"><ele>770.1666666666667</ele><time>2026-04-18T13:50:58.978Z</time></trkpt><trkpt lat="43.0624867" lon="12.6485783"><ele>767.3333333333334</ele><time>2026-04-18T13:50:59.978Z</time></trkpt><trkpt lat="43.0624133" lon="12.6485333"><ele>764.5</ele><time>2026-04-18T13:51:00.978Z</time></trkpt><trkpt lat="43.0623367" lon="12.64849"><ele>761.6666666666667</ele><time>2026-04-18T13:51:01.978Z</time></trkpt><trkpt lat="43.0622633" lon="12.6484433"><ele>758.8333333333334</ele><time>2026-04-18T13:51:02.978Z</time></trkpt><trkpt lat="43.0621883" lon="12.6483933"><ele>756.0</ele><time>2026-04-18T13:51:03.978Z</time></trkpt><trkpt lat="43.062115" lon="12.64834"><ele>756.0</ele><time>2026-04-18T13:51:04.978Z</time></trkpt><trkpt lat="43.0620433" lon="12.6482933"><ele>756.0</ele><time>2026-04-18T13:51:05.978Z</time></trkpt><trkpt lat="43.0619817" lon="12.6482467"><ele>756.0</ele><time>2026-04-18T13:51:06.978Z</time></trkpt><trkpt lat="43.061925" lon="12.6482"><ele>756.0</ele><time>2026-04-18T13:51:07.978Z</time></trkpt><trkpt lat="43.0618783" lon="12.6481417"><ele>756.0</ele><time>2026-04-18T13:51:08.978Z</time></trkpt><trkpt lat="43.061835" lon="12.6480767"><ele>756.0</ele><time>2026-04-18T13:51:09.978Z</time></trkpt><trkpt lat="43.0618017" lon="12.6480033"><ele>756.0</ele><time>2026-04-18T13:51:10.978Z</time></trkpt><trkpt lat="43.06178" lon="12.647915"><ele>756.0</ele><time>2026-04-18T13:51:11.978Z</time></trkpt><trkpt lat="43.0617767" lon="12.6478183"><ele>756.0</ele><time>2026-04-18T13:51:12.978Z</time></trkpt><trkpt lat="43.0617817" lon="12.6477167"><ele>756.0</ele><time>2026-04-18T13:51:13.978Z</time></trkpt><trkpt lat="43.06178" lon="12.6476117"><ele>756.0</ele><time>2026-04-18T13:51:14.978Z</time></trkpt><trkpt lat="43.0617783" lon="12.6475183"><ele>756.0</ele><time>2026-04-18T13:51:15.978Z</time></trkpt><trkpt lat="43.061785" lon="12.64743"><ele>756.0</ele><time>2026-04-18T13:51:16.978Z</time></trkpt><trkpt lat="43.0617683" lon="12.6472617"><ele>756.6666666666666</ele><time>2026-04-18T13:51:18.978Z</time></trkpt><trkpt lat="43.0617367" lon="12.64712"><ele>757.3333333333334</ele><time>2026-04-18T13:51:20.978Z</time></trkpt><trkpt lat="43.0617067" lon="12.6470267"><ele>758.0</ele><time>2026-04-18T13:51:22.978Z</time></trkpt><trkpt lat="43.0616617" lon="12.64696"><ele>758.6666666666667</ele><time>2026-04-18T13:51:24.978Z</time></trkpt><trkpt lat="43.06161" lon="12.646875"><ele>759.3333333333334</ele><time>2026-04-18T13:51:26.978Z</time></trkpt><trkpt lat="43.0615533" lon="12.6467417"><ele>760.0</ele><time>2026-04-18T13:51:28.978Z</time></trkpt><trkpt lat="43.06152" lon="12.6466"><ele>754.5</ele><time>2026-04-18T13:51:30.978Z</time></trkpt><trkpt lat="43.061465" lon="12.64654"><ele>749.0</ele><time>2026-04-18T13:51:32.978Z</time></trkpt><trkpt lat="43.06141" lon="12.6466417"><ele>743.5</ele><time>2026-04-18T13:51:35.978Z</time></trkpt><trkpt lat="43.0614583" lon="12.64678"><ele>738.0</ele><time>2026-04-18T13:51:37.978Z</time></trkpt><trkpt lat="43.0614933" lon="12.64687"><ele>732.5</ele><time>2026-04-18T13:51:38.978Z</time></trkpt><trkpt lat="43.0615267" lon="12.6469683"><ele>727.0</ele><time>2026-04-18T13:51:39.978Z</time></trkpt><trkpt lat="43.0615633" lon="12.6470583"><ele>724.8333333333334</ele><time>2026-04-18T13:51:40.978Z</time></trkpt><trkpt lat="43.0616" lon="12.6471467"><ele>722.6666666666667</ele><time>2026-04-18T13:51:41.978Z</time></trkpt><trkpt lat="43.0616317" lon="12.647225"><ele>720.5</ele><time>2026-04-18T13:51:42.978Z</time></trkpt><trkpt lat="43.061655" lon="12.6473367"><ele>718.3333333333334</ele><time>2026-04-18T13:51:44.978Z</time></trkpt><trkpt lat="43.061585" lon="12.64737"><ele>716.1666666666666</ele><time>2026-04-18T13:51:46.978Z</time></trkpt><trkpt lat="43.0615183" lon="12.6472717"><ele>714.0</ele><time>2026-04-18T13:51:48.978Z</time></trkpt><trkpt lat="43.061475" lon="12.64718"><ele>714.0</ele><time>2026-04-18T13:51:49.978Z</time></trkpt><trkpt lat="43.06142" lon="12.64709"><ele>714.0</ele><time>2026-04-18T13:51:50.978Z</time></trkpt><trkpt lat="43.0613517" lon="12.647005"><ele>714.0</ele><time>2026-04-18T13:51:51.978Z</time></trkpt><trkpt lat="43.0612783" lon="12.6469133"><ele>714.0</ele><time>2026-04-18T13:51:52.978Z</time></trkpt><trkpt lat="43.0611983" lon="12.6468233"><ele>714.0</ele><time>2026-04-18T13:51:53.978Z</time></trkpt><trkpt lat="43.0611167" lon="12.64672"><ele>717.25</ele><time>2026-04-18T13:51:54.978Z</time></trkpt><trkpt lat="43.0610467" lon="12.646605"><ele>720.5</ele><time>2026-04-18T13:51:55.978Z</time></trkpt><trkpt lat="43.0609833" lon="12.6464883"><ele>723.75</ele><time>2026-04-18T13:51:56.978Z</time></trkpt><trkpt lat="43.0609317" lon="12.646345"><ele>727.0</ele><time>2026-04-18T13:51:57.978Z</time></trkpt><trkpt lat="43.0608867" lon="12.6461967"><ele>727.75</ele><time>2026-04-18T13:51:58.978Z</time></trkpt><trkpt lat="43.06085" lon="12.646045"><ele>728.5</ele><time>2026-04-18T13:51:59.978Z</time></trkpt><trkpt lat="43.06082" lon="12.6458967"><ele>729.25</ele><time>2026-04-18T13:52:00.978Z</time></trkpt><trkpt lat="43.0607967" lon="12.6457317"><ele>730.0</ele><time>2026-04-18T13:52:01.978Z</time></trkpt><trkpt lat="43.0607933" lon="12.645575"><ele>730.0</ele><time>2026-04-18T13:52:02.978Z</time></trkpt><trkpt lat="43.06081" lon="12.6454233"><ele>730.0</ele><time>2026-04-18T13:52:03.978Z</time></trkpt><trkpt lat="43.0608233" lon="12.6452783"><ele>730.0</ele><time>2026-04-18T13:52:04.978Z</time></trkpt><trkpt lat="43.0608433" lon="12.6451433"><ele>730.0</ele><time>2026-04-18T13:52:05.978Z</time></trkpt><trkpt lat="43.0608567" lon="12.6450117"><ele>730.0</ele><time>2026-04-18T13:52:06.978Z</time></trkpt><trkpt lat="43.0608733" lon="12.6448817"><ele>727.2</ele><time>2026-04-18T13:52:07.978Z</time></trkpt><trkpt lat="43.0608967" lon="12.64475"><ele>724.4</ele><time>2026-04-18T13:52:08.978Z</time></trkpt><trkpt lat="43.0609317" lon="12.6446083"><ele>721.5999999999999</ele><time>2026-04-18T13:52:09.978Z</time></trkpt><trkpt lat="43.06097" lon="12.644475"><ele>718.8</ele><time>2026-04-18T13:52:10.978Z</time></trkpt><trkpt lat="43.061015" lon="12.644335"><ele>716.0</ele><time>2026-04-18T13:52:11.978Z</time></trkpt><trkpt lat="43.0610633" lon="12.6441933"><ele>712.1999999999999</ele><time>2026-04-18T13:52:12.978Z</time></trkpt><trkpt lat="43.061105" lon="12.644045"><ele>708.4</ele><time>2026-04-18T13:52:13.978Z</time></trkpt><trkpt lat="43.0611467" lon="12.6438983"><ele>704.6</ele><time>2026-04-18T13:52:14.978Z</time></trkpt><trkpt lat="43.0611883" lon="12.6437667"><ele>700.8</ele><time>2026-04-18T13:52:15.978Z</time></trkpt><trkpt lat="43.061235" lon="12.643635"><ele>697.0</ele><time>2026-04-18T13:52:16.978Z</time></trkpt><trkpt lat="43.0612817" lon="12.643515"><ele>700.6</ele><time>2026-04-18T13:52:17.978Z</time></trkpt><trkpt lat="43.0613433" lon="12.6433983"><ele>704.2</ele><time>2026-04-18T13:52:18.978Z</time></trkpt><trkpt lat="43.0614117" lon="12.643285"><ele>707.8</ele><time>2026-04-18T13:52:19.978Z</time></trkpt><trkpt lat="43.0614867" lon="12.6431667"><ele>711.4</ele><time>2026-04-18T13:52:20.978Z</time></trkpt><trkpt lat="43.06156" lon="12.6430467"><ele>715.0</ele><time>2026-04-18T13:52:21.978Z</time></trkpt><trkpt lat="43.06163" lon="12.6429283"><ele>715.0</ele><time>2026-04-18T13:52:22.978Z</time></trkpt><trkpt lat="43.061695" lon="12.6428267"><ele>715.0</ele><time>2026-04-18T13:52:23.978Z</time></trkpt><trkpt lat="43.0617667" lon="12.642735"><ele>715.0</ele><time>2026-04-18T13:52:24.978Z</time></trkpt><trkpt lat="43.0618517" lon="12.6426583"><ele>715.0</ele><time>2026-04-18T13:52:25.978Z</time></trkpt><trkpt lat="43.0619117" lon="12.6425933"><ele>715.0</ele><time>2026-04-18T13:52:26.978Z</time></trkpt><trkpt lat="43.0619683" lon="12.64248"><ele>709.6666666666667</ele><time>2026-04-18T13:52:28.978Z</time></trkpt><trkpt lat="43.06188" lon="12.6423967"><ele>704.3333333333334</ele><time>2026-04-18T13:52:30.977Z</time></trkpt><trkpt lat="43.06178" lon="12.6424683"><ele>699.0</ele><time>2026-04-18T13:52:32.977Z</time></trkpt><trkpt lat="43.061735" lon="12.6425333"><ele>693.6666666666666</ele><time>2026-04-18T13:52:33.977Z</time></trkpt><trkpt lat="43.0616833" lon="12.6426067"><ele>688.3333333333333</ele><time>2026-04-18T13:52:34.977Z</time></trkpt><trkpt lat="43.0616317" lon="12.6426717"><ele>683.0</ele><time>2026-04-18T13:52:35.977Z</time></trkpt><trkpt lat="43.0615883" lon="12.6427367"><ele>683.0</ele><time>2026-04-18T13:52:36.977Z</time></trkpt><trkpt lat="43.0615183" lon="12.6427733"><ele>683.0</ele><time>2026-04-18T13:52:38.977Z</time></trkpt><trkpt lat="43.0615633" lon="12.642635"><ele>683.0</ele><time>2026-04-18T13:52:41.977Z</time></trkpt><trkpt lat="43.061625" lon="12.6425433"><ele>683.0</ele><time>2026-04-18T13:52:42.977Z</time></trkpt><trkpt lat="43.061695" lon="12.64245"><ele>683.0</ele><time>2026-04-18T13:52:43.977Z</time></trkpt><trkpt lat="43.061765" lon="12.64235"><ele>683.0</ele><time>2026-04-18T13:52:44.977Z</time></trkpt><trkpt lat="43.061835" lon="12.64225"><ele>683.0</ele><time>2026-04-18T13:52:45.977Z</time></trkpt><trkpt lat="43.0619017" lon="12.64215"><ele>683.0</ele><time>2026-04-18T13:52:46.977Z</time></trkpt><trkpt lat="43.0619717" lon="12.6420483"><ele>683.0</ele><time>2026-04-18T13:52:47.977Z</time></trkpt><trkpt lat="43.062045" lon="12.64195"><ele>683.0</ele><time>2026-04-18T13:52:48.977Z</time></trkpt><trkpt lat="43.062115" lon="12.6418567"><ele>678.2</ele><time>2026-04-18T13:52:49.977Z</time></trkpt><trkpt lat="43.0621883" lon="12.6417567"><ele>673.4</ele><time>2026-04-18T13:52:50.977Z</time></trkpt><trkpt lat="43.0622517" lon="12.6416533"><ele>668.6</ele><time>2026-04-18T13:52:51.977Z</time></trkpt><trkpt lat="43.062315" lon="12.6415333"><ele>663.8000000000001</ele><time>2026-04-18T13:52:52.977Z</time></trkpt><trkpt lat="43.0623767" lon="12.64141"><ele>659.0</ele><time>2026-04-18T13:52:53.977Z</time></trkpt><trkpt lat="43.0624333" lon="12.6412867"><ele>660.0</ele><time>2026-04-18T13:52:54.977Z</time></trkpt><trkpt lat="43.062495" lon="12.641165"><ele>661.0</ele><time>2026-04-18T13:52:55.977Z</time></trkpt><trkpt lat="43.0625483" lon="12.6410317"><ele>662.0</ele><time>2026-04-18T13:52:56.977Z</time></trkpt><trkpt lat="43.0625933" lon="12.6409017"><ele>663.0</ele><time>2026-04-18T13:52:57.977Z</time></trkpt><trkpt lat="43.0626367" lon="12.6407667"><ele>664.0</ele><time>2026-04-18T13:52:58.977Z</time></trkpt><trkpt lat="43.0626733" lon="12.640635"><ele>664.0</ele><time>2026-04-18T13:52:59.977Z</time></trkpt><trkpt lat="43.062715" lon="12.6404983"><ele>664.0</ele><time>2026-04-18T13:53:00.977Z</time></trkpt><trkpt lat="43.062755" lon="12.6403533"><ele>664.0</ele><time>2026-04-18T13:53:01.977Z</time></trkpt><trkpt lat="43.0628" lon="12.6402167"><ele>664.0</ele><time>2026-04-18T13:53:02.977Z</time></trkpt><trkpt lat="43.0628433" lon="12.6400717"><ele>664.0</ele><time>2026-04-18T13:53:03.977Z</time></trkpt><trkpt lat="43.0628983" lon="12.639935"><ele>660.4000000000001</ele><time>2026-04-18T13:53:04.977Z</time></trkpt><trkpt lat="43.062955" lon="12.6397933"><ele>656.8</ele><time>2026-04-18T13:53:05.977Z</time></trkpt><trkpt lat="43.0630083" lon="12.6396567"><ele>653.2</ele><time>2026-04-18T13:53:06.977Z</time></trkpt><trkpt lat="43.0630633" lon="12.639535"><ele>649.5999999999999</ele><time>2026-04-18T13:53:07.977Z</time></trkpt><trkpt lat="43.06312" lon="12.63942"><ele>646.0</ele><time>2026-04-18T13:53:08.977Z</time></trkpt><trkpt lat="43.06318" lon="12.6393217"><ele>647.5</ele><time>2026-04-18T13:53:09.977Z</time></trkpt><trkpt lat="43.063235" lon="12.6392367"><ele>649.0</ele><time>2026-04-18T13:53:10.977Z</time></trkpt><trkpt lat="43.0632867" lon="12.6391667"><ele>650.5</ele><time>2026-04-18T13:53:11.977Z</time></trkpt><trkpt lat="43.0633267" lon="12.639095"><ele>652.0</ele><time>2026-04-18T13:53:12.977Z</time></trkpt><trkpt lat="43.063335" lon="12.638985"><ele>653.5</ele><time>2026-04-18T13:53:14.977Z</time></trkpt><trkpt lat="43.0632633" lon="12.63895"><ele>655.0</ele><time>2026-04-18T13:53:16.977Z</time></trkpt><trkpt lat="43.06315" lon="12.6390667"><ele>653.5</ele><time>2026-04-18T13:53:18.977Z</time></trkpt><trkpt lat="43.0630817" lon="12.6391567"><ele>652.0</ele><time>2026-04-18T13:53:19.977Z</time></trkpt><trkpt lat="43.063015" lon="12.6392533"><ele>650.5</ele><time>2026-04-18T13:53:20.977Z</time></trkpt><trkpt lat="43.0629517" lon="12.6393383"><ele>649.0</ele><time>2026-04-18T13:53:21.977Z</time></trkpt><trkpt lat="43.0628933" lon="12.6394233"><ele>647.5</ele><time>2026-04-18T13:53:22.977Z</time></trkpt><trkpt lat="43.0628417" lon="12.6395033"><ele>646.0</ele><time>2026-04-18T13:53:23.977Z</time></trkpt><trkpt lat="43.062795" lon="12.63958"><ele>646.0</ele><time>2026-04-18T13:53:24.977Z</time></trkpt><trkpt lat="43.0627617" lon="12.639665"><ele>646.0</ele><time>2026-04-18T13:53:25.977Z</time></trkpt><trkpt lat="43.062725" lon="12.63974"><ele>646.0</ele><time>2026-04-18T13:53:26.977Z</time></trkpt><trkpt lat="43.06264" lon="12.639785"><ele>646.0</ele><time>2026-04-18T13:53:28.977Z</time></trkpt><trkpt lat="43.0626117" lon="12.6396667"><ele>646.0</ele><time>2026-04-18T13:53:30.977Z</time></trkpt><trkpt lat="43.0626717" lon="12.639495"><ele>642.0</ele><time>2026-04-18T13:53:32.977Z</time></trkpt><trkpt lat="43.0627267" lon="12.639385"><ele>638.0</ele><time>2026-04-18T13:53:33.977Z</time></trkpt><trkpt lat="43.0627817" lon="12.6392717"><ele>634.0</ele><time>2026-04-18T13:53:34.977Z</time></trkpt><trkpt lat="43.0628433" lon="12.6391367"><ele>630.0</ele><time>2026-04-18T13:53:35.977Z</time></trkpt><trkpt lat="43.062905" lon="12.639"><ele>626.0</ele><time>2026-04-18T13:53:36.977Z</time></trkpt><trkpt lat="43.0629617" lon="12.6388683"><ele>626.0</ele><time>2026-04-18T13:53:37.977Z</time></trkpt><trkpt lat="43.063025" lon="12.6387283"><ele>626.0</ele><time>2026-04-18T13:53:38.977Z</time></trkpt><trkpt lat="43.063085" lon="12.63858"><ele>626.0</ele><time>2026-04-18T13:53:39.977Z</time></trkpt><trkpt lat="43.06314" lon="12.63845"><ele>626.0</ele><time>2026-04-18T13:53:40.977Z</time></trkpt><trkpt lat="43.063205" lon="12.6383167"><ele>626.5</ele><time>2026-04-18T13:53:41.977Z</time></trkpt><trkpt lat="43.06327" lon="12.63817"><ele>627.0</ele><time>2026-04-18T13:53:42.977Z</time></trkpt><trkpt lat="43.063335" lon="12.6380217"><ele>627.5</ele><time>2026-04-18T13:53:43.977Z</time></trkpt><trkpt lat="43.0633883" lon="12.637875"><ele>628.0</ele><time>2026-04-18T13:53:44.977Z</time></trkpt><trkpt lat="43.063455" lon="12.6377283"><ele>623.5</ele><time>2026-04-18T13:53:45.977Z</time></trkpt><trkpt lat="43.0635133" lon="12.63758"><ele>619.0</ele><time>2026-04-18T13:53:46.977Z</time></trkpt><trkpt lat="43.0635683" lon="12.63744"><ele>614.5</ele><time>2026-04-18T13:53:47.977Z</time></trkpt><trkpt lat="43.0636233" lon="12.6372967"><ele>610.0</ele><time>2026-04-18T13:53:48.977Z</time></trkpt><trkpt lat="43.0636767" lon="12.6371467"><ele>610.0</ele><time>2026-04-18T13:53:49.977Z</time></trkpt><trkpt lat="43.0637283" lon="12.6370017"><ele>610.0</ele><time>2026-04-18T13:53:50.977Z</time></trkpt><trkpt lat="43.06378" lon="12.63685"><ele>610.0</ele><time>2026-04-18T13:53:51.977Z</time></trkpt><trkpt lat="43.0638333" lon="12.6367017"><ele>610.0</ele><time>2026-04-18T13:53:52.977Z</time></trkpt><trkpt lat="43.0638867" lon="12.63655"><ele>606.0</ele><time>2026-04-18T13:53:53.977Z</time></trkpt><trkpt lat="43.0639467" lon="12.63639"><ele>602.0</ele><time>2026-04-18T13:53:54.977Z</time></trkpt><trkpt lat="43.0640133" lon="12.6362433"><ele>598.0</ele><time>2026-04-18T13:53:55.977Z</time></trkpt><trkpt lat="43.06408" lon="12.636095"><ele>594.0</ele><time>2026-04-18T13:53:56.977Z</time></trkpt><trkpt lat="43.0641483" lon="12.63595"><ele>594.0</ele><time>2026-04-18T13:53:57.977Z</time></trkpt><trkpt lat="43.0642233" lon="12.6358133"><ele>594.0</ele><time>2026-04-18T13:53:58.977Z</time></trkpt><trkpt lat="43.064295" lon="12.6356733"><ele>594.0</ele><time>2026-04-18T13:53:59.977Z</time></trkpt><trkpt lat="43.0643683" lon="12.6355383"><ele>594.0</ele><time>2026-04-18T13:54:00.977Z</time></trkpt><trkpt lat="43.0644567" lon="12.635415"><ele>589.0</ele><time>2026-04-18T13:54:01.977Z</time></trkpt><trkpt lat="43.0645483" lon="12.6352967"><ele>584.0</ele><time>2026-04-18T13:54:02.977Z</time></trkpt><trkpt lat="43.0646467" lon="12.63519"><ele>579.0</ele><time>2026-04-18T13:54:03.977Z</time></trkpt><trkpt lat="43.0647433" lon="12.63508"><ele>574.0</ele><time>2026-04-18T13:54:04.977Z</time></trkpt><trkpt lat="43.0648383" lon="12.6349717"><ele>574.0</ele><time>2026-04-18T13:54:05.977Z</time></trkpt><trkpt lat="43.0649317" lon="12.6348467"><ele>574.0</ele><time>2026-04-18T13:54:06.977Z</time></trkpt><trkpt lat="43.0650133" lon="12.63471"><ele>574.0</ele><time>2026-04-18T13:54:07.977Z</time></trkpt><trkpt lat="43.065085" lon="12.634565"><ele>574.0</ele><time>2026-04-18T13:54:08.977Z</time></trkpt><trkpt lat="43.0651567" lon="12.634425"><ele>573.0</ele><time>2026-04-18T13:54:09.977Z</time></trkpt><trkpt lat="43.0652283" lon="12.6342767"><ele>572.0</ele><time>2026-04-18T13:54:10.977Z</time></trkpt><trkpt lat="43.0653" lon="12.634135"><ele>571.0</ele><time>2026-04-18T13:54:11.977Z</time></trkpt><trkpt lat="43.06537" lon="12.634015"><ele>570.0</ele><time>2026-04-18T13:54:12.977Z</time></trkpt><trkpt lat="43.0654417" lon="12.63388"><ele>570.0</ele><time>2026-04-18T13:54:13.977Z</time></trkpt><trkpt lat="43.06551" lon="12.633745"><ele>570.0</ele><time>2026-04-18T13:54:14.977Z</time></trkpt><trkpt lat="43.0655817" lon="12.6336067"><ele>570.0</ele><time>2026-04-18T13:54:15.977Z</time></trkpt><trkpt lat="43.0656417" lon="12.63347"><ele>570.0</ele><time>2026-04-18T13:54:16.977Z</time></trkpt><trkpt lat="43.06568" lon="12.6333167"><ele>571.75</ele><time>2026-04-18T13:54:17.977Z</time></trkpt><trkpt lat="43.06572" lon="12.63315"><ele>573.5</ele><time>2026-04-18T13:54:18.977Z</time></trkpt><trkpt lat="43.0657583" lon="12.63298"><ele>575.25</ele><time>2026-04-18T13:54:19.977Z</time></trkpt><trkpt lat="43.06579" lon="12.63282"><ele>577.0</ele><time>2026-04-18T13:54:20.977Z</time></trkpt><trkpt lat="43.0658233" lon="12.632665"><ele>573.5</ele><time>2026-04-18T13:54:21.977Z</time></trkpt><trkpt lat="43.0658583" lon="12.63252"><ele>570.0</ele><time>2026-04-18T13:54:22.977Z</time></trkpt><trkpt lat="43.0658983" lon="12.6323733"><ele>566.5</ele><time>2026-04-18T13:54:23.977Z</time></trkpt><trkpt lat="43.0659333" lon="12.6322267"><ele>563.0</ele><time>2026-04-18T13:54:24.977Z</time></trkpt><trkpt lat="43.0659733" lon="12.6320817"><ele>560.4</ele><time>2026-04-18T13:54:25.977Z</time></trkpt><trkpt lat="43.0660183" lon="12.6319483"><ele>557.8</ele><time>2026-04-18T13:54:26.977Z</time></trkpt><trkpt lat="43.0660783" lon="12.6318267"><ele>555.2</ele><time>2026-04-18T13:54:27.977Z</time></trkpt><trkpt lat="43.0661483" lon="12.6317167"><ele>552.6</ele><time>2026-04-18T13:54:28.977Z</time></trkpt><trkpt lat="43.06623" lon="12.631635"><ele>550.0</ele><time>2026-04-18T13:54:29.977Z</time></trkpt><trkpt lat="43.0663233" lon="12.6315717"><ele>550.0</ele><time>2026-04-18T13:54:30.977Z</time></trkpt><trkpt lat="43.0664283" lon="12.631515"><ele>550.0</ele><time>2026-04-18T13:54:31.977Z</time></trkpt><trkpt lat="43.06654" lon="12.6314533"><ele>550.0</ele><time>2026-04-18T13:54:32.977Z</time></trkpt><trkpt lat="43.0666533" lon="12.631395"><ele>550.0</ele><time>2026-04-18T13:54:33.977Z</time></trkpt><trkpt lat="43.0667717" lon="12.6313567"><ele>553.75</ele><time>2026-04-18T13:54:34.977Z</time></trkpt><trkpt lat="43.0668883" lon="12.63131"><ele>557.5</ele><time>2026-04-18T13:54:35.977Z</time></trkpt><trkpt lat="43.067005" lon="12.63127"><ele>561.25</ele><time>2026-04-18T13:54:36.977Z</time></trkpt><trkpt lat="43.0671183" lon="12.6312267"><ele>565.0</ele><time>2026-04-18T13:54:37.977Z</time></trkpt><trkpt lat="43.06723" lon="12.6311683"><ele>559.5</ele><time>2026-04-18T13:54:38.977Z</time></trkpt><trkpt lat="43.0673333" lon="12.6310983"><ele>554.0</ele><time>2026-04-18T13:54:39.977Z</time></trkpt><trkpt lat="43.067425" lon="12.6310133"><ele>548.5</ele><time>2026-04-18T13:54:40.977Z</time></trkpt><trkpt lat="43.0675117" lon="12.6309217"><ele>543.0</ele><time>2026-04-18T13:54:41.977Z</time></trkpt><trkpt lat="43.0676" lon="12.63081"><ele>543.0</ele><time>2026-04-18T13:54:42.977Z</time></trkpt><trkpt lat="43.0676867" lon="12.6306983"><ele>543.0</ele><time>2026-04-18T13:54:43.977Z</time></trkpt><trkpt lat="43.067755" lon="12.6305867"><ele>543.0</ele><time>2026-04-18T13:54:44.977Z</time></trkpt><trkpt lat="43.0678367" lon="12.6304633"><ele>543.0</ele><time>2026-04-18T13:54:45.977Z</time></trkpt><trkpt lat="43.0679183" lon="12.6303333"><ele>538.5</ele><time>2026-04-18T13:54:46.977Z</time></trkpt><trkpt lat="43.0679883" lon="12.6301983"><ele>534.0</ele><time>2026-04-18T13:54:47.977Z</time></trkpt><trkpt lat="43.068065" lon="12.6300583"><ele>529.5</ele><time>2026-04-18T13:54:48.977Z</time></trkpt><trkpt lat="43.0681383" lon="12.6299283"><ele>525.0</ele><time>2026-04-18T13:54:49.977Z</time></trkpt><trkpt lat="43.068215" lon="12.6298033"><ele>525.25</ele><time>2026-04-18T13:54:50.977Z</time></trkpt><trkpt lat="43.0682883" lon="12.629675"><ele>525.5</ele><time>2026-04-18T13:54:51.977Z</time></trkpt><trkpt lat="43.06836" lon="12.6295467"><ele>525.75</ele><time>2026-04-18T13:54:52.977Z</time></trkpt><trkpt lat="43.0684367" lon="12.6294167"><ele>526.0</ele><time>2026-04-18T13:54:53.977Z</time></trkpt><trkpt lat="43.068505" lon="12.6292867"><ele>526.0</ele><time>2026-04-18T13:54:54.977Z</time></trkpt><trkpt lat="43.0685683" lon="12.6291517"><ele>526.0</ele><time>2026-04-18T13:54:55.977Z</time></trkpt><trkpt lat="43.0686317" lon="12.629015"><ele>526.0</ele><time>2026-04-18T13:54:56.977Z</time></trkpt><trkpt lat="43.068695" lon="12.62888"><ele>526.0</ele><time>2026-04-18T13:54:57.977Z</time></trkpt><trkpt lat="43.0687567" lon="12.628745"><ele>522.75</ele><time>2026-04-18T13:54:58.977Z</time></trkpt><trkpt lat="43.0688167" lon="12.628605"><ele>519.5</ele><time>2026-04-18T13:54:59.977Z</time></trkpt><trkpt lat="43.06888" lon="12.6284667"><ele>516.25</ele><time>2026-04-18T13:55:00.977Z</time></trkpt><trkpt lat="43.068945" lon="12.6283233"><ele>513.0</ele><time>2026-04-18T13:55:01.977Z</time></trkpt><trkpt lat="43.0690033" lon="12.6281833"><ele>513.0</ele><time>2026-04-18T13:55:02.977Z</time></trkpt><trkpt lat="43.0690717" lon="12.62805"><ele>513.0</ele><time>2026-04-18T13:55:03.977Z</time></trkpt><trkpt lat="43.0691317" lon="12.6279183"><ele>513.0</ele><time>2026-04-18T13:55:04.977Z</time></trkpt><trkpt lat="43.0691933" lon="12.6277833"><ele>513.0</ele><time>2026-04-18T13:55:05.977Z</time></trkpt><trkpt lat="43.069255" lon="12.6276483"><ele>512.75</ele><time>2026-04-18T13:55:06.977Z</time></trkpt><trkpt lat="43.069305" lon="12.6275133"><ele>512.5</ele><time>2026-04-18T13:55:07.976Z</time></trkpt><trkpt lat="43.06935" lon="12.6273717"><ele>512.25</ele><time>2026-04-18T13:55:08.977Z</time></trkpt><trkpt lat="43.0693767" lon="12.6272167"><ele>512.0</ele><time>2026-04-18T13:55:09.977Z</time></trkpt><trkpt lat="43.069395" lon="12.6270533"><ele>509.5</ele><time>2026-04-18T13:55:10.977Z</time></trkpt><trkpt lat="43.0694067" lon="12.6268917"><ele>507.0</ele><time>2026-04-18T13:55:11.977Z</time></trkpt><trkpt lat="43.0694133" lon="12.62674"><ele>504.5</ele><time>2026-04-18T13:55:12.977Z</time></trkpt><trkpt lat="43.0694217" lon="12.626575"><ele>502.0</ele><time>2026-04-18T13:55:13.977Z</time></trkpt><trkpt lat="43.0694283" lon="12.6264117"><ele>502.0</ele><time>2026-04-18T13:55:14.977Z</time></trkpt><trkpt lat="43.06943" lon="12.6262567"><ele>502.0</ele><time>2026-04-18T13:55:15.977Z</time></trkpt><trkpt lat="43.0694067" lon="12.6260917"><ele>502.0</ele><time>2026-04-18T13:55:16.977Z</time></trkpt><trkpt lat="43.069385" lon="12.6259283"><ele>502.0</ele><time>2026-04-18T13:55:17.977Z</time></trkpt><trkpt lat="43.0693583" lon="12.625775"><ele>500.25</ele><time>2026-04-18T13:55:18.977Z</time></trkpt><trkpt lat="43.0693283" lon="12.625625"><ele>498.5</ele><time>2026-04-18T13:55:19.977Z</time></trkpt><trkpt lat="43.06929" lon="12.625485"><ele>496.75</ele><time>2026-04-18T13:55:20.977Z</time></trkpt><trkpt lat="43.069255" lon="12.6253367"><ele>495.0</ele><time>2026-04-18T13:55:21.977Z</time></trkpt><trkpt lat="43.0692333" lon="12.625185"><ele>493.0</ele><time>2026-04-18T13:55:22.977Z</time></trkpt><trkpt lat="43.0692183" lon="12.625025"><ele>491.0</ele><time>2026-04-18T13:55:23.977Z</time></trkpt><trkpt lat="43.069205" lon="12.6248633"><ele>489.0</ele><time>2026-04-18T13:55:24.977Z</time></trkpt><trkpt lat="43.0692017" lon="12.6247017"><ele>487.0</ele><time>2026-04-18T13:55:25.977Z</time></trkpt><trkpt lat="43.0692" lon="12.6245417"><ele>485.75</ele><time>2026-04-18T13:55:26.977Z</time></trkpt><trkpt lat="43.0691983" lon="12.6243867"><ele>484.5</ele><time>2026-04-18T13:55:27.977Z</time></trkpt><trkpt lat="43.0692083" lon="12.62423"><ele>483.25</ele><time>2026-04-18T13:55:28.977Z</time></trkpt><trkpt lat="43.06923" lon="12.6240783"><ele>482.0</ele><time>2026-04-18T13:55:29.977Z</time></trkpt><trkpt lat="43.0692517" lon="12.6239283"><ele>482.0</ele><time>2026-04-18T13:55:30.977Z</time></trkpt><trkpt lat="43.069265" lon="12.62379"><ele>482.00000000000006</ele><time>2026-04-18T13:55:31.977Z</time></trkpt><trkpt lat="43.069275" lon="12.62365"><ele>482.00000000000006</ele><time>2026-04-18T13:55:32.977Z</time></trkpt><trkpt lat="43.069285" lon="12.6235083"><ele>482.0</ele><time>2026-04-18T13:55:33.977Z</time></trkpt><trkpt lat="43.0692867" lon="12.6233617"><ele>482.0</ele><time>2026-04-18T13:55:34.977Z</time></trkpt><trkpt lat="43.0692833" lon="12.6232167"><ele>480.0</ele><time>2026-04-18T13:55:35.977Z</time></trkpt><trkpt lat="43.069285" lon="12.6230783"><ele>478.00000000000006</ele><time>2026-04-18T13:55:36.977Z</time></trkpt><trkpt lat="43.069275" lon="12.6229433"><ele>476.00000000000006</ele><time>2026-04-18T13:55:37.977Z</time></trkpt><trkpt lat="43.069265" lon="12.6228183"><ele>474.0</ele><time>2026-04-18T13:55:38.977Z</time></trkpt><trkpt lat="43.0692533" lon="12.6227017"><ele>472.0</ele><time>2026-04-18T13:55:39.977Z</time></trkpt><trkpt lat="43.0692367" lon="12.6225867"><ele>471.83333333333337</ele><time>2026-04-18T13:55:40.977Z</time></trkpt><trkpt lat="43.069225" lon="12.6224783"><ele>471.6666666666667</ele><time>2026-04-18T13:55:41.977Z</time></trkpt><trkpt lat="43.0692033" lon="12.6223233"><ele>471.5</ele><time>2026-04-18T13:55:43.977Z</time></trkpt><trkpt lat="43.0691817" lon="12.6222067"><ele>471.33333333333337</ele><time>2026-04-18T13:55:45.977Z</time></trkpt><trkpt lat="43.0691117" lon="12.6221867"><ele>471.1666666666667</ele><time>2026-04-18T13:55:49.977Z</time></trkpt><trkpt lat="43.0690717" lon="12.6222667"><ele>471.0</ele><time>2026-04-18T13:55:51.977Z</time></trkpt><trkpt lat="43.0690467" lon="12.6224417"><ele>468.1666666666667</ele><time>2026-04-18T13:55:53.977Z</time></trkpt><trkpt lat="43.069025" lon="12.6225383"><ele>465.33333333333337</ele><time>2026-04-18T13:55:54.977Z</time></trkpt><trkpt lat="43.0690033" lon="12.622645"><ele>462.5</ele><time>2026-04-18T13:55:55.977Z</time></trkpt><trkpt lat="43.0689717" lon="12.622755"><ele>459.6666666666667</ele><time>2026-04-18T13:55:56.977Z</time></trkpt><trkpt lat="43.06893" lon="12.622855"><ele>456.83333333333337</ele><time>2026-04-18T13:55:57.977Z</time></trkpt><trkpt lat="43.068885" lon="12.622955"><ele>454.0</ele><time>2026-04-18T13:55:58.977Z</time></trkpt><trkpt lat="43.0688283" lon="12.6230517"><ele>454.0</ele><time>2026-04-18T13:55:59.977Z</time></trkpt><trkpt lat="43.0687683" lon="12.6231467"><ele>454.0</ele><time>2026-04-18T13:56:00.977Z</time></trkpt><trkpt lat="43.0687083" lon="12.62325"><ele>454.0</ele><time>2026-04-18T13:56:01.977Z</time></trkpt><trkpt lat="43.0686567" lon="12.6233567"><ele>454.0</ele><time>2026-04-18T13:56:02.977Z</time></trkpt><trkpt lat="43.06861" lon="12.6234617"><ele>454.0</ele><time>2026-04-18T13:56:03.977Z</time></trkpt><trkpt lat="43.0685633" lon="12.6235817"><ele>455.4</ele><time>2026-04-18T13:56:04.977Z</time></trkpt><trkpt lat="43.06852" lon="12.6237017"><ele>456.79999999999995</ele><time>2026-04-18T13:56:05.977Z</time></trkpt><trkpt lat="43.0684817" lon="12.6238267"><ele>458.20000000000005</ele><time>2026-04-18T13:56:06.977Z</time></trkpt><trkpt lat="43.06844" lon="12.62395"><ele>459.6</ele><time>2026-04-18T13:56:07.977Z</time></trkpt><trkpt lat="43.0684017" lon="12.62407"><ele>461.0</ele><time>2026-04-18T13:56:08.977Z</time></trkpt><trkpt lat="43.068355" lon="12.6241767"><ele>460.99999999999994</ele><time>2026-04-18T13:56:09.977Z</time></trkpt><trkpt lat="43.068315" lon="12.6242833"><ele>461.0</ele><time>2026-04-18T13:56:10.977Z</time></trkpt><trkpt lat="43.0682817" lon="12.6243933"><ele>461.0</ele><time>2026-04-18T13:56:11.977Z</time></trkpt><trkpt lat="43.0682367" lon="12.6244917"><ele>461.0</ele><time>2026-04-18T13:56:12.977Z</time></trkpt><trkpt lat="43.0682" lon="12.624595"><ele>460.99999999999994</ele><time>2026-04-18T13:56:13.977Z</time></trkpt><trkpt lat="43.0681767" lon="12.6247033"><ele>461.0</ele><time>2026-04-18T13:56:14.977Z</time></trkpt><trkpt lat="43.0681567" lon="12.6248083"><ele>460.16666666666663</ele><time>2026-04-18T13:56:15.977Z</time></trkpt><trkpt lat="43.06813" lon="12.62491"><ele>459.3333333333333</ele><time>2026-04-18T13:56:16.977Z</time></trkpt><trkpt lat="43.0681033" lon="12.6250217"><ele>458.5</ele><time>2026-04-18T13:56:17.977Z</time></trkpt><trkpt lat="43.068065" lon="12.6251333"><ele>457.66666666666663</ele><time>2026-04-18T13:56:18.977Z</time></trkpt><trkpt lat="43.068015" lon="12.6252367"><ele>456.8333333333333</ele><time>2026-04-18T13:56:19.977Z</time></trkpt><trkpt lat="43.0679583" lon="12.625325"><ele>456.0</ele><time>2026-04-18T13:56:20.977Z</time></trkpt><trkpt lat="43.0678767" lon="12.6254067"><ele>456.0</ele><time>2026-04-18T13:56:21.977Z</time></trkpt><trkpt lat="43.0677917" lon="12.6254783"><ele>456.0</ele><time>2026-04-18T13:56:22.977Z</time></trkpt><trkpt lat="43.0677067" lon="12.62556"><ele>456.0</ele><time>2026-04-18T13:56:23.977Z</time></trkpt><trkpt lat="43.067625" lon="12.6256433"><ele>456.0</ele><time>2026-04-18T13:56:24.977Z</time></trkpt><trkpt lat="43.0675433" lon="12.6257267"><ele>456.0</ele><time>2026-04-18T13:56:25.977Z</time></trkpt><trkpt lat="43.0674617" lon="12.6258017"><ele>456.8</ele><time>2026-04-18T13:56:26.977Z</time></trkpt><trkpt lat="43.0673683" lon="12.6258633"><ele>457.6</ele><time>2026-04-18T13:56:27.977Z</time></trkpt><trkpt lat="43.0672767" lon="12.6259267"><ele>458.4</ele><time>2026-04-18T13:56:28.977Z</time></trkpt><trkpt lat="43.0671917" lon="12.6260017"><ele>459.2</ele><time>2026-04-18T13:56:29.977Z</time></trkpt><trkpt lat="43.0671133" lon="12.6260817"><ele>460.0</ele><time>2026-04-18T13:56:30.977Z</time></trkpt><trkpt lat="43.0670283" lon="12.6261533"><ele>460.00000000000006</ele><time>2026-04-18T13:56:31.977Z</time></trkpt><trkpt lat="43.0669517" lon="12.62622"><ele>460.0</ele><time>2026-04-18T13:56:32.977Z</time></trkpt><trkpt lat="43.066865" lon="12.6262617"><ele>460.0</ele><time>2026-04-18T13:56:33.977Z</time></trkpt><trkpt lat="43.0667783" lon="12.6262817"><ele>460.0</ele><time>2026-04-18T13:56:34.977Z</time></trkpt><trkpt lat="43.0666867" lon="12.6262733"><ele>460.00000000000006</ele><time>2026-04-18T13:56:35.977Z</time></trkpt><trkpt lat="43.0666067" lon="12.6262483"><ele>460.0</ele><time>2026-04-18T13:56:36.977Z</time></trkpt><trkpt lat="43.0665483" lon="12.6261867"><ele>457.83333333333337</ele><time>2026-04-18T13:56:37.977Z</time></trkpt><trkpt lat="43.0665117" lon="12.6261"><ele>455.6666666666667</ele><time>2026-04-18T13:56:38.977Z</time></trkpt><trkpt lat="43.06651" lon="12.625995"><ele>453.5</ele><time>2026-04-18T13:56:39.977Z</time></trkpt><trkpt lat="43.0665433" lon="12.625895"><ele>451.33333333333337</ele><time>2026-04-18T13:56:40.977Z</time></trkpt><trkpt lat="43.0665883" lon="12.625805"><ele>449.1666666666667</ele><time>2026-04-18T13:56:41.977Z</time></trkpt><trkpt lat="43.0666483" lon="12.625725"><ele>447.0</ele><time>2026-04-18T13:56:42.977Z</time></trkpt><trkpt lat="43.066725" lon="12.62565"><ele>447.0</ele><time>2026-04-18T13:56:43.977Z</time></trkpt><trkpt lat="43.0668117" lon="12.62556"><ele>447.00000000000006</ele><time>2026-04-18T13:56:44.977Z</time></trkpt><trkpt lat="43.0668967" lon="12.62547"><ele>447.00000000000006</ele><time>2026-04-18T13:56:45.977Z</time></trkpt><trkpt lat="43.06697" lon="12.62538"><ele>447.0</ele><time>2026-04-18T13:56:46.977Z</time></trkpt><trkpt lat="43.0670383" lon="12.6252817"><ele>447.0</ele><time>2026-04-18T13:56:47.977Z</time></trkpt><trkpt lat="43.0670967" lon="12.62518"><ele>443.8</ele><time>2026-04-18T13:56:48.977Z</time></trkpt><trkpt lat="43.06716" lon="12.6250883"><ele>440.6</ele><time>2026-04-18T13:56:49.977Z</time></trkpt><trkpt lat="43.0672167" lon="12.6249833"><ele>437.40000000000003</ele><time>2026-04-18T13:56:50.977Z</time></trkpt><trkpt lat="43.0672717" lon="12.6248817"><ele>434.20000000000005</ele><time>2026-04-18T13:56:51.977Z</time></trkpt><trkpt lat="43.0673317" lon="12.6247783"><ele>431.0</ele><time>2026-04-18T13:56:52.977Z</time></trkpt><trkpt lat="43.0673867" lon="12.624685"><ele>430.99999999999994</ele><time>2026-04-18T13:56:53.977Z</time></trkpt><trkpt lat="43.06744" lon="12.62459"><ele>431.0</ele><time>2026-04-18T13:56:54.977Z</time></trkpt><trkpt lat="43.0674933" lon="12.624495"><ele>431.0</ele><time>2026-04-18T13:56:55.977Z</time></trkpt><trkpt lat="43.0675267" lon="12.6243983"><ele>431.0</ele><time>2026-04-18T13:56:56.977Z</time></trkpt><trkpt lat="43.067535" lon="12.6243117"><ele>430.99999999999994</ele><time>2026-04-18T13:56:57.977Z</time></trkpt><trkpt lat="43.0675017" lon="12.62423"><ele>431.0</ele><time>2026-04-18T13:56:58.977Z</time></trkpt><trkpt lat="43.0674467" lon="12.6241517"><ele>429.0</ele><time>2026-04-18T13:56:59.977Z</time></trkpt><trkpt lat="43.0673683" lon="12.62409"><ele>427.0</ele><time>2026-04-18T13:57:00.977Z</time></trkpt><trkpt lat="43.0672833" lon="12.6240317"><ele>425.0</ele><time>2026-04-18T13:57:01.977Z</time></trkpt><trkpt lat="43.067185" lon="12.6239867"><ele>423.0</ele><time>2026-04-18T13:57:02.977Z</time></trkpt><trkpt lat="43.06709" lon="12.623945"><ele>421.0</ele><time>2026-04-18T13:57:03.977Z</time></trkpt><trkpt lat="43.0670033" lon="12.6239283"><ele>421.00000000000006</ele><time>2026-04-18T13:57:04.977Z</time></trkpt><trkpt lat="43.0669167" lon="12.623915"><ele>421.0</ele><time>2026-04-18T13:57:05.977Z</time></trkpt><trkpt lat="43.0668483" lon="12.6239067"><ele>421.0</ele><time>2026-04-18T13:57:06.977Z</time></trkpt><trkpt lat="43.06675" lon="12.623835"><ele>421.0</ele><time>2026-04-18T13:57:08.977Z</time></trkpt><trkpt lat="43.0667317" lon="12.623695"><ele>421.00000000000006</ele><time>2026-04-18T13:57:10.977Z</time></trkpt><trkpt lat="43.0667567" lon="12.6236"><ele>421.0</ele><time>2026-04-18T13:57:12.977Z</time></trkpt><trkpt lat="43.066795" lon="12.62353"><ele>419.33333333333337</ele><time>2026-04-18T13:57:14.977Z</time></trkpt><trkpt lat="43.06684" lon="12.6233967"><ele>417.6666666666667</ele><time>2026-04-18T13:57:16.977Z</time></trkpt><trkpt lat="43.066875" lon="12.6233067"><ele>416.0</ele><time>2026-04-18T13:57:17.977Z</time></trkpt><trkpt lat="43.0669167" lon="12.6232267"><ele>414.33333333333337</ele><time>2026-04-18T13:57:18.977Z</time></trkpt><trkpt lat="43.0669683" lon="12.6231467"><ele>412.6666666666667</ele><time>2026-04-18T13:57:19.976Z</time></trkpt><trkpt lat="43.0670283" lon="12.623075"><ele>411.0</ele><time>2026-04-18T13:57:20.976Z</time></trkpt><trkpt lat="43.0670833" lon="12.62301"><ele>411.0</ele><time>2026-04-18T13:57:21.976Z</time></trkpt><trkpt lat="43.067135" lon="12.622945"><ele>411.0</ele><time>2026-04-18T13:57:22.976Z</time></trkpt><trkpt lat="43.0671967" lon="12.6228"><ele>411.0</ele><time>2026-04-18T13:57:24.976Z</time></trkpt><trkpt lat="43.0671933" lon="12.6226067"><ele>411.0</ele><time>2026-04-18T13:57:26.976Z</time></trkpt><trkpt lat="43.0671617" lon="12.6224967"><ele>411.0</ele><time>2026-04-18T13:57:27.976Z</time></trkpt><trkpt lat="43.067105" lon="12.6223833"><ele>410.20000000000005</ele><time>2026-04-18T13:57:28.976Z</time></trkpt><trkpt lat="43.0670433" lon="12.62227"><ele>409.40000000000003</ele><time>2026-04-18T13:57:29.976Z</time></trkpt><trkpt lat="43.0669883" lon="12.622155"><ele>408.6</ele><time>2026-04-18T13:57:30.976Z</time></trkpt><trkpt lat="43.0669283" lon="12.62204"><ele>407.8</ele><time>2026-04-18T13:57:31.976Z</time></trkpt><trkpt lat="43.0668683" lon="12.621915"><ele>407.0</ele><time>2026-04-18T13:57:32.976Z</time></trkpt><trkpt lat="43.0668167" lon="12.6218033"><ele>406.99999999999994</ele><time>2026-04-18T13:57:33.976Z</time></trkpt><trkpt lat="43.066775" lon="12.6217067"><ele>407.0</ele><time>2026-04-18T13:57:34.976Z</time></trkpt><trkpt lat="43.0667333" lon="12.621605"><ele>407.0</ele><time>2026-04-18T13:57:35.976Z</time></trkpt><trkpt lat="43.0666983" lon="12.621485"><ele>407.0</ele><time>2026-04-18T13:57:36.976Z</time></trkpt><trkpt lat="43.0666683" lon="12.621365"><ele>406.99999999999994</ele><time>2026-04-18T13:57:37.976Z</time></trkpt><trkpt lat="43.0666417" lon="12.62124"><ele>407.0</ele><time>2026-04-18T13:57:38.976Z</time></trkpt><trkpt lat="43.0666267" lon="12.6211083"><ele>407.49999999999994</ele><time>2026-04-18T13:57:39.976Z</time></trkpt><trkpt lat="43.0666233" lon="12.620975"><ele>408.0</ele><time>2026-04-18T13:57:40.976Z</time></trkpt><trkpt lat="43.0666233" lon="12.6208517"><ele>408.5</ele><time>2026-04-18T13:57:41.976Z</time></trkpt><trkpt lat="43.0666167" lon="12.620735"><ele>409.0</ele><time>2026-04-18T13:57:42.976Z</time></trkpt><trkpt lat="43.0666167" lon="12.6206217"><ele>409.49999999999994</ele><time>2026-04-18T13:57:43.976Z</time></trkpt><trkpt lat="43.0666167" lon="12.6205017"><ele>410.0</ele><time>2026-04-18T13:57:44.976Z</time></trkpt><trkpt lat="43.0666283" lon="12.620375"><ele>409.3333333333333</ele><time>2026-04-18T13:57:45.976Z</time></trkpt><trkpt lat="43.0666467" lon="12.62026"><ele>408.66666666666663</ele><time>2026-04-18T13:57:46.976Z</time></trkpt><trkpt lat="43.0666667" lon="12.620155"><ele>408.0</ele><time>2026-04-18T13:57:47.976Z</time></trkpt><trkpt lat="43.066695" lon="12.6200717"><ele>407.33333333333337</ele><time>2026-04-18T13:57:48.976Z</time></trkpt><trkpt lat="43.0667233" lon="12.6199667"><ele>406.6666666666667</ele><time>2026-04-18T13:57:50.976Z</time></trkpt><trkpt lat="43.0667267" lon="12.61988"><ele>406.0</ele><time>2026-04-18T13:57:53.976Z</time></trkpt><trkpt lat="43.0666817" lon="12.6197733"><ele>403.33333333333337</ele><time>2026-04-18T13:57:56.976Z</time></trkpt><trkpt lat="43.0665917" lon="12.6197567"><ele>400.6666666666667</ele><time>2026-04-18T13:57:58.976Z</time></trkpt><trkpt lat="43.06649" lon="12.61982"><ele>398.0</ele><time>2026-04-18T13:58:00.976Z</time></trkpt><trkpt lat="43.06645" lon="12.6198867"><ele>395.33333333333337</ele><time>2026-04-18T13:58:01.976Z</time></trkpt><trkpt lat="43.06641" lon="12.61998"><ele>392.6666666666667</ele><time>2026-04-18T13:58:02.976Z</time></trkpt><trkpt lat="43.0663767" lon="12.6200883"><ele>390.0</ele><time>2026-04-18T13:58:03.976Z</time></trkpt><trkpt lat="43.0663483" lon="12.6201983"><ele>390.0</ele><time>2026-04-18T13:58:04.976Z</time></trkpt><trkpt lat="43.0663367" lon="12.6203017"><ele>390.0</ele><time>2026-04-18T13:58:05.976Z</time></trkpt><trkpt lat="43.0663283" lon="12.6204083"><ele>390.0</ele><time>2026-04-18T13:58:06.976Z</time></trkpt><trkpt lat="43.06633" lon="12.6205267"><ele>390.0</ele><time>2026-04-18T13:58:07.976Z</time></trkpt><trkpt lat="43.06633" lon="12.6206267"><ele>390.0</ele><time>2026-04-18T13:58:08.976Z</time></trkpt><trkpt lat="43.06633" lon="12.620715"><ele>390.0</ele><time>2026-04-18T13:58:09.976Z</time></trkpt><trkpt lat="43.0663333" lon="12.620805"><ele>390.0</ele><time>2026-04-18T13:58:10.976Z</time></trkpt><trkpt lat="43.0663183" lon="12.6209367"><ele>390.0</ele><time>2026-04-18T13:58:12.976Z</time></trkpt><trkpt lat="43.0662517" lon="12.62101"><ele>390.0</ele><time>2026-04-18T13:58:14.976Z</time></trkpt><trkpt lat="43.0661583" lon="12.6209383"><ele>390.0</ele><time>2026-04-18T13:58:16.976Z</time></trkpt><trkpt lat="43.0661067" lon="12.6208433"><ele>390.0</ele><time>2026-04-18T13:58:17.976Z</time></trkpt><trkpt lat="43.06606" lon="12.6207283"><ele>390.0</ele><time>2026-04-18T13:58:18.976Z</time></trkpt><trkpt lat="43.0660117" lon="12.62061"><ele>390.0</ele><time>2026-04-18T13:58:19.976Z</time></trkpt><trkpt lat="43.06596" lon="12.6204883"><ele>390.0</ele><time>2026-04-18T13:58:20.976Z</time></trkpt><trkpt lat="43.06591" lon="12.6203517"><ele>390.0</ele><time>2026-04-18T13:58:21.976Z</time></trkpt><trkpt lat="43.0658633" lon="12.6202233"><ele>390.0</ele><time>2026-04-18T13:58:22.976Z</time></trkpt><trkpt lat="43.06581" lon="12.6200933"><ele>390.0</ele><time>2026-04-18T13:58:23.976Z</time></trkpt><trkpt lat="43.0657517" lon="12.619965"><ele>386.8</ele><time>2026-04-18T13:58:24.976Z</time></trkpt><trkpt lat="43.0657033" lon="12.6198367"><ele>383.6</ele><time>2026-04-18T13:58:25.976Z</time></trkpt><trkpt lat="43.06566" lon="12.6197033"><ele>380.4</ele><time>2026-04-18T13:58:26.976Z</time></trkpt><trkpt lat="43.065625" lon="12.6195733"><ele>377.2</ele><time>2026-04-18T13:58:27.976Z</time></trkpt><trkpt lat="43.0655983" lon="12.6194317"><ele>374.0</ele><time>2026-04-18T13:58:28.976Z</time></trkpt><trkpt lat="43.0655817" lon="12.6192833"><ele>373.6</ele><time>2026-04-18T13:58:29.976Z</time></trkpt><trkpt lat="43.0655783" lon="12.61914"><ele>373.2</ele><time>2026-04-18T13:58:30.976Z</time></trkpt><trkpt lat="43.0656" lon="12.6190067"><ele>372.8</ele><time>2026-04-18T13:58:31.976Z</time></trkpt><trkpt lat="43.065645" lon="12.6188833"><ele>372.40000000000003</ele><time>2026-04-18T13:58:32.976Z</time></trkpt><trkpt lat="43.0657067" lon="12.6187617"><ele>372.0</ele><time>2026-04-18T13:58:33.976Z</time></trkpt><trkpt lat="43.0657783" lon="12.6186317"><ele>374.0</ele><time>2026-04-18T13:58:34.976Z</time></trkpt><trkpt lat="43.0658617" lon="12.6185117"><ele>376.0</ele><time>2026-04-18T13:58:35.976Z</time></trkpt><trkpt lat="43.0659383" lon="12.618385"><ele>378.0</ele><time>2026-04-18T13:58:36.976Z</time></trkpt><trkpt lat="43.0660133" lon="12.6182517"><ele>380.0</ele><time>2026-04-18T13:58:37.976Z</time></trkpt><trkpt lat="43.0660867" lon="12.6181233"><ele>380.0</ele><time>2026-04-18T13:58:38.976Z</time></trkpt><trkpt lat="43.0661617" lon="12.6179883"><ele>380.0</ele><time>2026-04-18T13:58:39.976Z</time></trkpt><trkpt lat="43.066235" lon="12.6178667"><ele>380.0</ele><time>2026-04-18T13:58:40.976Z</time></trkpt><trkpt lat="43.066305" lon="12.6177517"><ele>380.0</ele><time>2026-04-18T13:58:41.976Z</time></trkpt><trkpt lat="43.0663733" lon="12.6176467"><ele>379.5</ele><time>2026-04-18T13:58:42.976Z</time></trkpt><trkpt lat="43.06645" lon="12.61756"><ele>379.0</ele><time>2026-04-18T13:58:43.976Z</time></trkpt><trkpt lat="43.066525" lon="12.6175017"><ele>378.5</ele><time>2026-04-18T13:58:44.976Z</time></trkpt><trkpt lat="43.0665883" lon="12.61747"><ele>378.0</ele><time>2026-04-18T13:58:45.976Z</time></trkpt><trkpt lat="43.0666867" lon="12.6174467"><ele>377.5</ele><time>2026-04-18T13:58:47.976Z</time></trkpt><trkpt lat="43.0667767" lon="12.617445"><ele>377.0</ele><time>2026-04-18T13:58:49.976Z</time></trkpt><trkpt lat="43.0668733" lon="12.6174433"><ele>377.0</ele><time>2026-04-18T13:58:51.976Z</time></trkpt><trkpt lat="43.0669817" lon="12.6174317"><ele>377.0</ele><time>2026-04-18T13:58:53.976Z</time></trkpt><trkpt lat="43.067115" lon="12.6174217"><ele>377.0</ele><time>2026-04-18T13:58:55.976Z</time></trkpt><trkpt lat="43.0671867" lon="12.6173833"><ele>377.0</ele><time>2026-04-18T13:58:56.976Z</time></trkpt><trkpt lat="43.0672433" lon="12.61732"><ele>377.0</ele><time>2026-04-18T13:58:57.976Z</time></trkpt><trkpt lat="43.0672867" lon="12.6172533"><ele>377.0</ele><time>2026-04-18T13:58:58.976Z</time></trkpt><trkpt lat="43.067325" lon="12.617145"><ele>377.0</ele><time>2026-04-18T13:58:59.976Z</time></trkpt><trkpt lat="43.0673533" lon="12.61702"><ele>377.0</ele><time>2026-04-18T13:59:00.976Z</time></trkpt><trkpt lat="43.0673817" lon="12.616895"><ele>377.0</ele><time>2026-04-18T13:59:01.976Z</time></trkpt><trkpt lat="43.0674033" lon="12.6167733"><ele>377.0</ele><time>2026-04-18T13:59:02.976Z</time></trkpt><trkpt lat="43.0674283" lon="12.61665"><ele>377.0</ele><time>2026-04-18T13:59:03.976Z</time></trkpt><trkpt lat="43.0674517" lon="12.6165367"><ele>377.0</ele><time>2026-04-18T13:59:04.976Z</time></trkpt><trkpt lat="43.0674783" lon="12.616425"><ele>377.0</ele><time>2026-04-18T13:59:05.976Z</time></trkpt><trkpt lat="43.0674983" lon="12.6163117"><ele>377.0</ele><time>2026-04-18T13:59:06.976Z</time></trkpt><trkpt lat="43.0675117" lon="12.6161967"><ele>377.0</ele><time>2026-04-18T13:59:07.976Z</time></trkpt><trkpt lat="43.0675167" lon="12.61608"><ele>377.0</ele><time>2026-04-18T13:59:08.976Z</time></trkpt><trkpt lat="43.0674883" lon="12.615975"><ele>375.33333333333337</ele><time>2026-04-18T13:59:09.976Z</time></trkpt><trkpt lat="43.067465" lon="12.6158717"><ele>373.6666666666667</ele><time>2026-04-18T13:59:10.976Z</time></trkpt><trkpt lat="43.06744" lon="12.6157733"><ele>372.0</ele><time>2026-04-18T13:59:11.976Z</time></trkpt><trkpt lat="43.06744" lon="12.6156567"><ele>370.3333333333333</ele><time>2026-04-18T13:59:12.976Z</time></trkpt><trkpt lat="43.0674533" lon="12.6155467"><ele>368.66666666666663</ele><time>2026-04-18T13:59:13.976Z</time></trkpt><trkpt lat="43.06748" lon="12.61544"><ele>367.0</ele><time>2026-04-18T13:59:14.976Z</time></trkpt><trkpt lat="43.067525" lon="12.6153483"><ele>365.20000000000005</ele><time>2026-04-18T13:59:15.976Z</time></trkpt><trkpt lat="43.0675833" lon="12.6152617"><ele>363.4</ele><time>2026-04-18T13:59:16.976Z</time></trkpt><trkpt lat="43.0676583" lon="12.6151833"><ele>361.6</ele><time>2026-04-18T13:59:17.976Z</time></trkpt><trkpt lat="43.0677517" lon="12.6151167"><ele>359.79999999999995</ele><time>2026-04-18T13:59:18.976Z</time></trkpt><trkpt lat="43.0678517" lon="12.6150667"><ele>358.0</ele><time>2026-04-18T13:59:19.976Z</time></trkpt><trkpt lat="43.0679533" lon="12.615025"><ele>358.0</ele><time>2026-04-18T13:59:20.976Z</time></trkpt><trkpt lat="43.0680517" lon="12.6149933"><ele>358.0</ele><time>2026-04-18T13:59:21.976Z</time></trkpt><trkpt lat="43.0681467" lon="12.614955"><ele>358.0</ele><time>2026-04-18T13:59:22.976Z</time></trkpt><trkpt lat="43.0682383" lon="12.6149283"><ele>358.0</ele><time>2026-04-18T13:59:23.976Z</time></trkpt><trkpt lat="43.06832" lon="12.6148967"><ele>358.0</ele><time>2026-04-18T13:59:24.976Z</time></trkpt><trkpt lat="43.068405" lon="12.6148517"><ele>357.5</ele><time>2026-04-18T13:59:25.976Z</time></trkpt><trkpt lat="43.06847" lon="12.6147867"><ele>357.0</ele><time>2026-04-18T13:59:26.976Z</time></trkpt><trkpt lat="43.0685233" lon="12.614705"><ele>356.5</ele><time>2026-04-18T13:59:27.976Z</time></trkpt><trkpt lat="43.0685633" lon="12.6145983"><ele>356.0</ele><time>2026-04-18T13:59:28.976Z</time></trkpt><trkpt lat="43.0685883" lon="12.6144883"><ele>355.5</ele><time>2026-04-18T13:59:29.976Z</time></trkpt><trkpt lat="43.0685867" lon="12.6143633"><ele>355.0</ele><time>2026-04-18T13:59:30.976Z</time></trkpt><trkpt lat="43.0685517" lon="12.614245"><ele>355.0</ele><time>2026-04-18T13:59:31.976Z</time></trkpt><trkpt lat="43.0684933" lon="12.6141233"><ele>355.0</ele><time>2026-04-18T13:59:32.976Z</time></trkpt><trkpt lat="43.0684283" lon="12.6140133"><ele>355.0</ele><time>2026-04-18T13:59:33.976Z</time></trkpt><trkpt lat="43.0683667" lon="12.6139033"><ele>355.0</ele><time>2026-04-18T13:59:34.976Z</time></trkpt><trkpt lat="43.06831" lon="12.6137917"><ele>355.0</ele><time>2026-04-18T13:59:35.976Z</time></trkpt><trkpt lat="43.06825" lon="12.6136867"><ele>351.8333333333333</ele><time>2026-04-18T13:59:36.976Z</time></trkpt><trkpt lat="43.0681867" lon="12.6135933"><ele>348.66666666666663</ele><time>2026-04-18T13:59:37.976Z</time></trkpt><trkpt lat="43.06812" lon="12.61351"><ele>345.5</ele><time>2026-04-18T13:59:38.976Z</time></trkpt><trkpt lat="43.06806" lon="12.6134383"><ele>342.3333333333333</ele><time>2026-04-18T13:59:39.976Z</time></trkpt><trkpt lat="43.0680067" lon="12.613385"><ele>339.1666666666667</ele><time>2026-04-18T13:59:40.976Z</time></trkpt><trkpt lat="43.067945" lon="12.6132933"><ele>336.0</ele><time>2026-04-18T13:59:42.976Z</time></trkpt><trkpt lat="43.0678967" lon="12.61319"><ele>336.0</ele><time>2026-04-18T13:59:45.976Z</time></trkpt><trkpt lat="43.0678683" lon="12.6131033"><ele>336.0</ele><time>2026-04-18T13:59:48.976Z</time></trkpt><trkpt lat="43.0678183" lon="12.61299"><ele>336.0</ele><time>2026-04-18T13:59:51.976Z</time></trkpt><trkpt lat="43.0677867" lon="12.612885"><ele>336.0</ele><time>2026-04-18T13:59:53.976Z</time></trkpt><trkpt lat="43.0677717" lon="12.6127483"><ele>336.0</ele><time>2026-04-18T13:59:55.976Z</time></trkpt><trkpt lat="43.0677733" lon="12.6126283"><ele>336.0</ele><time>2026-04-18T13:59:57.976Z</time></trkpt><trkpt lat="43.06779" lon="12.6125333"><ele>336.0</ele><time>2026-04-18T13:59:59.975Z</time></trkpt><trkpt lat="43.0678283" lon="12.6124467"><ele>336.0</ele><time>2026-04-18T14:00:03.976Z</time></trkpt><trkpt lat="43.0678583" lon="12.6123583"><ele>336.0</ele><time>2026-04-18T14:00:07.976Z</time></trkpt><trkpt lat="43.0679133" lon="12.6122633"><ele>336.0</ele><time>2026-04-18T14:00:11.976Z</time></trkpt><trkpt lat="43.0679683" lon="12.61219"><ele>336.0</ele><time>2026-04-18T14:00:14.976Z</time></trkpt><trkpt lat="43.0680083" lon="12.612115"><ele>336.0</ele><time>2026-04-18T14:00:17.976Z</time></trkpt><trkpt lat="43.0680633" lon="12.6120267"><ele>336.6666666666667</ele><time>2026-04-18T14:00:20.976Z</time></trkpt><trkpt lat="43.0681167" lon="12.6119417"><ele>337.3333333333333</ele><time>2026-04-18T14:00:23.976Z</time></trkpt><trkpt lat="43.0681667" lon="12.6118633"><ele>338.0</ele><time>2026-04-18T14:00:25.976Z</time></trkpt><trkpt lat="43.068225" lon="12.6117717"><ele>338.66666666666663</ele><time>2026-04-18T14:00:27.976Z</time></trkpt><trkpt lat="43.0682983" lon="12.6116717"><ele>339.3333333333333</ele><time>2026-04-18T14:00:29.976Z</time></trkpt><trkpt lat="43.0683433" lon="12.61161"><ele>340.0</ele><time>2026-04-18T14:00:30.976Z</time></trkpt><trkpt lat="43.0683967" lon="12.6115333"><ele>340.0</ele><time>2026-04-18T14:00:31.976Z</time></trkpt><trkpt lat="43.06845" lon="12.6114483"><ele>340.0</ele><time>2026-04-18T14:00:32.976Z</time></trkpt><trkpt lat="43.0685" lon="12.6113833"><ele>340.0</ele><time>2026-04-18T14:00:33.976Z</time></trkpt><trkpt lat="43.0685567" lon="12.6113183"><ele>340.0</ele><time>2026-04-18T14:00:34.976Z</time></trkpt><trkpt lat="43.0686133" lon="12.6112433"><ele>340.0</ele><time>2026-04-18T14:00:35.976Z</time></trkpt><trkpt lat="43.0686767" lon="12.611175"><ele>340.0</ele><time>2026-04-18T14:00:36.976Z</time></trkpt><trkpt lat="43.0687517" lon="12.6111167"><ele>338.2</ele><time>2026-04-18T14:00:37.976Z</time></trkpt><trkpt lat="43.0688383" lon="12.611055"><ele>336.4</ele><time>2026-04-18T14:00:38.976Z</time></trkpt><trkpt lat="43.0689267" lon="12.61102"><ele>334.6</ele><time>2026-04-18T14:00:39.976Z</time></trkpt><trkpt lat="43.06903" lon="12.6109933"><ele>332.8</ele><time>2026-04-18T14:00:40.976Z</time></trkpt><trkpt lat="43.0691367" lon="12.610975"><ele>331.0</ele><time>2026-04-18T14:00:41.976Z</time></trkpt><trkpt lat="43.0692467" lon="12.61097"><ele>331.0</ele><time>2026-04-18T14:00:42.976Z</time></trkpt><trkpt lat="43.0693483" lon="12.610965"><ele>331.0</ele><time>2026-04-18T14:00:43.976Z</time></trkpt><trkpt lat="43.0694433" lon="12.61095"><ele>331.0</ele><time>2026-04-18T14:00:44.976Z</time></trkpt><trkpt lat="43.0695367" lon="12.6109267"><ele>331.0</ele><time>2026-04-18T14:00:45.976Z</time></trkpt><trkpt lat="43.06962" lon="12.61089"><ele>331.0</ele><time>2026-04-18T14:00:46.976Z</time></trkpt><trkpt lat="43.0696917" lon="12.6108333"><ele>331.0</ele><time>2026-04-18T14:00:47.976Z</time></trkpt><trkpt lat="43.0697567" lon="12.6107617"><ele>331.0</ele><time>2026-04-18T14:00:48.976Z</time></trkpt><trkpt lat="43.06981" lon="12.6106833"><ele>331.0</ele><time>2026-04-18T14:00:49.976Z</time></trkpt><trkpt lat="43.06987" lon="12.6105917"><ele>331.0</ele><time>2026-04-18T14:00:50.976Z</time></trkpt><trkpt lat="43.06993" lon="12.6105"><ele>331.0</ele><time>2026-04-18T14:00:51.976Z</time></trkpt><trkpt lat="43.0699883" lon="12.6104"><ele>331.0</ele><time>2026-04-18T14:00:52.976Z</time></trkpt><trkpt lat="43.0700517" lon="12.6102983"><ele>330.4</ele><time>2026-04-18T14:00:53.976Z</time></trkpt><trkpt lat="43.0701133" lon="12.6101983"><ele>329.8</ele><time>2026-04-18T14:00:54.976Z</time></trkpt><trkpt lat="43.0701667" lon="12.610095"><ele>329.2</ele><time>2026-04-18T14:00:55.976Z</time></trkpt><trkpt lat="43.0702117" lon="12.6099883"><ele>328.59999999999997</ele><time>2026-04-18T14:00:56.976Z</time></trkpt><trkpt lat="43.070255" lon="12.60987"><ele>328.0</ele><time>2026-04-18T14:00:57.976Z</time></trkpt><trkpt lat="43.070295" lon="12.60975"><ele>328.0</ele><time>2026-04-18T14:00:58.976Z</time></trkpt><trkpt lat="43.0703317" lon="12.6096367"><ele>328.0</ele><time>2026-04-18T14:00:59.976Z</time></trkpt><trkpt lat="43.070365" lon="12.6095183"><ele>328.0</ele><time>2026-04-18T14:01:00.976Z</time></trkpt><trkpt lat="43.0703983" lon="12.609415"><ele>328.0</ele><time>2026-04-18T14:01:01.976Z</time></trkpt><trkpt lat="43.0704317" lon="12.6093083"><ele>328.0</ele><time>2026-04-18T14:01:02.976Z</time></trkpt><trkpt lat="43.07047" lon="12.6092133"><ele>328.0</ele><time>2026-04-18T14:01:03.976Z</time></trkpt><trkpt lat="43.0705167" lon="12.6091267"><ele>326.59999999999997</ele><time>2026-04-18T14:01:04.976Z</time></trkpt><trkpt lat="43.0705667" lon="12.609055"><ele>325.2</ele><time>2026-04-18T14:01:05.976Z</time></trkpt><trkpt lat="43.0706367" lon="12.6089283"><ele>323.8</ele><time>2026-04-18T14:01:07.976Z</time></trkpt><trkpt lat="43.0707017" lon="12.6088283"><ele>322.4</ele><time>2026-04-18T14:01:09.976Z</time></trkpt><trkpt lat="43.0707683" lon="12.60873"><ele>321.0</ele><time>2026-04-18T14:01:11.976Z</time></trkpt><trkpt lat="43.0708183" lon="12.6086517"><ele>321.0</ele><time>2026-04-18T14:01:13.976Z</time></trkpt><trkpt lat="43.0708567" lon="12.6085683"><ele>321.0</ele><time>2026-04-18T14:01:17.976Z</time></trkpt><trkpt lat="43.070875" lon="12.6084567"><ele>321.0</ele><time>2026-04-18T14:01:19.976Z</time></trkpt><trkpt lat="43.070905" lon="12.60835"><ele>321.0</ele><time>2026-04-18T14:01:21.976Z</time></trkpt><trkpt lat="43.0709217" lon="12.6082267"><ele>321.0</ele><time>2026-04-18T14:01:23.976Z</time></trkpt><trkpt lat="43.0708583" lon="12.6081817"><ele>321.0</ele><time>2026-04-18T14:01:25.975Z</time></trkpt><trkpt lat="43.0707383" lon="12.60823"><ele>319.40000000000003</ele><time>2026-04-18T14:01:27.976Z</time></trkpt><trkpt lat="43.0706717" lon="12.6082817"><ele>317.8</ele><time>2026-04-18T14:01:28.976Z</time></trkpt><trkpt lat="43.0705917" lon="12.60834"><ele>316.20000000000005</ele><time>2026-04-18T14:01:29.976Z</time></trkpt><trkpt lat="43.0705" lon="12.6084067"><ele>314.6</ele><time>2026-04-18T14:01:30.976Z</time></trkpt><trkpt lat="43.0704067" lon="12.6084767"><ele>313.0</ele><time>2026-04-18T14:01:31.976Z</time></trkpt><trkpt lat="43.070315" lon="12.608545"><ele>313.0</ele><time>2026-04-18T14:01:32.976Z</time></trkpt><trkpt lat="43.0702233" lon="12.608615"><ele>313.0</ele><time>2026-04-18T14:01:33.976Z</time></trkpt><trkpt lat="43.0701317" lon="12.6086767"><ele>313.0</ele><time>2026-04-18T14:01:34.976Z</time></trkpt><trkpt lat="43.0700417" lon="12.6087333"><ele>313.0</ele><time>2026-04-18T14:01:35.976Z</time></trkpt><trkpt lat="43.0699467" lon="12.608775"><ele>313.0</ele><time>2026-04-18T14:01:36.976Z</time></trkpt><trkpt lat="43.0698567" lon="12.60877"><ele>311.6</ele><time>2026-04-18T14:01:37.976Z</time></trkpt><trkpt lat="43.069775" lon="12.6087233"><ele>310.20000000000005</ele><time>2026-04-18T14:01:38.976Z</time></trkpt><trkpt lat="43.0697117" lon="12.6086567"><ele>308.8</ele><time>2026-04-18T14:01:39.976Z</time></trkpt><trkpt lat="43.0696683" lon="12.6085583"><ele>307.40000000000003</ele><time>2026-04-18T14:01:40.976Z</time></trkpt><trkpt lat="43.0696517" lon="12.608415"><ele>306.0</ele><time>2026-04-18T14:01:41.976Z</time></trkpt><trkpt lat="43.06964" lon="12.60826"><ele>303.75</ele><time>2026-04-18T14:01:42.976Z</time></trkpt><trkpt lat="43.0696267" lon="12.608105"><ele>301.5</ele><time>2026-04-18T14:01:43.976Z</time></trkpt><trkpt lat="43.0696117" lon="12.6079417"><ele>299.25</ele><time>2026-04-18T14:01:44.976Z</time></trkpt><trkpt lat="43.0695967" lon="12.6077817"><ele>297.0</ele><time>2026-04-18T14:01:45.976Z</time></trkpt><trkpt lat="43.0695817" lon="12.60763"><ele>296.6</ele><time>2026-04-18T14:01:46.976Z</time></trkpt><trkpt lat="43.0695617" lon="12.6074883"><ele>296.2</ele><time>2026-04-18T14:01:47.976Z</time></trkpt><trkpt lat="43.06954" lon="12.60735"><ele>295.8</ele><time>2026-04-18T14:01:48.976Z</time></trkpt><trkpt lat="43.0695283" lon="12.6072067"><ele>295.4</ele><time>2026-04-18T14:01:49.976Z</time></trkpt><trkpt lat="43.06953" lon="12.6070633"><ele>295.0</ele><time>2026-04-18T14:01:50.976Z</time></trkpt><trkpt lat="43.069555" lon="12.60692"><ele>294.5</ele><time>2026-04-18T14:01:51.976Z</time></trkpt><trkpt lat="43.0695967" lon="12.6067833"><ele>294.0</ele><time>2026-04-18T14:01:52.976Z</time></trkpt><trkpt lat="43.0696617" lon="12.6066483"><ele>293.5</ele><time>2026-04-18T14:01:53.976Z</time></trkpt><trkpt lat="43.0697417" lon="12.60653"><ele>293.0</ele><time>2026-04-18T14:01:54.976Z</time></trkpt><trkpt lat="43.0698217" lon="12.6064183"><ele>293.0</ele><time>2026-04-18T14:01:55.976Z</time></trkpt><trkpt lat="43.0698867" lon="12.60631"><ele>293.0</ele><time>2026-04-18T14:01:56.976Z</time></trkpt><trkpt lat="43.069955" lon="12.60622"><ele>293.0</ele><time>2026-04-18T14:01:57.976Z</time></trkpt><trkpt lat="43.0700117" lon="12.6061367"><ele>293.0</ele><time>2026-04-18T14:01:58.976Z</time></trkpt><trkpt lat="43.07007" lon="12.6060667"><ele>293.0</ele><time>2026-04-18T14:01:59.976Z</time></trkpt><trkpt lat="43.0701383" lon="12.6059467"><ele>292.8</ele><time>2026-04-18T14:02:01.976Z</time></trkpt><trkpt lat="43.07021" lon="12.6058783"><ele>292.6</ele><time>2026-04-18T14:02:03.976Z</time></trkpt><trkpt lat="43.0702733" lon="12.6058033"><ele>292.4</ele><time>2026-04-18T14:02:05.975Z</time></trkpt><trkpt lat="43.0703467" lon="12.6057133"><ele>292.2</ele><time>2026-04-18T14:02:07.975Z</time></trkpt><trkpt lat="43.070425" lon="12.6056183"><ele>292.0</ele><time>2026-04-18T14:02:09.975Z</time></trkpt><trkpt lat="43.0705033" lon="12.6055333"><ele>292.0</ele><time>2026-04-18T14:02:11.975Z</time></trkpt><trkpt lat="43.070595" lon="12.60544"><ele>292.0</ele><time>2026-04-18T14:02:13.975Z</time></trkpt><trkpt lat="43.0706483" lon="12.6053917"><ele>292.0</ele><time>2026-04-18T14:02:14.975Z</time></trkpt><trkpt lat="43.0707067" lon="12.6053333"><ele>292.0</ele><time>2026-04-18T14:02:15.975Z</time></trkpt><trkpt lat="43.0707733" lon="12.6052783"><ele>292.0</ele><time>2026-04-18T14:02:16.975Z</time></trkpt><trkpt lat="43.0708467" lon="12.60522"><ele>292.0</ele><time>2026-04-18T14:02:17.975Z</time></trkpt><trkpt lat="43.0709267" lon="12.6051633"><ele>291.0</ele><time>2026-04-18T14:02:18.975Z</time></trkpt><trkpt lat="43.0710167" lon="12.6051133"><ele>290.0</ele><time>2026-04-18T14:02:19.975Z</time></trkpt><trkpt lat="43.0711067" lon="12.60506"><ele>289.0</ele><time>2026-04-18T14:02:20.975Z</time></trkpt><trkpt lat="43.0712067" lon="12.60501"><ele>288.0</ele><time>2026-04-18T14:02:21.975Z</time></trkpt><trkpt lat="43.0713067" lon="12.60496"><ele>287.0</ele><time>2026-04-18T14:02:22.975Z</time></trkpt><trkpt lat="43.071415" lon="12.60491"><ele>287.0</ele><time>2026-04-18T14:02:23.975Z</time></trkpt><trkpt lat="43.0715233" lon="12.60486"><ele>287.0</ele><time>2026-04-18T14:02:24.975Z</time></trkpt><trkpt lat="43.0716333" lon="12.6048083"><ele>287.0</ele><time>2026-04-18T14:02:25.975Z</time></trkpt><trkpt lat="43.0717483" lon="12.6047517"><ele>287.0</ele><time>2026-04-18T14:02:26.975Z</time></trkpt><trkpt lat="43.0718567" lon="12.6046983"><ele>287.25</ele><time>2026-04-18T14:02:27.975Z</time></trkpt><trkpt lat="43.071965" lon="12.6046417"><ele>287.5</ele><time>2026-04-18T14:02:28.975Z</time></trkpt><trkpt lat="43.072075" lon="12.6046"><ele>287.75</ele><time>2026-04-18T14:02:29.975Z</time></trkpt><trkpt lat="43.0721867" lon="12.6045633"><ele>288.0</ele><time>2026-04-18T14:02:30.975Z</time></trkpt><trkpt lat="43.0722933" lon="12.604525"><ele>285.6</ele><time>2026-04-18T14:02:31.975Z</time></trkpt><trkpt lat="43.0724033" lon="12.60448"><ele>283.20000000000005</ele><time>2026-04-18T14:02:32.975Z</time></trkpt><trkpt lat="43.0725" lon="12.6044383"><ele>280.8</ele><time>2026-04-18T14:02:33.975Z</time></trkpt><trkpt lat="43.072595" lon="12.60439"><ele>278.40000000000003</ele><time>2026-04-18T14:02:34.975Z</time></trkpt><trkpt lat="43.0726883" lon="12.6043317"><ele>276.0</ele><time>2026-04-18T14:02:35.975Z</time></trkpt><trkpt lat="43.072775" lon="12.60427"><ele>276.0</ele><time>2026-04-18T14:02:36.975Z</time></trkpt><trkpt lat="43.07286" lon="12.6042133"><ele>276.0</ele><time>2026-04-18T14:02:37.975Z</time></trkpt><trkpt lat="43.0729333" lon="12.604155"><ele>276.0</ele><time>2026-04-18T14:02:38.975Z</time></trkpt><trkpt lat="43.0729967" lon="12.6041017"><ele>276.0</ele><time>2026-04-18T14:02:39.975Z</time></trkpt><trkpt lat="43.07306" lon="12.6040633"><ele>276.0</ele><time>2026-04-18T14:02:40.975Z</time></trkpt><trkpt lat="43.07313" lon="12.6040383"><ele>276.0</ele><time>2026-04-18T14:02:41.975Z</time></trkpt><trkpt lat="43.0732" lon="12.6040183"><ele>276.0</ele><time>2026-04-18T14:02:42.975Z</time></trkpt><trkpt lat="43.07327" lon="12.6039783"><ele>276.0</ele><time>2026-04-18T14:02:43.975Z</time></trkpt><trkpt lat="43.0733383" lon="12.6039317"><ele>276.0</ele><time>2026-04-18T14:02:44.975Z</time></trkpt><trkpt lat="43.0734083" lon="12.6038783"><ele>276.0</ele><time>2026-04-18T14:02:45.975Z</time></trkpt><trkpt lat="43.0734867" lon="12.6038233"><ele>276.0</ele><time>2026-04-18T14:02:46.975Z</time></trkpt><trkpt lat="43.07357" lon="12.6037567"><ele>276.0</ele><time>2026-04-18T14:02:47.975Z</time></trkpt><trkpt lat="43.073655" lon="12.6036683"><ele>273.40000000000003</ele><time>2026-04-18T14:02:48.975Z</time></trkpt><trkpt lat="43.0737383" lon="12.60356"><ele>270.8</ele><time>2026-04-18T14:02:49.975Z</time></trkpt><trkpt lat="43.0738117" lon="12.60346"><ele>268.20000000000005</ele><time>2026-04-18T14:02:50.975Z</time></trkpt><trkpt lat="43.073885" lon="12.603365"><ele>265.6</ele><time>2026-04-18T14:02:51.975Z</time></trkpt><trkpt lat="43.0739617" lon="12.6032767"><ele>263.0</ele><time>2026-04-18T14:02:52.975Z</time></trkpt><trkpt lat="43.0740417" lon="12.6032133"><ele>264.7142857142857</ele><time>2026-04-18T14:02:53.975Z</time></trkpt><trkpt lat="43.0741117" lon="12.60316"><ele>266.4285714285714</ele><time>2026-04-18T14:02:54.975Z</time></trkpt><trkpt lat="43.0741767" lon="12.60311"><ele>268.1428571428571</ele><time>2026-04-18T14:02:55.975Z</time></trkpt><trkpt lat="43.0742417" lon="12.603055"><ele>269.85714285714283</ele><time>2026-04-18T14:02:56.975Z</time></trkpt><trkpt lat="43.0743033" lon="12.6030067"><ele>271.57142857142856</ele><time>2026-04-18T14:02:57.975Z</time></trkpt><trkpt lat="43.0743633" lon="12.6029533"><ele>273.2857142857143</ele><time>2026-04-18T14:02:58.975Z</time></trkpt><trkpt lat="43.0744267" lon="12.6029"><ele>275.0</ele><time>2026-04-18T14:02:59.975Z</time></trkpt><trkpt lat="43.074495" lon="12.6028367"><ele>271.6</ele><time>2026-04-18T14:03:00.975Z</time></trkpt><trkpt lat="43.0745683" lon="12.6027667"><ele>268.2</ele><time>2026-04-18T14:03:01.975Z</time></trkpt><trkpt lat="43.0746533" lon="12.6026867"><ele>264.8</ele><time>2026-04-18T14:03:02.975Z</time></trkpt><trkpt lat="43.0747333" lon="12.6025983"><ele>261.4</ele><time>2026-04-18T14:03:03.975Z</time></trkpt><trkpt lat="43.0748133" lon="12.6025067"><ele>258.0</ele><time>2026-04-18T14:03:04.975Z</time></trkpt><trkpt lat="43.0748967" lon="12.602425"><ele>260.25</ele><time>2026-04-18T14:03:05.975Z</time></trkpt><trkpt lat="43.0749933" lon="12.6023517"><ele>262.5</ele><time>2026-04-18T14:03:06.975Z</time></trkpt><trkpt lat="43.075105" lon="12.6022717"><ele>264.75</ele><time>2026-04-18T14:03:07.975Z</time></trkpt><trkpt lat="43.0752217" lon="12.6021967"><ele>267.0</ele><time>2026-04-18T14:03:08.975Z</time></trkpt><trkpt lat="43.0753383" lon="12.6021267"><ele>267.0</ele><time>2026-04-18T14:03:09.975Z</time></trkpt><trkpt lat="43.0754483" lon="12.602065"><ele>267.0</ele><time>2026-04-18T14:03:10.975Z</time></trkpt><trkpt lat="43.0755483" lon="12.6020083"><ele>267.0</ele><time>2026-04-18T14:03:11.975Z</time></trkpt><trkpt lat="43.07565" lon="12.60195"><ele>267.0</ele><time>2026-04-18T14:03:12.975Z</time></trkpt><trkpt lat="43.0757517" lon="12.6018967"><ele>267.0</ele><time>2026-04-18T14:03:13.975Z</time></trkpt><trkpt lat="43.0758617" lon="12.6018317"><ele>265.2</ele><time>2026-04-18T14:03:14.975Z</time></trkpt><trkpt lat="43.0759683" lon="12.6017683"><ele>263.4</ele><time>2026-04-18T14:03:15.975Z</time></trkpt><trkpt lat="43.0760633" lon="12.6017133"><ele>261.6</ele><time>2026-04-18T14:03:16.975Z</time></trkpt><trkpt lat="43.0761583" lon="12.6016583"><ele>259.8</ele><time>2026-04-18T14:03:17.975Z</time></trkpt><trkpt lat="43.0762483" lon="12.6016033"><ele>258.0</ele><time>2026-04-18T14:03:18.975Z</time></trkpt><trkpt lat="43.0763317" lon="12.6015583"><ele>258.0</ele><time>2026-04-18T14:03:19.975Z</time></trkpt><trkpt lat="43.0764017" lon="12.6015083"><ele>258.0</ele><time>2026-04-18T14:03:20.975Z</time></trkpt><trkpt lat="43.07646" lon="12.601455"><ele>258.0</ele><time>2026-04-18T14:03:21.975Z</time></trkpt><trkpt lat="43.076495" lon="12.6013667"><ele>258.0</ele><time>2026-04-18T14:03:23.975Z</time></trkpt><trkpt lat="43.0764283" lon="12.6013183"><ele>258.0</ele><time>2026-04-18T14:03:25.975Z</time></trkpt><trkpt lat="43.0763033" lon="12.6012917"><ele>258.0</ele><time>2026-04-18T14:03:27.975Z</time></trkpt><trkpt lat="43.07623" lon="12.601285"><ele>258.0</ele><time>2026-04-18T14:03:28.975Z</time></trkpt><trkpt lat="43.076155" lon="12.60128"><ele>258.0</ele><time>2026-04-18T14:03:29.975Z</time></trkpt><trkpt lat="43.07607" lon="12.6012783"><ele>258.0</ele><time>2026-04-18T14:03:30.975Z</time></trkpt><trkpt lat="43.07596" lon="12.601265"><ele>258.0</ele><time>2026-04-18T14:03:31.975Z</time></trkpt><trkpt lat="43.0758417" lon="12.6012483"><ele>258.0</ele><time>2026-04-18T14:03:32.975Z</time></trkpt><trkpt lat="43.0757217" lon="12.60124"><ele>256.8</ele><time>2026-04-18T14:03:33.975Z</time></trkpt><trkpt lat="43.0755983" lon="12.6012333"><ele>255.60000000000002</ele><time>2026-04-18T14:03:34.975Z</time></trkpt><trkpt lat="43.0754833" lon="12.6012317"><ele>254.39999999999998</ele><time>2026-04-18T14:03:35.975Z</time></trkpt><trkpt lat="43.0753767" lon="12.6012217"><ele>253.2</ele><time>2026-04-18T14:03:36.975Z</time></trkpt><trkpt lat="43.0752833" lon="12.6012083"><ele>252.0</ele><time>2026-04-18T14:03:37.975Z</time></trkpt><trkpt lat="43.07518" lon="12.6011983"><ele>252.0</ele><time>2026-04-18T14:03:38.975Z</time></trkpt><trkpt lat="43.0750867" lon="12.601185"><ele>252.0</ele><time>2026-04-18T14:03:39.975Z</time></trkpt><trkpt lat="43.074995" lon="12.6011917"><ele>252.0</ele><time>2026-04-18T14:03:40.975Z</time></trkpt><trkpt lat="43.074895" lon="12.601195"><ele>252.0</ele><time>2026-04-18T14:03:41.975Z</time></trkpt><trkpt lat="43.0748017" lon="12.6011967"><ele>252.0</ele><time>2026-04-18T14:03:42.975Z</time></trkpt><trkpt lat="43.07471" lon="12.6011867"><ele>252.0</ele><time>2026-04-18T14:03:43.975Z</time></trkpt><trkpt lat="43.0746083" lon="12.6011767"><ele>252.0</ele><time>2026-04-18T14:03:44.975Z</time></trkpt><trkpt lat="43.0745083" lon="12.6011733"><ele>252.0</ele><time>2026-04-18T14:03:45.975Z</time></trkpt><trkpt lat="43.0744167" lon="12.6011733"><ele>252.0</ele><time>2026-04-18T14:03:46.975Z</time></trkpt><trkpt lat="43.0743233" lon="12.60117"><ele>252.0</ele><time>2026-04-18T14:03:47.975Z</time></trkpt><trkpt lat="43.0742267" lon="12.6011667"><ele>251.6</ele><time>2026-04-18T14:03:48.975Z</time></trkpt><trkpt lat="43.0741333" lon="12.6011633"><ele>251.2</ele><time>2026-04-18T14:03:49.975Z</time></trkpt><trkpt lat="43.07404" lon="12.6011633"><ele>250.8</ele><time>2026-04-18T14:03:50.975Z</time></trkpt><trkpt lat="43.073945" lon="12.6011617"><ele>250.4</ele><time>2026-04-18T14:03:51.975Z</time></trkpt><trkpt lat="43.0738533" lon="12.6011617"><ele>250.0</ele><time>2026-04-18T14:03:52.975Z</time></trkpt><trkpt lat="43.07377" lon="12.60116"><ele>250.33333333333331</ele><time>2026-04-18T14:03:53.975Z</time></trkpt><trkpt lat="43.073685" lon="12.6011683"><ele>250.66666666666666</ele><time>2026-04-18T14:03:54.975Z</time></trkpt><trkpt lat="43.073605" lon="12.60118"><ele>251.0</ele><time>2026-04-18T14:03:55.975Z</time></trkpt><trkpt lat="43.0735283" lon="12.6011883"><ele>251.33333333333331</ele><time>2026-04-18T14:03:56.975Z</time></trkpt><trkpt lat="43.0734533" lon="12.60119"><ele>251.66666666666666</ele><time>2026-04-18T14:03:57.975Z</time></trkpt><trkpt lat="43.073385" lon="12.6011967"><ele>252.0</ele><time>2026-04-18T14:03:58.975Z</time></trkpt><trkpt lat="43.0732633" lon="12.6012517"><ele>252.0</ele><time>2026-04-18T14:04:00.975Z</time></trkpt><trkpt lat="43.0732033" lon="12.6013"><ele>252.0</ele><time>2026-04-18T14:04:01.975Z</time></trkpt><trkpt lat="43.07315" lon="12.6013533"><ele>252.0</ele><time>2026-04-18T14:04:02.975Z</time></trkpt><trkpt lat="43.0730583" lon="12.601415"><ele>252.0</ele><time>2026-04-18T14:04:04.975Z</time></trkpt><trkpt lat="43.072985" lon="12.6014133"><ele>252.0</ele><time>2026-04-18T14:04:06.975Z</time></trkpt><trkpt lat="43.07295" lon="12.601335"><ele>252.0</ele><time>2026-04-18T14:04:08.975Z</time></trkpt><trkpt lat="43.0729633" lon="12.6011833"><ele>251.33333333333334</ele><time>2026-04-18T14:04:10.975Z</time></trkpt><trkpt lat="43.0729767" lon="12.6010933"><ele>250.66666666666669</ele><time>2026-04-18T14:04:11.975Z</time></trkpt><trkpt lat="43.072985" lon="12.600995"><ele>250.0</ele><time>2026-04-18T14:04:12.975Z</time></trkpt><trkpt lat="43.0729833" lon="12.6008917"><ele>249.33333333333334</ele><time>2026-04-18T14:04:13.975Z</time></trkpt><trkpt lat="43.07297" lon="12.6007783"><ele>248.66666666666669</ele><time>2026-04-18T14:04:14.975Z</time></trkpt><trkpt lat="43.0729617" lon="12.6006633"><ele>248.0</ele><time>2026-04-18T14:04:15.975Z</time></trkpt><trkpt lat="43.07295" lon="12.6005517"><ele>248.00000000000003</ele><time>2026-04-18T14:04:16.975Z</time></trkpt><trkpt lat="43.0729417" lon="12.60044"><ele>248.0</ele><time>2026-04-18T14:04:17.975Z</time></trkpt><trkpt lat="43.0729367" lon="12.600325"><ele>248.0</ele><time>2026-04-18T14:04:18.975Z</time></trkpt><trkpt lat="43.0729283" lon="12.6002133"><ele>248.0</ele><time>2026-04-18T14:04:19.975Z</time></trkpt><trkpt lat="43.07292" lon="12.6001"><ele>248.00000000000003</ele><time>2026-04-18T14:04:20.975Z</time></trkpt><trkpt lat="43.0729133" lon="12.5999883"><ele>248.0</ele><time>2026-04-18T14:04:21.975Z</time></trkpt><trkpt lat="43.0728983" lon="12.5998683"><ele>247.75</ele><time>2026-04-18T14:04:22.975Z</time></trkpt><trkpt lat="43.07287" lon="12.5997383"><ele>247.5</ele><time>2026-04-18T14:04:23.975Z</time></trkpt><trkpt lat="43.0728233" lon="12.5995833"><ele>247.25</ele><time>2026-04-18T14:04:24.975Z</time></trkpt><trkpt lat="43.072765" lon="12.5994017"><ele>247.0</ele><time>2026-04-18T14:04:25.975Z</time></trkpt><trkpt lat="43.0727033" lon="12.59922"><ele>246.66666666666666</ele><time>2026-04-18T14:04:26.975Z</time></trkpt><trkpt lat="43.072645" lon="12.5990117"><ele>246.33333333333331</ele><time>2026-04-18T14:04:27.975Z</time></trkpt><trkpt lat="43.0725867" lon="12.598795"><ele>246.0</ele><time>2026-04-18T14:04:28.975Z</time></trkpt><trkpt lat="43.072535" lon="12.59858"><ele>246.25</ele><time>2026-04-18T14:04:29.975Z</time></trkpt><trkpt lat="43.0724783" lon="12.5983817"><ele>246.5</ele><time>2026-04-18T14:04:30.975Z</time></trkpt><trkpt lat="43.072425" lon="12.598195"><ele>246.75</ele><time>2026-04-18T14:04:31.975Z</time></trkpt><trkpt lat="43.0723717" lon="12.598015"><ele>247.0</ele><time>2026-04-18T14:04:32.975Z</time></trkpt><trkpt lat="43.0723233" lon="12.5978467"><ele>246.0</ele><time>2026-04-18T14:04:33.975Z</time></trkpt><trkpt lat="43.0722683" lon="12.59769"><ele>245.0</ele><time>2026-04-18T14:04:34.975Z</time></trkpt><trkpt lat="43.072215" lon="12.5975333"><ele>244.0</ele><time>2026-04-18T14:04:35.975Z</time></trkpt><trkpt lat="43.072165" lon="12.59737"><ele>243.0</ele><time>2026-04-18T14:04:36.975Z</time></trkpt><trkpt lat="43.0721167" lon="12.5972167"><ele>243.0</ele><time>2026-04-18T14:04:37.975Z</time></trkpt><trkpt lat="43.07206" lon="12.5970717"><ele>243.0</ele><time>2026-04-18T14:04:38.975Z</time></trkpt><trkpt lat="43.0719967" lon="12.5969333"><ele>243.0</ele><time>2026-04-18T14:04:39.975Z</time></trkpt><trkpt lat="43.071925" lon="12.5967967"><ele>243.0</ele><time>2026-04-18T14:04:40.975Z</time></trkpt><trkpt lat="43.07186" lon="12.5966433"><ele>242.75</ele><time>2026-04-18T14:04:41.975Z</time></trkpt><trkpt lat="43.0718" lon="12.5964733"><ele>242.5</ele><time>2026-04-18T14:04:42.975Z</time></trkpt><trkpt lat="43.0717433" lon="12.5963"><ele>242.25</ele><time>2026-04-18T14:04:43.975Z</time></trkpt><trkpt lat="43.0716933" lon="12.5961367"><ele>242.0</ele><time>2026-04-18T14:04:44.975Z</time></trkpt><trkpt lat="43.07165" lon="12.5959783"><ele>242.6</ele><time>2026-04-18T14:04:45.975Z</time></trkpt><trkpt lat="43.071605" lon="12.5958267"><ele>243.2</ele><time>2026-04-18T14:04:46.975Z</time></trkpt><trkpt lat="43.07156" lon="12.5956967"><ele>243.8</ele><time>2026-04-18T14:04:47.975Z</time></trkpt><trkpt lat="43.07151" lon="12.5955733"><ele>244.4</ele><time>2026-04-18T14:04:48.975Z</time></trkpt><trkpt lat="43.0714583" lon="12.5954683"><ele>245.0</ele><time>2026-04-18T14:04:49.975Z</time></trkpt><trkpt lat="43.0714" lon="12.5953767"><ele>244.50000000000003</ele><time>2026-04-18T14:04:50.975Z</time></trkpt><trkpt lat="43.0713367" lon="12.5953133"><ele>244.0</ele><time>2026-04-18T14:04:51.975Z</time></trkpt><trkpt lat="43.071265" lon="12.59527"><ele>243.5</ele><time>2026-04-18T14:04:52.975Z</time></trkpt><trkpt lat="43.0711917" lon="12.5952567"><ele>243.0</ele><time>2026-04-18T14:04:53.975Z</time></trkpt><trkpt lat="43.07112" lon="12.5952683"><ele>242.50000000000003</ele><time>2026-04-18T14:04:54.975Z</time></trkpt><trkpt lat="43.0710367" lon="12.5952917"><ele>242.0</ele><time>2026-04-18T14:04:55.975Z</time></trkpt><trkpt lat="43.07095" lon="12.59532"><ele>241.8</ele><time>2026-04-18T14:04:56.975Z</time></trkpt><trkpt lat="43.0708633" lon="12.5953483"><ele>241.6</ele><time>2026-04-18T14:04:57.975Z</time></trkpt><trkpt lat="43.0707683" lon="12.5953667"><ele>241.40000000000003</ele><time>2026-04-18T14:04:58.975Z</time></trkpt><trkpt lat="43.0706717" lon="12.595385"><ele>241.20000000000002</ele><time>2026-04-18T14:04:59.975Z</time></trkpt><trkpt lat="43.0705767" lon="12.5954017"><ele>241.0</ele><time>2026-04-18T14:05:00.975Z</time></trkpt><trkpt lat="43.07049" lon="12.5954033"><ele>240.99999999999997</ele><time>2026-04-18T14:05:01.975Z</time></trkpt><trkpt lat="43.0704033" lon="12.5953933"><ele>241.0</ele><time>2026-04-18T14:05:02.975Z</time></trkpt><trkpt lat="43.070325" lon="12.5953633"><ele>241.0</ele><time>2026-04-18T14:05:03.975Z</time></trkpt><trkpt lat="43.07025" lon="12.59532"><ele>241.0</ele><time>2026-04-18T14:05:04.975Z</time></trkpt><trkpt lat="43.07018" lon="12.5952683"><ele>240.99999999999997</ele><time>2026-04-18T14:05:05.975Z</time></trkpt><trkpt lat="43.0701233" lon="12.5952217"><ele>241.0</ele><time>2026-04-18T14:05:06.975Z</time></trkpt><trkpt lat="43.070065" lon="12.595175"><ele>240.8</ele><time>2026-04-18T14:05:07.975Z</time></trkpt><trkpt lat="43.07001" lon="12.5950267"><ele>240.60000000000002</ele><time>2026-04-18T14:05:09.975Z</time></trkpt><trkpt lat="43.0700117" lon="12.5949117"><ele>240.4</ele><time>2026-04-18T14:05:10.975Z</time></trkpt><trkpt lat="43.07002" lon="12.594775"><ele>240.2</ele><time>2026-04-18T14:05:11.975Z</time></trkpt><trkpt lat="43.0700233" lon="12.5946183"><ele>240.0</ele><time>2026-04-18T14:05:12.975Z</time></trkpt><trkpt lat="43.0700233" lon="12.594445"><ele>239.75</ele><time>2026-04-18T14:05:13.975Z</time></trkpt><trkpt lat="43.0700267" lon="12.5942617"><ele>239.5</ele><time>2026-04-18T14:05:14.975Z</time></trkpt><trkpt lat="43.0700233" lon="12.5940733"><ele>239.25</ele><time>2026-04-18T14:05:15.975Z</time></trkpt><trkpt lat="43.0700217" lon="12.5938817"><ele>239.0</ele><time>2026-04-18T14:05:16.975Z</time></trkpt><trkpt lat="43.070025" lon="12.5936883"><ele>238.5</ele><time>2026-04-18T14:05:17.975Z</time></trkpt><trkpt lat="43.0700283" lon="12.59349"><ele>238.0</ele><time>2026-04-18T14:05:18.975Z</time></trkpt><trkpt lat="43.0700267" lon="12.59329"><ele>237.5</ele><time>2026-04-18T14:05:19.975Z</time></trkpt><trkpt lat="43.070025" lon="12.59309"><ele>237.0</ele><time>2026-04-18T14:05:20.975Z</time></trkpt><trkpt lat="43.070025" lon="12.5928867"><ele>236.5</ele><time>2026-04-18T14:05:21.975Z</time></trkpt><trkpt lat="43.070025" lon="12.59268"><ele>236.0</ele><time>2026-04-18T14:05:22.975Z</time></trkpt><trkpt lat="43.070025" lon="12.59247"><ele>235.5</ele><time>2026-04-18T14:05:23.975Z</time></trkpt><trkpt lat="43.0700183" lon="12.5922717"><ele>235.0</ele><time>2026-04-18T14:05:24.975Z</time></trkpt><trkpt lat="43.070015" lon="12.5920817"><ele>235.75</ele><time>2026-04-18T14:05:25.975Z</time></trkpt><trkpt lat="43.0700117" lon="12.5918867"><ele>236.5</ele><time>2026-04-18T14:05:26.975Z</time></trkpt><trkpt lat="43.07001" lon="12.591695"><ele>237.25</ele><time>2026-04-18T14:05:27.975Z</time></trkpt><trkpt lat="43.0700133" lon="12.5915117"><ele>238.0</ele><time>2026-04-18T14:05:28.975Z</time></trkpt><trkpt lat="43.07001" lon="12.5913417"><ele>237.0</ele><time>2026-04-18T14:05:29.975Z</time></trkpt><trkpt lat="43.0700117" lon="12.5911733"><ele>236.0</ele><time>2026-04-18T14:05:30.975Z</time></trkpt><trkpt lat="43.0700117" lon="12.5910117"><ele>235.0</ele><time>2026-04-18T14:05:31.975Z</time></trkpt><trkpt lat="43.0700133" lon="12.5908617"><ele>234.0</ele><time>2026-04-18T14:05:32.975Z</time></trkpt><trkpt lat="43.070015" lon="12.590705"><ele>234.0</ele><time>2026-04-18T14:05:33.975Z</time></trkpt><trkpt lat="43.0700133" lon="12.590565"><ele>233.99999999999997</ele><time>2026-04-18T14:05:34.975Z</time></trkpt><trkpt lat="43.0700117" lon="12.5904417"><ele>233.99999999999997</ele><time>2026-04-18T14:05:35.975Z</time></trkpt><trkpt lat="43.0700117" lon="12.5903133"><ele>234.0</ele><time>2026-04-18T14:05:36.975Z</time></trkpt><trkpt lat="43.0700083" lon="12.5901867"><ele>234.0</ele><time>2026-04-18T14:05:37.975Z</time></trkpt><trkpt lat="43.0700067" lon="12.5900717"><ele>233.83333333333334</ele><time>2026-04-18T14:05:38.975Z</time></trkpt><trkpt lat="43.0700017" lon="12.589955"><ele>233.66666666666669</ele><time>2026-04-18T14:05:39.975Z</time></trkpt><trkpt lat="43.069995" lon="12.5898433"><ele>233.5</ele><time>2026-04-18T14:05:40.975Z</time></trkpt><trkpt lat="43.0699783" lon="12.5897483"><ele>233.33333333333334</ele><time>2026-04-18T14:05:41.975Z</time></trkpt><trkpt lat="43.0699533" lon="12.5896617"><ele>233.16666666666669</ele><time>2026-04-18T14:05:42.975Z</time></trkpt><trkpt lat="43.0699067" lon="12.58957"><ele>233.0</ele><time>2026-04-18T14:05:43.975Z</time></trkpt><trkpt lat="43.0698367" lon="12.5894717"><ele>233.0</ele><time>2026-04-18T14:05:44.975Z</time></trkpt><trkpt lat="43.0697717" lon="12.589365"><ele>233.0</ele><time>2026-04-18T14:05:45.975Z</time></trkpt><trkpt lat="43.06972" lon="12.5892633"><ele>233.0</ele><time>2026-04-18T14:05:46.975Z</time></trkpt><trkpt lat="43.0696667" lon="12.589165"><ele>233.0</ele><time>2026-04-18T14:05:47.975Z</time></trkpt><trkpt lat="43.0696133" lon="12.5890733"><ele>233.0</ele><time>2026-04-18T14:05:48.975Z</time></trkpt><trkpt lat="43.0695617" lon="12.5889667"><ele>233.00000000000003</ele><time>2026-04-18T14:05:49.975Z</time></trkpt><trkpt lat="43.0695083" lon="12.58886"><ele>233.0</ele><time>2026-04-18T14:05:50.975Z</time></trkpt><trkpt lat="43.0694583" lon="12.5887667"><ele>233.0</ele><time>2026-04-18T14:05:51.975Z</time></trkpt><trkpt lat="43.0694117" lon="12.588675"><ele>233.0</ele><time>2026-04-18T14:05:52.975Z</time></trkpt><trkpt lat="43.069365" lon="12.58857"><ele>233.00000000000003</ele><time>2026-04-18T14:05:53.975Z</time></trkpt><trkpt lat="43.06932" lon="12.5884617"><ele>233.0</ele><time>2026-04-18T14:05:54.975Z</time></trkpt><trkpt lat="43.069275" lon="12.588345"><ele>233.0</ele><time>2026-04-18T14:05:55.975Z</time></trkpt><trkpt lat="43.0692267" lon="12.5882317"><ele>233.0</ele><time>2026-04-18T14:05:56.975Z</time></trkpt><trkpt lat="43.0691767" lon="12.5881183"><ele>233.0</ele><time>2026-04-18T14:05:57.975Z</time></trkpt><trkpt lat="43.0691217" lon="12.5880083"><ele>233.0</ele><time>2026-04-18T14:05:58.975Z</time></trkpt><trkpt lat="43.0690717" lon="12.587895"><ele>233.0</ele><time>2026-04-18T14:05:59.975Z</time></trkpt><trkpt lat="43.0690217" lon="12.5877883"><ele>232.60000000000002</ele><time>2026-04-18T14:06:00.975Z</time></trkpt><trkpt lat="43.06897" lon="12.5876783"><ele>232.20000000000002</ele><time>2026-04-18T14:06:01.975Z</time></trkpt><trkpt lat="43.068905" lon="12.5875667"><ele>231.8</ele><time>2026-04-18T14:06:02.975Z</time></trkpt><trkpt lat="43.0688417" lon="12.5874433"><ele>231.4</ele><time>2026-04-18T14:06:03.975Z</time></trkpt><trkpt lat="43.068775" lon="12.58733"><ele>231.0</ele><time>2026-04-18T14:06:04.975Z</time></trkpt><trkpt lat="43.0687067" lon="12.5872183"><ele>231.0</ele><time>2026-04-18T14:06:05.975Z</time></trkpt><trkpt lat="43.068635" lon="12.5870983"><ele>231.0</ele><time>2026-04-18T14:06:06.975Z</time></trkpt><trkpt lat="43.06856" lon="12.5869833"><ele>231.0</ele><time>2026-04-18T14:06:07.975Z</time></trkpt><trkpt lat="43.0684783" lon="12.5868783"><ele>231.0</ele><time>2026-04-18T14:06:08.975Z</time></trkpt><trkpt lat="43.0684" lon="12.586765"><ele>231.20000000000002</ele><time>2026-04-18T14:06:09.975Z</time></trkpt><trkpt lat="43.068315" lon="12.58665"><ele>231.40000000000003</ele><time>2026-04-18T14:06:10.975Z</time></trkpt><trkpt lat="43.0682401" lon="12.586548"><ele>231.6</ele><time>2026-04-18T14:06:11.975Z</time></trkpt><trkpt lat="43.068171" lon="12.5864523"><ele>231.8</ele><time>2026-04-18T14:06:12.975Z</time></trkpt><trkpt lat="43.0681029" lon="12.5863529"><ele>232.0</ele><time>2026-04-18T14:06:13.975Z</time></trkpt><trkpt lat="43.0680346" lon="12.5862482"><ele>231.0</ele><time>2026-04-18T14:06:14.975Z</time></trkpt><trkpt lat="43.0679683" lon="12.5861343"><ele>230.0</ele><time>2026-04-18T14:06:15.975Z</time></trkpt><trkpt lat="43.0679037" lon="12.5860165"><ele>229.0</ele><time>2026-04-18T14:06:16.975Z</time></trkpt><trkpt lat="43.0678413" lon="12.5859042"><ele>228.0</ele><time>2026-04-18T14:06:17.975Z</time></trkpt><trkpt lat="43.0677852" lon="12.5858032"><ele>227.0</ele><time>2026-04-18T14:06:18.975Z</time></trkpt><trkpt lat="43.0677353" lon="12.5857127"><ele>227.0</ele><time>2026-04-18T14:06:19.975Z</time></trkpt><trkpt lat="43.0676775" lon="12.5856255"><ele>227.0</ele><time>2026-04-18T14:06:20.975Z</time></trkpt><trkpt lat="43.0676191" lon="12.5855333"><ele>227.0</ele><time>2026-04-18T14:06:21.975Z</time></trkpt><trkpt lat="43.0675656" lon="12.5854377"><ele>227.0</ele><time>2026-04-18T14:06:22.975Z</time></trkpt><trkpt lat="43.0675085" lon="12.5853395"><ele>227.0</ele><time>2026-04-18T14:06:23.975Z</time></trkpt><trkpt lat="43.0674496" lon="12.5852371"><ele>227.39999999999998</ele><time>2026-04-18T14:06:24.975Z</time></trkpt><trkpt lat="43.0673882" lon="12.5851307"><ele>227.79999999999998</ele><time>2026-04-18T14:06:25.975Z</time></trkpt><trkpt lat="43.0673275" lon="12.5850187"><ele>228.2</ele><time>2026-04-18T14:06:26.975Z</time></trkpt><trkpt lat="43.0672629" lon="12.5849135"><ele>228.6</ele><time>2026-04-18T14:06:27.975Z</time></trkpt><trkpt lat="43.0671896" lon="12.5848045"><ele>229.0</ele><time>2026-04-18T14:06:28.975Z</time></trkpt><trkpt lat="43.0671134" lon="12.5846943"><ele>228.99999999999997</ele><time>2026-04-18T14:06:29.975Z</time></trkpt><trkpt lat="43.067046" lon="12.5845935"><ele>229.0</ele><time>2026-04-18T14:06:30.975Z</time></trkpt><trkpt lat="43.0669877" lon="12.584496"><ele>229.0</ele><time>2026-04-18T14:06:31.975Z</time></trkpt><trkpt lat="43.0669391" lon="12.5844128"><ele>229.0</ele><time>2026-04-18T14:06:32.975Z</time></trkpt><trkpt lat="43.066903" lon="12.5843352"><ele>228.99999999999997</ele><time>2026-04-18T14:06:33.975Z</time></trkpt><trkpt lat="43.0668928" lon="12.5842451"><ele>229.0</ele><time>2026-04-18T14:06:34.975Z</time></trkpt><trkpt lat="43.0668967" lon="12.5841437"><ele>228.79999999999998</ele><time>2026-04-18T14:06:35.975Z</time></trkpt><trkpt lat="43.0669087" lon="12.5840355"><ele>228.59999999999997</ele><time>2026-04-18T14:06:36.975Z</time></trkpt><trkpt lat="43.0669092" lon="12.5839147"><ele>228.4</ele><time>2026-04-18T14:06:37.974Z</time></trkpt><trkpt lat="43.0668981" lon="12.583777"><ele>228.2</ele><time>2026-04-18T14:06:38.974Z</time></trkpt><trkpt lat="43.066878" lon="12.5836359"><ele>228.0</ele><time>2026-04-18T14:06:39.974Z</time></trkpt><trkpt lat="43.066854" lon="12.5835041"><ele>227.2</ele><time>2026-04-18T14:06:40.974Z</time></trkpt><trkpt lat="43.0668299" lon="12.5833863"><ele>226.4</ele><time>2026-04-18T14:06:41.974Z</time></trkpt><trkpt lat="43.0667985" lon="12.5832758"><ele>225.59999999999997</ele><time>2026-04-18T14:06:42.974Z</time></trkpt><trkpt lat="43.0667617" lon="12.5831695"><ele>224.79999999999998</ele><time>2026-04-18T14:06:43.974Z</time></trkpt><trkpt lat="43.0667179" lon="12.5830533"><ele>224.0</ele><time>2026-04-18T14:06:44.974Z</time></trkpt><trkpt lat="43.0666682" lon="12.5829331"><ele>223.79999999999998</ele><time>2026-04-18T14:06:45.974Z</time></trkpt><trkpt lat="43.0666187" lon="12.5828078"><ele>223.59999999999997</ele><time>2026-04-18T14:06:46.974Z</time></trkpt><trkpt lat="43.066569" lon="12.5826766"><ele>223.4</ele><time>2026-04-18T14:06:47.974Z</time></trkpt><trkpt lat="43.066519" lon="12.5825499"><ele>223.2</ele><time>2026-04-18T14:06:48.974Z</time></trkpt><trkpt lat="43.0664699" lon="12.5824316"><ele>223.0</ele><time>2026-04-18T14:06:49.974Z</time></trkpt><trkpt lat="43.0664205" lon="12.5823225"><ele>222.83333333333331</ele><time>2026-04-18T14:06:50.974Z</time></trkpt><trkpt lat="43.0663786" lon="12.5822134"><ele>222.66666666666666</ele><time>2026-04-18T14:06:51.974Z</time></trkpt><trkpt lat="43.0663381" lon="12.5821165"><ele>222.5</ele><time>2026-04-18T14:06:52.974Z</time></trkpt><trkpt lat="43.066303" lon="12.5820316"><ele>222.33333333333331</ele><time>2026-04-18T14:06:53.974Z</time></trkpt><trkpt lat="43.0662521" lon="12.5818795"><ele>222.16666666666666</ele><time>2026-04-18T14:06:55.974Z</time></trkpt><trkpt lat="43.0662235" lon="12.5817982"><ele>222.0</ele><time>2026-04-18T14:06:56.974Z</time></trkpt><trkpt lat="43.0661994" lon="12.5817132"><ele>222.0</ele><time>2026-04-18T14:06:57.974Z</time></trkpt><trkpt lat="43.0661675" lon="12.581568"><ele>222.0</ele><time>2026-04-18T14:06:59.974Z</time></trkpt><trkpt lat="43.0662086" lon="12.5814611"><ele>222.0</ele><time>2026-04-18T14:07:02.974Z</time></trkpt><trkpt lat="43.0663016" lon="12.5814031"><ele>222.0</ele><time>2026-04-18T14:07:04.974Z</time></trkpt><trkpt lat="43.0664162" lon="12.5813233"><ele>222.0</ele><time>2026-04-18T14:07:06.974Z</time></trkpt><trkpt lat="43.0664762" lon="12.5812761"><ele>222.0</ele><time>2026-04-18T14:07:07.974Z</time></trkpt><trkpt lat="43.0665328" lon="12.581223"><ele>222.0</ele><time>2026-04-18T14:07:08.974Z</time></trkpt><trkpt lat="43.066586" lon="12.5811566"><ele>222.0</ele><time>2026-04-18T14:07:09.974Z</time></trkpt><trkpt lat="43.0666363" lon="12.5810886"><ele>222.0</ele><time>2026-04-18T14:07:10.974Z</time></trkpt><trkpt lat="43.0666877" lon="12.5810235"><ele>222.0</ele><time>2026-04-18T14:07:11.974Z</time></trkpt><trkpt lat="43.0667374" lon="12.5809623"><ele>222.0</ele><time>2026-04-18T14:07:12.974Z</time></trkpt><trkpt lat="43.0668294" lon="12.580849"><ele>222.33333333333334</ele><time>2026-04-18T14:07:14.974Z</time></trkpt><trkpt lat="43.0668803" lon="12.580795"><ele>222.66666666666669</ele><time>2026-04-18T14:07:15.974Z</time></trkpt><trkpt lat="43.0669309" lon="12.5807375"><ele>223.0</ele><time>2026-04-18T14:07:16.974Z</time></trkpt><trkpt lat="43.06698" lon="12.58068"><ele>223.33333333333334</ele><time>2026-04-18T14:07:17.974Z</time></trkpt><trkpt lat="43.06707" lon="12.5805733"><ele>223.66666666666669</ele><time>2026-04-18T14:07:19.974Z</time></trkpt><trkpt lat="43.067135" lon="12.5804367"><ele>224.0</ele><time>2026-04-18T14:07:21.974Z</time></trkpt><trkpt lat="43.06717" lon="12.580355"><ele>224.0</ele><time>2026-04-18T14:07:22.974Z</time></trkpt><trkpt lat="43.0672083" lon="12.5802683"><ele>224.0</ele><time>2026-04-18T14:07:23.974Z</time></trkpt><trkpt lat="43.0672433" lon="12.58018"><ele>224.0</ele><time>2026-04-18T14:07:24.974Z</time></trkpt><trkpt lat="43.0672767" lon="12.58009"><ele>224.0</ele><time>2026-04-18T14:07:25.974Z</time></trkpt><trkpt lat="43.0673067" lon="12.58"><ele>224.0</ele><time>2026-04-18T14:07:26.974Z</time></trkpt><trkpt lat="43.0673367" lon="12.5799"><ele>224.0</ele><time>2026-04-18T14:07:27.974Z</time></trkpt><trkpt lat="43.067365" lon="12.579805"><ele>224.0</ele><time>2026-04-18T14:07:28.974Z</time></trkpt><trkpt lat="43.0673933" lon="12.5797133"><ele>224.00000000000003</ele><time>2026-04-18T14:07:29.974Z</time></trkpt><trkpt lat="43.0674217" lon="12.5796233"><ele>224.0</ele><time>2026-04-18T14:07:30.974Z</time></trkpt><trkpt lat="43.0674467" lon="12.5795417"><ele>224.0</ele><time>2026-04-18T14:07:31.974Z</time></trkpt><trkpt lat="43.067495" lon="12.5794067"><ele>224.0</ele><time>2026-04-18T14:07:33.974Z</time></trkpt><trkpt lat="43.0675333" lon="12.579285"><ele>224.00000000000003</ele><time>2026-04-18T14:07:35.974Z</time></trkpt><trkpt lat="43.067585" lon="12.5791883"><ele>224.0</ele><time>2026-04-18T14:07:37.974Z</time></trkpt><trkpt lat="43.0676733" lon="12.579095"><ele>224.00000000000003</ele><time>2026-04-18T14:07:39.974Z</time></trkpt><trkpt lat="43.0677633" lon="12.579005"><ele>224.0</ele><time>2026-04-18T14:07:41.974Z</time></trkpt><trkpt lat="43.0678167" lon="12.5789517"><ele>224.0</ele><time>2026-04-18T14:07:42.974Z</time></trkpt><trkpt lat="43.0678717" lon="12.5789"><ele>224.0</ele><time>2026-04-18T14:07:43.974Z</time></trkpt><trkpt lat="43.06793" lon="12.578855"><ele>224.00000000000003</ele><time>2026-04-18T14:07:44.974Z</time></trkpt><trkpt lat="43.0679917" lon="12.5787983"><ele>224.0</ele><time>2026-04-18T14:07:45.974Z</time></trkpt><trkpt lat="43.0680517" lon="12.5787433"><ele>223.33333333333334</ele><time>2026-04-18T14:07:46.974Z</time></trkpt><trkpt lat="43.0681133" lon="12.5786833"><ele>222.66666666666669</ele><time>2026-04-18T14:07:47.974Z</time></trkpt><trkpt lat="43.0681717" lon="12.5786283"><ele>222.0</ele><time>2026-04-18T14:07:48.974Z</time></trkpt><trkpt lat="43.068225" lon="12.5785767"><ele>221.33333333333331</ele><time>2026-04-18T14:07:49.974Z</time></trkpt><trkpt lat="43.06828" lon="12.57853"><ele>220.66666666666666</ele><time>2026-04-18T14:07:50.974Z</time></trkpt><trkpt lat="43.0683883" lon="12.57846"><ele>220.0</ele><time>2026-04-18T14:07:52.974Z</time></trkpt><trkpt lat="43.0684717" lon="12.5783883"><ele>220.0</ele><time>2026-04-18T14:07:54.974Z</time></trkpt><trkpt lat="43.0685567" lon="12.5783267"><ele>220.0</ele><time>2026-04-18T14:07:56.974Z</time></trkpt><trkpt lat="43.0686467" lon="12.5782633"><ele>220.0</ele><time>2026-04-18T14:07:58.974Z</time></trkpt><trkpt lat="43.0687333" lon="12.578215"><ele>220.0</ele><time>2026-04-18T14:08:00.969Z</time></trkpt><trkpt lat="43.0688333" lon="12.5781467"><ele>220.0</ele><time>2026-04-18T14:08:02.974Z</time></trkpt><trkpt lat="43.0688983" lon="12.57812"><ele>219.99999999999997</ele><time>2026-04-18T14:08:03.974Z</time></trkpt><trkpt lat="43.0689683" lon="12.5780867"><ele>220.0</ele><time>2026-04-18T14:08:04.974Z</time></trkpt><trkpt lat="43.0690417" lon="12.5780567"><ele>220.0</ele><time>2026-04-18T14:08:05.974Z</time></trkpt><trkpt lat="43.0691133" lon="12.57802"><ele>220.0</ele><time>2026-04-18T14:08:06.974Z</time></trkpt><trkpt lat="43.0691817" lon="12.5779833"><ele>219.99999999999997</ele><time>2026-04-18T14:08:07.974Z</time></trkpt><trkpt lat="43.0692617" lon="12.5779417"><ele>220.0</ele><time>2026-04-18T14:08:08.974Z</time></trkpt><trkpt lat="43.0693383" lon="12.5778967"><ele>220.33333333333331</ele><time>2026-04-18T14:08:09.974Z</time></trkpt><trkpt lat="43.06941" lon="12.57786"><ele>220.66666666666666</ele><time>2026-04-18T14:08:10.974Z</time></trkpt><trkpt lat="43.06948" lon="12.5778233"><ele>221.0</ele><time>2026-04-18T14:08:11.974Z</time></trkpt><trkpt lat="43.069545" lon="12.5777933"><ele>221.33333333333331</ele><time>2026-04-18T14:08:12.974Z</time></trkpt><trkpt lat="43.0696583" lon="12.5777367"><ele>221.66666666666666</ele><time>2026-04-18T14:08:14.974Z</time></trkpt><trkpt lat="43.0697183" lon="12.5777017"><ele>222.0</ele><time>2026-04-18T14:08:15.974Z</time></trkpt><trkpt lat="43.0697783" lon="12.5776567"><ele>222.0</ele><time>2026-04-18T14:08:16.974Z</time></trkpt><trkpt lat="43.0698383" lon="12.5776033"><ele>222.0</ele><time>2026-04-18T14:08:17.974Z</time></trkpt><trkpt lat="43.0699017" lon="12.57754"><ele>222.0</ele><time>2026-04-18T14:08:18.974Z</time></trkpt><trkpt lat="43.069955" lon="12.5774733"><ele>222.0</ele><time>2026-04-18T14:08:19.974Z</time></trkpt><trkpt lat="43.0700133" lon="12.57741"><ele>222.0</ele><time>2026-04-18T14:08:20.974Z</time></trkpt><trkpt lat="43.0700683" lon="12.5773433"><ele>222.0</ele><time>2026-04-18T14:08:21.974Z</time></trkpt><trkpt lat="43.0701267" lon="12.577265"><ele>222.0</ele><time>2026-04-18T14:08:22.974Z</time></trkpt><trkpt lat="43.0701817" lon="12.5771967"><ele>222.0</ele><time>2026-04-18T14:08:23.974Z</time></trkpt><trkpt lat="43.0702383" lon="12.5771333"><ele>222.0</ele><time>2026-04-18T14:08:24.974Z</time></trkpt><trkpt lat="43.0702883" lon="12.5770717"><ele>222.0</ele><time>2026-04-18T14:08:25.974Z</time></trkpt><trkpt lat="43.0703233" lon="12.5769933"><ele>222.0</ele><time>2026-04-18T14:08:26.974Z</time></trkpt><trkpt lat="43.0703467" lon="12.57689"><ele>222.0</ele><time>2026-04-18T14:08:27.974Z</time></trkpt><trkpt lat="43.0703517" lon="12.5767633"><ele>221.8</ele><time>2026-04-18T14:08:28.974Z</time></trkpt><trkpt lat="43.0703483" lon="12.576625"><ele>221.6</ele><time>2026-04-18T14:08:29.974Z</time></trkpt><trkpt lat="43.07034" lon="12.5764833"><ele>221.40000000000003</ele><time>2026-04-18T14:08:30.974Z</time></trkpt><trkpt lat="43.0703433" lon="12.5763383"><ele>221.20000000000002</ele><time>2026-04-18T14:08:31.974Z</time></trkpt><trkpt lat="43.0703367" lon="12.5761917"><ele>221.0</ele><time>2026-04-18T14:08:32.974Z</time></trkpt><trkpt lat="43.070325" lon="12.5760483"><ele>221.0</ele><time>2026-04-18T14:08:33.974Z</time></trkpt><trkpt lat="43.0703067" lon="12.5759"><ele>221.00000000000003</ele><time>2026-04-18T14:08:34.974Z</time></trkpt><trkpt lat="43.070275" lon="12.5757633"><ele>221.00000000000003</ele><time>2026-04-18T14:08:35.974Z</time></trkpt><trkpt lat="43.0702483" lon="12.5756317"><ele>221.0</ele><time>2026-04-18T14:08:36.974Z</time></trkpt><trkpt lat="43.07022" lon="12.5754917"><ele>221.0</ele><time>2026-04-18T14:08:37.974Z</time></trkpt><trkpt lat="43.0702" lon="12.5753433"><ele>220.25</ele><time>2026-04-18T14:08:38.974Z</time></trkpt><trkpt lat="43.07019" lon="12.5751917"><ele>219.5</ele><time>2026-04-18T14:08:39.974Z</time></trkpt><trkpt lat="43.0701783" lon="12.575035"><ele>218.75</ele><time>2026-04-18T14:08:40.974Z</time></trkpt><trkpt lat="43.0701683" lon="12.5748833"><ele>218.0</ele><time>2026-04-18T14:08:41.974Z</time></trkpt><trkpt lat="43.070165" lon="12.574725"><ele>218.0</ele><time>2026-04-18T14:08:42.974Z</time></trkpt><trkpt lat="43.0701617" lon="12.574565"><ele>218.0</ele><time>2026-04-18T14:08:43.974Z</time></trkpt><trkpt lat="43.0701583" lon="12.5744017"><ele>218.0</ele><time>2026-04-18T14:08:44.974Z</time></trkpt><trkpt lat="43.0701517" lon="12.5742533"><ele>218.0</ele><time>2026-04-18T14:08:45.974Z</time></trkpt><trkpt lat="43.07015" lon="12.5741017"><ele>217.66666666666669</ele><time>2026-04-18T14:08:46.974Z</time></trkpt><trkpt lat="43.070145" lon="12.5739667"><ele>217.33333333333334</ele><time>2026-04-18T14:08:47.974Z</time></trkpt><trkpt lat="43.07014" lon="12.5738367"><ele>217.0</ele><time>2026-04-18T14:08:48.974Z</time></trkpt><trkpt lat="43.0701383" lon="12.5737117"><ele>216.66666666666669</ele><time>2026-04-18T14:08:49.974Z</time></trkpt><trkpt lat="43.0701367" lon="12.5735967"><ele>216.33333333333334</ele><time>2026-04-18T14:08:50.974Z</time></trkpt><trkpt lat="43.07014" lon="12.5734883"><ele>216.0</ele><time>2026-04-18T14:08:51.974Z</time></trkpt><trkpt lat="43.07014" lon="12.5733867"><ele>216.0</ele><time>2026-04-18T14:08:52.974Z</time></trkpt><trkpt lat="43.0701467" lon="12.5732867"><ele>216.0</ele><time>2026-04-18T14:08:53.974Z</time></trkpt><trkpt lat="43.0701567" lon="12.5731983"><ele>216.0</ele><time>2026-04-18T14:08:54.974Z</time></trkpt><trkpt lat="43.0701733" lon="12.5730617"><ele>216.0</ele><time>2026-04-18T14:08:56.974Z</time></trkpt><trkpt lat="43.070225" lon="12.57295"><ele>216.0</ele><time>2026-04-18T14:08:58.974Z</time></trkpt><trkpt lat="43.070325" lon="12.572935"><ele>216.0</ele><time>2026-04-18T14:09:00.974Z</time></trkpt><trkpt lat="43.0704433" lon="12.5729817"><ele>216.0</ele><time>2026-04-18T14:09:02.974Z</time></trkpt><trkpt lat="43.0705567" lon="12.57295"><ele>216.00000000000003</ele><time>2026-04-18T14:09:04.974Z</time></trkpt><trkpt lat="43.0706" lon="12.5728017"><ele>216.00000000000003</ele><time>2026-04-18T14:09:06.974Z</time></trkpt><trkpt lat="43.0706033" lon="12.5726933"><ele>216.0</ele><time>2026-04-18T14:09:07.974Z</time></trkpt><trkpt lat="43.07062" lon="12.572575"><ele>216.0</ele><time>2026-04-18T14:09:08.974Z</time></trkpt><trkpt lat="43.0706367" lon="12.5724633"><ele>216.16666666666666</ele><time>2026-04-18T14:09:09.974Z</time></trkpt><trkpt lat="43.070665" lon="12.5723567"><ele>216.33333333333331</ele><time>2026-04-18T14:09:10.974Z</time></trkpt><trkpt lat="43.070685" lon="12.5722567"><ele>216.5</ele><time>2026-04-18T14:09:11.974Z</time></trkpt><trkpt lat="43.07071" lon="12.57216"><ele>216.66666666666666</ele><time>2026-04-18T14:09:12.974Z</time></trkpt><trkpt lat="43.07075" lon="12.5720633"><ele>216.83333333333331</ele><time>2026-04-18T14:09:13.974Z</time></trkpt><trkpt lat="43.0708033" lon="12.5719917"><ele>217.0</ele><time>2026-04-18T14:09:14.974Z</time></trkpt><trkpt lat="43.0708717" lon="12.5719467"><ele>216.49999999999997</ele><time>2026-04-18T14:09:15.974Z</time></trkpt><trkpt lat="43.0709417" lon="12.5719133"><ele>216.0</ele><time>2026-04-18T14:09:16.974Z</time></trkpt><trkpt lat="43.0710183" lon="12.57187"><ele>215.5</ele><time>2026-04-18T14:09:17.974Z</time></trkpt><trkpt lat="43.0710983" lon="12.5718233"><ele>215.0</ele><time>2026-04-18T14:09:18.974Z</time></trkpt><trkpt lat="43.0711783" lon="12.57177"><ele>214.49999999999997</ele><time>2026-04-18T14:09:19.974Z</time></trkpt><trkpt lat="43.07126" lon="12.5717083"><ele>214.0</ele><time>2026-04-18T14:09:20.974Z</time></trkpt><trkpt lat="43.0713367" lon="12.5716283"><ele>214.0</ele><time>2026-04-18T14:09:21.974Z</time></trkpt><trkpt lat="43.0714117" lon="12.5715417"><ele>213.99999999999997</ele><time>2026-04-18T14:09:22.974Z</time></trkpt><trkpt lat="43.07149" lon="12.5714533"><ele>213.99999999999997</ele><time>2026-04-18T14:09:23.974Z</time></trkpt><trkpt lat="43.0715767" lon="12.5713633"><ele>214.0</ele><time>2026-04-18T14:09:24.974Z</time></trkpt><trkpt lat="43.0716617" lon="12.571265"><ele>214.0</ele><time>2026-04-18T14:09:25.974Z</time></trkpt><trkpt lat="43.0717483" lon="12.5711717"><ele>214.6</ele><time>2026-04-18T14:09:26.974Z</time></trkpt><trkpt lat="43.0718333" lon="12.5710767"><ele>215.2</ele><time>2026-04-18T14:09:27.974Z</time></trkpt><trkpt lat="43.0719167" lon="12.57099"><ele>215.79999999999998</ele><time>2026-04-18T14:09:28.974Z</time></trkpt><trkpt lat="43.0720033" lon="12.5709"><ele>216.39999999999998</ele><time>2026-04-18T14:09:29.974Z</time></trkpt><trkpt lat="43.0720933" lon="12.5707967"><ele>217.0</ele><time>2026-04-18T14:09:30.974Z</time></trkpt><trkpt lat="43.0721817" lon="12.570685"><ele>217.0</ele><time>2026-04-18T14:09:31.974Z</time></trkpt><trkpt lat="43.072275" lon="12.570565"><ele>217.0</ele><time>2026-04-18T14:09:32.974Z</time></trkpt><trkpt lat="43.0723583" lon="12.5704367"><ele>217.0</ele><time>2026-04-18T14:09:33.974Z</time></trkpt><trkpt lat="43.0724417" lon="12.5703"><ele>217.0</ele><time>2026-04-18T14:09:34.974Z</time></trkpt><trkpt lat="43.0725217" lon="12.5701617"><ele>216.0</ele><time>2026-04-18T14:09:35.974Z</time></trkpt><trkpt lat="43.0726083" lon="12.570015"><ele>215.0</ele><time>2026-04-18T14:09:36.974Z</time></trkpt><trkpt lat="43.0726883" lon="12.5698733"><ele>214.0</ele><time>2026-04-18T14:09:37.974Z</time></trkpt><trkpt lat="43.072775" lon="12.56973"><ele>213.0</ele><time>2026-04-18T14:09:38.974Z</time></trkpt><trkpt lat="43.07286" lon="12.56959"><ele>213.5</ele><time>2026-04-18T14:09:39.974Z</time></trkpt><trkpt lat="43.0729433" lon="12.5694533"><ele>214.0</ele><time>2026-04-18T14:09:40.974Z</time></trkpt><trkpt lat="43.0730333" lon="12.5693283"><ele>214.5</ele><time>2026-04-18T14:09:41.974Z</time></trkpt><trkpt lat="43.073125" lon="12.569195"><ele>215.0</ele><time>2026-04-18T14:09:42.974Z</time></trkpt><trkpt lat="43.0732167" lon="12.569075"><ele>214.5</ele><time>2026-04-18T14:09:43.974Z</time></trkpt><trkpt lat="43.0733083" lon="12.5689667"><ele>214.0</ele><time>2026-04-18T14:09:44.974Z</time></trkpt><trkpt lat="43.0734017" lon="12.5688733"><ele>213.5</ele><time>2026-04-18T14:09:45.974Z</time></trkpt><trkpt lat="43.0734933" lon="12.5687883"><ele>213.0</ele><time>2026-04-18T14:09:46.974Z</time></trkpt><trkpt lat="43.0735883" lon="12.5687017"><ele>213.0</ele><time>2026-04-18T14:09:47.974Z</time></trkpt><trkpt lat="43.07369" lon="12.5686283"><ele>213.0</ele><time>2026-04-18T14:09:48.974Z</time></trkpt><trkpt lat="43.0738" lon="12.56856"><ele>213.0</ele><time>2026-04-18T14:09:49.974Z</time></trkpt><trkpt lat="43.0739133" lon="12.5685033"><ele>213.0</ele><time>2026-04-18T14:09:50.974Z</time></trkpt><trkpt lat="43.074035" lon="12.5684617"><ele>212.75</ele><time>2026-04-18T14:09:51.974Z</time></trkpt><trkpt lat="43.0741533" lon="12.5684183"><ele>212.5</ele><time>2026-04-18T14:09:52.974Z</time></trkpt><trkpt lat="43.0742733" lon="12.5683617"><ele>212.25</ele><time>2026-04-18T14:09:53.974Z</time></trkpt><trkpt lat="43.074395" lon="12.5683017"><ele>212.0</ele><time>2026-04-18T14:09:54.974Z</time></trkpt><trkpt lat="43.0745167" lon="12.568235"><ele>212.0</ele><time>2026-04-18T14:09:55.974Z</time></trkpt><trkpt lat="43.074635" lon="12.56816"><ele>212.0</ele><time>2026-04-18T14:09:56.974Z</time></trkpt><trkpt lat="43.074755" lon="12.5680717"><ele>212.0</ele><time>2026-04-18T14:09:57.974Z</time></trkpt><trkpt lat="43.0748633" lon="12.56797"><ele>212.0</ele><time>2026-04-18T14:09:58.974Z</time></trkpt><trkpt lat="43.0749583" lon="12.5678517"><ele>211.5</ele><time>2026-04-18T14:09:59.974Z</time></trkpt><trkpt lat="43.0750567" lon="12.5677333"><ele>211.0</ele><time>2026-04-18T14:10:00.974Z</time></trkpt><trkpt lat="43.07515" lon="12.5676067"><ele>210.5</ele><time>2026-04-18T14:10:01.974Z</time></trkpt><trkpt lat="43.0752467" lon="12.5674817"><ele>210.0</ele><time>2026-04-18T14:10:02.974Z</time></trkpt><trkpt lat="43.0753433" lon="12.5673517"><ele>210.0</ele><time>2026-04-18T14:10:03.974Z</time></trkpt><trkpt lat="43.0754383" lon="12.5672317"><ele>210.0</ele><time>2026-04-18T14:10:04.974Z</time></trkpt><trkpt lat="43.075525" lon="12.5671183"><ele>210.0</ele><time>2026-04-18T14:10:05.974Z</time></trkpt><trkpt lat="43.0756133" lon="12.5670167"><ele>210.0</ele><time>2026-04-18T14:10:06.974Z</time></trkpt><trkpt lat="43.0756983" lon="12.5669233"><ele>210.16666666666666</ele><time>2026-04-18T14:10:07.974Z</time></trkpt><trkpt lat="43.0757717" lon="12.5668417"><ele>210.33333333333331</ele><time>2026-04-18T14:10:08.974Z</time></trkpt><trkpt lat="43.0758267" lon="12.56678"><ele>210.5</ele><time>2026-04-18T14:10:09.974Z</time></trkpt><trkpt lat="43.07591" lon="12.5667167"><ele>210.66666666666666</ele><time>2026-04-18T14:10:11.974Z</time></trkpt><trkpt lat="43.075975" lon="12.56668"><ele>210.83333333333331</ele><time>2026-04-18T14:10:17.974Z</time></trkpt><trkpt lat="43.0760133" lon="12.5665367"><ele>211.0</ele><time>2026-04-18T14:10:20.974Z</time></trkpt><trkpt lat="43.076015" lon="12.56645"><ele>210.99999999999997</ele><time>2026-04-18T14:10:21.974Z</time></trkpt><trkpt lat="43.07603" lon="12.5663017"><ele>211.0</ele><time>2026-04-18T14:10:23.974Z</time></trkpt><trkpt lat="43.076105" lon="12.5662167"><ele>211.0</ele><time>2026-04-18T14:10:25.974Z</time></trkpt><trkpt lat="43.076165" lon="12.5661733"><ele>211.0</ele><time>2026-04-18T14:10:26.974Z</time></trkpt><trkpt lat="43.0762317" lon="12.566115"><ele>210.99999999999997</ele><time>2026-04-18T14:10:27.974Z</time></trkpt><trkpt lat="43.0763033" lon="12.566045"><ele>211.0</ele><time>2026-04-18T14:10:28.974Z</time></trkpt><trkpt lat="43.0763717" lon="12.5659683"><ele>211.20000000000002</ele><time>2026-04-18T14:10:29.974Z</time></trkpt><trkpt lat="43.0764383" lon="12.5658867"><ele>211.4</ele><time>2026-04-18T14:10:30.974Z</time></trkpt><trkpt lat="43.0764983" lon="12.5658067"><ele>211.6</ele><time>2026-04-18T14:10:31.974Z</time></trkpt><trkpt lat="43.076565" lon="12.5657167"><ele>211.8</ele><time>2026-04-18T14:10:32.974Z</time></trkpt><trkpt lat="43.0766333" lon="12.565625"><ele>212.0</ele><time>2026-04-18T14:10:33.974Z</time></trkpt><trkpt lat="43.076705" lon="12.5655317"><ele>212.0</ele><time>2026-04-18T14:10:34.974Z</time></trkpt><trkpt lat="43.0767733" lon="12.5654367"><ele>212.0</ele><time>2026-04-18T14:10:35.974Z</time></trkpt><trkpt lat="43.0768517" lon="12.5653367"><ele>212.0</ele><time>2026-04-18T14:10:36.974Z</time></trkpt><trkpt lat="43.076935" lon="12.565235"><ele>212.0</ele><time>2026-04-18T14:10:37.974Z</time></trkpt><trkpt lat="43.0770183" lon="12.5651367"><ele>212.0</ele><time>2026-04-18T14:10:38.974Z</time></trkpt><trkpt lat="43.077105" lon="12.5650267"><ele>212.25</ele><time>2026-04-18T14:10:39.974Z</time></trkpt><trkpt lat="43.0771967" lon="12.564915"><ele>212.5</ele><time>2026-04-18T14:10:40.974Z</time></trkpt><trkpt lat="43.0772833" lon="12.564815"><ele>212.75</ele><time>2026-04-18T14:10:41.974Z</time></trkpt><trkpt lat="43.077375" lon="12.564715"><ele>213.0</ele><time>2026-04-18T14:10:42.974Z</time></trkpt><trkpt lat="43.0774633" lon="12.564615"><ele>212.25</ele><time>2026-04-18T14:10:43.974Z</time></trkpt><trkpt lat="43.0775533" lon="12.5645083"><ele>211.5</ele><time>2026-04-18T14:10:44.974Z</time></trkpt><trkpt lat="43.077645" lon="12.5644"><ele>210.75</ele><time>2026-04-18T14:10:45.974Z</time></trkpt><trkpt lat="43.0777367" lon="12.5642867"><ele>210.0</ele><time>2026-04-18T14:10:46.974Z</time></trkpt><trkpt lat="43.0778233" lon="12.5641767"><ele>210.0</ele><time>2026-04-18T14:10:47.974Z</time></trkpt><trkpt lat="43.077915" lon="12.5640683"><ele>210.0</ele><time>2026-04-18T14:10:48.974Z</time></trkpt><trkpt lat="43.0780067" lon="12.5639583"><ele>210.0</ele><time>2026-04-18T14:10:49.974Z</time></trkpt><trkpt lat="43.0780783" lon="12.5638367"><ele>210.0</ele><time>2026-04-18T14:10:50.974Z</time></trkpt><trkpt lat="43.0781233" lon="12.56369"><ele>209.75</ele><time>2026-04-18T14:10:51.974Z</time></trkpt><trkpt lat="43.0781483" lon="12.5635217"><ele>209.5</ele><time>2026-04-18T14:10:52.974Z</time></trkpt><trkpt lat="43.0781733" lon="12.563355"><ele>209.25</ele><time>2026-04-18T14:10:53.974Z</time></trkpt><trkpt lat="43.0782083" lon="12.56319"><ele>209.0</ele><time>2026-04-18T14:10:54.974Z</time></trkpt><trkpt lat="43.0782583" lon="12.5630333"><ele>209.0</ele><time>2026-04-18T14:10:55.974Z</time></trkpt><trkpt lat="43.078315" lon="12.562885"><ele>209.0</ele><time>2026-04-18T14:10:56.974Z</time></trkpt><trkpt lat="43.0783817" lon="12.56273"><ele>209.0</ele><time>2026-04-18T14:10:57.974Z</time></trkpt><trkpt lat="43.0784483" lon="12.5625817"><ele>209.0</ele><time>2026-04-18T14:10:58.974Z</time></trkpt><trkpt lat="43.0785167" lon="12.5624317"><ele>208.75</ele><time>2026-04-18T14:10:59.974Z</time></trkpt><trkpt lat="43.0785867" lon="12.5622833"><ele>208.5</ele><time>2026-04-18T14:11:00.974Z</time></trkpt><trkpt lat="43.078655" lon="12.5621383"><ele>208.25</ele><time>2026-04-18T14:11:01.974Z</time></trkpt><trkpt lat="43.0787267" lon="12.5620017"><ele>208.0</ele><time>2026-04-18T14:11:02.974Z</time></trkpt><trkpt lat="43.0788067" lon="12.56187"><ele>208.0</ele><time>2026-04-18T14:11:03.974Z</time></trkpt><trkpt lat="43.0788833" lon="12.5617333"><ele>208.0</ele><time>2026-04-18T14:11:04.974Z</time></trkpt><trkpt lat="43.0789433" lon="12.561595"><ele>208.0</ele><time>2026-04-18T14:11:05.974Z</time></trkpt><trkpt lat="43.0789933" lon="12.5614483"><ele>208.0</ele><time>2026-04-18T14:11:06.974Z</time></trkpt><trkpt lat="43.0790317" lon="12.561305"><ele>208.0</ele><time>2026-04-18T14:11:07.974Z</time></trkpt><trkpt lat="43.079075" lon="12.5611517"><ele>208.0</ele><time>2026-04-18T14:11:08.974Z</time></trkpt><trkpt lat="43.0791217" lon="12.5610017"><ele>208.0</ele><time>2026-04-18T14:11:09.974Z</time></trkpt><trkpt lat="43.07917" lon="12.5608483"><ele>208.0</ele><time>2026-04-18T14:11:10.974Z</time></trkpt><trkpt lat="43.0792133" lon="12.5607"><ele>208.2</ele><time>2026-04-18T14:11:11.974Z</time></trkpt><trkpt lat="43.0792583" lon="12.5605617"><ele>208.4</ele><time>2026-04-18T14:11:12.974Z</time></trkpt><trkpt lat="43.079305" lon="12.5604217"><ele>208.6</ele><time>2026-04-18T14:11:13.974Z</time></trkpt><trkpt lat="43.07935" lon="12.560295"><ele>208.79999999999998</ele><time>2026-04-18T14:11:14.974Z</time></trkpt><trkpt lat="43.07939" lon="12.5601817"><ele>209.0</ele><time>2026-04-18T14:11:15.974Z</time></trkpt><trkpt lat="43.079425" lon="12.560065"><ele>208.71428571428572</ele><time>2026-04-18T14:11:16.974Z</time></trkpt><trkpt lat="43.079455" lon="12.5599633"><ele>208.42857142857142</ele><time>2026-04-18T14:11:17.974Z</time></trkpt><trkpt lat="43.0794867" lon="12.559865"><ele>208.14285714285717</ele><time>2026-04-18T14:11:18.974Z</time></trkpt><trkpt lat="43.0795167" lon="12.5597717"><ele>207.85714285714286</ele><time>2026-04-18T14:11:19.974Z</time></trkpt><trkpt lat="43.07955" lon="12.5596967"><ele>207.57142857142858</ele><time>2026-04-18T14:11:20.973Z</time></trkpt><trkpt lat="43.079575" lon="12.5596117"><ele>207.2857142857143</ele><time>2026-04-18T14:11:21.973Z</time></trkpt><trkpt lat="43.07959" lon="12.559525"><ele>207.0</ele><time>2026-04-18T14:11:22.973Z</time></trkpt><trkpt lat="43.0796017" lon="12.55943"><ele>207.0</ele><time>2026-04-18T14:11:23.973Z</time></trkpt><trkpt lat="43.0796033" lon="12.5593283"><ele>207.0</ele><time>2026-04-18T14:11:24.973Z</time></trkpt><trkpt lat="43.079595" lon="12.5592183"><ele>207.0</ele><time>2026-04-18T14:11:25.973Z</time></trkpt><trkpt lat="43.0795817" lon="12.55909"><ele>207.0</ele><time>2026-04-18T14:11:26.973Z</time></trkpt><trkpt lat="43.0795683" lon="12.5589583"><ele>207.0</ele><time>2026-04-18T14:11:27.973Z</time></trkpt><trkpt lat="43.0795583" lon="12.5588367"><ele>207.0</ele><time>2026-04-18T14:11:28.973Z</time></trkpt><trkpt lat="43.07955" lon="12.5587117"><ele>206.83333333333334</ele><time>2026-04-18T14:11:29.973Z</time></trkpt><trkpt lat="43.07955" lon="12.5585967"><ele>206.66666666666669</ele><time>2026-04-18T14:11:30.973Z</time></trkpt><trkpt lat="43.079555" lon="12.558475"><ele>206.5</ele><time>2026-04-18T14:11:31.973Z</time></trkpt><trkpt lat="43.0795583" lon="12.55836"><ele>206.33333333333334</ele><time>2026-04-18T14:11:32.973Z</time></trkpt><trkpt lat="43.079565" lon="12.5582483"><ele>206.16666666666669</ele><time>2026-04-18T14:11:33.973Z</time></trkpt><trkpt lat="43.0795733" lon="12.5581517"><ele>206.0</ele><time>2026-04-18T14:11:34.973Z</time></trkpt><trkpt lat="43.079595" lon="12.5580083"><ele>206.0</ele><time>2026-04-18T14:11:36.973Z</time></trkpt><trkpt lat="43.0796067" lon="12.5578167"><ele>206.0</ele><time>2026-04-18T14:11:38.973Z</time></trkpt><trkpt lat="43.0796017" lon="12.5576867"><ele>206.0</ele><time>2026-04-18T14:11:39.973Z</time></trkpt><trkpt lat="43.0795883" lon="12.5575317"><ele>206.0</ele><time>2026-04-18T14:11:40.973Z</time></trkpt><trkpt lat="43.0795783" lon="12.55735"><ele>206.0</ele><time>2026-04-18T14:11:41.973Z</time></trkpt><trkpt lat="43.07957" lon="12.55716"><ele>206.0</ele><time>2026-04-18T14:11:42.973Z</time></trkpt><trkpt lat="43.0795633" lon="12.5569867"><ele>206.0</ele><time>2026-04-18T14:11:43.973Z</time></trkpt><trkpt lat="43.0795683" lon="12.5568017"><ele>206.0</ele><time>2026-04-18T14:11:44.973Z</time></trkpt><trkpt lat="43.0795583" lon="12.5566333"><ele>205.75</ele><time>2026-04-18T14:11:45.973Z</time></trkpt><trkpt lat="43.07955" lon="12.5564717"><ele>205.5</ele><time>2026-04-18T14:11:46.973Z</time></trkpt><trkpt lat="43.0795383" lon="12.55632"><ele>205.25</ele><time>2026-04-18T14:11:47.973Z</time></trkpt><trkpt lat="43.079535" lon="12.556165"><ele>205.0</ele><time>2026-04-18T14:11:48.973Z</time></trkpt><trkpt lat="43.0795333" lon="12.556"><ele>205.0</ele><time>2026-04-18T14:11:49.973Z</time></trkpt><trkpt lat="43.0795367" lon="12.5558317"><ele>205.0</ele><time>2026-04-18T14:11:50.973Z</time></trkpt><trkpt lat="43.0795383" lon="12.55567"><ele>205.0</ele><time>2026-04-18T14:11:51.973Z</time></trkpt><trkpt lat="43.0795367" lon="12.5555067"><ele>205.0</ele><time>2026-04-18T14:11:52.973Z</time></trkpt><trkpt lat="43.07952" lon="12.5553417"><ele>204.75</ele><time>2026-04-18T14:11:53.973Z</time></trkpt><trkpt lat="43.0794883" lon="12.55518"><ele>204.5</ele><time>2026-04-18T14:11:54.973Z</time></trkpt><trkpt lat="43.0794383" lon="12.5550217"><ele>204.25</ele><time>2026-04-18T14:11:55.973Z</time></trkpt><trkpt lat="43.07938" lon="12.5548667"><ele>204.0</ele><time>2026-04-18T14:11:56.973Z</time></trkpt><trkpt lat="43.0793183" lon="12.5547117"><ele>204.0</ele><time>2026-04-18T14:11:57.973Z</time></trkpt><trkpt lat="43.0792533" lon="12.5545633"><ele>204.0</ele><time>2026-04-18T14:11:58.973Z</time></trkpt><trkpt lat="43.079175" lon="12.5544133"><ele>204.0</ele><time>2026-04-18T14:11:59.973Z</time></trkpt><trkpt lat="43.0790867" lon="12.5542667"><ele>204.0</ele><time>2026-04-18T14:12:00.973Z</time></trkpt><trkpt lat="43.0789817" lon="12.5541217"><ele>204.0</ele><time>2026-04-18T14:12:01.973Z</time></trkpt><trkpt lat="43.0788717" lon="12.5539917"><ele>204.0</ele><time>2026-04-18T14:12:02.973Z</time></trkpt><trkpt lat="43.07876" lon="12.553875"><ele>204.0</ele><time>2026-04-18T14:12:03.973Z</time></trkpt><trkpt lat="43.078635" lon="12.5537633"><ele>204.0</ele><time>2026-04-18T14:12:04.973Z</time></trkpt><trkpt lat="43.0785017" lon="12.5536583"><ele>204.0</ele><time>2026-04-18T14:12:05.973Z</time></trkpt><trkpt lat="43.078365" lon="12.5535417"><ele>204.0</ele><time>2026-04-18T14:12:06.973Z</time></trkpt><trkpt lat="43.0782283" lon="12.5534167"><ele>204.0</ele><time>2026-04-18T14:12:07.973Z</time></trkpt><trkpt lat="43.07809" lon="12.553305"><ele>203.33333333333331</ele><time>2026-04-18T14:12:08.973Z</time></trkpt><trkpt lat="43.077955" lon="12.5531867"><ele>202.66666666666666</ele><time>2026-04-18T14:12:09.973Z</time></trkpt><trkpt lat="43.077815" lon="12.5530717"><ele>202.0</ele><time>2026-04-18T14:12:10.973Z</time></trkpt><trkpt lat="43.0776833" lon="12.55296"><ele>202.0</ele><time>2026-04-18T14:12:11.973Z</time></trkpt><trkpt lat="43.0775567" lon="12.5528583"><ele>202.0</ele><time>2026-04-18T14:12:12.973Z</time></trkpt><trkpt lat="43.0774433" lon="12.5527583"><ele>202.0</ele><time>2026-04-18T14:12:13.973Z</time></trkpt><trkpt lat="43.077325" lon="12.5526483"><ele>202.0</ele><time>2026-04-18T14:12:14.973Z</time></trkpt><trkpt lat="43.0772067" lon="12.5525433"><ele>202.0</ele><time>2026-04-18T14:12:15.973Z</time></trkpt><trkpt lat="43.077095" lon="12.5524317"><ele>202.0</ele><time>2026-04-18T14:12:16.973Z</time></trkpt><trkpt lat="43.0769783" lon="12.5523233"><ele>202.0</ele><time>2026-04-18T14:12:17.973Z</time></trkpt><trkpt lat="43.0768583" lon="12.55222"><ele>202.0</ele><time>2026-04-18T14:12:18.973Z</time></trkpt><trkpt lat="43.07673" lon="12.55213"><ele>202.0</ele><time>2026-04-18T14:12:19.973Z</time></trkpt><trkpt lat="43.0765933" lon="12.5520417"><ele>202.0</ele><time>2026-04-18T14:12:20.973Z</time></trkpt><trkpt lat="43.0764583" lon="12.5519583"><ele>202.0</ele><time>2026-04-18T14:12:21.973Z</time></trkpt><trkpt lat="43.076325" lon="12.55189"><ele>202.0</ele><time>2026-04-18T14:12:22.973Z</time></trkpt><trkpt lat="43.0761933" lon="12.5518317"><ele>201.75</ele><time>2026-04-18T14:12:23.973Z</time></trkpt><trkpt lat="43.07607" lon="12.5517783"><ele>201.5</ele><time>2026-04-18T14:12:24.973Z</time></trkpt><trkpt lat="43.07595" lon="12.5517317"><ele>201.25</ele><time>2026-04-18T14:12:25.973Z</time></trkpt><trkpt lat="43.07584" lon="12.5516833"><ele>201.0</ele><time>2026-04-18T14:12:26.973Z</time></trkpt><trkpt lat="43.075735" lon="12.5516383"><ele>200.66666666666666</ele><time>2026-04-18T14:12:27.973Z</time></trkpt><trkpt lat="43.07564" lon="12.551595"><ele>200.33333333333331</ele><time>2026-04-18T14:12:28.973Z</time></trkpt><trkpt lat="43.0755617" lon="12.5515617"><ele>200.0</ele><time>2026-04-18T14:12:29.973Z</time></trkpt><trkpt lat="43.0754967" lon="12.551525"><ele>199.66666666666666</ele><time>2026-04-18T14:12:30.973Z</time></trkpt><trkpt lat="43.0754433" lon="12.5514717"><ele>199.33333333333331</ele><time>2026-04-18T14:12:31.973Z</time></trkpt><trkpt lat="43.0754017" lon="12.5514"><ele>199.0</ele><time>2026-04-18T14:12:32.973Z</time></trkpt><trkpt lat="43.075375" lon="12.55131"><ele>199.16666666666666</ele><time>2026-04-18T14:12:33.973Z</time></trkpt><trkpt lat="43.07536" lon="12.5512033"><ele>199.33333333333331</ele><time>2026-04-18T14:12:34.973Z</time></trkpt><trkpt lat="43.0753517" lon="12.5510883"><ele>199.5</ele><time>2026-04-18T14:12:35.973Z</time></trkpt><trkpt lat="43.0753483" lon="12.5509633"><ele>199.66666666666669</ele><time>2026-04-18T14:12:36.973Z</time></trkpt><trkpt lat="43.075345" lon="12.5508267"><ele>199.83333333333334</ele><time>2026-04-18T14:12:37.973Z</time></trkpt><trkpt lat="43.0753383" lon="12.550705"><ele>200.0</ele><time>2026-04-18T14:12:38.973Z</time></trkpt><trkpt lat="43.07533" lon="12.5505933"><ele>200.00000000000003</ele><time>2026-04-18T14:12:39.973Z</time></trkpt><trkpt lat="43.0753233" lon="12.5504883"><ele>200.0</ele><time>2026-04-18T14:12:40.973Z</time></trkpt><trkpt lat="43.0753133" lon="12.5503967"><ele>200.0</ele><time>2026-04-18T14:12:41.973Z</time></trkpt><trkpt lat="43.0753067" lon="12.5503083"><ele>200.0</ele><time>2026-04-18T14:12:42.973Z</time></trkpt><trkpt lat="43.075305" lon="12.5502083"><ele>200.00000000000003</ele><time>2026-04-18T14:12:43.973Z</time></trkpt><trkpt lat="43.0753067" lon="12.5500783"><ele>200.0</ele><time>2026-04-18T14:12:44.973Z</time></trkpt><trkpt lat="43.0753167" lon="12.5499467"><ele>199.6</ele><time>2026-04-18T14:12:45.973Z</time></trkpt><trkpt lat="43.0753317" lon="12.54982"><ele>199.2</ele><time>2026-04-18T14:12:46.973Z</time></trkpt><trkpt lat="43.07534" lon="12.5496867"><ele>198.8</ele><time>2026-04-18T14:12:47.973Z</time></trkpt><trkpt lat="43.0753483" lon="12.54955"><ele>198.4</ele><time>2026-04-18T14:12:48.973Z</time></trkpt><trkpt lat="43.0753517" lon="12.5494233"><ele>198.0</ele><time>2026-04-18T14:12:49.973Z</time></trkpt><trkpt lat="43.0753617" lon="12.5493"><ele>198.0</ele><time>2026-04-18T14:12:50.973Z</time></trkpt><trkpt lat="43.0753717" lon="12.5491833"><ele>198.0</ele><time>2026-04-18T14:12:51.973Z</time></trkpt><trkpt lat="43.0753817" lon="12.54907"><ele>198.0</ele><time>2026-04-18T14:12:52.973Z</time></trkpt><trkpt lat="43.075395" lon="12.548945"><ele>198.0</ele><time>2026-04-18T14:12:53.973Z</time></trkpt><trkpt lat="43.0754117" lon="12.5488033"><ele>198.0</ele><time>2026-04-18T14:12:54.973Z</time></trkpt><trkpt lat="43.075435" lon="12.5486517"><ele>198.5</ele><time>2026-04-18T14:12:55.973Z</time></trkpt><trkpt lat="43.0754683" lon="12.5484883"><ele>199.0</ele><time>2026-04-18T14:12:56.973Z</time></trkpt><trkpt lat="43.0755017" lon="12.5483267"><ele>199.5</ele><time>2026-04-18T14:12:57.973Z</time></trkpt><trkpt lat="43.0755367" lon="12.5481567"><ele>200.0</ele><time>2026-04-18T14:12:58.973Z</time></trkpt><trkpt lat="43.0755717" lon="12.5479867"><ele>200.25</ele><time>2026-04-18T14:12:59.973Z</time></trkpt><trkpt lat="43.0756067" lon="12.5478067"><ele>200.5</ele><time>2026-04-18T14:13:00.973Z</time></trkpt><trkpt lat="43.0756467" lon="12.5476233"><ele>200.75</ele><time>2026-04-18T14:13:01.973Z</time></trkpt><trkpt lat="43.0756817" lon="12.5474383"><ele>201.0</ele><time>2026-04-18T14:13:02.973Z</time></trkpt><trkpt lat="43.0757183" lon="12.5472583"><ele>201.0</ele><time>2026-04-18T14:13:03.973Z</time></trkpt><trkpt lat="43.075755" lon="12.5470767"><ele>201.0</ele><time>2026-04-18T14:13:04.973Z</time></trkpt><trkpt lat="43.07578" lon="12.54691"><ele>201.0</ele><time>2026-04-18T14:13:05.973Z</time></trkpt><trkpt lat="43.0758017" lon="12.5467583"><ele>201.0</ele><time>2026-04-18T14:13:06.973Z</time></trkpt><trkpt lat="43.0758283" lon="12.5466133"><ele>201.5</ele><time>2026-04-18T14:13:07.973Z</time></trkpt><trkpt lat="43.0758533" lon="12.546465"><ele>202.0</ele><time>2026-04-18T14:13:08.973Z</time></trkpt><trkpt lat="43.0758917" lon="12.54631"><ele>202.5</ele><time>2026-04-18T14:13:09.973Z</time></trkpt><trkpt lat="43.0759283" lon="12.5461567"><ele>203.0</ele><time>2026-04-18T14:13:10.973Z</time></trkpt><trkpt lat="43.0759583" lon="12.5459883"><ele>203.0</ele><time>2026-04-18T14:13:11.973Z</time></trkpt><trkpt lat="43.0759867" lon="12.545845"><ele>203.0</ele><time>2026-04-18T14:13:12.973Z</time></trkpt><trkpt lat="43.0760183" lon="12.5456983"><ele>203.0</ele><time>2026-04-18T14:13:13.973Z</time></trkpt><trkpt lat="43.0760383" lon="12.5455733"><ele>203.0</ele><time>2026-04-18T14:13:14.973Z</time></trkpt><trkpt lat="43.0760533" lon="12.545455"><ele>203.0</ele><time>2026-04-18T14:13:15.973Z</time></trkpt><trkpt lat="43.07607" lon="12.5453317"><ele>203.0</ele><time>2026-04-18T14:13:16.973Z</time></trkpt><trkpt lat="43.0760833" lon="12.5451967"><ele>203.0</ele><time>2026-04-18T14:13:17.973Z</time></trkpt><trkpt lat="43.0761083" lon="12.5450667"><ele>203.0</ele><time>2026-04-18T14:13:18.973Z</time></trkpt><trkpt lat="43.0761267" lon="12.5449283"><ele>203.0</ele><time>2026-04-18T14:13:19.973Z</time></trkpt><trkpt lat="43.0761517" lon="12.5447817"><ele>203.0</ele><time>2026-04-18T14:13:20.973Z</time></trkpt><trkpt lat="43.07618" lon="12.5446367"><ele>202.75</ele><time>2026-04-18T14:13:21.973Z</time></trkpt><trkpt lat="43.076205" lon="12.544475"><ele>202.5</ele><time>2026-04-18T14:13:22.973Z</time></trkpt><trkpt lat="43.076225" lon="12.5443167"><ele>202.25</ele><time>2026-04-18T14:13:23.973Z</time></trkpt><trkpt lat="43.0762483" lon="12.5441617"><ele>202.0</ele><time>2026-04-18T14:13:24.973Z</time></trkpt><trkpt lat="43.07627" lon="12.5440083"><ele>201.99999999999997</ele><time>2026-04-18T14:13:25.973Z</time></trkpt><trkpt lat="43.07629" lon="12.543865"><ele>202.0</ele><time>2026-04-18T14:13:26.973Z</time></trkpt><trkpt lat="43.0763117" lon="12.5437317"><ele>202.0</ele><time>2026-04-18T14:13:27.973Z</time></trkpt><trkpt lat="43.0763283" lon="12.5436133"><ele>202.0</ele><time>2026-04-18T14:13:28.973Z</time></trkpt><trkpt lat="43.0763567" lon="12.54351"><ele>201.99999999999997</ele><time>2026-04-18T14:13:29.973Z</time></trkpt><trkpt lat="43.07639" lon="12.5434317"><ele>202.0</ele><time>2026-04-18T14:13:30.973Z</time></trkpt><trkpt lat="43.0764417" lon="12.5433517"><ele>201.99999999999997</ele><time>2026-04-18T14:13:31.973Z</time></trkpt><trkpt lat="43.07651" lon="12.5432783"><ele>202.0</ele><time>2026-04-18T14:13:32.973Z</time></trkpt><trkpt lat="43.0765867" lon="12.5432167"><ele>202.0</ele><time>2026-04-18T14:13:33.973Z</time></trkpt><trkpt lat="43.0766667" lon="12.5431733"><ele>202.0</ele><time>2026-04-18T14:13:34.973Z</time></trkpt><trkpt lat="43.076755" lon="12.543165"><ele>201.99999999999997</ele><time>2026-04-18T14:13:35.973Z</time></trkpt><trkpt lat="43.0768483" lon="12.5431883"><ele>202.0</ele><time>2026-04-18T14:13:36.973Z</time></trkpt><trkpt lat="43.076965" lon="12.5432367"><ele>202.0</ele><time>2026-04-18T14:13:37.973Z</time></trkpt><trkpt lat="43.0770867" lon="12.5432983"><ele>202.0</ele><time>2026-04-18T14:13:38.973Z</time></trkpt><trkpt lat="43.0772167" lon="12.5433583"><ele>202.0</ele><time>2026-04-18T14:13:39.973Z</time></trkpt><trkpt lat="43.0773617" lon="12.54342"><ele>202.0</ele><time>2026-04-18T14:13:40.973Z</time></trkpt><trkpt lat="43.0775183" lon="12.5434817"><ele>201.66666666666666</ele><time>2026-04-18T14:13:41.973Z</time></trkpt><trkpt lat="43.0776733" lon="12.5435383"><ele>201.33333333333331</ele><time>2026-04-18T14:13:42.973Z</time></trkpt><trkpt lat="43.07782" lon="12.5436033"><ele>201.0</ele><time>2026-04-18T14:13:43.973Z</time></trkpt><trkpt lat="43.0779733" lon="12.5436617"><ele>200.66666666666669</ele><time>2026-04-18T14:13:44.973Z</time></trkpt><trkpt lat="43.0781283" lon="12.543715"><ele>200.33333333333334</ele><time>2026-04-18T14:13:45.973Z</time></trkpt><trkpt lat="43.0782783" lon="12.5437683"><ele>200.0</ele><time>2026-04-18T14:13:46.973Z</time></trkpt><trkpt lat="43.0784317" lon="12.5438367"><ele>199.33333333333334</ele><time>2026-04-18T14:13:47.973Z</time></trkpt><trkpt lat="43.07858" lon="12.543895"><ele>198.66666666666669</ele><time>2026-04-18T14:13:48.973Z</time></trkpt><trkpt lat="43.0787333" lon="12.5439667"><ele>198.0</ele><time>2026-04-18T14:13:49.973Z</time></trkpt><trkpt lat="43.0788867" lon="12.54405"><ele>198.0</ele><time>2026-04-18T14:13:50.973Z</time></trkpt><trkpt lat="43.0790483" lon="12.5441417"><ele>198.0</ele><time>2026-04-18T14:13:51.973Z</time></trkpt><trkpt lat="43.0792083" lon="12.5442317"><ele>198.0</ele><time>2026-04-18T14:13:52.973Z</time></trkpt><trkpt lat="43.0793717" lon="12.5443367"><ele>198.33333333333331</ele><time>2026-04-18T14:13:53.973Z</time></trkpt><trkpt lat="43.0795433" lon="12.544435"><ele>198.66666666666666</ele><time>2026-04-18T14:13:54.973Z</time></trkpt><trkpt lat="43.07971" lon="12.54454"><ele>199.0</ele><time>2026-04-18T14:13:55.973Z</time></trkpt><trkpt lat="43.079885" lon="12.5446367"><ele>200.33333333333331</ele><time>2026-04-18T14:13:56.973Z</time></trkpt><trkpt lat="43.0800567" lon="12.5447433"><ele>201.66666666666669</ele><time>2026-04-18T14:13:57.973Z</time></trkpt><trkpt lat="43.0802333" lon="12.5448483"><ele>203.0</ele><time>2026-04-18T14:13:58.973Z</time></trkpt><trkpt lat="43.0804133" lon="12.5449517"><ele>203.0</ele><time>2026-04-18T14:13:59.973Z</time></trkpt><trkpt lat="43.0805867" lon="12.5450517"><ele>203.0</ele><time>2026-04-18T14:14:00.973Z</time></trkpt><trkpt lat="43.08074" lon="12.5451467"><ele>203.0</ele><time>2026-04-18T14:14:01.973Z</time></trkpt><trkpt lat="43.0808817" lon="12.5452183"><ele>203.0</ele><time>2026-04-18T14:14:02.973Z</time></trkpt><trkpt lat="43.0810067" lon="12.5452717"><ele>203.0</ele><time>2026-04-18T14:14:03.973Z</time></trkpt><trkpt lat="43.08113" lon="12.5453133"><ele>203.0</ele><time>2026-04-18T14:14:04.973Z</time></trkpt><trkpt lat="43.0812517" lon="12.5453517"><ele>203.0</ele><time>2026-04-18T14:14:05.973Z</time></trkpt><trkpt lat="43.08138" lon="12.54538"><ele>203.0</ele><time>2026-04-18T14:14:06.973Z</time></trkpt><trkpt lat="43.0815233" lon="12.5454017"><ele>203.0</ele><time>2026-04-18T14:14:07.973Z</time></trkpt><trkpt lat="43.08167" lon="12.54541"><ele>203.0</ele><time>2026-04-18T14:14:08.973Z</time></trkpt><trkpt lat="43.0818133" lon="12.5454167"><ele>203.0</ele><time>2026-04-18T14:14:09.973Z</time></trkpt><trkpt lat="43.0819517" lon="12.54541"><ele>203.0</ele><time>2026-04-18T14:14:10.973Z</time></trkpt><trkpt lat="43.08209" lon="12.5454"><ele>203.0</ele><time>2026-04-18T14:14:11.973Z</time></trkpt><trkpt lat="43.0822333" lon="12.5453933"><ele>203.0</ele><time>2026-04-18T14:14:12.973Z</time></trkpt><trkpt lat="43.0823817" lon="12.54538"><ele>203.0</ele><time>2026-04-18T14:14:13.973Z</time></trkpt><trkpt lat="43.0825217" lon="12.5453633"><ele>203.0</ele><time>2026-04-18T14:14:14.973Z</time></trkpt><trkpt lat="43.082655" lon="12.5453467"><ele>203.0</ele><time>2026-04-18T14:14:15.973Z</time></trkpt><trkpt lat="43.0827883" lon="12.5453317"><ele>203.0</ele><time>2026-04-18T14:14:16.973Z</time></trkpt><trkpt lat="43.08292" lon="12.5453183"><ele>203.0</ele><time>2026-04-18T14:14:17.973Z</time></trkpt><trkpt lat="43.0830533" lon="12.5453017"><ele>203.0</ele><time>2026-04-18T14:14:18.973Z</time></trkpt><trkpt lat="43.0831933" lon="12.5452917"><ele>203.0</ele><time>2026-04-18T14:14:19.973Z</time></trkpt><trkpt lat="43.083335" lon="12.5452783"><ele>203.0</ele><time>2026-04-18T14:14:20.973Z</time></trkpt><trkpt lat="43.08348" lon="12.5452667"><ele>203.0</ele><time>2026-04-18T14:14:21.973Z</time></trkpt><trkpt lat="43.08363" lon="12.5452533"><ele>203.0</ele><time>2026-04-18T14:14:22.973Z</time></trkpt><trkpt lat="43.0837783" lon="12.54524"><ele>203.0</ele><time>2026-04-18T14:14:23.973Z</time></trkpt><trkpt lat="43.0839317" lon="12.54522"><ele>203.0</ele><time>2026-04-18T14:14:24.973Z</time></trkpt><trkpt lat="43.08408" lon="12.545205"><ele>202.66666666666669</ele><time>2026-04-18T14:14:25.973Z</time></trkpt><trkpt lat="43.0842317" lon="12.5451967"><ele>202.33333333333331</ele><time>2026-04-18T14:14:26.973Z</time></trkpt><trkpt lat="43.0843983" lon="12.5451867"><ele>202.0</ele><time>2026-04-18T14:14:27.973Z</time></trkpt><trkpt lat="43.08457" lon="12.545175"><ele>202.0</ele><time>2026-04-18T14:14:28.973Z</time></trkpt><trkpt lat="43.08475" lon="12.5451667"><ele>202.0</ele><time>2026-04-18T14:14:29.973Z</time></trkpt><trkpt lat="43.0849367" lon="12.54515"><ele>202.0</ele><time>2026-04-18T14:14:30.973Z</time></trkpt><trkpt lat="43.08513" lon="12.5451333"><ele>202.33333333333331</ele><time>2026-04-18T14:14:31.973Z</time></trkpt><trkpt lat="43.0853117" lon="12.54512"><ele>202.66666666666669</ele><time>2026-04-18T14:14:32.973Z</time></trkpt><trkpt lat="43.0854917" lon="12.5451067"><ele>203.0</ele><time>2026-04-18T14:14:33.973Z</time></trkpt><trkpt lat="43.0856733" lon="12.5450933"><ele>202.66666666666669</ele><time>2026-04-18T14:14:34.973Z</time></trkpt><trkpt lat="43.0858617" lon="12.5450783"><ele>202.33333333333331</ele><time>2026-04-18T14:14:35.973Z</time></trkpt><trkpt lat="43.0860383" lon="12.5450683"><ele>202.0</ele><time>2026-04-18T14:14:36.973Z</time></trkpt><trkpt lat="43.0862017" lon="12.5450533"><ele>202.0</ele><time>2026-04-18T14:14:37.973Z</time></trkpt><trkpt lat="43.0863533" lon="12.545045"><ele>202.0</ele><time>2026-04-18T14:14:38.973Z</time></trkpt><trkpt lat="43.0864983" lon="12.5450333"><ele>202.0</ele><time>2026-04-18T14:14:39.973Z</time></trkpt><trkpt lat="43.08664" lon="12.5450283"><ele>202.0</ele><time>2026-04-18T14:14:40.973Z</time></trkpt><trkpt lat="43.0867733" lon="12.545015"><ele>202.0</ele><time>2026-04-18T14:14:41.973Z</time></trkpt><trkpt lat="43.0869017" lon="12.5449983"><ele>202.0</ele><time>2026-04-18T14:14:42.973Z</time></trkpt><trkpt lat="43.0870333" lon="12.5449867"><ele>202.0</ele><time>2026-04-18T14:14:43.973Z</time></trkpt><trkpt lat="43.08717" lon="12.5449767"><ele>202.0</ele><time>2026-04-18T14:14:44.973Z</time></trkpt><trkpt lat="43.0873117" lon="12.5449683"><ele>202.0</ele><time>2026-04-18T14:14:45.973Z</time></trkpt><trkpt lat="43.08745" lon="12.5449583"><ele>202.0</ele><time>2026-04-18T14:14:46.973Z</time></trkpt><trkpt lat="43.0875783" lon="12.5449467"><ele>202.0</ele><time>2026-04-18T14:14:47.973Z</time></trkpt><trkpt lat="43.0877017" lon="12.5449383"><ele>202.0</ele><time>2026-04-18T14:14:48.973Z</time></trkpt><trkpt lat="43.0878167" lon="12.544925"><ele>202.0</ele><time>2026-04-18T14:14:49.973Z</time></trkpt><trkpt lat="43.087925" lon="12.54492"><ele>202.0</ele><time>2026-04-18T14:14:50.973Z</time></trkpt><trkpt lat="43.088025" lon="12.54491"><ele>202.0</ele><time>2026-04-18T14:14:51.973Z</time></trkpt><trkpt lat="43.0881167" lon="12.5448883"><ele>202.0</ele><time>2026-04-18T14:14:52.973Z</time></trkpt><trkpt lat="43.088195" lon="12.5448517"><ele>202.0</ele><time>2026-04-18T14:14:53.973Z</time></trkpt><trkpt lat="43.08826" lon="12.5447883"><ele>202.39999999999998</ele><time>2026-04-18T14:14:54.973Z</time></trkpt><trkpt lat="43.0883183" lon="12.5447117"><ele>202.79999999999998</ele><time>2026-04-18T14:14:55.973Z</time></trkpt><trkpt lat="43.0883667" lon="12.54462"><ele>203.2</ele><time>2026-04-18T14:14:56.973Z</time></trkpt><trkpt lat="43.08842" lon="12.5445117"><ele>203.6</ele><time>2026-04-18T14:14:57.973Z</time></trkpt><trkpt lat="43.0884867" lon="12.5443983"><ele>204.0</ele><time>2026-04-18T14:14:58.973Z</time></trkpt><trkpt lat="43.0885683" lon="12.544275"><ele>204.25</ele><time>2026-04-18T14:14:59.973Z</time></trkpt><trkpt lat="43.0886567" lon="12.5441417"><ele>204.5</ele><time>2026-04-18T14:15:00.973Z</time></trkpt><trkpt lat="43.0887383" lon="12.544025"><ele>204.75</ele><time>2026-04-18T14:15:01.973Z</time></trkpt><trkpt lat="43.08881" lon="12.5439017"><ele>205.0</ele><time>2026-04-18T14:15:02.973Z</time></trkpt><trkpt lat="43.088885" lon="12.5437583"><ele>204.75</ele><time>2026-04-18T14:15:03.973Z</time></trkpt><trkpt lat="43.0889533" lon="12.5436017"><ele>204.5</ele><time>2026-04-18T14:15:04.973Z</time></trkpt><trkpt lat="43.0890083" lon="12.543435"><ele>204.25</ele><time>2026-04-18T14:15:05.973Z</time></trkpt><trkpt lat="43.0890583" lon="12.5432517"><ele>204.0</ele><time>2026-04-18T14:15:06.973Z</time></trkpt><trkpt lat="43.08911" lon="12.5430483"><ele>203.66666666666669</ele><time>2026-04-18T14:15:07.973Z</time></trkpt><trkpt lat="43.089175" lon="12.54282"><ele>203.33333333333334</ele><time>2026-04-18T14:15:08.973Z</time></trkpt><trkpt lat="43.089235" lon="12.5425967"><ele>203.0</ele><time>2026-04-18T14:15:09.973Z</time></trkpt><trkpt lat="43.0893017" lon="12.5423667"><ele>203.0</ele><time>2026-04-18T14:15:10.973Z</time></trkpt><trkpt lat="43.0893533" lon="12.5421367"><ele>203.0</ele><time>2026-04-18T14:15:11.973Z</time></trkpt><trkpt lat="43.0893967" lon="12.541925"><ele>203.0</ele><time>2026-04-18T14:15:12.973Z</time></trkpt><trkpt lat="43.0894333" lon="12.5417033"><ele>202.66666666666669</ele><time>2026-04-18T14:15:13.973Z</time></trkpt><trkpt lat="43.089465" lon="12.54148"><ele>202.33333333333331</ele><time>2026-04-18T14:15:14.973Z</time></trkpt><trkpt lat="43.0895" lon="12.5412583"><ele>202.0</ele><time>2026-04-18T14:15:15.973Z</time></trkpt><trkpt lat="43.0895267" lon="12.541035"><ele>202.0</ele><time>2026-04-18T14:15:16.973Z</time></trkpt><trkpt lat="43.0895467" lon="12.54081"><ele>202.0</ele><time>2026-04-18T14:15:17.973Z</time></trkpt><trkpt lat="43.08957" lon="12.5405817"><ele>202.0</ele><time>2026-04-18T14:15:18.973Z</time></trkpt><trkpt lat="43.0895883" lon="12.5403533"><ele>202.33333333333331</ele><time>2026-04-18T14:15:19.973Z</time></trkpt><trkpt lat="43.0896117" lon="12.5401217"><ele>202.66666666666669</ele><time>2026-04-18T14:15:20.973Z</time></trkpt><trkpt lat="43.0896317" lon="12.539885"><ele>203.0</ele><time>2026-04-18T14:15:21.973Z</time></trkpt><trkpt lat="43.0896517" lon="12.5396567"><ele>203.0</ele><time>2026-04-18T14:15:22.973Z</time></trkpt><trkpt lat="43.089675" lon="12.5394567"><ele>203.0</ele><time>2026-04-18T14:15:23.973Z</time></trkpt><trkpt lat="43.0896917" lon="12.539255"><ele>203.0</ele><time>2026-04-18T14:15:24.973Z</time></trkpt><trkpt lat="43.0897133" lon="12.539055"><ele>203.0</ele><time>2026-04-18T14:15:25.973Z</time></trkpt><trkpt lat="43.0897333" lon="12.5388483"><ele>203.33333333333334</ele><time>2026-04-18T14:15:26.973Z</time></trkpt><trkpt lat="43.08976" lon="12.53864"><ele>203.66666666666669</ele><time>2026-04-18T14:15:27.973Z</time></trkpt><trkpt lat="43.089785" lon="12.5384383"><ele>204.0</ele><time>2026-04-18T14:15:28.973Z</time></trkpt><trkpt lat="43.0898067" lon="12.5382233"><ele>204.0</ele><time>2026-04-18T14:15:29.973Z</time></trkpt><trkpt lat="43.089825" lon="12.53801"><ele>204.0</ele><time>2026-04-18T14:15:30.973Z</time></trkpt><trkpt lat="43.0898433" lon="12.5377917"><ele>204.0</ele><time>2026-04-18T14:15:31.973Z</time></trkpt><trkpt lat="43.0898683" lon="12.53759"><ele>204.0</ele><time>2026-04-18T14:15:32.973Z</time></trkpt><trkpt lat="43.0898983" lon="12.5373983"><ele>204.0</ele><time>2026-04-18T14:15:33.973Z</time></trkpt><trkpt lat="43.089935" lon="12.5372133"><ele>204.0</ele><time>2026-04-18T14:15:34.973Z</time></trkpt><trkpt lat="43.089975" lon="12.5370417"><ele>204.0</ele><time>2026-04-18T14:15:35.973Z</time></trkpt><trkpt lat="43.0900167" lon="12.5368733"><ele>203.75</ele><time>2026-04-18T14:15:36.973Z</time></trkpt><trkpt lat="43.0900617" lon="12.5366983"><ele>203.5</ele><time>2026-04-18T14:15:37.973Z</time></trkpt><trkpt lat="43.0901117" lon="12.5365167"><ele>203.25</ele><time>2026-04-18T14:15:38.973Z</time></trkpt><trkpt lat="43.0901633" lon="12.5363333"><ele>203.0</ele><time>2026-04-18T14:15:39.973Z</time></trkpt><trkpt lat="43.0902167" lon="12.5361383"><ele>203.0</ele><time>2026-04-18T14:15:40.973Z</time></trkpt><trkpt lat="43.0902617" lon="12.535945"><ele>203.0</ele><time>2026-04-18T14:15:41.973Z</time></trkpt><trkpt lat="43.0903017" lon="12.53575"><ele>203.0</ele><time>2026-04-18T14:15:42.973Z</time></trkpt><trkpt lat="43.0903417" lon="12.5355733"><ele>203.0</ele><time>2026-04-18T14:15:43.973Z</time></trkpt><trkpt lat="43.0903783" lon="12.5353917"><ele>203.25</ele><time>2026-04-18T14:15:44.973Z</time></trkpt><trkpt lat="43.09041" lon="12.5352"><ele>203.5</ele><time>2026-04-18T14:15:45.973Z</time></trkpt><trkpt lat="43.0904367" lon="12.534995"><ele>203.75</ele><time>2026-04-18T14:15:46.973Z</time></trkpt><trkpt lat="43.0904667" lon="12.5348"><ele>204.0</ele><time>2026-04-18T14:15:47.973Z</time></trkpt><trkpt lat="43.0905" lon="12.5346017"><ele>203.75</ele><time>2026-04-18T14:15:48.973Z</time></trkpt><trkpt lat="43.0905483" lon="12.53441"><ele>203.5</ele><time>2026-04-18T14:15:49.973Z</time></trkpt><trkpt lat="43.09059" lon="12.53424"><ele>203.25</ele><time>2026-04-18T14:15:50.973Z</time></trkpt><trkpt lat="43.0906333" lon="12.5340567"><ele>203.0</ele><time>2026-04-18T14:15:51.973Z</time></trkpt><trkpt lat="43.09067" lon="12.5338867"><ele>203.0</ele><time>2026-04-18T14:15:52.973Z</time></trkpt><trkpt lat="43.0907083" lon="12.533735"><ele>203.0</ele><time>2026-04-18T14:15:53.973Z</time></trkpt><trkpt lat="43.0907417" lon="12.5335933"><ele>203.0</ele><time>2026-04-18T14:15:54.973Z</time></trkpt><trkpt lat="43.090775" lon="12.53345"><ele>203.0</ele><time>2026-04-18T14:15:55.973Z</time></trkpt><trkpt lat="43.090805" lon="12.5332983"><ele>202.75</ele><time>2026-04-18T14:15:56.973Z</time></trkpt><trkpt lat="43.090835" lon="12.53313"><ele>202.5</ele><time>2026-04-18T14:15:57.973Z</time></trkpt><trkpt lat="43.0908583" lon="12.5329517"><ele>202.25</ele><time>2026-04-18T14:15:58.973Z</time></trkpt><trkpt lat="43.0908817" lon="12.5327467"><ele>202.0</ele><time>2026-04-18T14:15:59.973Z</time></trkpt><trkpt lat="43.090905" lon="12.5325167"><ele>202.0</ele><time>2026-04-18T14:16:00.972Z</time></trkpt><trkpt lat="43.090925" lon="12.53229"><ele>202.0</ele><time>2026-04-18T14:16:01.972Z</time></trkpt><trkpt lat="43.0909533" lon="12.53206"><ele>202.0</ele><time>2026-04-18T14:16:02.972Z</time></trkpt><trkpt lat="43.09098" lon="12.5318233"><ele>202.33333333333331</ele><time>2026-04-18T14:16:03.972Z</time></trkpt><trkpt lat="43.09101" lon="12.5316117"><ele>202.66666666666669</ele><time>2026-04-18T14:16:04.972Z</time></trkpt><trkpt lat="43.0910367" lon="12.5313933"><ele>203.0</ele><time>2026-04-18T14:16:05.972Z</time></trkpt><trkpt lat="43.0910633" lon="12.5311767"><ele>203.0</ele><time>2026-04-18T14:16:06.972Z</time></trkpt><trkpt lat="43.09108" lon="12.53096"><ele>203.0</ele><time>2026-04-18T14:16:07.972Z</time></trkpt><trkpt lat="43.0910967" lon="12.5307433"><ele>203.0</ele><time>2026-04-18T14:16:08.972Z</time></trkpt><trkpt lat="43.0911167" lon="12.5305317"><ele>202.33333333333334</ele><time>2026-04-18T14:16:09.972Z</time></trkpt><trkpt lat="43.09114" lon="12.5303217"><ele>201.66666666666669</ele><time>2026-04-18T14:16:10.972Z</time></trkpt><trkpt lat="43.0911683" lon="12.530105"><ele>201.0</ele><time>2026-04-18T14:16:11.972Z</time></trkpt><trkpt lat="43.0912017" lon="12.5298883"><ele>201.0</ele><time>2026-04-18T14:16:12.972Z</time></trkpt><trkpt lat="43.0912367" lon="12.5296683"><ele>201.0</ele><time>2026-04-18T14:16:13.972Z</time></trkpt><trkpt lat="43.09127" lon="12.529435"><ele>201.0</ele><time>2026-04-18T14:16:14.972Z</time></trkpt><trkpt lat="43.0913033" lon="12.5292033"><ele>201.33333333333331</ele><time>2026-04-18T14:16:15.972Z</time></trkpt><trkpt lat="43.0913317" lon="12.5289633"><ele>201.66666666666666</ele><time>2026-04-18T14:16:16.972Z</time></trkpt><trkpt lat="43.09136" lon="12.5287217"><ele>202.0</ele><time>2026-04-18T14:16:17.972Z</time></trkpt><trkpt lat="43.0913883" lon="12.5284783"><ele>202.33333333333331</ele><time>2026-04-18T14:16:18.972Z</time></trkpt><trkpt lat="43.091415" lon="12.5282417"><ele>202.66666666666669</ele><time>2026-04-18T14:16:19.972Z</time></trkpt><trkpt lat="43.0914417" lon="12.5280083"><ele>203.0</ele><time>2026-04-18T14:16:20.972Z</time></trkpt><trkpt lat="43.0914667" lon="12.5277883"><ele>203.0</ele><time>2026-04-18T14:16:21.972Z</time></trkpt><trkpt lat="43.0914883" lon="12.5275867"><ele>203.0</ele><time>2026-04-18T14:16:22.972Z</time></trkpt><trkpt lat="43.0915083" lon="12.5273983"><ele>203.0</ele><time>2026-04-18T14:16:23.972Z</time></trkpt><trkpt lat="43.0915267" lon="12.5272217"><ele>203.0</ele><time>2026-04-18T14:16:24.972Z</time></trkpt><trkpt lat="43.09155" lon="12.52704"><ele>203.0</ele><time>2026-04-18T14:16:25.972Z</time></trkpt><trkpt lat="43.0915733" lon="12.526855"><ele>203.0</ele><time>2026-04-18T14:16:26.972Z</time></trkpt><trkpt lat="43.0915917" lon="12.5266617"><ele>203.0</ele><time>2026-04-18T14:16:27.972Z</time></trkpt><trkpt lat="43.091615" lon="12.5264633"><ele>203.0</ele><time>2026-04-18T14:16:28.972Z</time></trkpt><trkpt lat="43.0916417" lon="12.5262483"><ele>202.66666666666669</ele><time>2026-04-18T14:16:29.972Z</time></trkpt><trkpt lat="43.0916733" lon="12.5260383"><ele>202.33333333333331</ele><time>2026-04-18T14:16:30.972Z</time></trkpt><trkpt lat="43.09171" lon="12.5258117"><ele>202.0</ele><time>2026-04-18T14:16:31.972Z</time></trkpt><trkpt lat="43.0917517" lon="12.5255717"><ele>202.33333333333331</ele><time>2026-04-18T14:16:32.972Z</time></trkpt><trkpt lat="43.0917933" lon="12.525325"><ele>202.66666666666669</ele><time>2026-04-18T14:16:33.972Z</time></trkpt><trkpt lat="43.0918283" lon="12.5250983"><ele>203.0</ele><time>2026-04-18T14:16:34.972Z</time></trkpt><trkpt lat="43.0918583" lon="12.5248683"><ele>203.0</ele><time>2026-04-18T14:16:35.972Z</time></trkpt><trkpt lat="43.091885" lon="12.52463"><ele>203.0</ele><time>2026-04-18T14:16:36.972Z</time></trkpt><trkpt lat="43.0919067" lon="12.5243917"><ele>203.0</ele><time>2026-04-18T14:16:37.972Z</time></trkpt><trkpt lat="43.091935" lon="12.52415"><ele>203.0</ele><time>2026-04-18T14:16:38.972Z</time></trkpt><trkpt lat="43.0919633" lon="12.5239117"><ele>203.0</ele><time>2026-04-18T14:16:39.972Z</time></trkpt><trkpt lat="43.0919967" lon="12.5236733"><ele>203.0</ele><time>2026-04-18T14:16:40.972Z</time></trkpt><trkpt lat="43.0920317" lon="12.5234383"><ele>203.0</ele><time>2026-04-18T14:16:41.972Z</time></trkpt><trkpt lat="43.0920767" lon="12.5232017"><ele>203.0</ele><time>2026-04-18T14:16:42.972Z</time></trkpt><trkpt lat="43.0921267" lon="12.5229633"><ele>203.0</ele><time>2026-04-18T14:16:43.972Z</time></trkpt><trkpt lat="43.0921783" lon="12.5227267"><ele>203.0</ele><time>2026-04-18T14:16:44.972Z</time></trkpt><trkpt lat="43.092225" lon="12.5225117"><ele>203.0</ele><time>2026-04-18T14:16:45.972Z</time></trkpt><trkpt lat="43.0922617" lon="12.522315"><ele>203.0</ele><time>2026-04-18T14:16:46.972Z</time></trkpt><trkpt lat="43.092285" lon="12.5221283"><ele>203.0</ele><time>2026-04-18T14:16:47.972Z</time></trkpt><trkpt lat="43.0923033" lon="12.5219533"><ele>203.0</ele><time>2026-04-18T14:16:48.972Z</time></trkpt><trkpt lat="43.0923183" lon="12.5218067"><ele>203.0</ele><time>2026-04-18T14:16:49.972Z</time></trkpt><trkpt lat="43.09232" lon="12.521665"><ele>203.0</ele><time>2026-04-18T14:16:50.972Z</time></trkpt><trkpt lat="43.0923233" lon="12.5215233"><ele>203.0</ele><time>2026-04-18T14:16:51.972Z</time></trkpt><trkpt lat="43.0923133" lon="12.5213683"><ele>202.5</ele><time>2026-04-18T14:16:52.972Z</time></trkpt><trkpt lat="43.0923083" lon="12.5211967"><ele>202.0</ele><time>2026-04-18T14:16:53.972Z</time></trkpt><trkpt lat="43.092305" lon="12.52103"><ele>201.5</ele><time>2026-04-18T14:16:54.972Z</time></trkpt><trkpt lat="43.0923033" lon="12.5208717"><ele>201.0</ele><time>2026-04-18T14:16:55.972Z</time></trkpt><trkpt lat="43.092305" lon="12.5207233"><ele>201.0</ele><time>2026-04-18T14:16:56.972Z</time></trkpt><trkpt lat="43.0923017" lon="12.5205883"><ele>201.0</ele><time>2026-04-18T14:16:57.972Z</time></trkpt><trkpt lat="43.092305" lon="12.5204567"><ele>201.0</ele><time>2026-04-18T14:16:58.972Z</time></trkpt><trkpt lat="43.0923067" lon="12.5203317"><ele>201.0</ele><time>2026-04-18T14:16:59.972Z</time></trkpt><trkpt lat="43.0923" lon="12.5202267"><ele>201.0</ele><time>2026-04-18T14:17:00.972Z</time></trkpt><trkpt lat="43.0922883" lon="12.5200767"><ele>201.4</ele><time>2026-04-18T14:17:02.972Z</time></trkpt><trkpt lat="43.0922533" lon="12.5199833"><ele>201.8</ele><time>2026-04-18T14:17:04.972Z</time></trkpt><trkpt lat="43.0921533" lon="12.5199133"><ele>202.20000000000002</ele><time>2026-04-18T14:17:06.972Z</time></trkpt><trkpt lat="43.0920617" lon="12.5198983"><ele>202.60000000000002</ele><time>2026-04-18T14:17:07.972Z</time></trkpt><trkpt lat="43.0919533" lon="12.519875"><ele>203.0</ele><time>2026-04-18T14:17:08.972Z</time></trkpt><trkpt lat="43.0918417" lon="12.5198533"><ele>203.0</ele><time>2026-04-18T14:17:09.972Z</time></trkpt><trkpt lat="43.0917183" lon="12.519825"><ele>203.0</ele><time>2026-04-18T14:17:10.972Z</time></trkpt><trkpt lat="43.09158" lon="12.5197983"><ele>203.0</ele><time>2026-04-18T14:17:11.972Z</time></trkpt><trkpt lat="43.09144" lon="12.5197767"><ele>203.0</ele><time>2026-04-18T14:17:12.972Z</time></trkpt><trkpt lat="43.0912833" lon="12.5197467"><ele>202.75</ele><time>2026-04-18T14:17:13.972Z</time></trkpt><trkpt lat="43.0911317" lon="12.51972"><ele>202.5</ele><time>2026-04-18T14:17:14.972Z</time></trkpt><trkpt lat="43.0909867" lon="12.519705"><ele>202.25</ele><time>2026-04-18T14:17:15.972Z</time></trkpt><trkpt lat="43.090845" lon="12.5196817"><ele>202.0</ele><time>2026-04-18T14:17:16.972Z</time></trkpt><trkpt lat="43.0907083" lon="12.51965"><ele>202.0</ele><time>2026-04-18T14:17:17.972Z</time></trkpt><trkpt lat="43.090585" lon="12.519625"><ele>202.0</ele><time>2026-04-18T14:17:18.972Z</time></trkpt><trkpt lat="43.0904717" lon="12.519605"><ele>202.0</ele><time>2026-04-18T14:17:19.972Z</time></trkpt><trkpt lat="43.0903567" lon="12.519585"><ele>202.0</ele><time>2026-04-18T14:17:20.972Z</time></trkpt><trkpt lat="43.090245" lon="12.5195683"><ele>202.0</ele><time>2026-04-18T14:17:21.972Z</time></trkpt><trkpt lat="43.0901217" lon="12.5195467"><ele>202.0</ele><time>2026-04-18T14:17:22.972Z</time></trkpt><trkpt lat="43.089995" lon="12.5195233"><ele>202.0</ele><time>2026-04-18T14:17:23.972Z</time></trkpt><trkpt lat="43.08987" lon="12.5195"><ele>202.0</ele><time>2026-04-18T14:17:24.972Z</time></trkpt><trkpt lat="43.08974" lon="12.5194717"><ele>202.0</ele><time>2026-04-18T14:17:25.972Z</time></trkpt><trkpt lat="43.08961" lon="12.5194483"><ele>202.0</ele><time>2026-04-18T14:17:26.972Z</time></trkpt><trkpt lat="43.0894767" lon="12.51943"><ele>202.0</ele><time>2026-04-18T14:17:27.972Z</time></trkpt><trkpt lat="43.0893483" lon="12.5194017"><ele>202.0</ele><time>2026-04-18T14:17:28.972Z</time></trkpt><trkpt lat="43.089215" lon="12.5193767"><ele>201.75</ele><time>2026-04-18T14:17:29.972Z</time></trkpt><trkpt lat="43.0890817" lon="12.5193483"><ele>201.5</ele><time>2026-04-18T14:17:30.972Z</time></trkpt><trkpt lat="43.0889517" lon="12.5193183"><ele>201.25</ele><time>2026-04-18T14:17:31.972Z</time></trkpt><trkpt lat="43.0888267" lon="12.5192867"><ele>201.0</ele><time>2026-04-18T14:17:32.972Z</time></trkpt><trkpt lat="43.088705" lon="12.5192483"><ele>201.0</ele><time>2026-04-18T14:17:33.972Z</time></trkpt><trkpt lat="43.08858" lon="12.5192117"><ele>201.0</ele><time>2026-04-18T14:17:34.972Z</time></trkpt><trkpt lat="43.088465" lon="12.5191633"><ele>201.0</ele><time>2026-04-18T14:17:35.972Z</time></trkpt><trkpt lat="43.0883467" lon="12.5191067"><ele>201.0</ele><time>2026-04-18T14:17:36.972Z</time></trkpt><trkpt lat="43.0882183" lon="12.5190467"><ele>200.75</ele><time>2026-04-18T14:17:37.972Z</time></trkpt><trkpt lat="43.0880883" lon="12.519"><ele>200.5</ele><time>2026-04-18T14:17:38.972Z</time></trkpt><trkpt lat="43.087955" lon="12.5189367"><ele>200.25</ele><time>2026-04-18T14:17:39.972Z</time></trkpt><trkpt lat="43.087825" lon="12.5188717"><ele>200.0</ele><time>2026-04-18T14:17:40.972Z</time></trkpt><trkpt lat="43.0876933" lon="12.5188167"><ele>200.0</ele><time>2026-04-18T14:17:41.972Z</time></trkpt><trkpt lat="43.08756" lon="12.5187617"><ele>200.0</ele><time>2026-04-18T14:17:42.972Z</time></trkpt><trkpt lat="43.0874183" lon="12.5187033"><ele>200.0</ele><time>2026-04-18T14:17:43.972Z</time></trkpt><trkpt lat="43.0872833" lon="12.5186467"><ele>200.0</ele><time>2026-04-18T14:17:44.972Z</time></trkpt><trkpt lat="43.087155" lon="12.518595"><ele>200.75</ele><time>2026-04-18T14:17:45.972Z</time></trkpt><trkpt lat="43.0870333" lon="12.5185383"><ele>201.5</ele><time>2026-04-18T14:17:46.972Z</time></trkpt><trkpt lat="43.0869133" lon="12.518485"><ele>202.25</ele><time>2026-04-18T14:17:47.972Z</time></trkpt><trkpt lat="43.0868017" lon="12.5184383"><ele>203.0</ele><time>2026-04-18T14:17:48.972Z</time></trkpt><trkpt lat="43.086695" lon="12.5183883"><ele>202.8</ele><time>2026-04-18T14:17:49.972Z</time></trkpt><trkpt lat="43.08659" lon="12.5183417"><ele>202.60000000000002</ele><time>2026-04-18T14:17:50.972Z</time></trkpt><trkpt lat="43.0864917" lon="12.5182933"><ele>202.39999999999998</ele><time>2026-04-18T14:17:51.972Z</time></trkpt><trkpt lat="43.086395" lon="12.5182433"><ele>202.2</ele><time>2026-04-18T14:17:52.972Z</time></trkpt><trkpt lat="43.0863033" lon="12.518205"><ele>202.0</ele><time>2026-04-18T14:17:53.972Z</time></trkpt><trkpt lat="43.086215" lon="12.5181633"><ele>202.0</ele><time>2026-04-18T14:17:54.972Z</time></trkpt><trkpt lat="43.0861267" lon="12.5181217"><ele>202.0</ele><time>2026-04-18T14:17:55.972Z</time></trkpt><trkpt lat="43.0860333" lon="12.5180817"><ele>202.0</ele><time>2026-04-18T14:17:56.972Z</time></trkpt><trkpt lat="43.0859383" lon="12.5180383"><ele>202.0</ele><time>2026-04-18T14:17:57.972Z</time></trkpt><trkpt lat="43.085835" lon="12.5179917"><ele>202.0</ele><time>2026-04-18T14:17:58.972Z</time></trkpt><trkpt lat="43.0857317" lon="12.517935"><ele>201.75</ele><time>2026-04-18T14:17:59.972Z</time></trkpt><trkpt lat="43.08563" lon="12.5178633"><ele>201.5</ele><time>2026-04-18T14:18:00.972Z</time></trkpt><trkpt lat="43.0855333" lon="12.5177717"><ele>201.25</ele><time>2026-04-18T14:18:01.972Z</time></trkpt><trkpt lat="43.0854433" lon="12.5176583"><ele>201.0</ele><time>2026-04-18T14:18:02.972Z</time></trkpt><trkpt lat="43.08537" lon="12.51753"><ele>201.0</ele><time>2026-04-18T14:18:03.972Z</time></trkpt><trkpt lat="43.0853083" lon="12.5173883"><ele>201.0</ele><time>2026-04-18T14:18:04.972Z</time></trkpt><trkpt lat="43.0852583" lon="12.51724"><ele>201.0</ele><time>2026-04-18T14:18:05.972Z</time></trkpt><trkpt lat="43.0852283" lon="12.5170767"><ele>201.0</ele><time>2026-04-18T14:18:06.972Z</time></trkpt><trkpt lat="43.08521" lon="12.51691"><ele>200.5</ele><time>2026-04-18T14:18:07.972Z</time></trkpt><trkpt lat="43.0852017" lon="12.5167433"><ele>200.0</ele><time>2026-04-18T14:18:08.972Z</time></trkpt><trkpt lat="43.08521" lon="12.5165667"><ele>199.5</ele><time>2026-04-18T14:18:09.972Z</time></trkpt><trkpt lat="43.0852317" lon="12.516395"><ele>199.0</ele><time>2026-04-18T14:18:10.972Z</time></trkpt><trkpt lat="43.0852633" lon="12.5162217"><ele>198.75</ele><time>2026-04-18T14:18:11.972Z</time></trkpt><trkpt lat="43.0853033" lon="12.5160417"><ele>198.5</ele><time>2026-04-18T14:18:12.972Z</time></trkpt><trkpt lat="43.0853483" lon="12.515855"><ele>198.25</ele><time>2026-04-18T14:18:13.972Z</time></trkpt><trkpt lat="43.0853933" lon="12.5156717"><ele>198.0</ele><time>2026-04-18T14:18:14.972Z</time></trkpt><trkpt lat="43.0854333" lon="12.5154783"><ele>198.0</ele><time>2026-04-18T14:18:15.972Z</time></trkpt><trkpt lat="43.0854733" lon="12.5152917"><ele>198.0</ele><time>2026-04-18T14:18:16.972Z</time></trkpt><trkpt lat="43.0855133" lon="12.5151"><ele>198.0</ele><time>2026-04-18T14:18:17.972Z</time></trkpt><trkpt lat="43.0855517" lon="12.5149217"><ele>198.0</ele><time>2026-04-18T14:18:18.972Z</time></trkpt><trkpt lat="43.0855917" lon="12.5147433"><ele>198.0</ele><time>2026-04-18T14:18:19.972Z</time></trkpt><trkpt lat="43.0856283" lon="12.5145717"><ele>198.0</ele><time>2026-04-18T14:18:20.972Z</time></trkpt><trkpt lat="43.0856633" lon="12.5144067"><ele>198.0</ele><time>2026-04-18T14:18:21.972Z</time></trkpt><trkpt lat="43.0856967" lon="12.5142533"><ele>198.0</ele><time>2026-04-18T14:18:22.972Z</time></trkpt><trkpt lat="43.0857317" lon="12.514105"><ele>198.8</ele><time>2026-04-18T14:18:23.972Z</time></trkpt><trkpt lat="43.0857517" lon="12.5139583"><ele>199.60000000000002</ele><time>2026-04-18T14:18:24.972Z</time></trkpt><trkpt lat="43.0857517" lon="12.5138167"><ele>200.39999999999998</ele><time>2026-04-18T14:18:25.972Z</time></trkpt><trkpt lat="43.0857183" lon="12.5136783"><ele>201.2</ele><time>2026-04-18T14:18:26.972Z</time></trkpt><trkpt lat="43.0856583" lon="12.5135433"><ele>202.0</ele><time>2026-04-18T14:18:27.972Z</time></trkpt><trkpt lat="43.0855833" lon="12.5134233"><ele>202.0</ele><time>2026-04-18T14:18:28.972Z</time></trkpt><trkpt lat="43.0855" lon="12.5133117"><ele>202.0</ele><time>2026-04-18T14:18:29.972Z</time></trkpt><trkpt lat="43.0854267" lon="12.5132033"><ele>202.0</ele><time>2026-04-18T14:18:30.972Z</time></trkpt><trkpt lat="43.0853683" lon="12.5130867"><ele>202.0</ele><time>2026-04-18T14:18:31.972Z</time></trkpt><trkpt lat="43.085325" lon="12.51295"><ele>202.0</ele><time>2026-04-18T14:18:32.972Z</time></trkpt><trkpt lat="43.0853133" lon="12.5127983"><ele>202.0</ele><time>2026-04-18T14:18:33.972Z</time></trkpt><trkpt lat="43.0853233" lon="12.5126417"><ele>202.0</ele><time>2026-04-18T14:18:34.972Z</time></trkpt><trkpt lat="43.0853567" lon="12.5124717"><ele>202.0</ele><time>2026-04-18T14:18:35.972Z</time></trkpt><trkpt lat="43.0853967" lon="12.5123067"><ele>202.0</ele><time>2026-04-18T14:18:36.972Z</time></trkpt><trkpt lat="43.085445" lon="12.5121433"><ele>201.5</ele><time>2026-04-18T14:18:37.972Z</time></trkpt><trkpt lat="43.08549" lon="12.51198"><ele>201.0</ele><time>2026-04-18T14:18:38.972Z</time></trkpt><trkpt lat="43.0855317" lon="12.511825"><ele>200.5</ele><time>2026-04-18T14:18:39.972Z</time></trkpt><trkpt lat="43.0855717" lon="12.5116667"><ele>200.0</ele><time>2026-04-18T14:18:40.972Z</time></trkpt><trkpt lat="43.085615" lon="12.5115133"><ele>200.0</ele><time>2026-04-18T14:18:41.972Z</time></trkpt><trkpt lat="43.0856583" lon="12.5113583"><ele>200.0</ele><time>2026-04-18T14:18:42.972Z</time></trkpt><trkpt lat="43.0857" lon="12.5112017"><ele>200.0</ele><time>2026-04-18T14:18:43.972Z</time></trkpt><trkpt lat="43.08574" lon="12.511045"><ele>200.0</ele><time>2026-04-18T14:18:44.972Z</time></trkpt><trkpt lat="43.08578" lon="12.51089"><ele>199.75</ele><time>2026-04-18T14:18:45.972Z</time></trkpt><trkpt lat="43.0858183" lon="12.510735"><ele>199.5</ele><time>2026-04-18T14:18:46.972Z</time></trkpt><trkpt lat="43.085855" lon="12.5105767"><ele>199.25</ele><time>2026-04-18T14:18:47.972Z</time></trkpt><trkpt lat="43.0858967" lon="12.51042"><ele>199.0</ele><time>2026-04-18T14:18:48.972Z</time></trkpt><trkpt lat="43.0859383" lon="12.510265"><ele>199.0</ele><time>2026-04-18T14:18:49.972Z</time></trkpt><trkpt lat="43.0859833" lon="12.5101017"><ele>199.0</ele><time>2026-04-18T14:18:50.972Z</time></trkpt><trkpt lat="43.086025" lon="12.509945"><ele>199.0</ele><time>2026-04-18T14:18:51.972Z</time></trkpt><trkpt lat="43.086065" lon="12.5097867"><ele>199.0</ele><time>2026-04-18T14:18:52.972Z</time></trkpt><trkpt lat="43.0861117" lon="12.50963"><ele>198.5</ele><time>2026-04-18T14:18:53.972Z</time></trkpt><trkpt lat="43.0861483" lon="12.509475"><ele>198.0</ele><time>2026-04-18T14:18:54.972Z</time></trkpt><trkpt lat="43.0861883" lon="12.5093117"><ele>197.5</ele><time>2026-04-18T14:18:55.972Z</time></trkpt><trkpt lat="43.0862283" lon="12.509145"><ele>197.0</ele><time>2026-04-18T14:18:56.972Z</time></trkpt><trkpt lat="43.0862717" lon="12.5089833"><ele>197.0</ele><time>2026-04-18T14:18:57.972Z</time></trkpt><trkpt lat="43.0863167" lon="12.5088233"><ele>197.0</ele><time>2026-04-18T14:18:58.972Z</time></trkpt><trkpt lat="43.0863617" lon="12.5086583"><ele>197.0</ele><time>2026-04-18T14:18:59.972Z</time></trkpt><trkpt lat="43.0864083" lon="12.508495"><ele>197.0</ele><time>2026-04-18T14:19:00.972Z</time></trkpt><trkpt lat="43.086455" lon="12.5083383"><ele>197.25</ele><time>2026-04-18T14:19:01.972Z</time></trkpt><trkpt lat="43.0865083" lon="12.508185"><ele>197.5</ele><time>2026-04-18T14:19:02.972Z</time></trkpt><trkpt lat="43.0865717" lon="12.508035"><ele>197.75</ele><time>2026-04-18T14:19:03.972Z</time></trkpt><trkpt lat="43.0866417" lon="12.5078917"><ele>198.0</ele><time>2026-04-18T14:19:04.972Z</time></trkpt><trkpt lat="43.0867217" lon="12.5077517"><ele>198.25</ele><time>2026-04-18T14:19:05.972Z</time></trkpt><trkpt lat="43.0868083" lon="12.50762"><ele>198.5</ele><time>2026-04-18T14:19:06.972Z</time></trkpt><trkpt lat="43.0869033" lon="12.507495"><ele>198.75</ele><time>2026-04-18T14:19:07.972Z</time></trkpt><trkpt lat="43.0869883" lon="12.5073633"><ele>199.0</ele><time>2026-04-18T14:19:08.972Z</time></trkpt><trkpt lat="43.08708" lon="12.5072317"><ele>199.0</ele><time>2026-04-18T14:19:09.972Z</time></trkpt><trkpt lat="43.0871733" lon="12.5070917"><ele>199.0</ele><time>2026-04-18T14:19:10.972Z</time></trkpt><trkpt lat="43.0872633" lon="12.5069633"><ele>199.0</ele><time>2026-04-18T14:19:11.972Z</time></trkpt><trkpt lat="43.087355" lon="12.5068417"><ele>199.0</ele><time>2026-04-18T14:19:12.972Z</time></trkpt><trkpt lat="43.0874467" lon="12.5067217"><ele>199.5</ele><time>2026-04-18T14:19:13.972Z</time></trkpt><trkpt lat="43.0875317" lon="12.5066017"><ele>200.0</ele><time>2026-04-18T14:19:14.972Z</time></trkpt><trkpt lat="43.0876183" lon="12.506475"><ele>200.5</ele><time>2026-04-18T14:19:15.972Z</time></trkpt><trkpt lat="43.0877067" lon="12.50635"><ele>201.0</ele><time>2026-04-18T14:19:16.972Z</time></trkpt><trkpt lat="43.0878" lon="12.5062233"><ele>201.25</ele><time>2026-04-18T14:19:17.972Z</time></trkpt><trkpt lat="43.0878883" lon="12.5060933"><ele>201.5</ele><time>2026-04-18T14:19:18.972Z</time></trkpt><trkpt lat="43.0879767" lon="12.5059617"><ele>201.75</ele><time>2026-04-18T14:19:19.972Z</time></trkpt><trkpt lat="43.088065" lon="12.5058283"><ele>202.0</ele><time>2026-04-18T14:19:20.972Z</time></trkpt><trkpt lat="43.088155" lon="12.5057017"><ele>202.0</ele><time>2026-04-18T14:19:21.972Z</time></trkpt><trkpt lat="43.088245" lon="12.5055717"><ele>202.0</ele><time>2026-04-18T14:19:22.972Z</time></trkpt><trkpt lat="43.088335" lon="12.5054417"><ele>202.0</ele><time>2026-04-18T14:19:23.972Z</time></trkpt><trkpt lat="43.0884233" lon="12.5053"><ele>202.0</ele><time>2026-04-18T14:19:24.972Z</time></trkpt><trkpt lat="43.0885133" lon="12.5051633"><ele>201.75</ele><time>2026-04-18T14:19:25.972Z</time></trkpt><trkpt lat="43.0886067" lon="12.50503"><ele>201.5</ele><time>2026-04-18T14:19:26.972Z</time></trkpt><trkpt lat="43.0887033" lon="12.5049"><ele>201.25</ele><time>2026-04-18T14:19:27.972Z</time></trkpt><trkpt lat="43.0888" lon="12.50477"><ele>201.0</ele><time>2026-04-18T14:19:28.972Z</time></trkpt><trkpt lat="43.08889" lon="12.5046383"><ele>200.75</ele><time>2026-04-18T14:19:29.972Z</time></trkpt><trkpt lat="43.088985" lon="12.5045067"><ele>200.5</ele><time>2026-04-18T14:19:30.972Z</time></trkpt><trkpt lat="43.0890817" lon="12.5043667"><ele>200.25</ele><time>2026-04-18T14:19:31.972Z</time></trkpt><trkpt lat="43.0891783" lon="12.50422"><ele>200.0</ele><time>2026-04-18T14:19:32.972Z</time></trkpt><trkpt lat="43.089275" lon="12.5040783"><ele>200.0</ele><time>2026-04-18T14:19:33.972Z</time></trkpt><trkpt lat="43.0893733" lon="12.5039383"><ele>200.0</ele><time>2026-04-18T14:19:34.972Z</time></trkpt><trkpt lat="43.08947" lon="12.5037917"><ele>200.0</ele><time>2026-04-18T14:19:35.972Z</time></trkpt><trkpt lat="43.089575" lon="12.5036367"><ele>200.0</ele><time>2026-04-18T14:19:36.972Z</time></trkpt><trkpt lat="43.0896833" lon="12.503475"><ele>199.75</ele><time>2026-04-18T14:19:37.972Z</time></trkpt><trkpt lat="43.0897917" lon="12.5033183"><ele>199.5</ele><time>2026-04-18T14:19:38.972Z</time></trkpt><trkpt lat="43.0898983" lon="12.5031717"><ele>199.25</ele><time>2026-04-18T14:19:39.972Z</time></trkpt><trkpt lat="43.0899917" lon="12.5030383"><ele>199.0</ele><time>2026-04-18T14:19:40.972Z</time></trkpt><trkpt lat="43.09008" lon="12.5029117"><ele>199.0</ele><time>2026-04-18T14:19:41.972Z</time></trkpt><trkpt lat="43.0901733" lon="12.5027933"><ele>199.0</ele><time>2026-04-18T14:19:42.972Z</time></trkpt><trkpt lat="43.0902817" lon="12.502695"><ele>199.0</ele><time>2026-04-18T14:19:43.972Z</time></trkpt><trkpt lat="43.0903817" lon="12.5026333"><ele>199.0</ele><time>2026-04-18T14:19:44.972Z</time></trkpt><trkpt lat="43.0904883" lon="12.5026033"><ele>199.0</ele><time>2026-04-18T14:19:45.972Z</time></trkpt><trkpt lat="43.0906033" lon="12.5026"><ele>199.0</ele><time>2026-04-18T14:19:46.972Z</time></trkpt><trkpt lat="43.0907267" lon="12.5026233"><ele>199.0</ele><time>2026-04-18T14:19:47.972Z</time></trkpt><trkpt lat="43.0908517" lon="12.5026733"><ele>199.0</ele><time>2026-04-18T14:19:48.972Z</time></trkpt><trkpt lat="43.09098" lon="12.5027367"><ele>199.25</ele><time>2026-04-18T14:19:49.972Z</time></trkpt><trkpt lat="43.0911117" lon="12.5028"><ele>199.5</ele><time>2026-04-18T14:19:50.972Z</time></trkpt><trkpt lat="43.0912383" lon="12.5028683"><ele>199.75</ele><time>2026-04-18T14:19:51.972Z</time></trkpt><trkpt lat="43.0913667" lon="12.5029283"><ele>200.0</ele><time>2026-04-18T14:19:52.972Z</time></trkpt><trkpt lat="43.0914917" lon="12.50298"><ele>200.75</ele><time>2026-04-18T14:19:53.972Z</time></trkpt><trkpt lat="43.0916183" lon="12.5030367"><ele>201.5</ele><time>2026-04-18T14:19:54.972Z</time></trkpt><trkpt lat="43.0917417" lon="12.5030983"><ele>202.25</ele><time>2026-04-18T14:19:55.972Z</time></trkpt><trkpt lat="43.09187" lon="12.50316"><ele>203.0</ele><time>2026-04-18T14:19:56.972Z</time></trkpt><trkpt lat="43.0919933" lon="12.5032233"><ele>203.0</ele><time>2026-04-18T14:19:57.972Z</time></trkpt><trkpt lat="43.0921067" lon="12.50328"><ele>203.0</ele><time>2026-04-18T14:19:58.972Z</time></trkpt><trkpt lat="43.09221" lon="12.5033317"><ele>203.0</ele><time>2026-04-18T14:19:59.972Z</time></trkpt><trkpt lat="43.09231" lon="12.5033817"><ele>203.0</ele><time>2026-04-18T14:20:00.972Z</time></trkpt><trkpt lat="43.09241" lon="12.503415"><ele>203.0</ele><time>2026-04-18T14:20:01.972Z</time></trkpt><trkpt lat="43.0925" lon="12.5034167"><ele>203.16666666666669</ele><time>2026-04-18T14:20:02.972Z</time></trkpt><trkpt lat="43.0925767" lon="12.50339"><ele>203.33333333333334</ele><time>2026-04-18T14:20:03.972Z</time></trkpt><trkpt lat="43.0926467" lon="12.5033283"><ele>203.5</ele><time>2026-04-18T14:20:04.972Z</time></trkpt><trkpt lat="43.0927067" lon="12.503245"><ele>203.66666666666669</ele><time>2026-04-18T14:20:05.972Z</time></trkpt><trkpt lat="43.0927433" lon="12.50313"><ele>203.83333333333334</ele><time>2026-04-18T14:20:06.972Z</time></trkpt><trkpt lat="43.09278" lon="12.503"><ele>204.0</ele><time>2026-04-18T14:20:07.972Z</time></trkpt><trkpt lat="43.0928183" lon="12.5028383"><ele>203.5</ele><time>2026-04-18T14:20:08.972Z</time></trkpt><trkpt lat="43.092865" lon="12.502665"><ele>203.0</ele><time>2026-04-18T14:20:09.972Z</time></trkpt><trkpt lat="43.09291" lon="12.5025017"><ele>202.5</ele><time>2026-04-18T14:20:10.972Z</time></trkpt><trkpt lat="43.092955" lon="12.502335"><ele>202.0</ele><time>2026-04-18T14:20:11.972Z</time></trkpt><trkpt lat="43.0930033" lon="12.5021583"><ele>202.0</ele><time>2026-04-18T14:20:12.972Z</time></trkpt><trkpt lat="43.09305" lon="12.5019767"><ele>202.0</ele><time>2026-04-18T14:20:13.972Z</time></trkpt><trkpt lat="43.0930917" lon="12.5017917"><ele>202.0</ele><time>2026-04-18T14:20:14.972Z</time></trkpt><trkpt lat="43.0931367" lon="12.5016067"><ele>202.0</ele><time>2026-04-18T14:20:15.972Z</time></trkpt><trkpt lat="43.0931817" lon="12.5014217"><ele>202.0</ele><time>2026-04-18T14:20:16.972Z</time></trkpt><trkpt lat="43.0932233" lon="12.5012317"><ele>202.0</ele><time>2026-04-18T14:20:17.972Z</time></trkpt><trkpt lat="43.093265" lon="12.5010417"><ele>202.0</ele><time>2026-04-18T14:20:18.972Z</time></trkpt><trkpt lat="43.0933033" lon="12.5008617"><ele>202.0</ele><time>2026-04-18T14:20:19.972Z</time></trkpt><trkpt lat="43.0933383" lon="12.5006833"><ele>202.0</ele><time>2026-04-18T14:20:20.972Z</time></trkpt><trkpt lat="43.0933717" lon="12.5005117"><ele>202.0</ele><time>2026-04-18T14:20:21.972Z</time></trkpt><trkpt lat="43.0934067" lon="12.5003417"><ele>202.0</ele><time>2026-04-18T14:20:22.972Z</time></trkpt><trkpt lat="43.093435" lon="12.5001867"><ele>202.0</ele><time>2026-04-18T14:20:23.972Z</time></trkpt><trkpt lat="43.093465" lon="12.5000467"><ele>201.99999999999997</ele><time>2026-04-18T14:20:24.972Z</time></trkpt><trkpt lat="43.0934983" lon="12.4999133"><ele>202.0</ele><time>2026-04-18T14:20:25.972Z</time></trkpt><trkpt lat="43.0935217" lon="12.4997867"><ele>202.0</ele><time>2026-04-18T14:20:26.972Z</time></trkpt><trkpt lat="43.093545" lon="12.4996667"><ele>202.0</ele><time>2026-04-18T14:20:27.972Z</time></trkpt><trkpt lat="43.0935683" lon="12.4995583"><ele>201.99999999999997</ele><time>2026-04-18T14:20:28.972Z</time></trkpt><trkpt lat="43.09358" lon="12.4994583"><ele>202.0</ele><time>2026-04-18T14:20:29.972Z</time></trkpt><trkpt lat="43.0935967" lon="12.4993633"><ele>201.99999999999997</ele><time>2026-04-18T14:20:30.972Z</time></trkpt><trkpt lat="43.093625" lon="12.4992833"><ele>202.0</ele><time>2026-04-18T14:20:31.972Z</time></trkpt><trkpt lat="43.09369" lon="12.4991617"><ele>202.0</ele><time>2026-04-18T14:20:33.972Z</time></trkpt><trkpt lat="43.0937483" lon="12.4991017"><ele>202.0</ele><time>2026-04-18T14:20:37.972Z</time></trkpt><trkpt lat="43.0938067" lon="12.4990467"><ele>201.99999999999997</ele><time>2026-04-18T14:20:40.972Z</time></trkpt><trkpt lat="43.0938883" lon="12.4989767"><ele>202.0</ele><time>2026-04-18T14:20:42.972Z</time></trkpt><trkpt lat="43.0939533" lon="12.498865"><ele>202.0</ele><time>2026-04-18T14:20:44.972Z</time></trkpt><trkpt lat="43.094" lon="12.498695"><ele>202.0</ele><time>2026-04-18T14:20:46.972Z</time></trkpt><trkpt lat="43.0940217" lon="12.4986017"><ele>202.0</ele><time>2026-04-18T14:20:47.972Z</time></trkpt><trkpt lat="43.094045" lon="12.498515"><ele>202.0</ele><time>2026-04-18T14:20:48.972Z</time></trkpt><trkpt lat="43.0940967" lon="12.4983767"><ele>202.0</ele><time>2026-04-18T14:20:50.971Z</time></trkpt><trkpt lat="43.0941383" lon="12.4982933"><ele>201.99999999999997</ele><time>2026-04-18T14:20:53.971Z</time></trkpt><trkpt lat="43.0941717" lon="12.4981933"><ele>202.0</ele><time>2026-04-18T14:22:22.971Z</time></trkpt><trkpt lat="43.094215" lon="12.4980733"><ele>202.0</ele><time>2026-04-18T14:22:24.971Z</time></trkpt><trkpt lat="43.0942467" lon="12.4979933"><ele>202.0</ele><time>2026-04-18T14:22:25.971Z</time></trkpt><trkpt lat="43.0942833" lon="12.4979"><ele>201.99999999999997</ele><time>2026-04-18T14:22:26.971Z</time></trkpt><trkpt lat="43.0943233" lon="12.49779"><ele>202.0</ele><time>2026-04-18T14:22:27.971Z</time></trkpt><trkpt lat="43.0943683" lon="12.4976683"><ele>202.0</ele><time>2026-04-18T14:22:28.971Z</time></trkpt><trkpt lat="43.0944117" lon="12.4975567"><ele>202.0</ele><time>2026-04-18T14:22:29.971Z</time></trkpt><trkpt lat="43.094465" lon="12.49744"><ele>202.0</ele><time>2026-04-18T14:22:30.971Z</time></trkpt><trkpt lat="43.0945133" lon="12.4973083"><ele>202.0</ele><time>2026-04-18T14:22:31.971Z</time></trkpt><trkpt lat="43.0945667" lon="12.4971717"><ele>202.0</ele><time>2026-04-18T14:22:32.971Z</time></trkpt><trkpt lat="43.0946233" lon="12.4970267"><ele>202.0</ele><time>2026-04-18T14:22:33.971Z</time></trkpt><trkpt lat="43.0946783" lon="12.496895"><ele>202.0</ele><time>2026-04-18T14:22:34.971Z</time></trkpt><trkpt lat="43.0947333" lon="12.496745"><ele>202.0</ele><time>2026-04-18T14:22:35.971Z</time></trkpt><trkpt lat="43.0947917" lon="12.496595"><ele>202.0</ele><time>2026-04-18T14:22:36.971Z</time></trkpt><trkpt lat="43.0948533" lon="12.4964283"><ele>202.0</ele><time>2026-04-18T14:22:37.971Z</time></trkpt><trkpt lat="43.0949183" lon="12.496255"><ele>202.0</ele><time>2026-04-18T14:22:38.971Z</time></trkpt><trkpt lat="43.094995" lon="12.496065"><ele>202.0</ele><time>2026-04-18T14:22:39.971Z</time></trkpt><trkpt lat="43.0950767" lon="12.49587"><ele>202.0</ele><time>2026-04-18T14:22:40.971Z</time></trkpt><trkpt lat="43.095155" lon="12.4956767"><ele>202.0</ele><time>2026-04-18T14:22:41.971Z</time></trkpt><trkpt lat="43.0952317" lon="12.495485"><ele>202.0</ele><time>2026-04-18T14:22:42.971Z</time></trkpt><trkpt lat="43.0953033" lon="12.495295"><ele>202.0</ele><time>2026-04-18T14:22:43.971Z</time></trkpt><trkpt lat="43.095375" lon="12.495115"><ele>202.0</ele><time>2026-04-18T14:22:44.971Z</time></trkpt><trkpt lat="43.0954467" lon="12.4949383"><ele>202.0</ele><time>2026-04-18T14:22:45.971Z</time></trkpt><trkpt lat="43.0955133" lon="12.4947683"><ele>202.0</ele><time>2026-04-18T14:22:46.971Z</time></trkpt><trkpt lat="43.0955817" lon="12.4946017"><ele>201.75</ele><time>2026-04-18T14:22:47.971Z</time></trkpt><trkpt lat="43.0956517" lon="12.494435"><ele>201.5</ele><time>2026-04-18T14:22:48.971Z</time></trkpt><trkpt lat="43.09572" lon="12.494275"><ele>201.25</ele><time>2026-04-18T14:22:49.971Z</time></trkpt><trkpt lat="43.095785" lon="12.494105"><ele>201.0</ele><time>2026-04-18T14:22:50.971Z</time></trkpt><trkpt lat="43.0958367" lon="12.4939317"><ele>201.5</ele><time>2026-04-18T14:22:51.971Z</time></trkpt><trkpt lat="43.09587" lon="12.49376"><ele>202.0</ele><time>2026-04-18T14:22:52.971Z</time></trkpt><trkpt lat="43.0959" lon="12.4935883"><ele>202.5</ele><time>2026-04-18T14:22:53.971Z</time></trkpt><trkpt lat="43.0959267" lon="12.4934233"><ele>203.0</ele><time>2026-04-18T14:22:54.971Z</time></trkpt><trkpt lat="43.0959433" lon="12.4932633"><ele>203.0</ele><time>2026-04-18T14:22:55.971Z</time></trkpt><trkpt lat="43.0959617" lon="12.49311"><ele>203.0</ele><time>2026-04-18T14:22:56.971Z</time></trkpt><trkpt lat="43.0959733" lon="12.4929633"><ele>203.0</ele><time>2026-04-18T14:22:57.971Z</time></trkpt><trkpt lat="43.0959933" lon="12.49282"><ele>203.0</ele><time>2026-04-18T14:22:58.971Z</time></trkpt><trkpt lat="43.0960117" lon="12.4926817"><ele>203.0</ele><time>2026-04-18T14:22:59.971Z</time></trkpt><trkpt lat="43.0960217" lon="12.4925533"><ele>203.50000000000003</ele><time>2026-04-18T14:23:00.971Z</time></trkpt><trkpt lat="43.0960367" lon="12.4924367"><ele>204.0</ele><time>2026-04-18T14:23:01.971Z</time></trkpt><trkpt lat="43.09605" lon="12.4923467"><ele>204.5</ele><time>2026-04-18T14:23:02.971Z</time></trkpt><trkpt lat="43.0960667" lon="12.4922317"><ele>205.0</ele><time>2026-04-18T14:23:04.971Z</time></trkpt><trkpt lat="43.0960767" lon="12.492145"><ele>205.50000000000003</ele><time>2026-04-18T14:23:09.971Z</time></trkpt><trkpt lat="43.09597" lon="12.4920633"><ele>206.0</ele><time>2026-04-18T14:23:19.971Z</time></trkpt><trkpt lat="43.0958967" lon="12.4920267"><ele>206.20000000000002</ele><time>2026-04-18T14:23:20.971Z</time></trkpt><trkpt lat="43.0958117" lon="12.4919767"><ele>206.4</ele><time>2026-04-18T14:23:21.971Z</time></trkpt><trkpt lat="43.095715" lon="12.491925"><ele>206.6</ele><time>2026-04-18T14:23:22.971Z</time></trkpt><trkpt lat="43.0956167" lon="12.49187"><ele>206.8</ele><time>2026-04-18T14:23:23.971Z</time></trkpt><trkpt lat="43.0955067" lon="12.4918"><ele>207.0</ele><time>2026-04-18T14:23:24.971Z</time></trkpt><trkpt lat="43.0953917" lon="12.4917317"><ele>207.0</ele><time>2026-04-18T14:23:25.971Z</time></trkpt><trkpt lat="43.0952783" lon="12.491645"><ele>207.0</ele><time>2026-04-18T14:23:26.971Z</time></trkpt><trkpt lat="43.09517" lon="12.491575"><ele>207.0</ele><time>2026-04-18T14:23:27.971Z</time></trkpt><trkpt lat="43.0950583" lon="12.4914983"><ele>207.0</ele><time>2026-04-18T14:23:28.971Z</time></trkpt><trkpt lat="43.0949433" lon="12.4914"><ele>206.25</ele><time>2026-04-18T14:23:29.971Z</time></trkpt><trkpt lat="43.094825" lon="12.49129"><ele>205.5</ele><time>2026-04-18T14:23:30.971Z</time></trkpt><trkpt lat="43.0947133" lon="12.49116"><ele>204.75</ele><time>2026-04-18T14:23:31.971Z</time></trkpt><trkpt lat="43.0946133" lon="12.49103"><ele>204.0</ele><time>2026-04-18T14:23:32.971Z</time></trkpt><trkpt lat="43.0945183" lon="12.4908967"><ele>203.75</ele><time>2026-04-18T14:23:33.971Z</time></trkpt><trkpt lat="43.0944267" lon="12.490775"><ele>203.5</ele><time>2026-04-18T14:23:34.971Z</time></trkpt><trkpt lat="43.0943383" lon="12.4906517"><ele>203.25</ele><time>2026-04-18T14:23:35.971Z</time></trkpt><trkpt lat="43.094255" lon="12.4905267"><ele>203.0</ele><time>2026-04-18T14:23:36.971Z</time></trkpt><trkpt lat="43.0941667" lon="12.4904083"><ele>203.25</ele><time>2026-04-18T14:23:37.971Z</time></trkpt><trkpt lat="43.0940867" lon="12.4902917"><ele>203.5</ele><time>2026-04-18T14:23:38.971Z</time></trkpt><trkpt lat="43.0940083" lon="12.4901767"><ele>203.75</ele><time>2026-04-18T14:23:39.971Z</time></trkpt><trkpt lat="43.093935" lon="12.4900667"><ele>204.0</ele><time>2026-04-18T14:23:40.971Z</time></trkpt><trkpt lat="43.0938467" lon="12.4899633"><ele>204.0</ele><time>2026-04-18T14:23:41.971Z</time></trkpt><trkpt lat="43.0937567" lon="12.4898633"><ele>204.0</ele><time>2026-04-18T14:23:42.971Z</time></trkpt><trkpt lat="43.0936567" lon="12.4897633"><ele>204.0</ele><time>2026-04-18T14:23:43.971Z</time></trkpt><trkpt lat="43.09355" lon="12.4896733"><ele>204.0</ele><time>2026-04-18T14:23:44.971Z</time></trkpt><trkpt lat="43.0934483" lon="12.4895883"><ele>203.79999999999998</ele><time>2026-04-18T14:23:45.971Z</time></trkpt><trkpt lat="43.0933483" lon="12.4895217"><ele>203.6</ele><time>2026-04-18T14:23:46.971Z</time></trkpt><trkpt lat="43.0932567" lon="12.489455"><ele>203.4</ele><time>2026-04-18T14:23:47.971Z</time></trkpt><trkpt lat="43.09317" lon="12.4893833"><ele>203.2</ele><time>2026-04-18T14:23:48.971Z</time></trkpt><trkpt lat="43.0930967" lon="12.4893283"><ele>203.0</ele><time>2026-04-18T14:23:49.971Z</time></trkpt><trkpt lat="43.0930333" lon="12.489285"><ele>203.00000000000003</ele><time>2026-04-18T14:23:50.971Z</time></trkpt><trkpt lat="43.09297" lon="12.4892183"><ele>203.0</ele><time>2026-04-18T14:23:52.971Z</time></trkpt><trkpt lat="43.0929817" lon="12.48913"><ele>203.0</ele><time>2026-04-18T14:23:54.971Z</time></trkpt><trkpt lat="43.09305" lon="12.4889983"><ele>203.0</ele><time>2026-04-18T14:23:56.971Z</time></trkpt><trkpt lat="43.093095" lon="12.4889033"><ele>203.00000000000003</ele><time>2026-04-18T14:23:57.971Z</time></trkpt><trkpt lat="43.09314" lon="12.4888067"><ele>203.0</ele><time>2026-04-18T14:23:58.971Z</time></trkpt><trkpt lat="43.09318" lon="12.4887133"><ele>203.4</ele><time>2026-04-18T14:23:59.971Z</time></trkpt><trkpt lat="43.0932467" lon="12.48858"><ele>203.8</ele><time>2026-04-18T14:24:01.971Z</time></trkpt><trkpt lat="43.0932967" lon="12.48847"><ele>204.2</ele><time>2026-04-18T14:24:03.971Z</time></trkpt><trkpt lat="43.0933433" lon="12.488375"><ele>204.6</ele><time>2026-04-18T14:24:05.971Z</time></trkpt><trkpt lat="43.0934" lon="12.488275"><ele>205.0</ele><time>2026-04-18T14:24:07.971Z</time></trkpt><trkpt lat="43.093445" lon="12.488195"><ele>206.0</ele><time>2026-04-18T14:24:09.971Z</time></trkpt><trkpt lat="43.0934967" lon="12.48809"><ele>207.0</ele><time>2026-04-18T14:24:11.971Z</time></trkpt><trkpt lat="43.09358" lon="12.4879267"><ele>208.0</ele><time>2026-04-18T14:24:13.971Z</time></trkpt><trkpt lat="43.0936367" lon="12.4878117"><ele>209.0</ele><time>2026-04-18T14:24:14.971Z</time></trkpt><trkpt lat="43.09369" lon="12.487705"><ele>210.0</ele><time>2026-04-18T14:24:15.971Z</time></trkpt><trkpt lat="43.0937467" lon="12.4875967"><ele>210.0</ele><time>2026-04-18T14:24:16.971Z</time></trkpt><trkpt lat="43.0938117" lon="12.487475"><ele>210.0</ele><time>2026-04-18T14:24:17.971Z</time></trkpt><trkpt lat="43.0938767" lon="12.4873567"><ele>210.0</ele><time>2026-04-18T14:24:18.971Z</time></trkpt><trkpt lat="43.0939367" lon="12.48724"><ele>210.0</ele><time>2026-04-18T14:24:19.971Z</time></trkpt><trkpt lat="43.0939983" lon="12.4871117"><ele>210.0</ele><time>2026-04-18T14:24:20.971Z</time></trkpt><trkpt lat="43.094065" lon="12.4869817"><ele>211.8</ele><time>2026-04-18T14:24:21.971Z</time></trkpt><trkpt lat="43.094125" lon="12.48686"><ele>213.6</ele><time>2026-04-18T14:24:22.971Z</time></trkpt><trkpt lat="43.0941883" lon="12.48673"><ele>215.39999999999998</ele><time>2026-04-18T14:24:23.971Z</time></trkpt><trkpt lat="43.094255" lon="12.4866167"><ele>217.2</ele><time>2026-04-18T14:24:24.971Z</time></trkpt><trkpt lat="43.0943" lon="12.4865167"><ele>219.0</ele><time>2026-04-18T14:24:25.971Z</time></trkpt><trkpt lat="43.0943517" lon="12.486405"><ele>219.0</ele><time>2026-04-18T14:24:26.971Z</time></trkpt><trkpt lat="43.0944033" lon="12.4862917"><ele>218.99999999999997</ele><time>2026-04-18T14:24:27.971Z</time></trkpt><trkpt lat="43.0944533" lon="12.4861833"><ele>218.99999999999997</ele><time>2026-04-18T14:24:28.971Z</time></trkpt><trkpt lat="43.0944983" lon="12.4860817"><ele>219.0</ele><time>2026-04-18T14:24:29.971Z</time></trkpt><trkpt lat="43.0945517" lon="12.4859683"><ele>219.0</ele><time>2026-04-18T14:24:30.971Z</time></trkpt><trkpt lat="43.09461" lon="12.4858667"><ele>219.2</ele><time>2026-04-18T14:24:31.971Z</time></trkpt><trkpt lat="43.094665" lon="12.4857567"><ele>219.39999999999998</ele><time>2026-04-18T14:24:32.971Z</time></trkpt><trkpt lat="43.0947217" lon="12.4856333"><ele>219.6</ele><time>2026-04-18T14:24:33.971Z</time></trkpt><trkpt lat="43.0947783" lon="12.485505"><ele>219.8</ele><time>2026-04-18T14:24:34.971Z</time></trkpt><trkpt lat="43.0948283" lon="12.4853783"><ele>220.0</ele><time>2026-04-18T14:24:35.971Z</time></trkpt><trkpt lat="43.094875" lon="12.4852583"><ele>221.2</ele><time>2026-04-18T14:24:36.971Z</time></trkpt><trkpt lat="43.094925" lon="12.4851383"><ele>222.4</ele><time>2026-04-18T14:24:37.971Z</time></trkpt><trkpt lat="43.0949746" lon="12.4850121"><ele>223.60000000000002</ele><time>2026-04-18T14:24:38.971Z</time></trkpt><trkpt lat="43.0950244" lon="12.4848871"><ele>224.8</ele><time>2026-04-18T14:24:39.971Z</time></trkpt><trkpt lat="43.0950746" lon="12.4847639"><ele>226.0</ele><time>2026-04-18T14:24:40.971Z</time></trkpt><trkpt lat="43.0951297" lon="12.4846398"><ele>226.16666666666666</ele><time>2026-04-18T14:24:41.971Z</time></trkpt><trkpt lat="43.0951866" lon="12.4845213"><ele>226.33333333333331</ele><time>2026-04-18T14:24:42.971Z</time></trkpt><trkpt lat="43.095246" lon="12.4844073"><ele>226.5</ele><time>2026-04-18T14:24:43.971Z</time></trkpt><trkpt lat="43.0952958" lon="12.4843045"><ele>226.66666666666669</ele><time>2026-04-18T14:24:44.971Z</time></trkpt><trkpt lat="43.0953384" lon="12.4842179"><ele>226.83333333333334</ele><time>2026-04-18T14:24:45.971Z</time></trkpt><trkpt lat="43.0953825" lon="12.4841424"><ele>227.0</ele><time>2026-04-18T14:24:46.971Z</time></trkpt><trkpt lat="43.0954678" lon="12.484046"><ele>227.00000000000003</ele><time>2026-04-18T14:24:48.971Z</time></trkpt><trkpt lat="43.0955368" lon="12.4839987"><ele>227.0</ele><time>2026-04-18T14:24:50.971Z</time></trkpt><trkpt lat="43.0955978" lon="12.4840543"><ele>227.0</ele><time>2026-04-18T14:24:53.971Z</time></trkpt><trkpt lat="43.0956435" lon="12.4841318"><ele>227.0</ele><time>2026-04-18T14:24:55.971Z</time></trkpt><trkpt lat="43.0957336" lon="12.4842013"><ele>227.00000000000003</ele><time>2026-04-18T14:24:57.971Z</time></trkpt><trkpt lat="43.0957936" lon="12.4842331"><ele>227.0</ele><time>2026-04-18T14:24:58.971Z</time></trkpt><trkpt lat="43.0958633" lon="12.4842665"><ele>228.00000000000003</ele><time>2026-04-18T14:24:59.971Z</time></trkpt><trkpt lat="43.0959424" lon="12.484311"><ele>229.0</ele><time>2026-04-18T14:25:00.971Z</time></trkpt><trkpt lat="43.096021" lon="12.4843609"><ele>230.0</ele><time>2026-04-18T14:25:01.971Z</time></trkpt><trkpt lat="43.0960997" lon="12.4844018"><ele>231.0</ele><time>2026-04-18T14:25:02.971Z</time></trkpt><trkpt lat="43.0961715" lon="12.4844452"><ele>232.00000000000003</ele><time>2026-04-18T14:25:03.971Z</time></trkpt><trkpt lat="43.0962791" lon="12.4844879"><ele>233.0</ele><time>2026-04-18T14:25:05.971Z</time></trkpt><trkpt lat="43.0963643" lon="12.4844864"><ele>233.0</ele><time>2026-04-18T14:25:07.971Z</time></trkpt><trkpt lat="43.0964767" lon="12.4845183"><ele>233.0</ele><time>2026-04-18T14:25:09.971Z</time></trkpt><trkpt lat="43.0965417" lon="12.4845467"><ele>233.0</ele><time>2026-04-18T14:25:10.971Z</time></trkpt><trkpt lat="43.0966033" lon="12.484575"><ele>233.0</ele><time>2026-04-18T14:25:11.971Z</time></trkpt><trkpt lat="43.0967267" lon="12.4846317"><ele>233.0</ele><time>2026-04-18T14:25:13.971Z</time></trkpt><trkpt lat="43.096845" lon="12.484685"><ele>232.66666666666669</ele><time>2026-04-18T14:25:15.971Z</time></trkpt><trkpt lat="43.0969067" lon="12.484715"><ele>232.33333333333334</ele><time>2026-04-18T14:25:16.971Z</time></trkpt><trkpt lat="43.0970217" lon="12.484765"><ele>232.0</ele><time>2026-04-18T14:25:18.971Z</time></trkpt><trkpt lat="43.0971383" lon="12.484805"><ele>231.66666666666669</ele><time>2026-04-18T14:25:20.971Z</time></trkpt><trkpt lat="43.0972" lon="12.4848283"><ele>231.33333333333334</ele><time>2026-04-18T14:25:21.971Z</time></trkpt><trkpt lat="43.0972633" lon="12.4848517"><ele>231.0</ele><time>2026-04-18T14:25:22.971Z</time></trkpt><trkpt lat="43.0973267" lon="12.484875"><ele>231.0</ele><time>2026-04-18T14:25:23.971Z</time></trkpt><trkpt lat="43.0973967" lon="12.4848983"><ele>231.0</ele><time>2026-04-18T14:25:24.971Z</time></trkpt><trkpt lat="43.0974667" lon="12.4849233"><ele>231.0</ele><time>2026-04-18T14:25:25.971Z</time></trkpt><trkpt lat="43.0975367" lon="12.484945"><ele>231.0</ele><time>2026-04-18T14:25:26.971Z</time></trkpt><trkpt lat="43.0976083" lon="12.484965"><ele>231.0</ele><time>2026-04-18T14:25:27.971Z</time></trkpt><trkpt lat="43.0977183" lon="12.48501"><ele>231.0</ele><time>2026-04-18T14:25:29.971Z</time></trkpt><trkpt lat="43.09778" lon="12.485035"><ele>229.33333333333334</ele><time>2026-04-18T14:25:30.971Z</time></trkpt><trkpt lat="43.0979033" lon="12.4850733"><ele>227.66666666666669</ele><time>2026-04-18T14:25:32.971Z</time></trkpt><trkpt lat="43.097965" lon="12.4850933"><ele>226.0</ele><time>2026-04-18T14:25:33.971Z</time></trkpt><trkpt lat="43.0980283" lon="12.485115"><ele>224.33333333333334</ele><time>2026-04-18T14:25:34.971Z</time></trkpt><trkpt lat="43.09809" lon="12.48514"><ele>222.66666666666669</ele><time>2026-04-18T14:25:35.97Z</time></trkpt><trkpt lat="43.098155" lon="12.48516"><ele>221.0</ele><time>2026-04-18T14:25:36.97Z</time></trkpt><trkpt lat="43.0982233" lon="12.4851817"><ele>219.42857142857144</ele><time>2026-04-18T14:25:37.97Z</time></trkpt><trkpt lat="43.0982883" lon="12.4852033"><ele>217.85714285714286</ele><time>2026-04-18T14:25:38.97Z</time></trkpt><trkpt lat="43.0983517" lon="12.4852217"><ele>216.28571428571428</ele><time>2026-04-18T14:25:39.97Z</time></trkpt><trkpt lat="43.0984183" lon="12.4852467"><ele>214.71428571428572</ele><time>2026-04-18T14:25:40.97Z</time></trkpt><trkpt lat="43.0984867" lon="12.4852683"><ele>213.14285714285714</ele><time>2026-04-18T14:25:41.97Z</time></trkpt><trkpt lat="43.0985569" lon="12.4852902"><ele>211.57142857142858</ele><time>2026-04-18T14:25:42.97Z</time></trkpt><trkpt lat="43.0986219" lon="12.4853056"><ele>210.0</ele><time>2026-04-18T14:25:43.97Z</time></trkpt><trkpt lat="43.0986894" lon="12.485321"><ele>210.0</ele><time>2026-04-18T14:25:44.97Z</time></trkpt><trkpt lat="43.0987623" lon="12.4853447"><ele>210.0</ele><time>2026-04-18T14:25:45.97Z</time></trkpt><trkpt lat="43.0988382" lon="12.4853651"><ele>210.0</ele><time>2026-04-18T14:25:46.97Z</time></trkpt><trkpt lat="43.0989112" lon="12.4853857"><ele>210.0</ele><time>2026-04-18T14:25:47.97Z</time></trkpt><trkpt lat="43.0989816" lon="12.4854126"><ele>210.0</ele><time>2026-04-18T14:25:48.97Z</time></trkpt><trkpt lat="43.0990582" lon="12.4854449"><ele>210.0</ele><time>2026-04-18T14:25:49.97Z</time></trkpt><trkpt lat="43.0991341" lon="12.4854787"><ele>210.33333333333334</ele><time>2026-04-18T14:25:50.97Z</time></trkpt><trkpt lat="43.0992066" lon="12.4855078"><ele>210.66666666666669</ele><time>2026-04-18T14:25:51.97Z</time></trkpt><trkpt lat="43.099279" lon="12.4855329"><ele>211.0</ele><time>2026-04-18T14:25:52.97Z</time></trkpt><trkpt lat="43.0993536" lon="12.4855596"><ele>211.33333333333334</ele><time>2026-04-18T14:25:53.97Z</time></trkpt><trkpt lat="43.0994305" lon="12.4855857"><ele>211.66666666666669</ele><time>2026-04-18T14:25:54.97Z</time></trkpt><trkpt lat="43.0995046" lon="12.4856097"><ele>212.0</ele><time>2026-04-18T14:25:55.97Z</time></trkpt><trkpt lat="43.0995729" lon="12.4856398"><ele>212.00000000000003</ele><time>2026-04-18T14:25:56.97Z</time></trkpt><trkpt lat="43.0996418" lon="12.4856776"><ele>212.0</ele><time>2026-04-18T14:25:57.97Z</time></trkpt><trkpt lat="43.0997107" lon="12.4857097"><ele>212.0</ele><time>2026-04-18T14:25:58.97Z</time></trkpt><trkpt lat="43.099783" lon="12.4857399"><ele>212.0</ele><time>2026-04-18T14:25:59.97Z</time></trkpt><trkpt lat="43.0998581" lon="12.4857768"><ele>212.00000000000003</ele><time>2026-04-18T14:26:00.97Z</time></trkpt><trkpt lat="43.0999309" lon="12.4858119"><ele>212.0</ele><time>2026-04-18T14:26:01.97Z</time></trkpt><trkpt lat="43.0999985" lon="12.4858475"><ele>212.66666666666669</ele><time>2026-04-18T14:26:02.97Z</time></trkpt><trkpt lat="43.1000648" lon="12.485888"><ele>213.33333333333334</ele><time>2026-04-18T14:26:03.97Z</time></trkpt><trkpt lat="43.1001317" lon="12.4859324"><ele>214.0</ele><time>2026-04-18T14:26:04.97Z</time></trkpt><trkpt lat="43.100203" lon="12.4859786"><ele>214.66666666666669</ele><time>2026-04-18T14:26:05.97Z</time></trkpt><trkpt lat="43.1002771" lon="12.48603"><ele>215.33333333333334</ele><time>2026-04-18T14:26:06.97Z</time></trkpt><trkpt lat="43.100353" lon="12.4860841"><ele>216.0</ele><time>2026-04-18T14:26:07.97Z</time></trkpt><trkpt lat="43.1004268" lon="12.4861376"><ele>216.0</ele><time>2026-04-18T14:26:08.97Z</time></trkpt><trkpt lat="43.1004925" lon="12.4861921"><ele>216.0</ele><time>2026-04-18T14:26:09.97Z</time></trkpt><trkpt lat="43.1005576" lon="12.4862464"><ele>216.0</ele><time>2026-04-18T14:26:10.97Z</time></trkpt><trkpt lat="43.10062" lon="12.4862997"><ele>216.0</ele><time>2026-04-18T14:26:11.97Z</time></trkpt><trkpt lat="43.1006808" lon="12.4863523"><ele>216.0</ele><time>2026-04-18T14:26:12.97Z</time></trkpt><trkpt lat="43.1007446" lon="12.4864049"><ele>216.0</ele><time>2026-04-18T14:26:13.97Z</time></trkpt><trkpt lat="43.100813" lon="12.4864597"><ele>218.8</ele><time>2026-04-18T14:26:14.97Z</time></trkpt><trkpt lat="43.1008751" lon="12.4865177"><ele>221.60000000000002</ele><time>2026-04-18T14:26:15.97Z</time></trkpt><trkpt lat="43.1009281" lon="12.4865728"><ele>224.4</ele><time>2026-04-18T14:26:16.97Z</time></trkpt><trkpt lat="43.1010089" lon="12.4866849"><ele>227.2</ele><time>2026-04-18T14:26:18.97Z</time></trkpt><trkpt lat="43.1010768" lon="12.4868236"><ele>230.0</ele><time>2026-04-18T14:26:20.97Z</time></trkpt><trkpt lat="43.1011507" lon="12.4869437"><ele>230.00000000000003</ele><time>2026-04-18T14:26:22.97Z</time></trkpt><trkpt lat="43.1012564" lon="12.4869765"><ele>230.0</ele><time>2026-04-18T14:26:24.97Z</time></trkpt><trkpt lat="43.1013212" lon="12.4869552"><ele>230.0</ele><time>2026-04-18T14:26:25.97Z</time></trkpt><trkpt lat="43.1013889" lon="12.4869169"><ele>230.0</ele><time>2026-04-18T14:26:26.97Z</time></trkpt><trkpt lat="43.1014569" lon="12.486878"><ele>230.00000000000003</ele><time>2026-04-18T14:26:27.97Z</time></trkpt><trkpt lat="43.1015245" lon="12.4868423"><ele>230.0</ele><time>2026-04-18T14:26:28.97Z</time></trkpt><trkpt lat="43.1015955" lon="12.4868049"><ele>231.28571428571425</ele><time>2026-04-18T14:26:29.97Z</time></trkpt><trkpt lat="43.1016632" lon="12.4867765"><ele>232.57142857142856</ele><time>2026-04-18T14:26:30.97Z</time></trkpt><trkpt lat="43.1017257" lon="12.4867488"><ele>233.85714285714286</ele><time>2026-04-18T14:26:31.97Z</time></trkpt><trkpt lat="43.1017924" lon="12.4867232"><ele>235.14285714285714</ele><time>2026-04-18T14:26:32.97Z</time></trkpt><trkpt lat="43.1018607" lon="12.4866928"><ele>236.42857142857144</ele><time>2026-04-18T14:26:33.97Z</time></trkpt><trkpt lat="43.1019289" lon="12.486658"><ele>237.71428571428575</ele><time>2026-04-18T14:26:34.97Z</time></trkpt><trkpt lat="43.1019932" lon="12.4866139"><ele>239.00000000000003</ele><time>2026-04-18T14:26:35.97Z</time></trkpt><trkpt lat="43.1020538" lon="12.4865595"><ele>239.00000000000003</ele><time>2026-04-18T14:26:36.97Z</time></trkpt><trkpt lat="43.1021103" lon="12.4865003"><ele>239.0</ele><time>2026-04-18T14:26:37.97Z</time></trkpt><trkpt lat="43.1021951" lon="12.4864035"><ele>239.0</ele><time>2026-04-18T14:26:39.97Z</time></trkpt><trkpt lat="43.1022631" lon="12.4863374"><ele>239.0</ele><time>2026-04-18T14:26:41.97Z</time></trkpt><trkpt lat="43.1023124" lon="12.4862835"><ele>239.00000000000003</ele><time>2026-04-18T14:26:44.97Z</time></trkpt><trkpt lat="43.1022696" lon="12.4861913"><ele>239.0</ele><time>2026-04-18T14:26:47.97Z</time></trkpt><trkpt lat="43.102185" lon="12.486085"><ele>238.16666666666669</ele><time>2026-04-18T14:26:49.97Z</time></trkpt><trkpt lat="43.102155" lon="12.486005"><ele>237.33333333333334</ele><time>2026-04-18T14:26:50.97Z</time></trkpt><trkpt lat="43.1021217" lon="12.4859167"><ele>236.5</ele><time>2026-04-18T14:26:51.97Z</time></trkpt><trkpt lat="43.1020867" lon="12.4858183"><ele>235.66666666666669</ele><time>2026-04-18T14:26:52.97Z</time></trkpt><trkpt lat="43.1020533" lon="12.4857083"><ele>234.83333333333334</ele><time>2026-04-18T14:26:53.97Z</time></trkpt><trkpt lat="43.102015" lon="12.4856233"><ele>234.0</ele><time>2026-04-18T14:26:54.97Z</time></trkpt><trkpt lat="43.101965" lon="12.4855383"><ele>234.0</ele><time>2026-04-18T14:26:55.97Z</time></trkpt><trkpt lat="43.101915" lon="12.4854467"><ele>234.0</ele><time>2026-04-18T14:26:56.97Z</time></trkpt><trkpt lat="43.10187" lon="12.4853633"><ele>234.0</ele><time>2026-04-18T14:26:57.97Z</time></trkpt><trkpt lat="43.10183" lon="12.485285"><ele>234.0</ele><time>2026-04-18T14:26:58.97Z</time></trkpt><trkpt lat="43.1017867" lon="12.4852033"><ele>234.0</ele><time>2026-04-18T14:26:59.97Z</time></trkpt><trkpt lat="43.1017417" lon="12.485115"><ele>234.0</ele><time>2026-04-18T14:27:00.97Z</time></trkpt><trkpt lat="43.1017" lon="12.4850267"><ele>232.83333333333334</ele><time>2026-04-18T14:27:01.97Z</time></trkpt><trkpt lat="43.1016567" lon="12.4849433"><ele>231.66666666666669</ele><time>2026-04-18T14:27:02.97Z</time></trkpt><trkpt lat="43.1016167" lon="12.484855"><ele>230.5</ele><time>2026-04-18T14:27:03.97Z</time></trkpt><trkpt lat="43.1015783" lon="12.4847767"><ele>229.33333333333334</ele><time>2026-04-18T14:27:04.97Z</time></trkpt><trkpt lat="43.10155" lon="12.4846983"><ele>228.16666666666669</ele><time>2026-04-18T14:27:05.97Z</time></trkpt><trkpt lat="43.1015083" lon="12.4845483"><ele>227.0</ele><time>2026-04-18T14:27:07.97Z</time></trkpt><trkpt lat="43.1014667" lon="12.4843967"><ele>225.0</ele><time>2026-04-18T14:27:09.97Z</time></trkpt><trkpt lat="43.101435" lon="12.48432"><ele>223.0</ele><time>2026-04-18T14:27:10.97Z</time></trkpt><trkpt lat="43.101385" lon="12.4841683"><ele>221.0</ele><time>2026-04-18T14:27:12.97Z</time></trkpt><trkpt lat="43.101335" lon="12.4840267"><ele>219.0</ele><time>2026-04-18T14:27:14.97Z</time></trkpt><trkpt lat="43.1012983" lon="12.4839017"><ele>217.0</ele><time>2026-04-18T14:27:16.97Z</time></trkpt><trkpt lat="43.1012583" lon="12.4837767"><ele>216.0</ele><time>2026-04-18T14:27:18.97Z</time></trkpt><trkpt lat="43.1012133" lon="12.4836517"><ele>215.0</ele><time>2026-04-18T14:27:20.97Z</time></trkpt><trkpt lat="43.10116" lon="12.4835333"><ele>214.0</ele><time>2026-04-18T14:27:22.97Z</time></trkpt><trkpt lat="43.1011133" lon="12.4834233"><ele>213.0</ele><time>2026-04-18T14:27:24.97Z</time></trkpt><trkpt lat="43.1010617" lon="12.4833033"><ele>212.0</ele><time>2026-04-18T14:27:26.97Z</time></trkpt><trkpt lat="43.1010267" lon="12.4831983"><ele>212.0</ele><time>2026-04-18T14:27:28.97Z</time></trkpt><trkpt lat="43.1009933" lon="12.4830883"><ele>212.0</ele><time>2026-04-18T14:27:30.97Z</time></trkpt><trkpt lat="43.10094" lon="12.482975"><ele>212.0</ele><time>2026-04-18T14:27:32.97Z</time></trkpt><trkpt lat="43.10086" lon="12.4828583"><ele>212.0</ele><time>2026-04-18T14:27:34.97Z</time></trkpt><trkpt lat="43.10077" lon="12.4827633"><ele>212.0</ele><time>2026-04-18T14:27:36.97Z</time></trkpt><trkpt lat="43.1006717" lon="12.4826667"><ele>210.2</ele><time>2026-04-18T14:27:38.97Z</time></trkpt><trkpt lat="43.1005833" lon="12.4825833"><ele>208.39999999999998</ele><time>2026-04-18T14:27:40.97Z</time></trkpt><trkpt lat="43.10051" lon="12.4825017"><ele>206.60000000000002</ele><time>2026-04-18T14:27:42.97Z</time></trkpt><trkpt lat="43.1004867" lon="12.482365"><ele>204.8</ele><time>2026-04-18T14:27:44.97Z</time></trkpt><trkpt lat="43.1004783" lon="12.4822767"><ele>203.0</ele><time>2026-04-18T14:27:45.97Z</time></trkpt><trkpt lat="43.1004683" lon="12.4821117"><ele>202.66666666666669</ele><time>2026-04-18T14:27:47.97Z</time></trkpt><trkpt lat="43.100475" lon="12.4820167"><ele>202.33333333333334</ele><time>2026-04-18T14:27:48.97Z</time></trkpt><trkpt lat="43.1004883" lon="12.4819267"><ele>202.0</ele><time>2026-04-18T14:27:49.97Z</time></trkpt><trkpt lat="43.1005117" lon="12.48182"><ele>201.66666666666669</ele><time>2026-04-18T14:27:50.97Z</time></trkpt><trkpt lat="43.1005367" lon="12.481715"><ele>201.33333333333334</ele><time>2026-04-18T14:27:51.97Z</time></trkpt><trkpt lat="43.1005633" lon="12.4816117"><ele>201.0</ele><time>2026-04-18T14:27:52.97Z</time></trkpt><trkpt lat="43.1005917" lon="12.4814983"><ele>201.0</ele><time>2026-04-18T14:27:53.97Z</time></trkpt><trkpt lat="43.10062" lon="12.48138"><ele>201.0</ele><time>2026-04-18T14:27:54.97Z</time></trkpt><trkpt lat="43.1006517" lon="12.4812583"><ele>201.0</ele><time>2026-04-18T14:27:55.97Z</time></trkpt><trkpt lat="43.1006833" lon="12.4811383"><ele>201.0</ele><time>2026-04-18T14:27:56.97Z</time></trkpt><trkpt lat="43.100715" lon="12.481015"><ele>201.0</ele><time>2026-04-18T14:27:57.97Z</time></trkpt><trkpt lat="43.1007483" lon="12.480885"><ele>200.4</ele><time>2026-04-18T14:27:58.97Z</time></trkpt><trkpt lat="43.1007783" lon="12.4807517"><ele>199.8</ele><time>2026-04-18T14:27:59.97Z</time></trkpt><trkpt lat="43.10081" lon="12.48062"><ele>199.20000000000002</ele><time>2026-04-18T14:28:00.97Z</time></trkpt><trkpt lat="43.1008433" lon="12.4804883"><ele>198.60000000000002</ele><time>2026-04-18T14:28:01.97Z</time></trkpt><trkpt lat="43.1008733" lon="12.480365"><ele>198.0</ele><time>2026-04-18T14:28:02.97Z</time></trkpt><trkpt lat="43.1009017" lon="12.4802417"><ele>197.8</ele><time>2026-04-18T14:28:03.97Z</time></trkpt><trkpt lat="43.1009317" lon="12.480115"><ele>197.60000000000002</ele><time>2026-04-18T14:28:04.97Z</time></trkpt><trkpt lat="43.1009633" lon="12.479985"><ele>197.39999999999998</ele><time>2026-04-18T14:28:05.97Z</time></trkpt><trkpt lat="43.1009967" lon="12.47985"><ele>197.2</ele><time>2026-04-18T14:28:06.97Z</time></trkpt><trkpt lat="43.1010333" lon="12.4797083"><ele>197.0</ele><time>2026-04-18T14:28:07.97Z</time></trkpt><trkpt lat="43.101065" lon="12.4795733"><ele>197.0</ele><time>2026-04-18T14:28:08.97Z</time></trkpt><trkpt lat="43.1011" lon="12.4794417"><ele>197.0</ele><time>2026-04-18T14:28:09.97Z</time></trkpt><trkpt lat="43.1011317" lon="12.479315"><ele>197.0</ele><time>2026-04-18T14:28:10.97Z</time></trkpt><trkpt lat="43.1011617" lon="12.4791817"><ele>197.0</ele><time>2026-04-18T14:28:11.97Z</time></trkpt><trkpt lat="43.1011917" lon="12.479055"><ele>197.0</ele><time>2026-04-18T14:28:12.97Z</time></trkpt><trkpt lat="43.1012233" lon="12.4789333"><ele>197.0</ele><time>2026-04-18T14:28:13.97Z</time></trkpt><trkpt lat="43.10125" lon="12.4788133"><ele>197.0</ele><time>2026-04-18T14:28:14.97Z</time></trkpt><trkpt lat="43.1012833" lon="12.4786967"><ele>197.0</ele><time>2026-04-18T14:28:15.97Z</time></trkpt><trkpt lat="43.1013117" lon="12.4785967"><ele>197.0</ele><time>2026-04-18T14:28:16.97Z</time></trkpt><trkpt lat="43.10134" lon="12.4785017"><ele>197.0</ele><time>2026-04-18T14:28:17.97Z</time></trkpt><trkpt lat="43.1013883" lon="12.47834"><ele>196.6</ele><time>2026-04-18T14:28:19.97Z</time></trkpt><trkpt lat="43.1014533" lon="12.4782217"><ele>196.2</ele><time>2026-04-18T14:28:21.97Z</time></trkpt><trkpt lat="43.1015483" lon="12.4781833"><ele>195.8</ele><time>2026-04-18T14:28:23.97Z</time></trkpt><trkpt lat="43.101665" lon="12.478225"><ele>195.4</ele><time>2026-04-18T14:28:25.97Z</time></trkpt><trkpt lat="43.1017383" lon="12.4782633"><ele>195.0</ele><time>2026-04-18T14:28:26.97Z</time></trkpt><trkpt lat="43.1018117" lon="12.4782917"><ele>194.8</ele><time>2026-04-18T14:28:27.97Z</time></trkpt><trkpt lat="43.1018883" lon="12.478305"><ele>194.6</ele><time>2026-04-18T14:28:28.97Z</time></trkpt><trkpt lat="43.101975" lon="12.478315"><ele>194.39999999999998</ele><time>2026-04-18T14:28:29.97Z</time></trkpt><trkpt lat="43.10207" lon="12.478335"><ele>194.2</ele><time>2026-04-18T14:28:30.97Z</time></trkpt><trkpt lat="43.1021633" lon="12.47834"><ele>194.0</ele><time>2026-04-18T14:28:31.97Z</time></trkpt><trkpt lat="43.102295" lon="12.4783083"><ele>193.75</ele><time>2026-04-18T14:28:32.97Z</time></trkpt><trkpt lat="43.102415" lon="12.47827"><ele>193.5</ele><time>2026-04-18T14:28:33.97Z</time></trkpt><trkpt lat="43.1025433" lon="12.4782583"><ele>193.25</ele><time>2026-04-18T14:28:34.97Z</time></trkpt><trkpt lat="43.102675" lon="12.478265"><ele>193.0</ele><time>2026-04-18T14:28:35.97Z</time></trkpt><trkpt lat="43.1027967" lon="12.4782667"><ele>192.99999999999997</ele><time>2026-04-18T14:28:36.97Z</time></trkpt><trkpt lat="43.1029067" lon="12.4782717"><ele>193.0</ele><time>2026-04-18T14:28:37.97Z</time></trkpt><trkpt lat="43.1030017" lon="12.4782733"><ele>193.0</ele><time>2026-04-18T14:28:38.97Z</time></trkpt><trkpt lat="43.10309" lon="12.47828"><ele>193.0</ele><time>2026-04-18T14:28:39.97Z</time></trkpt><trkpt lat="43.10317" lon="12.4782867"><ele>192.99999999999997</ele><time>2026-04-18T14:28:40.97Z</time></trkpt><trkpt lat="43.1032383" lon="12.4782933"><ele>193.0</ele><time>2026-04-18T14:28:41.97Z</time></trkpt><trkpt lat="43.1033033" lon="12.4782967"><ele>192.99999999999997</ele><time>2026-04-18T14:28:42.97Z</time></trkpt><trkpt lat="43.1034083" lon="12.478305"><ele>193.0</ele><time>2026-04-18T14:28:44.97Z</time></trkpt><trkpt lat="43.1034733" lon="12.478295"><ele>193.0</ele><time>2026-04-18T14:28:47.97Z</time></trkpt><trkpt lat="43.1034067" lon="12.4782417"><ele>193.0</ele><time>2026-04-18T14:28:52.97Z</time></trkpt><trkpt lat="43.1033067" lon="12.4782583"><ele>192.99999999999997</ele><time>2026-04-18T14:28:54.97Z</time></trkpt><trkpt lat="43.1032333" lon="12.4782533"><ele>193.0</ele><time>2026-04-18T14:28:55.97Z</time></trkpt><trkpt lat="43.10315" lon="12.4782533"><ele>192.99999999999997</ele><time>2026-04-18T14:28:56.97Z</time></trkpt><trkpt lat="43.1030633" lon="12.4782533"><ele>193.0</ele><time>2026-04-18T14:28:57.97Z</time></trkpt><trkpt lat="43.1029717" lon="12.4782467"><ele>193.0</ele><time>2026-04-18T14:28:58.97Z</time></trkpt><trkpt lat="43.1028867" lon="12.4782483"><ele>193.0</ele><time>2026-04-18T14:28:59.97Z</time></trkpt><trkpt lat="43.1028083" lon="12.4782467"><ele>192.99999999999997</ele><time>2026-04-18T14:29:00.97Z</time></trkpt><trkpt lat="43.10274" lon="12.47825"><ele>193.0</ele><time>2026-04-18T14:29:01.97Z</time></trkpt><trkpt lat="43.102645" lon="12.478225"><ele>192.99999999999997</ele><time>2026-04-18T14:29:03.97Z</time></trkpt><trkpt lat="43.1025983" lon="12.47813"><ele>193.0</ele><time>2026-04-18T14:29:05.97Z</time></trkpt><trkpt lat="43.1025417" lon="12.477985"><ele>193.0</ele><time>2026-04-18T14:29:07.97Z</time></trkpt><trkpt lat="43.1025017" lon="12.477895"><ele>193.0</ele><time>2026-04-18T14:29:08.97Z</time></trkpt><trkpt lat="43.1024583" lon="12.4778017"><ele>192.99999999999997</ele><time>2026-04-18T14:29:09.97Z</time></trkpt><trkpt lat="43.1024167" lon="12.4777033"><ele>193.0</ele><time>2026-04-18T14:29:10.97Z</time></trkpt><trkpt lat="43.1023867" lon="12.4776033"><ele>192.83333333333331</ele><time>2026-04-18T14:29:11.97Z</time></trkpt><trkpt lat="43.102375" lon="12.477515"><ele>192.66666666666666</ele><time>2026-04-18T14:29:12.97Z</time></trkpt><trkpt lat="43.1024117" lon="12.4773533"><ele>192.5</ele><time>2026-04-18T14:29:14.97Z</time></trkpt><trkpt lat="43.1024583" lon="12.477275"><ele>192.33333333333331</ele><time>2026-04-18T14:29:15.97Z</time></trkpt><trkpt lat="43.1025117" lon="12.4772117"><ele>192.16666666666666</ele><time>2026-04-18T14:29:16.97Z</time></trkpt><trkpt lat="43.1025717" lon="12.477155"><ele>192.0</ele><time>2026-04-18T14:29:17.97Z</time></trkpt><trkpt lat="43.102635" lon="12.4770933"><ele>191.85714285714283</ele><time>2026-04-18T14:29:18.97Z</time></trkpt><trkpt lat="43.1027" lon="12.4770433"><ele>191.71428571428572</ele><time>2026-04-18T14:29:19.97Z</time></trkpt><trkpt lat="43.10277" lon="12.4769983"><ele>191.57142857142856</ele><time>2026-04-18T14:29:20.97Z</time></trkpt><trkpt lat="43.1028333" lon="12.4769683"><ele>191.42857142857142</ele><time>2026-04-18T14:29:21.97Z</time></trkpt><trkpt lat="43.1028967" lon="12.47696"><ele>191.28571428571428</ele><time>2026-04-18T14:29:22.97Z</time></trkpt><trkpt lat="43.10296" lon="12.4769617"><ele>191.14285714285714</ele><time>2026-04-18T14:29:23.97Z</time></trkpt><trkpt lat="43.10305" lon="12.4769633"><ele>191.0</ele><time>2026-04-18T14:29:25.97Z</time></trkpt><trkpt lat="43.1031333" lon="12.47697"><ele>191.0</ele><time>2026-04-18T14:29:28.97Z</time></trkpt><trkpt lat="43.1032033" lon="12.47698"><ele>191.0</ele><time>2026-04-18T14:29:31.97Z</time></trkpt><trkpt lat="43.103295" lon="12.4770317"><ele>191.0</ele><time>2026-04-18T14:29:34.97Z</time></trkpt><trkpt lat="43.1033683" lon="12.47709"><ele>191.0</ele><time>2026-04-18T14:29:36.97Z</time></trkpt><trkpt lat="43.103445" lon="12.4771283"><ele>191.0</ele><time>2026-04-18T14:29:38.97Z</time></trkpt><trkpt lat="43.1035283" lon="12.47716"><ele>191.0</ele><time>2026-04-18T14:29:40.97Z</time></trkpt><trkpt lat="43.10363" lon="12.4771883"><ele>191.5</ele><time>2026-04-18T14:29:42.97Z</time></trkpt><trkpt lat="43.1037517" lon="12.4772017"><ele>192.0</ele><time>2026-04-18T14:29:44.97Z</time></trkpt><trkpt lat="43.1038217" lon="12.477205"><ele>192.5</ele><time>2026-04-18T14:29:45.97Z</time></trkpt><trkpt lat="43.1038967" lon="12.4772067"><ele>193.0</ele><time>2026-04-18T14:29:46.97Z</time></trkpt><trkpt lat="43.10398" lon="12.4772117"><ele>193.50000000000003</ele><time>2026-04-18T14:29:47.97Z</time></trkpt><trkpt lat="43.104065" lon="12.4772183"><ele>194.0</ele><time>2026-04-18T14:29:48.97Z</time></trkpt><trkpt lat="43.1041467" lon="12.47722"><ele>194.33333333333334</ele><time>2026-04-18T14:29:49.97Z</time></trkpt><trkpt lat="43.1042333" lon="12.4772233"><ele>194.66666666666669</ele><time>2026-04-18T14:29:50.97Z</time></trkpt><trkpt lat="43.1043217" lon="12.4772233"><ele>195.0</ele><time>2026-04-18T14:29:51.97Z</time></trkpt><trkpt lat="43.104415" lon="12.4772283"><ele>195.33333333333331</ele><time>2026-04-18T14:29:52.97Z</time></trkpt><trkpt lat="43.104505" lon="12.47723"><ele>195.66666666666666</ele><time>2026-04-18T14:29:53.97Z</time></trkpt><trkpt lat="43.1045867" lon="12.4772333"><ele>196.0</ele><time>2026-04-18T14:29:54.97Z</time></trkpt><trkpt lat="43.10466" lon="12.4772367"><ele>195.99999999999997</ele><time>2026-04-18T14:29:55.97Z</time></trkpt><trkpt lat="43.10473" lon="12.47723"><ele>196.0</ele><time>2026-04-18T14:29:56.97Z</time></trkpt><trkpt lat="43.1048417" lon="12.4772317"><ele>196.0</ele><time>2026-04-18T14:29:58.97Z</time></trkpt><trkpt lat="43.10492" lon="12.4772283"><ele>196.0</ele><time>2026-04-18T14:30:01.97Z</time></trkpt><trkpt lat="43.1049767" lon="12.4771533"><ele>195.99999999999997</ele><time>2026-04-18T14:30:03.97Z</time></trkpt><trkpt lat="43.1050167" lon="12.4770817"><ele>196.0</ele><time>2026-04-18T14:30:04.97Z</time></trkpt><trkpt lat="43.1050733" lon="12.4769817"><ele>195.25</ele><time>2026-04-18T14:30:05.97Z</time></trkpt><trkpt lat="43.1051467" lon="12.4768767"><ele>194.5</ele><time>2026-04-18T14:30:06.97Z</time></trkpt><trkpt lat="43.1052233" lon="12.4767717"><ele>193.75</ele><time>2026-04-18T14:30:07.97Z</time></trkpt><trkpt lat="43.1053083" lon="12.47667"><ele>193.0</ele><time>2026-04-18T14:30:08.97Z</time></trkpt><trkpt lat="43.1054033" lon="12.4765583"><ele>193.0</ele><time>2026-04-18T14:30:09.97Z</time></trkpt><trkpt lat="43.105505" lon="12.4764483"><ele>193.0</ele><time>2026-04-18T14:30:10.969Z</time></trkpt><trkpt lat="43.10561" lon="12.4763467"><ele>193.0</ele><time>2026-04-18T14:30:11.969Z</time></trkpt><trkpt lat="43.1057133" lon="12.4762467"><ele>193.0</ele><time>2026-04-18T14:30:12.969Z</time></trkpt><trkpt lat="43.1058217" lon="12.4761433"><ele>192.5</ele><time>2026-04-18T14:30:13.969Z</time></trkpt><trkpt lat="43.105925" lon="12.4760367"><ele>192.0</ele><time>2026-04-18T14:30:14.969Z</time></trkpt><trkpt lat="43.106035" lon="12.4759233"><ele>191.5</ele><time>2026-04-18T14:30:15.969Z</time></trkpt><trkpt lat="43.1061433" lon="12.4758083"><ele>191.0</ele><time>2026-04-18T14:30:16.969Z</time></trkpt><trkpt lat="43.10625" lon="12.4756967"><ele>191.0</ele><time>2026-04-18T14:30:17.969Z</time></trkpt><trkpt lat="43.10636" lon="12.4755833"><ele>191.0</ele><time>2026-04-18T14:30:18.969Z</time></trkpt><trkpt lat="43.106465" lon="12.4754683"><ele>191.0</ele><time>2026-04-18T14:30:19.969Z</time></trkpt><trkpt lat="43.106565" lon="12.4753583"><ele>191.0</ele><time>2026-04-18T14:30:20.969Z</time></trkpt><trkpt lat="43.10666" lon="12.47526"><ele>191.75</ele><time>2026-04-18T14:30:21.969Z</time></trkpt><trkpt lat="43.1067567" lon="12.4751733"><ele>192.5</ele><time>2026-04-18T14:30:22.969Z</time></trkpt><trkpt lat="43.1068567" lon="12.4750967"><ele>193.25</ele><time>2026-04-18T14:30:23.969Z</time></trkpt><trkpt lat="43.1069667" lon="12.4750383"><ele>194.0</ele><time>2026-04-18T14:30:24.969Z</time></trkpt><trkpt lat="43.1070867" lon="12.4749967"><ele>194.0</ele><time>2026-04-18T14:30:25.969Z</time></trkpt><trkpt lat="43.1072167" lon="12.47496"><ele>194.0</ele><time>2026-04-18T14:30:26.969Z</time></trkpt><trkpt lat="43.1073383" lon="12.4749167"><ele>194.0</ele><time>2026-04-18T14:30:27.969Z</time></trkpt><trkpt lat="43.1074517" lon="12.47487"><ele>194.0</ele><time>2026-04-18T14:30:28.969Z</time></trkpt><trkpt lat="43.1075717" lon="12.4748283"><ele>194.39999999999998</ele><time>2026-04-18T14:30:29.969Z</time></trkpt><trkpt lat="43.1076833" lon="12.4747933"><ele>194.8</ele><time>2026-04-18T14:30:30.969Z</time></trkpt><trkpt lat="43.1077817" lon="12.4747633"><ele>195.2</ele><time>2026-04-18T14:30:31.969Z</time></trkpt><trkpt lat="43.10787" lon="12.4747317"><ele>195.60000000000002</ele><time>2026-04-18T14:30:32.969Z</time></trkpt><trkpt lat="43.107955" lon="12.474685"><ele>196.0</ele><time>2026-04-18T14:30:33.969Z</time></trkpt><trkpt lat="43.108035" lon="12.4746267"><ele>196.16666666666666</ele><time>2026-04-18T14:30:34.969Z</time></trkpt><trkpt lat="43.1081033" lon="12.4745517"><ele>196.33333333333331</ele><time>2026-04-18T14:30:35.969Z</time></trkpt><trkpt lat="43.1081583" lon="12.474465"><ele>196.5</ele><time>2026-04-18T14:30:36.969Z</time></trkpt><trkpt lat="43.1082067" lon="12.4743667"><ele>196.66666666666669</ele><time>2026-04-18T14:30:37.969Z</time></trkpt><trkpt lat="43.108235" lon="12.474255"><ele>196.83333333333334</ele><time>2026-04-18T14:30:38.969Z</time></trkpt><trkpt lat="43.1082467" lon="12.4741267"><ele>197.0</ele><time>2026-04-18T14:30:39.969Z</time></trkpt><trkpt lat="43.1082367" lon="12.4739883"><ele>196.25</ele><time>2026-04-18T14:30:40.969Z</time></trkpt><trkpt lat="43.108215" lon="12.4738383"><ele>195.5</ele><time>2026-04-18T14:30:41.969Z</time></trkpt><trkpt lat="43.1081783" lon="12.4736833"><ele>194.75</ele><time>2026-04-18T14:30:42.969Z</time></trkpt><trkpt lat="43.1081433" lon="12.4735117"><ele>194.0</ele><time>2026-04-18T14:30:43.969Z</time></trkpt><trkpt lat="43.1081083" lon="12.4733533"><ele>193.75</ele><time>2026-04-18T14:30:44.969Z</time></trkpt><trkpt lat="43.1080733" lon="12.4731883"><ele>193.5</ele><time>2026-04-18T14:30:45.969Z</time></trkpt><trkpt lat="43.1080383" lon="12.473015"><ele>193.25</ele><time>2026-04-18T14:30:46.969Z</time></trkpt><trkpt lat="43.1079967" lon="12.4728317"><ele>193.0</ele><time>2026-04-18T14:30:47.969Z</time></trkpt><trkpt lat="43.10797" lon="12.4726533"><ele>193.25</ele><time>2026-04-18T14:30:48.969Z</time></trkpt><trkpt lat="43.1079283" lon="12.4724733"><ele>193.5</ele><time>2026-04-18T14:30:49.969Z</time></trkpt><trkpt lat="43.1078883" lon="12.47229"><ele>193.75</ele><time>2026-04-18T14:30:50.969Z</time></trkpt><trkpt lat="43.1078617" lon="12.472095"><ele>194.0</ele><time>2026-04-18T14:30:51.969Z</time></trkpt><trkpt lat="43.1078383" lon="12.4719083"><ele>194.0</ele><time>2026-04-18T14:30:52.969Z</time></trkpt><trkpt lat="43.1078217" lon="12.47172"><ele>194.0</ele><time>2026-04-18T14:30:53.969Z</time></trkpt><trkpt lat="43.1078" lon="12.4715183"><ele>194.0</ele><time>2026-04-18T14:30:54.969Z</time></trkpt><trkpt lat="43.107785" lon="12.47131"><ele>194.0</ele><time>2026-04-18T14:30:55.969Z</time></trkpt><trkpt lat="43.107765" lon="12.4710983"><ele>192.33333333333334</ele><time>2026-04-18T14:30:56.969Z</time></trkpt><trkpt lat="43.1077417" lon="12.4708883"><ele>190.66666666666669</ele><time>2026-04-18T14:30:57.969Z</time></trkpt><trkpt lat="43.107715" lon="12.4706717"><ele>189.0</ele><time>2026-04-18T14:30:58.969Z</time></trkpt><trkpt lat="43.107695" lon="12.4704517"><ele>188.66666666666666</ele><time>2026-04-18T14:30:59.969Z</time></trkpt><trkpt lat="43.10768" lon="12.47024"><ele>188.33333333333331</ele><time>2026-04-18T14:31:00.969Z</time></trkpt><trkpt lat="43.1076633" lon="12.4700217"><ele>188.0</ele><time>2026-04-18T14:31:01.969Z</time></trkpt><trkpt lat="43.1076383" lon="12.4697933"><ele>188.33333333333331</ele><time>2026-04-18T14:31:02.969Z</time></trkpt><trkpt lat="43.1076033" lon="12.46957"><ele>188.66666666666666</ele><time>2026-04-18T14:31:03.969Z</time></trkpt><trkpt lat="43.1075617" lon="12.46934"><ele>189.0</ele><time>2026-04-18T14:31:04.969Z</time></trkpt><trkpt lat="43.1075233" lon="12.4691117"><ele>189.0</ele><time>2026-04-18T14:31:05.969Z</time></trkpt><trkpt lat="43.1074867" lon="12.4688817"><ele>189.0</ele><time>2026-04-18T14:31:06.969Z</time></trkpt><trkpt lat="43.1074433" lon="12.4686633"><ele>189.0</ele><time>2026-04-18T14:31:07.969Z</time></trkpt><trkpt lat="43.1073967" lon="12.4684633"><ele>189.0</ele><time>2026-04-18T14:31:08.969Z</time></trkpt><trkpt lat="43.1073533" lon="12.4682683"><ele>189.0</ele><time>2026-04-18T14:31:09.969Z</time></trkpt><trkpt lat="43.10731" lon="12.468085"><ele>189.0</ele><time>2026-04-18T14:31:10.969Z</time></trkpt><trkpt lat="43.1072583" lon="12.467895"><ele>189.0</ele><time>2026-04-18T14:31:11.969Z</time></trkpt><trkpt lat="43.1072067" lon="12.4677017"><ele>189.0</ele><time>2026-04-18T14:31:12.969Z</time></trkpt><trkpt lat="43.1071617" lon="12.46751"><ele>189.0</ele><time>2026-04-18T14:31:13.969Z</time></trkpt><trkpt lat="43.1071233" lon="12.4673067"><ele>189.0</ele><time>2026-04-18T14:31:14.969Z</time></trkpt><trkpt lat="43.1070783" lon="12.46709"><ele>188.66666666666666</ele><time>2026-04-18T14:31:15.969Z</time></trkpt><trkpt lat="43.1070433" lon="12.4668567"><ele>188.33333333333331</ele><time>2026-04-18T14:31:16.969Z</time></trkpt><trkpt lat="43.1069933" lon="12.4666433"><ele>188.0</ele><time>2026-04-18T14:31:17.969Z</time></trkpt><trkpt lat="43.10695" lon="12.466435"><ele>187.33333333333331</ele><time>2026-04-18T14:31:18.969Z</time></trkpt><trkpt lat="43.1069183" lon="12.466215"><ele>186.66666666666666</ele><time>2026-04-18T14:31:19.969Z</time></trkpt><trkpt lat="43.1068833" lon="12.4659867"><ele>186.0</ele><time>2026-04-18T14:31:20.969Z</time></trkpt><trkpt lat="43.1068567" lon="12.465765"><ele>186.0</ele><time>2026-04-18T14:31:21.969Z</time></trkpt><trkpt lat="43.1068267" lon="12.4655367"><ele>186.0</ele><time>2026-04-18T14:31:22.969Z</time></trkpt><trkpt lat="43.1068" lon="12.4653167"><ele>186.0</ele><time>2026-04-18T14:31:23.969Z</time></trkpt><trkpt lat="43.1067783" lon="12.4651083"><ele>186.25</ele><time>2026-04-18T14:31:24.969Z</time></trkpt><trkpt lat="43.1067617" lon="12.464905"><ele>186.5</ele><time>2026-04-18T14:31:25.969Z</time></trkpt><trkpt lat="43.1067533" lon="12.4647117"><ele>186.75</ele><time>2026-04-18T14:31:26.969Z</time></trkpt><trkpt lat="43.1067483" lon="12.4645317"><ele>187.0</ele><time>2026-04-18T14:31:27.969Z</time></trkpt><trkpt lat="43.1067517" lon="12.4643617"><ele>187.5</ele><time>2026-04-18T14:31:28.969Z</time></trkpt><trkpt lat="43.10678" lon="12.4642033"><ele>188.0</ele><time>2026-04-18T14:31:29.969Z</time></trkpt><trkpt lat="43.10682" lon="12.4640383"><ele>188.5</ele><time>2026-04-18T14:31:30.969Z</time></trkpt><trkpt lat="43.1068717" lon="12.46388"><ele>189.0</ele><time>2026-04-18T14:31:31.969Z</time></trkpt><trkpt lat="43.1069333" lon="12.463735"><ele>189.0</ele><time>2026-04-18T14:31:32.969Z</time></trkpt><trkpt lat="43.107" lon="12.4635767"><ele>189.0</ele><time>2026-04-18T14:31:33.969Z</time></trkpt><trkpt lat="43.10707" lon="12.4634267"><ele>189.0</ele><time>2026-04-18T14:31:34.969Z</time></trkpt><trkpt lat="43.1071317" lon="12.4632767"><ele>189.0</ele><time>2026-04-18T14:31:35.969Z</time></trkpt><trkpt lat="43.1071933" lon="12.4631317"><ele>189.0</ele><time>2026-04-18T14:31:36.969Z</time></trkpt><trkpt lat="43.1072533" lon="12.462985"><ele>189.0</ele><time>2026-04-18T14:31:37.969Z</time></trkpt><trkpt lat="43.1073117" lon="12.4628417"><ele>189.0</ele><time>2026-04-18T14:31:38.969Z</time></trkpt><trkpt lat="43.1073783" lon="12.4627033"><ele>189.0</ele><time>2026-04-18T14:31:39.969Z</time></trkpt><trkpt lat="43.1074417" lon="12.4625633"><ele>189.75</ele><time>2026-04-18T14:31:40.969Z</time></trkpt><trkpt lat="43.1074967" lon="12.4624183"><ele>190.5</ele><time>2026-04-18T14:31:41.969Z</time></trkpt><trkpt lat="43.10755" lon="12.4622717"><ele>191.25</ele><time>2026-04-18T14:31:42.969Z</time></trkpt><trkpt lat="43.107605" lon="12.46213"><ele>192.0</ele><time>2026-04-18T14:31:43.969Z</time></trkpt><trkpt lat="43.1076683" lon="12.4619867"><ele>192.0</ele><time>2026-04-18T14:31:44.969Z</time></trkpt><trkpt lat="43.1077267" lon="12.4618467"><ele>192.0</ele><time>2026-04-18T14:31:45.969Z</time></trkpt><trkpt lat="43.10778" lon="12.4616967"><ele>192.0</ele><time>2026-04-18T14:31:46.969Z</time></trkpt><trkpt lat="43.1078217" lon="12.461545"><ele>192.0</ele><time>2026-04-18T14:31:47.969Z</time></trkpt><trkpt lat="43.1078583" lon="12.4613817"><ele>191.75</ele><time>2026-04-18T14:31:48.969Z</time></trkpt><trkpt lat="43.1078967" lon="12.461215"><ele>191.5</ele><time>2026-04-18T14:31:49.969Z</time></trkpt><trkpt lat="43.1079317" lon="12.46105"><ele>191.25</ele><time>2026-04-18T14:31:50.969Z</time></trkpt><trkpt lat="43.1079733" lon="12.4608783"><ele>191.0</ele><time>2026-04-18T14:31:51.969Z</time></trkpt><trkpt lat="43.108005" lon="12.4607133"><ele>191.0</ele><time>2026-04-18T14:31:52.969Z</time></trkpt><trkpt lat="43.1080417" lon="12.4605533"><ele>191.0</ele><time>2026-04-18T14:31:53.969Z</time></trkpt><trkpt lat="43.1080817" lon="12.460395"><ele>191.0</ele><time>2026-04-18T14:31:54.969Z</time></trkpt><trkpt lat="43.1081167" lon="12.4602333"><ele>191.0</ele><time>2026-04-18T14:31:55.969Z</time></trkpt><trkpt lat="43.1081517" lon="12.46008"><ele>191.0</ele><time>2026-04-18T14:31:56.969Z</time></trkpt><trkpt lat="43.1081817" lon="12.4599267"><ele>191.0</ele><time>2026-04-18T14:31:57.969Z</time></trkpt><trkpt lat="43.1082167" lon="12.4597817"><ele>191.0</ele><time>2026-04-18T14:31:58.969Z</time></trkpt><trkpt lat="43.1082533" lon="12.4596367"><ele>191.0</ele><time>2026-04-18T14:31:59.969Z</time></trkpt><trkpt lat="43.1082767" lon="12.4595133"><ele>191.0</ele><time>2026-04-18T14:32:00.969Z</time></trkpt><trkpt lat="43.108305" lon="12.4593983"><ele>191.0</ele><time>2026-04-18T14:32:01.969Z</time></trkpt><trkpt lat="43.1083283" lon="12.4592783"><ele>191.0</ele><time>2026-04-18T14:32:02.969Z</time></trkpt><trkpt lat="43.10834" lon="12.459155"><ele>191.0</ele><time>2026-04-18T14:32:03.969Z</time></trkpt><trkpt lat="43.108335" lon="12.4590217"><ele>191.0</ele><time>2026-04-18T14:32:04.969Z</time></trkpt><trkpt lat="43.108325" lon="12.4588717"><ele>191.0</ele><time>2026-04-18T14:32:05.969Z</time></trkpt><trkpt lat="43.1083133" lon="12.45873"><ele>191.0</ele><time>2026-04-18T14:32:06.969Z</time></trkpt><trkpt lat="43.1082967" lon="12.4585933"><ele>191.0</ele><time>2026-04-18T14:32:07.969Z</time></trkpt><trkpt lat="43.1082783" lon="12.4584567"><ele>191.0</ele><time>2026-04-18T14:32:08.969Z</time></trkpt><trkpt lat="43.108265" lon="12.458315"><ele>191.0</ele><time>2026-04-18T14:32:09.969Z</time></trkpt><trkpt lat="43.108255" lon="12.4581817"><ele>191.0</ele><time>2026-04-18T14:32:10.969Z</time></trkpt><trkpt lat="43.1082633" lon="12.45805"><ele>190.60000000000002</ele><time>2026-04-18T14:32:11.969Z</time></trkpt><trkpt lat="43.10828" lon="12.45792"><ele>190.2</ele><time>2026-04-18T14:32:12.969Z</time></trkpt><trkpt lat="43.1083017" lon="12.45778"><ele>189.8</ele><time>2026-04-18T14:32:13.969Z</time></trkpt><trkpt lat="43.1083333" lon="12.4576283"><ele>189.39999999999998</ele><time>2026-04-18T14:32:14.969Z</time></trkpt><trkpt lat="43.10837" lon="12.4574817"><ele>189.0</ele><time>2026-04-18T14:32:15.969Z</time></trkpt><trkpt lat="43.108395" lon="12.4573333"><ele>189.0</ele><time>2026-04-18T14:32:16.969Z</time></trkpt><trkpt lat="43.1084233" lon="12.4571917"><ele>189.0</ele><time>2026-04-18T14:32:17.969Z</time></trkpt><trkpt lat="43.108435" lon="12.45705"><ele>189.0</ele><time>2026-04-18T14:32:18.969Z</time></trkpt><trkpt lat="43.10846" lon="12.4569033"><ele>189.0</ele><time>2026-04-18T14:32:19.969Z</time></trkpt><trkpt lat="43.1084867" lon="12.4567367"><ele>189.0</ele><time>2026-04-18T14:32:20.969Z</time></trkpt><trkpt lat="43.1085133" lon="12.4565667"><ele>189.25</ele><time>2026-04-18T14:32:21.969Z</time></trkpt><trkpt lat="43.1085433" lon="12.4563917"><ele>189.5</ele><time>2026-04-18T14:32:22.969Z</time></trkpt><trkpt lat="43.1085733" lon="12.4562183"><ele>189.75</ele><time>2026-04-18T14:32:23.969Z</time></trkpt><trkpt lat="43.1086033" lon="12.4560483"><ele>190.0</ele><time>2026-04-18T14:32:24.969Z</time></trkpt><trkpt lat="43.1086333" lon="12.4558783"><ele>190.0</ele><time>2026-04-18T14:32:25.969Z</time></trkpt><trkpt lat="43.1086617" lon="12.455705"><ele>190.0</ele><time>2026-04-18T14:32:26.969Z</time></trkpt><trkpt lat="43.1086867" lon="12.45553"><ele>190.0</ele><time>2026-04-18T14:32:27.969Z</time></trkpt><trkpt lat="43.1087217" lon="12.455355"><ele>190.0</ele><time>2026-04-18T14:32:28.969Z</time></trkpt><trkpt lat="43.1087417" lon="12.4551983"><ele>190.0</ele><time>2026-04-18T14:32:29.969Z</time></trkpt><trkpt lat="43.108765" lon="12.455045"><ele>190.0</ele><time>2026-04-18T14:32:30.969Z</time></trkpt><trkpt lat="43.10879" lon="12.4548933"><ele>190.0</ele><time>2026-04-18T14:32:31.969Z</time></trkpt><trkpt lat="43.1088117" lon="12.4547533"><ele>190.0</ele><time>2026-04-18T14:32:32.969Z</time></trkpt><trkpt lat="43.1088333" lon="12.454625"><ele>190.0</ele><time>2026-04-18T14:32:33.969Z</time></trkpt><trkpt lat="43.1088517" lon="12.4545067"><ele>189.66666666666669</ele><time>2026-04-18T14:32:34.969Z</time></trkpt><trkpt lat="43.10887" lon="12.4543933"><ele>189.33333333333334</ele><time>2026-04-18T14:32:35.969Z</time></trkpt><trkpt lat="43.1088867" lon="12.4542867"><ele>189.0</ele><time>2026-04-18T14:32:36.969Z</time></trkpt><trkpt lat="43.108905" lon="12.4541783"><ele>188.66666666666666</ele><time>2026-04-18T14:32:37.969Z</time></trkpt><trkpt lat="43.108925" lon="12.4540583"><ele>188.33333333333331</ele><time>2026-04-18T14:32:38.969Z</time></trkpt><trkpt lat="43.1089383" lon="12.453935"><ele>188.0</ele><time>2026-04-18T14:32:39.969Z</time></trkpt><trkpt lat="43.1089617" lon="12.4538183"><ele>187.83333333333331</ele><time>2026-04-18T14:32:40.969Z</time></trkpt><trkpt lat="43.1089783" lon="12.45371"><ele>187.66666666666666</ele><time>2026-04-18T14:32:41.969Z</time></trkpt><trkpt lat="43.1090117" lon="12.453625"><ele>187.5</ele><time>2026-04-18T14:32:42.969Z</time></trkpt><trkpt lat="43.1090583" lon="12.4535667"><ele>187.33333333333334</ele><time>2026-04-18T14:32:43.969Z</time></trkpt><trkpt lat="43.10912" lon="12.4535233"><ele>187.16666666666669</ele><time>2026-04-18T14:32:44.969Z</time></trkpt><trkpt lat="43.1092033" lon="12.4534967"><ele>187.0</ele><time>2026-04-18T14:32:45.969Z</time></trkpt><trkpt lat="43.1092983" lon="12.4535017"><ele>187.75</ele><time>2026-04-18T14:32:46.969Z</time></trkpt><trkpt lat="43.109405" lon="12.4535"><ele>188.5</ele><time>2026-04-18T14:32:47.969Z</time></trkpt><trkpt lat="43.10952" lon="12.4534967"><ele>189.25</ele><time>2026-04-18T14:32:48.969Z</time></trkpt><trkpt lat="43.109645" lon="12.453485"><ele>190.0</ele><time>2026-04-18T14:32:49.969Z</time></trkpt><trkpt lat="43.1097717" lon="12.4534683"><ele>190.0</ele><time>2026-04-18T14:32:50.969Z</time></trkpt><trkpt lat="43.1099033" lon="12.4534567"><ele>190.0</ele><time>2026-04-18T14:32:51.969Z</time></trkpt><trkpt lat="43.11003" lon="12.4534433"><ele>190.0</ele><time>2026-04-18T14:32:52.969Z</time></trkpt><trkpt lat="43.110155" lon="12.4534267"><ele>190.0</ele><time>2026-04-18T14:32:53.969Z</time></trkpt><trkpt lat="43.1102767" lon="12.4534117"><ele>190.25</ele><time>2026-04-18T14:32:54.969Z</time></trkpt><trkpt lat="43.110395" lon="12.4534017"><ele>190.5</ele><time>2026-04-18T14:32:55.969Z</time></trkpt><trkpt lat="43.1105133" lon="12.4533867"><ele>190.75</ele><time>2026-04-18T14:32:56.969Z</time></trkpt><trkpt lat="43.1106317" lon="12.4533683"><ele>191.0</ele><time>2026-04-18T14:32:57.969Z</time></trkpt><trkpt lat="43.110745" lon="12.4533567"><ele>191.25</ele><time>2026-04-18T14:32:58.969Z</time></trkpt><trkpt lat="43.1108567" lon="12.453325"><ele>191.5</ele><time>2026-04-18T14:32:59.969Z</time></trkpt><trkpt lat="43.1109683" lon="12.4532733"><ele>191.75</ele><time>2026-04-18T14:33:00.969Z</time></trkpt><trkpt lat="43.1110817" lon="12.4532033"><ele>192.0</ele><time>2026-04-18T14:33:01.969Z</time></trkpt><trkpt lat="43.1111933" lon="12.4531217"><ele>192.0</ele><time>2026-04-18T14:33:02.969Z</time></trkpt><trkpt lat="43.1113017" lon="12.4530333"><ele>192.0</ele><time>2026-04-18T14:33:03.969Z</time></trkpt><trkpt lat="43.1114017" lon="12.4529383"><ele>192.0</ele><time>2026-04-18T14:33:04.969Z</time></trkpt><trkpt lat="43.1114933" lon="12.4528483"><ele>192.0</ele><time>2026-04-18T14:33:05.969Z</time></trkpt><trkpt lat="43.111585" lon="12.45276"><ele>192.25</ele><time>2026-04-18T14:33:06.969Z</time></trkpt><trkpt lat="43.11168" lon="12.4526683"><ele>192.5</ele><time>2026-04-18T14:33:07.969Z</time></trkpt><trkpt lat="43.1117733" lon="12.4525667"><ele>192.75</ele><time>2026-04-18T14:33:08.969Z</time></trkpt><trkpt lat="43.11186" lon="12.4524633"><ele>193.0</ele><time>2026-04-18T14:33:09.969Z</time></trkpt><trkpt lat="43.1119567" lon="12.4523583"><ele>193.0</ele><time>2026-04-18T14:33:10.969Z</time></trkpt><trkpt lat="43.11206" lon="12.4522583"><ele>193.0</ele><time>2026-04-18T14:33:11.969Z</time></trkpt><trkpt lat="43.11216" lon="12.4521467"><ele>193.0</ele><time>2026-04-18T14:33:12.969Z</time></trkpt><trkpt lat="43.1122617" lon="12.45204"><ele>193.0</ele><time>2026-04-18T14:33:13.969Z</time></trkpt><trkpt lat="43.112365" lon="12.4519283"><ele>192.8</ele><time>2026-04-18T14:33:14.969Z</time></trkpt><trkpt lat="43.11246" lon="12.4518183"><ele>192.60000000000002</ele><time>2026-04-18T14:33:15.969Z</time></trkpt><trkpt lat="43.1125517" lon="12.4517217"><ele>192.39999999999998</ele><time>2026-04-18T14:33:16.969Z</time></trkpt><trkpt lat="43.1126367" lon="12.4516317"><ele>192.2</ele><time>2026-04-18T14:33:17.969Z</time></trkpt><trkpt lat="43.112705" lon="12.451565"><ele>192.0</ele><time>2026-04-18T14:33:18.969Z</time></trkpt><trkpt lat="43.112765" lon="12.4515017"><ele>192.0</ele><time>2026-04-18T14:33:19.969Z</time></trkpt><trkpt lat="43.1128717" lon="12.4514267"><ele>192.0</ele><time>2026-04-18T14:33:21.969Z</time></trkpt><trkpt lat="43.112985" lon="12.4513917"><ele>192.0</ele><time>2026-04-18T14:33:23.969Z</time></trkpt><trkpt lat="43.1130417" lon="12.45129"><ele>192.0</ele><time>2026-04-18T14:33:25.969Z</time></trkpt><trkpt lat="43.113005" lon="12.451175"><ele>192.0</ele><time>2026-04-18T14:33:27.969Z</time></trkpt><trkpt lat="43.11288" lon="12.4511117"><ele>192.2</ele><time>2026-04-18T14:33:29.969Z</time></trkpt><trkpt lat="43.1128017" lon="12.45108"><ele>192.39999999999998</ele><time>2026-04-18T14:33:30.969Z</time></trkpt><trkpt lat="43.1127233" lon="12.4510283"><ele>192.60000000000002</ele><time>2026-04-18T14:33:31.969Z</time></trkpt><trkpt lat="43.112645" lon="12.4509617"><ele>192.8</ele><time>2026-04-18T14:33:32.969Z</time></trkpt><trkpt lat="43.1125633" lon="12.4508867"><ele>193.0</ele><time>2026-04-18T14:33:33.969Z</time></trkpt><trkpt lat="43.1124817" lon="12.4508183"><ele>193.0</ele><time>2026-04-18T14:33:34.969Z</time></trkpt><trkpt lat="43.112395" lon="12.45074"><ele>193.0</ele><time>2026-04-18T14:33:35.969Z</time></trkpt><trkpt lat="43.112305" lon="12.450665"><ele>193.0</ele><time>2026-04-18T14:33:36.969Z</time></trkpt><trkpt lat="43.1122083" lon="12.4505917"><ele>193.0</ele><time>2026-04-18T14:33:37.969Z</time></trkpt><trkpt lat="43.1121233" lon="12.4505033"><ele>193.0</ele><time>2026-04-18T14:33:38.969Z</time></trkpt><trkpt lat="43.1120383" lon="12.4504183"><ele>192.75</ele><time>2026-04-18T14:33:39.969Z</time></trkpt><trkpt lat="43.111945" lon="12.45033"><ele>192.5</ele><time>2026-04-18T14:33:40.969Z</time></trkpt><trkpt lat="43.111845" lon="12.4502483"><ele>192.25</ele><time>2026-04-18T14:33:41.969Z</time></trkpt><trkpt lat="43.11175" lon="12.450155"><ele>192.0</ele><time>2026-04-18T14:33:42.969Z</time></trkpt><trkpt lat="43.1116717" lon="12.450045"><ele>192.0</ele><time>2026-04-18T14:33:43.969Z</time></trkpt><trkpt lat="43.1116" lon="12.4499233"><ele>192.0</ele><time>2026-04-18T14:33:44.969Z</time></trkpt><trkpt lat="43.1115367" lon="12.44979"><ele>192.0</ele><time>2026-04-18T14:33:45.969Z</time></trkpt><trkpt lat="43.11147" lon="12.44966"><ele>192.0</ele><time>2026-04-18T14:33:46.969Z</time></trkpt><trkpt lat="43.1114117" lon="12.4495383"><ele>192.6</ele><time>2026-04-18T14:33:47.969Z</time></trkpt><trkpt lat="43.1113533" lon="12.4494167"><ele>193.2</ele><time>2026-04-18T14:33:48.969Z</time></trkpt><trkpt lat="43.111295" lon="12.4492983"><ele>193.8</ele><time>2026-04-18T14:33:49.969Z</time></trkpt><trkpt lat="43.11124" lon="12.449175"><ele>194.4</ele><time>2026-04-18T14:33:50.969Z</time></trkpt><trkpt lat="43.1111817" lon="12.4490517"><ele>195.0</ele><time>2026-04-18T14:33:51.969Z</time></trkpt><trkpt lat="43.1111133" lon="12.4489317"><ele>195.0</ele><time>2026-04-18T14:33:52.969Z</time></trkpt><trkpt lat="43.1110533" lon="12.4488033"><ele>195.0</ele><time>2026-04-18T14:33:53.969Z</time></trkpt><trkpt lat="43.1109817" lon="12.4486583"><ele>195.0</ele><time>2026-04-18T14:33:54.969Z</time></trkpt><trkpt lat="43.110905" lon="12.4485117"><ele>195.0</ele><time>2026-04-18T14:33:55.969Z</time></trkpt><trkpt lat="43.110835" lon="12.4483683"><ele>195.0</ele><time>2026-04-18T14:33:56.969Z</time></trkpt><trkpt lat="43.11077" lon="12.4482383"><ele>195.0</ele><time>2026-04-18T14:33:57.969Z</time></trkpt><trkpt lat="43.1107" lon="12.4481217"><ele>195.0</ele><time>2026-04-18T14:33:58.969Z</time></trkpt><trkpt lat="43.11064" lon="12.4480083"><ele>195.0</ele><time>2026-04-18T14:33:59.969Z</time></trkpt><trkpt lat="43.1105817" lon="12.44789"><ele>195.0</ele><time>2026-04-18T14:34:00.969Z</time></trkpt><trkpt lat="43.11053" lon="12.4477633"><ele>195.0</ele><time>2026-04-18T14:34:01.969Z</time></trkpt><trkpt lat="43.1104667" lon="12.44765"><ele>195.0</ele><time>2026-04-18T14:34:02.969Z</time></trkpt><trkpt lat="43.1104" lon="12.4475183"><ele>195.0</ele><time>2026-04-18T14:34:03.969Z</time></trkpt><trkpt lat="43.1103267" lon="12.4473917"><ele>195.0</ele><time>2026-04-18T14:34:04.969Z</time></trkpt><trkpt lat="43.1102533" lon="12.4472617"><ele>195.0</ele><time>2026-04-18T14:34:05.969Z</time></trkpt><trkpt lat="43.1101783" lon="12.4471383"><ele>195.0</ele><time>2026-04-18T14:34:06.969Z</time></trkpt><trkpt lat="43.1101067" lon="12.4470033"><ele>195.0</ele><time>2026-04-18T14:34:07.969Z</time></trkpt><trkpt lat="43.1100367" lon="12.4468617"><ele>195.0</ele><time>2026-04-18T14:34:08.969Z</time></trkpt><trkpt lat="43.109955" lon="12.4467167"><ele>195.0</ele><time>2026-04-18T14:34:09.969Z</time></trkpt><trkpt lat="43.1098683" lon="12.4465717"><ele>195.0</ele><time>2026-04-18T14:34:10.969Z</time></trkpt><trkpt lat="43.1097933" lon="12.44641"><ele>195.0</ele><time>2026-04-18T14:34:11.969Z</time></trkpt><trkpt lat="43.1097167" lon="12.4462567"><ele>195.0</ele><time>2026-04-18T14:34:12.969Z</time></trkpt><trkpt lat="43.10964" lon="12.44612"><ele>194.5</ele><time>2026-04-18T14:34:13.969Z</time></trkpt><trkpt lat="43.109555" lon="12.44599"><ele>194.0</ele><time>2026-04-18T14:34:14.969Z</time></trkpt><trkpt lat="43.1094617" lon="12.4458833"><ele>193.5</ele><time>2026-04-18T14:34:15.969Z</time></trkpt><trkpt lat="43.1093633" lon="12.445785"><ele>193.0</ele><time>2026-04-18T14:34:16.969Z</time></trkpt><trkpt lat="43.1092567" lon="12.4457033"><ele>193.0</ele><time>2026-04-18T14:34:17.969Z</time></trkpt><trkpt lat="43.109155" lon="12.445615"><ele>193.0</ele><time>2026-04-18T14:34:18.969Z</time></trkpt><trkpt lat="43.10906" lon="12.4455317"><ele>193.0</ele><time>2026-04-18T14:34:19.969Z</time></trkpt><trkpt lat="43.1089733" lon="12.4454583"><ele>193.0</ele><time>2026-04-18T14:34:20.969Z</time></trkpt><trkpt lat="43.1088917" lon="12.4453933"><ele>193.0</ele><time>2026-04-18T14:34:21.969Z</time></trkpt><trkpt lat="43.1088183" lon="12.4453283"><ele>192.83333333333331</ele><time>2026-04-18T14:34:22.969Z</time></trkpt><trkpt lat="43.1087533" lon="12.44527"><ele>192.66666666666666</ele><time>2026-04-18T14:34:23.969Z</time></trkpt><trkpt lat="43.1086967" lon="12.44522"><ele>192.5</ele><time>2026-04-18T14:34:24.969Z</time></trkpt><trkpt lat="43.10864" lon="12.44517"><ele>192.33333333333331</ele><time>2026-04-18T14:34:26.969Z</time></trkpt><trkpt lat="43.1085667" lon="12.4451283"><ele>192.16666666666666</ele><time>2026-04-18T14:35:40.968Z</time></trkpt><trkpt lat="43.1084917" lon="12.4450583"><ele>192.0</ele><time>2026-04-18T14:35:42.968Z</time></trkpt><trkpt lat="43.108385" lon="12.4449683"><ele>191.99999999999997</ele><time>2026-04-18T14:35:44.968Z</time></trkpt><trkpt lat="43.1083233" lon="12.444915"><ele>192.0</ele><time>2026-04-18T14:35:45.968Z</time></trkpt><trkpt lat="43.1082617" lon="12.44486"><ele>192.0</ele><time>2026-04-18T14:35:46.968Z</time></trkpt><trkpt lat="43.1081983" lon="12.444805"><ele>192.0</ele><time>2026-04-18T14:35:47.968Z</time></trkpt><trkpt lat="43.108135" lon="12.44475"><ele>192.0</ele><time>2026-04-18T14:35:48.968Z</time></trkpt><trkpt lat="43.108075" lon="12.444695"><ele>191.99999999999997</ele><time>2026-04-18T14:35:49.968Z</time></trkpt><trkpt lat="43.108015" lon="12.4446467"><ele>192.0</ele><time>2026-04-18T14:35:50.968Z</time></trkpt><trkpt lat="43.107915" lon="12.4445683"><ele>195.0</ele><time>2026-04-18T14:35:52.968Z</time></trkpt><trkpt lat="43.10783" lon="12.4445017"><ele>198.0</ele><time>2026-04-18T14:35:54.968Z</time></trkpt><trkpt lat="43.1077483" lon="12.4444283"><ele>201.0</ele><time>2026-04-18T14:35:56.968Z</time></trkpt><trkpt lat="43.107645" lon="12.444325"><ele>204.0</ele><time>2026-04-18T14:35:58.968Z</time></trkpt><trkpt lat="43.1075983" lon="12.44425"><ele>207.0</ele><time>2026-04-18T14:35:59.968Z</time></trkpt><trkpt lat="43.10757" lon="12.4441567"><ele>207.0</ele><time>2026-04-18T14:36:00.968Z</time></trkpt><trkpt lat="43.1075567" lon="12.444035"><ele>207.0</ele><time>2026-04-18T14:36:01.968Z</time></trkpt><trkpt lat="43.10754" lon="12.4439117"><ele>207.0</ele><time>2026-04-18T14:36:02.968Z</time></trkpt><trkpt lat="43.10753" lon="12.4437967"><ele>207.0</ele><time>2026-04-18T14:36:03.968Z</time></trkpt><trkpt lat="43.1075167" lon="12.4436717"><ele>207.0</ele><time>2026-04-18T14:36:04.968Z</time></trkpt><trkpt lat="43.1075167" lon="12.44352"><ele>209.39999999999998</ele><time>2026-04-18T14:36:05.968Z</time></trkpt><trkpt lat="43.1075167" lon="12.4433667"><ele>211.79999999999998</ele><time>2026-04-18T14:36:06.968Z</time></trkpt><trkpt lat="43.1075183" lon="12.4432167"><ele>214.2</ele><time>2026-04-18T14:36:07.968Z</time></trkpt><trkpt lat="43.10754" lon="12.4430733"><ele>216.6</ele><time>2026-04-18T14:36:08.968Z</time></trkpt><trkpt lat="43.107585" lon="12.4429433"><ele>219.0</ele><time>2026-04-18T14:36:09.968Z</time></trkpt><trkpt lat="43.1076517" lon="12.442825"><ele>222.75</ele><time>2026-04-18T14:36:10.968Z</time></trkpt><trkpt lat="43.1077283" lon="12.44271"><ele>226.5</ele><time>2026-04-18T14:36:11.968Z</time></trkpt><trkpt lat="43.1078083" lon="12.4425983"><ele>230.25</ele><time>2026-04-18T14:36:12.968Z</time></trkpt><trkpt lat="43.1078933" lon="12.4424783"><ele>234.0</ele><time>2026-04-18T14:36:13.968Z</time></trkpt><trkpt lat="43.1079817" lon="12.4423683"><ele>234.0</ele><time>2026-04-18T14:36:14.968Z</time></trkpt><trkpt lat="43.1080767" lon="12.4422683"><ele>234.0</ele><time>2026-04-18T14:36:15.968Z</time></trkpt><trkpt lat="43.1081733" lon="12.4421833"><ele>234.0</ele><time>2026-04-18T14:36:16.968Z</time></trkpt><trkpt lat="43.1082633" lon="12.4420817"><ele>234.0</ele><time>2026-04-18T14:36:17.968Z</time></trkpt><trkpt lat="43.108335" lon="12.44196"><ele>236.25</ele><time>2026-04-18T14:36:18.968Z</time></trkpt><trkpt lat="43.1083983" lon="12.4418167"><ele>238.5</ele><time>2026-04-18T14:36:19.968Z</time></trkpt><trkpt lat="43.1084533" lon="12.4416633"><ele>240.75</ele><time>2026-04-18T14:36:20.968Z</time></trkpt><trkpt lat="43.1084967" lon="12.4415133"><ele>243.0</ele><time>2026-04-18T14:36:21.968Z</time></trkpt><trkpt lat="43.1085317" lon="12.441365"><ele>244.8</ele><time>2026-04-18T14:36:22.968Z</time></trkpt><trkpt lat="43.10856" lon="12.4412183"><ele>246.60000000000002</ele><time>2026-04-18T14:36:23.968Z</time></trkpt><trkpt lat="43.10856" lon="12.4410783"><ele>248.39999999999998</ele><time>2026-04-18T14:36:24.968Z</time></trkpt><trkpt lat="43.108545" lon="12.4409317"><ele>250.2</ele><time>2026-04-18T14:36:25.968Z</time></trkpt><trkpt lat="43.10851" lon="12.4407933"><ele>252.0</ele><time>2026-04-18T14:36:26.968Z</time></trkpt><trkpt lat="43.10844" lon="12.4406783"><ele>252.0</ele><time>2026-04-18T14:36:27.968Z</time></trkpt><trkpt lat="43.1083483" lon="12.4405833"><ele>252.0</ele><time>2026-04-18T14:36:28.968Z</time></trkpt><trkpt lat="43.108255" lon="12.4404983"><ele>252.0</ele><time>2026-04-18T14:36:29.968Z</time></trkpt><trkpt lat="43.1081583" lon="12.4404133"><ele>252.0</ele><time>2026-04-18T14:36:30.968Z</time></trkpt><trkpt lat="43.108055" lon="12.4403233"><ele>255.75</ele><time>2026-04-18T14:36:31.968Z</time></trkpt><trkpt lat="43.10795" lon="12.4402267"><ele>259.5</ele><time>2026-04-18T14:36:32.968Z</time></trkpt><trkpt lat="43.1078467" lon="12.440135"><ele>263.25</ele><time>2026-04-18T14:36:33.968Z</time></trkpt><trkpt lat="43.1077517" lon="12.4400483"><ele>267.0</ele><time>2026-04-18T14:36:34.968Z</time></trkpt><trkpt lat="43.1076483" lon="12.4399617"><ele>267.0</ele><time>2026-04-18T14:36:35.968Z</time></trkpt><trkpt lat="43.1075533" lon="12.4398883"><ele>267.0</ele><time>2026-04-18T14:36:36.968Z</time></trkpt><trkpt lat="43.1074617" lon="12.439845"><ele>267.0</ele><time>2026-04-18T14:36:37.968Z</time></trkpt><trkpt lat="43.1073583" lon="12.43984"><ele>267.0</ele><time>2026-04-18T14:36:38.968Z</time></trkpt><trkpt lat="43.10726" lon="12.43987"><ele>267.0</ele><time>2026-04-18T14:36:39.968Z</time></trkpt><trkpt lat="43.1071617" lon="12.4399233"><ele>268.6</ele><time>2026-04-18T14:36:40.968Z</time></trkpt><trkpt lat="43.1070583" lon="12.4399717"><ele>270.2</ele><time>2026-04-18T14:36:41.968Z</time></trkpt><trkpt lat="43.10695" lon="12.4400233"><ele>271.8</ele><time>2026-04-18T14:36:42.968Z</time></trkpt><trkpt lat="43.1068533" lon="12.440045"><ele>273.4</ele><time>2026-04-18T14:36:43.968Z</time></trkpt><trkpt lat="43.1067467" lon="12.4400433"><ele>275.0</ele><time>2026-04-18T14:36:44.968Z</time></trkpt><trkpt lat="43.1066483" lon="12.4399933"><ele>278.2</ele><time>2026-04-18T14:36:45.968Z</time></trkpt><trkpt lat="43.1065617" lon="12.4399183"><ele>281.4</ele><time>2026-04-18T14:36:46.968Z</time></trkpt><trkpt lat="43.1064917" lon="12.4398217"><ele>284.6</ele><time>2026-04-18T14:36:47.968Z</time></trkpt><trkpt lat="43.1064283" lon="12.439725"><ele>287.8</ele><time>2026-04-18T14:36:48.968Z</time></trkpt><trkpt lat="43.1063633" lon="12.4396117"><ele>291.0</ele><time>2026-04-18T14:36:49.968Z</time></trkpt><trkpt lat="43.10631" lon="12.439485"><ele>292.0</ele><time>2026-04-18T14:36:50.968Z</time></trkpt><trkpt lat="43.106265" lon="12.4393633"><ele>293.0</ele><time>2026-04-18T14:36:51.968Z</time></trkpt><trkpt lat="43.1062283" lon="12.4392433"><ele>294.0</ele><time>2026-04-18T14:36:52.968Z</time></trkpt><trkpt lat="43.106205" lon="12.4391133"><ele>295.0</ele><time>2026-04-18T14:36:53.968Z</time></trkpt><trkpt lat="43.106195" lon="12.4389733"><ele>296.0</ele><time>2026-04-18T14:36:54.968Z</time></trkpt><trkpt lat="43.1061933" lon="12.4388283"><ele>296.40000000000003</ele><time>2026-04-18T14:36:55.968Z</time></trkpt><trkpt lat="43.1061967" lon="12.43868"><ele>296.8</ele><time>2026-04-18T14:36:56.968Z</time></trkpt><trkpt lat="43.106215" lon="12.4385333"><ele>297.20000000000005</ele><time>2026-04-18T14:36:57.968Z</time></trkpt><trkpt lat="43.1062333" lon="12.438385"><ele>297.6</ele><time>2026-04-18T14:36:58.968Z</time></trkpt><trkpt lat="43.1062367" lon="12.43822"><ele>298.0</ele><time>2026-04-18T14:36:59.967Z</time></trkpt><trkpt lat="43.106245" lon="12.4380533"><ele>299.0</ele><time>2026-04-18T14:37:00.968Z</time></trkpt><trkpt lat="43.1062483" lon="12.4379"><ele>300.0</ele><time>2026-04-18T14:37:01.968Z</time></trkpt><trkpt lat="43.10625" lon="12.4377583"><ele>301.0</ele><time>2026-04-18T14:37:02.968Z</time></trkpt><trkpt lat="43.1062383" lon="12.4376283"><ele>302.0</ele><time>2026-04-18T14:37:03.968Z</time></trkpt><trkpt lat="43.1062333" lon="12.437495"><ele>303.0</ele><time>2026-04-18T14:37:04.968Z</time></trkpt><trkpt lat="43.1062217" lon="12.43739"><ele>303.0</ele><time>2026-04-18T14:37:05.968Z</time></trkpt><trkpt lat="43.1062167" lon="12.4373017"><ele>303.0</ele><time>2026-04-18T14:37:06.968Z</time></trkpt><trkpt lat="43.1062133" lon="12.4371733"><ele>303.0</ele><time>2026-04-18T14:37:08.968Z</time></trkpt><trkpt lat="43.1062067" lon="12.4370467"><ele>303.0</ele><time>2026-04-18T14:37:10.968Z</time></trkpt><trkpt lat="43.1062033" lon="12.436955"><ele>303.0</ele><time>2026-04-18T14:37:11.968Z</time></trkpt><trkpt lat="43.1062067" lon="12.4368533"><ele>303.0</ele><time>2026-04-18T14:37:12.968Z</time></trkpt><trkpt lat="43.1062067" lon="12.43675"><ele>304.3333333333333</ele><time>2026-04-18T14:37:13.968Z</time></trkpt><trkpt lat="43.1062067" lon="12.4366567"><ele>305.6666666666667</ele><time>2026-04-18T14:37:14.968Z</time></trkpt><trkpt lat="43.10622" lon="12.43652"><ele>307.0</ele><time>2026-04-18T14:37:16.968Z</time></trkpt><trkpt lat="43.1062117" lon="12.4363983"><ele>308.33333333333337</ele><time>2026-04-18T14:37:24.968Z</time></trkpt><trkpt lat="43.1062067" lon="12.4362683"><ele>309.6666666666667</ele><time>2026-04-18T14:37:26.968Z</time></trkpt><trkpt lat="43.106195" lon="12.4361633"><ele>311.0</ele><time>2026-04-18T14:37:27.968Z</time></trkpt><trkpt lat="43.1061667" lon="12.4360317"><ele>312.25</ele><time>2026-04-18T14:37:28.968Z</time></trkpt><trkpt lat="43.1061183" lon="12.4358817"><ele>313.5</ele><time>2026-04-18T14:37:29.968Z</time></trkpt><trkpt lat="43.1060417" lon="12.4357417"><ele>314.75</ele><time>2026-04-18T14:37:30.968Z</time></trkpt><trkpt lat="43.105945" lon="12.4356117"><ele>316.0</ele><time>2026-04-18T14:37:31.968Z</time></trkpt><trkpt lat="43.1058617" lon="12.4354967"><ele>316.5</ele><time>2026-04-18T14:37:32.968Z</time></trkpt><trkpt lat="43.105795" lon="12.4354133"><ele>317.0</ele><time>2026-04-18T14:37:33.968Z</time></trkpt><trkpt lat="43.10574" lon="12.43534"><ele>317.5</ele><time>2026-04-18T14:37:34.968Z</time></trkpt><trkpt lat="43.1057083" lon="12.4352617"><ele>318.0</ele><time>2026-04-18T14:37:35.968Z</time></trkpt><trkpt lat="43.105675" lon="12.435175"><ele>318.5</ele><time>2026-04-18T14:37:36.968Z</time></trkpt><trkpt lat="43.1056417" lon="12.4350933"><ele>319.0</ele><time>2026-04-18T14:37:37.968Z</time></trkpt><trkpt lat="43.1056233" lon="12.4349867"><ele>318.2</ele><time>2026-04-18T14:37:38.968Z</time></trkpt><trkpt lat="43.1056117" lon="12.4348583"><ele>317.4</ele><time>2026-04-18T14:37:39.968Z</time></trkpt><trkpt lat="43.105605" lon="12.43473"><ele>316.6</ele><time>2026-04-18T14:37:40.968Z</time></trkpt><trkpt lat="43.1055967" lon="12.4345867"><ele>315.8</ele><time>2026-04-18T14:37:41.968Z</time></trkpt><trkpt lat="43.10559" lon="12.434455"><ele>315.0</ele><time>2026-04-18T14:37:42.968Z</time></trkpt><trkpt lat="43.105585" lon="12.4343017"><ele>315.0</ele><time>2026-04-18T14:37:43.968Z</time></trkpt><trkpt lat="43.10557" lon="12.4341517"><ele>315.0</ele><time>2026-04-18T14:37:44.968Z</time></trkpt><trkpt lat="43.10556" lon="12.4339933"><ele>315.0</ele><time>2026-04-18T14:37:45.968Z</time></trkpt><trkpt lat="43.1055517" lon="12.4338317"><ele>315.0</ele><time>2026-04-18T14:37:46.968Z</time></trkpt><trkpt lat="43.1055383" lon="12.4336683"><ele>318.5</ele><time>2026-04-18T14:37:47.968Z</time></trkpt><trkpt lat="43.1055433" lon="12.4335"><ele>322.0</ele><time>2026-04-18T14:37:48.968Z</time></trkpt><trkpt lat="43.10556" lon="12.4333433"><ele>325.5</ele><time>2026-04-18T14:37:49.968Z</time></trkpt><trkpt lat="43.10559" lon="12.4332"><ele>329.0</ele><time>2026-04-18T14:37:50.968Z</time></trkpt><trkpt lat="43.10564" lon="12.43306"><ele>331.2</ele><time>2026-04-18T14:37:51.968Z</time></trkpt><trkpt lat="43.10569" lon="12.43293"><ele>333.4</ele><time>2026-04-18T14:37:52.968Z</time></trkpt><trkpt lat="43.1057467" lon="12.4328117"><ele>335.6</ele><time>2026-04-18T14:37:53.968Z</time></trkpt><trkpt lat="43.1058267" lon="12.43269"><ele>337.8</ele><time>2026-04-18T14:37:54.968Z</time></trkpt><trkpt lat="43.1059067" lon="12.43257"><ele>340.0</ele><time>2026-04-18T14:37:55.968Z</time></trkpt><trkpt lat="43.1059833" lon="12.4324617"><ele>341.4</ele><time>2026-04-18T14:37:56.968Z</time></trkpt><trkpt lat="43.1060667" lon="12.4323433"><ele>342.8</ele><time>2026-04-18T14:37:57.968Z</time></trkpt><trkpt lat="43.106145" lon="12.4322467"><ele>344.20000000000005</ele><time>2026-04-18T14:37:58.968Z</time></trkpt><trkpt lat="43.10621" lon="12.43216"><ele>345.6</ele><time>2026-04-18T14:37:59.968Z</time></trkpt><trkpt lat="43.1062767" lon="12.4320667"><ele>347.0</ele><time>2026-04-18T14:38:00.968Z</time></trkpt><trkpt lat="43.1063333" lon="12.4319833"><ele>347.20000000000005</ele><time>2026-04-18T14:38:01.968Z</time></trkpt><trkpt lat="43.1063867" lon="12.4319133"><ele>347.4</ele><time>2026-04-18T14:38:02.968Z</time></trkpt><trkpt lat="43.1064633" lon="12.4317817"><ele>347.6</ele><time>2026-04-18T14:38:04.968Z</time></trkpt><trkpt lat="43.1065133" lon="12.431725"><ele>347.79999999999995</ele><time>2026-04-18T14:38:05.968Z</time></trkpt><trkpt lat="43.1065867" lon="12.4316183"><ele>348.0</ele><time>2026-04-18T14:38:07.968Z</time></trkpt><trkpt lat="43.1066667" lon="12.43149"><ele>347.59999999999997</ele><time>2026-04-18T14:38:09.968Z</time></trkpt><trkpt lat="43.10673" lon="12.4314067"><ele>347.2</ele><time>2026-04-18T14:38:10.968Z</time></trkpt><trkpt lat="43.1068033" lon="12.4313267"><ele>346.8</ele><time>2026-04-18T14:38:11.968Z</time></trkpt><trkpt lat="43.1068917" lon="12.4312317"><ele>346.4</ele><time>2026-04-18T14:38:12.968Z</time></trkpt><trkpt lat="43.1069917" lon="12.4311333"><ele>346.0</ele><time>2026-04-18T14:38:13.968Z</time></trkpt><trkpt lat="43.1071017" lon="12.4310217"><ele>346.0</ele><time>2026-04-18T14:38:14.968Z</time></trkpt><trkpt lat="43.1072233" lon="12.4309183"><ele>346.0</ele><time>2026-04-18T14:38:15.968Z</time></trkpt><trkpt lat="43.10735" lon="12.43082"><ele>346.0</ele><time>2026-04-18T14:38:16.968Z</time></trkpt><trkpt lat="43.1074783" lon="12.4307"><ele>346.0</ele><time>2026-04-18T14:38:17.968Z</time></trkpt><trkpt lat="43.107595" lon="12.4305867"><ele>345.25</ele><time>2026-04-18T14:38:18.968Z</time></trkpt><trkpt lat="43.1077" lon="12.4304633"><ele>344.5</ele><time>2026-04-18T14:38:19.968Z</time></trkpt><trkpt lat="43.107795" lon="12.430325"><ele>343.75</ele><time>2026-04-18T14:38:20.968Z</time></trkpt><trkpt lat="43.1078667" lon="12.4301767"><ele>343.0</ele><time>2026-04-18T14:38:21.968Z</time></trkpt><trkpt lat="43.10792" lon="12.4300267"><ele>343.0</ele><time>2026-04-18T14:38:22.968Z</time></trkpt><trkpt lat="43.1079783" lon="12.42989"><ele>343.0</ele><time>2026-04-18T14:38:23.968Z</time></trkpt><trkpt lat="43.1080267" lon="12.4297417"><ele>343.0</ele><time>2026-04-18T14:38:24.968Z</time></trkpt><trkpt lat="43.1080767" lon="12.4296083"><ele>343.0</ele><time>2026-04-18T14:38:25.968Z</time></trkpt><trkpt lat="43.1081167" lon="12.42949"><ele>343.0</ele><time>2026-04-18T14:38:26.968Z</time></trkpt><trkpt lat="43.1081567" lon="12.4293833"><ele>341.66666666666663</ele><time>2026-04-18T14:38:27.968Z</time></trkpt><trkpt lat="43.1081883" lon="12.4292717"><ele>340.3333333333333</ele><time>2026-04-18T14:38:28.968Z</time></trkpt><trkpt lat="43.108225" lon="12.42916"><ele>339.0</ele><time>2026-04-18T14:38:29.968Z</time></trkpt><trkpt lat="43.108265" lon="12.429045"><ele>337.6666666666667</ele><time>2026-04-18T14:38:30.968Z</time></trkpt><trkpt lat="43.1082967" lon="12.4289283"><ele>336.33333333333337</ele><time>2026-04-18T14:38:31.968Z</time></trkpt><trkpt lat="43.1083183" lon="12.4288117"><ele>335.0</ele><time>2026-04-18T14:38:32.968Z</time></trkpt><trkpt lat="43.1083467" lon="12.4286933"><ele>336.0</ele><time>2026-04-18T14:38:33.968Z</time></trkpt><trkpt lat="43.10838" lon="12.4285817"><ele>337.0</ele><time>2026-04-18T14:38:34.968Z</time></trkpt><trkpt lat="43.108425" lon="12.42846"><ele>338.0</ele><time>2026-04-18T14:38:35.968Z</time></trkpt><trkpt lat="43.1084767" lon="12.4283167"><ele>339.0</ele><time>2026-04-18T14:38:36.968Z</time></trkpt><trkpt lat="43.1085317" lon="12.4281517"><ele>340.0</ele><time>2026-04-18T14:38:37.968Z</time></trkpt><trkpt lat="43.1086" lon="12.4279583"><ele>340.0</ele><time>2026-04-18T14:38:38.968Z</time></trkpt><trkpt lat="43.1086717" lon="12.4277533"><ele>340.0</ele><time>2026-04-18T14:38:39.968Z</time></trkpt><trkpt lat="43.1087483" lon="12.42754"><ele>340.0</ele><time>2026-04-18T14:38:40.968Z</time></trkpt><trkpt lat="43.1088233" lon="12.4273317"><ele>339.0</ele><time>2026-04-18T14:38:41.968Z</time></trkpt><trkpt lat="43.1088967" lon="12.4271183"><ele>338.0</ele><time>2026-04-18T14:38:42.968Z</time></trkpt><trkpt lat="43.1089617" lon="12.4268983"><ele>337.0</ele><time>2026-04-18T14:38:43.968Z</time></trkpt><trkpt lat="43.1090233" lon="12.4266967"><ele>337.0</ele><time>2026-04-18T14:38:44.968Z</time></trkpt><trkpt lat="43.109075" lon="12.4265083"><ele>337.0</ele><time>2026-04-18T14:38:45.968Z</time></trkpt><trkpt lat="43.10914" lon="12.4263183"><ele>337.0</ele><time>2026-04-18T14:38:46.968Z</time></trkpt><trkpt lat="43.109195" lon="12.4261317"><ele>337.0</ele><time>2026-04-18T14:38:47.968Z</time></trkpt><trkpt lat="43.1092483" lon="12.42595"><ele>341.66666666666663</ele><time>2026-04-18T14:38:48.968Z</time></trkpt><trkpt lat="43.109305" lon="12.4257383"><ele>346.3333333333333</ele><time>2026-04-18T14:38:49.968Z</time></trkpt><trkpt lat="43.10935" lon="12.4255283"><ele>351.0</ele><time>2026-04-18T14:38:50.968Z</time></trkpt><trkpt lat="43.1093967" lon="12.42531"><ele>352.3333333333333</ele><time>2026-04-18T14:38:51.968Z</time></trkpt><trkpt lat="43.1094367" lon="12.4251083"><ele>353.66666666666663</ele><time>2026-04-18T14:38:52.968Z</time></trkpt><trkpt lat="43.1094667" lon="12.4248883"><ele>355.0</ele><time>2026-04-18T14:38:53.968Z</time></trkpt><trkpt lat="43.10948" lon="12.4246633"><ele>354.3333333333333</ele><time>2026-04-18T14:38:54.968Z</time></trkpt><trkpt lat="43.10947" lon="12.4244417"><ele>353.6666666666667</ele><time>2026-04-18T14:38:55.968Z</time></trkpt><trkpt lat="43.1094517" lon="12.4242167"><ele>353.0</ele><time>2026-04-18T14:38:56.968Z</time></trkpt><trkpt lat="43.109435" lon="12.4239917"><ele>352.6666666666667</ele><time>2026-04-18T14:38:57.968Z</time></trkpt><trkpt lat="43.10942" lon="12.4237683"><ele>352.3333333333333</ele><time>2026-04-18T14:38:58.968Z</time></trkpt><trkpt lat="43.1094133" lon="12.4235433"><ele>352.0</ele><time>2026-04-18T14:38:59.968Z</time></trkpt><trkpt lat="43.1094067" lon="12.4233333"><ele>352.0</ele><time>2026-04-18T14:39:00.968Z</time></trkpt><trkpt lat="43.1094" lon="12.4231367"><ele>352.0</ele><time>2026-04-18T14:39:01.968Z</time></trkpt><trkpt lat="43.1093883" lon="12.4229533"><ele>352.0</ele><time>2026-04-18T14:39:02.968Z</time></trkpt><trkpt lat="43.1093767" lon="12.422755"><ele>352.0</ele><time>2026-04-18T14:39:03.968Z</time></trkpt><trkpt lat="43.10936" lon="12.42255"><ele>352.25</ele><time>2026-04-18T14:39:04.968Z</time></trkpt><trkpt lat="43.1093467" lon="12.4223483"><ele>352.5</ele><time>2026-04-18T14:39:05.968Z</time></trkpt><trkpt lat="43.1093383" lon="12.42215"><ele>352.75</ele><time>2026-04-18T14:39:06.968Z</time></trkpt><trkpt lat="43.1093233" lon="12.4219533"><ele>353.0</ele><time>2026-04-18T14:39:07.968Z</time></trkpt><trkpt lat="43.1093233" lon="12.4217667"><ele>353.0</ele><time>2026-04-18T14:39:08.968Z</time></trkpt><trkpt lat="43.10933" lon="12.4215833"><ele>353.0</ele><time>2026-04-18T14:39:09.968Z</time></trkpt><trkpt lat="43.1093433" lon="12.42139"><ele>353.0</ele><time>2026-04-18T14:39:10.968Z</time></trkpt><trkpt lat="43.10938" lon="12.4211983"><ele>353.0</ele><time>2026-04-18T14:39:11.968Z</time></trkpt><trkpt lat="43.109425" lon="12.4209917"><ele>353.6666666666667</ele><time>2026-04-18T14:39:12.968Z</time></trkpt><trkpt lat="43.10947" lon="12.4207817"><ele>354.3333333333333</ele><time>2026-04-18T14:39:13.968Z</time></trkpt><trkpt lat="43.1095117" lon="12.4205733"><ele>355.0</ele><time>2026-04-18T14:39:14.968Z</time></trkpt><trkpt lat="43.10956" lon="12.4203633"><ele>358.0</ele><time>2026-04-18T14:39:15.968Z</time></trkpt><trkpt lat="43.109605" lon="12.4201633"><ele>361.0</ele><time>2026-04-18T14:39:16.968Z</time></trkpt><trkpt lat="43.1096533" lon="12.419955"><ele>364.0</ele><time>2026-04-18T14:39:17.968Z</time></trkpt><trkpt lat="43.1097" lon="12.4197533"><ele>368.3333333333333</ele><time>2026-04-18T14:39:18.968Z</time></trkpt><trkpt lat="43.1097467" lon="12.4195417"><ele>372.6666666666667</ele><time>2026-04-18T14:39:19.968Z</time></trkpt><trkpt lat="43.109795" lon="12.4193317"><ele>377.0</ele><time>2026-04-18T14:39:20.968Z</time></trkpt><trkpt lat="43.1098533" lon="12.4191233"><ele>377.33333333333337</ele><time>2026-04-18T14:39:21.968Z</time></trkpt><trkpt lat="43.109915" lon="12.418905"><ele>377.6666666666667</ele><time>2026-04-18T14:39:22.968Z</time></trkpt><trkpt lat="43.10997" lon="12.4186767"><ele>378.0</ele><time>2026-04-18T14:39:23.968Z</time></trkpt><trkpt lat="43.110025" lon="12.41845"><ele>378.0</ele><time>2026-04-18T14:39:24.968Z</time></trkpt><trkpt lat="43.1100783" lon="12.41824"><ele>378.0</ele><time>2026-04-18T14:39:25.968Z</time></trkpt><trkpt lat="43.11013" lon="12.418025"><ele>378.0</ele><time>2026-04-18T14:39:26.968Z</time></trkpt><trkpt lat="43.11017" lon="12.4178083"><ele>378.6666666666667</ele><time>2026-04-18T14:39:27.968Z</time></trkpt><trkpt lat="43.1102133" lon="12.417595"><ele>379.33333333333337</ele><time>2026-04-18T14:39:28.968Z</time></trkpt><trkpt lat="43.110245" lon="12.4173783"><ele>380.0</ele><time>2026-04-18T14:39:29.968Z</time></trkpt><trkpt lat="43.11027" lon="12.4171467"><ele>380.0</ele><time>2026-04-18T14:39:30.968Z</time></trkpt><trkpt lat="43.1103" lon="12.4169167"><ele>380.0</ele><time>2026-04-18T14:39:31.967Z</time></trkpt><trkpt lat="43.1103233" lon="12.4166817"><ele>380.0</ele><time>2026-04-18T14:39:32.967Z</time></trkpt><trkpt lat="43.1103417" lon="12.41644"><ele>377.0</ele><time>2026-04-18T14:39:33.967Z</time></trkpt><trkpt lat="43.11036" lon="12.416205"><ele>374.0</ele><time>2026-04-18T14:39:34.967Z</time></trkpt><trkpt lat="43.1103783" lon="12.4159733"><ele>371.0</ele><time>2026-04-18T14:39:35.967Z</time></trkpt><trkpt lat="43.1103983" lon="12.4157467"><ele>371.0</ele><time>2026-04-18T14:39:36.967Z</time></trkpt><trkpt lat="43.1104133" lon="12.4155133"><ele>371.0</ele><time>2026-04-18T14:39:37.967Z</time></trkpt><trkpt lat="43.1104283" lon="12.41527"><ele>371.0</ele><time>2026-04-18T14:39:38.967Z</time></trkpt><trkpt lat="43.110445" lon="12.4150317"><ele>369.6666666666667</ele><time>2026-04-18T14:39:39.967Z</time></trkpt><trkpt lat="43.1104633" lon="12.4148083"><ele>368.3333333333333</ele><time>2026-04-18T14:39:40.967Z</time></trkpt><trkpt lat="43.110475" lon="12.41458"><ele>367.0</ele><time>2026-04-18T14:39:41.967Z</time></trkpt><trkpt lat="43.1105017" lon="12.414345"><ele>365.3333333333333</ele><time>2026-04-18T14:39:42.967Z</time></trkpt><trkpt lat="43.110525" lon="12.414105"><ele>363.6666666666667</ele><time>2026-04-18T14:39:43.967Z</time></trkpt><trkpt lat="43.1105533" lon="12.4138633"><ele>362.0</ele><time>2026-04-18T14:39:44.967Z</time></trkpt><trkpt lat="43.11058" lon="12.41362"><ele>360.33333333333337</ele><time>2026-04-18T14:39:45.967Z</time></trkpt><trkpt lat="43.110605" lon="12.4133817"><ele>358.6666666666667</ele><time>2026-04-18T14:39:46.967Z</time></trkpt><trkpt lat="43.1106267" lon="12.4131433"><ele>357.0</ele><time>2026-04-18T14:39:47.967Z</time></trkpt><trkpt lat="43.1106367" lon="12.4129133"><ele>356.6666666666667</ele><time>2026-04-18T14:39:48.967Z</time></trkpt><trkpt lat="43.1106567" lon="12.4126717"><ele>356.33333333333337</ele><time>2026-04-18T14:39:49.967Z</time></trkpt><trkpt lat="43.1106717" lon="12.4124283"><ele>356.0</ele><time>2026-04-18T14:39:50.967Z</time></trkpt><trkpt lat="43.11069" lon="12.4121867"><ele>357.0</ele><time>2026-04-18T14:39:51.967Z</time></trkpt><trkpt lat="43.110705" lon="12.4119517"><ele>358.0</ele><time>2026-04-18T14:39:52.967Z</time></trkpt><trkpt lat="43.1107083" lon="12.4117167"><ele>359.0</ele><time>2026-04-18T14:39:53.967Z</time></trkpt><trkpt lat="43.11071" lon="12.4114817"><ele>360.0</ele><time>2026-04-18T14:39:54.967Z</time></trkpt><trkpt lat="43.11073" lon="12.411235"><ele>361.0</ele><time>2026-04-18T14:39:55.967Z</time></trkpt><trkpt lat="43.1107417" lon="12.4109867"><ele>362.0</ele><time>2026-04-18T14:39:56.967Z</time></trkpt><trkpt lat="43.1107517" lon="12.4107483"><ele>363.33333333333337</ele><time>2026-04-18T14:39:57.967Z</time></trkpt><trkpt lat="43.1107583" lon="12.410505"><ele>364.6666666666667</ele><time>2026-04-18T14:39:58.967Z</time></trkpt><trkpt lat="43.1107717" lon="12.41028"><ele>366.0</ele><time>2026-04-18T14:39:59.967Z</time></trkpt><trkpt lat="43.11078" lon="12.4100517"><ele>366.0</ele><time>2026-04-18T14:40:00.967Z</time></trkpt><trkpt lat="43.1107817" lon="12.4098183"><ele>366.0</ele><time>2026-04-18T14:40:01.967Z</time></trkpt><trkpt lat="43.110795" lon="12.40958"><ele>366.0</ele><time>2026-04-18T14:40:02.967Z</time></trkpt><trkpt lat="43.110805" lon="12.409365"><ele>367.3333333333333</ele><time>2026-04-18T14:40:03.967Z</time></trkpt><trkpt lat="43.110805" lon="12.40915"><ele>368.66666666666663</ele><time>2026-04-18T14:40:04.967Z</time></trkpt><trkpt lat="43.1108067" lon="12.4089383"><ele>370.0</ele><time>2026-04-18T14:40:05.967Z</time></trkpt><trkpt lat="43.1108067" lon="12.4087333"><ele>370.5</ele><time>2026-04-18T14:40:06.967Z</time></trkpt><trkpt lat="43.1108133" lon="12.4085483"><ele>371.0</ele><time>2026-04-18T14:40:07.967Z</time></trkpt><trkpt lat="43.1108283" lon="12.40838"><ele>371.5</ele><time>2026-04-18T14:40:08.967Z</time></trkpt><trkpt lat="43.11087" lon="12.40819"><ele>372.0</ele><time>2026-04-18T14:40:09.967Z</time></trkpt><trkpt lat="43.110915" lon="12.4079933"><ele>373.0</ele><time>2026-04-18T14:40:10.967Z</time></trkpt><trkpt lat="43.110965" lon="12.407805"><ele>374.0</ele><time>2026-04-18T14:40:11.967Z</time></trkpt><trkpt lat="43.11101" lon="12.40761"><ele>375.0</ele><time>2026-04-18T14:40:12.967Z</time></trkpt><trkpt lat="43.1110567" lon="12.4074167"><ele>376.0</ele><time>2026-04-18T14:40:13.967Z</time></trkpt><trkpt lat="43.111105" lon="12.4072233"><ele>376.75</ele><time>2026-04-18T14:40:14.967Z</time></trkpt><trkpt lat="43.111155" lon="12.40703"><ele>377.5</ele><time>2026-04-18T14:40:15.967Z</time></trkpt><trkpt lat="43.1112033" lon="12.40684"><ele>378.25</ele><time>2026-04-18T14:40:16.967Z</time></trkpt><trkpt lat="43.1112617" lon="12.4066483"><ele>379.0</ele><time>2026-04-18T14:40:17.967Z</time></trkpt><trkpt lat="43.11132" lon="12.4064617"><ele>379.0</ele><time>2026-04-18T14:40:18.967Z</time></trkpt><trkpt lat="43.11138" lon="12.4062783"><ele>379.0</ele><time>2026-04-18T14:40:19.967Z</time></trkpt><trkpt lat="43.1114367" lon="12.406095"><ele>379.0</ele><time>2026-04-18T14:40:20.967Z</time></trkpt><trkpt lat="43.111495" lon="12.4059083"><ele>379.0</ele><time>2026-04-18T14:40:21.967Z</time></trkpt><trkpt lat="43.1115567" lon="12.4057233"><ele>380.25</ele><time>2026-04-18T14:40:22.967Z</time></trkpt><trkpt lat="43.1116117" lon="12.4055417"><ele>381.5</ele><time>2026-04-18T14:40:23.967Z</time></trkpt><trkpt lat="43.111655" lon="12.4053867"><ele>382.75</ele><time>2026-04-18T14:40:24.967Z</time></trkpt><trkpt lat="43.1116933" lon="12.4052467"><ele>384.0</ele><time>2026-04-18T14:40:25.967Z</time></trkpt><trkpt lat="43.11173" lon="12.4051"><ele>385.2</ele><time>2026-04-18T14:40:26.967Z</time></trkpt><trkpt lat="43.1117667" lon="12.40497"><ele>386.4</ele><time>2026-04-18T14:40:27.967Z</time></trkpt><trkpt lat="43.111805" lon="12.4048483"><ele>387.6</ele><time>2026-04-18T14:40:28.967Z</time></trkpt><trkpt lat="43.1118417" lon="12.4047217"><ele>388.8</ele><time>2026-04-18T14:40:29.967Z</time></trkpt><trkpt lat="43.1118833" lon="12.4045767"><ele>390.0</ele><time>2026-04-18T14:40:30.967Z</time></trkpt><trkpt lat="43.1119133" lon="12.4044383"><ele>391.0</ele><time>2026-04-18T14:40:31.967Z</time></trkpt><trkpt lat="43.1119433" lon="12.4043167"><ele>392.0</ele><time>2026-04-18T14:40:32.967Z</time></trkpt><trkpt lat="43.11198" lon="12.4041867"><ele>393.0</ele><time>2026-04-18T14:40:33.967Z</time></trkpt><trkpt lat="43.11202" lon="12.4040567"><ele>394.0</ele><time>2026-04-18T14:40:34.967Z</time></trkpt><trkpt lat="43.1120567" lon="12.4039283"><ele>395.0</ele><time>2026-04-18T14:40:35.967Z</time></trkpt><trkpt lat="43.1120883" lon="12.4037967"><ele>395.66666666666663</ele><time>2026-04-18T14:40:36.967Z</time></trkpt><trkpt lat="43.1121217" lon="12.4036667"><ele>396.3333333333333</ele><time>2026-04-18T14:40:37.967Z</time></trkpt><trkpt lat="43.112155" lon="12.40354"><ele>397.0</ele><time>2026-04-18T14:40:38.967Z</time></trkpt><trkpt lat="43.1121883" lon="12.4034183"><ele>397.66666666666663</ele><time>2026-04-18T14:40:39.967Z</time></trkpt><trkpt lat="43.1122167" lon="12.403315"><ele>398.3333333333333</ele><time>2026-04-18T14:40:40.967Z</time></trkpt><trkpt lat="43.1122383" lon="12.4032267"><ele>399.0</ele><time>2026-04-18T14:40:41.967Z</time></trkpt><trkpt lat="43.1122617" lon="12.4031417"><ele>399.0</ele><time>2026-04-18T14:40:42.967Z</time></trkpt><trkpt lat="43.112285" lon="12.4030583"><ele>399.0</ele><time>2026-04-18T14:40:43.967Z</time></trkpt><trkpt lat="43.1123033" lon="12.4029467"><ele>399.0</ele><time>2026-04-18T14:40:44.967Z</time></trkpt><trkpt lat="43.1123233" lon="12.4028133"><ele>399.0</ele><time>2026-04-18T14:40:45.967Z</time></trkpt><trkpt lat="43.112365" lon="12.4026717"><ele>399.0</ele><time>2026-04-18T14:40:46.967Z</time></trkpt><trkpt lat="43.1124167" lon="12.40254"><ele>400.8333333333333</ele><time>2026-04-18T14:40:47.967Z</time></trkpt><trkpt lat="43.112465" lon="12.4024183"><ele>402.66666666666663</ele><time>2026-04-18T14:40:48.967Z</time></trkpt><trkpt lat="43.1124917" lon="12.4023017"><ele>404.5</ele><time>2026-04-18T14:40:49.967Z</time></trkpt><trkpt lat="43.112505" lon="12.4021983"><ele>406.3333333333333</ele><time>2026-04-18T14:40:50.967Z</time></trkpt><trkpt lat="43.11253" lon="12.402105"><ele>408.16666666666663</ele><time>2026-04-18T14:40:51.967Z</time></trkpt><trkpt lat="43.112565" lon="12.402025"><ele>410.0</ele><time>2026-04-18T14:40:52.967Z</time></trkpt><trkpt lat="43.1126233" lon="12.4019917"><ele>410.0</ele><time>2026-04-18T14:40:53.967Z</time></trkpt><trkpt lat="43.1127267" lon="12.4020567"><ele>410.0</ele><time>2026-04-18T14:40:55.967Z</time></trkpt><trkpt lat="43.1127667" lon="12.4021583"><ele>410.0</ele><time>2026-04-18T14:40:56.967Z</time></trkpt><trkpt lat="43.1127933" lon="12.4022983"><ele>410.0</ele><time>2026-04-18T14:40:57.967Z</time></trkpt><trkpt lat="43.1128133" lon="12.4024633"><ele>410.0</ele><time>2026-04-18T14:40:58.967Z</time></trkpt><trkpt lat="43.1128217" lon="12.4026267"><ele>410.0</ele><time>2026-04-18T14:40:59.967Z</time></trkpt><trkpt lat="43.1128333" lon="12.4027733"><ele>410.0</ele><time>2026-04-18T14:41:00.967Z</time></trkpt><trkpt lat="43.1128517" lon="12.4029117"><ele>410.0</ele><time>2026-04-18T14:41:01.967Z</time></trkpt><trkpt lat="43.11289" lon="12.4030433"><ele>410.0</ele><time>2026-04-18T14:41:02.967Z</time></trkpt><trkpt lat="43.1129517" lon="12.40317"><ele>410.0</ele><time>2026-04-18T14:41:03.967Z</time></trkpt><trkpt lat="43.11303" lon="12.4032917"><ele>410.0</ele><time>2026-04-18T14:41:04.967Z</time></trkpt><trkpt lat="43.1131133" lon="12.403425"><ele>410.0</ele><time>2026-04-18T14:41:05.967Z</time></trkpt><trkpt lat="43.1132117" lon="12.40354"><ele>410.0</ele><time>2026-04-18T14:41:06.967Z</time></trkpt><trkpt lat="43.1133117" lon="12.40364"><ele>410.0</ele><time>2026-04-18T14:41:07.967Z</time></trkpt><trkpt lat="43.1134167" lon="12.4037367"><ele>411.0</ele><time>2026-04-18T14:41:08.967Z</time></trkpt><trkpt lat="43.113525" lon="12.403845"><ele>412.0</ele><time>2026-04-18T14:41:09.967Z</time></trkpt><trkpt lat="43.1136317" lon="12.4039533"><ele>413.0</ele><time>2026-04-18T14:41:10.967Z</time></trkpt><trkpt lat="43.1137317" lon="12.4040483"><ele>414.0</ele><time>2026-04-18T14:41:11.967Z</time></trkpt><trkpt lat="43.113825" lon="12.40413"><ele>414.0</ele><time>2026-04-18T14:41:12.967Z</time></trkpt><trkpt lat="43.113905" lon="12.404205"><ele>414.0</ele><time>2026-04-18T14:41:13.967Z</time></trkpt><trkpt lat="43.1139717" lon="12.40428"><ele>414.0</ele><time>2026-04-18T14:41:14.967Z</time></trkpt><trkpt lat="43.114035" lon="12.4043433"><ele>414.0</ele><time>2026-04-18T14:41:15.967Z</time></trkpt><trkpt lat="43.114105" lon="12.404395"><ele>414.0</ele><time>2026-04-18T14:41:16.967Z</time></trkpt><trkpt lat="43.1141783" lon="12.4044167"><ele>414.0</ele><time>2026-04-18T14:41:17.967Z</time></trkpt><trkpt lat="43.1142417" lon="12.4044033"><ele>417.25</ele><time>2026-04-18T14:41:18.967Z</time></trkpt><trkpt lat="43.11433" lon="12.4043067"><ele>420.5</ele><time>2026-04-18T14:41:20.967Z</time></trkpt><trkpt lat="43.1143483" lon="12.40412"><ele>423.75</ele><time>2026-04-18T14:41:22.967Z</time></trkpt><trkpt lat="43.11435" lon="12.4039783"><ele>427.0</ele><time>2026-04-18T14:41:23.967Z</time></trkpt><trkpt lat="43.11436" lon="12.4038167"><ele>428.40000000000003</ele><time>2026-04-18T14:41:24.967Z</time></trkpt><trkpt lat="43.1143717" lon="12.4036733"><ele>429.80000000000007</ele><time>2026-04-18T14:41:25.967Z</time></trkpt><trkpt lat="43.11439" lon="12.403525"><ele>431.2</ele><time>2026-04-18T14:41:26.967Z</time></trkpt><trkpt lat="43.114415" lon="12.403395"><ele>432.6</ele><time>2026-04-18T14:41:27.967Z</time></trkpt><trkpt lat="43.1144383" lon="12.403255"><ele>434.0</ele><time>2026-04-18T14:41:28.967Z</time></trkpt><trkpt lat="43.114445" lon="12.4030917"><ele>434.4</ele><time>2026-04-18T14:41:29.967Z</time></trkpt><trkpt lat="43.1144233" lon="12.4029333"><ele>434.79999999999995</ele><time>2026-04-18T14:41:30.967Z</time></trkpt><trkpt lat="43.1144" lon="12.4027883"><ele>435.20000000000005</ele><time>2026-04-18T14:41:31.967Z</time></trkpt><trkpt lat="43.1143767" lon="12.4026417"><ele>435.6</ele><time>2026-04-18T14:41:32.967Z</time></trkpt><trkpt lat="43.1143467" lon="12.4025033"><ele>436.0</ele><time>2026-04-18T14:41:33.967Z</time></trkpt><trkpt lat="43.11432" lon="12.4023617"><ele>436.0</ele><time>2026-04-18T14:41:34.967Z</time></trkpt><trkpt lat="43.114305" lon="12.4022317"><ele>436.0</ele><time>2026-04-18T14:41:35.967Z</time></trkpt><trkpt lat="43.114275" lon="12.40211"><ele>436.0</ele><time>2026-04-18T14:41:36.967Z</time></trkpt><trkpt lat="43.1142717" lon="12.4019683"><ele>436.0</ele><time>2026-04-18T14:41:37.967Z</time></trkpt><trkpt lat="43.1142583" lon="12.4018417"><ele>436.0</ele><time>2026-04-18T14:41:38.967Z</time></trkpt><trkpt lat="43.114255" lon="12.4017217"><ele>436.20000000000005</ele><time>2026-04-18T14:41:39.967Z</time></trkpt><trkpt lat="43.1142517" lon="12.4015933"><ele>436.40000000000003</ele><time>2026-04-18T14:41:40.967Z</time></trkpt><trkpt lat="43.1142633" lon="12.401475"><ele>436.6</ele><time>2026-04-18T14:41:41.967Z</time></trkpt><trkpt lat="43.1142833" lon="12.401345"><ele>436.8</ele><time>2026-04-18T14:41:42.967Z</time></trkpt><trkpt lat="43.1143183" lon="12.4012067"><ele>437.0</ele><time>2026-04-18T14:41:43.967Z</time></trkpt><trkpt lat="43.114365" lon="12.4010733"><ele>437.6</ele><time>2026-04-18T14:41:44.967Z</time></trkpt><trkpt lat="43.11441" lon="12.4009433"><ele>438.20000000000005</ele><time>2026-04-18T14:41:45.967Z</time></trkpt><trkpt lat="43.1144617" lon="12.400815"><ele>438.8</ele><time>2026-04-18T14:41:46.967Z</time></trkpt><trkpt lat="43.1145067" lon="12.4006817"><ele>439.4</ele><time>2026-04-18T14:41:47.967Z</time></trkpt><trkpt lat="43.1145533" lon="12.400545"><ele>440.0</ele><time>2026-04-18T14:41:48.967Z</time></trkpt><trkpt lat="43.1146117" lon="12.400415"><ele>439.99999999999994</ele><time>2026-04-18T14:41:49.967Z</time></trkpt><trkpt lat="43.1146533" lon="12.4002967"><ele>440.0</ele><time>2026-04-18T14:41:50.967Z</time></trkpt><trkpt lat="43.1146933" lon="12.4001917"><ele>440.0</ele><time>2026-04-18T14:41:51.967Z</time></trkpt><trkpt lat="43.114725" lon="12.400115"><ele>440.0</ele><time>2026-04-18T14:41:52.967Z</time></trkpt><trkpt lat="43.1147767" lon="12.3999967"><ele>439.99999999999994</ele><time>2026-04-18T14:41:54.967Z</time></trkpt><trkpt lat="43.1148333" lon="12.399895"><ele>440.0</ele><time>2026-04-18T14:42:27.967Z</time></trkpt><trkpt lat="43.11488" lon="12.3997883"><ele>440.3333333333333</ele><time>2026-04-18T14:42:30.967Z</time></trkpt><trkpt lat="43.114915" lon="12.3997133"><ele>440.66666666666663</ele><time>2026-04-18T14:42:32.967Z</time></trkpt><trkpt lat="43.1149383" lon="12.3995983"><ele>441.0</ele><time>2026-04-18T14:42:34.967Z</time></trkpt><trkpt lat="43.1149267" lon="12.399505"><ele>441.33333333333337</ele><time>2026-04-18T14:42:36.967Z</time></trkpt><trkpt lat="43.114875" lon="12.3994317"><ele>441.6666666666667</ele><time>2026-04-18T14:42:38.967Z</time></trkpt><trkpt lat="43.1148067" lon="12.3993683"><ele>442.0</ele><time>2026-04-18T14:42:40.967Z</time></trkpt><trkpt lat="43.11476" lon="12.3992883"><ele>442.1666666666667</ele><time>2026-04-18T14:42:42.967Z</time></trkpt><trkpt lat="43.1147683" lon="12.399175"><ele>442.33333333333337</ele><time>2026-04-18T14:42:44.967Z</time></trkpt><trkpt lat="43.1147983" lon="12.3990783"><ele>442.5</ele><time>2026-04-18T14:42:46.967Z</time></trkpt><trkpt lat="43.114855" lon="12.3989467"><ele>442.66666666666663</ele><time>2026-04-18T14:42:48.967Z</time></trkpt><trkpt lat="43.114885" lon="12.39886"><ele>442.8333333333333</ele><time>2026-04-18T14:42:49.967Z</time></trkpt><trkpt lat="43.1149217" lon="12.3987567"><ele>443.0</ele><time>2026-04-18T14:42:50.967Z</time></trkpt><trkpt lat="43.1149583" lon="12.39864"><ele>443.0</ele><time>2026-04-18T14:42:51.967Z</time></trkpt><trkpt lat="43.1150033" lon="12.3985333"><ele>442.99999999999994</ele><time>2026-04-18T14:42:52.967Z</time></trkpt><trkpt lat="43.1150483" lon="12.3984233"><ele>442.99999999999994</ele><time>2026-04-18T14:42:53.967Z</time></trkpt><trkpt lat="43.1150967" lon="12.3982983"><ele>443.0</ele><time>2026-04-18T14:42:54.967Z</time></trkpt><trkpt lat="43.1151467" lon="12.3981633"><ele>443.0</ele><time>2026-04-18T14:42:55.967Z</time></trkpt><trkpt lat="43.1152017" lon="12.3980167"><ele>441.25</ele><time>2026-04-18T14:42:56.967Z</time></trkpt><trkpt lat="43.1152717" lon="12.397865"><ele>439.5</ele><time>2026-04-18T14:42:57.967Z</time></trkpt><trkpt lat="43.11533" lon="12.3977117"><ele>437.75</ele><time>2026-04-18T14:42:58.967Z</time></trkpt><trkpt lat="43.1153883" lon="12.397555"><ele>436.0</ele><time>2026-04-18T14:42:59.967Z</time></trkpt><trkpt lat="43.1154367" lon="12.3974017"><ele>436.0</ele><time>2026-04-18T14:43:00.967Z</time></trkpt><trkpt lat="43.1154817" lon="12.397255"><ele>436.0</ele><time>2026-04-18T14:43:01.967Z</time></trkpt><trkpt lat="43.115505" lon="12.3971083"><ele>436.0</ele><time>2026-04-18T14:43:02.967Z</time></trkpt><trkpt lat="43.1155083" lon="12.3969633"><ele>436.0</ele><time>2026-04-18T14:43:03.967Z</time></trkpt><trkpt lat="43.1154833" lon="12.3968083"><ele>436.0</ele><time>2026-04-18T14:43:04.967Z</time></trkpt><trkpt lat="43.115425" lon="12.3966717"><ele>436.75</ele><time>2026-04-18T14:43:05.967Z</time></trkpt><trkpt lat="43.1153583" lon="12.3965367"><ele>437.5</ele><time>2026-04-18T14:43:06.967Z</time></trkpt><trkpt lat="43.1152783" lon="12.3964083"><ele>438.25</ele><time>2026-04-18T14:43:07.967Z</time></trkpt><trkpt lat="43.1151917" lon="12.39628"><ele>439.0</ele><time>2026-04-18T14:43:08.967Z</time></trkpt><trkpt lat="43.1151083" lon="12.3961567"><ele>441.0</ele><time>2026-04-18T14:43:09.967Z</time></trkpt><trkpt lat="43.11503" lon="12.39603"><ele>443.0</ele><time>2026-04-18T14:43:10.967Z</time></trkpt><trkpt lat="43.1149517" lon="12.3958967"><ele>445.0</ele><time>2026-04-18T14:43:11.967Z</time></trkpt><trkpt lat="43.114865" lon="12.3957633"><ele>447.0</ele><time>2026-04-18T14:43:12.967Z</time></trkpt><trkpt lat="43.114775" lon="12.39563"><ele>445.75</ele><time>2026-04-18T14:43:13.967Z</time></trkpt><trkpt lat="43.1146967" lon="12.3954967"><ele>444.5</ele><time>2026-04-18T14:43:14.967Z</time></trkpt><trkpt lat="43.1146283" lon="12.3953767"><ele>443.25</ele><time>2026-04-18T14:43:15.967Z</time></trkpt><trkpt lat="43.114555" lon="12.3952667"><ele>442.0</ele><time>2026-04-18T14:43:16.967Z</time></trkpt><trkpt lat="43.1144783" lon="12.39516"><ele>442.0</ele><time>2026-04-18T14:43:17.967Z</time></trkpt><trkpt lat="43.114415" lon="12.3950417"><ele>442.00000000000006</ele><time>2026-04-18T14:43:18.967Z</time></trkpt><trkpt lat="43.1143483" lon="12.3949383"><ele>442.00000000000006</ele><time>2026-04-18T14:43:19.967Z</time></trkpt><trkpt lat="43.114275" lon="12.3948483"><ele>442.0</ele><time>2026-04-18T14:43:20.967Z</time></trkpt><trkpt lat="43.1142083" lon="12.39476"><ele>442.0</ele><time>2026-04-18T14:43:21.967Z</time></trkpt><trkpt lat="43.1141417" lon="12.3946583"><ele>442.00000000000006</ele><time>2026-04-18T14:43:22.967Z</time></trkpt><trkpt lat="43.1140783" lon="12.3945567"><ele>442.0</ele><time>2026-04-18T14:43:23.967Z</time></trkpt><trkpt lat="43.1140167" lon="12.39446"><ele>442.0</ele><time>2026-04-18T14:43:24.967Z</time></trkpt><trkpt lat="43.1139617" lon="12.3943717"><ele>442.0</ele><time>2026-04-18T14:43:25.967Z</time></trkpt><trkpt lat="43.11391" lon="12.394285"><ele>442.00000000000006</ele><time>2026-04-18T14:43:26.967Z</time></trkpt><trkpt lat="43.1138733" lon="12.3941833"><ele>442.0</ele><time>2026-04-18T14:43:27.967Z</time></trkpt><trkpt lat="43.1138433" lon="12.39408"><ele>441.00000000000006</ele><time>2026-04-18T14:43:28.967Z</time></trkpt><trkpt lat="43.1138217" lon="12.3939967"><ele>440.0</ele><time>2026-04-18T14:43:29.967Z</time></trkpt><trkpt lat="43.11381" lon="12.3938733"><ele>439.0</ele><time>2026-04-18T14:43:31.967Z</time></trkpt><trkpt lat="43.1138183" lon="12.393755"><ele>438.0</ele><time>2026-04-18T14:43:33.967Z</time></trkpt><trkpt lat="43.1138567" lon="12.3936217"><ele>437.00000000000006</ele><time>2026-04-18T14:43:35.967Z</time></trkpt><trkpt lat="43.11389" lon="12.3935483"><ele>436.0</ele><time>2026-04-18T14:43:36.967Z</time></trkpt><trkpt lat="43.113965" lon="12.393425"><ele>437.50000000000006</ele><time>2026-04-18T14:43:38.967Z</time></trkpt><trkpt lat="43.1140217" lon="12.3932933"><ele>439.0</ele><time>2026-04-18T14:43:40.967Z</time></trkpt><trkpt lat="43.1140433" lon="12.3932017"><ele>440.5</ele><time>2026-04-18T14:43:41.967Z</time></trkpt><trkpt lat="43.1140683" lon="12.3931033"><ele>442.0</ele><time>2026-04-18T14:43:42.967Z</time></trkpt><trkpt lat="43.114095" lon="12.3930133"><ele>443.50000000000006</ele><time>2026-04-18T14:43:43.967Z</time></trkpt><trkpt lat="43.1141217" lon="12.3929183"><ele>445.0</ele><time>2026-04-18T14:43:44.967Z</time></trkpt><trkpt lat="43.1141433" lon="12.3928317"><ele>445.8571428571429</ele><time>2026-04-18T14:43:45.967Z</time></trkpt><trkpt lat="43.1141533" lon="12.3927417"><ele>446.71428571428567</ele><time>2026-04-18T14:43:46.967Z</time></trkpt><trkpt lat="43.1141617" lon="12.3926433"><ele>447.57142857142856</ele><time>2026-04-18T14:43:47.967Z</time></trkpt><trkpt lat="43.1141567" lon="12.39254"><ele>448.42857142857144</ele><time>2026-04-18T14:43:48.967Z</time></trkpt><trkpt lat="43.1141567" lon="12.3924283"><ele>449.28571428571433</ele><time>2026-04-18T14:43:49.967Z</time></trkpt><trkpt lat="43.1141683" lon="12.392325"><ele>450.1428571428571</ele><time>2026-04-18T14:43:50.967Z</time></trkpt><trkpt lat="43.1141683" lon="12.3922217"><ele>451.0</ele><time>2026-04-18T14:43:51.967Z</time></trkpt><trkpt lat="43.1141833" lon="12.3921233"><ele>451.83333333333337</ele><time>2026-04-18T14:43:52.967Z</time></trkpt><trkpt lat="43.1141933" lon="12.3920217"><ele>452.6666666666667</ele><time>2026-04-18T14:43:53.967Z</time></trkpt><trkpt lat="43.1142033" lon="12.39192"><ele>453.5</ele><time>2026-04-18T14:43:54.967Z</time></trkpt><trkpt lat="43.1142133" lon="12.3918"><ele>454.33333333333337</ele><time>2026-04-18T14:43:55.967Z</time></trkpt><trkpt lat="43.11422" lon="12.3916867"><ele>455.1666666666667</ele><time>2026-04-18T14:43:56.967Z</time></trkpt><trkpt lat="43.1142283" lon="12.391585"><ele>456.0</ele><time>2026-04-18T14:43:57.967Z</time></trkpt><trkpt lat="43.1142567" lon="12.391445"><ele>458.5</ele><time>2026-04-18T14:43:58.967Z</time></trkpt><trkpt lat="43.1142967" lon="12.3912983"><ele>461.0</ele><time>2026-04-18T14:43:59.967Z</time></trkpt><trkpt lat="43.1143567" lon="12.3911183"><ele>463.5</ele><time>2026-04-18T14:44:00.967Z</time></trkpt><trkpt lat="43.11442" lon="12.39094"><ele>466.0</ele><time>2026-04-18T14:44:01.967Z</time></trkpt><trkpt lat="43.114475" lon="12.3907883"><ele>466.00000000000006</ele><time>2026-04-18T14:44:02.967Z</time></trkpt><trkpt lat="43.11452" lon="12.39065"><ele>466.0</ele><time>2026-04-18T14:44:03.967Z</time></trkpt><trkpt lat="43.11456" lon="12.3905317"><ele>466.0</ele><time>2026-04-18T14:44:04.967Z</time></trkpt><trkpt lat="43.1145833" lon="12.3904217"><ele>466.0</ele><time>2026-04-18T14:44:05.967Z</time></trkpt><trkpt lat="43.1146117" lon="12.39032"><ele>466.00000000000006</ele><time>2026-04-18T14:44:06.967Z</time></trkpt><trkpt lat="43.1146233" lon="12.39022"><ele>466.0</ele><time>2026-04-18T14:44:07.967Z</time></trkpt><trkpt lat="43.1146417" lon="12.390135"><ele>466.6</ele><time>2026-04-18T14:44:08.967Z</time></trkpt><trkpt lat="43.1146533" lon="12.3900417"><ele>467.20000000000005</ele><time>2026-04-18T14:44:09.967Z</time></trkpt><trkpt lat="43.1147117" lon="12.3898917"><ele>467.79999999999995</ele><time>2026-04-18T14:44:11.967Z</time></trkpt><trkpt lat="43.11479" lon="12.389795"><ele>468.4</ele><time>2026-04-18T14:44:13.967Z</time></trkpt><trkpt lat="43.11486" lon="12.3897633"><ele>469.0</ele><time>2026-04-18T14:44:15.967Z</time></trkpt><trkpt lat="43.114955" lon="12.389725"><ele>465.79999999999995</ele><time>2026-04-18T14:45:06.966Z</time></trkpt><trkpt lat="43.1150417" lon="12.389655"><ele>462.59999999999997</ele><time>2026-04-18T14:45:08.966Z</time></trkpt><trkpt lat="43.115095" lon="12.38956"><ele>459.4</ele><time>2026-04-18T14:45:10.966Z</time></trkpt><trkpt lat="43.1151267" lon="12.38945"><ele>456.2</ele><time>2026-04-18T14:45:12.966Z</time></trkpt><trkpt lat="43.1151367" lon="12.3892933"><ele>453.0</ele><time>2026-04-18T14:45:14.966Z</time></trkpt><trkpt lat="43.115165" lon="12.38914"><ele>453.0</ele><time>2026-04-18T14:45:16.966Z</time></trkpt><trkpt lat="43.115185" lon="12.3890417"><ele>453.0</ele><time>2026-04-18T14:45:17.966Z</time></trkpt><trkpt lat="43.1152183" lon="12.3889333"><ele>453.0</ele><time>2026-04-18T14:45:18.966Z</time></trkpt><trkpt lat="43.115255" lon="12.38883"><ele>453.0</ele><time>2026-04-18T14:45:19.966Z</time></trkpt><trkpt lat="43.1152983" lon="12.3887333"><ele>453.0</ele><time>2026-04-18T14:45:20.966Z</time></trkpt><trkpt lat="43.11533" lon="12.3886567"><ele>453.0</ele><time>2026-04-18T14:45:21.966Z</time></trkpt><trkpt lat="43.1153717" lon="12.3885733"><ele>451.3333333333333</ele><time>2026-04-18T14:45:22.966Z</time></trkpt><trkpt lat="43.1154083" lon="12.3884933"><ele>449.66666666666663</ele><time>2026-04-18T14:45:23.966Z</time></trkpt><trkpt lat="43.11547" lon="12.3884483"><ele>448.0</ele><time>2026-04-18T14:45:24.966Z</time></trkpt><trkpt lat="43.115525" lon="12.38839"><ele>446.3333333333333</ele><time>2026-04-18T14:45:25.966Z</time></trkpt><trkpt lat="43.1156133" lon="12.38827"><ele>444.66666666666663</ele><time>2026-04-18T14:45:27.966Z</time></trkpt><trkpt lat="43.115675" lon="12.3881883"><ele>443.0</ele><time>2026-04-18T14:45:29.966Z</time></trkpt><trkpt lat="43.1157217" lon="12.3881117"><ele>442.2</ele><time>2026-04-18T14:45:36.966Z</time></trkpt><trkpt lat="43.1157967" lon="12.38806"><ele>441.4</ele><time>2026-04-18T14:45:38.966Z</time></trkpt><trkpt lat="43.1158733" lon="12.38799"><ele>440.59999999999997</ele><time>2026-04-18T14:45:40.966Z</time></trkpt><trkpt lat="43.1159383" lon="12.38792"><ele>439.79999999999995</ele><time>2026-04-18T14:45:42.966Z</time></trkpt><trkpt lat="43.11602" lon="12.3878683"><ele>439.0</ele><time>2026-04-18T14:45:44.966Z</time></trkpt><trkpt lat="43.11611" lon="12.3878017"><ele>439.0</ele><time>2026-04-18T14:45:46.966Z</time></trkpt><trkpt lat="43.1161933" lon="12.387705"><ele>439.0</ele><time>2026-04-18T14:45:48.966Z</time></trkpt><trkpt lat="43.1162817" lon="12.3876117"><ele>439.0</ele><time>2026-04-18T14:45:50.966Z</time></trkpt><trkpt lat="43.11638" lon="12.3875167"><ele>439.0</ele><time>2026-04-18T14:45:52.966Z</time></trkpt><trkpt lat="43.11643" lon="12.3874583"><ele>439.0</ele><time>2026-04-18T14:45:53.966Z</time></trkpt><trkpt lat="43.1164717" lon="12.3873867"><ele>439.00000000000006</ele><time>2026-04-18T14:45:54.966Z</time></trkpt><trkpt lat="43.11652" lon="12.38733"><ele>439.0</ele><time>2026-04-18T14:45:55.966Z</time></trkpt><trkpt lat="43.1165733" lon="12.3872717"><ele>439.0</ele><time>2026-04-18T14:45:56.966Z</time></trkpt><trkpt lat="43.1166183" lon="12.3872017"><ele>439.0</ele><time>2026-04-18T14:45:57.966Z</time></trkpt><trkpt lat="43.11666" lon="12.3871233"><ele>439.00000000000006</ele><time>2026-04-18T14:45:58.966Z</time></trkpt><trkpt lat="43.1167017" lon="12.3870217"><ele>439.0</ele><time>2026-04-18T14:45:59.966Z</time></trkpt><trkpt lat="43.1167417" lon="12.3869033"><ele>439.0</ele><time>2026-04-18T14:46:00.966Z</time></trkpt><trkpt lat="43.116795" lon="12.3867817"><ele>439.0</ele><time>2026-04-18T14:46:01.966Z</time></trkpt><trkpt lat="43.11684" lon="12.3866517"><ele>439.0</ele><time>2026-04-18T14:46:02.966Z</time></trkpt><trkpt lat="43.1168817" lon="12.3865167"><ele>439.0</ele><time>2026-04-18T14:46:03.966Z</time></trkpt><trkpt lat="43.11692" lon="12.3863617"><ele>439.0</ele><time>2026-04-18T14:46:04.966Z</time></trkpt><trkpt lat="43.1169633" lon="12.38623"><ele>439.0</ele><time>2026-04-18T14:46:05.966Z</time></trkpt><trkpt lat="43.1170017" lon="12.3860967"><ele>439.0</ele><time>2026-04-18T14:46:06.966Z</time></trkpt><trkpt lat="43.11702" lon="12.3859667"><ele>439.0</ele><time>2026-04-18T14:46:07.966Z</time></trkpt><trkpt lat="43.1170383" lon="12.3858367"><ele>439.0</ele><time>2026-04-18T14:46:08.966Z</time></trkpt><trkpt lat="43.1170483" lon="12.38571"><ele>439.0</ele><time>2026-04-18T14:46:09.966Z</time></trkpt><trkpt lat="43.1170617" lon="12.3855817"><ele>438.0</ele><time>2026-04-18T14:46:10.966Z</time></trkpt><trkpt lat="43.1170783" lon="12.3854533"><ele>437.0</ele><time>2026-04-18T14:46:11.966Z</time></trkpt><trkpt lat="43.1170917" lon="12.3853267"><ele>436.0</ele><time>2026-04-18T14:46:12.966Z</time></trkpt><trkpt lat="43.117105" lon="12.3852"><ele>435.0</ele><time>2026-04-18T14:46:13.966Z</time></trkpt><trkpt lat="43.1171233" lon="12.385075"><ele>434.0</ele><time>2026-04-18T14:46:14.966Z</time></trkpt><trkpt lat="43.1171333" lon="12.3849583"><ele>434.0</ele><time>2026-04-18T14:46:15.966Z</time></trkpt><trkpt lat="43.1171483" lon="12.384825"><ele>434.0</ele><time>2026-04-18T14:46:16.966Z</time></trkpt><trkpt lat="43.1171633" lon="12.3846967"><ele>434.0</ele><time>2026-04-18T14:46:17.966Z</time></trkpt><trkpt lat="43.11718" lon="12.3845567"><ele>434.0</ele><time>2026-04-18T14:46:18.966Z</time></trkpt><trkpt lat="43.1171883" lon="12.3844317"><ele>434.0</ele><time>2026-04-18T14:46:19.966Z</time></trkpt><trkpt lat="43.1172" lon="12.3843317"><ele>434.0</ele><time>2026-04-18T14:46:20.966Z</time></trkpt><trkpt lat="43.1172167" lon="12.38423"><ele>434.0</ele><time>2026-04-18T14:46:21.966Z</time></trkpt><trkpt lat="43.1172883" lon="12.3841167"><ele>434.0</ele><time>2026-04-18T14:46:23.966Z</time></trkpt><trkpt lat="43.1173767" lon="12.3841383"><ele>434.0</ele><time>2026-04-18T14:46:25.966Z</time></trkpt><trkpt lat="43.1174033" lon="12.3842983"><ele>434.0</ele><time>2026-04-18T14:46:27.966Z</time></trkpt><trkpt lat="43.1173917" lon="12.3843967"><ele>434.0</ele><time>2026-04-18T14:46:28.966Z</time></trkpt><trkpt lat="43.117365" lon="12.3845133"><ele>434.0</ele><time>2026-04-18T14:46:29.966Z</time></trkpt><trkpt lat="43.1173283" lon="12.3846483"><ele>434.0</ele><time>2026-04-18T14:46:30.966Z</time></trkpt><trkpt lat="43.1172967" lon="12.384785"><ele>434.0</ele><time>2026-04-18T14:46:31.966Z</time></trkpt><trkpt lat="43.117265" lon="12.384915"><ele>434.0</ele><time>2026-04-18T14:46:32.966Z</time></trkpt><trkpt lat="43.11724" lon="12.3850417"><ele>434.0</ele><time>2026-04-18T14:46:33.966Z</time></trkpt><trkpt lat="43.117215" lon="12.3851717"><ele>434.0</ele><time>2026-04-18T14:46:34.966Z</time></trkpt><trkpt lat="43.1171967" lon="12.3853033"><ele>434.0</ele><time>2026-04-18T14:46:35.966Z</time></trkpt><trkpt lat="43.1171767" lon="12.3854383"><ele>434.0</ele><time>2026-04-18T14:46:36.966Z</time></trkpt><trkpt lat="43.1171633" lon="12.3855717"><ele>434.0</ele><time>2026-04-18T14:46:37.966Z</time></trkpt><trkpt lat="43.117145" lon="12.3857117"><ele>435.0</ele><time>2026-04-18T14:46:38.966Z</time></trkpt><trkpt lat="43.1171267" lon="12.3858483"><ele>436.0</ele><time>2026-04-18T14:46:39.966Z</time></trkpt><trkpt lat="43.11711" lon="12.3859767"><ele>437.0</ele><time>2026-04-18T14:46:40.966Z</time></trkpt><trkpt lat="43.117105" lon="12.3861033"><ele>438.0</ele><time>2026-04-18T14:46:41.966Z</time></trkpt><trkpt lat="43.1170967" lon="12.386235"><ele>439.0</ele><time>2026-04-18T14:46:42.966Z</time></trkpt><trkpt lat="43.1170917" lon="12.3863567"><ele>440.6666666666667</ele><time>2026-04-18T14:46:43.966Z</time></trkpt><trkpt lat="43.1170867" lon="12.38648"><ele>442.33333333333337</ele><time>2026-04-18T14:46:44.966Z</time></trkpt><trkpt lat="43.117075" lon="12.3866017"><ele>444.0</ele><time>2026-04-18T14:46:45.966Z</time></trkpt><trkpt lat="43.1170583" lon="12.3867233"><ele>445.66666666666663</ele><time>2026-04-18T14:46:46.966Z</time></trkpt><trkpt lat="43.1170367" lon="12.386825"><ele>447.3333333333333</ele><time>2026-04-18T14:46:47.966Z</time></trkpt><trkpt lat="43.1170033" lon="12.38692"><ele>449.0</ele><time>2026-04-18T14:46:48.966Z</time></trkpt><trkpt lat="43.1169733" lon="12.3870183"><ele>449.0</ele><time>2026-04-18T14:46:49.966Z</time></trkpt><trkpt lat="43.1169433" lon="12.3871033"><ele>449.0</ele><time>2026-04-18T14:46:50.966Z</time></trkpt><trkpt lat="43.1169383" lon="12.3872367"><ele>449.0</ele><time>2026-04-18T14:46:52.966Z</time></trkpt><trkpt lat="43.1170167" lon="12.3873033"><ele>449.0</ele><time>2026-04-18T14:46:54.966Z</time></trkpt><trkpt lat="43.1170933" lon="12.3872183"><ele>449.0</ele><time>2026-04-18T14:46:56.966Z</time></trkpt><trkpt lat="43.1171267" lon="12.3870967"><ele>448.99999999999994</ele><time>2026-04-18T14:46:57.966Z</time></trkpt><trkpt lat="43.1171667" lon="12.38699"><ele>449.0</ele><time>2026-04-18T14:46:58.966Z</time></trkpt><trkpt lat="43.1172183" lon="12.3868933"><ele>449.0</ele><time>2026-04-18T14:46:59.966Z</time></trkpt><trkpt lat="43.1172767" lon="12.386795"><ele>449.0</ele><time>2026-04-18T14:47:00.966Z</time></trkpt><trkpt lat="43.1173317" lon="12.3867033"><ele>448.99999999999994</ele><time>2026-04-18T14:47:01.966Z</time></trkpt><trkpt lat="43.1173817" lon="12.3866217"><ele>449.0</ele><time>2026-04-18T14:47:02.966Z</time></trkpt><trkpt lat="43.1174333" lon="12.386515"><ele>451.2</ele><time>2026-04-18T14:47:03.966Z</time></trkpt><trkpt lat="43.1174933" lon="12.38643"><ele>453.4</ele><time>2026-04-18T14:47:04.966Z</time></trkpt><trkpt lat="43.1175483" lon="12.3863233"><ele>455.6</ele><time>2026-04-18T14:47:05.966Z</time></trkpt><trkpt lat="43.117605" lon="12.3862083"><ele>457.8</ele><time>2026-04-18T14:47:06.966Z</time></trkpt><trkpt lat="43.1176683" lon="12.3860983"><ele>460.0</ele><time>2026-04-18T14:47:07.966Z</time></trkpt><trkpt lat="43.117725" lon="12.38598"><ele>460.0</ele><time>2026-04-18T14:47:08.966Z</time></trkpt><trkpt lat="43.1177667" lon="12.3858583"><ele>460.0</ele><time>2026-04-18T14:47:09.966Z</time></trkpt><trkpt lat="43.1178" lon="12.3857283"><ele>460.0</ele><time>2026-04-18T14:47:10.966Z</time></trkpt><trkpt lat="43.1178383" lon="12.3856067"><ele>460.0</ele><time>2026-04-18T14:47:11.966Z</time></trkpt><trkpt lat="43.11787" lon="12.3854817"><ele>460.0</ele><time>2026-04-18T14:47:12.966Z</time></trkpt><trkpt lat="43.1179" lon="12.3853517"><ele>459.0</ele><time>2026-04-18T14:47:13.966Z</time></trkpt><trkpt lat="43.11793" lon="12.3852317"><ele>458.0</ele><time>2026-04-18T14:47:14.966Z</time></trkpt><trkpt lat="43.1179633" lon="12.3851133"><ele>457.0</ele><time>2026-04-18T14:47:15.966Z</time></trkpt><trkpt lat="43.1179933" lon="12.3849967"><ele>456.0</ele><time>2026-04-18T14:47:16.966Z</time></trkpt><trkpt lat="43.1180367" lon="12.384875"><ele>455.0</ele><time>2026-04-18T14:47:17.966Z</time></trkpt><trkpt lat="43.1180867" lon="12.3847583"><ele>454.2</ele><time>2026-04-18T14:47:18.966Z</time></trkpt><trkpt lat="43.1181467" lon="12.3846667"><ele>453.4</ele><time>2026-04-18T14:47:19.966Z</time></trkpt><trkpt lat="43.11821" lon="12.384595"><ele>452.6</ele><time>2026-04-18T14:47:20.966Z</time></trkpt><trkpt lat="43.11829" lon="12.3845433"><ele>451.8</ele><time>2026-04-18T14:47:21.966Z</time></trkpt><trkpt lat="43.1183817" lon="12.3845217"><ele>451.0</ele><time>2026-04-18T14:47:22.966Z</time></trkpt><trkpt lat="43.1184967" lon="12.3845217"><ele>453.6</ele><time>2026-04-18T14:47:23.966Z</time></trkpt><trkpt lat="43.118605" lon="12.384535"><ele>456.20000000000005</ele><time>2026-04-18T14:47:24.966Z</time></trkpt><trkpt lat="43.1187183" lon="12.3845567"><ele>458.79999999999995</ele><time>2026-04-18T14:47:25.966Z</time></trkpt><trkpt lat="43.118825" lon="12.3845733"><ele>461.4</ele><time>2026-04-18T14:47:26.966Z</time></trkpt><trkpt lat="43.11891" lon="12.3846017"><ele>464.0</ele><time>2026-04-18T14:47:27.966Z</time></trkpt><trkpt lat="43.1190033" lon="12.38461"><ele>465.16666666666663</ele><time>2026-04-18T14:47:28.966Z</time></trkpt><trkpt lat="43.1190833" lon="12.3846183"><ele>466.3333333333333</ele><time>2026-04-18T14:47:29.966Z</time></trkpt><trkpt lat="43.1191617" lon="12.3846"><ele>467.5</ele><time>2026-04-18T14:47:30.966Z</time></trkpt><trkpt lat="43.119225" lon="12.3846117"><ele>468.66666666666663</ele><time>2026-04-18T14:47:31.966Z</time></trkpt><trkpt lat="43.11933" lon="12.3846467"><ele>469.8333333333333</ele><time>2026-04-18T14:47:33.966Z</time></trkpt><trkpt lat="43.11939" lon="12.3846967"><ele>471.0</ele><time>2026-04-18T14:47:35.966Z</time></trkpt><trkpt lat="43.1194617" lon="12.3847417"><ele>471.0</ele><time>2026-04-18T14:47:38.966Z</time></trkpt><trkpt lat="43.1195333" lon="12.3846883"><ele>471.0</ele><time>2026-04-18T14:47:40.966Z</time></trkpt><trkpt lat="43.1196067" lon="12.3845483"><ele>471.0</ele><time>2026-04-18T14:47:42.966Z</time></trkpt><trkpt lat="43.1196483" lon="12.3844683"><ele>471.0</ele><time>2026-04-18T14:47:43.966Z</time></trkpt><trkpt lat="43.1196983" lon="12.38437"><ele>471.0</ele><time>2026-04-18T14:47:44.966Z</time></trkpt><trkpt lat="43.1197483" lon="12.3842767"><ele>471.00000000000006</ele><time>2026-04-18T14:47:45.966Z</time></trkpt><trkpt lat="43.1197917" lon="12.3841867"><ele>471.0</ele><time>2026-04-18T14:47:46.966Z</time></trkpt><trkpt lat="43.1198333" lon="12.38411"><ele>471.00000000000006</ele><time>2026-04-18T14:47:47.966Z</time></trkpt><trkpt lat="43.1198783" lon="12.3840267"><ele>471.00000000000006</ele><time>2026-04-18T14:47:48.966Z</time></trkpt><trkpt lat="43.1199167" lon="12.3839433"><ele>471.0</ele><time>2026-04-18T14:47:49.966Z</time></trkpt><trkpt lat="43.1199617" lon="12.3838667"><ele>471.00000000000006</ele><time>2026-04-18T14:47:50.966Z</time></trkpt><trkpt lat="43.1200133" lon="12.3837917"><ele>471.00000000000006</ele><time>2026-04-18T14:47:51.966Z</time></trkpt><trkpt lat="43.1200683" lon="12.3837117"><ele>471.3333333333333</ele><time>2026-04-18T14:47:52.966Z</time></trkpt><trkpt lat="43.1201183" lon="12.38363"><ele>471.66666666666663</ele><time>2026-04-18T14:47:53.966Z</time></trkpt><trkpt lat="43.1201583" lon="12.38355"><ele>472.0</ele><time>2026-04-18T14:47:54.966Z</time></trkpt><trkpt lat="43.1202167" lon="12.38344"><ele>472.3333333333333</ele><time>2026-04-18T14:47:56.966Z</time></trkpt><trkpt lat="43.120255" lon="12.3833433"><ele>472.66666666666663</ele><time>2026-04-18T14:47:58.966Z</time></trkpt><trkpt lat="43.1203017" lon="12.383225"><ele>473.0</ele><time>2026-04-18T14:48:00.966Z</time></trkpt><trkpt lat="43.1203633" lon="12.3830667"><ele>473.0</ele><time>2026-04-18T14:48:02.966Z</time></trkpt><trkpt lat="43.1204167" lon="12.38296"><ele>472.99999999999994</ele><time>2026-04-18T14:48:03.966Z</time></trkpt><trkpt lat="43.1204667" lon="12.3828433"><ele>472.99999999999994</ele><time>2026-04-18T14:48:04.966Z</time></trkpt><trkpt lat="43.1205267" lon="12.382725"><ele>473.0</ele><time>2026-04-18T14:48:05.966Z</time></trkpt><trkpt lat="43.1205833" lon="12.3826117"><ele>473.0</ele><time>2026-04-18T14:48:06.966Z</time></trkpt><trkpt lat="43.12065" lon="12.3825117"><ele>473.0</ele><time>2026-04-18T14:48:07.966Z</time></trkpt><trkpt lat="43.1207233" lon="12.3824233"><ele>472.99999999999994</ele><time>2026-04-18T14:48:08.966Z</time></trkpt><trkpt lat="43.120795" lon="12.382345"><ele>472.99999999999994</ele><time>2026-04-18T14:48:09.966Z</time></trkpt><trkpt lat="43.1208667" lon="12.38228"><ele>473.0</ele><time>2026-04-18T14:48:10.966Z</time></trkpt><trkpt lat="43.1209517" lon="12.382225"><ele>473.0</ele><time>2026-04-18T14:48:11.966Z</time></trkpt><trkpt lat="43.12105" lon="12.382185"><ele>476.2</ele><time>2026-04-18T14:48:12.966Z</time></trkpt><trkpt lat="43.12115" lon="12.3821317"><ele>479.4</ele><time>2026-04-18T14:48:13.966Z</time></trkpt><trkpt lat="43.1212533" lon="12.38208"><ele>482.59999999999997</ele><time>2026-04-18T14:48:14.966Z</time></trkpt><trkpt lat="43.12135" lon="12.38203"><ele>485.79999999999995</ele><time>2026-04-18T14:48:15.966Z</time></trkpt><trkpt lat="43.1214367" lon="12.3819633"><ele>489.0</ele><time>2026-04-18T14:48:16.966Z</time></trkpt><trkpt lat="43.12152" lon="12.3818817"><ele>488.6</ele><time>2026-04-18T14:48:17.966Z</time></trkpt><trkpt lat="43.1215983" lon="12.3817933"><ele>488.2</ele><time>2026-04-18T14:48:18.966Z</time></trkpt><trkpt lat="43.121665" lon="12.3816917"><ele>487.80000000000007</ele><time>2026-04-18T14:48:19.966Z</time></trkpt><trkpt lat="43.121735" lon="12.3815967"><ele>487.40000000000003</ele><time>2026-04-18T14:48:20.966Z</time></trkpt><trkpt lat="43.1218083" lon="12.3814917"><ele>487.0</ele><time>2026-04-18T14:48:21.966Z</time></trkpt><trkpt lat="43.1218633" lon="12.3813933"><ele>488.83333333333337</ele><time>2026-04-18T14:48:22.966Z</time></trkpt><trkpt lat="43.12191" lon="12.3813017"><ele>490.6666666666667</ele><time>2026-04-18T14:48:23.966Z</time></trkpt><trkpt lat="43.1219483" lon="12.3812067"><ele>492.5</ele><time>2026-04-18T14:48:24.966Z</time></trkpt><trkpt lat="43.1219867" lon="12.381105"><ele>494.33333333333337</ele><time>2026-04-18T14:48:25.966Z</time></trkpt><trkpt lat="43.122015" lon="12.3810133"><ele>496.1666666666667</ele><time>2026-04-18T14:48:26.966Z</time></trkpt><trkpt lat="43.122065" lon="12.38088"><ele>498.0</ele><time>2026-04-18T14:48:28.966Z</time></trkpt><trkpt lat="43.122125" lon="12.3807733"><ele>498.0</ele><time>2026-04-18T14:48:30.966Z</time></trkpt><trkpt lat="43.1221683" lon="12.380695"><ele>498.0</ele><time>2026-04-18T14:48:32.966Z</time></trkpt><trkpt lat="43.1222333" lon="12.3805733"><ele>498.0</ele><time>2026-04-18T14:48:40.966Z</time></trkpt><trkpt lat="43.122275" lon="12.3804983"><ele>498.0</ele><time>2026-04-18T14:48:41.966Z</time></trkpt><trkpt lat="43.122315" lon="12.38041"><ele>498.0</ele><time>2026-04-18T14:48:42.966Z</time></trkpt><trkpt lat="43.1223667" lon="12.3803117"><ele>498.0</ele><time>2026-04-18T14:48:43.966Z</time></trkpt><trkpt lat="43.1224233" lon="12.380205"><ele>496.1666666666667</ele><time>2026-04-18T14:48:44.966Z</time></trkpt><trkpt lat="43.1224783" lon="12.3801033"><ele>494.33333333333337</ele><time>2026-04-18T14:48:45.966Z</time></trkpt><trkpt lat="43.122525" lon="12.3800017"><ele>492.5</ele><time>2026-04-18T14:48:46.966Z</time></trkpt><trkpt lat="43.1225683" lon="12.3799083"><ele>490.6666666666667</ele><time>2026-04-18T14:48:47.966Z</time></trkpt><trkpt lat="43.1226217" lon="12.3798117"><ele>488.83333333333337</ele><time>2026-04-18T14:48:48.966Z</time></trkpt><trkpt lat="43.122685" lon="12.3797067"><ele>487.0</ele><time>2026-04-18T14:48:49.966Z</time></trkpt><trkpt lat="43.1227433" lon="12.3795983"><ele>484.8</ele><time>2026-04-18T14:48:50.966Z</time></trkpt><trkpt lat="43.122795" lon="12.3794967"><ele>482.6</ele><time>2026-04-18T14:48:51.966Z</time></trkpt><trkpt lat="43.1228533" lon="12.3793967"><ele>480.40000000000003</ele><time>2026-04-18T14:48:52.966Z</time></trkpt><trkpt lat="43.1229183" lon="12.3792967"><ele>478.20000000000005</ele><time>2026-04-18T14:48:53.966Z</time></trkpt><trkpt lat="43.1229867" lon="12.3791933"><ele>476.0</ele><time>2026-04-18T14:48:54.966Z</time></trkpt><trkpt lat="43.1230683" lon="12.3790867"><ele>476.0</ele><time>2026-04-18T14:48:55.966Z</time></trkpt><trkpt lat="43.123155" lon="12.3789833"><ele>476.0</ele><time>2026-04-18T14:48:56.966Z</time></trkpt><trkpt lat="43.1232417" lon="12.3788717"><ele>476.0</ele><time>2026-04-18T14:48:57.966Z</time></trkpt><trkpt lat="43.1233333" lon="12.3787783"><ele>476.0</ele><time>2026-04-18T14:48:58.966Z</time></trkpt><trkpt lat="43.12342" lon="12.37868"><ele>474.0</ele><time>2026-04-18T14:48:59.966Z</time></trkpt><trkpt lat="43.123505" lon="12.3785817"><ele>472.0</ele><time>2026-04-18T14:49:00.966Z</time></trkpt><trkpt lat="43.123585" lon="12.3784917"><ele>470.0</ele><time>2026-04-18T14:49:01.966Z</time></trkpt><trkpt lat="43.1236617" lon="12.3783933"><ele>468.0</ele><time>2026-04-18T14:49:02.966Z</time></trkpt><trkpt lat="43.1237217" lon="12.3782833"><ele>466.0</ele><time>2026-04-18T14:49:03.966Z</time></trkpt><trkpt lat="43.1237717" lon="12.3781617"><ele>466.0</ele><time>2026-04-18T14:49:04.966Z</time></trkpt><trkpt lat="43.123825" lon="12.3780283"><ele>466.0</ele><time>2026-04-18T14:49:05.966Z</time></trkpt><trkpt lat="43.1238633" lon="12.377905"><ele>466.0</ele><time>2026-04-18T14:49:06.966Z</time></trkpt><trkpt lat="43.1238967" lon="12.3777667"><ele>466.0</ele><time>2026-04-18T14:49:07.966Z</time></trkpt><trkpt lat="43.1239317" lon="12.3776233"><ele>466.0</ele><time>2026-04-18T14:49:08.966Z</time></trkpt><trkpt lat="43.1239633" lon="12.377475"><ele>463.0</ele><time>2026-04-18T14:49:09.966Z</time></trkpt><trkpt lat="43.1240033" lon="12.3773317"><ele>460.0</ele><time>2026-04-18T14:49:10.966Z</time></trkpt><trkpt lat="43.1240483" lon="12.3772033"><ele>457.0</ele><time>2026-04-18T14:49:11.966Z</time></trkpt><trkpt lat="43.1240917" lon="12.37709"><ele>454.0</ele><time>2026-04-18T14:49:12.966Z</time></trkpt><trkpt lat="43.1241433" lon="12.37699"><ele>451.0</ele><time>2026-04-18T14:49:13.966Z</time></trkpt><trkpt lat="43.1242017" lon="12.3769017"><ele>451.0</ele><time>2026-04-18T14:49:14.966Z</time></trkpt><trkpt lat="43.12428" lon="12.37683"><ele>451.0</ele><time>2026-04-18T14:49:15.965Z</time></trkpt><trkpt lat="43.1243683" lon="12.3767683"><ele>451.0</ele><time>2026-04-18T14:49:16.965Z</time></trkpt><trkpt lat="43.1244667" lon="12.3767167"><ele>451.0</ele><time>2026-04-18T14:49:17.965Z</time></trkpt><trkpt lat="43.1245717" lon="12.3766667"><ele>451.0</ele><time>2026-04-18T14:49:18.965Z</time></trkpt><trkpt lat="43.12468" lon="12.3766167"><ele>451.0</ele><time>2026-04-18T14:49:19.965Z</time></trkpt><trkpt lat="43.1247933" lon="12.3765767"><ele>451.0</ele><time>2026-04-18T14:49:20.965Z</time></trkpt><trkpt lat="43.12491" lon="12.3765367"><ele>451.0</ele><time>2026-04-18T14:49:21.965Z</time></trkpt><trkpt lat="43.1250233" lon="12.3765"><ele>451.0</ele><time>2026-04-18T14:49:22.965Z</time></trkpt><trkpt lat="43.1251383" lon="12.3764583"><ele>450.0</ele><time>2026-04-18T14:49:23.965Z</time></trkpt><trkpt lat="43.12526" lon="12.37641"><ele>449.0</ele><time>2026-04-18T14:49:24.965Z</time></trkpt><trkpt lat="43.1253817" lon="12.3763733"><ele>448.0</ele><time>2026-04-18T14:49:25.965Z</time></trkpt><trkpt lat="43.1255" lon="12.3763383"><ele>447.0</ele><time>2026-04-18T14:49:26.965Z</time></trkpt><trkpt lat="43.125615" lon="12.3763"><ele>443.25</ele><time>2026-04-18T14:49:27.965Z</time></trkpt><trkpt lat="43.12573" lon="12.376255"><ele>439.5</ele><time>2026-04-18T14:49:28.965Z</time></trkpt><trkpt lat="43.1258467" lon="12.376205"><ele>435.75</ele><time>2026-04-18T14:49:29.965Z</time></trkpt><trkpt lat="43.12596" lon="12.3761617"><ele>432.0</ele><time>2026-04-18T14:49:30.965Z</time></trkpt><trkpt lat="43.1260783" lon="12.3761167"><ele>432.0</ele><time>2026-04-18T14:49:31.965Z</time></trkpt><trkpt lat="43.126205" lon="12.3760717"><ele>432.0</ele><time>2026-04-18T14:49:32.965Z</time></trkpt><trkpt lat="43.1263267" lon="12.3760067"><ele>432.0</ele><time>2026-04-18T14:49:33.965Z</time></trkpt><trkpt lat="43.1264433" lon="12.37595"><ele>432.0</ele><time>2026-04-18T14:49:34.965Z</time></trkpt><trkpt lat="43.12656" lon="12.37592"><ele>432.8</ele><time>2026-04-18T14:49:35.965Z</time></trkpt><trkpt lat="43.1266717" lon="12.3758817"><ele>433.6</ele><time>2026-04-18T14:49:36.965Z</time></trkpt><trkpt lat="43.126765" lon="12.37584"><ele>434.40000000000003</ele><time>2026-04-18T14:49:37.965Z</time></trkpt><trkpt lat="43.1268617" lon="12.37578"><ele>435.20000000000005</ele><time>2026-04-18T14:49:38.965Z</time></trkpt><trkpt lat="43.1269467" lon="12.37571"><ele>436.0</ele><time>2026-04-18T14:49:39.965Z</time></trkpt><trkpt lat="43.1270267" lon="12.3756367"><ele>436.0</ele><time>2026-04-18T14:49:40.965Z</time></trkpt><trkpt lat="43.1271067" lon="12.3755433"><ele>436.0</ele><time>2026-04-18T14:49:41.965Z</time></trkpt><trkpt lat="43.1271817" lon="12.3754467"><ele>436.0</ele><time>2026-04-18T14:49:42.965Z</time></trkpt><trkpt lat="43.12725" lon="12.3753433"><ele>436.0</ele><time>2026-04-18T14:49:43.965Z</time></trkpt><trkpt lat="43.1273017" lon="12.37521"><ele>436.0</ele><time>2026-04-18T14:49:44.965Z</time></trkpt><trkpt lat="43.12735" lon="12.3750483"><ele>436.5</ele><time>2026-04-18T14:49:45.965Z</time></trkpt><trkpt lat="43.1274" lon="12.374885"><ele>437.0</ele><time>2026-04-18T14:49:46.965Z</time></trkpt><trkpt lat="43.1274567" lon="12.3747"><ele>437.5</ele><time>2026-04-18T14:49:47.965Z</time></trkpt><trkpt lat="43.1275283" lon="12.37455"><ele>438.0</ele><time>2026-04-18T14:49:48.965Z</time></trkpt><trkpt lat="43.1275983" lon="12.3744217"><ele>438.75</ele><time>2026-04-18T14:49:49.965Z</time></trkpt><trkpt lat="43.1276617" lon="12.37429"><ele>439.5</ele><time>2026-04-18T14:49:50.965Z</time></trkpt><trkpt lat="43.1277283" lon="12.3741417"><ele>440.25</ele><time>2026-04-18T14:49:51.965Z</time></trkpt><trkpt lat="43.127785" lon="12.3739933"><ele>441.0</ele><time>2026-04-18T14:49:52.965Z</time></trkpt><trkpt lat="43.1278483" lon="12.3738533"><ele>444.5</ele><time>2026-04-18T14:49:53.965Z</time></trkpt><trkpt lat="43.1279117" lon="12.3737183"><ele>448.0</ele><time>2026-04-18T14:49:54.965Z</time></trkpt><trkpt lat="43.127975" lon="12.37359"><ele>451.5</ele><time>2026-04-18T14:49:55.965Z</time></trkpt><trkpt lat="43.12805" lon="12.3734717"><ele>455.0</ele><time>2026-04-18T14:49:56.965Z</time></trkpt><trkpt lat="43.1281317" lon="12.3733683"><ele>455.0</ele><time>2026-04-18T14:49:57.965Z</time></trkpt><trkpt lat="43.12822" lon="12.3732867"><ele>455.0</ele><time>2026-04-18T14:49:58.965Z</time></trkpt><trkpt lat="43.1283317" lon="12.37324"><ele>455.0</ele><time>2026-04-18T14:49:59.965Z</time></trkpt><trkpt lat="43.1284433" lon="12.373215"><ele>455.0</ele><time>2026-04-18T14:50:00.965Z</time></trkpt><trkpt lat="43.1285617" lon="12.3731733"><ele>455.0</ele><time>2026-04-18T14:50:01.965Z</time></trkpt><trkpt lat="43.1286733" lon="12.3731033"><ele>455.0</ele><time>2026-04-18T14:50:02.965Z</time></trkpt><trkpt lat="43.1287867" lon="12.3730083"><ele>455.0</ele><time>2026-04-18T14:50:03.965Z</time></trkpt><trkpt lat="43.1288967" lon="12.3729"><ele>455.0</ele><time>2026-04-18T14:50:04.965Z</time></trkpt><trkpt lat="43.1290017" lon="12.3727967"><ele>453.0</ele><time>2026-04-18T14:50:05.965Z</time></trkpt><trkpt lat="43.12911" lon="12.372705"><ele>451.0</ele><time>2026-04-18T14:50:06.965Z</time></trkpt><trkpt lat="43.1292233" lon="12.3726233"><ele>449.0</ele><time>2026-04-18T14:50:07.965Z</time></trkpt><trkpt lat="43.1293333" lon="12.37253"><ele>447.0</ele><time>2026-04-18T14:50:08.965Z</time></trkpt><trkpt lat="43.1294333" lon="12.3724217"><ele>447.0</ele><time>2026-04-18T14:50:09.965Z</time></trkpt><trkpt lat="43.12952" lon="12.3723433"><ele>447.00000000000006</ele><time>2026-04-18T14:50:10.965Z</time></trkpt><trkpt lat="43.1295967" lon="12.37226"><ele>447.00000000000006</ele><time>2026-04-18T14:50:11.965Z</time></trkpt><trkpt lat="43.1296667" lon="12.3721717"><ele>447.0</ele><time>2026-04-18T14:50:12.965Z</time></trkpt><trkpt lat="43.1297233" lon="12.37207"><ele>447.0</ele><time>2026-04-18T14:50:13.964Z</time></trkpt><trkpt lat="43.1297783" lon="12.3719483"><ele>447.5</ele><time>2026-04-18T14:50:14.965Z</time></trkpt><trkpt lat="43.129825" lon="12.371795"><ele>448.0</ele><time>2026-04-18T14:50:15.965Z</time></trkpt><trkpt lat="43.129865" lon="12.3716367"><ele>448.5</ele><time>2026-04-18T14:50:16.965Z</time></trkpt><trkpt lat="43.129915" lon="12.3714667"><ele>449.0</ele><time>2026-04-18T14:50:17.965Z</time></trkpt><trkpt lat="43.12996" lon="12.3712917"><ele>449.0</ele><time>2026-04-18T14:50:18.965Z</time></trkpt><trkpt lat="43.13" lon="12.3711283"><ele>449.0</ele><time>2026-04-18T14:50:19.965Z</time></trkpt><trkpt lat="43.1300433" lon="12.37096"><ele>449.0</ele><time>2026-04-18T14:50:20.965Z</time></trkpt><trkpt lat="43.130095" lon="12.3707783"><ele>449.0</ele><time>2026-04-18T14:50:21.965Z</time></trkpt><trkpt lat="43.1301333" lon="12.3706017"><ele>449.75</ele><time>2026-04-18T14:50:22.965Z</time></trkpt><trkpt lat="43.1301617" lon="12.3704167"><ele>450.5</ele><time>2026-04-18T14:50:23.965Z</time></trkpt><trkpt lat="43.1301883" lon="12.3702267"><ele>451.25</ele><time>2026-04-18T14:50:24.965Z</time></trkpt><trkpt lat="43.130205" lon="12.37004"><ele>452.0</ele><time>2026-04-18T14:50:25.965Z</time></trkpt><trkpt lat="43.130215" lon="12.3698417"><ele>452.5</ele><time>2026-04-18T14:50:26.965Z</time></trkpt><trkpt lat="43.1302167" lon="12.3696567"><ele>453.0</ele><time>2026-04-18T14:50:27.965Z</time></trkpt><trkpt lat="43.1302133" lon="12.3694733"><ele>453.5</ele><time>2026-04-18T14:50:28.965Z</time></trkpt><trkpt lat="43.130215" lon="12.3692833"><ele>454.0</ele><time>2026-04-18T14:50:29.965Z</time></trkpt><trkpt lat="43.13022" lon="12.369105"><ele>454.0</ele><time>2026-04-18T14:50:30.965Z</time></trkpt><trkpt lat="43.1302383" lon="12.3689183"><ele>454.0</ele><time>2026-04-18T14:50:31.965Z</time></trkpt><trkpt lat="43.13027" lon="12.36873"><ele>454.0</ele><time>2026-04-18T14:50:32.965Z</time></trkpt><trkpt lat="43.1303017" lon="12.3685567"><ele>454.0</ele><time>2026-04-18T14:50:33.965Z</time></trkpt><trkpt lat="43.1303383" lon="12.3683817"><ele>452.5</ele><time>2026-04-18T14:50:34.965Z</time></trkpt><trkpt lat="43.130385" lon="12.3682033"><ele>451.0</ele><time>2026-04-18T14:50:35.965Z</time></trkpt><trkpt lat="43.130435" lon="12.36803"><ele>449.5</ele><time>2026-04-18T14:50:36.965Z</time></trkpt><trkpt lat="43.1305017" lon="12.36785"><ele>448.0</ele><time>2026-04-18T14:50:37.965Z</time></trkpt><trkpt lat="43.13057" lon="12.3676733"><ele>447.25</ele><time>2026-04-18T14:50:38.965Z</time></trkpt><trkpt lat="43.1306417" lon="12.3675033"><ele>446.5</ele><time>2026-04-18T14:50:39.965Z</time></trkpt><trkpt lat="43.13072" lon="12.36734"><ele>445.75</ele><time>2026-04-18T14:50:40.965Z</time></trkpt><trkpt lat="43.1308067" lon="12.3671817"><ele>445.0</ele><time>2026-04-18T14:50:41.965Z</time></trkpt><trkpt lat="43.13089" lon="12.367045"><ele>448.0</ele><time>2026-04-18T14:50:42.965Z</time></trkpt><trkpt lat="43.130965" lon="12.3669067"><ele>451.0</ele><time>2026-04-18T14:50:43.965Z</time></trkpt><trkpt lat="43.13103" lon="12.3667617"><ele>454.0</ele><time>2026-04-18T14:50:44.965Z</time></trkpt><trkpt lat="43.1310933" lon="12.3666183"><ele>457.0</ele><time>2026-04-18T14:50:45.965Z</time></trkpt><trkpt lat="43.1311717" lon="12.3664783"><ele>455.25</ele><time>2026-04-18T14:50:46.965Z</time></trkpt><trkpt lat="43.1312383" lon="12.3663317"><ele>453.5</ele><time>2026-04-18T14:50:47.965Z</time></trkpt><trkpt lat="43.1313" lon="12.3661783"><ele>451.75</ele><time>2026-04-18T14:50:48.965Z</time></trkpt><trkpt lat="43.1313567" lon="12.3660217"><ele>450.0</ele><time>2026-04-18T14:50:49.965Z</time></trkpt><trkpt lat="43.1314017" lon="12.36585"><ele>450.0</ele><time>2026-04-18T14:50:50.965Z</time></trkpt><trkpt lat="43.131435" lon="12.3656733"><ele>450.0</ele><time>2026-04-18T14:50:51.965Z</time></trkpt><trkpt lat="43.13147" lon="12.3655083"><ele>450.0</ele><time>2026-04-18T14:50:52.965Z</time></trkpt><trkpt lat="43.1315017" lon="12.3653517"><ele>450.0</ele><time>2026-04-18T14:50:53.965Z</time></trkpt><trkpt lat="43.1315383" lon="12.3652"><ele>447.25</ele><time>2026-04-18T14:50:54.965Z</time></trkpt><trkpt lat="43.1315867" lon="12.365045"><ele>444.5</ele><time>2026-04-18T14:50:55.965Z</time></trkpt><trkpt lat="43.1316483" lon="12.3648917"><ele>441.75</ele><time>2026-04-18T14:50:56.965Z</time></trkpt><trkpt lat="43.13171" lon="12.3647333"><ele>439.0</ele><time>2026-04-18T14:50:57.965Z</time></trkpt><trkpt lat="43.13177" lon="12.3645917"><ele>436.4</ele><time>2026-04-18T14:50:58.965Z</time></trkpt><trkpt lat="43.1318267" lon="12.3644567"><ele>433.79999999999995</ele><time>2026-04-18T14:50:59.965Z</time></trkpt><trkpt lat="43.1318817" lon="12.3643233"><ele>431.20000000000005</ele><time>2026-04-18T14:51:00.965Z</time></trkpt><trkpt lat="43.1319283" lon="12.3641883"><ele>428.6</ele><time>2026-04-18T14:51:01.965Z</time></trkpt><trkpt lat="43.1319783" lon="12.3640583"><ele>426.0</ele><time>2026-04-18T14:51:02.965Z</time></trkpt><trkpt lat="43.1320167" lon="12.3639283"><ele>423.5</ele><time>2026-04-18T14:51:03.965Z</time></trkpt><trkpt lat="43.1320583" lon="12.3637867"><ele>421.0</ele><time>2026-04-18T14:51:04.965Z</time></trkpt><trkpt lat="43.1321017" lon="12.3636467"><ele>418.5</ele><time>2026-04-18T14:51:05.965Z</time></trkpt><trkpt lat="43.1321567" lon="12.363495"><ele>416.0</ele><time>2026-04-18T14:51:06.965Z</time></trkpt><trkpt lat="43.1322133" lon="12.3633517"><ele>416.0</ele><time>2026-04-18T14:51:07.965Z</time></trkpt><trkpt lat="43.1322667" lon="12.363205"><ele>416.0</ele><time>2026-04-18T14:51:08.965Z</time></trkpt><trkpt lat="43.13232" lon="12.3630567"><ele>416.0</ele><time>2026-04-18T14:51:09.965Z</time></trkpt><trkpt lat="43.132375" lon="12.3629133"><ele>416.0</ele><time>2026-04-18T14:51:10.965Z</time></trkpt><trkpt lat="43.1324333" lon="12.3627933"><ele>416.8333333333333</ele><time>2026-04-18T14:51:11.965Z</time></trkpt><trkpt lat="43.1324967" lon="12.3626967"><ele>417.66666666666663</ele><time>2026-04-18T14:51:12.965Z</time></trkpt><trkpt lat="43.13255" lon="12.3626067"><ele>418.5</ele><time>2026-04-18T14:51:13.965Z</time></trkpt><trkpt lat="43.1325917" lon="12.3625133"><ele>419.33333333333337</ele><time>2026-04-18T14:51:14.965Z</time></trkpt><trkpt lat="43.1326367" lon="12.3624183"><ele>420.1666666666667</ele><time>2026-04-18T14:51:15.965Z</time></trkpt><trkpt lat="43.132685" lon="12.3623117"><ele>421.0</ele><time>2026-04-18T14:51:16.965Z</time></trkpt><trkpt lat="43.1327383" lon="12.3622017"><ele>419.75</ele><time>2026-04-18T14:51:17.965Z</time></trkpt><trkpt lat="43.1328017" lon="12.3620683"><ele>418.5</ele><time>2026-04-18T14:51:18.965Z</time></trkpt><trkpt lat="43.13287" lon="12.3619233"><ele>417.25</ele><time>2026-04-18T14:51:19.965Z</time></trkpt><trkpt lat="43.132935" lon="12.3617667"><ele>416.0</ele><time>2026-04-18T14:51:20.965Z</time></trkpt><trkpt lat="43.1329917" lon="12.361615"><ele>416.0</ele><time>2026-04-18T14:51:21.965Z</time></trkpt><trkpt lat="43.13305" lon="12.361475"><ele>416.0</ele><time>2026-04-18T14:51:22.965Z</time></trkpt><trkpt lat="43.1331017" lon="12.3613383"><ele>416.0</ele><time>2026-04-18T14:51:23.965Z</time></trkpt><trkpt lat="43.13315" lon="12.361205"><ele>416.0</ele><time>2026-04-18T14:51:24.965Z</time></trkpt><trkpt lat="43.133195" lon="12.3610817"><ele>416.0</ele><time>2026-04-18T14:51:25.965Z</time></trkpt><trkpt lat="43.1332267" lon="12.360975"><ele>417.49999999999994</ele><time>2026-04-18T14:51:26.965Z</time></trkpt><trkpt lat="43.133275" lon="12.360875"><ele>419.0</ele><time>2026-04-18T14:51:27.965Z</time></trkpt><trkpt lat="43.133325" lon="12.3607833"><ele>420.5</ele><time>2026-04-18T14:51:28.965Z</time></trkpt><trkpt lat="43.1333633" lon="12.360705"><ele>422.0</ele><time>2026-04-18T14:51:29.965Z</time></trkpt><trkpt lat="43.1334133" lon="12.36063"><ele>423.49999999999994</ele><time>2026-04-18T14:51:30.965Z</time></trkpt><trkpt lat="43.1334633" lon="12.3605717"><ele>425.0</ele><time>2026-04-18T14:51:31.965Z</time></trkpt><trkpt lat="43.1335583" lon="12.36046"><ele>425.8333333333333</ele><time>2026-04-18T14:51:33.965Z</time></trkpt><trkpt lat="43.133625" lon="12.36041"><ele>426.66666666666663</ele><time>2026-04-18T14:51:34.965Z</time></trkpt><trkpt lat="43.1336967" lon="12.3603467"><ele>427.5</ele><time>2026-04-18T14:51:35.965Z</time></trkpt><trkpt lat="43.1337717" lon="12.3602783"><ele>428.33333333333337</ele><time>2026-04-18T14:51:36.965Z</time></trkpt><trkpt lat="43.133855" lon="12.3602117"><ele>429.1666666666667</ele><time>2026-04-18T14:51:37.965Z</time></trkpt><trkpt lat="43.1339417" lon="12.360155"><ele>430.0</ele><time>2026-04-18T14:51:38.965Z</time></trkpt><trkpt lat="43.1340283" lon="12.36009"><ele>430.6</ele><time>2026-04-18T14:51:39.965Z</time></trkpt><trkpt lat="43.1341233" lon="12.3600233"><ele>431.2</ele><time>2026-04-18T14:51:40.965Z</time></trkpt><trkpt lat="43.1342267" lon="12.3599717"><ele>431.79999999999995</ele><time>2026-04-18T14:51:41.965Z</time></trkpt><trkpt lat="43.13433" lon="12.3599083"><ele>432.4</ele><time>2026-04-18T14:51:42.965Z</time></trkpt><trkpt lat="43.1344233" lon="12.3598467"><ele>433.0</ele><time>2026-04-18T14:51:43.965Z</time></trkpt><trkpt lat="43.1345083" lon="12.3597817"><ele>433.00000000000006</ele><time>2026-04-18T14:51:44.965Z</time></trkpt><trkpt lat="43.1345967" lon="12.359725"><ele>433.0</ele><time>2026-04-18T14:51:45.965Z</time></trkpt><trkpt lat="43.1346717" lon="12.35966"><ele>433.0</ele><time>2026-04-18T14:51:46.965Z</time></trkpt><trkpt lat="43.1347267" lon="12.3596167"><ele>433.0</ele><time>2026-04-18T14:51:47.965Z</time></trkpt><trkpt lat="43.134785" lon="12.359555"><ele>433.00000000000006</ele><time>2026-04-18T14:51:48.965Z</time></trkpt><trkpt lat="43.13484" lon="12.3594733"><ele>433.0</ele><time>2026-04-18T14:51:49.965Z</time></trkpt><trkpt lat="43.1349083" lon="12.3593983"><ele>432.79999999999995</ele><time>2026-04-18T14:51:50.965Z</time></trkpt><trkpt lat="43.1349733" lon="12.35931"><ele>432.59999999999997</ele><time>2026-04-18T14:51:51.965Z</time></trkpt><trkpt lat="43.1350433" lon="12.3592067"><ele>432.40000000000003</ele><time>2026-04-18T14:51:52.965Z</time></trkpt><trkpt lat="43.1351133" lon="12.3591017"><ele>432.20000000000005</ele><time>2026-04-18T14:51:53.965Z</time></trkpt><trkpt lat="43.135185" lon="12.3590033"><ele>432.0</ele><time>2026-04-18T14:51:54.965Z</time></trkpt><trkpt lat="43.1352683" lon="12.3589033"><ele>432.25</ele><time>2026-04-18T14:51:55.965Z</time></trkpt><trkpt lat="43.135355" lon="12.3588083"><ele>432.5</ele><time>2026-04-18T14:51:56.965Z</time></trkpt><trkpt lat="43.1354483" lon="12.3587183"><ele>432.75</ele><time>2026-04-18T14:51:57.965Z</time></trkpt><trkpt lat="43.13555" lon="12.3586317"><ele>433.0</ele><time>2026-04-18T14:51:58.965Z</time></trkpt><trkpt lat="43.135645" lon="12.3585317"><ele>429.25</ele><time>2026-04-18T14:51:59.965Z</time></trkpt><trkpt lat="43.1357417" lon="12.3584233"><ele>425.5</ele><time>2026-04-18T14:52:00.965Z</time></trkpt><trkpt lat="43.1358383" lon="12.35832"><ele>421.75</ele><time>2026-04-18T14:52:01.965Z</time></trkpt><trkpt lat="43.1359367" lon="12.3582217"><ele>418.0</ele><time>2026-04-18T14:52:02.965Z</time></trkpt><trkpt lat="43.136035" lon="12.358125"><ele>418.0</ele><time>2026-04-18T14:52:03.965Z</time></trkpt><trkpt lat="43.1361283" lon="12.3580367"><ele>418.0</ele><time>2026-04-18T14:52:04.965Z</time></trkpt><trkpt lat="43.1362333" lon="12.3579567"><ele>418.0</ele><time>2026-04-18T14:52:05.965Z</time></trkpt><trkpt lat="43.1363383" lon="12.3578617"><ele>418.0</ele><time>2026-04-18T14:52:06.965Z</time></trkpt><trkpt lat="43.1364433" lon="12.3577783"><ele>417.0</ele><time>2026-04-18T14:52:07.965Z</time></trkpt><trkpt lat="43.1365483" lon="12.3577017"><ele>416.0</ele><time>2026-04-18T14:52:08.965Z</time></trkpt><trkpt lat="43.1366567" lon="12.357645"><ele>415.0</ele><time>2026-04-18T14:52:09.965Z</time></trkpt><trkpt lat="43.1367733" lon="12.3575933"><ele>414.0</ele><time>2026-04-18T14:52:10.965Z</time></trkpt><trkpt lat="43.1368817" lon="12.3575467"><ele>410.5</ele><time>2026-04-18T14:52:11.965Z</time></trkpt><trkpt lat="43.1369917" lon="12.357515"><ele>407.0</ele><time>2026-04-18T14:52:12.965Z</time></trkpt><trkpt lat="43.1371017" lon="12.35751"><ele>403.5</ele><time>2026-04-18T14:52:13.965Z</time></trkpt><trkpt lat="43.1372117" lon="12.3575183"><ele>400.0</ele><time>2026-04-18T14:52:14.965Z</time></trkpt><trkpt lat="43.1373367" lon="12.35753"><ele>397.75</ele><time>2026-04-18T14:52:15.965Z</time></trkpt><trkpt lat="43.137455" lon="12.3575083"><ele>395.5</ele><time>2026-04-18T14:52:16.965Z</time></trkpt><trkpt lat="43.1375733" lon="12.3574533"><ele>393.25</ele><time>2026-04-18T14:52:17.965Z</time></trkpt><trkpt lat="43.1376783" lon="12.3573833"><ele>391.0</ele><time>2026-04-18T14:52:18.965Z</time></trkpt><trkpt lat="43.1377867" lon="12.3573067"><ele>391.0</ele><time>2026-04-18T14:52:19.965Z</time></trkpt><trkpt lat="43.1378983" lon="12.357235"><ele>391.0</ele><time>2026-04-18T14:52:20.965Z</time></trkpt><trkpt lat="43.138015" lon="12.3571717"><ele>391.0</ele><time>2026-04-18T14:52:21.965Z</time></trkpt><trkpt lat="43.13813" lon="12.357105"><ele>391.0</ele><time>2026-04-18T14:52:22.965Z</time></trkpt><trkpt lat="43.138245" lon="12.357035"><ele>385.75</ele><time>2026-04-18T14:52:23.965Z</time></trkpt><trkpt lat="43.1383633" lon="12.3569667"><ele>380.5</ele><time>2026-04-18T14:52:24.965Z</time></trkpt><trkpt lat="43.1384783" lon="12.3569033"><ele>375.25</ele><time>2026-04-18T14:52:25.965Z</time></trkpt><trkpt lat="43.1385883" lon="12.35684"><ele>370.0</ele><time>2026-04-18T14:52:26.965Z</time></trkpt><trkpt lat="43.1386967" lon="12.3567833"><ele>370.0</ele><time>2026-04-18T14:52:27.965Z</time></trkpt><trkpt lat="43.1387917" lon="12.3567267"><ele>370.0</ele><time>2026-04-18T14:52:28.965Z</time></trkpt><trkpt lat="43.1388667" lon="12.3566683"><ele>370.0</ele><time>2026-04-18T14:52:29.965Z</time></trkpt><trkpt lat="43.13893" lon="12.356595"><ele>370.0</ele><time>2026-04-18T14:52:30.965Z</time></trkpt><trkpt lat="43.1389683" lon="12.3565233"><ele>370.0</ele><time>2026-04-18T14:52:31.965Z</time></trkpt><trkpt lat="43.1390267" lon="12.35641"><ele>370.0</ele><time>2026-04-18T14:52:33.965Z</time></trkpt><trkpt lat="43.139085" lon="12.3563467"><ele>368.6</ele><time>2026-04-18T14:52:35.965Z</time></trkpt><trkpt lat="43.139165" lon="12.3563567"><ele>367.2</ele><time>2026-04-18T14:52:37.965Z</time></trkpt><trkpt lat="43.1392467" lon="12.3564"><ele>365.79999999999995</ele><time>2026-04-18T14:52:38.965Z</time></trkpt><trkpt lat="43.1393417" lon="12.3564433"><ele>364.4</ele><time>2026-04-18T14:52:39.965Z</time></trkpt><trkpt lat="43.1394433" lon="12.3564633"><ele>363.0</ele><time>2026-04-18T14:52:40.965Z</time></trkpt><trkpt lat="43.13955" lon="12.35646"><ele>363.0</ele><time>2026-04-18T14:52:41.965Z</time></trkpt><trkpt lat="43.1396633" lon="12.35643"><ele>363.0</ele><time>2026-04-18T14:52:42.965Z</time></trkpt><trkpt lat="43.1397767" lon="12.3563783"><ele>363.0</ele><time>2026-04-18T14:52:43.965Z</time></trkpt><trkpt lat="43.1398717" lon="12.3562967"><ele>363.0</ele><time>2026-04-18T14:52:44.965Z</time></trkpt><trkpt lat="43.1399617" lon="12.3561933"><ele>361.5</ele><time>2026-04-18T14:52:45.965Z</time></trkpt><trkpt lat="43.1400333" lon="12.356065"><ele>360.0</ele><time>2026-04-18T14:52:46.965Z</time></trkpt><trkpt lat="43.140095" lon="12.3559183"><ele>358.5</ele><time>2026-04-18T14:52:47.965Z</time></trkpt><trkpt lat="43.1401633" lon="12.3557683"><ele>357.0</ele><time>2026-04-18T14:52:48.965Z</time></trkpt><trkpt lat="43.1402267" lon="12.355605"><ele>355.5</ele><time>2026-04-18T14:52:49.965Z</time></trkpt><trkpt lat="43.1402833" lon="12.3554433"><ele>354.0</ele><time>2026-04-18T14:52:50.965Z</time></trkpt><trkpt lat="43.14035" lon="12.3553017"><ele>352.5</ele><time>2026-04-18T14:52:51.965Z</time></trkpt><trkpt lat="43.1404167" lon="12.355165"><ele>351.0</ele><time>2026-04-18T14:52:52.965Z</time></trkpt><trkpt lat="43.1404983" lon="12.3550367"><ele>351.0</ele><time>2026-04-18T14:52:53.965Z</time></trkpt><trkpt lat="43.1406" lon="12.3549167"><ele>351.0</ele><time>2026-04-18T14:52:54.965Z</time></trkpt><trkpt lat="43.1407133" lon="12.3548033"><ele>351.0</ele><time>2026-04-18T14:52:55.965Z</time></trkpt><trkpt lat="43.1408217" lon="12.3547083"><ele>351.0</ele><time>2026-04-18T14:52:56.965Z</time></trkpt><trkpt lat="43.14094" lon="12.3546333"><ele>348.5</ele><time>2026-04-18T14:52:57.965Z</time></trkpt><trkpt lat="43.141065" lon="12.35457"><ele>346.0</ele><time>2026-04-18T14:52:58.965Z</time></trkpt><trkpt lat="43.1412017" lon="12.3545183"><ele>343.5</ele><time>2026-04-18T14:52:59.965Z</time></trkpt><trkpt lat="43.1413317" lon="12.3544783"><ele>341.0</ele><time>2026-04-18T14:53:00.965Z</time></trkpt><trkpt lat="43.1414667" lon="12.354455"><ele>340.75</ele><time>2026-04-18T14:53:01.965Z</time></trkpt><trkpt lat="43.1416" lon="12.35444"><ele>340.5</ele><time>2026-04-18T14:53:02.965Z</time></trkpt><trkpt lat="43.1417267" lon="12.3544383"><ele>340.25</ele><time>2026-04-18T14:53:03.965Z</time></trkpt><trkpt lat="43.1418533" lon="12.354465"><ele>340.0</ele><time>2026-04-18T14:53:04.965Z</time></trkpt><trkpt lat="43.1419767" lon="12.3545083"><ele>340.0</ele><time>2026-04-18T14:53:05.965Z</time></trkpt><trkpt lat="43.1420917" lon="12.3545817"><ele>340.0</ele><time>2026-04-18T14:53:06.965Z</time></trkpt><trkpt lat="43.1421967" lon="12.35469"><ele>340.0</ele><time>2026-04-18T14:53:07.965Z</time></trkpt><trkpt lat="43.1422917" lon="12.3548167"><ele>340.0</ele><time>2026-04-18T14:53:08.965Z</time></trkpt><trkpt lat="43.1423783" lon="12.3549567"><ele>340.3333333333333</ele><time>2026-04-18T14:53:09.965Z</time></trkpt><trkpt lat="43.142475" lon="12.3551083"><ele>340.6666666666667</ele><time>2026-04-18T14:53:10.965Z</time></trkpt><trkpt lat="43.1425717" lon="12.3552683"><ele>341.0</ele><time>2026-04-18T14:53:11.965Z</time></trkpt><trkpt lat="43.1426767" lon="12.35544"><ele>342.25</ele><time>2026-04-18T14:53:12.965Z</time></trkpt><trkpt lat="43.142775" lon="12.3555933"><ele>343.5</ele><time>2026-04-18T14:53:13.965Z</time></trkpt><trkpt lat="43.1428667" lon="12.3557483"><ele>344.75</ele><time>2026-04-18T14:53:14.965Z</time></trkpt><trkpt lat="43.142955" lon="12.355895"><ele>346.0</ele><time>2026-04-18T14:53:15.965Z</time></trkpt><trkpt lat="43.1430383" lon="12.3560333"><ele>346.0</ele><time>2026-04-18T14:53:16.965Z</time></trkpt><trkpt lat="43.1431333" lon="12.3561517"><ele>346.0</ele><time>2026-04-18T14:53:17.965Z</time></trkpt><trkpt lat="43.1432433" lon="12.35624"><ele>346.0</ele><time>2026-04-18T14:53:18.965Z</time></trkpt><trkpt lat="43.143365" lon="12.356295"><ele>346.0</ele><time>2026-04-18T14:53:19.965Z</time></trkpt><trkpt lat="43.1434933" lon="12.3563033"><ele>341.75</ele><time>2026-04-18T14:53:20.965Z</time></trkpt><trkpt lat="43.1436217" lon="12.3562967"><ele>337.5</ele><time>2026-04-18T14:53:21.965Z</time></trkpt><trkpt lat="43.1437517" lon="12.356255"><ele>333.25</ele><time>2026-04-18T14:53:22.965Z</time></trkpt><trkpt lat="43.14388" lon="12.3561767"><ele>329.0</ele><time>2026-04-18T14:53:23.965Z</time></trkpt><trkpt lat="43.14399" lon="12.3560933"><ele>329.0</ele><time>2026-04-18T14:53:24.965Z</time></trkpt><trkpt lat="43.1441083" lon="12.3559783"><ele>329.0</ele><time>2026-04-18T14:53:25.965Z</time></trkpt><trkpt lat="43.1441983" lon="12.3558417"><ele>329.0</ele><time>2026-04-18T14:53:26.965Z</time></trkpt><trkpt lat="43.14427" lon="12.35569"><ele>329.0</ele><time>2026-04-18T14:53:27.965Z</time></trkpt><trkpt lat="43.1443083" lon="12.3555183"><ele>328.5</ele><time>2026-04-18T14:53:28.965Z</time></trkpt><trkpt lat="43.1443317" lon="12.35534"><ele>328.0</ele><time>2026-04-18T14:53:29.965Z</time></trkpt><trkpt lat="43.1443317" lon="12.3551567"><ele>327.5</ele><time>2026-04-18T14:53:30.965Z</time></trkpt><trkpt lat="43.1443067" lon="12.3549733"><ele>327.0</ele><time>2026-04-18T14:53:31.965Z</time></trkpt><trkpt lat="43.1442717" lon="12.35479"><ele>325.0</ele><time>2026-04-18T14:53:32.965Z</time></trkpt><trkpt lat="43.1442233" lon="12.3546183"><ele>323.0</ele><time>2026-04-18T14:53:33.965Z</time></trkpt><trkpt lat="43.1441767" lon="12.3544533"><ele>321.0</ele><time>2026-04-18T14:53:34.965Z</time></trkpt><trkpt lat="43.1441333" lon="12.354295"><ele>319.0</ele><time>2026-04-18T14:53:35.965Z</time></trkpt><trkpt lat="43.144105" lon="12.3541283"><ele>319.0</ele><time>2026-04-18T14:53:36.965Z</time></trkpt><trkpt lat="43.14409" lon="12.353965"><ele>319.0</ele><time>2026-04-18T14:53:37.965Z</time></trkpt><trkpt lat="43.1441" lon="12.3538"><ele>319.0</ele><time>2026-04-18T14:53:38.965Z</time></trkpt><trkpt lat="43.14412" lon="12.3536367"><ele>319.0</ele><time>2026-04-18T14:53:39.965Z</time></trkpt><trkpt lat="43.1441717" lon="12.3534783"><ele>318.0</ele><time>2026-04-18T14:53:40.965Z</time></trkpt><trkpt lat="43.1442483" lon="12.3533267"><ele>317.0</ele><time>2026-04-18T14:53:41.965Z</time></trkpt><trkpt lat="43.144345" lon="12.35318"><ele>316.0</ele><time>2026-04-18T14:53:42.965Z</time></trkpt><trkpt lat="43.1444467" lon="12.3530417"><ele>315.0</ele><time>2026-04-18T14:53:43.965Z</time></trkpt><trkpt lat="43.14456" lon="12.3529017"><ele>314.75</ele><time>2026-04-18T14:53:44.965Z</time></trkpt><trkpt lat="43.1446733" lon="12.3527567"><ele>314.5</ele><time>2026-04-18T14:53:45.965Z</time></trkpt><trkpt lat="43.1447817" lon="12.3526117"><ele>314.25</ele><time>2026-04-18T14:53:46.965Z</time></trkpt><trkpt lat="43.1448833" lon="12.352475"><ele>314.0</ele><time>2026-04-18T14:53:47.965Z</time></trkpt><trkpt lat="43.1449833" lon="12.3523433"><ele>314.0</ele><time>2026-04-18T14:53:48.965Z</time></trkpt><trkpt lat="43.1450867" lon="12.3522217"><ele>314.0</ele><time>2026-04-18T14:53:49.965Z</time></trkpt><trkpt lat="43.1451917" lon="12.3520967"><ele>314.0</ele><time>2026-04-18T14:53:50.965Z</time></trkpt><trkpt lat="43.1452933" lon="12.35197"><ele>314.0</ele><time>2026-04-18T14:53:51.965Z</time></trkpt><trkpt lat="43.1453917" lon="12.3518433"><ele>313.25</ele><time>2026-04-18T14:53:52.965Z</time></trkpt><trkpt lat="43.1454883" lon="12.35172"><ele>312.5</ele><time>2026-04-18T14:53:53.965Z</time></trkpt><trkpt lat="43.1455783" lon="12.3516017"><ele>311.75</ele><time>2026-04-18T14:53:54.965Z</time></trkpt><trkpt lat="43.1456717" lon="12.3514817"><ele>311.0</ele><time>2026-04-18T14:53:55.965Z</time></trkpt><trkpt lat="43.1457717" lon="12.351375"><ele>309.75</ele><time>2026-04-18T14:53:56.965Z</time></trkpt><trkpt lat="43.145875" lon="12.351285"><ele>308.5</ele><time>2026-04-18T14:53:57.965Z</time></trkpt><trkpt lat="43.1459817" lon="12.3511983"><ele>307.25</ele><time>2026-04-18T14:53:58.965Z</time></trkpt><trkpt lat="43.1460867" lon="12.35111"><ele>306.0</ele><time>2026-04-18T14:53:59.965Z</time></trkpt><trkpt lat="43.1462033" lon="12.3510283"><ele>306.0</ele><time>2026-04-18T14:54:00.965Z</time></trkpt><trkpt lat="43.14632" lon="12.35098"><ele>306.0</ele><time>2026-04-18T14:54:01.965Z</time></trkpt><trkpt lat="43.1464517" lon="12.3509433"><ele>306.0</ele><time>2026-04-18T14:54:02.965Z</time></trkpt><trkpt lat="43.1465917" lon="12.3509333"><ele>306.0</ele><time>2026-04-18T14:54:03.965Z</time></trkpt><trkpt lat="43.14673" lon="12.3509283"><ele>305.5</ele><time>2026-04-18T14:54:04.965Z</time></trkpt><trkpt lat="43.1468733" lon="12.35092"><ele>305.0</ele><time>2026-04-18T14:54:05.965Z</time></trkpt><trkpt lat="43.1470067" lon="12.3509017"><ele>304.5</ele><time>2026-04-18T14:54:06.965Z</time></trkpt><trkpt lat="43.1471483" lon="12.35088"><ele>304.0</ele><time>2026-04-18T14:54:07.965Z</time></trkpt><trkpt lat="43.147285" lon="12.3508517"><ele>304.0</ele><time>2026-04-18T14:54:08.965Z</time></trkpt><trkpt lat="43.1474233" lon="12.350815"><ele>304.0</ele><time>2026-04-18T14:54:09.965Z</time></trkpt><trkpt lat="43.1475617" lon="12.3507633"><ele>304.0</ele><time>2026-04-18T14:54:10.965Z</time></trkpt><trkpt lat="43.1476983" lon="12.3507117"><ele>304.0</ele><time>2026-04-18T14:54:11.965Z</time></trkpt><trkpt lat="43.1478383" lon="12.3506433"><ele>304.0</ele><time>2026-04-18T14:54:12.965Z</time></trkpt><trkpt lat="43.1479767" lon="12.3505683"><ele>304.0</ele><time>2026-04-18T14:54:13.965Z</time></trkpt><trkpt lat="43.14811" lon="12.350485"><ele>304.0</ele><time>2026-04-18T14:54:14.965Z</time></trkpt><trkpt lat="43.1482367" lon="12.3503883"><ele>304.0</ele><time>2026-04-18T14:54:15.964Z</time></trkpt><trkpt lat="43.14836" lon="12.35028"><ele>303.3333333333333</ele><time>2026-04-18T14:54:16.964Z</time></trkpt><trkpt lat="43.1484833" lon="12.3501583"><ele>302.6666666666667</ele><time>2026-04-18T14:54:17.964Z</time></trkpt><trkpt lat="43.1486083" lon="12.350025"><ele>302.0</ele><time>2026-04-18T14:54:18.964Z</time></trkpt><trkpt lat="43.1487383" lon="12.3498833"><ele>302.0</ele><time>2026-04-18T14:54:19.964Z</time></trkpt><trkpt lat="43.14886" lon="12.349735"><ele>302.0</ele><time>2026-04-18T14:54:20.964Z</time></trkpt><trkpt lat="43.14898" lon="12.349575"><ele>302.0</ele><time>2026-04-18T14:54:21.964Z</time></trkpt><trkpt lat="43.14909" lon="12.349415"><ele>301.6666666666667</ele><time>2026-04-18T14:54:22.964Z</time></trkpt><trkpt lat="43.14919" lon="12.3492583"><ele>301.3333333333333</ele><time>2026-04-18T14:54:23.964Z</time></trkpt><trkpt lat="43.149295" lon="12.3490833"><ele>301.0</ele><time>2026-04-18T14:54:24.964Z</time></trkpt><trkpt lat="43.1494" lon="12.3489067"><ele>300.3333333333333</ele><time>2026-04-18T14:54:25.964Z</time></trkpt><trkpt lat="43.1494933" lon="12.3487317"><ele>299.6666666666667</ele><time>2026-04-18T14:54:26.964Z</time></trkpt><trkpt lat="43.149585" lon="12.3485583"><ele>299.0</ele><time>2026-04-18T14:54:27.964Z</time></trkpt><trkpt lat="43.1496717" lon="12.348385"><ele>299.0</ele><time>2026-04-18T14:54:28.964Z</time></trkpt><trkpt lat="43.1497583" lon="12.3482283"><ele>299.0</ele><time>2026-04-18T14:54:29.964Z</time></trkpt><trkpt lat="43.1498617" lon="12.3480783"><ele>299.0</ele><time>2026-04-18T14:54:30.964Z</time></trkpt><trkpt lat="43.1499767" lon="12.3479367"><ele>299.0</ele><time>2026-04-18T14:54:31.964Z</time></trkpt><trkpt lat="43.15011" lon="12.3478183"><ele>298.6666666666667</ele><time>2026-04-18T14:54:32.964Z</time></trkpt><trkpt lat="43.15026" lon="12.3476983"><ele>298.3333333333333</ele><time>2026-04-18T14:54:33.964Z</time></trkpt><trkpt lat="43.1504133" lon="12.3475783"><ele>298.0</ele><time>2026-04-18T14:54:34.964Z</time></trkpt><trkpt lat="43.1505733" lon="12.34747"><ele>296.66666666666663</ele><time>2026-04-18T14:54:35.964Z</time></trkpt><trkpt lat="43.150735" lon="12.3473833"><ele>295.3333333333333</ele><time>2026-04-18T14:54:36.964Z</time></trkpt><trkpt lat="43.1509" lon="12.34731"><ele>294.0</ele><time>2026-04-18T14:54:37.964Z</time></trkpt><trkpt lat="43.151055" lon="12.3472083"><ele>293.6666666666667</ele><time>2026-04-18T14:54:38.964Z</time></trkpt><trkpt lat="43.1512083" lon="12.3471017"><ele>293.33333333333337</ele><time>2026-04-18T14:54:39.964Z</time></trkpt><trkpt lat="43.1513617" lon="12.3469783"><ele>293.0</ele><time>2026-04-18T14:54:40.964Z</time></trkpt><trkpt lat="43.1515067" lon="12.3468433"><ele>292.33333333333337</ele><time>2026-04-18T14:54:41.964Z</time></trkpt><trkpt lat="43.151645" lon="12.3467017"><ele>291.6666666666667</ele><time>2026-04-18T14:54:42.964Z</time></trkpt><trkpt lat="43.1517767" lon="12.3465533"><ele>291.0</ele><time>2026-04-18T14:54:43.964Z</time></trkpt><trkpt lat="43.1519033" lon="12.3463933"><ele>290.6666666666667</ele><time>2026-04-18T14:54:44.964Z</time></trkpt><trkpt lat="43.1520217" lon="12.3462283"><ele>290.33333333333337</ele><time>2026-04-18T14:54:45.964Z</time></trkpt><trkpt lat="43.15213" lon="12.3460583"><ele>290.0</ele><time>2026-04-18T14:54:46.964Z</time></trkpt><trkpt lat="43.152235" lon="12.3458633"><ele>290.0</ele><time>2026-04-18T14:54:47.964Z</time></trkpt><trkpt lat="43.1523333" lon="12.345645"><ele>290.0</ele><time>2026-04-18T14:54:48.964Z</time></trkpt><trkpt lat="43.1524" lon="12.3454367"><ele>290.0</ele><time>2026-04-18T14:54:49.964Z</time></trkpt><trkpt lat="43.1524617" lon="12.34522"><ele>290.6666666666667</ele><time>2026-04-18T14:54:50.964Z</time></trkpt><trkpt lat="43.15251" lon="12.3450033"><ele>291.3333333333333</ele><time>2026-04-18T14:54:51.964Z</time></trkpt><trkpt lat="43.1525533" lon="12.3447933"><ele>292.0</ele><time>2026-04-18T14:54:52.964Z</time></trkpt><trkpt lat="43.1525883" lon="12.344595"><ele>292.0</ele><time>2026-04-18T14:54:53.964Z</time></trkpt><trkpt lat="43.1526217" lon="12.3444017"><ele>292.0</ele><time>2026-04-18T14:54:54.964Z</time></trkpt><trkpt lat="43.1526617" lon="12.3442283"><ele>292.0</ele><time>2026-04-18T14:54:55.964Z</time></trkpt><trkpt lat="43.1527233" lon="12.34406"><ele>292.0</ele><time>2026-04-18T14:54:56.964Z</time></trkpt><trkpt lat="43.1528067" lon="12.34389"><ele>291.3333333333333</ele><time>2026-04-18T14:54:57.964Z</time></trkpt><trkpt lat="43.15291" lon="12.34373"><ele>290.6666666666667</ele><time>2026-04-18T14:54:58.964Z</time></trkpt><trkpt lat="43.153015" lon="12.3435683"><ele>290.0</ele><time>2026-04-18T14:54:59.964Z</time></trkpt><trkpt lat="43.153125" lon="12.34341"><ele>290.0</ele><time>2026-04-18T14:55:00.964Z</time></trkpt><trkpt lat="43.1532333" lon="12.3432367"><ele>290.0</ele><time>2026-04-18T14:55:01.964Z</time></trkpt><trkpt lat="43.1533433" lon="12.3430733"><ele>290.0</ele><time>2026-04-18T14:55:02.964Z</time></trkpt><trkpt lat="43.1534583" lon="12.3428983"><ele>289.6666666666667</ele><time>2026-04-18T14:55:03.964Z</time></trkpt><trkpt lat="43.1535733" lon="12.342725"><ele>289.3333333333333</ele><time>2026-04-18T14:55:04.964Z</time></trkpt><trkpt lat="43.1536833" lon="12.342555"><ele>289.0</ele><time>2026-04-18T14:55:05.964Z</time></trkpt><trkpt lat="43.1537933" lon="12.3423867"><ele>289.0</ele><time>2026-04-18T14:55:06.964Z</time></trkpt><trkpt lat="43.1539" lon="12.34221"><ele>289.0</ele><time>2026-04-18T14:55:07.964Z</time></trkpt><trkpt lat="43.1540167" lon="12.3420417"><ele>289.0</ele><time>2026-04-18T14:55:08.964Z</time></trkpt><trkpt lat="43.15413" lon="12.3418767"><ele>289.0</ele><time>2026-04-18T14:55:09.964Z</time></trkpt><trkpt lat="43.1542417" lon="12.341705"><ele>289.0</ele><time>2026-04-18T14:55:10.964Z</time></trkpt><trkpt lat="43.1543583" lon="12.341545"><ele>289.0</ele><time>2026-04-18T14:55:11.964Z</time></trkpt><trkpt lat="43.1544717" lon="12.3413867"><ele>288.3333333333333</ele><time>2026-04-18T14:55:12.964Z</time></trkpt><trkpt lat="43.1545933" lon="12.341225"><ele>287.6666666666667</ele><time>2026-04-18T14:55:13.964Z</time></trkpt><trkpt lat="43.1547167" lon="12.341065"><ele>287.0</ele><time>2026-04-18T14:55:14.964Z</time></trkpt><trkpt lat="43.1548467" lon="12.3409017"><ele>287.0</ele><time>2026-04-18T14:55:15.964Z</time></trkpt><trkpt lat="43.1549733" lon="12.340735"><ele>287.0</ele><time>2026-04-18T14:55:16.964Z</time></trkpt><trkpt lat="43.15509" lon="12.3405683"><ele>287.0</ele><time>2026-04-18T14:55:17.964Z</time></trkpt><trkpt lat="43.1552" lon="12.3403933"><ele>286.6666666666667</ele><time>2026-04-18T14:55:18.964Z</time></trkpt><trkpt lat="43.1553117" lon="12.34021"><ele>286.3333333333333</ele><time>2026-04-18T14:55:19.964Z</time></trkpt><trkpt lat="43.1554117" lon="12.3400267"><ele>286.0</ele><time>2026-04-18T14:55:20.964Z</time></trkpt><trkpt lat="43.1555167" lon="12.3398283"><ele>285.66666666666663</ele><time>2026-04-18T14:55:21.964Z</time></trkpt><trkpt lat="43.1556167" lon="12.3396317"><ele>285.3333333333333</ele><time>2026-04-18T14:55:22.964Z</time></trkpt><trkpt lat="43.1557133" lon="12.339435"><ele>285.0</ele><time>2026-04-18T14:55:23.964Z</time></trkpt><trkpt lat="43.1558033" lon="12.3392383"><ele>285.0</ele><time>2026-04-18T14:55:24.964Z</time></trkpt><trkpt lat="43.155895" lon="12.3390383"><ele>285.0</ele><time>2026-04-18T14:55:25.964Z</time></trkpt><trkpt lat="43.1559833" lon="12.3388467"><ele>285.0</ele><time>2026-04-18T14:55:26.964Z</time></trkpt><trkpt lat="43.156075" lon="12.33865"><ele>284.3333333333333</ele><time>2026-04-18T14:55:27.964Z</time></trkpt><trkpt lat="43.1561617" lon="12.3384533"><ele>283.66666666666663</ele><time>2026-04-18T14:55:28.964Z</time></trkpt><trkpt lat="43.1562533" lon="12.3382583"><ele>283.0</ele><time>2026-04-18T14:55:29.964Z</time></trkpt><trkpt lat="43.1563383" lon="12.3380733"><ele>283.0</ele><time>2026-04-18T14:55:30.964Z</time></trkpt><trkpt lat="43.156415" lon="12.3378933"><ele>283.0</ele><time>2026-04-18T14:55:31.964Z</time></trkpt><trkpt lat="43.1565" lon="12.33771"><ele>283.0</ele><time>2026-04-18T14:55:32.964Z</time></trkpt><trkpt lat="43.1565817" lon="12.33752"><ele>283.3333333333333</ele><time>2026-04-18T14:55:33.964Z</time></trkpt><trkpt lat="43.1566617" lon="12.3373217"><ele>283.6666666666667</ele><time>2026-04-18T14:55:34.964Z</time></trkpt><trkpt lat="43.1567483" lon="12.3371183"><ele>284.0</ele><time>2026-04-18T14:55:35.964Z</time></trkpt><trkpt lat="43.1568367" lon="12.336925"><ele>283.0</ele><time>2026-04-18T14:55:36.964Z</time></trkpt><trkpt lat="43.1569283" lon="12.3367283"><ele>282.0</ele><time>2026-04-18T14:55:37.964Z</time></trkpt><trkpt lat="43.1570183" lon="12.3365317"><ele>281.0</ele><time>2026-04-18T14:55:38.964Z</time></trkpt><trkpt lat="43.1571067" lon="12.336345"><ele>280.6666666666667</ele><time>2026-04-18T14:55:39.964Z</time></trkpt><trkpt lat="43.1571983" lon="12.3361583"><ele>280.3333333333333</ele><time>2026-04-18T14:55:40.964Z</time></trkpt><trkpt lat="43.1572867" lon="12.3359733"><ele>280.0</ele><time>2026-04-18T14:55:41.964Z</time></trkpt><trkpt lat="43.1573667" lon="12.3357833"><ele>280.3333333333333</ele><time>2026-04-18T14:55:42.964Z</time></trkpt><trkpt lat="43.15745" lon="12.3355833"><ele>280.6666666666667</ele><time>2026-04-18T14:55:43.964Z</time></trkpt><trkpt lat="43.1575167" lon="12.3353783"><ele>281.0</ele><time>2026-04-18T14:55:44.964Z</time></trkpt><trkpt lat="43.1575667" lon="12.3351717"><ele>281.0</ele><time>2026-04-18T14:55:45.964Z</time></trkpt><trkpt lat="43.1576217" lon="12.33496"><ele>281.0</ele><time>2026-04-18T14:55:46.964Z</time></trkpt><trkpt lat="43.1576667" lon="12.3347517"><ele>281.0</ele><time>2026-04-18T14:55:47.964Z</time></trkpt><trkpt lat="43.1577167" lon="12.33455"><ele>280.6666666666667</ele><time>2026-04-18T14:55:48.964Z</time></trkpt><trkpt lat="43.1577833" lon="12.33436"><ele>280.3333333333333</ele><time>2026-04-18T14:55:49.964Z</time></trkpt><trkpt lat="43.1578583" lon="12.3341633"><ele>280.0</ele><time>2026-04-18T14:55:50.964Z</time></trkpt><trkpt lat="43.1579517" lon="12.3339733"><ele>279.66666666666663</ele><time>2026-04-18T14:55:51.964Z</time></trkpt><trkpt lat="43.1580517" lon="12.3337883"><ele>279.3333333333333</ele><time>2026-04-18T14:55:52.964Z</time></trkpt><trkpt lat="43.1581533" lon="12.3336167"><ele>279.0</ele><time>2026-04-18T14:55:53.964Z</time></trkpt><trkpt lat="43.1582433" lon="12.3334383"><ele>278.5</ele><time>2026-04-18T14:55:54.964Z</time></trkpt><trkpt lat="43.15833" lon="12.3332717"><ele>278.0</ele><time>2026-04-18T14:55:55.964Z</time></trkpt><trkpt lat="43.1584167" lon="12.333105"><ele>277.5</ele><time>2026-04-18T14:55:56.964Z</time></trkpt><trkpt lat="43.15851" lon="12.332945"><ele>277.0</ele><time>2026-04-18T14:55:57.964Z</time></trkpt><trkpt lat="43.158605" lon="12.332785"><ele>277.0</ele><time>2026-04-18T14:55:58.964Z</time></trkpt><trkpt lat="43.1587067" lon="12.3326217"><ele>277.0</ele><time>2026-04-18T14:55:59.964Z</time></trkpt><trkpt lat="43.1588033" lon="12.3324617"><ele>277.0</ele><time>2026-04-18T14:56:00.964Z</time></trkpt><trkpt lat="43.1589067" lon="12.3323"><ele>276.75</ele><time>2026-04-18T14:56:01.964Z</time></trkpt><trkpt lat="43.159" lon="12.3321417"><ele>276.5</ele><time>2026-04-18T14:56:02.964Z</time></trkpt><trkpt lat="43.1590883" lon="12.3319967"><ele>276.25</ele><time>2026-04-18T14:56:03.964Z</time></trkpt><trkpt lat="43.15918" lon="12.3318567"><ele>276.0</ele><time>2026-04-18T14:56:04.964Z</time></trkpt><trkpt lat="43.159275" lon="12.3317217"><ele>276.0</ele><time>2026-04-18T14:56:05.964Z</time></trkpt><trkpt lat="43.1593617" lon="12.3315817"><ele>276.0</ele><time>2026-04-18T14:56:06.964Z</time></trkpt><trkpt lat="43.1594467" lon="12.3314533"><ele>276.0</ele><time>2026-04-18T14:56:07.964Z</time></trkpt><trkpt lat="43.1595367" lon="12.3313317"><ele>276.0</ele><time>2026-04-18T14:56:08.963Z</time></trkpt><trkpt lat="43.159625" lon="12.3312083"><ele>275.8</ele><time>2026-04-18T14:56:09.964Z</time></trkpt><trkpt lat="43.1597033" lon="12.3310967"><ele>275.6</ele><time>2026-04-18T14:56:10.964Z</time></trkpt><trkpt lat="43.1597733" lon="12.3309917"><ele>275.4</ele><time>2026-04-18T14:56:11.964Z</time></trkpt><trkpt lat="43.159845" lon="12.3308833"><ele>275.2</ele><time>2026-04-18T14:56:12.964Z</time></trkpt><trkpt lat="43.1599133" lon="12.3307767"><ele>275.0</ele><time>2026-04-18T14:56:13.964Z</time></trkpt><trkpt lat="43.159985" lon="12.3306883"><ele>275.33333333333337</ele><time>2026-04-18T14:56:14.964Z</time></trkpt><trkpt lat="43.1600467" lon="12.3305983"><ele>275.6666666666667</ele><time>2026-04-18T14:56:15.964Z</time></trkpt><trkpt lat="43.1600983" lon="12.33052"><ele>276.0</ele><time>2026-04-18T14:56:16.964Z</time></trkpt><trkpt lat="43.1601533" lon="12.3304233"><ele>276.3333333333333</ele><time>2026-04-18T14:56:18.964Z</time></trkpt><trkpt lat="43.16016" lon="12.3303233"><ele>276.66666666666663</ele><time>2026-04-18T14:56:20.964Z</time></trkpt><trkpt lat="43.16009" lon="12.3302"><ele>277.0</ele><time>2026-04-18T14:56:22.964Z</time></trkpt><trkpt lat="43.1600183" lon="12.330125"><ele>276.0</ele><time>2026-04-18T14:56:23.964Z</time></trkpt><trkpt lat="43.1599483" lon="12.3300433"><ele>275.0</ele><time>2026-04-18T14:56:24.964Z</time></trkpt><trkpt lat="43.15987" lon="12.3299567"><ele>274.0</ele><time>2026-04-18T14:56:25.964Z</time></trkpt><trkpt lat="43.1597783" lon="12.3298367"><ele>273.0</ele><time>2026-04-18T14:56:26.964Z</time></trkpt><trkpt lat="43.1596867" lon="12.3297083"><ele>273.0</ele><time>2026-04-18T14:56:27.964Z</time></trkpt><trkpt lat="43.1595983" lon="12.3295933"><ele>273.0</ele><time>2026-04-18T14:56:28.964Z</time></trkpt><trkpt lat="43.159525" lon="12.329475"><ele>273.0</ele><time>2026-04-18T14:56:29.964Z</time></trkpt><trkpt lat="43.1594533" lon="12.3293417"><ele>273.0</ele><time>2026-04-18T14:56:30.964Z</time></trkpt><trkpt lat="43.159385" lon="12.3291933"><ele>273.0</ele><time>2026-04-18T14:56:31.964Z</time></trkpt><trkpt lat="43.1593267" lon="12.32901"><ele>273.0</ele><time>2026-04-18T14:56:32.964Z</time></trkpt><trkpt lat="43.1592633" lon="12.32881"><ele>273.0</ele><time>2026-04-18T14:56:33.964Z</time></trkpt><trkpt lat="43.159195" lon="12.3286067"><ele>272.5</ele><time>2026-04-18T14:56:34.964Z</time></trkpt><trkpt lat="43.1591333" lon="12.3284217"><ele>272.0</ele><time>2026-04-18T14:56:35.964Z</time></trkpt><trkpt lat="43.1590817" lon="12.328245"><ele>271.5</ele><time>2026-04-18T14:56:36.964Z</time></trkpt><trkpt lat="43.1590433" lon="12.3280733"><ele>271.0</ele><time>2026-04-18T14:56:37.964Z</time></trkpt><trkpt lat="43.1590233" lon="12.3279083"><ele>273.5</ele><time>2026-04-18T14:56:38.964Z</time></trkpt><trkpt lat="43.15901" lon="12.32774"><ele>276.0</ele><time>2026-04-18T14:56:39.964Z</time></trkpt><trkpt lat="43.1590033" lon="12.32757"><ele>278.5</ele><time>2026-04-18T14:56:40.964Z</time></trkpt><trkpt lat="43.1590167" lon="12.3274"><ele>281.0</ele><time>2026-04-18T14:56:41.964Z</time></trkpt><trkpt lat="43.15903" lon="12.327235"><ele>278.5</ele><time>2026-04-18T14:56:42.964Z</time></trkpt><trkpt lat="43.1590667" lon="12.327045"><ele>276.0</ele><time>2026-04-18T14:56:43.964Z</time></trkpt><trkpt lat="43.15911" lon="12.3268667"><ele>273.5</ele><time>2026-04-18T14:56:44.964Z</time></trkpt><trkpt lat="43.1591533" lon="12.32669"><ele>271.0</ele><time>2026-04-18T14:56:45.964Z</time></trkpt><trkpt lat="43.15919" lon="12.326525"><ele>271.75</ele><time>2026-04-18T14:56:46.964Z</time></trkpt><trkpt lat="43.15924" lon="12.3263533"><ele>272.5</ele><time>2026-04-18T14:56:47.964Z</time></trkpt><trkpt lat="43.1592917" lon="12.3261833"><ele>273.25</ele><time>2026-04-18T14:56:48.964Z</time></trkpt><trkpt lat="43.1593317" lon="12.3260233"><ele>274.0</ele><time>2026-04-18T14:56:49.964Z</time></trkpt><trkpt lat="43.1593783" lon="12.325855"><ele>274.0</ele><time>2026-04-18T14:56:50.964Z</time></trkpt><trkpt lat="43.15941" lon="12.3256767"><ele>274.0</ele><time>2026-04-18T14:56:51.964Z</time></trkpt><trkpt lat="43.1594383" lon="12.3254933"><ele>274.0</ele><time>2026-04-18T14:56:52.964Z</time></trkpt><trkpt lat="43.1594517" lon="12.325315"><ele>274.0</ele><time>2026-04-18T14:56:53.964Z</time></trkpt><trkpt lat="43.1594583" lon="12.3251433"><ele>274.0</ele><time>2026-04-18T14:56:54.964Z</time></trkpt><trkpt lat="43.15947" lon="12.324965"><ele>274.0</ele><time>2026-04-18T14:56:55.964Z</time></trkpt><trkpt lat="43.1594817" lon="12.3247917"><ele>274.0</ele><time>2026-04-18T14:56:56.964Z</time></trkpt><trkpt lat="43.1594867" lon="12.324635"><ele>274.0</ele><time>2026-04-18T14:56:57.964Z</time></trkpt><trkpt lat="43.1594917" lon="12.3244817"><ele>274.0</ele><time>2026-04-18T14:56:58.964Z</time></trkpt><trkpt lat="43.1594967" lon="12.32433"><ele>274.0</ele><time>2026-04-18T14:56:59.964Z</time></trkpt><trkpt lat="43.1595" lon="12.3241833"><ele>274.0</ele><time>2026-04-18T14:57:00.964Z</time></trkpt><trkpt lat="43.1595067" lon="12.3240433"><ele>274.0</ele><time>2026-04-18T14:57:01.964Z</time></trkpt><trkpt lat="43.1595117" lon="12.32392"><ele>274.0</ele><time>2026-04-18T14:57:02.964Z</time></trkpt><trkpt lat="43.1595217" lon="12.3237917"><ele>275.59999999999997</ele><time>2026-04-18T14:57:03.964Z</time></trkpt><trkpt lat="43.1595367" lon="12.3236517"><ele>277.2</ele><time>2026-04-18T14:57:04.964Z</time></trkpt><trkpt lat="43.1595417" lon="12.32351"><ele>278.79999999999995</ele><time>2026-04-18T14:57:05.964Z</time></trkpt><trkpt lat="43.159545" lon="12.323355"><ele>280.4</ele><time>2026-04-18T14:57:06.964Z</time></trkpt><trkpt lat="43.1595383" lon="12.3231933"><ele>282.0</ele><time>2026-04-18T14:57:07.964Z</time></trkpt><trkpt lat="43.15954" lon="12.3230217"><ele>284.0</ele><time>2026-04-18T14:57:08.964Z</time></trkpt><trkpt lat="43.159535" lon="12.3228433"><ele>286.0</ele><time>2026-04-18T14:57:09.964Z</time></trkpt><trkpt lat="43.159515" lon="12.3226733"><ele>288.0</ele><time>2026-04-18T14:57:10.964Z</time></trkpt><trkpt lat="43.1595017" lon="12.3224833"><ele>290.0</ele><time>2026-04-18T14:57:11.964Z</time></trkpt><trkpt lat="43.1594933" lon="12.3222933"><ele>288.0</ele><time>2026-04-18T14:57:12.964Z</time></trkpt><trkpt lat="43.1594833" lon="12.32212"><ele>286.0</ele><time>2026-04-18T14:57:13.964Z</time></trkpt><trkpt lat="43.1594783" lon="12.321945"><ele>284.0</ele><time>2026-04-18T14:57:14.964Z</time></trkpt><trkpt lat="43.1594583" lon="12.32176"><ele>282.0</ele><time>2026-04-18T14:57:15.964Z</time></trkpt><trkpt lat="43.1594367" lon="12.3215767"><ele>282.0</ele><time>2026-04-18T14:57:16.964Z</time></trkpt><trkpt lat="43.1594033" lon="12.3214"><ele>282.0</ele><time>2026-04-18T14:57:17.964Z</time></trkpt><trkpt lat="43.1593733" lon="12.32122"><ele>282.0</ele><time>2026-04-18T14:57:18.964Z</time></trkpt><trkpt lat="43.1593533" lon="12.3210483"><ele>282.0</ele><time>2026-04-18T14:57:19.964Z</time></trkpt><trkpt lat="43.1593267" lon="12.3208817"><ele>279.5</ele><time>2026-04-18T14:57:20.964Z</time></trkpt><trkpt lat="43.1593067" lon="12.320725"><ele>277.0</ele><time>2026-04-18T14:57:21.964Z</time></trkpt><trkpt lat="43.159285" lon="12.3205633"><ele>274.5</ele><time>2026-04-18T14:57:22.964Z</time></trkpt><trkpt lat="43.1592733" lon="12.3204017"><ele>272.0</ele><time>2026-04-18T14:57:23.964Z</time></trkpt><trkpt lat="43.1592717" lon="12.3202283"><ele>272.25</ele><time>2026-04-18T14:57:24.964Z</time></trkpt><trkpt lat="43.1592833" lon="12.32005"><ele>272.5</ele><time>2026-04-18T14:57:25.964Z</time></trkpt><trkpt lat="43.1593133" lon="12.3198783"><ele>272.75</ele><time>2026-04-18T14:57:26.964Z</time></trkpt><trkpt lat="43.1593567" lon="12.319705"><ele>273.0</ele><time>2026-04-18T14:57:27.964Z</time></trkpt><trkpt lat="43.1594183" lon="12.3195367"><ele>273.0</ele><time>2026-04-18T14:57:28.964Z</time></trkpt><trkpt lat="43.15948" lon="12.31938"><ele>273.0</ele><time>2026-04-18T14:57:29.964Z</time></trkpt><trkpt lat="43.15956" lon="12.3192367"><ele>273.0</ele><time>2026-04-18T14:57:30.964Z</time></trkpt><trkpt lat="43.15965" lon="12.319105"><ele>273.0</ele><time>2026-04-18T14:57:31.964Z</time></trkpt><trkpt lat="43.1597483" lon="12.3189917"><ele>272.5</ele><time>2026-04-18T14:57:32.964Z</time></trkpt><trkpt lat="43.15985" lon="12.3188817"><ele>272.0</ele><time>2026-04-18T14:57:33.964Z</time></trkpt><trkpt lat="43.159955" lon="12.3187817"><ele>271.5</ele><time>2026-04-18T14:57:34.964Z</time></trkpt><trkpt lat="43.160065" lon="12.3186733"><ele>271.0</ele><time>2026-04-18T14:57:35.964Z</time></trkpt><trkpt lat="43.160175" lon="12.3185533"><ele>269.5</ele><time>2026-04-18T14:57:36.964Z</time></trkpt><trkpt lat="43.1602717" lon="12.318435"><ele>268.0</ele><time>2026-04-18T14:57:37.964Z</time></trkpt><trkpt lat="43.1603483" lon="12.318305"><ele>266.5</ele><time>2026-04-18T14:57:38.964Z</time></trkpt><trkpt lat="43.160405" lon="12.318175"><ele>265.0</ele><time>2026-04-18T14:57:39.964Z</time></trkpt><trkpt lat="43.1604583" lon="12.3180433"><ele>264.0</ele><time>2026-04-18T14:57:40.964Z</time></trkpt><trkpt lat="43.1605133" lon="12.3179017"><ele>263.0</ele><time>2026-04-18T14:57:41.964Z</time></trkpt><trkpt lat="43.16056" lon="12.3177583"><ele>262.0</ele><time>2026-04-18T14:57:42.964Z</time></trkpt><trkpt lat="43.16062" lon="12.3176067"><ele>261.0</ele><time>2026-04-18T14:57:43.964Z</time></trkpt><trkpt lat="43.16069" lon="12.3174533"><ele>261.25</ele><time>2026-04-18T14:57:44.964Z</time></trkpt><trkpt lat="43.1607733" lon="12.3173033"><ele>261.5</ele><time>2026-04-18T14:57:45.964Z</time></trkpt><trkpt lat="43.1608583" lon="12.3171517"><ele>261.75</ele><time>2026-04-18T14:57:46.964Z</time></trkpt><trkpt lat="43.1609483" lon="12.3169917"><ele>262.0</ele><time>2026-04-18T14:57:47.964Z</time></trkpt><trkpt lat="43.1610317" lon="12.316845"><ele>262.0</ele><time>2026-04-18T14:57:48.964Z</time></trkpt><trkpt lat="43.16111" lon="12.316705"><ele>262.0</ele><time>2026-04-18T14:57:49.964Z</time></trkpt><trkpt lat="43.161175" lon="12.31654"><ele>262.0</ele><time>2026-04-18T14:57:50.964Z</time></trkpt><trkpt lat="43.1612283" lon="12.3163567"><ele>262.0</ele><time>2026-04-18T14:57:51.964Z</time></trkpt><trkpt lat="43.1612667" lon="12.316155"><ele>262.0</ele><time>2026-04-18T14:57:52.964Z</time></trkpt><trkpt lat="43.1612883" lon="12.3159367"><ele>262.0</ele><time>2026-04-18T14:57:53.964Z</time></trkpt><trkpt lat="43.1613067" lon="12.3157233"><ele>262.0</ele><time>2026-04-18T14:57:54.964Z</time></trkpt><trkpt lat="43.161325" lon="12.3155117"><ele>262.3333333333333</ele><time>2026-04-18T14:57:55.964Z</time></trkpt><trkpt lat="43.161355" lon="12.3152917"><ele>262.6666666666667</ele><time>2026-04-18T14:57:56.964Z</time></trkpt><trkpt lat="43.1613767" lon="12.31508"><ele>263.0</ele><time>2026-04-18T14:57:57.964Z</time></trkpt><trkpt lat="43.161405" lon="12.3148667"><ele>261.6666666666667</ele><time>2026-04-18T14:57:58.964Z</time></trkpt><trkpt lat="43.1614417" lon="12.3146533"><ele>260.3333333333333</ele><time>2026-04-18T14:57:59.964Z</time></trkpt><trkpt lat="43.1614817" lon="12.3144417"><ele>259.0</ele><time>2026-04-18T14:58:00.964Z</time></trkpt><trkpt lat="43.1615183" lon="12.3142283"><ele>258.5</ele><time>2026-04-18T14:58:01.964Z</time></trkpt><trkpt lat="43.1615433" lon="12.3140283"><ele>258.0</ele><time>2026-04-18T14:58:02.964Z</time></trkpt><trkpt lat="43.1615483" lon="12.3138267"><ele>257.5</ele><time>2026-04-18T14:58:03.964Z</time></trkpt><trkpt lat="43.1615383" lon="12.3136283"><ele>257.0</ele><time>2026-04-18T14:58:04.964Z</time></trkpt><trkpt lat="43.1615167" lon="12.3134267"><ele>257.0</ele><time>2026-04-18T14:58:05.964Z</time></trkpt><trkpt lat="43.16149" lon="12.3132283"><ele>257.0</ele><time>2026-04-18T14:58:06.964Z</time></trkpt><trkpt lat="43.1614567" lon="12.3130233"><ele>257.0</ele><time>2026-04-18T14:58:07.964Z</time></trkpt><trkpt lat="43.1614183" lon="12.3128183"><ele>257.0</ele><time>2026-04-18T14:58:08.964Z</time></trkpt><trkpt lat="43.1613683" lon="12.312625"><ele>257.0</ele><time>2026-04-18T14:58:09.964Z</time></trkpt><trkpt lat="43.1613217" lon="12.3124233"><ele>257.0</ele><time>2026-04-18T14:58:10.964Z</time></trkpt><trkpt lat="43.1612817" lon="12.3122267"><ele>257.0</ele><time>2026-04-18T14:58:11.964Z</time></trkpt><trkpt lat="43.1612467" lon="12.312025"><ele>257.0</ele><time>2026-04-18T14:58:12.964Z</time></trkpt><trkpt lat="43.1612117" lon="12.3118333"><ele>257.0</ele><time>2026-04-18T14:58:13.964Z</time></trkpt><trkpt lat="43.1611683" lon="12.311655"><ele>257.0</ele><time>2026-04-18T14:58:14.964Z</time></trkpt><trkpt lat="43.16113" lon="12.31149"><ele>257.4</ele><time>2026-04-18T14:58:15.964Z</time></trkpt><trkpt lat="43.1610933" lon="12.3113233"><ele>257.79999999999995</ele><time>2026-04-18T14:58:16.964Z</time></trkpt><trkpt lat="43.1610633" lon="12.3111733"><ele>258.2</ele><time>2026-04-18T14:58:17.964Z</time></trkpt><trkpt lat="43.1610417" lon="12.3110333"><ele>258.59999999999997</ele><time>2026-04-18T14:58:18.964Z</time></trkpt><trkpt lat="43.16103" lon="12.310895"><ele>259.0</ele><time>2026-04-18T14:58:19.964Z</time></trkpt><trkpt lat="43.1610383" lon="12.3107633"><ele>259.0</ele><time>2026-04-18T14:58:20.964Z</time></trkpt><trkpt lat="43.161045" lon="12.3106417"><ele>259.0</ele><time>2026-04-18T14:58:21.964Z</time></trkpt><trkpt lat="43.1610467" lon="12.3105283"><ele>259.0</ele><time>2026-04-18T14:58:22.964Z</time></trkpt><trkpt lat="43.1610483" lon="12.31043"><ele>259.0</ele><time>2026-04-18T14:58:23.964Z</time></trkpt><trkpt lat="43.161055" lon="12.31034"><ele>259.0</ele><time>2026-04-18T14:58:24.964Z</time></trkpt><trkpt lat="43.1610833" lon="12.3102133"><ele>259.0</ele><time>2026-04-18T14:58:26.964Z</time></trkpt><trkpt lat="43.1611667" lon="12.3101217"><ele>259.0</ele><time>2026-04-18T14:58:28.964Z</time></trkpt><trkpt lat="43.1612283" lon="12.3100983"><ele>259.0</ele><time>2026-04-18T14:58:29.964Z</time></trkpt><trkpt lat="43.1613633" lon="12.31008"><ele>259.0</ele><time>2026-04-18T14:58:31.964Z</time></trkpt><trkpt lat="43.1614483" lon="12.31008"><ele>259.0</ele><time>2026-04-18T14:58:32.964Z</time></trkpt><trkpt lat="43.161545" lon="12.3100617"><ele>259.0</ele><time>2026-04-18T14:58:33.964Z</time></trkpt><trkpt lat="43.1616383" lon="12.31002"><ele>259.0</ele><time>2026-04-18T14:58:34.964Z</time></trkpt><trkpt lat="43.16172" lon="12.30995"><ele>259.0</ele><time>2026-04-18T14:58:35.964Z</time></trkpt><trkpt lat="43.1618033" lon="12.30987"><ele>259.0</ele><time>2026-04-18T14:58:36.964Z</time></trkpt><trkpt lat="43.1618783" lon="12.3097633"><ele>259.0</ele><time>2026-04-18T14:58:37.964Z</time></trkpt><trkpt lat="43.1619467" lon="12.30963"><ele>259.0</ele><time>2026-04-18T14:58:38.964Z</time></trkpt><trkpt lat="43.1619983" lon="12.309485"><ele>259.0</ele><time>2026-04-18T14:58:39.964Z</time></trkpt><trkpt lat="43.16203" lon="12.3093333"><ele>259.0</ele><time>2026-04-18T14:58:40.964Z</time></trkpt><trkpt lat="43.162055" lon="12.3091617"><ele>259.0</ele><time>2026-04-18T14:58:41.964Z</time></trkpt><trkpt lat="43.1620833" lon="12.3089883"><ele>259.0</ele><time>2026-04-18T14:58:42.964Z</time></trkpt><trkpt lat="43.1621133" lon="12.308815"><ele>259.25</ele><time>2026-04-18T14:58:43.964Z</time></trkpt><trkpt lat="43.1621433" lon="12.3086517"><ele>259.5</ele><time>2026-04-18T14:58:44.964Z</time></trkpt><trkpt lat="43.1621667" lon="12.3084883"><ele>259.75</ele><time>2026-04-18T14:58:45.964Z</time></trkpt><trkpt lat="43.1621933" lon="12.30833"><ele>260.0</ele><time>2026-04-18T14:58:46.964Z</time></trkpt><trkpt lat="43.1622233" lon="12.3081633"><ele>259.0</ele><time>2026-04-18T14:58:47.964Z</time></trkpt><trkpt lat="43.1622433" lon="12.3080033"><ele>258.0</ele><time>2026-04-18T14:58:48.964Z</time></trkpt><trkpt lat="43.16225" lon="12.3078333"><ele>257.0</ele><time>2026-04-18T14:58:49.964Z</time></trkpt><trkpt lat="43.16224" lon="12.3076583"><ele>256.0</ele><time>2026-04-18T14:58:50.964Z</time></trkpt><trkpt lat="43.162225" lon="12.3074683"><ele>256.0</ele><time>2026-04-18T14:58:51.964Z</time></trkpt><trkpt lat="43.1621933" lon="12.3072833"><ele>256.0</ele><time>2026-04-18T14:58:52.964Z</time></trkpt><trkpt lat="43.1621617" lon="12.3071033"><ele>256.0</ele><time>2026-04-18T14:58:53.964Z</time></trkpt><trkpt lat="43.1621267" lon="12.3069167"><ele>256.0</ele><time>2026-04-18T14:58:54.964Z</time></trkpt><trkpt lat="43.1620933" lon="12.3067183"><ele>256.0</ele><time>2026-04-18T14:58:55.964Z</time></trkpt><trkpt lat="43.1620667" lon="12.3065233"><ele>256.0</ele><time>2026-04-18T14:58:56.964Z</time></trkpt><trkpt lat="43.1620333" lon="12.3063233"><ele>256.0</ele><time>2026-04-18T14:58:57.964Z</time></trkpt><trkpt lat="43.1620033" lon="12.3061167"><ele>256.0</ele><time>2026-04-18T14:58:58.964Z</time></trkpt><trkpt lat="43.1619733" lon="12.3059067"><ele>256.0</ele><time>2026-04-18T14:58:59.964Z</time></trkpt><trkpt lat="43.1619417" lon="12.3057067"><ele>256.0</ele><time>2026-04-18T14:59:00.964Z</time></trkpt><trkpt lat="43.1619117" lon="12.3055033"><ele>256.0</ele><time>2026-04-18T14:59:01.964Z</time></trkpt><trkpt lat="43.1618833" lon="12.3052883"><ele>257.66666666666663</ele><time>2026-04-18T14:59:02.964Z</time></trkpt><trkpt lat="43.1618533" lon="12.3050783"><ele>259.3333333333333</ele><time>2026-04-18T14:59:03.964Z</time></trkpt><trkpt lat="43.16183" lon="12.3048733"><ele>261.0</ele><time>2026-04-18T14:59:04.964Z</time></trkpt><trkpt lat="43.1618117" lon="12.3046617"><ele>263.3333333333333</ele><time>2026-04-18T14:59:05.964Z</time></trkpt><trkpt lat="43.1617883" lon="12.3044433"><ele>265.66666666666663</ele><time>2026-04-18T14:59:06.964Z</time></trkpt><trkpt lat="43.1617667" lon="12.3042233"><ele>268.0</ele><time>2026-04-18T14:59:07.964Z</time></trkpt><trkpt lat="43.1617383" lon="12.3040017"><ele>269.3333333333333</ele><time>2026-04-18T14:59:08.964Z</time></trkpt><trkpt lat="43.1617083" lon="12.30378"><ele>270.6666666666667</ele><time>2026-04-18T14:59:09.964Z</time></trkpt><trkpt lat="43.1616833" lon="12.3035583"><ele>272.0</ele><time>2026-04-18T14:59:10.964Z</time></trkpt><trkpt lat="43.161655" lon="12.3033333"><ele>272.0</ele><time>2026-04-18T14:59:11.964Z</time></trkpt><trkpt lat="43.161635" lon="12.3031083"><ele>272.0</ele><time>2026-04-18T14:59:12.964Z</time></trkpt><trkpt lat="43.161615" lon="12.3028817"><ele>272.0</ele><time>2026-04-18T14:59:13.964Z</time></trkpt><trkpt lat="43.1616017" lon="12.3026683"><ele>272.33333333333337</ele><time>2026-04-18T14:59:14.964Z</time></trkpt><trkpt lat="43.161595" lon="12.3024433"><ele>272.6666666666667</ele><time>2026-04-18T14:59:15.964Z</time></trkpt><trkpt lat="43.16159" lon="12.3022167"><ele>273.0</ele><time>2026-04-18T14:59:16.964Z</time></trkpt><trkpt lat="43.1616033" lon="12.301975"><ele>271.6666666666667</ele><time>2026-04-18T14:59:17.963Z</time></trkpt><trkpt lat="43.1616117" lon="12.3017417"><ele>270.33333333333337</ele><time>2026-04-18T14:59:18.963Z</time></trkpt><trkpt lat="43.16163" lon="12.3015017"><ele>269.0</ele><time>2026-04-18T14:59:19.963Z</time></trkpt><trkpt lat="43.1616483" lon="12.3012833"><ele>267.6666666666667</ele><time>2026-04-18T14:59:20.963Z</time></trkpt><trkpt lat="43.1616733" lon="12.3010767"><ele>266.3333333333333</ele><time>2026-04-18T14:59:21.963Z</time></trkpt><trkpt lat="43.1616967" lon="12.3008733"><ele>265.0</ele><time>2026-04-18T14:59:22.963Z</time></trkpt><trkpt lat="43.1617117" lon="12.300665"><ele>263.66666666666663</ele><time>2026-04-18T14:59:23.963Z</time></trkpt><trkpt lat="43.1617267" lon="12.3004567"><ele>262.3333333333333</ele><time>2026-04-18T14:59:24.963Z</time></trkpt><trkpt lat="43.1617433" lon="12.30024"><ele>261.0</ele><time>2026-04-18T14:59:25.963Z</time></trkpt><trkpt lat="43.1617633" lon="12.30002"><ele>261.0</ele><time>2026-04-18T14:59:26.963Z</time></trkpt><trkpt lat="43.1617883" lon="12.299805"><ele>261.0</ele><time>2026-04-18T14:59:27.963Z</time></trkpt><trkpt lat="43.1618083" lon="12.2995883"><ele>261.0</ele><time>2026-04-18T14:59:28.963Z</time></trkpt><trkpt lat="43.161825" lon="12.29936"><ele>260.0</ele><time>2026-04-18T14:59:29.963Z</time></trkpt><trkpt lat="43.1618533" lon="12.2991183"><ele>259.0</ele><time>2026-04-18T14:59:30.963Z</time></trkpt><trkpt lat="43.1618783" lon="12.29888"><ele>258.0</ele><time>2026-04-18T14:59:31.963Z</time></trkpt><trkpt lat="43.161895" lon="12.2986417"><ele>257.6666666666667</ele><time>2026-04-18T14:59:32.963Z</time></trkpt><trkpt lat="43.16189" lon="12.298405"><ele>257.33333333333337</ele><time>2026-04-18T14:59:33.963Z</time></trkpt><trkpt lat="43.1618833" lon="12.29816"><ele>257.0</ele><time>2026-04-18T14:59:34.963Z</time></trkpt><trkpt lat="43.1618767" lon="12.2979167"><ele>255.66666666666669</ele><time>2026-04-18T14:59:35.963Z</time></trkpt><trkpt lat="43.161875" lon="12.2976733"><ele>254.33333333333331</ele><time>2026-04-18T14:59:36.963Z</time></trkpt><trkpt lat="43.16188" lon="12.2974367"><ele>253.0</ele><time>2026-04-18T14:59:37.963Z</time></trkpt><trkpt lat="43.16188" lon="12.2972017"><ele>252.66666666666666</ele><time>2026-04-18T14:59:38.963Z</time></trkpt><trkpt lat="43.1618833" lon="12.2969667"><ele>252.33333333333331</ele><time>2026-04-18T14:59:39.963Z</time></trkpt><trkpt lat="43.1618867" lon="12.2967233"><ele>252.0</ele><time>2026-04-18T14:59:40.963Z</time></trkpt><trkpt lat="43.161895" lon="12.2964917"><ele>252.0</ele><time>2026-04-18T14:59:41.963Z</time></trkpt><trkpt lat="43.1619" lon="12.2962683"><ele>252.0</ele><time>2026-04-18T14:59:42.963Z</time></trkpt><trkpt lat="43.161905" lon="12.2960617"><ele>252.0</ele><time>2026-04-18T14:59:43.963Z</time></trkpt><trkpt lat="43.1618967" lon="12.2958583"><ele>252.0</ele><time>2026-04-18T14:59:44.963Z</time></trkpt><trkpt lat="43.1618583" lon="12.2956617"><ele>252.0</ele><time>2026-04-18T14:59:45.963Z</time></trkpt><trkpt lat="43.1617933" lon="12.2954733"><ele>252.0</ele><time>2026-04-18T14:59:46.963Z</time></trkpt><trkpt lat="43.1616967" lon="12.29529"><ele>252.0</ele><time>2026-04-18T14:59:47.963Z</time></trkpt><trkpt lat="43.1615833" lon="12.2951067"><ele>252.0</ele><time>2026-04-18T14:59:48.963Z</time></trkpt><trkpt lat="43.1614633" lon="12.2949283"><ele>252.0</ele><time>2026-04-18T14:59:49.963Z</time></trkpt><trkpt lat="43.1613283" lon="12.2947517"><ele>251.0</ele><time>2026-04-18T14:59:50.963Z</time></trkpt><trkpt lat="43.1612033" lon="12.29457"><ele>250.0</ele><time>2026-04-18T14:59:51.963Z</time></trkpt><trkpt lat="43.16108" lon="12.294405"><ele>249.0</ele><time>2026-04-18T14:59:52.963Z</time></trkpt><trkpt lat="43.160965" lon="12.294245"><ele>249.0</ele><time>2026-04-18T14:59:53.963Z</time></trkpt><trkpt lat="43.1608417" lon="12.29409"><ele>249.0</ele><time>2026-04-18T14:59:54.963Z</time></trkpt><trkpt lat="43.1607167" lon="12.2939533"><ele>249.0</ele><time>2026-04-18T14:59:55.963Z</time></trkpt><trkpt lat="43.1605733" lon="12.2938183"><ele>249.66666666666669</ele><time>2026-04-18T14:59:56.963Z</time></trkpt><trkpt lat="43.160425" lon="12.2936933"><ele>250.33333333333334</ele><time>2026-04-18T14:59:57.963Z</time></trkpt><trkpt lat="43.160275" lon="12.293575"><ele>251.0</ele><time>2026-04-18T14:59:58.963Z</time></trkpt><trkpt lat="43.1601333" lon="12.2934567"><ele>251.0</ele><time>2026-04-18T14:59:59.963Z</time></trkpt><trkpt lat="43.1600083" lon="12.2933433"><ele>251.0</ele><time>2026-04-18T15:00:00.963Z</time></trkpt><trkpt lat="43.1598917" lon="12.29322"><ele>251.0</ele><time>2026-04-18T15:00:01.963Z</time></trkpt><trkpt lat="43.15979" lon="12.29309"><ele>251.0</ele><time>2026-04-18T15:00:02.963Z</time></trkpt><trkpt lat="43.159695" lon="12.2929633"><ele>251.75</ele><time>2026-04-18T15:00:03.963Z</time></trkpt><trkpt lat="43.1596017" lon="12.2928367"><ele>252.5</ele><time>2026-04-18T15:00:04.963Z</time></trkpt><trkpt lat="43.15953" lon="12.292695"><ele>253.25</ele><time>2026-04-18T15:00:05.963Z</time></trkpt><trkpt lat="43.15946" lon="12.2925433"><ele>254.0</ele><time>2026-04-18T15:00:06.963Z</time></trkpt><trkpt lat="43.1594033" lon="12.2923783"><ele>255.0</ele><time>2026-04-18T15:00:07.963Z</time></trkpt><trkpt lat="43.1593633" lon="12.2922217"><ele>255.99999999999997</ele><time>2026-04-18T15:00:08.963Z</time></trkpt><trkpt lat="43.1593483" lon="12.29207"><ele>257.0</ele><time>2026-04-18T15:00:09.963Z</time></trkpt><trkpt lat="43.159345" lon="12.2919267"><ele>258.0</ele><time>2026-04-18T15:00:10.963Z</time></trkpt><trkpt lat="43.1593567" lon="12.2917933"><ele>259.0</ele><time>2026-04-18T15:00:11.963Z</time></trkpt><trkpt lat="43.1593717" lon="12.2916467"><ele>259.0</ele><time>2026-04-18T15:00:12.963Z</time></trkpt><trkpt lat="43.159395" lon="12.2915"><ele>259.0</ele><time>2026-04-18T15:00:13.963Z</time></trkpt><trkpt lat="43.1594317" lon="12.29133"><ele>259.0</ele><time>2026-04-18T15:00:14.963Z</time></trkpt><trkpt lat="43.1594733" lon="12.29116"><ele>259.0</ele><time>2026-04-18T15:00:15.963Z</time></trkpt><trkpt lat="43.1595083" lon="12.2909917"><ele>259.75</ele><time>2026-04-18T15:00:16.963Z</time></trkpt><trkpt lat="43.1595483" lon="12.2908233"><ele>260.5</ele><time>2026-04-18T15:00:17.963Z</time></trkpt><trkpt lat="43.1595933" lon="12.2906617"><ele>261.25</ele><time>2026-04-18T15:00:18.963Z</time></trkpt><trkpt lat="43.1596517" lon="12.2905117"><ele>262.0</ele><time>2026-04-18T15:00:19.963Z</time></trkpt><trkpt lat="43.1597267" lon="12.2903617"><ele>262.75</ele><time>2026-04-18T15:00:20.963Z</time></trkpt><trkpt lat="43.1597983" lon="12.2902"><ele>263.5</ele><time>2026-04-18T15:00:21.963Z</time></trkpt><trkpt lat="43.1598717" lon="12.2900517"><ele>264.25</ele><time>2026-04-18T15:00:22.963Z</time></trkpt><trkpt lat="43.1599417" lon="12.289905"><ele>265.0</ele><time>2026-04-18T15:00:23.963Z</time></trkpt><trkpt lat="43.1599967" lon="12.2897817"><ele>264.0</ele><time>2026-04-18T15:00:24.963Z</time></trkpt><trkpt lat="43.160045" lon="12.2896533"><ele>263.0</ele><time>2026-04-18T15:00:25.963Z</time></trkpt><trkpt lat="43.1600933" lon="12.2895233"><ele>262.0</ele><time>2026-04-18T15:00:26.963Z</time></trkpt><trkpt lat="43.1601383" lon="12.289385"><ele>261.0</ele><time>2026-04-18T15:00:27.963Z</time></trkpt><trkpt lat="43.1601717" lon="12.2892367"><ele>260.0</ele><time>2026-04-18T15:00:28.963Z</time></trkpt><trkpt lat="43.1601967" lon="12.2890667"><ele>260.25</ele><time>2026-04-18T15:00:29.963Z</time></trkpt><trkpt lat="43.160205" lon="12.2888967"><ele>260.5</ele><time>2026-04-18T15:00:30.963Z</time></trkpt><trkpt lat="43.16021" lon="12.2887183"><ele>260.75</ele><time>2026-04-18T15:00:31.963Z</time></trkpt><trkpt lat="43.160225" lon="12.2885517"><ele>261.0</ele><time>2026-04-18T15:00:32.963Z</time></trkpt><trkpt lat="43.1602317" lon="12.2883767"><ele>261.0</ele><time>2026-04-18T15:00:33.963Z</time></trkpt><trkpt lat="43.1602333" lon="12.2882083"><ele>261.0</ele><time>2026-04-18T15:00:34.963Z</time></trkpt><trkpt lat="43.1602383" lon="12.2880283"><ele>261.0</ele><time>2026-04-18T15:00:35.963Z</time></trkpt><trkpt lat="43.1602417" lon="12.2878533"><ele>261.0</ele><time>2026-04-18T15:00:36.963Z</time></trkpt><trkpt lat="43.16024" lon="12.2876867"><ele>260.25</ele><time>2026-04-18T15:00:37.963Z</time></trkpt><trkpt lat="43.1602317" lon="12.287525"><ele>259.5</ele><time>2026-04-18T15:00:38.963Z</time></trkpt><trkpt lat="43.1602167" lon="12.2873683"><ele>258.75</ele><time>2026-04-18T15:00:39.963Z</time></trkpt><trkpt lat="43.1601967" lon="12.2872133"><ele>258.0</ele><time>2026-04-18T15:00:40.963Z</time></trkpt><trkpt lat="43.1601683" lon="12.287075"><ele>257.2</ele><time>2026-04-18T15:00:41.963Z</time></trkpt><trkpt lat="43.1601433" lon="12.2869367"><ele>256.4</ele><time>2026-04-18T15:00:42.963Z</time></trkpt><trkpt lat="43.1601083" lon="12.2867983"><ele>255.59999999999997</ele><time>2026-04-18T15:00:43.963Z</time></trkpt><trkpt lat="43.1600667" lon="12.2866883"><ele>254.79999999999998</ele><time>2026-04-18T15:00:44.963Z</time></trkpt><trkpt lat="43.1600267" lon="12.2865983"><ele>254.0</ele><time>2026-04-18T15:00:45.963Z</time></trkpt><trkpt lat="43.159935" lon="12.286465"><ele>253.39999999999998</ele><time>2026-04-18T15:00:47.963Z</time></trkpt><trkpt lat="43.1598717" lon="12.286405"><ele>252.79999999999998</ele><time>2026-04-18T15:00:48.963Z</time></trkpt><trkpt lat="43.159805" lon="12.2863317"><ele>252.20000000000002</ele><time>2026-04-18T15:00:49.963Z</time></trkpt><trkpt lat="43.1597183" lon="12.286265"><ele>251.60000000000002</ele><time>2026-04-18T15:00:50.963Z</time></trkpt><trkpt lat="43.15963" lon="12.2861783"><ele>251.0</ele><time>2026-04-18T15:00:51.963Z</time></trkpt><trkpt lat="43.159535" lon="12.2860717"><ele>252.5</ele><time>2026-04-18T15:00:52.963Z</time></trkpt><trkpt lat="43.1594267" lon="12.2859667"><ele>254.0</ele><time>2026-04-18T15:00:53.963Z</time></trkpt><trkpt lat="43.1593233" lon="12.2858617"><ele>255.5</ele><time>2026-04-18T15:00:54.963Z</time></trkpt><trkpt lat="43.1592217" lon="12.2857533"><ele>257.0</ele><time>2026-04-18T15:00:55.963Z</time></trkpt><trkpt lat="43.1591233" lon="12.2856467"><ele>257.0</ele><time>2026-04-18T15:00:56.963Z</time></trkpt><trkpt lat="43.159025" lon="12.2855567"><ele>257.0</ele><time>2026-04-18T15:00:57.963Z</time></trkpt><trkpt lat="43.158935" lon="12.2854633"><ele>257.0</ele><time>2026-04-18T15:00:58.962Z</time></trkpt><trkpt lat="43.1588467" lon="12.285385"><ele>257.0</ele><time>2026-04-18T15:00:59.963Z</time></trkpt><trkpt lat="43.1587583" lon="12.2853017"><ele>257.0</ele><time>2026-04-18T15:01:00.963Z</time></trkpt><trkpt lat="43.15868" lon="12.28522"><ele>257.0</ele><time>2026-04-18T15:01:01.963Z</time></trkpt><trkpt lat="43.1585983" lon="12.2851483"><ele>257.0</ele><time>2026-04-18T15:01:02.963Z</time></trkpt><trkpt lat="43.15852" lon="12.2850733"><ele>257.0</ele><time>2026-04-18T15:01:03.963Z</time></trkpt><trkpt lat="43.1584467" lon="12.2849983"><ele>257.0</ele><time>2026-04-18T15:01:04.963Z</time></trkpt><trkpt lat="43.1583783" lon="12.28493"><ele>257.0</ele><time>2026-04-18T15:01:05.963Z</time></trkpt><trkpt lat="43.1583183" lon="12.28487"><ele>257.0</ele><time>2026-04-18T15:01:06.963Z</time></trkpt><trkpt lat="43.1582717" lon="12.284785"><ele>256.0</ele><time>2026-04-18T15:01:07.963Z</time></trkpt><trkpt lat="43.1582483" lon="12.284695"><ele>255.0</ele><time>2026-04-18T15:01:08.963Z</time></trkpt><trkpt lat="43.158235" lon="12.2845783"><ele>254.0</ele><time>2026-04-18T15:01:09.963Z</time></trkpt><trkpt lat="43.1582317" lon="12.28445"><ele>253.0</ele><time>2026-04-18T15:01:10.963Z</time></trkpt><trkpt lat="43.1582367" lon="12.2843217"><ele>252.00000000000003</ele><time>2026-04-18T15:01:11.963Z</time></trkpt><trkpt lat="43.1582367" lon="12.2842033"><ele>251.0</ele><time>2026-04-18T15:01:12.963Z</time></trkpt><trkpt lat="43.1582467" lon="12.2841017"><ele>251.00000000000003</ele><time>2026-04-18T15:01:13.963Z</time></trkpt><trkpt lat="43.1582433" lon="12.2840133"><ele>251.0</ele><time>2026-04-18T15:01:14.963Z</time></trkpt><trkpt lat="43.1582267" lon="12.283925"><ele>251.0</ele><time>2026-04-18T15:01:15.963Z</time></trkpt><trkpt lat="43.1582067" lon="12.2838283"><ele>251.0</ele><time>2026-04-18T15:01:16.963Z</time></trkpt><trkpt lat="43.1581917" lon="12.28371"><ele>251.00000000000003</ele><time>2026-04-18T15:01:17.963Z</time></trkpt><trkpt lat="43.1581683" lon="12.2835867"><ele>251.0</ele><time>2026-04-18T15:01:18.963Z</time></trkpt><trkpt lat="43.15814" lon="12.2834617"><ele>250.20000000000002</ele><time>2026-04-18T15:01:19.963Z</time></trkpt><trkpt lat="43.158115" lon="12.283325"><ele>249.40000000000003</ele><time>2026-04-18T15:01:20.963Z</time></trkpt><trkpt lat="43.158095" lon="12.283195"><ele>248.6</ele><time>2026-04-18T15:01:21.963Z</time></trkpt><trkpt lat="43.158085" lon="12.2830583"><ele>247.8</ele><time>2026-04-18T15:01:22.963Z</time></trkpt><trkpt lat="43.1580783" lon="12.28292"><ele>247.0</ele><time>2026-04-18T15:01:23.963Z</time></trkpt><trkpt lat="43.158075" lon="12.2827767"><ele>246.8</ele><time>2026-04-18T15:01:24.963Z</time></trkpt><trkpt lat="43.15806" lon="12.2826417"><ele>246.6</ele><time>2026-04-18T15:01:25.963Z</time></trkpt><trkpt lat="43.1580367" lon="12.28251"><ele>246.40000000000003</ele><time>2026-04-18T15:01:26.963Z</time></trkpt><trkpt lat="43.1580183" lon="12.2823733"><ele>246.20000000000002</ele><time>2026-04-18T15:01:27.963Z</time></trkpt><trkpt lat="43.157995" lon="12.2822383"><ele>246.0</ele><time>2026-04-18T15:01:28.963Z</time></trkpt><trkpt lat="43.1579667" lon="12.2821117"><ele>246.33333333333334</ele><time>2026-04-18T15:01:29.963Z</time></trkpt><trkpt lat="43.157935" lon="12.2819917"><ele>246.66666666666669</ele><time>2026-04-18T15:01:30.963Z</time></trkpt><trkpt lat="43.1579017" lon="12.2818767"><ele>247.0</ele><time>2026-04-18T15:01:31.963Z</time></trkpt><trkpt lat="43.1578733" lon="12.281775"><ele>247.33333333333334</ele><time>2026-04-18T15:01:32.963Z</time></trkpt><trkpt lat="43.1578483" lon="12.2816867"><ele>247.66666666666669</ele><time>2026-04-18T15:01:33.963Z</time></trkpt><trkpt lat="43.1578367" lon="12.2815667"><ele>248.0</ele><time>2026-04-18T15:01:35.963Z</time></trkpt><trkpt lat="43.1578683" lon="12.28145"><ele>248.0</ele><time>2026-04-18T15:01:37.963Z</time></trkpt><trkpt lat="43.157965" lon="12.2813667"><ele>248.0</ele><time>2026-04-18T15:01:39.963Z</time></trkpt><trkpt lat="43.1580383" lon="12.2813117"><ele>248.0</ele><time>2026-04-18T15:01:40.963Z</time></trkpt><trkpt lat="43.1581183" lon="12.2812583"><ele>248.0</ele><time>2026-04-18T15:01:41.963Z</time></trkpt><trkpt lat="43.1582033" lon="12.2812017"><ele>248.0</ele><time>2026-04-18T15:01:42.963Z</time></trkpt><trkpt lat="43.1582917" lon="12.281135"><ele>247.66666666666669</ele><time>2026-04-18T15:01:43.963Z</time></trkpt><trkpt lat="43.1583783" lon="12.2810717"><ele>247.33333333333334</ele><time>2026-04-18T15:01:44.963Z</time></trkpt><trkpt lat="43.1584617" lon="12.2810117"><ele>247.0</ele><time>2026-04-18T15:01:45.963Z</time></trkpt><trkpt lat="43.15853" lon="12.2809433"><ele>246.66666666666669</ele><time>2026-04-18T15:01:46.963Z</time></trkpt><trkpt lat="43.1585833" lon="12.28087"><ele>246.33333333333334</ele><time>2026-04-18T15:01:47.963Z</time></trkpt><trkpt lat="43.1586217" lon="12.280785"><ele>246.0</ele><time>2026-04-18T15:01:48.963Z</time></trkpt><trkpt lat="43.158645" lon="12.2806883"><ele>247.0</ele><time>2026-04-18T15:01:49.963Z</time></trkpt><trkpt lat="43.1586417" lon="12.280575"><ele>248.00000000000003</ele><time>2026-04-18T15:01:50.963Z</time></trkpt><trkpt lat="43.15862" lon="12.2804267"><ele>249.00000000000003</ele><time>2026-04-18T15:01:51.963Z</time></trkpt><trkpt lat="43.1586017" lon="12.280265"><ele>250.0</ele><time>2026-04-18T15:01:52.963Z</time></trkpt><trkpt lat="43.1585817" lon="12.28012"><ele>251.0</ele><time>2026-04-18T15:01:53.963Z</time></trkpt><trkpt lat="43.1585617" lon="12.2799783"><ele>251.0</ele><time>2026-04-18T15:01:54.963Z</time></trkpt><trkpt lat="43.1585467" lon="12.2798367"><ele>251.00000000000003</ele><time>2026-04-18T15:01:55.963Z</time></trkpt><trkpt lat="43.1585267" lon="12.279695"><ele>251.00000000000003</ele><time>2026-04-18T15:01:56.963Z</time></trkpt><trkpt lat="43.1585167" lon="12.2795617"><ele>251.0</ele><time>2026-04-18T15:01:57.963Z</time></trkpt><trkpt lat="43.158505" lon="12.27944"><ele>251.0</ele><time>2026-04-18T15:01:58.963Z</time></trkpt><trkpt lat="43.158485" lon="12.2793283"><ele>252.00000000000003</ele><time>2026-04-18T15:01:59.963Z</time></trkpt><trkpt lat="43.15847" lon="12.2792183"><ele>253.0</ele><time>2026-04-18T15:02:00.963Z</time></trkpt><trkpt lat="43.158455" lon="12.2791033"><ele>254.0</ele><time>2026-04-18T15:02:01.963Z</time></trkpt><trkpt lat="43.1584483" lon="12.2789817"><ele>255.0</ele><time>2026-04-18T15:02:02.963Z</time></trkpt><trkpt lat="43.1584517" lon="12.2788617"><ele>256.0</ele><time>2026-04-18T15:02:03.963Z</time></trkpt><trkpt lat="43.158465" lon="12.2787417"><ele>257.0</ele><time>2026-04-18T15:02:04.963Z</time></trkpt><trkpt lat="43.1584883" lon="12.27862"><ele>257.83333333333337</ele><time>2026-04-18T15:02:05.963Z</time></trkpt><trkpt lat="43.158515" lon="12.2785233"><ele>258.6666666666667</ele><time>2026-04-18T15:02:06.963Z</time></trkpt><trkpt lat="43.15856" lon="12.2784233"><ele>259.5</ele><time>2026-04-18T15:02:07.963Z</time></trkpt><trkpt lat="43.158615" lon="12.2783483"><ele>260.3333333333333</ele><time>2026-04-18T15:02:08.963Z</time></trkpt><trkpt lat="43.1586883" lon="12.2782767"><ele>261.16666666666663</ele><time>2026-04-18T15:02:09.963Z</time></trkpt><trkpt lat="43.1587617" lon="12.2782183"><ele>262.0</ele><time>2026-04-18T15:02:10.963Z</time></trkpt><trkpt lat="43.1588367" lon="12.278165"><ele>263.8</ele><time>2026-04-18T15:02:11.963Z</time></trkpt><trkpt lat="43.1588917" lon="12.2780917"><ele>265.6</ele><time>2026-04-18T15:02:12.963Z</time></trkpt><trkpt lat="43.1589417" lon="12.278"><ele>267.40000000000003</ele><time>2026-04-18T15:02:13.963Z</time></trkpt><trkpt lat="43.1589817" lon="12.2779133"><ele>269.2</ele><time>2026-04-18T15:02:14.963Z</time></trkpt><trkpt lat="43.159005" lon="12.2777733"><ele>271.0</ele><time>2026-04-18T15:02:16.963Z</time></trkpt><trkpt lat="43.1589833" lon="12.277625"><ele>271.0</ele><time>2026-04-18T15:02:18.963Z</time></trkpt><trkpt lat="43.15896" lon="12.277495"><ele>271.0</ele><time>2026-04-18T15:02:20.963Z</time></trkpt><trkpt lat="43.158995" lon="12.2773883"><ele>271.0</ele><time>2026-04-18T15:02:22.963Z</time></trkpt><trkpt lat="43.1590933" lon="12.277345"><ele>271.0</ele><time>2026-04-18T15:02:24.963Z</time></trkpt><trkpt lat="43.1591733" lon="12.27734"><ele>271.0</ele><time>2026-04-18T15:02:25.963Z</time></trkpt><trkpt lat="43.15925" lon="12.2773483"><ele>271.0</ele><time>2026-04-18T15:02:26.963Z</time></trkpt><trkpt lat="43.1593183" lon="12.27736"><ele>270.66666666666663</ele><time>2026-04-18T15:02:27.963Z</time></trkpt><trkpt lat="43.1593883" lon="12.2773533"><ele>270.3333333333333</ele><time>2026-04-18T15:02:28.963Z</time></trkpt><trkpt lat="43.159465" lon="12.277335"><ele>270.0</ele><time>2026-04-18T15:02:29.963Z</time></trkpt><trkpt lat="43.159535" lon="12.2773133"><ele>269.6666666666667</ele><time>2026-04-18T15:02:30.963Z</time></trkpt><trkpt lat="43.159595" lon="12.2772867"><ele>269.33333333333337</ele><time>2026-04-18T15:02:31.963Z</time></trkpt><trkpt lat="43.159655" lon="12.2772533"><ele>269.0</ele><time>2026-04-18T15:02:32.963Z</time></trkpt><trkpt lat="43.1597567" lon="12.277175"><ele>269.8</ele><time>2026-04-18T15:02:34.963Z</time></trkpt><trkpt lat="43.15981" lon="12.277085"><ele>270.59999999999997</ele><time>2026-04-18T15:02:36.963Z</time></trkpt><trkpt lat="43.1598833" lon="12.2770167"><ele>271.4</ele><time>2026-04-18T15:02:38.963Z</time></trkpt><trkpt lat="43.1599817" lon="12.2769683"><ele>272.2</ele><time>2026-04-18T15:02:40.963Z</time></trkpt><trkpt lat="43.1600867" lon="12.276925"><ele>273.0</ele><time>2026-04-18T15:02:42.963Z</time></trkpt><trkpt lat="43.1602017" lon="12.2768733"><ele>273.0</ele><time>2026-04-18T15:02:44.963Z</time></trkpt><trkpt lat="43.160265" lon="12.2768383"><ele>273.0</ele><time>2026-04-18T15:02:45.963Z</time></trkpt><trkpt lat="43.1603283" lon="12.2768033"><ele>273.0</ele><time>2026-04-18T15:02:46.963Z</time></trkpt><trkpt lat="43.1603883" lon="12.27677"><ele>273.0</ele><time>2026-04-18T15:02:47.963Z</time></trkpt><trkpt lat="43.1604533" lon="12.2767317"><ele>273.0</ele><time>2026-04-18T15:02:48.963Z</time></trkpt><trkpt lat="43.1605133" lon="12.276685"><ele>273.0</ele><time>2026-04-18T15:02:49.963Z</time></trkpt><trkpt lat="43.1605783" lon="12.2766483"><ele>273.0</ele><time>2026-04-18T15:02:50.963Z</time></trkpt><trkpt lat="43.1606433" lon="12.2766117"><ele>273.0</ele><time>2026-04-18T15:02:51.963Z</time></trkpt><trkpt lat="43.1607117" lon="12.2765767"><ele>273.0</ele><time>2026-04-18T15:02:52.963Z</time></trkpt><trkpt lat="43.1607733" lon="12.276535"><ele>273.0</ele><time>2026-04-18T15:02:53.963Z</time></trkpt><trkpt lat="43.16083" lon="12.2764967"><ele>273.0</ele><time>2026-04-18T15:02:54.963Z</time></trkpt><trkpt lat="43.1609417" lon="12.2764383"><ele>273.0</ele><time>2026-04-18T15:02:56.963Z</time></trkpt><trkpt lat="43.1610333" lon="12.276355"><ele>273.0</ele><time>2026-04-18T15:02:58.963Z</time></trkpt><trkpt lat="43.1611167" lon="12.27627"><ele>273.0</ele><time>2026-04-18T15:03:00.963Z</time></trkpt><trkpt lat="43.1611867" lon="12.2761667"><ele>273.0</ele><time>2026-04-18T15:03:02.963Z</time></trkpt><trkpt lat="43.1612233" lon="12.2760533"><ele>273.0</ele><time>2026-04-18T15:03:04.963Z</time></trkpt><trkpt lat="43.1612183" lon="12.2759517"><ele>273.0</ele><time>2026-04-18T15:03:06.963Z</time></trkpt><trkpt lat="43.1611717" lon="12.2758"><ele>273.0</ele><time>2026-04-18T15:03:08.963Z</time></trkpt><trkpt lat="43.1611433" lon="12.2756533"><ele>274.7142857142857</ele><time>2026-04-18T15:03:10.963Z</time></trkpt><trkpt lat="43.16113" lon="12.2755617"><ele>276.42857142857144</ele><time>2026-04-18T15:03:11.963Z</time></trkpt><trkpt lat="43.1611283" lon="12.27546"><ele>278.1428571428571</ele><time>2026-04-18T15:03:12.963Z</time></trkpt><trkpt lat="43.161125" lon="12.2753567"><ele>279.8571428571429</ele><time>2026-04-18T15:03:13.963Z</time></trkpt><trkpt lat="43.1611167" lon="12.2752533"><ele>281.57142857142856</ele><time>2026-04-18T15:03:14.963Z</time></trkpt><trkpt lat="43.1611033" lon="12.2751467"><ele>283.2857142857143</ele><time>2026-04-18T15:03:15.963Z</time></trkpt><trkpt lat="43.1610917" lon="12.27505"><ele>285.0</ele><time>2026-04-18T15:03:16.963Z</time></trkpt><trkpt lat="43.1610733" lon="12.2749533"><ele>285.0</ele><time>2026-04-18T15:03:17.963Z</time></trkpt><trkpt lat="43.16105" lon="12.27487"><ele>285.0</ele><time>2026-04-18T15:03:18.963Z</time></trkpt><trkpt lat="43.1610167" lon="12.2747867"><ele>285.0</ele><time>2026-04-18T15:03:19.963Z</time></trkpt><trkpt lat="43.1609717" lon="12.27472"><ele>285.0</ele><time>2026-04-18T15:03:20.963Z</time></trkpt><trkpt lat="43.1609167" lon="12.2746583"><ele>285.0</ele><time>2026-04-18T15:03:21.963Z</time></trkpt><trkpt lat="43.1608533" lon="12.274595"><ele>285.0</ele><time>2026-04-18T15:03:22.963Z</time></trkpt><trkpt lat="43.1607867" lon="12.2745317"><ele>285.0</ele><time>2026-04-18T15:03:23.963Z</time></trkpt><trkpt lat="43.1607267" lon="12.2744567"><ele>287.2857142857143</ele><time>2026-04-18T15:03:24.963Z</time></trkpt><trkpt lat="43.160675" lon="12.2743733"><ele>289.57142857142856</ele><time>2026-04-18T15:03:25.963Z</time></trkpt><trkpt lat="43.1606433" lon="12.2742833"><ele>291.8571428571429</ele><time>2026-04-18T15:03:26.963Z</time></trkpt><trkpt lat="43.1606183" lon="12.274195"><ele>294.1428571428571</ele><time>2026-04-18T15:03:27.963Z</time></trkpt><trkpt lat="43.1605967" lon="12.2741017"><ele>296.42857142857144</ele><time>2026-04-18T15:03:28.963Z</time></trkpt><trkpt lat="43.160565" lon="12.2740083"><ele>298.7142857142857</ele><time>2026-04-18T15:03:29.963Z</time></trkpt><trkpt lat="43.16053" lon="12.2739167"><ele>301.0</ele><time>2026-04-18T15:03:30.963Z</time></trkpt><trkpt lat="43.160485" lon="12.27384"><ele>303.0</ele><time>2026-04-18T15:03:31.963Z</time></trkpt><trkpt lat="43.160445" lon="12.2737667"><ele>305.0</ele><time>2026-04-18T15:03:32.963Z</time></trkpt><trkpt lat="43.1604017" lon="12.273625"><ele>307.0</ele><time>2026-04-18T15:03:34.963Z</time></trkpt><trkpt lat="43.1604433" lon="12.2735017"><ele>309.0</ele><time>2026-04-18T15:03:36.963Z</time></trkpt><trkpt lat="43.1604833" lon="12.273425"><ele>311.0</ele><time>2026-04-18T15:03:37.963Z</time></trkpt><trkpt lat="43.16052" lon="12.27335"><ele>313.0</ele><time>2026-04-18T15:03:38.963Z</time></trkpt><trkpt lat="43.1605383" lon="12.273205"><ele>315.66666666666663</ele><time>2026-04-18T15:03:40.963Z</time></trkpt><trkpt lat="43.16047" lon="12.273075"><ele>318.3333333333333</ele><time>2026-04-18T15:03:42.963Z</time></trkpt><trkpt lat="43.1604083" lon="12.2730283"><ele>321.0</ele><time>2026-04-18T15:03:43.963Z</time></trkpt><trkpt lat="43.160345" lon="12.2729967"><ele>323.6666666666667</ele><time>2026-04-18T15:03:44.963Z</time></trkpt><trkpt lat="43.1602817" lon="12.2729617"><ele>326.33333333333337</ele><time>2026-04-18T15:03:45.963Z</time></trkpt><trkpt lat="43.1602217" lon="12.2729283"><ele>329.0</ele><time>2026-04-18T15:03:46.963Z</time></trkpt><trkpt lat="43.1601567" lon="12.272905"><ele>329.0</ele><time>2026-04-18T15:03:47.963Z</time></trkpt><trkpt lat="43.1600833" lon="12.27291"><ele>329.0</ele><time>2026-04-18T15:03:48.963Z</time></trkpt><trkpt lat="43.1600117" lon="12.272925"><ele>329.0</ele><time>2026-04-18T15:03:49.963Z</time></trkpt><trkpt lat="43.1599467" lon="12.27296"><ele>329.0</ele><time>2026-04-18T15:03:50.963Z</time></trkpt><trkpt lat="43.1598767" lon="12.2729867"><ele>329.0</ele><time>2026-04-18T15:03:51.963Z</time></trkpt><trkpt lat="43.1597933" lon="12.27302"><ele>329.0</ele><time>2026-04-18T15:03:52.963Z</time></trkpt><trkpt lat="43.1597217" lon="12.2730383"><ele>329.0</ele><time>2026-04-18T15:03:53.963Z</time></trkpt><trkpt lat="43.1596533" lon="12.2730583"><ele>329.33333333333337</ele><time>2026-04-18T15:03:54.963Z</time></trkpt><trkpt lat="43.1595867" lon="12.273055"><ele>329.6666666666667</ele><time>2026-04-18T15:03:55.963Z</time></trkpt><trkpt lat="43.1595117" lon="12.2730433"><ele>330.0</ele><time>2026-04-18T15:03:56.963Z</time></trkpt><trkpt lat="43.1594483" lon="12.2730033"><ele>330.3333333333333</ele><time>2026-04-18T15:03:57.963Z</time></trkpt><trkpt lat="43.159395" lon="12.2729433"><ele>330.66666666666663</ele><time>2026-04-18T15:03:58.963Z</time></trkpt><trkpt lat="43.1593217" lon="12.2728067"><ele>331.0</ele><time>2026-04-18T15:04:00.963Z</time></trkpt><trkpt lat="43.1592983" lon="12.2727167"><ele>331.0</ele><time>2026-04-18T15:04:01.963Z</time></trkpt><trkpt lat="43.1592833" lon="12.2726133"><ele>331.0</ele><time>2026-04-18T15:04:02.963Z</time></trkpt><trkpt lat="43.15928" lon="12.2725067"><ele>331.0</ele><time>2026-04-18T15:04:03.963Z</time></trkpt><trkpt lat="43.15928" lon="12.2723917"><ele>331.0</ele><time>2026-04-18T15:04:04.963Z</time></trkpt><trkpt lat="43.1592817" lon="12.272295"><ele>331.0</ele><time>2026-04-18T15:04:05.963Z</time></trkpt><trkpt lat="43.15932" lon="12.272125"><ele>331.0</ele><time>2026-04-18T15:04:07.963Z</time></trkpt><trkpt lat="43.1593467" lon="12.2720317"><ele>331.2857142857143</ele><time>2026-04-18T15:04:08.963Z</time></trkpt><trkpt lat="43.1593683" lon="12.27194"><ele>331.57142857142856</ele><time>2026-04-18T15:04:09.963Z</time></trkpt><trkpt lat="43.1593933" lon="12.2718467"><ele>331.8571428571429</ele><time>2026-04-18T15:04:10.963Z</time></trkpt><trkpt lat="43.1594167" lon="12.2717467"><ele>332.1428571428571</ele><time>2026-04-18T15:04:11.963Z</time></trkpt><trkpt lat="43.15944" lon="12.2716533"><ele>332.4285714285714</ele><time>2026-04-18T15:04:12.963Z</time></trkpt><trkpt lat="43.1594717" lon="12.2715567"><ele>332.7142857142857</ele><time>2026-04-18T15:04:13.963Z</time></trkpt><trkpt lat="43.1595067" lon="12.2714633"><ele>333.0</ele><time>2026-04-18T15:04:14.963Z</time></trkpt><trkpt lat="43.1595383" lon="12.2713783"><ele>333.0</ele><time>2026-04-18T15:04:15.963Z</time></trkpt><trkpt lat="43.1595767" lon="12.2712817"><ele>333.0</ele><time>2026-04-18T15:04:16.963Z</time></trkpt><trkpt lat="43.15962" lon="12.2711783"><ele>333.0</ele><time>2026-04-18T15:04:17.963Z</time></trkpt><trkpt lat="43.15966" lon="12.2710733"><ele>333.0</ele><time>2026-04-18T15:04:18.963Z</time></trkpt><trkpt lat="43.1596967" lon="12.2709717"><ele>333.0</ele><time>2026-04-18T15:04:19.963Z</time></trkpt><trkpt lat="43.1597283" lon="12.27087"><ele>333.0</ele><time>2026-04-18T15:04:20.963Z</time></trkpt><trkpt lat="43.1597633" lon="12.270775"><ele>333.0</ele><time>2026-04-18T15:04:21.963Z</time></trkpt><trkpt lat="43.1598033" lon="12.2706917"><ele>333.0</ele><time>2026-04-18T15:04:22.963Z</time></trkpt><trkpt lat="43.1598533" lon="12.27062"><ele>333.0</ele><time>2026-04-18T15:04:23.963Z</time></trkpt><trkpt lat="43.15992" lon="12.270535"><ele>333.0</ele><time>2026-04-18T15:04:24.963Z</time></trkpt><trkpt lat="43.1599917" lon="12.2704517"><ele>333.0</ele><time>2026-04-18T15:04:25.963Z</time></trkpt><trkpt lat="43.1600617" lon="12.27038"><ele>333.0</ele><time>2026-04-18T15:04:26.963Z</time></trkpt><trkpt lat="43.1601233" lon="12.270305"><ele>335.0</ele><time>2026-04-18T15:04:27.963Z</time></trkpt><trkpt lat="43.1601917" lon="12.2702267"><ele>337.0</ele><time>2026-04-18T15:04:28.963Z</time></trkpt><trkpt lat="43.1602667" lon="12.2701317"><ele>339.0</ele><time>2026-04-18T15:04:29.963Z</time></trkpt><trkpt lat="43.1603483" lon="12.27003"><ele>341.0</ele><time>2026-04-18T15:04:30.963Z</time></trkpt><trkpt lat="43.1604267" lon="12.269945"><ele>343.0</ele><time>2026-04-18T15:04:31.962Z</time></trkpt><trkpt lat="43.1605117" lon="12.2698667"><ele>343.0</ele><time>2026-04-18T15:04:32.962Z</time></trkpt><trkpt lat="43.160605" lon="12.2697933"><ele>343.0</ele><time>2026-04-18T15:04:33.962Z</time></trkpt><trkpt lat="43.16069" lon="12.2697083"><ele>343.0</ele><time>2026-04-18T15:04:34.962Z</time></trkpt><trkpt lat="43.1607767" lon="12.2696267"><ele>343.0</ele><time>2026-04-18T15:04:35.962Z</time></trkpt><trkpt lat="43.1608667" lon="12.269545"><ele>343.0</ele><time>2026-04-18T15:04:36.962Z</time></trkpt><trkpt lat="43.1609567" lon="12.2694533"><ele>343.2</ele><time>2026-04-18T15:04:37.962Z</time></trkpt><trkpt lat="43.1610483" lon="12.2693617"><ele>343.4</ele><time>2026-04-18T15:04:38.962Z</time></trkpt><trkpt lat="43.16114" lon="12.2692783"><ele>343.59999999999997</ele><time>2026-04-18T15:04:39.962Z</time></trkpt><trkpt lat="43.1612233" lon="12.2691917"><ele>343.79999999999995</ele><time>2026-04-18T15:04:40.962Z</time></trkpt><trkpt lat="43.1613067" lon="12.269095"><ele>344.0</ele><time>2026-04-18T15:04:41.962Z</time></trkpt><trkpt lat="43.161385" lon="12.2689967"><ele>343.79999999999995</ele><time>2026-04-18T15:04:42.962Z</time></trkpt><trkpt lat="43.1614683" lon="12.26889"><ele>343.59999999999997</ele><time>2026-04-18T15:04:43.962Z</time></trkpt><trkpt lat="43.1615533" lon="12.26879"><ele>343.4</ele><time>2026-04-18T15:04:44.962Z</time></trkpt><trkpt lat="43.1616367" lon="12.2686983"><ele>343.2</ele><time>2026-04-18T15:04:45.962Z</time></trkpt><trkpt lat="43.16172" lon="12.2686083"><ele>343.0</ele><time>2026-04-18T15:04:46.962Z</time></trkpt><trkpt lat="43.1617983" lon="12.2685317"><ele>345.2</ele><time>2026-04-18T15:04:47.962Z</time></trkpt><trkpt lat="43.16187" lon="12.2684483"><ele>347.4</ele><time>2026-04-18T15:04:48.962Z</time></trkpt><trkpt lat="43.1619367" lon="12.2683733"><ele>349.59999999999997</ele><time>2026-04-18T15:04:49.962Z</time></trkpt><trkpt lat="43.1620033" lon="12.2682867"><ele>351.79999999999995</ele><time>2026-04-18T15:04:50.962Z</time></trkpt><trkpt lat="43.16207" lon="12.26819"><ele>354.0</ele><time>2026-04-18T15:04:51.962Z</time></trkpt><trkpt lat="43.16213" lon="12.268085"><ele>356.1666666666667</ele><time>2026-04-18T15:04:52.962Z</time></trkpt><trkpt lat="43.1621717" lon="12.2679967"><ele>358.3333333333333</ele><time>2026-04-18T15:04:53.962Z</time></trkpt><trkpt lat="43.1622117" lon="12.2679183"><ele>360.5</ele><time>2026-04-18T15:04:54.962Z</time></trkpt><trkpt lat="43.162245" lon="12.2678433"><ele>362.66666666666663</ele><time>2026-04-18T15:04:55.962Z</time></trkpt><trkpt lat="43.1623117" lon="12.2677083"><ele>364.8333333333333</ele><time>2026-04-18T15:04:57.962Z</time></trkpt><trkpt lat="43.1623467" lon="12.26758"><ele>367.0</ele><time>2026-04-18T15:04:59.962Z</time></trkpt><trkpt lat="43.1623267" lon="12.267475"><ele>367.0</ele><time>2026-04-18T15:05:01.962Z</time></trkpt><trkpt lat="43.1622517" lon="12.26744"><ele>367.0</ele><time>2026-04-18T15:05:03.962Z</time></trkpt><trkpt lat="43.162165" lon="12.2674617"><ele>367.0</ele><time>2026-04-18T15:05:05.962Z</time></trkpt><trkpt lat="43.16207" lon="12.2674883"><ele>367.0</ele><time>2026-04-18T15:05:07.962Z</time></trkpt><trkpt lat="43.161975" lon="12.2674933"><ele>367.0</ele><time>2026-04-18T15:05:09.962Z</time></trkpt><trkpt lat="43.1618767" lon="12.26749"><ele>367.0</ele><time>2026-04-18T15:05:11.962Z</time></trkpt><trkpt lat="43.1618167" lon="12.2674433"><ele>367.0</ele><time>2026-04-18T15:05:13.962Z</time></trkpt><trkpt lat="43.1618283" lon="12.267325"><ele>367.0</ele><time>2026-04-18T15:05:16.962Z</time></trkpt><trkpt lat="43.161895" lon="12.26727"><ele>367.0</ele><time>2026-04-18T15:05:18.962Z</time></trkpt><trkpt lat="43.162" lon="12.267215"><ele>367.0</ele><time>2026-04-18T15:05:20.962Z</time></trkpt><trkpt lat="43.16207" lon="12.2671733"><ele>367.0</ele><time>2026-04-18T15:05:22.962Z</time></trkpt><trkpt lat="43.161985" lon="12.267215"><ele>367.0</ele><time>2026-04-18T15:05:34.962Z</time></trkpt><trkpt lat="43.1618917" lon="12.2672817"><ele>367.0</ele><time>2026-04-18T15:05:36.962Z</time></trkpt><trkpt lat="43.1618333" lon="12.26734"><ele>367.0</ele><time>2026-04-18T15:05:38.962Z</time></trkpt><trkpt lat="43.16184" lon="12.26745"><ele>367.0</ele><time>2026-04-18T15:05:41.962Z</time></trkpt><trkpt lat="43.161915" lon="12.2674817"><ele>367.0</ele><time>2026-04-18T15:05:43.962Z</time></trkpt><trkpt lat="43.161995" lon="12.267485"><ele>367.0</ele><time>2026-04-18T15:05:45.962Z</time></trkpt><trkpt lat="43.1620883" lon="12.2674783"><ele>367.0</ele><time>2026-04-18T15:05:47.962Z</time></trkpt><trkpt lat="43.16219" lon="12.2674533"><ele>367.0</ele><time>2026-04-18T15:05:49.962Z</time></trkpt><trkpt lat="43.1622883" lon="12.2674517"><ele>367.0</ele><time>2026-04-18T15:05:51.962Z</time></trkpt><trkpt lat="43.1623483" lon="12.2674967"><ele>367.0</ele><time>2026-04-18T15:05:53.962Z</time></trkpt><trkpt lat="43.162365" lon="12.2675833"><ele>367.0</ele><time>2026-04-18T15:05:55.962Z</time></trkpt><trkpt lat="43.1623367" lon="12.26767"><ele>367.0</ele><time>2026-04-18T15:05:57.962Z</time></trkpt><trkpt lat="43.1622767" lon="12.2677567"><ele>367.0</ele><time>2026-04-18T15:05:59.962Z</time></trkpt><trkpt lat="43.1622167" lon="12.2678483"><ele>367.0</ele><time>2026-04-18T15:06:01.962Z</time></trkpt><trkpt lat="43.1621467" lon="12.267925"><ele>367.0</ele><time>2026-04-18T15:06:03.962Z</time></trkpt><trkpt lat="43.1620583" lon="12.2679783"><ele>367.0</ele><time>2026-04-18T15:06:05.962Z</time></trkpt><trkpt lat="43.1619617" lon="12.2680067"><ele>367.0</ele><time>2026-04-18T15:06:07.962Z</time></trkpt><trkpt lat="43.16186" lon="12.2679983"><ele>367.0</ele><time>2026-04-18T15:06:09.962Z</time></trkpt><trkpt lat="43.1617617" lon="12.2679983"><ele>367.0</ele><time>2026-04-18T15:06:11.962Z</time></trkpt><trkpt lat="43.161665" lon="12.2680033"><ele>367.0</ele><time>2026-04-18T15:06:13.962Z</time></trkpt><trkpt lat="43.16159" lon="12.2680167"><ele>367.0</ele><time>2026-04-18T15:06:15.962Z</time></trkpt><trkpt lat="43.161515" lon="12.2680267"><ele>367.0</ele><time>2026-04-18T15:06:17.962Z</time></trkpt><trkpt lat="43.1614333" lon="12.2680117"><ele>367.0</ele><time>2026-04-18T15:06:19.962Z</time></trkpt><trkpt lat="43.1613317" lon="12.2679833"><ele>365.3333333333333</ele><time>2026-04-18T15:06:21.962Z</time></trkpt><trkpt lat="43.161235" lon="12.2679483"><ele>363.66666666666663</ele><time>2026-04-18T15:06:23.962Z</time></trkpt><trkpt lat="43.1611367" lon="12.267925"><ele>362.0</ele><time>2026-04-18T15:06:25.962Z</time></trkpt><trkpt lat="43.1610517" lon="12.2679267"><ele>360.3333333333333</ele><time>2026-04-18T15:06:27.962Z</time></trkpt><trkpt lat="43.1609783" lon="12.2679267"><ele>358.6666666666667</ele><time>2026-04-18T15:06:29.962Z</time></trkpt><trkpt lat="43.160895" lon="12.2679167"><ele>357.0</ele><time>2026-04-18T15:06:31.962Z</time></trkpt><trkpt lat="43.1608117" lon="12.267905"><ele>357.0</ele><time>2026-04-18T15:06:33.962Z</time></trkpt><trkpt lat="43.1607133" lon="12.2678883"><ele>357.0</ele><time>2026-04-18T15:06:35.962Z</time></trkpt><trkpt lat="43.16062" lon="12.2678583"><ele>357.0</ele><time>2026-04-18T15:06:37.962Z</time></trkpt><trkpt lat="43.1605417" lon="12.2678317"><ele>357.0</ele><time>2026-04-18T15:06:39.962Z</time></trkpt><trkpt lat="43.1604517" lon="12.2678083"><ele>357.0</ele><time>2026-04-18T15:06:41.962Z</time></trkpt><trkpt lat="43.1603633" lon="12.26779"><ele>354.8</ele><time>2026-04-18T15:06:43.962Z</time></trkpt><trkpt lat="43.160275" lon="12.2677517"><ele>352.6</ele><time>2026-04-18T15:06:45.962Z</time></trkpt><trkpt lat="43.16018" lon="12.2677067"><ele>350.40000000000003</ele><time>2026-04-18T15:06:47.962Z</time></trkpt><trkpt lat="43.1600717" lon="12.2676767"><ele>348.20000000000005</ele><time>2026-04-18T15:06:49.962Z</time></trkpt><trkpt lat="43.1599567" lon="12.2676483"><ele>346.0</ele><time>2026-04-18T15:06:51.962Z</time></trkpt><trkpt lat="43.1598383" lon="12.2676083"><ele>343.4</ele><time>2026-04-18T15:06:53.962Z</time></trkpt><trkpt lat="43.1597167" lon="12.2675683"><ele>340.8</ele><time>2026-04-18T15:06:55.962Z</time></trkpt><trkpt lat="43.1596033" lon="12.267525"><ele>338.2</ele><time>2026-04-18T15:06:57.962Z</time></trkpt><trkpt lat="43.1595417" lon="12.2675067"><ele>335.59999999999997</ele><time>2026-04-18T15:06:58.962Z</time></trkpt><trkpt lat="43.159425" lon="12.2674733"><ele>333.0</ele><time>2026-04-18T15:07:00.962Z</time></trkpt><trkpt lat="43.1593133" lon="12.2674617"><ele>333.0</ele><time>2026-04-18T15:07:02.962Z</time></trkpt><trkpt lat="43.159205" lon="12.267435"><ele>333.0</ele><time>2026-04-18T15:07:04.962Z</time></trkpt><trkpt lat="43.1590983" lon="12.2674133"><ele>333.0</ele><time>2026-04-18T15:07:06.962Z</time></trkpt><trkpt lat="43.1590033" lon="12.2673917"><ele>333.0</ele><time>2026-04-18T15:07:08.962Z</time></trkpt><trkpt lat="43.1589067" lon="12.2673633"><ele>333.0</ele><time>2026-04-18T15:07:10.962Z</time></trkpt><trkpt lat="43.1588083" lon="12.26734"><ele>330.75</ele><time>2026-04-18T15:07:12.962Z</time></trkpt><trkpt lat="43.1586983" lon="12.2673217"><ele>328.5</ele><time>2026-04-18T15:07:14.962Z</time></trkpt><trkpt lat="43.1585783" lon="12.2673167"><ele>326.25</ele><time>2026-04-18T15:07:16.962Z</time></trkpt><trkpt lat="43.1584617" lon="12.2673117"><ele>324.0</ele><time>2026-04-18T15:07:18.962Z</time></trkpt><trkpt lat="43.1583533" lon="12.2672883"><ele>325.6</ele><time>2026-04-18T15:07:20.962Z</time></trkpt><trkpt lat="43.158255" lon="12.2672717"><ele>327.2</ele><time>2026-04-18T15:07:22.962Z</time></trkpt><trkpt lat="43.1581567" lon="12.267265"><ele>328.8</ele><time>2026-04-18T15:07:24.962Z</time></trkpt><trkpt lat="43.1580717" lon="12.2672567"><ele>330.40000000000003</ele><time>2026-04-18T15:07:26.962Z</time></trkpt><trkpt lat="43.157975" lon="12.26726"><ele>332.0</ele><time>2026-04-18T15:07:28.962Z</time></trkpt><trkpt lat="43.1578683" lon="12.26723"><ele>332.0</ele><time>2026-04-18T15:07:30.962Z</time></trkpt><trkpt lat="43.1577733" lon="12.2671933"><ele>332.0</ele><time>2026-04-18T15:07:32.962Z</time></trkpt><trkpt lat="43.15767" lon="12.2671633"><ele>332.0</ele><time>2026-04-18T15:07:34.962Z</time></trkpt><trkpt lat="43.1575683" lon="12.2671233"><ele>332.0</ele><time>2026-04-18T15:07:36.962Z</time></trkpt><trkpt lat="43.15747" lon="12.26711"><ele>332.0</ele><time>2026-04-18T15:07:38.962Z</time></trkpt><trkpt lat="43.1573567" lon="12.2670983"><ele>330.8</ele><time>2026-04-18T15:07:40.962Z</time></trkpt><trkpt lat="43.15725" lon="12.2671033"><ele>329.6</ele><time>2026-04-18T15:07:42.962Z</time></trkpt><trkpt lat="43.1571383" lon="12.2671183"><ele>328.40000000000003</ele><time>2026-04-18T15:07:44.962Z</time></trkpt><trkpt lat="43.1570433" lon="12.2671217"><ele>327.20000000000005</ele><time>2026-04-18T15:07:46.962Z</time></trkpt><trkpt lat="43.1569417" lon="12.267135"><ele>326.0</ele><time>2026-04-18T15:07:48.962Z</time></trkpt><trkpt lat="43.1568383" lon="12.2671583"><ele>326.0</ele><time>2026-04-18T15:07:50.962Z</time></trkpt><trkpt lat="43.1567433" lon="12.2671767"><ele>326.0</ele><time>2026-04-18T15:07:52.962Z</time></trkpt><trkpt lat="43.1566383" lon="12.2672067"><ele>326.0</ele><time>2026-04-18T15:07:54.962Z</time></trkpt><trkpt lat="43.1565433" lon="12.2672417"><ele>326.0</ele><time>2026-04-18T15:07:56.962Z</time></trkpt><trkpt lat="43.1564367" lon="12.26729"><ele>326.0</ele><time>2026-04-18T15:07:58.962Z</time></trkpt><trkpt lat="43.1563367" lon="12.26734"><ele>321.2</ele><time>2026-04-18T15:08:00.962Z</time></trkpt><trkpt lat="43.1562367" lon="12.2673917"><ele>316.40000000000003</ele><time>2026-04-18T15:08:02.962Z</time></trkpt><trkpt lat="43.15613" lon="12.26743"><ele>311.6</ele><time>2026-04-18T15:08:04.962Z</time></trkpt><trkpt lat="43.1560283" lon="12.26747"><ele>306.8</ele><time>2026-04-18T15:08:06.962Z</time></trkpt><trkpt lat="43.1559233" lon="12.2675117"><ele>302.0</ele><time>2026-04-18T15:08:08.962Z</time></trkpt><trkpt lat="43.1558283" lon="12.26754"><ele>302.0</ele><time>2026-04-18T15:08:10.962Z</time></trkpt><trkpt lat="43.1557433" lon="12.2675433"><ele>302.0</ele><time>2026-04-18T15:08:12.962Z</time></trkpt><trkpt lat="43.1556533" lon="12.2675417"><ele>302.0</ele><time>2026-04-18T15:08:14.962Z</time></trkpt><trkpt lat="43.1555567" lon="12.26755"><ele>302.0</ele><time>2026-04-18T15:08:16.962Z</time></trkpt><trkpt lat="43.15546" lon="12.2675817"><ele>302.0</ele><time>2026-04-18T15:08:18.962Z</time></trkpt><trkpt lat="43.1553717" lon="12.2676083"><ele>299.2</ele><time>2026-04-18T15:08:20.962Z</time></trkpt><trkpt lat="43.155275" lon="12.26765"><ele>296.4</ele><time>2026-04-18T15:08:22.962Z</time></trkpt><trkpt lat="43.155175" lon="12.2676917"><ele>293.6</ele><time>2026-04-18T15:08:24.962Z</time></trkpt><trkpt lat="43.1550767" lon="12.2677217"><ele>290.8</ele><time>2026-04-18T15:08:26.962Z</time></trkpt><trkpt lat="43.15497" lon="12.2677517"><ele>288.0</ele><time>2026-04-18T15:08:28.962Z</time></trkpt><trkpt lat="43.1548683" lon="12.2677867"><ele>286.0</ele><time>2026-04-18T15:08:30.962Z</time></trkpt><trkpt lat="43.1547767" lon="12.2678217"><ele>284.0</ele><time>2026-04-18T15:08:32.962Z</time></trkpt><trkpt lat="43.1546983" lon="12.26785"><ele>282.0</ele><time>2026-04-18T15:08:34.962Z</time></trkpt><trkpt lat="43.1546417" lon="12.2678983"><ele>280.0</ele><time>2026-04-18T15:08:36.962Z</time></trkpt><trkpt lat="43.1546067" lon="12.2679767"><ele>278.0</ele><time>2026-04-18T15:08:38.962Z</time></trkpt><trkpt lat="43.1545633" lon="12.2680717"><ele>276.0</ele><time>2026-04-18T15:08:40.962Z</time></trkpt><trkpt lat="43.1545167" lon="12.268185"><ele>275.6</ele><time>2026-04-18T15:08:42.962Z</time></trkpt><trkpt lat="43.1544667" lon="12.2683133"><ele>275.20000000000005</ele><time>2026-04-18T15:08:44.962Z</time></trkpt><trkpt lat="43.1544183" lon="12.268435"><ele>274.79999999999995</ele><time>2026-04-18T15:08:46.962Z</time></trkpt><trkpt lat="43.1543517" lon="12.2685617"><ele>274.4</ele><time>2026-04-18T15:08:48.962Z</time></trkpt><trkpt lat="43.1542783" lon="12.268665"><ele>274.0</ele><time>2026-04-18T15:08:50.962Z</time></trkpt><trkpt lat="43.154205" lon="12.26877"><ele>274.0</ele><time>2026-04-18T15:08:52.962Z</time></trkpt><trkpt lat="43.1541217" lon="12.2688583"><ele>274.0</ele><time>2026-04-18T15:08:54.962Z</time></trkpt><trkpt lat="43.15403" lon="12.2689433"><ele>274.0</ele><time>2026-04-18T15:08:56.962Z</time></trkpt><trkpt lat="43.1539467" lon="12.2690317"><ele>274.0</ele><time>2026-04-18T15:08:58.962Z</time></trkpt><trkpt lat="43.15385" lon="12.269095"><ele>274.0</ele><time>2026-04-18T15:09:00.962Z</time></trkpt><trkpt lat="43.1537483" lon="12.26908"><ele>272.66666666666663</ele><time>2026-04-18T15:09:02.962Z</time></trkpt><trkpt lat="43.1536667" lon="12.268995"><ele>271.3333333333333</ele><time>2026-04-18T15:09:04.962Z</time></trkpt><trkpt lat="43.153615" lon="12.2689367"><ele>270.0</ele><time>2026-04-18T15:09:05.962Z</time></trkpt><trkpt lat="43.15356" lon="12.2688667"><ele>268.6666666666667</ele><time>2026-04-18T15:09:06.962Z</time></trkpt><trkpt lat="43.153505" lon="12.2687917"><ele>267.33333333333337</ele><time>2026-04-18T15:09:07.962Z</time></trkpt><trkpt lat="43.153455" lon="12.2687183"><ele>266.0</ele><time>2026-04-18T15:09:08.962Z</time></trkpt><trkpt lat="43.1534033" lon="12.2686383"><ele>265.57142857142856</ele><time>2026-04-18T15:09:09.962Z</time></trkpt><trkpt lat="43.153345" lon="12.268575"><ele>265.1428571428571</ele><time>2026-04-18T15:09:10.962Z</time></trkpt><trkpt lat="43.1532867" lon="12.2685133"><ele>264.7142857142857</ele><time>2026-04-18T15:09:11.962Z</time></trkpt><trkpt lat="43.153235" lon="12.26846"><ele>264.2857142857143</ele><time>2026-04-18T15:09:12.962Z</time></trkpt><trkpt lat="43.1531683" lon="12.26842"><ele>263.85714285714283</ele><time>2026-04-18T15:09:13.962Z</time></trkpt><trkpt lat="43.1530983" lon="12.2683917"><ele>263.42857142857144</ele><time>2026-04-18T15:09:14.962Z</time></trkpt><trkpt lat="43.1530167" lon="12.2683733"><ele>263.0</ele><time>2026-04-18T15:09:15.962Z</time></trkpt><trkpt lat="43.15291" lon="12.2683633"><ele>262.0</ele><time>2026-04-18T15:09:16.962Z</time></trkpt><trkpt lat="43.1527983" lon="12.2683633"><ele>261.0</ele><time>2026-04-18T15:09:17.962Z</time></trkpt><trkpt lat="43.152675" lon="12.2683717"><ele>260.0</ele><time>2026-04-18T15:09:18.962Z</time></trkpt><trkpt lat="43.152545" lon="12.2683817"><ele>259.0</ele><time>2026-04-18T15:09:19.962Z</time></trkpt><trkpt lat="43.1524217" lon="12.2683917"><ele>260.0</ele><time>2026-04-18T15:09:20.962Z</time></trkpt><trkpt lat="43.1523033" lon="12.2684"><ele>261.0</ele><time>2026-04-18T15:09:21.962Z</time></trkpt><trkpt lat="43.1521733" lon="12.268395"><ele>262.0</ele><time>2026-04-18T15:09:22.962Z</time></trkpt><trkpt lat="43.1520417" lon="12.2683967"><ele>263.0</ele><time>2026-04-18T15:09:23.962Z</time></trkpt><trkpt lat="43.1519083" lon="12.2683933"><ele>263.0</ele><time>2026-04-18T15:09:24.962Z</time></trkpt><trkpt lat="43.1517783" lon="12.268395"><ele>263.0</ele><time>2026-04-18T15:09:25.962Z</time></trkpt><trkpt lat="43.15165" lon="12.2683867"><ele>263.0</ele><time>2026-04-18T15:09:26.962Z</time></trkpt><trkpt lat="43.1515217" lon="12.26838"><ele>263.0</ele><time>2026-04-18T15:09:27.962Z</time></trkpt><trkpt lat="43.1514067" lon="12.2683767"><ele>263.6666666666667</ele><time>2026-04-18T15:09:28.962Z</time></trkpt><trkpt lat="43.1513133" lon="12.268375"><ele>264.33333333333337</ele><time>2026-04-18T15:09:29.962Z</time></trkpt><trkpt lat="43.1512217" lon="12.26839"><ele>265.0</ele><time>2026-04-18T15:09:30.962Z</time></trkpt><trkpt lat="43.1511417" lon="12.2684233"><ele>265.6666666666667</ele><time>2026-04-18T15:09:31.962Z</time></trkpt><trkpt lat="43.1510717" lon="12.268475"><ele>266.3333333333333</ele><time>2026-04-18T15:09:32.962Z</time></trkpt><trkpt lat="43.151" lon="12.2685333"><ele>267.0</ele><time>2026-04-18T15:09:33.962Z</time></trkpt><trkpt lat="43.1509267" lon="12.2685983"><ele>267.0</ele><time>2026-04-18T15:09:34.962Z</time></trkpt><trkpt lat="43.1508433" lon="12.2686483"><ele>267.0</ele><time>2026-04-18T15:09:35.962Z</time></trkpt><trkpt lat="43.150745" lon="12.2686983"><ele>267.0</ele><time>2026-04-18T15:09:37.962Z</time></trkpt><trkpt lat="43.1506867" lon="12.26866"><ele>267.0</ele><time>2026-04-18T15:09:51.961Z</time></trkpt><trkpt lat="43.1506767" lon="12.26855"><ele>267.0</ele><time>2026-04-18T15:09:53.961Z</time></trkpt><trkpt lat="43.1506383" lon="12.2684233"><ele>267.0</ele><time>2026-04-18T15:09:55.961Z</time></trkpt><trkpt lat="43.1505583" lon="12.26828"><ele>266.8333333333333</ele><time>2026-04-18T15:09:57.961Z</time></trkpt><trkpt lat="43.15051" lon="12.26819"><ele>266.6666666666667</ele><time>2026-04-18T15:09:58.961Z</time></trkpt><trkpt lat="43.1504633" lon="12.2680867"><ele>266.5</ele><time>2026-04-18T15:09:59.961Z</time></trkpt><trkpt lat="43.150415" lon="12.267975"><ele>266.33333333333337</ele><time>2026-04-18T15:10:00.961Z</time></trkpt><trkpt lat="43.150365" lon="12.2678717"><ele>266.1666666666667</ele><time>2026-04-18T15:10:01.961Z</time></trkpt><trkpt lat="43.150305" lon="12.2677733"><ele>266.0</ele><time>2026-04-18T15:10:02.961Z</time></trkpt><trkpt lat="43.150255" lon="12.2676667"><ele>265.8</ele><time>2026-04-18T15:10:03.961Z</time></trkpt><trkpt lat="43.1501983" lon="12.2675617"><ele>265.6</ele><time>2026-04-18T15:10:04.961Z</time></trkpt><trkpt lat="43.1501433" lon="12.267455"><ele>265.4</ele><time>2026-04-18T15:10:05.961Z</time></trkpt><trkpt lat="43.150075" lon="12.26735"><ele>265.2</ele><time>2026-04-18T15:10:06.961Z</time></trkpt><trkpt lat="43.15001" lon="12.267255"><ele>265.0</ele><time>2026-04-18T15:10:07.961Z</time></trkpt><trkpt lat="43.14995" lon="12.267155"><ele>265.8</ele><time>2026-04-18T15:10:08.961Z</time></trkpt><trkpt lat="43.1498917" lon="12.2670633"><ele>266.6</ele><time>2026-04-18T15:10:09.961Z</time></trkpt><trkpt lat="43.1498233" lon="12.266965"><ele>267.4</ele><time>2026-04-18T15:10:10.961Z</time></trkpt><trkpt lat="43.149755" lon="12.2668717"><ele>268.2</ele><time>2026-04-18T15:10:11.961Z</time></trkpt><trkpt lat="43.14969" lon="12.26678"><ele>269.0</ele><time>2026-04-18T15:10:12.961Z</time></trkpt><trkpt lat="43.1496183" lon="12.2666983"><ele>268.4</ele><time>2026-04-18T15:10:13.961Z</time></trkpt><trkpt lat="43.1495483" lon="12.2665983"><ele>267.79999999999995</ele><time>2026-04-18T15:10:14.961Z</time></trkpt><trkpt lat="43.1494817" lon="12.266505"><ele>267.20000000000005</ele><time>2026-04-18T15:10:15.961Z</time></trkpt><trkpt lat="43.1494167" lon="12.2664133"><ele>266.6</ele><time>2026-04-18T15:10:16.961Z</time></trkpt><trkpt lat="43.1493583" lon="12.2663083"><ele>266.0</ele><time>2026-04-18T15:10:17.961Z</time></trkpt><trkpt lat="43.1492933" lon="12.26621"><ele>266.0</ele><time>2026-04-18T15:10:18.961Z</time></trkpt><trkpt lat="43.14923" lon="12.2661083"><ele>266.0</ele><time>2026-04-18T15:10:19.961Z</time></trkpt><trkpt lat="43.1491567" lon="12.266005"><ele>266.0</ele><time>2026-04-18T15:10:20.961Z</time></trkpt><trkpt lat="43.1490867" lon="12.2658983"><ele>266.0</ele><time>2026-04-18T15:10:21.961Z</time></trkpt><trkpt lat="43.149025" lon="12.26579"><ele>266.0</ele><time>2026-04-18T15:10:22.961Z</time></trkpt><trkpt lat="43.1489633" lon="12.2656783"><ele>266.40000000000003</ele><time>2026-04-18T15:10:23.961Z</time></trkpt><trkpt lat="43.1488967" lon="12.2655717"><ele>266.8</ele><time>2026-04-18T15:10:24.961Z</time></trkpt><trkpt lat="43.1488283" lon="12.265465"><ele>267.20000000000005</ele><time>2026-04-18T15:10:25.961Z</time></trkpt><trkpt lat="43.148755" lon="12.2653767"><ele>267.6</ele><time>2026-04-18T15:10:26.961Z</time></trkpt><trkpt lat="43.14867" lon="12.2652933"><ele>268.0</ele><time>2026-04-18T15:10:27.961Z</time></trkpt><trkpt lat="43.148585" lon="12.2651967"><ele>268.0</ele><time>2026-04-18T15:10:28.961Z</time></trkpt><trkpt lat="43.148505" lon="12.2651283"><ele>268.0</ele><time>2026-04-18T15:10:29.961Z</time></trkpt><trkpt lat="43.148425" lon="12.2650567"><ele>268.0</ele><time>2026-04-18T15:10:30.961Z</time></trkpt><trkpt lat="43.1483467" lon="12.2649883"><ele>268.0</ele><time>2026-04-18T15:10:31.961Z</time></trkpt><trkpt lat="43.1482783" lon="12.264905"><ele>268.0</ele><time>2026-04-18T15:10:32.961Z</time></trkpt><trkpt lat="43.14821" lon="12.2648267"><ele>266.2</ele><time>2026-04-18T15:10:33.961Z</time></trkpt><trkpt lat="43.148135" lon="12.2647467"><ele>264.4</ele><time>2026-04-18T15:10:34.961Z</time></trkpt><trkpt lat="43.1480633" lon="12.2646633"><ele>262.59999999999997</ele><time>2026-04-18T15:10:35.961Z</time></trkpt><trkpt lat="43.1480017" lon="12.2645567"><ele>260.8</ele><time>2026-04-18T15:10:36.961Z</time></trkpt><trkpt lat="43.1479533" lon="12.2644383"><ele>259.0</ele><time>2026-04-18T15:10:37.961Z</time></trkpt><trkpt lat="43.1479133" lon="12.2643183"><ele>259.0</ele><time>2026-04-18T15:10:38.961Z</time></trkpt><trkpt lat="43.1478883" lon="12.2642033"><ele>259.0</ele><time>2026-04-18T15:10:39.961Z</time></trkpt><trkpt lat="43.1478567" lon="12.2641133"><ele>259.0</ele><time>2026-04-18T15:10:40.961Z</time></trkpt><trkpt lat="43.14782" lon="12.2640367"><ele>259.0</ele><time>2026-04-18T15:10:41.961Z</time></trkpt><trkpt lat="43.1477767" lon="12.26395"><ele>259.0</ele><time>2026-04-18T15:10:42.961Z</time></trkpt><trkpt lat="43.1477283" lon="12.263865"><ele>259.0</ele><time>2026-04-18T15:10:43.961Z</time></trkpt><trkpt lat="43.1476783" lon="12.2637783"><ele>258.8</ele><time>2026-04-18T15:10:44.961Z</time></trkpt><trkpt lat="43.1476167" lon="12.2636867"><ele>258.59999999999997</ele><time>2026-04-18T15:10:45.961Z</time></trkpt><trkpt lat="43.147545" lon="12.26359"><ele>258.4</ele><time>2026-04-18T15:10:46.961Z</time></trkpt><trkpt lat="43.1474583" lon="12.2635"><ele>258.2</ele><time>2026-04-18T15:10:47.961Z</time></trkpt><trkpt lat="43.1473617" lon="12.2634033"><ele>258.0</ele><time>2026-04-18T15:10:48.961Z</time></trkpt><trkpt lat="43.1472517" lon="12.2633183"><ele>256.0</ele><time>2026-04-18T15:10:49.961Z</time></trkpt><trkpt lat="43.147135" lon="12.263235"><ele>254.0</ele><time>2026-04-18T15:10:50.961Z</time></trkpt><trkpt lat="43.1470267" lon="12.2631517"><ele>252.0</ele><time>2026-04-18T15:10:51.961Z</time></trkpt><trkpt lat="43.1469183" lon="12.263065"><ele>250.0</ele><time>2026-04-18T15:10:52.961Z</time></trkpt><trkpt lat="43.146815" lon="12.2629817"><ele>250.0</ele><time>2026-04-18T15:10:53.961Z</time></trkpt><trkpt lat="43.1467083" lon="12.2629"><ele>250.0</ele><time>2026-04-18T15:10:54.961Z</time></trkpt><trkpt lat="43.1465983" lon="12.26283"><ele>250.0</ele><time>2026-04-18T15:10:55.961Z</time></trkpt><trkpt lat="43.14648" lon="12.2627767"><ele>250.0</ele><time>2026-04-18T15:10:56.961Z</time></trkpt><trkpt lat="43.1463633" lon="12.262735"><ele>249.5</ele><time>2026-04-18T15:10:57.961Z</time></trkpt><trkpt lat="43.1462467" lon="12.262695"><ele>249.0</ele><time>2026-04-18T15:10:58.961Z</time></trkpt><trkpt lat="43.1461333" lon="12.2626483"><ele>248.5</ele><time>2026-04-18T15:10:59.961Z</time></trkpt><trkpt lat="43.146025" lon="12.2626033"><ele>248.0</ele><time>2026-04-18T15:11:00.961Z</time></trkpt><trkpt lat="43.1459267" lon="12.2625583"><ele>248.0</ele><time>2026-04-18T15:11:01.961Z</time></trkpt><trkpt lat="43.1458317" lon="12.2625183"><ele>248.0</ele><time>2026-04-18T15:11:02.961Z</time></trkpt><trkpt lat="43.14575" lon="12.26248"><ele>248.0</ele><time>2026-04-18T15:11:03.961Z</time></trkpt><trkpt lat="43.145685" lon="12.2624433"><ele>248.0</ele><time>2026-04-18T15:11:04.961Z</time></trkpt><trkpt lat="43.1456083" lon="12.2623517"><ele>248.0</ele><time>2026-04-18T15:11:06.961Z</time></trkpt><trkpt lat="43.1456267" lon="12.2622233"><ele>249.0</ele><time>2026-04-18T15:11:08.961Z</time></trkpt><trkpt lat="43.1456667" lon="12.2621383"><ele>250.0</ele><time>2026-04-18T15:11:09.961Z</time></trkpt><trkpt lat="43.1457283" lon="12.2620117"><ele>251.0</ele><time>2026-04-18T15:11:10.961Z</time></trkpt><trkpt lat="43.145795" lon="12.261875"><ele>252.0</ele><time>2026-04-18T15:11:11.961Z</time></trkpt><trkpt lat="43.145865" lon="12.2617133"><ele>253.0</ele><time>2026-04-18T15:11:12.961Z</time></trkpt><trkpt lat="43.1459283" lon="12.2615583"><ele>254.75</ele><time>2026-04-18T15:11:13.961Z</time></trkpt><trkpt lat="43.1459867" lon="12.2614067"><ele>256.5</ele><time>2026-04-18T15:11:14.961Z</time></trkpt><trkpt lat="43.1460433" lon="12.2612617"><ele>258.25</ele><time>2026-04-18T15:11:15.961Z</time></trkpt><trkpt lat="43.1461083" lon="12.261105"><ele>260.0</ele><time>2026-04-18T15:11:16.961Z</time></trkpt><trkpt lat="43.1461717" lon="12.2609433"><ele>260.0</ele><time>2026-04-18T15:11:17.961Z</time></trkpt><trkpt lat="43.1462383" lon="12.26078"><ele>260.0</ele><time>2026-04-18T15:11:18.961Z</time></trkpt><trkpt lat="43.1463083" lon="12.2606083"><ele>260.0</ele><time>2026-04-18T15:11:19.961Z</time></trkpt><trkpt lat="43.146375" lon="12.26044"><ele>260.0</ele><time>2026-04-18T15:11:20.961Z</time></trkpt><trkpt lat="43.1464483" lon="12.2602667"><ele>259.33333333333337</ele><time>2026-04-18T15:11:21.961Z</time></trkpt><trkpt lat="43.1465217" lon="12.260085"><ele>258.6666666666667</ele><time>2026-04-18T15:11:22.961Z</time></trkpt><trkpt lat="43.1465967" lon="12.2599"><ele>258.0</ele><time>2026-04-18T15:11:23.961Z</time></trkpt><trkpt lat="43.1466733" lon="12.259705"><ele>260.6666666666667</ele><time>2026-04-18T15:11:24.961Z</time></trkpt><trkpt lat="43.1467433" lon="12.2595133"><ele>263.33333333333337</ele><time>2026-04-18T15:11:25.961Z</time></trkpt><trkpt lat="43.1468167" lon="12.2593083"><ele>266.0</ele><time>2026-04-18T15:11:26.961Z</time></trkpt><trkpt lat="43.1468783" lon="12.2591017"><ele>268.33333333333337</ele><time>2026-04-18T15:11:27.961Z</time></trkpt><trkpt lat="43.146935" lon="12.258895"><ele>270.6666666666667</ele><time>2026-04-18T15:11:28.961Z</time></trkpt><trkpt lat="43.146995" lon="12.2586933"><ele>273.0</ele><time>2026-04-18T15:11:29.961Z</time></trkpt><trkpt lat="43.1470533" lon="12.2584733"><ele>273.0</ele><time>2026-04-18T15:11:30.961Z</time></trkpt><trkpt lat="43.1471133" lon="12.258255"><ele>273.0</ele><time>2026-04-18T15:11:31.961Z</time></trkpt><trkpt lat="43.14717" lon="12.2580483"><ele>273.0</ele><time>2026-04-18T15:11:32.961Z</time></trkpt><trkpt lat="43.14723" lon="12.2578317"><ele>274.3333333333333</ele><time>2026-04-18T15:11:33.961Z</time></trkpt><trkpt lat="43.1472917" lon="12.2576183"><ele>275.66666666666663</ele><time>2026-04-18T15:11:34.961Z</time></trkpt><trkpt lat="43.1473483" lon="12.257405"><ele>277.0</ele><time>2026-04-18T15:11:35.961Z</time></trkpt><trkpt lat="43.1474" lon="12.2571967"><ele>277.0</ele><time>2026-04-18T15:11:36.961Z</time></trkpt><trkpt lat="43.147455" lon="12.2569717"><ele>277.0</ele><time>2026-04-18T15:11:37.961Z</time></trkpt><trkpt lat="43.14751" lon="12.2567567"><ele>277.0</ele><time>2026-04-18T15:11:38.961Z</time></trkpt><trkpt lat="43.14757" lon="12.2565417"><ele>278.0</ele><time>2026-04-18T15:11:39.961Z</time></trkpt><trkpt lat="43.1476283" lon="12.256325"><ele>279.0</ele><time>2026-04-18T15:11:40.961Z</time></trkpt><trkpt lat="43.1476883" lon="12.2560983"><ele>280.0</ele><time>2026-04-18T15:11:41.961Z</time></trkpt><trkpt lat="43.14775" lon="12.2558767"><ele>280.0</ele><time>2026-04-18T15:11:42.961Z</time></trkpt><trkpt lat="43.1478083" lon="12.25566"><ele>280.0</ele><time>2026-04-18T15:11:43.961Z</time></trkpt><trkpt lat="43.1478683" lon="12.255455"><ele>280.0</ele><time>2026-04-18T15:11:44.961Z</time></trkpt><trkpt lat="43.1479183" lon="12.25525"><ele>280.0</ele><time>2026-04-18T15:11:45.961Z</time></trkpt><trkpt lat="43.1479517" lon="12.2550567"><ele>280.0</ele><time>2026-04-18T15:11:46.961Z</time></trkpt><trkpt lat="43.1479767" lon="12.2548717"><ele>280.0</ele><time>2026-04-18T15:11:47.961Z</time></trkpt><trkpt lat="43.1479833" lon="12.254675"><ele>280.0</ele><time>2026-04-18T15:11:48.961Z</time></trkpt><trkpt lat="43.14798" lon="12.2544717"><ele>280.0</ele><time>2026-04-18T15:11:49.961Z</time></trkpt><trkpt lat="43.1479567" lon="12.254265"><ele>280.0</ele><time>2026-04-18T15:11:50.961Z</time></trkpt><trkpt lat="43.1479083" lon="12.2540617"><ele>280.0</ele><time>2026-04-18T15:11:51.961Z</time></trkpt><trkpt lat="43.1478483" lon="12.2538483"><ele>282.3333333333333</ele><time>2026-04-18T15:11:52.961Z</time></trkpt><trkpt lat="43.14777" lon="12.2536367"><ele>284.6666666666667</ele><time>2026-04-18T15:11:53.961Z</time></trkpt><trkpt lat="43.1476917" lon="12.253435"><ele>287.0</ele><time>2026-04-18T15:11:54.961Z</time></trkpt><trkpt lat="43.1476083" lon="12.2532267"><ele>289.0</ele><time>2026-04-18T15:11:55.961Z</time></trkpt><trkpt lat="43.1475317" lon="12.2530217"><ele>291.0</ele><time>2026-04-18T15:11:56.961Z</time></trkpt><trkpt lat="43.1474533" lon="12.252825"><ele>293.0</ele><time>2026-04-18T15:11:57.961Z</time></trkpt><trkpt lat="43.147365" lon="12.2526417"><ele>292.5</ele><time>2026-04-18T15:11:58.961Z</time></trkpt><trkpt lat="43.14729" lon="12.2524517"><ele>292.0</ele><time>2026-04-18T15:11:59.961Z</time></trkpt><trkpt lat="43.1472233" lon="12.252265"><ele>291.5</ele><time>2026-04-18T15:12:00.961Z</time></trkpt><trkpt lat="43.147165" lon="12.2520933"><ele>291.0</ele><time>2026-04-18T15:12:01.961Z</time></trkpt><trkpt lat="43.1471167" lon="12.2519483"><ele>291.0</ele><time>2026-04-18T15:12:02.961Z</time></trkpt><trkpt lat="43.1470683" lon="12.25181"><ele>291.0</ele><time>2026-04-18T15:12:03.961Z</time></trkpt><trkpt lat="43.1470167" lon="12.25169"><ele>291.0</ele><time>2026-04-18T15:12:04.961Z</time></trkpt><trkpt lat="43.1469717" lon="12.25157"><ele>291.0</ele><time>2026-04-18T15:12:05.961Z</time></trkpt><trkpt lat="43.1469317" lon="12.2514533"><ele>291.0</ele><time>2026-04-18T15:12:06.96Z</time></trkpt><trkpt lat="43.1468917" lon="12.2513383"><ele>292.0</ele><time>2026-04-18T15:12:07.961Z</time></trkpt><trkpt lat="43.1468467" lon="12.25123"><ele>293.0</ele><time>2026-04-18T15:12:08.961Z</time></trkpt><trkpt lat="43.1468117" lon="12.2511083"><ele>294.0</ele><time>2026-04-18T15:12:09.961Z</time></trkpt><trkpt lat="43.1467833" lon="12.2509867"><ele>295.0</ele><time>2026-04-18T15:12:10.961Z</time></trkpt><trkpt lat="43.1467633" lon="12.250875"><ele>296.0</ele><time>2026-04-18T15:12:11.961Z</time></trkpt><trkpt lat="43.14675" lon="12.2507783"><ele>297.0</ele><time>2026-04-18T15:12:12.961Z</time></trkpt><trkpt lat="43.1467367" lon="12.250685"><ele>296.0</ele><time>2026-04-18T15:12:13.961Z</time></trkpt><trkpt lat="43.146745" lon="12.2505933"><ele>295.0</ele><time>2026-04-18T15:12:14.961Z</time></trkpt><trkpt lat="43.146765" lon="12.2504917"><ele>294.0</ele><time>2026-04-18T15:12:15.961Z</time></trkpt><trkpt lat="43.1468" lon="12.2503783"><ele>293.0</ele><time>2026-04-18T15:12:16.961Z</time></trkpt><trkpt lat="43.146845" lon="12.2502433"><ele>292.0</ele><time>2026-04-18T15:12:17.961Z</time></trkpt><trkpt lat="43.1468983" lon="12.25009"><ele>292.0</ele><time>2026-04-18T15:12:18.961Z</time></trkpt><trkpt lat="43.1469533" lon="12.2499367"><ele>292.0</ele><time>2026-04-18T15:12:19.961Z</time></trkpt><trkpt lat="43.1470033" lon="12.2497967"><ele>292.0</ele><time>2026-04-18T15:12:20.961Z</time></trkpt><trkpt lat="43.1470517" lon="12.2496617"><ele>292.0</ele><time>2026-04-18T15:12:21.961Z</time></trkpt><trkpt lat="43.1470917" lon="12.2495283"><ele>291.16666666666663</ele><time>2026-04-18T15:12:22.961Z</time></trkpt><trkpt lat="43.147135" lon="12.249405"><ele>290.3333333333333</ele><time>2026-04-18T15:12:23.961Z</time></trkpt><trkpt lat="43.1471767" lon="12.2493"><ele>289.5</ele><time>2026-04-18T15:12:24.961Z</time></trkpt><trkpt lat="43.1472283" lon="12.2492067"><ele>288.6666666666667</ele><time>2026-04-18T15:12:25.961Z</time></trkpt><trkpt lat="43.14729" lon="12.2491383"><ele>287.83333333333337</ele><time>2026-04-18T15:12:26.961Z</time></trkpt><trkpt lat="43.147355" lon="12.24907"><ele>287.0</ele><time>2026-04-18T15:12:27.961Z</time></trkpt><trkpt lat="43.1474333" lon="12.249005"><ele>285.4</ele><time>2026-04-18T15:12:28.961Z</time></trkpt><trkpt lat="43.1475233" lon="12.2489367"><ele>283.79999999999995</ele><time>2026-04-18T15:12:29.961Z</time></trkpt><trkpt lat="43.14761" lon="12.248875"><ele>282.2</ele><time>2026-04-18T15:12:30.961Z</time></trkpt><trkpt lat="43.147695" lon="12.24882"><ele>280.59999999999997</ele><time>2026-04-18T15:12:31.961Z</time></trkpt><trkpt lat="43.1477717" lon="12.2487583"><ele>279.0</ele><time>2026-04-18T15:12:32.961Z</time></trkpt><trkpt lat="43.14784" lon="12.2486867"><ele>279.0</ele><time>2026-04-18T15:12:33.961Z</time></trkpt><trkpt lat="43.1478967" lon="12.2486"><ele>279.0</ele><time>2026-04-18T15:12:34.961Z</time></trkpt><trkpt lat="43.1479217" lon="12.2484917"><ele>279.0</ele><time>2026-04-18T15:12:35.961Z</time></trkpt><trkpt lat="43.14792" lon="12.2483783"><ele>279.0</ele><time>2026-04-18T15:12:36.961Z</time></trkpt><trkpt lat="43.1478667" lon="12.24825"><ele>279.0</ele><time>2026-04-18T15:12:37.961Z</time></trkpt><trkpt lat="43.1478" lon="12.24812"><ele>279.0</ele><time>2026-04-18T15:12:38.961Z</time></trkpt><trkpt lat="43.1477367" lon="12.247985"><ele>279.0</ele><time>2026-04-18T15:12:39.961Z</time></trkpt><trkpt lat="43.1476767" lon="12.24785"><ele>279.0</ele><time>2026-04-18T15:12:40.961Z</time></trkpt><trkpt lat="43.1476217" lon="12.2477217"><ele>279.0</ele><time>2026-04-18T15:12:41.961Z</time></trkpt><trkpt lat="43.1475667" lon="12.2475983"><ele>279.0</ele><time>2026-04-18T15:12:42.961Z</time></trkpt><trkpt lat="43.1475117" lon="12.2474767"><ele>279.0</ele><time>2026-04-18T15:12:43.961Z</time></trkpt><trkpt lat="43.147455" lon="12.2473483"><ele>279.0</ele><time>2026-04-18T15:12:44.961Z</time></trkpt><trkpt lat="43.147395" lon="12.24721"><ele>279.0</ele><time>2026-04-18T15:12:45.961Z</time></trkpt><trkpt lat="43.14734" lon="12.2470767"><ele>279.0</ele><time>2026-04-18T15:12:46.961Z</time></trkpt><trkpt lat="43.1472917" lon="12.2469383"><ele>277.0</ele><time>2026-04-18T15:12:47.961Z</time></trkpt><trkpt lat="43.1472467" lon="12.246815"><ele>275.0</ele><time>2026-04-18T15:12:48.961Z</time></trkpt><trkpt lat="43.147235" lon="12.2466917"><ele>273.0</ele><time>2026-04-18T15:12:49.961Z</time></trkpt><trkpt lat="43.147265" lon="12.24656"><ele>271.0</ele><time>2026-04-18T15:12:50.961Z</time></trkpt><trkpt lat="43.1473283" lon="12.2464417"><ele>269.0</ele><time>2026-04-18T15:12:51.961Z</time></trkpt><trkpt lat="43.1474083" lon="12.2463417"><ele>268.5</ele><time>2026-04-18T15:12:52.961Z</time></trkpt><trkpt lat="43.1474983" lon="12.2462333"><ele>268.0</ele><time>2026-04-18T15:12:53.961Z</time></trkpt><trkpt lat="43.147595" lon="12.2461283"><ele>267.5</ele><time>2026-04-18T15:12:54.961Z</time></trkpt><trkpt lat="43.1476883" lon="12.2460217"><ele>267.0</ele><time>2026-04-18T15:12:55.961Z</time></trkpt><trkpt lat="43.1477767" lon="12.24592"><ele>267.0</ele><time>2026-04-18T15:12:56.961Z</time></trkpt><trkpt lat="43.1478617" lon="12.2458183"><ele>267.0</ele><time>2026-04-18T15:12:57.961Z</time></trkpt><trkpt lat="43.1479467" lon="12.245725"><ele>267.0</ele><time>2026-04-18T15:12:58.961Z</time></trkpt><trkpt lat="43.1480317" lon="12.2456417"><ele>267.0</ele><time>2026-04-18T15:12:59.961Z</time></trkpt><trkpt lat="43.14811" lon="12.2455517"><ele>267.0</ele><time>2026-04-18T15:13:00.961Z</time></trkpt><trkpt lat="43.1481817" lon="12.24545"><ele>267.6</ele><time>2026-04-18T15:13:01.961Z</time></trkpt><trkpt lat="43.1482333" lon="12.2453417"><ele>268.2</ele><time>2026-04-18T15:13:02.961Z</time></trkpt><trkpt lat="43.1482683" lon="12.2452167"><ele>268.8</ele><time>2026-04-18T15:13:03.961Z</time></trkpt><trkpt lat="43.1482833" lon="12.2450783"><ele>269.4</ele><time>2026-04-18T15:13:04.961Z</time></trkpt><trkpt lat="43.1482667" lon="12.24494"><ele>270.0</ele><time>2026-04-18T15:13:05.961Z</time></trkpt><trkpt lat="43.1482317" lon="12.2447867"><ele>269.0</ele><time>2026-04-18T15:13:06.961Z</time></trkpt><trkpt lat="43.14817" lon="12.244645"><ele>268.0</ele><time>2026-04-18T15:13:07.961Z</time></trkpt><trkpt lat="43.148105" lon="12.2445167"><ele>267.0</ele><time>2026-04-18T15:13:08.961Z</time></trkpt><trkpt lat="43.14803" lon="12.2443917"><ele>266.0</ele><time>2026-04-18T15:13:09.961Z</time></trkpt><trkpt lat="43.14796" lon="12.244265"><ele>266.0</ele><time>2026-04-18T15:13:10.961Z</time></trkpt><trkpt lat="43.1478883" lon="12.2441317"><ele>266.0</ele><time>2026-04-18T15:13:11.961Z</time></trkpt><trkpt lat="43.1478183" lon="12.2439967"><ele>266.0</ele><time>2026-04-18T15:13:12.961Z</time></trkpt><trkpt lat="43.147755" lon="12.2438583"><ele>266.0</ele><time>2026-04-18T15:13:13.961Z</time></trkpt><trkpt lat="43.14769" lon="12.24373"><ele>267.25</ele><time>2026-04-18T15:13:14.961Z</time></trkpt><trkpt lat="43.147625" lon="12.2436117"><ele>268.5</ele><time>2026-04-18T15:13:15.961Z</time></trkpt><trkpt lat="43.14756" lon="12.243475"><ele>269.75</ele><time>2026-04-18T15:13:16.961Z</time></trkpt><trkpt lat="43.1475033" lon="12.2433333"><ele>271.0</ele><time>2026-04-18T15:13:17.961Z</time></trkpt><trkpt lat="43.1474567" lon="12.2431933"><ele>270.0</ele><time>2026-04-18T15:13:18.961Z</time></trkpt><trkpt lat="43.14742" lon="12.2430367"><ele>269.0</ele><time>2026-04-18T15:13:19.961Z</time></trkpt><trkpt lat="43.1473783" lon="12.24289"><ele>268.0</ele><time>2026-04-18T15:13:20.961Z</time></trkpt><trkpt lat="43.1473417" lon="12.242735"><ele>267.0</ele><time>2026-04-18T15:13:21.961Z</time></trkpt><trkpt lat="43.1473083" lon="12.2425767"><ele>265.75</ele><time>2026-04-18T15:13:22.961Z</time></trkpt><trkpt lat="43.1472667" lon="12.2424233"><ele>264.5</ele><time>2026-04-18T15:13:23.961Z</time></trkpt><trkpt lat="43.1472417" lon="12.242265"><ele>263.25</ele><time>2026-04-18T15:13:24.961Z</time></trkpt><trkpt lat="43.1472133" lon="12.2421117"><ele>262.0</ele><time>2026-04-18T15:13:25.961Z</time></trkpt><trkpt lat="43.147185" lon="12.241955"><ele>261.75</ele><time>2026-04-18T15:13:26.961Z</time></trkpt><trkpt lat="43.1471583" lon="12.2417983"><ele>261.5</ele><time>2026-04-18T15:13:27.961Z</time></trkpt><trkpt lat="43.14713" lon="12.2416417"><ele>261.25</ele><time>2026-04-18T15:13:28.961Z</time></trkpt><trkpt lat="43.1471017" lon="12.2414867"><ele>261.0</ele><time>2026-04-18T15:13:29.961Z</time></trkpt><trkpt lat="43.1470767" lon="12.2413283"><ele>261.0</ele><time>2026-04-18T15:13:30.961Z</time></trkpt><trkpt lat="43.1470567" lon="12.2411733"><ele>261.0</ele><time>2026-04-18T15:13:31.961Z</time></trkpt><trkpt lat="43.1470317" lon="12.24103"><ele>261.0</ele><time>2026-04-18T15:13:32.961Z</time></trkpt><trkpt lat="43.1470083" lon="12.2408883"><ele>261.0</ele><time>2026-04-18T15:13:33.961Z</time></trkpt><trkpt lat="43.1469867" lon="12.2407533"><ele>261.0</ele><time>2026-04-18T15:13:34.961Z</time></trkpt><trkpt lat="43.1469633" lon="12.2406083"><ele>261.25</ele><time>2026-04-18T15:13:35.961Z</time></trkpt><trkpt lat="43.146935" lon="12.2404633"><ele>261.5</ele><time>2026-04-18T15:13:36.961Z</time></trkpt><trkpt lat="43.1469017" lon="12.24031"><ele>261.75</ele><time>2026-04-18T15:13:37.961Z</time></trkpt><trkpt lat="43.1468767" lon="12.24016"><ele>262.0</ele><time>2026-04-18T15:13:38.961Z</time></trkpt><trkpt lat="43.146855" lon="12.240005"><ele>262.0</ele><time>2026-04-18T15:13:39.961Z</time></trkpt><trkpt lat="43.1468333" lon="12.2398517"><ele>262.0</ele><time>2026-04-18T15:13:40.961Z</time></trkpt><trkpt lat="43.1468067" lon="12.239705"><ele>262.0</ele><time>2026-04-18T15:13:41.961Z</time></trkpt><trkpt lat="43.1467867" lon="12.2395583"><ele>262.0</ele><time>2026-04-18T15:13:42.961Z</time></trkpt><trkpt lat="43.1467533" lon="12.2394133"><ele>262.0</ele><time>2026-04-18T15:13:43.961Z</time></trkpt><trkpt lat="43.146725" lon="12.2392633"><ele>261.5</ele><time>2026-04-18T15:13:44.961Z</time></trkpt><trkpt lat="43.1466983" lon="12.2391033"><ele>261.0</ele><time>2026-04-18T15:13:45.961Z</time></trkpt><trkpt lat="43.1466683" lon="12.2389367"><ele>260.5</ele><time>2026-04-18T15:13:46.961Z</time></trkpt><trkpt lat="43.146635" lon="12.2387667"><ele>260.0</ele><time>2026-04-18T15:13:47.961Z</time></trkpt><trkpt lat="43.1466" lon="12.238605"><ele>259.25</ele><time>2026-04-18T15:13:48.961Z</time></trkpt><trkpt lat="43.1465717" lon="12.2384467"><ele>258.5</ele><time>2026-04-18T15:13:49.961Z</time></trkpt><trkpt lat="43.1465433" lon="12.2382933"><ele>257.75</ele><time>2026-04-18T15:13:50.961Z</time></trkpt><trkpt lat="43.1465167" lon="12.2381383"><ele>257.0</ele><time>2026-04-18T15:13:51.961Z</time></trkpt><trkpt lat="43.146495" lon="12.2379783"><ele>256.0</ele><time>2026-04-18T15:13:52.961Z</time></trkpt><trkpt lat="43.1464683" lon="12.2378233"><ele>255.0</ele><time>2026-04-18T15:13:53.961Z</time></trkpt><trkpt lat="43.1464433" lon="12.2376683"><ele>254.0</ele><time>2026-04-18T15:13:54.961Z</time></trkpt><trkpt lat="43.1464167" lon="12.2375117"><ele>253.0</ele><time>2026-04-18T15:13:55.961Z</time></trkpt><trkpt lat="43.1463917" lon="12.2373567"><ele>253.0</ele><time>2026-04-18T15:13:56.961Z</time></trkpt><trkpt lat="43.146365" lon="12.2372017"><ele>253.0</ele><time>2026-04-18T15:13:57.961Z</time></trkpt><trkpt lat="43.1463383" lon="12.2370517"><ele>253.0</ele><time>2026-04-18T15:13:58.961Z</time></trkpt><trkpt lat="43.1463083" lon="12.2369067"><ele>253.0</ele><time>2026-04-18T15:13:59.961Z</time></trkpt><trkpt lat="43.1462717" lon="12.2367767"><ele>253.0</ele><time>2026-04-18T15:14:00.961Z</time></trkpt><trkpt lat="43.146235" lon="12.2366533"><ele>253.0</ele><time>2026-04-18T15:14:01.961Z</time></trkpt><trkpt lat="43.1461783" lon="12.2365417"><ele>253.0</ele><time>2026-04-18T15:14:02.961Z</time></trkpt><trkpt lat="43.1461117" lon="12.236435"><ele>253.0</ele><time>2026-04-18T15:14:03.961Z</time></trkpt><trkpt lat="43.1460317" lon="12.23635"><ele>253.0</ele><time>2026-04-18T15:14:04.961Z</time></trkpt><trkpt lat="43.1459517" lon="12.236255"><ele>253.0</ele><time>2026-04-18T15:14:05.961Z</time></trkpt><trkpt lat="43.1458667" lon="12.236195"><ele>253.16666666666666</ele><time>2026-04-18T15:14:06.961Z</time></trkpt><trkpt lat="43.145785" lon="12.236145"><ele>253.33333333333331</ele><time>2026-04-18T15:14:07.961Z</time></trkpt><trkpt lat="43.1457083" lon="12.2360983"><ele>253.5</ele><time>2026-04-18T15:14:08.961Z</time></trkpt><trkpt lat="43.14564" lon="12.23606"><ele>253.66666666666669</ele><time>2026-04-18T15:14:09.961Z</time></trkpt><trkpt lat="43.1455683" lon="12.2360417"><ele>253.83333333333334</ele><time>2026-04-18T15:14:10.961Z</time></trkpt><trkpt lat="43.145455" lon="12.236005"><ele>254.0</ele><time>2026-04-18T15:14:12.961Z</time></trkpt><trkpt lat="43.1454033" lon="12.2359417"><ele>254.0</ele><time>2026-04-18T15:14:14.961Z</time></trkpt><trkpt lat="43.145345" lon="12.23584"><ele>253.99999999999997</ele><time>2026-04-18T15:14:17.961Z</time></trkpt><trkpt lat="43.14534" lon="12.2357083"><ele>253.99999999999997</ele><time>2026-04-18T15:14:19.961Z</time></trkpt><trkpt lat="43.145355" lon="12.2355633"><ele>254.0</ele><time>2026-04-18T15:14:21.961Z</time></trkpt><trkpt lat="43.1453567" lon="12.23538"><ele>254.0</ele><time>2026-04-18T15:14:23.961Z</time></trkpt><trkpt lat="43.14536" lon="12.2352667"><ele>253.79999999999998</ele><time>2026-04-18T15:14:24.961Z</time></trkpt><trkpt lat="43.1453667" lon="12.2351517"><ele>253.59999999999997</ele><time>2026-04-18T15:14:25.961Z</time></trkpt><trkpt lat="43.1453767" lon="12.235025"><ele>253.4</ele><time>2026-04-18T15:14:26.961Z</time></trkpt><trkpt lat="43.14539" lon="12.2348833"><ele>253.2</ele><time>2026-04-18T15:14:27.961Z</time></trkpt><trkpt lat="43.1453983" lon="12.2347417"><ele>253.0</ele><time>2026-04-18T15:14:28.961Z</time></trkpt><trkpt lat="43.14541" lon="12.2345983"><ele>253.0</ele><time>2026-04-18T15:14:29.961Z</time></trkpt><trkpt lat="43.1454267" lon="12.23446"><ele>253.0</ele><time>2026-04-18T15:14:30.961Z</time></trkpt><trkpt lat="43.14544" lon="12.2343183"><ele>253.0</ele><time>2026-04-18T15:14:31.961Z</time></trkpt><trkpt lat="43.1454583" lon="12.2341833"><ele>253.0</ele><time>2026-04-18T15:14:32.961Z</time></trkpt><trkpt lat="43.1454717" lon="12.23405"><ele>253.0</ele><time>2026-04-18T15:14:33.961Z</time></trkpt><trkpt lat="43.1454883" lon="12.2339133"><ele>252.8</ele><time>2026-04-18T15:14:34.961Z</time></trkpt><trkpt lat="43.145505" lon="12.233775"><ele>252.60000000000002</ele><time>2026-04-18T15:14:35.961Z</time></trkpt><trkpt lat="43.1455183" lon="12.2336433"><ele>252.39999999999998</ele><time>2026-04-18T15:14:36.961Z</time></trkpt><trkpt lat="43.1455333" lon="12.2335117"><ele>252.2</ele><time>2026-04-18T15:14:37.961Z</time></trkpt><trkpt lat="43.1455467" lon="12.2333767"><ele>252.0</ele><time>2026-04-18T15:14:38.961Z</time></trkpt><trkpt lat="43.1455517" lon="12.2332417"><ele>252.0</ele><time>2026-04-18T15:14:39.961Z</time></trkpt><trkpt lat="43.145555" lon="12.23311"><ele>252.0</ele><time>2026-04-18T15:14:40.961Z</time></trkpt><trkpt lat="43.1455533" lon="12.23298"><ele>252.0</ele><time>2026-04-18T15:14:41.961Z</time></trkpt><trkpt lat="43.145535" lon="12.2328483"><ele>252.0</ele><time>2026-04-18T15:14:42.961Z</time></trkpt><trkpt lat="43.1454983" lon="12.232715"><ele>252.0</ele><time>2026-04-18T15:14:43.961Z</time></trkpt><trkpt lat="43.1454583" lon="12.2325667"><ele>252.0</ele><time>2026-04-18T15:14:44.961Z</time></trkpt><trkpt lat="43.1454133" lon="12.2324067"><ele>252.0</ele><time>2026-04-18T15:14:45.961Z</time></trkpt><trkpt lat="43.1453667" lon="12.2322517"><ele>252.0</ele><time>2026-04-18T15:14:46.961Z</time></trkpt><trkpt lat="43.145315" lon="12.2321"><ele>252.0</ele><time>2026-04-18T15:14:47.961Z</time></trkpt><trkpt lat="43.1452583" lon="12.23194"><ele>252.25</ele><time>2026-04-18T15:14:48.961Z</time></trkpt><trkpt lat="43.1452083" lon="12.2317667"><ele>252.5</ele><time>2026-04-18T15:14:49.961Z</time></trkpt><trkpt lat="43.1451533" lon="12.231615"><ele>252.75</ele><time>2026-04-18T15:14:50.961Z</time></trkpt><trkpt lat="43.1451" lon="12.23148"><ele>253.0</ele><time>2026-04-18T15:14:51.961Z</time></trkpt><trkpt lat="43.1450233" lon="12.2313517"><ele>253.5</ele><time>2026-04-18T15:14:52.961Z</time></trkpt><trkpt lat="43.1449433" lon="12.231215"><ele>254.0</ele><time>2026-04-18T15:14:53.961Z</time></trkpt><trkpt lat="43.1448583" lon="12.231085"><ele>254.5</ele><time>2026-04-18T15:14:54.96Z</time></trkpt><trkpt lat="43.1447667" lon="12.2309567"><ele>255.0</ele><time>2026-04-18T15:14:55.96Z</time></trkpt><trkpt lat="43.1446633" lon="12.2308167"><ele>254.5</ele><time>2026-04-18T15:14:56.96Z</time></trkpt><trkpt lat="43.1445583" lon="12.2306733"><ele>254.0</ele><time>2026-04-18T15:14:57.96Z</time></trkpt><trkpt lat="43.1444633" lon="12.230535"><ele>253.5</ele><time>2026-04-18T15:14:58.96Z</time></trkpt><trkpt lat="43.1443767" lon="12.2304033"><ele>253.0</ele><time>2026-04-18T15:14:59.96Z</time></trkpt><trkpt lat="43.1442967" lon="12.23027"><ele>253.0</ele><time>2026-04-18T15:15:00.96Z</time></trkpt><trkpt lat="43.14424" lon="12.2301417"><ele>253.0</ele><time>2026-04-18T15:15:01.96Z</time></trkpt><trkpt lat="43.1441817" lon="12.2300217"><ele>253.0</ele><time>2026-04-18T15:15:02.96Z</time></trkpt><trkpt lat="43.14414" lon="12.2298917"><ele>253.0</ele><time>2026-04-18T15:15:03.96Z</time></trkpt><trkpt lat="43.1440883" lon="12.2297667"><ele>253.0</ele><time>2026-04-18T15:15:04.96Z</time></trkpt><trkpt lat="43.1440317" lon="12.2296183"><ele>251.25</ele><time>2026-04-18T15:15:05.96Z</time></trkpt><trkpt lat="43.1439767" lon="12.2294567"><ele>249.5</ele><time>2026-04-18T15:15:06.96Z</time></trkpt><trkpt lat="43.14392" lon="12.229295"><ele>247.75</ele><time>2026-04-18T15:15:07.96Z</time></trkpt><trkpt lat="43.143865" lon="12.22913"><ele>246.0</ele><time>2026-04-18T15:15:08.96Z</time></trkpt><trkpt lat="43.1438117" lon="12.2289667"><ele>246.0</ele><time>2026-04-18T15:15:09.96Z</time></trkpt><trkpt lat="43.143765" lon="12.2287917"><ele>246.0</ele><time>2026-04-18T15:15:10.96Z</time></trkpt><trkpt lat="43.143725" lon="12.2286117"><ele>246.0</ele><time>2026-04-18T15:15:11.96Z</time></trkpt><trkpt lat="43.1436783" lon="12.228435"><ele>246.0</ele><time>2026-04-18T15:15:12.96Z</time></trkpt><trkpt lat="43.1436383" lon="12.22826"><ele>246.0</ele><time>2026-04-18T15:15:13.96Z</time></trkpt><trkpt lat="43.1436" lon="12.2280883"><ele>246.0</ele><time>2026-04-18T15:15:14.96Z</time></trkpt><trkpt lat="43.1435633" lon="12.2279217"><ele>246.0</ele><time>2026-04-18T15:15:15.96Z</time></trkpt><trkpt lat="43.1435267" lon="12.2277583"><ele>246.0</ele><time>2026-04-18T15:15:16.96Z</time></trkpt><trkpt lat="43.143495" lon="12.22759"><ele>246.0</ele><time>2026-04-18T15:15:17.96Z</time></trkpt><trkpt lat="43.14346" lon="12.22742"><ele>246.0</ele><time>2026-04-18T15:15:18.96Z</time></trkpt><trkpt lat="43.1434217" lon="12.2272517"><ele>246.0</ele><time>2026-04-18T15:15:19.96Z</time></trkpt><trkpt lat="43.1433867" lon="12.2270917"><ele>246.0</ele><time>2026-04-18T15:15:20.96Z</time></trkpt><trkpt lat="43.1433533" lon="12.22694"><ele>246.0</ele><time>2026-04-18T15:15:21.96Z</time></trkpt><trkpt lat="43.14332" lon="12.2267883"><ele>246.00000000000003</ele><time>2026-04-18T15:15:22.96Z</time></trkpt><trkpt lat="43.1432833" lon="12.226645"><ele>246.00000000000003</ele><time>2026-04-18T15:15:23.96Z</time></trkpt><trkpt lat="43.143245" lon="12.22651"><ele>246.0</ele><time>2026-04-18T15:15:24.96Z</time></trkpt><trkpt lat="43.1432" lon="12.2263883"><ele>246.0</ele><time>2026-04-18T15:15:25.96Z</time></trkpt><trkpt lat="43.1431467" lon="12.2262783"><ele>244.83333333333334</ele><time>2026-04-18T15:15:26.959Z</time></trkpt><trkpt lat="43.1430817" lon="12.22619"><ele>243.66666666666669</ele><time>2026-04-18T15:15:27.96Z</time></trkpt><trkpt lat="43.1430083" lon="12.2261233"><ele>242.5</ele><time>2026-04-18T15:15:28.96Z</time></trkpt><trkpt lat="43.1429233" lon="12.226085"><ele>241.33333333333334</ele><time>2026-04-18T15:15:29.96Z</time></trkpt><trkpt lat="43.1428333" lon="12.226075"><ele>240.16666666666669</ele><time>2026-04-18T15:15:30.96Z</time></trkpt><trkpt lat="43.142745" lon="12.2260667"><ele>239.0</ele><time>2026-04-18T15:15:31.96Z</time></trkpt><trkpt lat="43.142665" lon="12.2260483"><ele>239.00000000000003</ele><time>2026-04-18T15:15:32.96Z</time></trkpt><trkpt lat="43.14258" lon="12.226025"><ele>239.0</ele><time>2026-04-18T15:15:33.96Z</time></trkpt><trkpt lat="43.1424967" lon="12.2260083"><ele>239.0</ele><time>2026-04-18T15:15:34.96Z</time></trkpt><trkpt lat="43.14241" lon="12.22597"><ele>239.0</ele><time>2026-04-18T15:15:35.96Z</time></trkpt><trkpt lat="43.14236" lon="12.2259083"><ele>239.00000000000003</ele><time>2026-04-18T15:15:36.96Z</time></trkpt><trkpt lat="43.1423183" lon="12.225835"><ele>239.0</ele><time>2026-04-18T15:15:38.96Z</time></trkpt><trkpt lat="43.1422383" lon="12.22578"><ele>238.83333333333334</ele><time>2026-04-18T15:15:40.96Z</time></trkpt><trkpt lat="43.1421367" lon="12.2256983"><ele>238.66666666666669</ele><time>2026-04-18T15:15:42.96Z</time></trkpt><trkpt lat="43.142085" lon="12.2256483"><ele>238.5</ele><time>2026-04-18T15:15:43.96Z</time></trkpt><trkpt lat="43.14203" lon="12.2255983"><ele>238.33333333333331</ele><time>2026-04-18T15:15:44.96Z</time></trkpt><trkpt lat="43.141975" lon="12.2255533"><ele>238.16666666666666</ele><time>2026-04-18T15:15:45.96Z</time></trkpt><trkpt lat="43.141885" lon="12.2254383"><ele>238.0</ele><time>2026-04-18T15:15:47.96Z</time></trkpt><trkpt lat="43.1418533" lon="12.22531"><ele>237.83333333333331</ele><time>2026-04-18T15:15:49.96Z</time></trkpt><trkpt lat="43.1418717" lon="12.225225"><ele>237.66666666666666</ele><time>2026-04-18T15:15:50.96Z</time></trkpt><trkpt lat="43.1418967" lon="12.22513"><ele>237.5</ele><time>2026-04-18T15:15:51.96Z</time></trkpt><trkpt lat="43.1419233" lon="12.22502"><ele>237.33333333333331</ele><time>2026-04-18T15:15:52.96Z</time></trkpt><trkpt lat="43.1419517" lon="12.2249083"><ele>237.16666666666666</ele><time>2026-04-18T15:15:53.96Z</time></trkpt><trkpt lat="43.1419817" lon="12.224795"><ele>237.0</ele><time>2026-04-18T15:15:54.96Z</time></trkpt><trkpt lat="43.1420117" lon="12.2246833"><ele>236.6</ele><time>2026-04-18T15:15:55.96Z</time></trkpt><trkpt lat="43.14204" lon="12.2245717"><ele>236.2</ele><time>2026-04-18T15:15:56.96Z</time></trkpt><trkpt lat="43.14207" lon="12.2244533"><ele>235.8</ele><time>2026-04-18T15:15:57.96Z</time></trkpt><trkpt lat="43.1420983" lon="12.22433"><ele>235.4</ele><time>2026-04-18T15:15:58.96Z</time></trkpt><trkpt lat="43.1421267" lon="12.224205"><ele>235.0</ele><time>2026-04-18T15:15:59.96Z</time></trkpt><trkpt lat="43.14216" lon="12.224075"><ele>235.2</ele><time>2026-04-18T15:16:00.96Z</time></trkpt><trkpt lat="43.1421933" lon="12.2239383"><ele>235.4</ele><time>2026-04-18T15:16:01.96Z</time></trkpt><trkpt lat="43.1422283" lon="12.2237967"><ele>235.60000000000002</ele><time>2026-04-18T15:16:02.96Z</time></trkpt><trkpt lat="43.1422667" lon="12.2236483"><ele>235.8</ele><time>2026-04-18T15:16:03.96Z</time></trkpt><trkpt lat="43.142305" lon="12.223495"><ele>236.0</ele><time>2026-04-18T15:16:04.96Z</time></trkpt><trkpt lat="43.1423417" lon="12.2233417"><ele>236.0</ele><time>2026-04-18T15:16:05.96Z</time></trkpt><trkpt lat="43.1423767" lon="12.22319"><ele>236.0</ele><time>2026-04-18T15:16:06.96Z</time></trkpt><trkpt lat="43.1424133" lon="12.2230333"><ele>236.0</ele><time>2026-04-18T15:16:07.96Z</time></trkpt><trkpt lat="43.1424517" lon="12.2228767"><ele>236.0</ele><time>2026-04-18T15:16:08.96Z</time></trkpt><trkpt lat="43.14249" lon="12.22272"><ele>236.75</ele><time>2026-04-18T15:16:09.96Z</time></trkpt><trkpt lat="43.1425267" lon="12.2225617"><ele>237.5</ele><time>2026-04-18T15:16:10.96Z</time></trkpt><trkpt lat="43.142565" lon="12.2224083"><ele>238.25</ele><time>2026-04-18T15:16:11.96Z</time></trkpt><trkpt lat="43.1426033" lon="12.2222567"><ele>239.0</ele><time>2026-04-18T15:16:12.96Z</time></trkpt><trkpt lat="43.14264" lon="12.222105"><ele>239.0</ele><time>2026-04-18T15:16:13.96Z</time></trkpt><trkpt lat="43.1426783" lon="12.221955"><ele>239.0</ele><time>2026-04-18T15:16:14.96Z</time></trkpt><trkpt lat="43.1427167" lon="12.2218017"><ele>239.0</ele><time>2026-04-18T15:16:15.96Z</time></trkpt><trkpt lat="43.142755" lon="12.2216517"><ele>239.0</ele><time>2026-04-18T15:16:16.96Z</time></trkpt><trkpt lat="43.14279" lon="12.2215033"><ele>239.5</ele><time>2026-04-18T15:16:17.96Z</time></trkpt><trkpt lat="43.142825" lon="12.2213533"><ele>240.0</ele><time>2026-04-18T15:16:18.96Z</time></trkpt><trkpt lat="43.14286" lon="12.221215"><ele>240.5</ele><time>2026-04-18T15:16:19.96Z</time></trkpt><trkpt lat="43.1428983" lon="12.2210617"><ele>241.0</ele><time>2026-04-18T15:16:20.96Z</time></trkpt><trkpt lat="43.1429383" lon="12.2209067"><ele>241.0</ele><time>2026-04-18T15:16:21.96Z</time></trkpt><trkpt lat="43.14298" lon="12.22075"><ele>241.0</ele><time>2026-04-18T15:16:22.96Z</time></trkpt><trkpt lat="43.1430217" lon="12.2205883"><ele>241.0</ele><time>2026-04-18T15:16:23.96Z</time></trkpt><trkpt lat="43.14306" lon="12.2204267"><ele>241.0</ele><time>2026-04-18T15:16:24.96Z</time></trkpt><trkpt lat="43.1431" lon="12.2202633"><ele>241.0</ele><time>2026-04-18T15:16:25.96Z</time></trkpt><trkpt lat="43.1431367" lon="12.2201067"><ele>241.0</ele><time>2026-04-18T15:16:26.96Z</time></trkpt><trkpt lat="43.143175" lon="12.2199583"><ele>241.0</ele><time>2026-04-18T15:16:27.96Z</time></trkpt><trkpt lat="43.14321" lon="12.219815"><ele>241.0</ele><time>2026-04-18T15:16:28.96Z</time></trkpt><trkpt lat="43.143245" lon="12.2196717"><ele>241.0</ele><time>2026-04-18T15:16:29.96Z</time></trkpt><trkpt lat="43.14328" lon="12.2195267"><ele>241.00000000000003</ele><time>2026-04-18T15:16:30.96Z</time></trkpt><trkpt lat="43.1433167" lon="12.2193833"><ele>241.00000000000003</ele><time>2026-04-18T15:16:31.96Z</time></trkpt><trkpt lat="43.1433533" lon="12.21924"><ele>241.0</ele><time>2026-04-18T15:16:32.96Z</time></trkpt><trkpt lat="43.1433833" lon="12.219095"><ele>241.0</ele><time>2026-04-18T15:16:33.96Z</time></trkpt><trkpt lat="43.1434167" lon="12.2189533"><ele>240.75</ele><time>2026-04-18T15:16:34.96Z</time></trkpt><trkpt lat="43.1434533" lon="12.218815"><ele>240.5</ele><time>2026-04-18T15:16:35.96Z</time></trkpt><trkpt lat="43.1434933" lon="12.218665"><ele>240.25</ele><time>2026-04-18T15:16:36.96Z</time></trkpt><trkpt lat="43.14353" lon="12.21851"><ele>240.0</ele><time>2026-04-18T15:16:37.96Z</time></trkpt><trkpt lat="43.1435667" lon="12.21837"><ele>240.0</ele><time>2026-04-18T15:16:38.96Z</time></trkpt><trkpt lat="43.143605" lon="12.2182217"><ele>240.0</ele><time>2026-04-18T15:16:39.96Z</time></trkpt><trkpt lat="43.14364" lon="12.2180733"><ele>240.0</ele><time>2026-04-18T15:16:40.96Z</time></trkpt><trkpt lat="43.1436817" lon="12.2179267"><ele>240.0</ele><time>2026-04-18T15:16:41.96Z</time></trkpt><trkpt lat="43.14372" lon="12.21778"><ele>239.75</ele><time>2026-04-18T15:16:42.96Z</time></trkpt><trkpt lat="43.1437583" lon="12.2176333"><ele>239.5</ele><time>2026-04-18T15:16:43.96Z</time></trkpt><trkpt lat="43.1437967" lon="12.2174833"><ele>239.25</ele><time>2026-04-18T15:16:44.96Z</time></trkpt><trkpt lat="43.1438317" lon="12.2173333"><ele>239.0</ele><time>2026-04-18T15:16:45.96Z</time></trkpt><trkpt lat="43.1438667" lon="12.2171933"><ele>238.6</ele><time>2026-04-18T15:16:46.96Z</time></trkpt><trkpt lat="43.1439017" lon="12.2170517"><ele>238.2</ele><time>2026-04-18T15:16:47.96Z</time></trkpt><trkpt lat="43.143935" lon="12.21691"><ele>237.79999999999998</ele><time>2026-04-18T15:16:48.96Z</time></trkpt><trkpt lat="43.14397" lon="12.2167733"><ele>237.39999999999998</ele><time>2026-04-18T15:16:49.96Z</time></trkpt><trkpt lat="43.1440033" lon="12.2166383"><ele>237.0</ele><time>2026-04-18T15:16:50.96Z</time></trkpt><trkpt lat="43.1440333" lon="12.2164983"><ele>237.25</ele><time>2026-04-18T15:16:51.96Z</time></trkpt><trkpt lat="43.14407" lon="12.2163533"><ele>237.5</ele><time>2026-04-18T15:16:52.96Z</time></trkpt><trkpt lat="43.1441033" lon="12.2162033"><ele>237.75</ele><time>2026-04-18T15:16:53.96Z</time></trkpt><trkpt lat="43.1441383" lon="12.21605"><ele>238.0</ele><time>2026-04-18T15:16:54.96Z</time></trkpt><trkpt lat="43.1441783" lon="12.215905"><ele>238.0</ele><time>2026-04-18T15:16:55.96Z</time></trkpt><trkpt lat="43.1442183" lon="12.2157617"><ele>238.0</ele><time>2026-04-18T15:16:56.96Z</time></trkpt><trkpt lat="43.1442583" lon="12.2156167"><ele>238.0</ele><time>2026-04-18T15:16:57.96Z</time></trkpt><trkpt lat="43.1442967" lon="12.2154733"><ele>238.0</ele><time>2026-04-18T15:16:58.96Z</time></trkpt><trkpt lat="43.144335" lon="12.2153317"><ele>238.0</ele><time>2026-04-18T15:16:59.96Z</time></trkpt><trkpt lat="43.14437" lon="12.21519"><ele>238.0</ele><time>2026-04-18T15:17:00.96Z</time></trkpt><trkpt lat="43.1444033" lon="12.215045"><ele>238.0</ele><time>2026-04-18T15:17:01.96Z</time></trkpt><trkpt lat="43.1444383" lon="12.2149"><ele>238.0</ele><time>2026-04-18T15:17:02.96Z</time></trkpt><trkpt lat="43.1444817" lon="12.214755"><ele>238.0</ele><time>2026-04-18T15:17:03.96Z</time></trkpt><trkpt lat="43.14452" lon="12.214615"><ele>238.0</ele><time>2026-04-18T15:17:04.96Z</time></trkpt><trkpt lat="43.1445583" lon="12.2144717"><ele>238.0</ele><time>2026-04-18T15:17:05.96Z</time></trkpt><trkpt lat="43.1445933" lon="12.2143317"><ele>238.0</ele><time>2026-04-18T15:17:06.96Z</time></trkpt><trkpt lat="43.1446267" lon="12.2141967"><ele>238.0</ele><time>2026-04-18T15:17:07.96Z</time></trkpt><trkpt lat="43.144665" lon="12.214055"><ele>238.0</ele><time>2026-04-18T15:17:08.96Z</time></trkpt><trkpt lat="43.1447" lon="12.213915"><ele>238.0</ele><time>2026-04-18T15:17:09.96Z</time></trkpt><trkpt lat="43.14474" lon="12.2137633"><ele>238.25</ele><time>2026-04-18T15:17:10.96Z</time></trkpt><trkpt lat="43.1447817" lon="12.2136083"><ele>238.5</ele><time>2026-04-18T15:17:11.96Z</time></trkpt><trkpt lat="43.1448233" lon="12.2134583"><ele>238.75</ele><time>2026-04-18T15:17:12.96Z</time></trkpt><trkpt lat="43.1448617" lon="12.21331"><ele>239.0</ele><time>2026-04-18T15:17:13.96Z</time></trkpt><trkpt lat="43.1448983" lon="12.2131583"><ele>240.0</ele><time>2026-04-18T15:17:14.96Z</time></trkpt><trkpt lat="43.1449367" lon="12.2130017"><ele>241.0</ele><time>2026-04-18T15:17:15.96Z</time></trkpt><trkpt lat="43.1449783" lon="12.2128467"><ele>242.0</ele><time>2026-04-18T15:17:16.96Z</time></trkpt><trkpt lat="43.1450167" lon="12.21269"><ele>243.0</ele><time>2026-04-18T15:17:17.96Z</time></trkpt><trkpt lat="43.145055" lon="12.2125317"><ele>243.0</ele><time>2026-04-18T15:17:18.96Z</time></trkpt><trkpt lat="43.1450967" lon="12.21237"><ele>243.0</ele><time>2026-04-18T15:17:19.96Z</time></trkpt><trkpt lat="43.145135" lon="12.21221"><ele>243.0</ele><time>2026-04-18T15:17:20.96Z</time></trkpt><trkpt lat="43.1451667" lon="12.2120433"><ele>243.0</ele><time>2026-04-18T15:17:21.96Z</time></trkpt><trkpt lat="43.1452033" lon="12.211885"><ele>244.0</ele><time>2026-04-18T15:17:22.96Z</time></trkpt><trkpt lat="43.14524" lon="12.21172"><ele>245.0</ele><time>2026-04-18T15:17:23.96Z</time></trkpt><trkpt lat="43.14528" lon="12.2115583"><ele>246.0</ele><time>2026-04-18T15:17:24.96Z</time></trkpt><trkpt lat="43.1453167" lon="12.2113933"><ele>247.0</ele><time>2026-04-18T15:17:25.96Z</time></trkpt><trkpt lat="43.1453483" lon="12.21123"><ele>248.75</ele><time>2026-04-18T15:17:26.96Z</time></trkpt><trkpt lat="43.1453867" lon="12.2110633"><ele>250.5</ele><time>2026-04-18T15:17:27.96Z</time></trkpt><trkpt lat="43.1454217" lon="12.2108983"><ele>252.25</ele><time>2026-04-18T15:17:28.96Z</time></trkpt><trkpt lat="43.145455" lon="12.210755"><ele>254.0</ele><time>2026-04-18T15:17:29.96Z</time></trkpt><trkpt lat="43.1454817" lon="12.21063"><ele>255.50000000000003</ele><time>2026-04-18T15:17:30.96Z</time></trkpt><trkpt lat="43.14552" lon="12.2105233"><ele>257.0</ele><time>2026-04-18T15:17:31.96Z</time></trkpt><trkpt lat="43.145555" lon="12.210425"><ele>258.5</ele><time>2026-04-18T15:17:32.96Z</time></trkpt><trkpt lat="43.14561" lon="12.2103433"><ele>260.0</ele><time>2026-04-18T15:17:33.96Z</time></trkpt><trkpt lat="43.14568" lon="12.21029"><ele>261.5</ele><time>2026-04-18T15:17:34.96Z</time></trkpt><trkpt lat="43.1457583" lon="12.21025"><ele>263.0</ele><time>2026-04-18T15:17:35.96Z</time></trkpt><trkpt lat="43.1458433" lon="12.2102183"><ele>263.1666666666667</ele><time>2026-04-18T15:17:36.96Z</time></trkpt><trkpt lat="43.1459133" lon="12.210195"><ele>263.33333333333337</ele><time>2026-04-18T15:17:37.96Z</time></trkpt><trkpt lat="43.1459783" lon="12.21016"><ele>263.5</ele><time>2026-04-18T15:17:38.96Z</time></trkpt><trkpt lat="43.14608" lon="12.21011"><ele>263.6666666666667</ele><time>2026-04-18T15:17:40.96Z</time></trkpt><trkpt lat="43.14618" lon="12.21002"><ele>263.8333333333333</ele><time>2026-04-18T15:17:42.96Z</time></trkpt><trkpt lat="43.14624" lon="12.2099617"><ele>264.0</ele><time>2026-04-18T15:17:43.96Z</time></trkpt><trkpt lat="43.14631" lon="12.2098917"><ele>264.0</ele><time>2026-04-18T15:17:44.96Z</time></trkpt><trkpt lat="43.146385" lon="12.20983"><ele>264.0</ele><time>2026-04-18T15:17:45.96Z</time></trkpt><trkpt lat="43.1464533" lon="12.209745"><ele>264.0</ele><time>2026-04-18T15:17:46.96Z</time></trkpt><trkpt lat="43.146515" lon="12.2096467"><ele>264.0</ele><time>2026-04-18T15:17:47.96Z</time></trkpt><trkpt lat="43.1465683" lon="12.2095333"><ele>264.0</ele><time>2026-04-18T15:17:48.96Z</time></trkpt><trkpt lat="43.1466217" lon="12.2094233"><ele>265.0</ele><time>2026-04-18T15:17:49.96Z</time></trkpt><trkpt lat="43.1466733" lon="12.2093083"><ele>266.0</ele><time>2026-04-18T15:17:50.96Z</time></trkpt><trkpt lat="43.14672" lon="12.209205"><ele>267.0</ele><time>2026-04-18T15:17:51.96Z</time></trkpt><trkpt lat="43.1467617" lon="12.209115"><ele>268.0</ele><time>2026-04-18T15:17:52.96Z</time></trkpt><trkpt lat="43.1467867" lon="12.2090317"><ele>269.0</ele><time>2026-04-18T15:17:53.96Z</time></trkpt><trkpt lat="43.1467883" lon="12.2089133"><ele>270.0</ele><time>2026-04-18T15:17:55.96Z</time></trkpt><trkpt lat="43.1466933" lon="12.2088567"><ele>272.4</ele><time>2026-04-18T15:17:57.96Z</time></trkpt><trkpt lat="43.1466133" lon="12.2088633"><ele>274.8</ele><time>2026-04-18T15:17:58.96Z</time></trkpt><trkpt lat="43.1465183" lon="12.20889"><ele>277.2</ele><time>2026-04-18T15:17:59.96Z</time></trkpt><trkpt lat="43.1464183" lon="12.2089183"><ele>279.6</ele><time>2026-04-18T15:18:00.96Z</time></trkpt><trkpt lat="43.1463167" lon="12.2089433"><ele>282.0</ele><time>2026-04-18T15:18:01.96Z</time></trkpt><trkpt lat="43.1462183" lon="12.2089617"><ele>283.0</ele><time>2026-04-18T15:18:02.96Z</time></trkpt><trkpt lat="43.14612" lon="12.2089617"><ele>284.0</ele><time>2026-04-18T15:18:03.96Z</time></trkpt><trkpt lat="43.146025" lon="12.20897"><ele>285.0</ele><time>2026-04-18T15:18:04.96Z</time></trkpt><trkpt lat="43.1459333" lon="12.2089483"><ele>286.0</ele><time>2026-04-18T15:18:05.96Z</time></trkpt><trkpt lat="43.1458533" lon="12.2089033"><ele>287.0</ele><time>2026-04-18T15:18:06.96Z</time></trkpt><trkpt lat="43.1457783" lon="12.20886"><ele>285.2</ele><time>2026-04-18T15:18:07.96Z</time></trkpt><trkpt lat="43.14571" lon="12.2087983"><ele>283.4</ele><time>2026-04-18T15:18:08.96Z</time></trkpt><trkpt lat="43.1456483" lon="12.2087117"><ele>281.6</ele><time>2026-04-18T15:18:09.96Z</time></trkpt><trkpt lat="43.145585" lon="12.2086067"><ele>279.8</ele><time>2026-04-18T15:18:10.96Z</time></trkpt><trkpt lat="43.1455267" lon="12.2084917"><ele>278.0</ele><time>2026-04-18T15:18:11.96Z</time></trkpt><trkpt lat="43.1454583" lon="12.2083783"><ele>278.0</ele><time>2026-04-18T15:18:12.96Z</time></trkpt><trkpt lat="43.1453933" lon="12.20826"><ele>278.0</ele><time>2026-04-18T15:18:13.96Z</time></trkpt><trkpt lat="43.1453283" lon="12.208135"><ele>278.0</ele><time>2026-04-18T15:18:14.96Z</time></trkpt><trkpt lat="43.145265" lon="12.2080117"><ele>278.0</ele><time>2026-04-18T15:18:15.96Z</time></trkpt><trkpt lat="43.1452033" lon="12.2078833"><ele>278.0</ele><time>2026-04-18T15:18:16.96Z</time></trkpt><trkpt lat="43.14514" lon="12.2077667"><ele>281.2</ele><time>2026-04-18T15:18:17.96Z</time></trkpt><trkpt lat="43.1450767" lon="12.2076417"><ele>284.4</ele><time>2026-04-18T15:18:18.96Z</time></trkpt><trkpt lat="43.1450083" lon="12.207525"><ele>287.59999999999997</ele><time>2026-04-18T15:18:19.96Z</time></trkpt><trkpt lat="43.1449517" lon="12.2074083"><ele>290.8</ele><time>2026-04-18T15:18:20.96Z</time></trkpt><trkpt lat="43.1448783" lon="12.2073133"><ele>294.0</ele><time>2026-04-18T15:18:21.96Z</time></trkpt><trkpt lat="43.1447917" lon="12.2072417"><ele>295.0</ele><time>2026-04-18T15:18:22.96Z</time></trkpt><trkpt lat="43.1446967" lon="12.207195"><ele>296.0</ele><time>2026-04-18T15:18:23.96Z</time></trkpt><trkpt lat="43.1446083" lon="12.2071533"><ele>297.0</ele><time>2026-04-18T15:18:24.96Z</time></trkpt><trkpt lat="43.1445133" lon="12.2071017"><ele>298.0</ele><time>2026-04-18T15:18:25.96Z</time></trkpt><trkpt lat="43.1444217" lon="12.2070583"><ele>299.0</ele><time>2026-04-18T15:18:26.96Z</time></trkpt><trkpt lat="43.1443267" lon="12.2070183"><ele>299.0</ele><time>2026-04-18T15:18:27.96Z</time></trkpt><trkpt lat="43.144235" lon="12.2069783"><ele>299.0</ele><time>2026-04-18T15:18:28.96Z</time></trkpt><trkpt lat="43.144145" lon="12.2069233"><ele>299.0</ele><time>2026-04-18T15:18:29.96Z</time></trkpt><trkpt lat="43.1440567" lon="12.2068817"><ele>299.0</ele><time>2026-04-18T15:18:30.96Z</time></trkpt><trkpt lat="43.1439667" lon="12.2068333"><ele>299.0</ele><time>2026-04-18T15:18:31.96Z</time></trkpt><trkpt lat="43.1438733" lon="12.206785"><ele>298.8</ele><time>2026-04-18T15:18:32.96Z</time></trkpt><trkpt lat="43.1437833" lon="12.2067367"><ele>298.59999999999997</ele><time>2026-04-18T15:18:33.96Z</time></trkpt><trkpt lat="43.1436867" lon="12.2066983"><ele>298.4</ele><time>2026-04-18T15:18:34.96Z</time></trkpt><trkpt lat="43.143595" lon="12.2066683"><ele>298.2</ele><time>2026-04-18T15:18:35.96Z</time></trkpt><trkpt lat="43.1435067" lon="12.2066383"><ele>298.0</ele><time>2026-04-18T15:18:36.96Z</time></trkpt><trkpt lat="43.14342" lon="12.2066017"><ele>298.0</ele><time>2026-04-18T15:18:37.96Z</time></trkpt><trkpt lat="43.143335" lon="12.2065483"><ele>298.0</ele><time>2026-04-18T15:18:38.96Z</time></trkpt><trkpt lat="43.1432467" lon="12.2065117"><ele>298.0</ele><time>2026-04-18T15:18:39.96Z</time></trkpt><trkpt lat="43.14316" lon="12.206475"><ele>298.0</ele><time>2026-04-18T15:18:40.96Z</time></trkpt><trkpt lat="43.1431017" lon="12.2064417"><ele>298.0</ele><time>2026-04-18T15:18:41.96Z</time></trkpt><trkpt lat="43.14299" lon="12.2063933"><ele>300.0</ele><time>2026-04-18T15:18:43.96Z</time></trkpt><trkpt lat="43.1428933" lon="12.20631"><ele>302.0</ele><time>2026-04-18T15:18:45.96Z</time></trkpt><trkpt lat="43.1428367" lon="12.20627"><ele>304.0</ele><time>2026-04-18T15:18:46.96Z</time></trkpt><trkpt lat="43.14277" lon="12.2062367"><ele>306.0</ele><time>2026-04-18T15:18:47.96Z</time></trkpt><trkpt lat="43.14271" lon="12.206195"><ele>308.0</ele><time>2026-04-18T15:18:48.96Z</time></trkpt><trkpt lat="43.14265" lon="12.206165"><ele>310.0</ele><time>2026-04-18T15:18:49.96Z</time></trkpt><trkpt lat="43.1425517" lon="12.2060817"><ele>310.0</ele><time>2026-04-18T15:18:51.96Z</time></trkpt><trkpt lat="43.1424383" lon="12.2060467"><ele>310.0</ele><time>2026-04-18T15:18:53.96Z</time></trkpt><trkpt lat="43.142335" lon="12.2060383"><ele>310.0</ele><time>2026-04-18T15:18:55.96Z</time></trkpt><trkpt lat="43.1422533" lon="12.206055"><ele>310.0</ele><time>2026-04-18T15:18:57.96Z</time></trkpt><trkpt lat="43.1421917" lon="12.2059517"><ele>310.0</ele><time>2026-04-18T15:19:09.96Z</time></trkpt><trkpt lat="43.1421933" lon="12.2057683"><ele>308.3333333333333</ele><time>2026-04-18T15:19:11.96Z</time></trkpt><trkpt lat="43.1421933" lon="12.20566"><ele>306.66666666666663</ele><time>2026-04-18T15:19:12.96Z</time></trkpt><trkpt lat="43.1421983" lon="12.2055517"><ele>305.0</ele><time>2026-04-18T15:19:13.96Z</time></trkpt><trkpt lat="43.1422067" lon="12.20544"><ele>303.3333333333333</ele><time>2026-04-18T15:19:14.96Z</time></trkpt><trkpt lat="43.1422117" lon="12.2053217"><ele>301.6666666666667</ele><time>2026-04-18T15:19:15.96Z</time></trkpt><trkpt lat="43.1422033" lon="12.2052117"><ele>300.0</ele><time>2026-04-18T15:19:16.96Z</time></trkpt><trkpt lat="43.1422" lon="12.2051017"><ele>300.0</ele><time>2026-04-18T15:19:17.96Z</time></trkpt><trkpt lat="43.1421983" lon="12.2049883"><ele>300.0</ele><time>2026-04-18T15:19:18.96Z</time></trkpt><trkpt lat="43.1421983" lon="12.2048717"><ele>300.0</ele><time>2026-04-18T15:19:19.96Z</time></trkpt><trkpt lat="43.14219" lon="12.2047567"><ele>300.0</ele><time>2026-04-18T15:19:20.96Z</time></trkpt><trkpt lat="43.1421783" lon="12.20465"><ele>300.0</ele><time>2026-04-18T15:19:21.96Z</time></trkpt><trkpt lat="43.1421717" lon="12.20453"><ele>300.0</ele><time>2026-04-18T15:19:22.96Z</time></trkpt><trkpt lat="43.142165" lon="12.2044183"><ele>299.6666666666667</ele><time>2026-04-18T15:19:23.96Z</time></trkpt><trkpt lat="43.142155" lon="12.20431"><ele>299.3333333333333</ele><time>2026-04-18T15:19:24.96Z</time></trkpt><trkpt lat="43.14215" lon="12.204205"><ele>299.0</ele><time>2026-04-18T15:19:25.96Z</time></trkpt><trkpt lat="43.142155" lon="12.2040917"><ele>298.66666666666663</ele><time>2026-04-18T15:19:26.96Z</time></trkpt><trkpt lat="43.1421633" lon="12.20399"><ele>298.3333333333333</ele><time>2026-04-18T15:19:27.96Z</time></trkpt><trkpt lat="43.1421833" lon="12.2038983"><ele>298.0</ele><time>2026-04-18T15:19:28.96Z</time></trkpt><trkpt lat="43.142225" lon="12.2038217"><ele>299.0</ele><time>2026-04-18T15:19:29.96Z</time></trkpt><trkpt lat="43.14228" lon="12.2037567"><ele>300.0</ele><time>2026-04-18T15:19:30.96Z</time></trkpt><trkpt lat="43.14234" lon="12.2037"><ele>301.0</ele><time>2026-04-18T15:19:31.96Z</time></trkpt><trkpt lat="43.1424" lon="12.2036433"><ele>302.0</ele><time>2026-04-18T15:19:32.96Z</time></trkpt><trkpt lat="43.1424583" lon="12.2035983"><ele>303.0</ele><time>2026-04-18T15:19:33.96Z</time></trkpt><trkpt lat="43.142565" lon="12.20352"><ele>304.0</ele><time>2026-04-18T15:19:35.96Z</time></trkpt><trkpt lat="43.14266" lon="12.2034833"><ele>304.0</ele><time>2026-04-18T15:19:37.96Z</time></trkpt><trkpt lat="43.1427083" lon="12.203545"><ele>304.0</ele><time>2026-04-18T15:19:39.96Z</time></trkpt><trkpt lat="43.14265" lon="12.2036167"><ele>304.0</ele><time>2026-04-18T15:19:42.96Z</time></trkpt></trkseg></trk></gpx>